<?xml version="1.0" encoding="UTF-8"?>
<TrainingCenterDatabase xmlns="http://www.garmin.com/xmlschemas/TrainingCenterDatabase/v2" xmlns:xsi="http://www.w3.org/2001/XMLSchema-instance" xsi:schemaLocation="http://www.garmin.com/xmlschemas/TrainingCenterDatabase/v2 http://www.garmin.com/xmlschemas/TrainingCenterDatabasev2.xsd">
  <Activities>
    <Activity Sport="Other">
      <Id>2023-01-11T14:06:31.000Z</Id>
      <Lap StartTime="2023-01-11T14:06:31.000Z">
        <TotalTimeSeconds>31467</TotalTimeSeconds>
        <DistanceMeters>24970</DistanceMeters>
        <Track>
          <Trackpoint>
            <Time>2023-01-11T14:06:31.000Z</Time>
            <Position>
              <LatitudeDegrees>-49.22964169643819332122802734375</LatitudeDegrees>
              <LongitudeDegrees>-73.0181126296520233154296875</LongitudeDegrees>
            </Position>
            <AltitudeMeters>552.4000244140625</AltitudeMeters>
            <DistanceMeters>0</DistanceMeters>
          </Trackpoint>
          <Trackpoint>
            <Time>2023-01-11T14:06:32.000Z</Time>
            <Position>
              <LatitudeDegrees>-49.22964102588593959808349609375</LatitudeDegrees>
              <LongitudeDegrees>-73.01809251308441162109375</LongitudeDegrees>
            </Position>
            <AltitudeMeters>552.4000244140625</AltitudeMeters>
            <DistanceMeters>1.4660007481789</DistanceMeters>
          </Trackpoint>
          <Trackpoint>
            <Time>2023-01-11T14:06:35.000Z</Time>
            <Position>
              <LatitudeDegrees>-49.22962727956473827362060546875</LatitudeDegrees>
              <LongitudeDegrees>-73.0180286429822444915771484375</LongitudeDegrees>
            </Position>
            <AltitudeMeters>552.4000244140625</AltitudeMeters>
            <DistanceMeters>6.3541069531119</DistanceMeters>
          </Trackpoint>
          <Trackpoint>
            <Time>2023-01-11T14:06:36.000Z</Time>
            <Position>
              <LatitudeDegrees>-49.22961856238543987274169921875</LatitudeDegrees>
              <LongitudeDegrees>-73.0180095322430133819580078125</LongitudeDegrees>
            </Position>
            <AltitudeMeters>552.4000244140625</AltitudeMeters>
            <DistanceMeters>8.0486760160826</DistanceMeters>
          </Trackpoint>
          <Trackpoint>
            <Time>2023-01-11T14:06:39.000Z</Time>
            <Position>
              <LatitudeDegrees>-49.22958570532500743865966796875</LatitudeDegrees>
              <LongitudeDegrees>-73.01797642372548580169677734375</LongitudeDegrees>
            </Position>
            <AltitudeMeters>552</AltitudeMeters>
            <DistanceMeters>12.426097884497</DistanceMeters>
          </Trackpoint>
          <Trackpoint>
            <Time>2023-01-11T14:06:46.000Z</Time>
            <Position>
              <LatitudeDegrees>-49.22953784465789794921875</LatitudeDegrees>
              <LongitudeDegrees>-73.01787483505904674530029296875</LongitudeDegrees>
            </Position>
            <AltitudeMeters>551.79998779296875</AltitudeMeters>
            <DistanceMeters>21.530827521093</DistanceMeters>
          </Trackpoint>
          <Trackpoint>
            <Time>2023-01-11T14:06:48.000Z</Time>
            <Position>
              <LatitudeDegrees>-49.2295338213443756103515625</LatitudeDegrees>
              <LongitudeDegrees>-73.0178439058363437652587890625</LongitudeDegrees>
            </Position>
            <AltitudeMeters>551.5999755859375</AltitudeMeters>
            <DistanceMeters>23.823316232163</DistanceMeters>
          </Trackpoint>
          <Trackpoint>
            <Time>2023-01-11T14:06:49.000Z</Time>
            <Position>
              <LatitudeDegrees>-49.229532815515995025634765625</LatitudeDegrees>
              <LongitudeDegrees>-73.01782756112515926361083984375</LongitudeDegrees>
            </Position>
            <AltitudeMeters>551.4000244140625</AltitudeMeters>
            <DistanceMeters>25.013997550443</DistanceMeters>
          </Trackpoint>
          <Trackpoint>
            <Time>2023-01-11T14:06:51.000Z</Time>
            <Position>
              <LatitudeDegrees>-49.22952267341315746307373046875</LatitudeDegrees>
              <LongitudeDegrees>-73.01780107431113719940185546875</LongitudeDegrees>
            </Position>
            <AltitudeMeters>551.20001220703125</AltitudeMeters>
            <DistanceMeters>27.246619819673</DistanceMeters>
          </Trackpoint>
          <Trackpoint>
            <Time>2023-01-11T14:06:55.000Z</Time>
            <Position>
              <LatitudeDegrees>-49.2295048199594020843505859375</LatitudeDegrees>
              <LongitudeDegrees>-73.01774759776890277862548828125</LongitudeDegrees>
            </Position>
            <AltitudeMeters>551</AltitudeMeters>
            <DistanceMeters>31.611646886799</DistanceMeters>
          </Trackpoint>
          <Trackpoint>
            <Time>2023-01-11T14:07:01.000Z</Time>
            <Position>
              <LatitudeDegrees>-49.22945528291165828704833984375</LatitudeDegrees>
              <LongitudeDegrees>-73.0176507867872714996337890625</LongitudeDegrees>
            </Position>
            <AltitudeMeters>550.20001220703125</AltitudeMeters>
            <DistanceMeters>40.551231694217</DistanceMeters>
          </Trackpoint>
          <Trackpoint>
            <Time>2023-01-11T14:07:03.000Z</Time>
            <Position>
              <LatitudeDegrees>-49.2294466495513916015625</LatitudeDegrees>
              <LongitudeDegrees>-73.017621450126171112060546875</LongitudeDegrees>
            </Position>
            <AltitudeMeters>550</AltitudeMeters>
            <DistanceMeters>42.888579817324</DistanceMeters>
          </Trackpoint>
          <Trackpoint>
            <Time>2023-01-11T14:07:09.000Z</Time>
            <Position>
              <LatitudeDegrees>-49.2293985374271869659423828125</LatitudeDegrees>
              <LongitudeDegrees>-73.0175398103892803192138671875</LongitudeDegrees>
            </Position>
            <AltitudeMeters>549.20001220703125</AltitudeMeters>
            <DistanceMeters>50.880998773093</DistanceMeters>
          </Trackpoint>
          <Trackpoint>
            <Time>2023-01-11T14:07:13.000Z</Time>
            <Position>
              <LatitudeDegrees>-49.2293836176395416259765625</LatitudeDegrees>
              <LongitudeDegrees>-73.0174831487238407135009765625</LongitudeDegrees>
            </Position>
            <AltitudeMeters>549</AltitudeMeters>
            <DistanceMeters>55.321909372688</DistanceMeters>
          </Trackpoint>
          <Trackpoint>
            <Time>2023-01-11T14:07:16.000Z</Time>
            <Position>
              <LatitudeDegrees>-49.22936509363353252410888671875</LatitudeDegrees>
              <LongitudeDegrees>-73.01744132302701473236083984375</LongitudeDegrees>
            </Position>
            <AltitudeMeters>549.20001220703125</AltitudeMeters>
            <DistanceMeters>58.994910081546</DistanceMeters>
          </Trackpoint>
          <Trackpoint>
            <Time>2023-01-11T14:07:21.000Z</Time>
            <Position>
              <LatitudeDegrees>-49.22934749163687229156494140625</LatitudeDegrees>
              <LongitudeDegrees>-73.0173604376614093780517578125</LongitudeDegrees>
            </Position>
            <AltitudeMeters>549.20001220703125</AltitudeMeters>
            <DistanceMeters>65.192080009516</DistanceMeters>
          </Trackpoint>
          <Trackpoint>
            <Time>2023-01-11T14:07:24.000Z</Time>
            <Position>
              <LatitudeDegrees>-49.2293368466198444366455078125</LatitudeDegrees>
              <LongitudeDegrees>-73.0173191986978054046630859375</LongitudeDegrees>
            </Position>
            <AltitudeMeters>549.20001220703125</AltitudeMeters>
            <DistanceMeters>68.414592679863</DistanceMeters>
          </Trackpoint>
          <Trackpoint>
            <Time>2023-01-11T14:07:28.000Z</Time>
            <Position>
              <LatitudeDegrees>-49.2293046601116657257080078125</LatitudeDegrees>
              <LongitudeDegrees>-73.0172658897936344146728515625</LongitudeDegrees>
            </Position>
            <AltitudeMeters>549</AltitudeMeters>
            <DistanceMeters>73.691784712863</DistanceMeters>
          </Trackpoint>
          <Trackpoint>
            <Time>2023-01-11T14:07:32.000Z</Time>
            <Position>
              <LatitudeDegrees>-49.2292647622525691986083984375</LatitudeDegrees>
              <LongitudeDegrees>-73.01721182651817798614501953125</LongitudeDegrees>
            </Position>
            <AltitudeMeters>548.20001220703125</AltitudeMeters>
            <DistanceMeters>79.621634430416</DistanceMeters>
          </Trackpoint>
          <Trackpoint>
            <Time>2023-01-11T14:07:38.000Z</Time>
            <Position>
              <LatitudeDegrees>-49.229210950434207916259765625</LatitudeDegrees>
              <LongitudeDegrees>-73.017142675817012786865234375</LongitudeDegrees>
            </Position>
            <AltitudeMeters>548</AltitudeMeters>
            <DistanceMeters>87.440433412713</DistanceMeters>
          </Trackpoint>
          <Trackpoint>
            <Time>2023-01-11T14:07:45.000Z</Time>
            <Position>
              <LatitudeDegrees>-49.22913710586726665496826171875</LatitudeDegrees>
              <LongitudeDegrees>-73.017040751874446868896484375</LongitudeDegrees>
            </Position>
            <AltitudeMeters>548.5999755859375</AltitudeMeters>
            <DistanceMeters>98.505232390877</DistanceMeters>
          </Trackpoint>
          <Trackpoint>
            <Time>2023-01-11T14:07:48.000Z</Time>
            <Position>
              <LatitudeDegrees>-49.229113720357418060302734375</LatitudeDegrees>
              <LongitudeDegrees>-73.01699104718863964080810546875</LongitudeDegrees>
            </Position>
            <AltitudeMeters>548</AltitudeMeters>
            <DistanceMeters>102.95832658154</DistanceMeters>
          </Trackpoint>
          <Trackpoint>
            <Time>2023-01-11T14:07:49.000Z</Time>
            <Position>
              <LatitudeDegrees>-49.2291061766445636749267578125</LatitudeDegrees>
              <LongitudeDegrees>-73.016975708305835723876953125</LongitudeDegrees>
            </Position>
            <AltitudeMeters>548</AltitudeMeters>
            <DistanceMeters>104.35492835438</DistanceMeters>
          </Trackpoint>
          <Trackpoint>
            <Time>2023-01-11T14:07:50.000Z</Time>
            <Position>
              <LatitudeDegrees>-49.2290993034839630126953125</LatitudeDegrees>
              <LongitudeDegrees>-73.01695969887077808380126953125</LongitudeDegrees>
            </Position>
            <AltitudeMeters>548.20001220703125</AltitudeMeters>
            <DistanceMeters>105.75153012722</DistanceMeters>
          </Trackpoint>
          <Trackpoint>
            <Time>2023-01-11T14:07:52.000Z</Time>
            <Position>
              <LatitudeDegrees>-49.22908564098179340362548828125</LatitudeDegrees>
              <LongitudeDegrees>-73.01692768000066280364990234375</LongitudeDegrees>
            </Position>
            <AltitudeMeters>548.4000244140625</AltitudeMeters>
            <DistanceMeters>108.5301476539</DistanceMeters>
          </Trackpoint>
          <Trackpoint>
            <Time>2023-01-11T14:07:55.000Z</Time>
            <Position>
              <LatitudeDegrees>-49.22906653024256229400634765625</LatitudeDegrees>
              <LongitudeDegrees>-73.01688241772353649139404296875</LongitudeDegrees>
            </Position>
            <AltitudeMeters>548.4000244140625</AltitudeMeters>
            <DistanceMeters>112.44819945993</DistanceMeters>
          </Trackpoint>
          <Trackpoint>
            <Time>2023-01-11T14:07:59.000Z</Time>
            <Position>
              <LatitudeDegrees>-49.22904205508530139923095703125</LatitudeDegrees>
              <LongitudeDegrees>-73.0168045498430728912353515625</LongitudeDegrees>
            </Position>
            <AltitudeMeters>548.4000244140625</AltitudeMeters>
            <DistanceMeters>118.72859545916</DistanceMeters>
          </Trackpoint>
          <Trackpoint>
            <Time>2023-01-11T14:08:03.000Z</Time>
            <Position>
              <LatitudeDegrees>-49.22902353107929229736328125</LatitudeDegrees>
              <LongitudeDegrees>-73.0167395062744617462158203125</LongitudeDegrees>
            </Position>
            <AltitudeMeters>548.4000244140625</AltitudeMeters>
            <DistanceMeters>123.88461573172</DistanceMeters>
          </Trackpoint>
          <Trackpoint>
            <Time>2023-01-11T14:08:11.000Z</Time>
            <Position>
              <LatitudeDegrees>-49.22898623161017894744873046875</LatitudeDegrees>
              <LongitudeDegrees>-73.01660816185176372528076171875</LongitudeDegrees>
            </Position>
            <AltitudeMeters>548.20001220703125</AltitudeMeters>
            <DistanceMeters>134.29470446351</DistanceMeters>
          </Trackpoint>
          <Trackpoint>
            <Time>2023-01-11T14:08:21.000Z</Time>
            <Position>
              <LatitudeDegrees>-49.22892152331769466400146484375</LatitudeDegrees>
              <LongitudeDegrees>-73.0164515040814876556396484375</LongitudeDegrees>
            </Position>
            <AltitudeMeters>547.5999755859375</AltitudeMeters>
            <DistanceMeters>147.76773666404</DistanceMeters>
          </Trackpoint>
          <Trackpoint>
            <Time>2023-01-11T14:08:22.000Z</Time>
            <Position>
              <LatitudeDegrees>-49.22891758382320404052734375</LatitudeDegrees>
              <LongitudeDegrees>-73.0164349079132080078125</LongitudeDegrees>
            </Position>
            <AltitudeMeters>547.4000244140625</AltitudeMeters>
            <DistanceMeters>149.0497171291</DistanceMeters>
          </Trackpoint>
          <Trackpoint>
            <Time>2023-01-11T14:08:28.000Z</Time>
            <Position>
              <LatitudeDegrees>-49.2288832180202007293701171875</LatitudeDegrees>
              <LongitudeDegrees>-73.01633893512189388275146484375</LongitudeDegrees>
            </Position>
            <AltitudeMeters>547.4000244140625</AltitudeMeters>
            <DistanceMeters>157.00589937137</DistanceMeters>
          </Trackpoint>
          <Trackpoint>
            <Time>2023-01-11T14:08:32.000Z</Time>
            <Position>
              <LatitudeDegrees>-49.2288570664823055267333984375</LatitudeDegrees>
              <LongitudeDegrees>-73.01630758680403232574462890625</LongitudeDegrees>
            </Position>
            <AltitudeMeters>547.4000244140625</AltitudeMeters>
            <DistanceMeters>160.70340335867</DistanceMeters>
          </Trackpoint>
          <Trackpoint>
            <Time>2023-01-11T14:08:33.000Z</Time>
            <Position>
              <LatitudeDegrees>-49.22884893603622913360595703125</LatitudeDegrees>
              <LongitudeDegrees>-73.0162994563579559326171875</LongitudeDegrees>
            </Position>
            <AltitudeMeters>547.4000244140625</AltitudeMeters>
            <DistanceMeters>161.78269936129</DistanceMeters>
          </Trackpoint>
          <Trackpoint>
            <Time>2023-01-11T14:08:34.000Z</Time>
            <Position>
              <LatitudeDegrees>-49.22884591855108737945556640625</LatitudeDegrees>
              <LongitudeDegrees>-73.0162892304360866546630859375</LongitudeDegrees>
            </Position>
            <AltitudeMeters>547.4000244140625</AltitudeMeters>
            <DistanceMeters>162.58902777079</DistanceMeters>
          </Trackpoint>
          <Trackpoint>
            <Time>2023-01-11T14:08:36.000Z</Time>
            <Position>
              <LatitudeDegrees>-49.22883435152471065521240234375</LatitudeDegrees>
              <LongitudeDegrees>-73.01627825014293193817138671875</LongitudeDegrees>
            </Position>
            <AltitudeMeters>546.79998779296875</AltitudeMeters>
            <DistanceMeters>164.10350438559</DistanceMeters>
          </Trackpoint>
          <Trackpoint>
            <Time>2023-01-11T14:08:42.000Z</Time>
            <Position>
              <LatitudeDegrees>-49.22881088219583034515380859375</LatitudeDegrees>
              <LongitudeDegrees>-73.016220666468143463134765625</LongitudeDegrees>
            </Position>
            <AltitudeMeters>547.79998779296875</AltitudeMeters>
            <DistanceMeters>169.036663213</DistanceMeters>
          </Trackpoint>
          <Trackpoint>
            <Time>2023-01-11T14:08:48.000Z</Time>
            <Position>
              <LatitudeDegrees>-49.2287920229136943817138671875</LatitudeDegrees>
              <LongitudeDegrees>-73.0161474086344242095947265625</LongitudeDegrees>
            </Position>
            <AltitudeMeters>547.20001220703125</AltitudeMeters>
            <DistanceMeters>174.7603960281</DistanceMeters>
          </Trackpoint>
          <Trackpoint>
            <Time>2023-01-11T14:08:49.000Z</Time>
            <Position>
              <LatitudeDegrees>-49.22878942452371120452880859375</LatitudeDegrees>
              <LongitudeDegrees>-73.0161326564848423004150390625</LongitudeDegrees>
            </Position>
            <AltitudeMeters>547.20001220703125</AltitudeMeters>
            <DistanceMeters>175.87670716272</DistanceMeters>
          </Trackpoint>
          <Trackpoint>
            <Time>2023-01-11T14:08:55.000Z</Time>
            <Position>
              <LatitudeDegrees>-49.228769727051258087158203125</LatitudeDegrees>
              <LongitudeDegrees>-73.01603198982775211334228515625</LongitudeDegrees>
            </Position>
            <AltitudeMeters>547.5999755859375</AltitudeMeters>
            <DistanceMeters>183.51557841316</DistanceMeters>
          </Trackpoint>
          <Trackpoint>
            <Time>2023-01-11T14:09:01.000Z</Time>
            <Position>
              <LatitudeDegrees>-49.228736199438571929931640625</LatitudeDegrees>
              <LongitudeDegrees>-73.0159402079880237579345703125</LongitudeDegrees>
            </Position>
            <AltitudeMeters>547.20001220703125</AltitudeMeters>
            <DistanceMeters>191.1597673609</DistanceMeters>
          </Trackpoint>
          <Trackpoint>
            <Time>2023-01-11T14:09:03.000Z</Time>
            <Position>
              <LatitudeDegrees>-49.2287279851734638214111328125</LatitudeDegrees>
              <LongitudeDegrees>-73.01591916941106319427490234375</LongitudeDegrees>
            </Position>
            <AltitudeMeters>547.20001220703125</AltitudeMeters>
            <DistanceMeters>192.94262655564</DistanceMeters>
          </Trackpoint>
          <Trackpoint>
            <Time>2023-01-11T14:09:11.000Z</Time>
            <Position>
              <LatitudeDegrees>-49.22868498601019382476806640625</LatitudeDegrees>
              <LongitudeDegrees>-73.01581799983978271484375</LongitudeDegrees>
            </Position>
            <AltitudeMeters>547.20001220703125</AltitudeMeters>
            <DistanceMeters>201.71601652807</DistanceMeters>
          </Trackpoint>
          <Trackpoint>
            <Time>2023-01-11T14:09:15.000Z</Time>
            <Position>
              <LatitudeDegrees>-49.228675179183483123779296875</LatitudeDegrees>
              <LongitudeDegrees>-73.01581255160272121429443359375</LongitudeDegrees>
            </Position>
            <AltitudeMeters>546.79998779296875</AltitudeMeters>
            <DistanceMeters>202.87985133877</DistanceMeters>
          </Trackpoint>
          <Trackpoint>
            <Time>2023-01-11T14:09:16.000Z</Time>
            <Position>
              <LatitudeDegrees>-49.22867459245026111602783203125</LatitudeDegrees>
              <LongitudeDegrees>-73.01581062376499176025390625</LongitudeDegrees>
            </Position>
            <AltitudeMeters>546.79998779296875</AltitudeMeters>
            <DistanceMeters>203.04444243613</DistanceMeters>
          </Trackpoint>
          <Trackpoint>
            <Time>2023-01-11T14:09:24.000Z</Time>
            <Position>
              <LatitudeDegrees>-49.228671826422214508056640625</LatitudeDegrees>
              <LongitudeDegrees>-73.0157796107232570648193359375</LongitudeDegrees>
            </Position>
            <AltitudeMeters>547</AltitudeMeters>
            <DistanceMeters>205.31913665787</DistanceMeters>
          </Trackpoint>
          <Trackpoint>
            <Time>2023-01-11T14:09:31.000Z</Time>
            <Position>
              <LatitudeDegrees>-49.22864777036011219024658203125</LatitudeDegrees>
              <LongitudeDegrees>-73.0156750045716762542724609375</LongitudeDegrees>
            </Position>
            <AltitudeMeters>546.79998779296875</AltitudeMeters>
            <DistanceMeters>213.38018064055</DistanceMeters>
          </Trackpoint>
          <Trackpoint>
            <Time>2023-01-11T14:09:38.000Z</Time>
            <Position>
              <LatitudeDegrees>-49.2286029271781444549560546875</LatitudeDegrees>
              <LongitudeDegrees>-73.0155861563980579376220703125</LongitudeDegrees>
            </Position>
            <AltitudeMeters>546.4000244140625</AltitudeMeters>
            <DistanceMeters>221.54197418897</DistanceMeters>
          </Trackpoint>
          <Trackpoint>
            <Time>2023-01-11T14:09:39.000Z</Time>
            <Position>
              <LatitudeDegrees>-49.228597395122051239013671875</LatitudeDegrees>
              <LongitudeDegrees>-73.0155720748007297515869140625</LongitudeDegrees>
            </Position>
            <AltitudeMeters>546.4000244140625</AltitudeMeters>
            <DistanceMeters>222.73644146694</DistanceMeters>
          </Trackpoint>
          <Trackpoint>
            <Time>2023-01-11T14:09:45.000Z</Time>
            <Position>
              <LatitudeDegrees>-49.22855054028332233428955078125</LatitudeDegrees>
              <LongitudeDegrees>-73.01548750139772891998291015625</LongitudeDegrees>
            </Position>
            <AltitudeMeters>546.5999755859375</AltitudeMeters>
            <DistanceMeters>230.79804553605</DistanceMeters>
          </Trackpoint>
          <Trackpoint>
            <Time>2023-01-11T14:09:55.000Z</Time>
            <Position>
              <LatitudeDegrees>-49.228476695716381072998046875</LatitudeDegrees>
              <LongitudeDegrees>-73.0153635330498218536376953125</LongitudeDegrees>
            </Position>
            <AltitudeMeters>546</AltitudeMeters>
            <DistanceMeters>242.9940866636</DistanceMeters>
          </Trackpoint>
          <Trackpoint>
            <Time>2023-01-11T14:10:01.000Z</Time>
            <Position>
              <LatitudeDegrees>-49.22843352891504764556884765625</LatitudeDegrees>
              <LongitudeDegrees>-73.01526881754398345947265625</LongitudeDegrees>
            </Position>
            <AltitudeMeters>545.79998779296875</AltitudeMeters>
            <DistanceMeters>251.38984611237</DistanceMeters>
          </Trackpoint>
          <Trackpoint>
            <Time>2023-01-11T14:10:04.000Z</Time>
            <Position>
              <LatitudeDegrees>-49.2284111492335796356201171875</LatitudeDegrees>
              <LongitudeDegrees>-73.01521307788789272308349609375</LongitudeDegrees>
            </Position>
            <AltitudeMeters>545.79998779296875</AltitudeMeters>
            <DistanceMeters>256.14593079329</DistanceMeters>
          </Trackpoint>
          <Trackpoint>
            <Time>2023-01-11T14:10:08.000Z</Time>
            <Position>
              <LatitudeDegrees>-49.22838910482823848724365234375</LatitudeDegrees>
              <LongitudeDegrees>-73.01516748033463954925537109375</LongitudeDegrees>
            </Position>
            <AltitudeMeters>545</AltitudeMeters>
            <DistanceMeters>260.26838198979</DistanceMeters>
          </Trackpoint>
          <Trackpoint>
            <Time>2023-01-11T14:10:14.000Z</Time>
            <Position>
              <LatitudeDegrees>-49.2283601872622966766357421875</LatitudeDegrees>
              <LongitudeDegrees>-73.015046529471874237060546875</LongitudeDegrees>
            </Position>
            <AltitudeMeters>545.4000244140625</AltitudeMeters>
            <DistanceMeters>269.63032206464</DistanceMeters>
          </Trackpoint>
          <Trackpoint>
            <Time>2023-01-11T14:10:15.000Z</Time>
            <Position>
              <LatitudeDegrees>-49.2283551581203937530517578125</LatitudeDegrees>
              <LongitudeDegrees>-73.01503169350326061248779296875</LongitudeDegrees>
            </Position>
            <AltitudeMeters>545</AltitudeMeters>
            <DistanceMeters>270.84725778061</DistanceMeters>
          </Trackpoint>
          <Trackpoint>
            <Time>2023-01-11T14:10:17.000Z</Time>
            <Position>
              <LatitudeDegrees>-49.228349290788173675537109375</LatitudeDegrees>
              <LongitudeDegrees>-73.01499716006219387054443359375</LongitudeDegrees>
            </Position>
            <AltitudeMeters>544.4000244140625</AltitudeMeters>
            <DistanceMeters>273.44098231316</DistanceMeters>
          </Trackpoint>
          <Trackpoint>
            <Time>2023-01-11T14:10:25.000Z</Time>
            <Position>
              <LatitudeDegrees>-49.22830293886363506317138671875</LatitudeDegrees>
              <LongitudeDegrees>-73.01484611816704273223876953125</LongitudeDegrees>
            </Position>
            <AltitudeMeters>545.20001220703125</AltitudeMeters>
            <DistanceMeters>285.57094791813</DistanceMeters>
          </Trackpoint>
          <Trackpoint>
            <Time>2023-01-11T14:10:36.000Z</Time>
            <Position>
              <LatitudeDegrees>-49.22823471017181873321533203125</LatitudeDegrees>
              <LongitudeDegrees>-73.01467881537973880767822265625</LongitudeDegrees>
            </Position>
            <AltitudeMeters>543.79998779296875</AltitudeMeters>
            <DistanceMeters>299.9077048742</DistanceMeters>
          </Trackpoint>
          <Trackpoint>
            <Time>2023-01-11T14:10:43.000Z</Time>
            <Position>
              <LatitudeDegrees>-49.22818391583859920501708984375</LatitudeDegrees>
              <LongitudeDegrees>-73.01456565968692302703857421875</LongitudeDegrees>
            </Position>
            <AltitudeMeters>544.4000244140625</AltitudeMeters>
            <DistanceMeters>309.8877721674</DistanceMeters>
          </Trackpoint>
          <Trackpoint>
            <Time>2023-01-11T14:10:47.000Z</Time>
            <Position>
              <LatitudeDegrees>-49.22816128470003604888916015625</LatitudeDegrees>
              <LongitudeDegrees>-73.0145142786204814910888671875</LongitudeDegrees>
            </Position>
            <AltitudeMeters>544</AltitudeMeters>
            <DistanceMeters>314.39328122255</DistanceMeters>
          </Trackpoint>
          <Trackpoint>
            <Time>2023-01-11T14:10:59.000Z</Time>
            <Position>
              <LatitudeDegrees>-49.22807042486965656280517578125</LatitudeDegrees>
              <LongitudeDegrees>-73.01433985121548175811767578125</LongitudeDegrees>
            </Position>
            <AltitudeMeters>544</AltitudeMeters>
            <DistanceMeters>330.61086447366</DistanceMeters>
          </Trackpoint>
          <Trackpoint>
            <Time>2023-01-11T14:11:05.000Z</Time>
            <Position>
              <LatitudeDegrees>-49.22802281565964221954345703125</LatitudeDegrees>
              <LongitudeDegrees>-73.014260642230510711669921875</LongitudeDegrees>
            </Position>
            <AltitudeMeters>543.4000244140625</AltitudeMeters>
            <DistanceMeters>338.43543591816</DistanceMeters>
          </Trackpoint>
          <Trackpoint>
            <Time>2023-01-11T14:11:07.000Z</Time>
            <Position>
              <LatitudeDegrees>-49.2280061356723308563232421875</LatitudeDegrees>
              <LongitudeDegrees>-73.01423071883618831634521484375</LongitudeDegrees>
            </Position>
            <AltitudeMeters>543.4000244140625</AltitudeMeters>
            <DistanceMeters>341.2941452741</DistanceMeters>
          </Trackpoint>
          <Trackpoint>
            <Time>2023-01-11T14:11:14.000Z</Time>
            <Position>
              <LatitudeDegrees>-49.22793899662792682647705078125</LatitudeDegrees>
              <LongitudeDegrees>-73.014160059392452239990234375</LongitudeDegrees>
            </Position>
            <AltitudeMeters>543.79998779296875</AltitudeMeters>
            <DistanceMeters>350.36160611065</DistanceMeters>
          </Trackpoint>
          <Trackpoint>
            <Time>2023-01-11T14:11:19.000Z</Time>
            <Position>
              <LatitudeDegrees>-49.227891303598880767822265625</LatitudeDegrees>
              <LongitudeDegrees>-73.0140968598425388336181640625</LongitudeDegrees>
            </Position>
            <AltitudeMeters>543.79998779296875</AltitudeMeters>
            <DistanceMeters>357.38201615787</DistanceMeters>
          </Trackpoint>
          <Trackpoint>
            <Time>2023-01-11T14:11:27.000Z</Time>
            <Position>
              <LatitudeDegrees>-49.22783019952476024627685546875</LatitudeDegrees>
              <LongitudeDegrees>-73.01404816098511219024658203125</LongitudeDegrees>
            </Position>
            <AltitudeMeters>543.20001220703125</AltitudeMeters>
            <DistanceMeters>365.04920584185</DistanceMeters>
          </Trackpoint>
          <Trackpoint>
            <Time>2023-01-11T14:11:33.000Z</Time>
            <Position>
              <LatitudeDegrees>-49.22779977321624755859375</LatitudeDegrees>
              <LongitudeDegrees>-73.01404078491032123565673828125</LongitudeDegrees>
            </Position>
            <AltitudeMeters>543.4000244140625</AltitudeMeters>
            <DistanceMeters>368.4780773078</DistanceMeters>
          </Trackpoint>
          <Trackpoint>
            <Time>2023-01-11T14:11:38.000Z</Time>
            <Position>
              <LatitudeDegrees>-49.2277825064957141876220703125</LatitudeDegrees>
              <LongitudeDegrees>-73.01402603276073932647705078125</LongitudeDegrees>
            </Position>
            <AltitudeMeters>543.5999755859375</AltitudeMeters>
            <DistanceMeters>370.67810480171</DistanceMeters>
          </Trackpoint>
          <Trackpoint>
            <Time>2023-01-11T14:11:41.000Z</Time>
            <Position>
              <LatitudeDegrees>-49.2277662456035614013671875</LatitudeDegrees>
              <LongitudeDegrees>-73.0140646733343601226806640625</LongitudeDegrees>
            </Position>
            <AltitudeMeters>543.5999755859375</AltitudeMeters>
            <DistanceMeters>374.01893920119</DistanceMeters>
          </Trackpoint>
          <Trackpoint>
            <Time>2023-01-11T14:11:43.000Z</Time>
            <Position>
              <LatitudeDegrees>-49.22775878570973873138427734375</LatitudeDegrees>
              <LongitudeDegrees>-73.0140690319240093231201171875</LongitudeDegrees>
            </Position>
            <AltitudeMeters>543.4000244140625</AltitudeMeters>
            <DistanceMeters>374.90528938629</DistanceMeters>
          </Trackpoint>
          <Trackpoint>
            <Time>2023-01-11T14:11:44.000Z</Time>
            <Position>
              <LatitudeDegrees>-49.227751158177852630615234375</LatitudeDegrees>
              <LongitudeDegrees>-73.01407146267592906951904296875</LongitudeDegrees>
            </Position>
            <AltitudeMeters>543.4000244140625</AltitudeMeters>
            <DistanceMeters>375.77622360957</DistanceMeters>
          </Trackpoint>
          <Trackpoint>
            <Time>2023-01-11T14:11:52.000Z</Time>
            <Position>
              <LatitudeDegrees>-49.227712266147136688232421875</LatitudeDegrees>
              <LongitudeDegrees>-73.01400549709796905517578125</LongitudeDegrees>
            </Position>
            <AltitudeMeters>543.20001220703125</AltitudeMeters>
            <DistanceMeters>382.23664258391</DistanceMeters>
          </Trackpoint>
          <Trackpoint>
            <Time>2023-01-11T14:11:56.000Z</Time>
            <Position>
              <LatitudeDegrees>-49.22770095057785511016845703125</LatitudeDegrees>
              <LongitudeDegrees>-73.01393710076808929443359375</LongitudeDegrees>
            </Position>
            <AltitudeMeters>543.20001220703125</AltitudeMeters>
            <DistanceMeters>387.36544484967</DistanceMeters>
          </Trackpoint>
          <Trackpoint>
            <Time>2023-01-11T14:12:00.000Z</Time>
            <Position>
              <LatitudeDegrees>-49.22768234275281429290771484375</LatitudeDegrees>
              <LongitudeDegrees>-73.0138822831213474273681640625</LongitudeDegrees>
            </Position>
            <AltitudeMeters>543.20001220703125</AltitudeMeters>
            <DistanceMeters>391.85589702059</DistanceMeters>
          </Trackpoint>
          <Trackpoint>
            <Time>2023-01-11T14:12:05.000Z</Time>
            <Position>
              <LatitudeDegrees>-49.2276571132242679595947265625</LatitudeDegrees>
              <LongitudeDegrees>-73.01377893425524234771728515625</LongitudeDegrees>
            </Position>
            <AltitudeMeters>543.4000244140625</AltitudeMeters>
            <DistanceMeters>399.87538605879</DistanceMeters>
          </Trackpoint>
          <Trackpoint>
            <Time>2023-01-11T14:12:08.000Z</Time>
            <Position>
              <LatitudeDegrees>-49.227636158466339111328125</LatitudeDegrees>
              <LongitudeDegrees>-73.01376971416175365447998046875</LongitudeDegrees>
            </Position>
            <AltitudeMeters>543.4000244140625</AltitudeMeters>
            <DistanceMeters>402.30182580489</DistanceMeters>
          </Trackpoint>
          <Trackpoint>
            <Time>2023-01-11T14:12:15.000Z</Time>
            <Position>
              <LatitudeDegrees>-49.22755275852978229522705078125</LatitudeDegrees>
              <LongitudeDegrees>-73.0137629248201847076416015625</LongitudeDegrees>
            </Position>
            <AltitudeMeters>543.4000244140625</AltitudeMeters>
            <DistanceMeters>411.59745926863</DistanceMeters>
          </Trackpoint>
          <Trackpoint>
            <Time>2023-01-11T14:12:24.000Z</Time>
            <Position>
              <LatitudeDegrees>-49.227504730224609375</LatitudeDegrees>
              <LongitudeDegrees>-73.01365546882152557373046875</LongitudeDegrees>
            </Position>
            <AltitudeMeters>543.20001220703125</AltitudeMeters>
            <DistanceMeters>421.06252072646</DistanceMeters>
          </Trackpoint>
          <Trackpoint>
            <Time>2023-01-11T14:12:32.000Z</Time>
            <Position>
              <LatitudeDegrees>-49.22746743075549602508544921875</LatitudeDegrees>
              <LongitudeDegrees>-73.0136693827807903289794921875</LongitudeDegrees>
            </Position>
            <AltitudeMeters>543.5999755859375</AltitudeMeters>
            <DistanceMeters>425.33555414193</DistanceMeters>
          </Trackpoint>
          <Trackpoint>
            <Time>2023-01-11T14:12:38.000Z</Time>
            <Position>
              <LatitudeDegrees>-49.22743893228471279144287109375</LatitudeDegrees>
              <LongitudeDegrees>-73.01370198838412761688232421875</LongitudeDegrees>
            </Position>
            <AltitudeMeters>543.5999755859375</AltitudeMeters>
            <DistanceMeters>429.2948738697</DistanceMeters>
          </Trackpoint>
          <Trackpoint>
            <Time>2023-01-11T14:12:39.000Z</Time>
            <Position>
              <LatitudeDegrees>-49.2274331487715244293212890625</LatitudeDegrees>
              <LongitudeDegrees>-73.01370634697377681732177734375</LongitudeDegrees>
            </Position>
            <AltitudeMeters>543.5999755859375</AltitudeMeters>
            <DistanceMeters>430.01230983012</DistanceMeters>
          </Trackpoint>
          <Trackpoint>
            <Time>2023-01-11T14:12:45.000Z</Time>
            <Position>
              <LatitudeDegrees>-49.22743222676217555999755859375</LatitudeDegrees>
              <LongitudeDegrees>-73.0137223564088344573974609375</LongitudeDegrees>
            </Position>
            <AltitudeMeters>544</AltitudeMeters>
            <DistanceMeters>431.18387784755</DistanceMeters>
          </Trackpoint>
          <Trackpoint>
            <Time>2023-01-11T14:12:56.000Z</Time>
            <Position>
              <LatitudeDegrees>-49.22743675298988819122314453125</LatitudeDegrees>
              <LongitudeDegrees>-73.0137354321777820587158203125</LongitudeDegrees>
            </Position>
            <AltitudeMeters>544</AltitudeMeters>
            <DistanceMeters>432.25898239355</DistanceMeters>
          </Trackpoint>
          <Trackpoint>
            <Time>2023-01-11T14:12:57.000Z</Time>
            <Position>
              <LatitudeDegrees>-49.2274422012269496917724609375</LatitudeDegrees>
              <LongitudeDegrees>-73.013744987547397613525390625</LongitudeDegrees>
            </Position>
            <AltitudeMeters>544</AltitudeMeters>
            <DistanceMeters>433.18030057189</DistanceMeters>
          </Trackpoint>
          <Trackpoint>
            <Time>2023-01-11T14:13:03.000Z</Time>
            <Position>
              <LatitudeDegrees>-49.2274341545999050140380859375</LatitudeDegrees>
              <LongitudeDegrees>-73.01379360258579254150390625</LongitudeDegrees>
            </Position>
            <AltitudeMeters>543.79998779296875</AltitudeMeters>
            <DistanceMeters>436.82615747055</DistanceMeters>
          </Trackpoint>
          <Trackpoint>
            <Time>2023-01-11T14:13:25.000Z</Time>
            <Position>
              <LatitudeDegrees>-49.227417223155498504638671875</LatitudeDegrees>
              <LongitudeDegrees>-73.01380676217377185821533203125</LongitudeDegrees>
            </Position>
            <AltitudeMeters>544.4000244140625</AltitudeMeters>
            <DistanceMeters>438.93823175033</DistanceMeters>
          </Trackpoint>
          <Trackpoint>
            <Time>2023-01-11T14:13:30.000Z</Time>
            <Position>
              <LatitudeDegrees>-49.2273982800543308258056640625</LatitudeDegrees>
              <LongitudeDegrees>-73.01381179131567478179931640625</LongitudeDegrees>
            </Position>
            <AltitudeMeters>544.4000244140625</AltitudeMeters>
            <DistanceMeters>441.08002511887</DistanceMeters>
          </Trackpoint>
          <Trackpoint>
            <Time>2023-01-11T14:13:40.000Z</Time>
            <Position>
              <LatitudeDegrees>-49.227391742169857025146484375</LatitudeDegrees>
              <LongitudeDegrees>-73.01381598226726055145263671875</LongitudeDegrees>
            </Position>
            <AltitudeMeters>544.5999755859375</AltitudeMeters>
            <DistanceMeters>441.86363548008</DistanceMeters>
          </Trackpoint>
          <Trackpoint>
            <Time>2023-01-11T14:13:44.000Z</Time>
            <Position>
              <LatitudeDegrees>-49.227391742169857025146484375</LatitudeDegrees>
              <LongitudeDegrees>-73.01381330005824565887451171875</LongitudeDegrees>
            </Position>
            <AltitudeMeters>544.5999755859375</AltitudeMeters>
            <DistanceMeters>442.07612167309</DistanceMeters>
          </Trackpoint>
          <Trackpoint>
            <Time>2023-01-11T14:13:53.000Z</Time>
            <Position>
              <LatitudeDegrees>-49.22734891064465045928955078125</LatitudeDegrees>
              <LongitudeDegrees>-73.0138410441577434539794921875</LongitudeDegrees>
            </Position>
            <AltitudeMeters>544.4000244140625</AltitudeMeters>
            <DistanceMeters>447.25311567402</DistanceMeters>
          </Trackpoint>
          <Trackpoint>
            <Time>2023-01-11T14:14:00.000Z</Time>
            <Position>
              <LatitudeDegrees>-49.22728889621794223785400390625</LatitudeDegrees>
              <LongitudeDegrees>-73.0138792656362056732177734375</LongitudeDegrees>
            </Position>
            <AltitudeMeters>544.5999755859375</AltitudeMeters>
            <DistanceMeters>454.4876386762</DistanceMeters>
          </Trackpoint>
          <Trackpoint>
            <Time>2023-01-11T14:14:02.000Z</Time>
            <Position>
              <LatitudeDegrees>-49.227278418838977813720703125</LatitudeDegrees>
              <LongitudeDegrees>-73.01389510743319988250732421875</LongitudeDegrees>
            </Position>
            <AltitudeMeters>544.5999755859375</AltitudeMeters>
            <DistanceMeters>456.12805410538</DistanceMeters>
          </Trackpoint>
          <Trackpoint>
            <Time>2023-01-11T14:14:07.000Z</Time>
            <Position>
              <LatitudeDegrees>-49.22725805081427097320556640625</LatitudeDegrees>
              <LongitudeDegrees>-73.0139471590518951416015625</LongitudeDegrees>
            </Position>
            <AltitudeMeters>544.5999755859375</AltitudeMeters>
            <DistanceMeters>460.53938210687</DistanceMeters>
          </Trackpoint>
          <Trackpoint>
            <Time>2023-01-11T14:14:09.000Z</Time>
            <Position>
              <LatitudeDegrees>-49.22724732197821140289306640625</LatitudeDegrees>
              <LongitudeDegrees>-73.01395847462117671966552734375</LongitudeDegrees>
            </Position>
            <AltitudeMeters>545.20001220703125</AltitudeMeters>
            <DistanceMeters>461.98990194867</DistanceMeters>
          </Trackpoint>
          <Trackpoint>
            <Time>2023-01-11T14:14:11.000Z</Time>
            <Position>
              <LatitudeDegrees>-49.227246232330799102783203125</LatitudeDegrees>
              <LongitudeDegrees>-73.01396970637142658233642578125</LongitudeDegrees>
            </Position>
            <AltitudeMeters>545.5999755859375</AltitudeMeters>
            <DistanceMeters>462.81832563842</DistanceMeters>
          </Trackpoint>
          <Trackpoint>
            <Time>2023-01-11T14:14:13.000Z</Time>
            <Position>
              <LatitudeDegrees>-49.227249585092067718505859375</LatitudeDegrees>
              <LongitudeDegrees>-73.01398395560681819915771484375</LongitudeDegrees>
            </Position>
            <AltitudeMeters>546.4000244140625</AltitudeMeters>
            <DistanceMeters>463.92243628502</DistanceMeters>
          </Trackpoint>
          <Trackpoint>
            <Time>2023-01-11T14:14:14.000Z</Time>
            <Position>
              <LatitudeDegrees>-49.227249920368194580078125</LatitudeDegrees>
              <LongitudeDegrees>-73.01398848183453083038330078125</LongitudeDegrees>
            </Position>
            <AltitudeMeters>546.5999755859375</AltitudeMeters>
            <DistanceMeters>464.26505997622</DistanceMeters>
          </Trackpoint>
          <Trackpoint>
            <Time>2023-01-11T14:14:19.000Z</Time>
            <Position>
              <LatitudeDegrees>-49.2272353358566761016845703125</LatitudeDegrees>
              <LongitudeDegrees>-73.014021255075931549072265625</LongitudeDegrees>
            </Position>
            <AltitudeMeters>548</AltitudeMeters>
            <DistanceMeters>467.14736293192</DistanceMeters>
          </Trackpoint>
          <Trackpoint>
            <Time>2023-01-11T14:14:25.000Z</Time>
            <Position>
              <LatitudeDegrees>-49.22721966169774532318115234375</LatitudeDegrees>
              <LongitudeDegrees>-73.01405436359345912933349609375</LongitudeDegrees>
            </Position>
            <AltitudeMeters>549</AltitudeMeters>
            <DistanceMeters>470.1191325667</DistanceMeters>
          </Trackpoint>
          <Trackpoint>
            <Time>2023-01-11T14:14:28.000Z</Time>
            <Position>
              <LatitudeDegrees>-49.2272163927555084228515625</LatitudeDegrees>
              <LongitudeDegrees>-73.0140812695026397705078125</LongitudeDegrees>
            </Position>
            <AltitudeMeters>549.4000244140625</AltitudeMeters>
            <DistanceMeters>472.107894363</DistanceMeters>
          </Trackpoint>
          <Trackpoint>
            <Time>2023-01-11T14:14:31.000Z</Time>
            <Position>
              <LatitudeDegrees>-49.22720658592879772186279296875</LatitudeDegrees>
              <LongitudeDegrees>-73.01411680877208709716796875</LongitudeDegrees>
            </Position>
            <AltitudeMeters>550.20001220703125</AltitudeMeters>
            <DistanceMeters>474.91239014348</DistanceMeters>
          </Trackpoint>
          <Trackpoint>
            <Time>2023-01-11T14:14:36.000Z</Time>
            <Position>
              <LatitudeDegrees>-49.22717750072479248046875</LatitudeDegrees>
              <LongitudeDegrees>-73.014168106019496917724609375</LongitudeDegrees>
            </Position>
            <AltitudeMeters>551.4000244140625</AltitudeMeters>
            <DistanceMeters>479.85012306443</DistanceMeters>
          </Trackpoint>
          <Trackpoint>
            <Time>2023-01-11T14:14:42.000Z</Time>
            <Position>
              <LatitudeDegrees>-49.22715981490910053253173828125</LatitudeDegrees>
              <LongitudeDegrees>-73.0142219178378582000732421875</LongitudeDegrees>
            </Position>
            <AltitudeMeters>552.5999755859375</AltitudeMeters>
            <DistanceMeters>484.22960732253</DistanceMeters>
          </Trackpoint>
          <Trackpoint>
            <Time>2023-01-11T14:14:44.000Z</Time>
            <Position>
              <LatitudeDegrees>-49.22714975662529468536376953125</LatitudeDegrees>
              <LongitudeDegrees>-73.01423926837742328643798828125</LongitudeDegrees>
            </Position>
            <AltitudeMeters>553.20001220703125</AltitudeMeters>
            <DistanceMeters>485.91348499131</DistanceMeters>
          </Trackpoint>
          <Trackpoint>
            <Time>2023-01-11T14:14:48.000Z</Time>
            <Position>
              <LatitudeDegrees>-49.227135591208934783935546875</LatitudeDegrees>
              <LongitudeDegrees>-73.01425485871732234954833984375</LongitudeDegrees>
            </Position>
            <AltitudeMeters>553.79998779296875</AltitudeMeters>
            <DistanceMeters>487.85398541056</DistanceMeters>
          </Trackpoint>
          <Trackpoint>
            <Time>2023-01-11T14:14:50.000Z</Time>
            <Position>
              <LatitudeDegrees>-49.22713466919958591461181640625</LatitudeDegrees>
              <LongitudeDegrees>-73.01425787620246410369873046875</LongitudeDegrees>
            </Position>
            <AltitudeMeters>554.4000244140625</AltitudeMeters>
            <DistanceMeters>488.0867523727</DistanceMeters>
          </Trackpoint>
          <Trackpoint>
            <Time>2023-01-11T14:14:58.000Z</Time>
            <Position>
              <LatitudeDegrees>-49.22711245715618133544921875</LatitudeDegrees>
              <LongitudeDegrees>-73.01426374353468418121337890625</LongitudeDegrees>
            </Position>
            <AltitudeMeters>554.79998779296875</AltitudeMeters>
            <DistanceMeters>490.59732867265</DistanceMeters>
          </Trackpoint>
          <Trackpoint>
            <Time>2023-01-11T14:15:01.000Z</Time>
            <Position>
              <LatitudeDegrees>-49.2271065898239612579345703125</LatitudeDegrees>
              <LongitudeDegrees>-73.014286793768405914306640625</LongitudeDegrees>
            </Position>
            <AltitudeMeters>555.79998779296875</AltitudeMeters>
            <DistanceMeters>492.39531848545</DistanceMeters>
          </Trackpoint>
          <Trackpoint>
            <Time>2023-01-11T14:15:05.000Z</Time>
            <Position>
              <LatitudeDegrees>-49.2271077632904052734375</LatitudeDegrees>
              <LongitudeDegrees>-73.01428536884486675262451171875</LongitudeDegrees>
            </Position>
            <AltitudeMeters>557</AltitudeMeters>
            <DistanceMeters>492.58537191419</DistanceMeters>
          </Trackpoint>
          <Trackpoint>
            <Time>2023-01-11T14:15:07.000Z</Time>
            <Position>
              <LatitudeDegrees>-49.22711455263197422027587890625</LatitudeDegrees>
              <LongitudeDegrees>-73.01427396945655345916748046875</LongitudeDegrees>
            </Position>
            <AltitudeMeters>557.5999755859375</AltitudeMeters>
            <DistanceMeters>493.70168304881</DistanceMeters>
          </Trackpoint>
          <Trackpoint>
            <Time>2023-01-11T14:15:11.000Z</Time>
            <Position>
              <LatitudeDegrees>-49.22711849212646484375</LatitudeDegrees>
              <LongitudeDegrees>-73.01430079154670238494873046875</LongitudeDegrees>
            </Position>
            <AltitudeMeters>558.20001220703125</AltitudeMeters>
            <DistanceMeters>495.69950531023</DistanceMeters>
          </Trackpoint>
          <Trackpoint>
            <Time>2023-01-11T14:15:13.000Z</Time>
            <Position>
              <LatitudeDegrees>-49.2271077632904052734375</LatitudeDegrees>
              <LongitudeDegrees>-73.01431931555271148681640625</LongitudeDegrees>
            </Position>
            <AltitudeMeters>558.4000244140625</AltitudeMeters>
            <DistanceMeters>497.50000453083</DistanceMeters>
          </Trackpoint>
          <Trackpoint>
            <Time>2023-01-11T14:15:19.000Z</Time>
            <Position>
              <LatitudeDegrees>-49.2271091043949127197265625</LatitudeDegrees>
              <LongitudeDegrees>-73.01432929001748561859130859375</LongitudeDegrees>
            </Position>
            <AltitudeMeters>559.20001220703125</AltitudeMeters>
            <DistanceMeters>498.23607829523</DistanceMeters>
          </Trackpoint>
          <Trackpoint>
            <Time>2023-01-11T14:15:28.000Z</Time>
            <Position>
              <LatitudeDegrees>-49.22711086459457874298095703125</LatitudeDegrees>
              <LongitudeDegrees>-73.01432023756206035614013671875</LongitudeDegrees>
            </Position>
            <AltitudeMeters>560.20001220703125</AltitudeMeters>
            <DistanceMeters>498.92132567763</DistanceMeters>
          </Trackpoint>
          <Trackpoint>
            <Time>2023-01-11T14:15:35.000Z</Time>
            <Position>
              <LatitudeDegrees>-49.227109439671039581298828125</LatitudeDegrees>
              <LongitudeDegrees>-73.01433406770229339599609375</LongitudeDegrees>
            </Position>
            <AltitudeMeters>561.4000244140625</AltitudeMeters>
            <DistanceMeters>499.93593334299</DistanceMeters>
          </Trackpoint>
          <Trackpoint>
            <Time>2023-01-11T14:15:39.000Z</Time>
            <Position>
              <LatitudeDegrees>-49.227109439671039581298828125</LatitudeDegrees>
              <LongitudeDegrees>-73.01433616317808628082275390625</LongitudeDegrees>
            </Position>
            <AltitudeMeters>562.20001220703125</AltitudeMeters>
            <DistanceMeters>500.07032141124</DistanceMeters>
          </Trackpoint>
          <Trackpoint>
            <Time>2023-01-11T14:15:40.000Z</Time>
            <Position>
              <LatitudeDegrees>-49.227109439671039581298828125</LatitudeDegrees>
              <LongitudeDegrees>-73.01433742046356201171875</LongitudeDegrees>
            </Position>
            <AltitudeMeters>563</AltitudeMeters>
            <DistanceMeters>500.07032141124</DistanceMeters>
          </Trackpoint>
          <Trackpoint>
            <Time>2023-01-11T14:15:42.000Z</Time>
            <Position>
              <LatitudeDegrees>-49.227109439671039581298828125</LatitudeDegrees>
              <LongitudeDegrees>-73.01433750428259372711181640625</LongitudeDegrees>
            </Position>
            <AltitudeMeters>563.20001220703125</AltitudeMeters>
            <DistanceMeters>500.07032141124</DistanceMeters>
          </Trackpoint>
          <Trackpoint>
            <Time>2023-01-11T14:15:45.000Z</Time>
            <Position>
              <LatitudeDegrees>-49.22711086459457874298095703125</LatitudeDegrees>
              <LongitudeDegrees>-73.01433834247291088104248046875</LongitudeDegrees>
            </Position>
            <AltitudeMeters>564</AltitudeMeters>
            <DistanceMeters>500.23491250861</DistanceMeters>
          </Trackpoint>
          <Trackpoint>
            <Time>2023-01-11T14:15:50.000Z</Time>
            <Position>
              <LatitudeDegrees>-49.2271225154399871826171875</LatitudeDegrees>
              <LongitudeDegrees>-73.0143395997583866119384765625</LongitudeDegrees>
            </Position>
            <AltitudeMeters>565.20001220703125</AltitudeMeters>
            <DistanceMeters>501.53090410525</DistanceMeters>
          </Trackpoint>
          <Trackpoint>
            <Time>2023-01-11T14:15:53.000Z</Time>
            <Position>
              <LatitudeDegrees>-49.22713265754282474517822265625</LatitudeDegrees>
              <LongitudeDegrees>-73.01434085704386234283447265625</LongitudeDegrees>
            </Position>
            <AltitudeMeters>566.5999755859375</AltitudeMeters>
            <DistanceMeters>502.66327809605</DistanceMeters>
          </Trackpoint>
          <Trackpoint>
            <Time>2023-01-11T14:15:57.000Z</Time>
            <Position>
              <LatitudeDegrees>-49.227152355015277862548828125</LatitudeDegrees>
              <LongitudeDegrees>-73.0143449641764163970947265625</LongitudeDegrees>
            </Position>
            <AltitudeMeters>567.5999755859375</AltitudeMeters>
            <DistanceMeters>504.8776248415</DistanceMeters>
          </Trackpoint>
          <Trackpoint>
            <Time>2023-01-11T14:16:10.000Z</Time>
            <Position>
              <LatitudeDegrees>-49.2271910794079303741455078125</LatitudeDegrees>
              <LongitudeDegrees>-73.0143955908715724945068359375</LongitudeDegrees>
            </Position>
            <AltitudeMeters>568.79998779296875</AltitudeMeters>
            <DistanceMeters>510.54427745435</DistanceMeters>
          </Trackpoint>
          <Trackpoint>
            <Time>2023-01-11T14:16:16.000Z</Time>
            <Position>
              <LatitudeDegrees>-49.227199293673038482666015625</LatitudeDegrees>
              <LongitudeDegrees>-73.01442199386656284332275390625</LongitudeDegrees>
            </Position>
            <AltitudeMeters>568.79998779296875</AltitudeMeters>
            <DistanceMeters>512.66913938444</DistanceMeters>
          </Trackpoint>
          <Trackpoint>
            <Time>2023-01-11T14:16:18.000Z</Time>
            <Position>
              <LatitudeDegrees>-49.227199293673038482666015625</LatitudeDegrees>
              <LongitudeDegrees>-73.01443356089293956756591796875</LongitudeDegrees>
            </Position>
            <AltitudeMeters>568.5999755859375</AltitudeMeters>
            <DistanceMeters>513.51908415648</DistanceMeters>
          </Trackpoint>
          <Trackpoint>
            <Time>2023-01-11T14:16:25.000Z</Time>
            <Position>
              <LatitudeDegrees>-49.227199293673038482666015625</LatitudeDegrees>
              <LongitudeDegrees>-73.01446951925754547119140625</LongitudeDegrees>
            </Position>
            <AltitudeMeters>568.5999755859375</AltitudeMeters>
            <DistanceMeters>516.13534063178</DistanceMeters>
          </Trackpoint>
          <Trackpoint>
            <Time>2023-01-11T14:16:33.000Z</Time>
            <Position>
              <LatitudeDegrees>-49.22719292342662811279296875</LatitudeDegrees>
              <LongitudeDegrees>-73.0144988559186458587646484375</LongitudeDegrees>
            </Position>
            <AltitudeMeters>568.5999755859375</AltitudeMeters>
            <DistanceMeters>518.38408312673</DistanceMeters>
          </Trackpoint>
          <Trackpoint>
            <Time>2023-01-11T14:16:46.000Z</Time>
            <Position>
              <LatitudeDegrees>-49.2271964438259601593017578125</LatitudeDegrees>
              <LongitudeDegrees>-73.014512769877910614013671875</LongitudeDegrees>
            </Position>
            <AltitudeMeters>568.4000244140625</AltitudeMeters>
            <DistanceMeters>519.46755437126</DistanceMeters>
          </Trackpoint>
          <Trackpoint>
            <Time>2023-01-11T14:16:52.000Z</Time>
            <Position>
              <LatitudeDegrees>-49.2272058315575122833251953125</LatitudeDegrees>
              <LongitudeDegrees>-73.014512099325656890869140625</LongitudeDegrees>
            </Position>
            <AltitudeMeters>568.5999755859375</AltitudeMeters>
            <DistanceMeters>520.51715873775</DistanceMeters>
          </Trackpoint>
          <Trackpoint>
            <Time>2023-01-11T14:17:00.000Z</Time>
            <Position>
              <LatitudeDegrees>-49.22721572220325469970703125</LatitudeDegrees>
              <LongitudeDegrees>-73.01450732164084911346435546875</LongitudeDegrees>
            </Position>
            <AltitudeMeters>568.5999755859375</AltitudeMeters>
            <DistanceMeters>521.6653708962</DistanceMeters>
          </Trackpoint>
          <Trackpoint>
            <Time>2023-01-11T14:17:12.000Z</Time>
            <Position>
              <LatitudeDegrees>-49.22723256982862949371337890625</LatitudeDegrees>
              <LongitudeDegrees>-73.01449977792799472808837890625</LongitudeDegrees>
            </Position>
            <AltitudeMeters>569.79998779296875</AltitudeMeters>
            <DistanceMeters>523.61747034535</DistanceMeters>
          </Trackpoint>
          <Trackpoint>
            <Time>2023-01-11T14:17:18.000Z</Time>
            <Position>
              <LatitudeDegrees>-49.22723717987537384033203125</LatitudeDegrees>
              <LongitudeDegrees>-73.0145012028515338897705078125</LongitudeDegrees>
            </Position>
            <AltitudeMeters>570.79998779296875</AltitudeMeters>
            <DistanceMeters>524.13795309561</DistanceMeters>
          </Trackpoint>
          <Trackpoint>
            <Time>2023-01-11T14:17:21.000Z</Time>
            <Position>
              <LatitudeDegrees>-49.22723877243697643280029296875</LatitudeDegrees>
              <LongitudeDegrees>-73.01451285369694232940673828125</LongitudeDegrees>
            </Position>
            <AltitudeMeters>571</AltitudeMeters>
            <DistanceMeters>525.00368766512</DistanceMeters>
          </Trackpoint>
          <Trackpoint>
            <Time>2023-01-11T14:17:22.000Z</Time>
            <Position>
              <LatitudeDegrees>-49.22723910771310329437255859375</LatitudeDegrees>
              <LongitudeDegrees>-73.01452022977173328399658203125</LongitudeDegrees>
            </Position>
            <AltitudeMeters>571.4000244140625</AltitudeMeters>
            <DistanceMeters>525.54123993812</DistanceMeters>
          </Trackpoint>
          <Trackpoint>
            <Time>2023-01-11T14:17:23.000Z</Time>
            <Position>
              <LatitudeDegrees>-49.22723977826535701751708984375</LatitudeDegrees>
              <LongitudeDegrees>-73.01452576182782649993896484375</LongitudeDegrees>
            </Position>
            <AltitudeMeters>571.4000244140625</AltitudeMeters>
            <DistanceMeters>525.94440414287</DistanceMeters>
          </Trackpoint>
          <Trackpoint>
            <Time>2023-01-11T14:17:24.000Z</Time>
            <Position>
              <LatitudeDegrees>-49.22724246047437191009521484375</LatitudeDegrees>
              <LongitudeDegrees>-73.01452944986522197723388671875</LongitudeDegrees>
            </Position>
            <AltitudeMeters>571.79998779296875</AltitudeMeters>
            <DistanceMeters>526.34756834762</DistanceMeters>
          </Trackpoint>
          <Trackpoint>
            <Time>2023-01-11T14:17:27.000Z</Time>
            <Position>
              <LatitudeDegrees>-49.22725729644298553466796875</LatitudeDegrees>
              <LongitudeDegrees>-73.01453548483550548553466796875</LongitudeDegrees>
            </Position>
            <AltitudeMeters>572.5999755859375</AltitudeMeters>
            <DistanceMeters>528.05804920628</DistanceMeters>
          </Trackpoint>
          <Trackpoint>
            <Time>2023-01-11T14:17:28.000Z</Time>
            <Position>
              <LatitudeDegrees>-49.22726400196552276611328125</LatitudeDegrees>
              <LongitudeDegrees>-73.01453799940645694732666015625</LongitudeDegrees>
            </Position>
            <AltitudeMeters>572.79998779296875</AltitudeMeters>
            <DistanceMeters>528.83004988328</DistanceMeters>
          </Trackpoint>
          <Trackpoint>
            <Time>2023-01-11T14:17:29.000Z</Time>
            <Position>
              <LatitudeDegrees>-49.2272705398499965667724609375</LatitudeDegrees>
              <LongitudeDegrees>-73.01454126834869384765625</LongitudeDegrees>
            </Position>
            <AltitudeMeters>573</AltitudeMeters>
            <DistanceMeters>529.60205056029</DistanceMeters>
          </Trackpoint>
          <Trackpoint>
            <Time>2023-01-11T14:17:35.000Z</Time>
            <Position>
              <LatitudeDegrees>-49.22729878686368465423583984375</LatitudeDegrees>
              <LongitudeDegrees>-73.01456918008625507354736328125</LongitudeDegrees>
            </Position>
            <AltitudeMeters>574.4000244140625</AltitudeMeters>
            <DistanceMeters>533.3456689491</DistanceMeters>
          </Trackpoint>
          <Trackpoint>
            <Time>2023-01-11T14:17:45.000Z</Time>
            <Position>
              <LatitudeDegrees>-49.22733105719089508056640625</LatitudeDegrees>
              <LongitudeDegrees>-73.014601953327655792236328125</LongitudeDegrees>
            </Position>
            <AltitudeMeters>575.5999755859375</AltitudeMeters>
            <DistanceMeters>537.65657341588</DistanceMeters>
          </Trackpoint>
          <Trackpoint>
            <Time>2023-01-11T14:17:47.000Z</Time>
            <Position>
              <LatitudeDegrees>-49.2273344099521636962890625</LatitudeDegrees>
              <LongitudeDegrees>-73.01460497081279754638671875</LongitudeDegrees>
            </Position>
            <AltitudeMeters>575.79998779296875</AltitudeMeters>
            <DistanceMeters>538.08154580189</DistanceMeters>
          </Trackpoint>
          <Trackpoint>
            <Time>2023-01-11T14:17:54.000Z</Time>
            <Position>
              <LatitudeDegrees>-49.22735427506268024444580078125</LatitudeDegrees>
              <LongitudeDegrees>-73.0146098323166370391845703125</LongitudeDegrees>
            </Position>
            <AltitudeMeters>576.4000244140625</AltitudeMeters>
            <DistanceMeters>540.31820901972</DistanceMeters>
          </Trackpoint>
          <Trackpoint>
            <Time>2023-01-11T14:17:55.000Z</Time>
            <Position>
              <LatitudeDegrees>-49.22735746018588542938232421875</LatitudeDegrees>
              <LongitudeDegrees>-73.0146118439733982086181640625</LongitudeDegrees>
            </Position>
            <AltitudeMeters>576.4000244140625</AltitudeMeters>
            <DistanceMeters>540.6983158772</DistanceMeters>
          </Trackpoint>
          <Trackpoint>
            <Time>2023-01-11T14:17:56.000Z</Time>
            <Position>
              <LatitudeDegrees>-49.22735989093780517578125</LatitudeDegrees>
              <LongitudeDegrees>-73.014614023268222808837890625</LongitudeDegrees>
            </Position>
            <AltitudeMeters>576.79998779296875</AltitudeMeters>
            <DistanceMeters>541.01348383382</DistanceMeters>
          </Trackpoint>
          <Trackpoint>
            <Time>2023-01-11T14:18:02.000Z</Time>
            <Position>
              <LatitudeDegrees>-49.22737489454448223114013671875</LatitudeDegrees>
              <LongitudeDegrees>-73.014628104865550994873046875</LongitudeDegrees>
            </Position>
            <AltitudeMeters>577.5999755859375</AltitudeMeters>
            <DistanceMeters>542.97250973683</DistanceMeters>
          </Trackpoint>
          <Trackpoint>
            <Time>2023-01-11T14:18:06.000Z</Time>
            <Position>
              <LatitudeDegrees>-49.227386377751827239990234375</LatitudeDegrees>
              <LongitudeDegrees>-73.0146430246531963348388671875</LongitudeDegrees>
            </Position>
            <AltitudeMeters>577.79998779296875</AltitudeMeters>
            <DistanceMeters>544.64562769371</DistanceMeters>
          </Trackpoint>
          <Trackpoint>
            <Time>2023-01-11T14:18:09.000Z</Time>
            <Position>
              <LatitudeDegrees>-49.22740071080625057220458984375</LatitudeDegrees>
              <LongitudeDegrees>-73.01469189114868640899658203125</LongitudeDegrees>
            </Position>
            <AltitudeMeters>578</AltitudeMeters>
            <DistanceMeters>548.53940456834</DistanceMeters>
          </Trackpoint>
          <Trackpoint>
            <Time>2023-01-11T14:18:13.000Z</Time>
            <Position>
              <LatitudeDegrees>-49.22742091119289398193359375</LatitudeDegrees>
              <LongitudeDegrees>-73.01479716785252094268798828125</LongitudeDegrees>
            </Position>
            <AltitudeMeters>578.20001220703125</AltitudeMeters>
            <DistanceMeters>556.51485806462</DistanceMeters>
          </Trackpoint>
          <Trackpoint>
            <Time>2023-01-11T14:18:20.000Z</Time>
            <Position>
              <LatitudeDegrees>-49.2274254374206066131591796875</LatitudeDegrees>
              <LongitudeDegrees>-73.0148753710091114044189453125</LongitudeDegrees>
            </Position>
            <AltitudeMeters>578.4000244140625</AltitudeMeters>
            <DistanceMeters>562.22121028446</DistanceMeters>
          </Trackpoint>
          <Trackpoint>
            <Time>2023-01-11T14:18:27.000Z</Time>
            <Position>
              <LatitudeDegrees>-49.22742736525833606719970703125</LatitudeDegrees>
              <LongitudeDegrees>-73.01488266326487064361572265625</LongitudeDegrees>
            </Position>
            <AltitudeMeters>578.20001220703125</AltitudeMeters>
            <DistanceMeters>562.79137057068</DistanceMeters>
          </Trackpoint>
          <Trackpoint>
            <Time>2023-01-11T14:18:38.000Z</Time>
            <Position>
              <LatitudeDegrees>-49.227426946163177490234375</LatitudeDegrees>
              <LongitudeDegrees>-73.01488266326487064361572265625</LongitudeDegrees>
            </Position>
            <AltitudeMeters>578.20001220703125</AltitudeMeters>
            <DistanceMeters>562.88639728505</DistanceMeters>
          </Trackpoint>
          <Trackpoint>
            <Time>2023-01-11T14:18:47.000Z</Time>
            <Position>
              <LatitudeDegrees>-49.22742518596351146697998046875</LatitudeDegrees>
              <LongitudeDegrees>-73.01488417200744152069091796875</LongitudeDegrees>
            </Position>
            <AltitudeMeters>578.20001220703125</AltitudeMeters>
            <DistanceMeters>563.11916424719</DistanceMeters>
          </Trackpoint>
          <Trackpoint>
            <Time>2023-01-11T14:18:51.000Z</Time>
            <Position>
              <LatitudeDegrees>-49.22742401249706745147705078125</LatitudeDegrees>
              <LongitudeDegrees>-73.0149018578231334686279296875</LongitudeDegrees>
            </Position>
            <AltitudeMeters>578.20001220703125</AltitudeMeters>
            <DistanceMeters>564.41166730023</DistanceMeters>
          </Trackpoint>
          <Trackpoint>
            <Time>2023-01-11T14:18:54.000Z</Time>
            <Position>
              <LatitudeDegrees>-49.227422587573528289794921875</LatitudeDegrees>
              <LongitudeDegrees>-73.014905042946338653564453125</LongitudeDegrees>
            </Position>
            <AltitudeMeters>578.20001220703125</AltitudeMeters>
            <DistanceMeters>564.68044343673</DistanceMeters>
          </Trackpoint>
          <Trackpoint>
            <Time>2023-01-11T14:19:01.000Z</Time>
            <Position>
              <LatitudeDegrees>-49.22740741632878780364990234375</LatitudeDegrees>
              <LongitudeDegrees>-73.0149223096668720245361328125</LongitudeDegrees>
            </Position>
            <AltitudeMeters>578.20001220703125</AltitudeMeters>
            <DistanceMeters>566.78394942853</DistanceMeters>
          </Trackpoint>
          <Trackpoint>
            <Time>2023-01-11T14:19:04.000Z</Time>
            <Position>
              <LatitudeDegrees>-49.22740322537720203399658203125</LatitudeDegrees>
              <LongitudeDegrees>-73.01492675207555294036865234375</LongitudeDegrees>
            </Position>
            <AltitudeMeters>578.4000244140625</AltitudeMeters>
            <DistanceMeters>567.35410971475</DistanceMeters>
          </Trackpoint>
          <Trackpoint>
            <Time>2023-01-11T14:19:07.000Z</Time>
            <Position>
              <LatitudeDegrees>-49.22738327644765377044677734375</LatitudeDegrees>
              <LongitudeDegrees>-73.01498039625585079193115234375</LongitudeDegrees>
            </Position>
            <AltitudeMeters>578.5999755859375</AltitudeMeters>
            <DistanceMeters>571.84154444631</DistanceMeters>
          </Trackpoint>
          <Trackpoint>
            <Time>2023-01-11T14:19:08.000Z</Time>
            <Position>
              <LatitudeDegrees>-49.2273748107254505157470703125</LatitudeDegrees>
              <LongitudeDegrees>-73.0149984173476696014404296875</LongitudeDegrees>
            </Position>
            <AltitudeMeters>578.5999755859375</AltitudeMeters>
            <DistanceMeters>573.45139907932</DistanceMeters>
          </Trackpoint>
          <Trackpoint>
            <Time>2023-01-11T14:19:11.000Z</Time>
            <Position>
              <LatitudeDegrees>-49.22735813073813915252685546875</LatitudeDegrees>
              <LongitudeDegrees>-73.0150138400495052337646484375</LongitudeDegrees>
            </Position>
            <AltitudeMeters>579</AltitudeMeters>
            <DistanceMeters>575.61834156837</DistanceMeters>
          </Trackpoint>
          <Trackpoint>
            <Time>2023-01-11T14:19:12.000Z</Time>
            <Position>
              <LatitudeDegrees>-49.22735326923429965972900390625</LatitudeDegrees>
              <LongitudeDegrees>-73.01500956527888774871826171875</LongitudeDegrees>
            </Position>
            <AltitudeMeters>579</AltitudeMeters>
            <DistanceMeters>576.24147340602</DistanceMeters>
          </Trackpoint>
          <Trackpoint>
            <Time>2023-01-11T14:19:19.000Z</Time>
            <Position>
              <LatitudeDegrees>-49.22733013518154621124267578125</LatitudeDegrees>
              <LongitudeDegrees>-73.01496966741979122161865234375</LongitudeDegrees>
            </Position>
            <AltitudeMeters>579.5999755859375</AltitudeMeters>
            <DistanceMeters>580.12014680754</DistanceMeters>
          </Trackpoint>
          <Trackpoint>
            <Time>2023-01-11T14:19:22.000Z</Time>
            <Position>
              <LatitudeDegrees>-49.227329380810260772705078125</LatitudeDegrees>
              <LongitudeDegrees>-73.0149645544588565826416015625</LongitudeDegrees>
            </Position>
            <AltitudeMeters>579.5999755859375</AltitudeMeters>
            <DistanceMeters>580.50025366502</DistanceMeters>
          </Trackpoint>
          <Trackpoint>
            <Time>2023-01-11T14:19:34.000Z</Time>
            <Position>
              <LatitudeDegrees>-49.227329380810260772705078125</LatitudeDegrees>
              <LongitudeDegrees>-73.01496849395334720611572265625</LongitudeDegrees>
            </Position>
            <AltitudeMeters>579.79998779296875</AltitudeMeters>
            <DistanceMeters>580.78533380813</DistanceMeters>
          </Trackpoint>
          <Trackpoint>
            <Time>2023-01-11T14:19:37.000Z</Time>
            <Position>
              <LatitudeDegrees>-49.227329380810260772705078125</LatitudeDegrees>
              <LongitudeDegrees>-73.01496916450560092926025390625</LongitudeDegrees>
            </Position>
            <AltitudeMeters>579.5999755859375</AltitudeMeters>
            <DistanceMeters>580.78533380813</DistanceMeters>
          </Trackpoint>
          <Trackpoint>
            <Time>2023-01-11T14:19:40.000Z</Time>
            <Position>
              <LatitudeDegrees>-49.22732770442962646484375</LatitudeDegrees>
              <LongitudeDegrees>-73.014969415962696075439453125</LongitudeDegrees>
            </Position>
            <AltitudeMeters>580</AltitudeMeters>
            <DistanceMeters>580.94992490549</DistanceMeters>
          </Trackpoint>
          <Trackpoint>
            <Time>2023-01-11T14:19:47.000Z</Time>
            <Position>
              <LatitudeDegrees>-49.2273168079555034637451171875</LatitudeDegrees>
              <LongitudeDegrees>-73.0149685777723789215087890625</LongitudeDegrees>
            </Position>
            <AltitudeMeters>577.5999755859375</AltitudeMeters>
            <DistanceMeters>582.16686062146</DistanceMeters>
          </Trackpoint>
          <Trackpoint>
            <Time>2023-01-11T14:19:53.000Z</Time>
            <Position>
              <LatitudeDegrees>-49.22731404192745685577392578125</LatitudeDegrees>
              <LongitudeDegrees>-73.01496782340109348297119140625</LongitudeDegrees>
            </Position>
            <AltitudeMeters>578.5999755859375</AltitudeMeters>
            <DistanceMeters>582.49604281619</DistanceMeters>
          </Trackpoint>
          <Trackpoint>
            <Time>2023-01-11T14:20:01.000Z</Time>
            <Position>
              <LatitudeDegrees>-49.2273124493658542633056640625</LatitudeDegrees>
              <LongitudeDegrees>-73.0149675719439983367919921875</LongitudeDegrees>
            </Position>
            <AltitudeMeters>579.79998779296875</AltitudeMeters>
            <DistanceMeters>582.66063391356</DistanceMeters>
          </Trackpoint>
          <Trackpoint>
            <Time>2023-01-11T14:20:03.000Z</Time>
            <Position>
              <LatitudeDegrees>-49.2273124493658542633056640625</LatitudeDegrees>
              <LongitudeDegrees>-73.01496765576303005218505859375</LongitudeDegrees>
            </Position>
            <AltitudeMeters>579.79998779296875</AltitudeMeters>
            <DistanceMeters>582.66063391356</DistanceMeters>
          </Trackpoint>
          <Trackpoint>
            <Time>2023-01-11T14:20:04.000Z</Time>
            <Position>
              <LatitudeDegrees>-49.2273124493658542633056640625</LatitudeDegrees>
              <LongitudeDegrees>-73.01496765576303005218505859375</LongitudeDegrees>
            </Position>
            <AltitudeMeters>579.79998779296875</AltitudeMeters>
            <DistanceMeters>582.66063391356</DistanceMeters>
          </Trackpoint>
          <Trackpoint>
            <Time>2023-01-11T14:20:05.000Z</Time>
            <Position>
              <LatitudeDegrees>-49.2273124493658542633056640625</LatitudeDegrees>
              <LongitudeDegrees>-73.01496765576303005218505859375</LongitudeDegrees>
            </Position>
            <AltitudeMeters>579.79998779296875</AltitudeMeters>
            <DistanceMeters>582.66063391356</DistanceMeters>
          </Trackpoint>
          <Trackpoint>
            <Time>2023-01-11T14:20:06.000Z</Time>
            <Position>
              <LatitudeDegrees>-49.2273124493658542633056640625</LatitudeDegrees>
              <LongitudeDegrees>-73.0149675719439983367919921875</LongitudeDegrees>
            </Position>
            <AltitudeMeters>579.79998779296875</AltitudeMeters>
            <DistanceMeters>582.66063391356</DistanceMeters>
          </Trackpoint>
          <Trackpoint>
            <Time>2023-01-11T14:20:11.000Z</Time>
            <Position>
              <LatitudeDegrees>-49.2273121140897274017333984375</LatitudeDegrees>
              <LongitudeDegrees>-73.01496815867722034454345703125</LongitudeDegrees>
            </Position>
            <AltitudeMeters>579</AltitudeMeters>
            <DistanceMeters>582.66063391356</DistanceMeters>
          </Trackpoint>
          <Trackpoint>
            <Time>2023-01-11T14:20:14.000Z</Time>
            <Position>
              <LatitudeDegrees>-49.2273107729852199554443359375</LatitudeDegrees>
              <LongitudeDegrees>-73.0149690806865692138671875</LongitudeDegrees>
            </Position>
            <AltitudeMeters>578.20001220703125</AltitudeMeters>
            <DistanceMeters>582.8506873423</DistanceMeters>
          </Trackpoint>
          <Trackpoint>
            <Time>2023-01-11T14:20:17.000Z</Time>
            <Position>
              <LatitudeDegrees>-49.2273087613284587860107421875</LatitudeDegrees>
              <LongitudeDegrees>-73.01497033797204494476318359375</LongitudeDegrees>
            </Position>
            <AltitudeMeters>578.20001220703125</AltitudeMeters>
            <DistanceMeters>583.1194634788</DistanceMeters>
          </Trackpoint>
          <Trackpoint>
            <Time>2023-01-11T14:20:22.000Z</Time>
            <Position>
              <LatitudeDegrees>-49.22730700112879276275634765625</LatitudeDegrees>
              <LongitudeDegrees>-73.01497285254299640655517578125</LongitudeDegrees>
            </Position>
            <AltitudeMeters>579.20001220703125</AltitudeMeters>
            <DistanceMeters>583.3882396153</DistanceMeters>
          </Trackpoint>
          <Trackpoint>
            <Time>2023-01-11T14:20:33.000Z</Time>
            <Position>
              <LatitudeDegrees>-49.22730700112879276275634765625</LatitudeDegrees>
              <LongitudeDegrees>-73.014974109828472137451171875</LongitudeDegrees>
            </Position>
            <AltitudeMeters>578.5999755859375</AltitudeMeters>
            <DistanceMeters>583.48326632967</DistanceMeters>
          </Trackpoint>
          <Trackpoint>
            <Time>2023-01-11T14:20:40.000Z</Time>
            <Position>
              <LatitudeDegrees>-49.227308593690395355224609375</LatitudeDegrees>
              <LongitudeDegrees>-73.01497503183782100677490234375</LongitudeDegrees>
            </Position>
            <AltitudeMeters>579.20001220703125</AltitudeMeters>
            <DistanceMeters>583.67331975841</DistanceMeters>
          </Trackpoint>
          <Trackpoint>
            <Time>2023-01-11T14:20:41.000Z</Time>
            <Position>
              <LatitudeDegrees>-49.2273087613284587860107421875</LatitudeDegrees>
              <LongitudeDegrees>-73.01497486419975757598876953125</LongitudeDegrees>
            </Position>
            <AltitudeMeters>579.4000244140625</AltitudeMeters>
            <DistanceMeters>583.76834647278</DistanceMeters>
          </Trackpoint>
          <Trackpoint>
            <Time>2023-01-11T14:20:50.000Z</Time>
            <Position>
              <LatitudeDegrees>-49.22735092230141162872314453125</LatitudeDegrees>
              <LongitudeDegrees>-73.01500537432730197906494140625</LongitudeDegrees>
            </Position>
            <AltitudeMeters>579.4000244140625</AltitudeMeters>
            <DistanceMeters>588.95927587981</DistanceMeters>
          </Trackpoint>
          <Trackpoint>
            <Time>2023-01-11T14:20:56.000Z</Time>
            <Position>
              <LatitudeDegrees>-49.22734019346535205841064453125</LatitudeDegrees>
              <LongitudeDegrees>-73.01509070210158824920654296875</LongitudeDegrees>
            </Position>
            <AltitudeMeters>578.5999755859375</AltitudeMeters>
            <DistanceMeters>595.27551508755</DistanceMeters>
          </Trackpoint>
          <Trackpoint>
            <Time>2023-01-11T14:20:57.000Z</Time>
            <Position>
              <LatitudeDegrees>-49.22733617015182971954345703125</LatitudeDegrees>
              <LongitudeDegrees>-73.0151077173650264739990234375</LongitudeDegrees>
            </Position>
            <AltitudeMeters>578.5999755859375</AltitudeMeters>
            <DistanceMeters>596.58881040879</DistanceMeters>
          </Trackpoint>
          <Trackpoint>
            <Time>2023-01-11T14:21:02.000Z</Time>
            <Position>
              <LatitudeDegrees>-49.22730700112879276275634765625</LatitudeDegrees>
              <LongitudeDegrees>-73.01517234183847904205322265625</LongitudeDegrees>
            </Position>
            <AltitudeMeters>578.5999755859375</AltitudeMeters>
            <DistanceMeters>602.29832667224</DistanceMeters>
          </Trackpoint>
          <Trackpoint>
            <Time>2023-01-11T14:21:03.000Z</Time>
            <Position>
              <LatitudeDegrees>-49.2273033969104290008544921875</LatitudeDegrees>
              <LongitudeDegrees>-73.0151761136949062347412109375</LongitudeDegrees>
            </Position>
            <AltitudeMeters>578.5999755859375</AltitudeMeters>
            <DistanceMeters>602.79209996434</DistanceMeters>
          </Trackpoint>
          <Trackpoint>
            <Time>2023-01-11T14:21:05.000Z</Time>
            <Position>
              <LatitudeDegrees>-49.2272963561117649078369140625</LatitudeDegrees>
              <LongitudeDegrees>-73.01518030464649200439453125</LongitudeDegrees>
            </Position>
            <AltitudeMeters>578.79998779296875</AltitudeMeters>
            <DistanceMeters>603.63135318157</DistanceMeters>
          </Trackpoint>
          <Trackpoint>
            <Time>2023-01-11T14:21:07.000Z</Time>
            <Position>
              <LatitudeDegrees>-49.227287806570529937744140625</LatitudeDegrees>
              <LongitudeDegrees>-73.01518508233129978179931640625</LongitudeDegrees>
            </Position>
            <AltitudeMeters>578.79998779296875</AltitudeMeters>
            <DistanceMeters>604.64150101143</DistanceMeters>
          </Trackpoint>
          <Trackpoint>
            <Time>2023-01-11T14:21:13.000Z</Time>
            <Position>
              <LatitudeDegrees>-49.227293170988559722900390625</LatitudeDegrees>
              <LongitudeDegrees>-73.0151871778070926666259765625</LongitudeDegrees>
            </Position>
            <AltitudeMeters>579.4000244140625</AltitudeMeters>
            <DistanceMeters>605.25734450668</DistanceMeters>
          </Trackpoint>
          <Trackpoint>
            <Time>2023-01-11T14:21:17.000Z</Time>
            <Position>
              <LatitudeDegrees>-49.22729476355016231536865234375</LatitudeDegrees>
              <LongitudeDegrees>-73.01517485640943050384521484375</LongitudeDegrees>
            </Position>
            <AltitudeMeters>579.20001220703125</AltitudeMeters>
            <DistanceMeters>606.16880873135</DistanceMeters>
          </Trackpoint>
          <Trackpoint>
            <Time>2023-01-11T14:21:32.000Z</Time>
            <Position>
              <LatitudeDegrees>-49.227293841540813446044921875</LatitudeDegrees>
              <LongitudeDegrees>-73.01517670042812824249267578125</LongitudeDegrees>
            </Position>
            <AltitudeMeters>579.20001220703125</AltitudeMeters>
            <DistanceMeters>606.33339982871</DistanceMeters>
          </Trackpoint>
          <Trackpoint>
            <Time>2023-01-11T14:21:36.000Z</Time>
            <Position>
              <LatitudeDegrees>-49.227293170988559722900390625</LatitudeDegrees>
              <LongitudeDegrees>-73.01517753861844539642333984375</LongitudeDegrees>
            </Position>
            <AltitudeMeters>579.20001220703125</AltitudeMeters>
            <DistanceMeters>606.42842654308</DistanceMeters>
          </Trackpoint>
          <Trackpoint>
            <Time>2023-01-11T14:21:38.000Z</Time>
            <Position>
              <LatitudeDegrees>-49.22730146907269954681396484375</LatitudeDegrees>
              <LongitudeDegrees>-73.01519572734832763671875</LongitudeDegrees>
            </Position>
            <AltitudeMeters>579.20001220703125</AltitudeMeters>
            <DistanceMeters>608.04108336208</DistanceMeters>
          </Trackpoint>
          <Trackpoint>
            <Time>2023-01-11T14:21:41.000Z</Time>
            <Position>
              <LatitudeDegrees>-49.22731228172779083251953125</LatitudeDegrees>
              <LongitudeDegrees>-73.0152424983680248260498046875</LongitudeDegrees>
            </Position>
            <AltitudeMeters>579.20001220703125</AltitudeMeters>
            <DistanceMeters>611.64709363373</DistanceMeters>
          </Trackpoint>
          <Trackpoint>
            <Time>2023-01-11T14:21:47.000Z</Time>
            <Position>
              <LatitudeDegrees>-49.2273181490600109100341796875</LatitudeDegrees>
              <LongitudeDegrees>-73.01532380282878875732421875</LongitudeDegrees>
            </Position>
            <AltitudeMeters>578.5999755859375</AltitudeMeters>
            <DistanceMeters>617.5936707462</DistanceMeters>
          </Trackpoint>
          <Trackpoint>
            <Time>2023-01-11T14:21:51.000Z</Time>
            <Position>
              <LatitudeDegrees>-49.22733047045767307281494140625</LatitudeDegrees>
              <LongitudeDegrees>-73.0153588391840457916259765625</LongitudeDegrees>
            </Position>
            <AltitudeMeters>579.20001220703125</AltitudeMeters>
            <DistanceMeters>620.4853572415</DistanceMeters>
          </Trackpoint>
          <Trackpoint>
            <Time>2023-01-11T14:21:53.000Z</Time>
            <Position>
              <LatitudeDegrees>-49.2273396067321300506591796875</LatitudeDegrees>
              <LongitudeDegrees>-73.01538943313062191009521484375</LongitudeDegrees>
            </Position>
            <AltitudeMeters>579.4000244140625</AltitudeMeters>
            <DistanceMeters>622.93033384791</DistanceMeters>
          </Trackpoint>
          <Trackpoint>
            <Time>2023-01-11T14:21:54.000Z</Time>
            <Position>
              <LatitudeDegrees>-49.2273370921611785888671875</LatitudeDegrees>
              <LongitudeDegrees>-73.0154027603566646575927734375</LongitudeDegrees>
            </Position>
            <AltitudeMeters>579.5999755859375</AltitudeMeters>
            <DistanceMeters>623.94494151328</DistanceMeters>
          </Trackpoint>
          <Trackpoint>
            <Time>2023-01-11T14:21:58.000Z</Time>
            <Position>
              <LatitudeDegrees>-49.22732410021126270294189453125</LatitudeDegrees>
              <LongitudeDegrees>-73.0154443345963954925537109375</LongitudeDegrees>
            </Position>
            <AltitudeMeters>580.20001220703125</AltitudeMeters>
            <DistanceMeters>627.29522284771</DistanceMeters>
          </Trackpoint>
          <Trackpoint>
            <Time>2023-01-11T14:22:04.000Z</Time>
            <Position>
              <LatitudeDegrees>-49.22732342965900897979736328125</LatitudeDegrees>
              <LongitudeDegrees>-73.01550325937569141387939453125</LongitudeDegrees>
            </Position>
            <AltitudeMeters>580.4000244140625</AltitudeMeters>
            <DistanceMeters>631.57880958479</DistanceMeters>
          </Trackpoint>
          <Trackpoint>
            <Time>2023-01-11T14:22:06.000Z</Time>
            <Position>
              <LatitudeDegrees>-49.2273245193064212799072265625</LatitudeDegrees>
              <LongitudeDegrees>-73.0155130662024021148681640625</LongitudeDegrees>
            </Position>
            <AltitudeMeters>580.5999755859375</AltitudeMeters>
            <DistanceMeters>632.30251148043</DistanceMeters>
          </Trackpoint>
          <Trackpoint>
            <Time>2023-01-11T14:22:14.000Z</Time>
            <Position>
              <LatitudeDegrees>-49.227355532348155975341796875</LatitudeDegrees>
              <LongitudeDegrees>-73.01558665931224822998046875</LongitudeDegrees>
            </Position>
            <AltitudeMeters>579.20001220703125</AltitudeMeters>
            <DistanceMeters>638.67001045831</DistanceMeters>
          </Trackpoint>
          <Trackpoint>
            <Time>2023-01-11T14:22:15.000Z</Time>
            <Position>
              <LatitudeDegrees>-49.2273543588817119598388671875</LatitudeDegrees>
              <LongitudeDegrees>-73.0155993998050689697265625</LongitudeDegrees>
            </Position>
            <AltitudeMeters>579.20001220703125</AltitudeMeters>
            <DistanceMeters>639.60591505551</DistanceMeters>
          </Trackpoint>
          <Trackpoint>
            <Time>2023-01-11T14:22:21.000Z</Time>
            <Position>
              <LatitudeDegrees>-49.22736818902194499969482421875</LatitudeDegrees>
              <LongitudeDegrees>-73.0156334303319454193115234375</LongitudeDegrees>
            </Position>
            <AltitudeMeters>578.4000244140625</AltitudeMeters>
            <DistanceMeters>642.51937894877</DistanceMeters>
          </Trackpoint>
          <Trackpoint>
            <Time>2023-01-11T14:22:23.000Z</Time>
            <Position>
              <LatitudeDegrees>-49.2273800075054168701171875</LatitudeDegrees>
              <LongitudeDegrees>-73.01564005203545093536376953125</LongitudeDegrees>
            </Position>
            <AltitudeMeters>578.20001220703125</AltitudeMeters>
            <DistanceMeters>643.91920986297</DistanceMeters>
          </Trackpoint>
          <Trackpoint>
            <Time>2023-01-11T14:22:25.000Z</Time>
            <Position>
              <LatitudeDegrees>-49.2273962683975696563720703125</LatitudeDegrees>
              <LongitudeDegrees>-73.015639968216419219970703125</LongitudeDegrees>
            </Position>
            <AltitudeMeters>578</AltitudeMeters>
            <DistanceMeters>645.72971193398</DistanceMeters>
          </Trackpoint>
          <Trackpoint>
            <Time>2023-01-11T14:22:28.000Z</Time>
            <Position>
              <LatitudeDegrees>-49.22740473411977291107177734375</LatitudeDegrees>
              <LongitudeDegrees>-73.01565815694630146026611328125</LongitudeDegrees>
            </Position>
            <AltitudeMeters>578</AltitudeMeters>
            <DistanceMeters>647.35352914095</DistanceMeters>
          </Trackpoint>
          <Trackpoint>
            <Time>2023-01-11T14:22:35.000Z</Time>
            <Position>
              <LatitudeDegrees>-49.22740481793880462646484375</LatitudeDegrees>
              <LongitudeDegrees>-73.01570727489888668060302734375</LongitudeDegrees>
            </Position>
            <AltitudeMeters>578.4000244140625</AltitudeMeters>
            <DistanceMeters>650.92430887917</DistanceMeters>
          </Trackpoint>
          <Trackpoint>
            <Time>2023-01-11T14:22:42.000Z</Time>
            <Position>
              <LatitudeDegrees>-49.22741898335516452789306640625</LatitudeDegrees>
              <LongitudeDegrees>-73.0157799459993839263916015625</LongitudeDegrees>
            </Position>
            <AltitudeMeters>578.79998779296875</AltitudeMeters>
            <DistanceMeters>656.43749646081</DistanceMeters>
          </Trackpoint>
          <Trackpoint>
            <Time>2023-01-11T14:22:48.000Z</Time>
            <Position>
              <LatitudeDegrees>-49.227439351379871368408203125</LatitudeDegrees>
              <LongitudeDegrees>-73.0157957039773464202880859375</LongitudeDegrees>
            </Position>
            <AltitudeMeters>578.79998779296875</AltitudeMeters>
            <DistanceMeters>658.98023803908</DistanceMeters>
          </Trackpoint>
          <Trackpoint>
            <Time>2023-01-11T14:22:50.000Z</Time>
            <Position>
              <LatitudeDegrees>-49.2274100147187709808349609375</LatitudeDegrees>
              <LongitudeDegrees>-73.01583065651357173919677734375</LongitudeDegrees>
            </Position>
            <AltitudeMeters>579.5999755859375</AltitudeMeters>
            <DistanceMeters>663.11799406593</DistanceMeters>
          </Trackpoint>
          <Trackpoint>
            <Time>2023-01-11T14:22:53.000Z</Time>
            <Position>
              <LatitudeDegrees>-49.22738344408571720123291015625</LatitudeDegrees>
              <LongitudeDegrees>-73.01587038673460483551025390625</LongitudeDegrees>
            </Position>
            <AltitudeMeters>580.5999755859375</AltitudeMeters>
            <DistanceMeters>667.25138306673</DistanceMeters>
          </Trackpoint>
          <Trackpoint>
            <Time>2023-01-11T14:22:56.000Z</Time>
            <Position>
              <LatitudeDegrees>-49.22737598419189453125</LatitudeDegrees>
              <LongitudeDegrees>-73.01588731817901134490966796875</LongitudeDegrees>
            </Position>
            <AltitudeMeters>581.5999755859375</AltitudeMeters>
            <DistanceMeters>668.73574779695</DistanceMeters>
          </Trackpoint>
          <Trackpoint>
            <Time>2023-01-11T14:22:57.000Z</Time>
            <Position>
              <LatitudeDegrees>-49.22737665474414825439453125</LatitudeDegrees>
              <LongitudeDegrees>-73.01590047776699066162109375</LongitudeDegrees>
            </Position>
            <AltitudeMeters>581.79998779296875</AltitudeMeters>
            <DistanceMeters>669.69547056801</DistanceMeters>
          </Trackpoint>
          <Trackpoint>
            <Time>2023-01-11T14:22:59.000Z</Time>
            <Position>
              <LatitudeDegrees>-49.22738134860992431640625</LatitudeDegrees>
              <LongitudeDegrees>-73.01591388881206512451171875</LongitudeDegrees>
            </Position>
            <AltitudeMeters>582.79998779296875</AltitudeMeters>
            <DistanceMeters>670.80366296844</DistanceMeters>
          </Trackpoint>
          <Trackpoint>
            <Time>2023-01-11T14:23:05.000Z</Time>
            <Position>
              <LatitudeDegrees>-49.22737439163029193878173828125</LatitudeDegrees>
              <LongitudeDegrees>-73.0159375257790088653564453125</LongitudeDegrees>
            </Position>
            <AltitudeMeters>583</AltitudeMeters>
            <DistanceMeters>672.68749418234</DistanceMeters>
          </Trackpoint>
          <Trackpoint>
            <Time>2023-01-11T14:23:13.000Z</Time>
            <Position>
              <LatitudeDegrees>-49.22736416570842266082763671875</LatitudeDegrees>
              <LongitudeDegrees>-73.01596887409687042236328125</LongitudeDegrees>
            </Position>
            <AltitudeMeters>583.4000244140625</AltitudeMeters>
            <DistanceMeters>675.23378459916</DistanceMeters>
          </Trackpoint>
          <Trackpoint>
            <Time>2023-01-11T14:23:16.000Z</Time>
            <Position>
              <LatitudeDegrees>-49.22736416570842266082763671875</LatitudeDegrees>
              <LongitudeDegrees>-73.01596887409687042236328125</LongitudeDegrees>
            </Position>
            <AltitudeMeters>581.5999755859375</AltitudeMeters>
            <DistanceMeters>675.23378459916</DistanceMeters>
          </Trackpoint>
          <Trackpoint>
            <Time>2023-01-11T14:23:22.000Z</Time>
            <Position>
              <LatitudeDegrees>-49.22736416570842266082763671875</LatitudeDegrees>
              <LongitudeDegrees>-73.01596887409687042236328125</LongitudeDegrees>
            </Position>
            <AltitudeMeters>581.5999755859375</AltitudeMeters>
            <DistanceMeters>675.23378459916</DistanceMeters>
          </Trackpoint>
          <Trackpoint>
            <Time>2023-01-11T14:23:23.000Z</Time>
            <Position>
              <LatitudeDegrees>-49.22736416570842266082763671875</LatitudeDegrees>
              <LongitudeDegrees>-73.01596887409687042236328125</LongitudeDegrees>
            </Position>
            <AltitudeMeters>579.5999755859375</AltitudeMeters>
            <DistanceMeters>675.23378459916</DistanceMeters>
          </Trackpoint>
          <Trackpoint>
            <Time>2023-01-11T14:23:30.000Z</Time>
            <Position>
              <LatitudeDegrees>-49.22734907828271389007568359375</LatitudeDegrees>
              <LongitudeDegrees>-73.01600282080471515655517578125</LongitudeDegrees>
            </Position>
            <AltitudeMeters>579.79998779296875</AltitudeMeters>
            <DistanceMeters>678.21919670642</DistanceMeters>
          </Trackpoint>
          <Trackpoint>
            <Time>2023-01-11T14:23:31.000Z</Time>
            <Position>
              <LatitudeDegrees>-49.2273436300456523895263671875</LatitudeDegrees>
              <LongitudeDegrees>-73.016007430851459503173828125</LongitudeDegrees>
            </Position>
            <AltitudeMeters>579.79998779296875</AltitudeMeters>
            <DistanceMeters>678.90444408882</DistanceMeters>
          </Trackpoint>
          <Trackpoint>
            <Time>2023-01-11T14:23:32.000Z</Time>
            <Position>
              <LatitudeDegrees>-49.22733776271343231201171875</LatitudeDegrees>
              <LongitudeDegrees>-73.01600885577499866485595703125</LongitudeDegrees>
            </Position>
            <AltitudeMeters>579.4000244140625</AltitudeMeters>
            <DistanceMeters>679.56280847828</DistanceMeters>
          </Trackpoint>
          <Trackpoint>
            <Time>2023-01-11T14:23:39.000Z</Time>
            <Position>
              <LatitudeDegrees>-49.22732728533446788787841796875</LatitudeDegrees>
              <LongitudeDegrees>-73.01602059043943881988525390625</LongitudeDegrees>
            </Position>
            <AltitudeMeters>580.20001220703125</AltitudeMeters>
            <DistanceMeters>681.00708949614</DistanceMeters>
          </Trackpoint>
          <Trackpoint>
            <Time>2023-01-11T14:23:54.000Z</Time>
            <Position>
              <LatitudeDegrees>-49.22731035389006137847900390625</LatitudeDegrees>
              <LongitudeDegrees>-73.01605110056698322296142578125</LongitudeDegrees>
            </Position>
            <AltitudeMeters>579.4000244140625</AltitudeMeters>
            <DistanceMeters>683.91745230934</DistanceMeters>
          </Trackpoint>
          <Trackpoint>
            <Time>2023-01-11T14:23:56.000Z</Time>
            <Position>
              <LatitudeDegrees>-49.2273003794252872467041015625</LatitudeDegrees>
              <LongitudeDegrees>-73.01608328707516193389892578125</LongitudeDegrees>
            </Position>
            <AltitudeMeters>578.5999755859375</AltitudeMeters>
            <DistanceMeters>686.50769299272</DistanceMeters>
          </Trackpoint>
          <Trackpoint>
            <Time>2023-01-11T14:24:05.000Z</Time>
            <Position>
              <LatitudeDegrees>-49.22729996033012866973876953125</LatitudeDegrees>
              <LongitudeDegrees>-73.01621706224977970123291015625</LongitudeDegrees>
            </Position>
            <AltitudeMeters>579</AltitudeMeters>
            <DistanceMeters>696.2320418409</DistanceMeters>
          </Trackpoint>
          <Trackpoint>
            <Time>2023-01-11T14:24:09.000Z</Time>
            <Position>
              <LatitudeDegrees>-49.22729711048305034637451171875</LatitudeDegrees>
              <LongitudeDegrees>-73.01624170504510402679443359375</LongitudeDegrees>
            </Position>
            <AltitudeMeters>575.4000244140625</AltitudeMeters>
            <DistanceMeters>698.05497029023</DistanceMeters>
          </Trackpoint>
          <Trackpoint>
            <Time>2023-01-11T14:24:10.000Z</Time>
            <Position>
              <LatitudeDegrees>-49.22729752957820892333984375</LatitudeDegrees>
              <LongitudeDegrees>-73.016238100826740264892578125</LongitudeDegrees>
            </Position>
            <AltitudeMeters>575.20001220703125</AltitudeMeters>
            <DistanceMeters>698.32374642673</DistanceMeters>
          </Trackpoint>
          <Trackpoint>
            <Time>2023-01-11T14:24:14.000Z</Time>
            <Position>
              <LatitudeDegrees>-49.22729208134114742279052734375</LatitudeDegrees>
              <LongitudeDegrees>-73.01624237559735774993896484375</LongitudeDegrees>
            </Position>
            <AltitudeMeters>577.5999755859375</AltitudeMeters>
            <DistanceMeters>699.00899380913</DistanceMeters>
          </Trackpoint>
          <Trackpoint>
            <Time>2023-01-11T14:24:17.000Z</Time>
            <Position>
              <LatitudeDegrees>-49.2273017205297946929931640625</LatitudeDegrees>
              <LongitudeDegrees>-73.01623952575027942657470703125</LongitudeDegrees>
            </Position>
            <AltitudeMeters>577.79998779296875</AltitudeMeters>
            <DistanceMeters>700.10076763672</DistanceMeters>
          </Trackpoint>
          <Trackpoint>
            <Time>2023-01-11T14:24:37.000Z</Time>
            <Position>
              <LatitudeDegrees>-49.227287136018276214599609375</LatitudeDegrees>
              <LongitudeDegrees>-73.0162426270544528961181640625</LongitudeDegrees>
            </Position>
            <AltitudeMeters>578.20001220703125</AltitudeMeters>
            <DistanceMeters>701.7411830659</DistanceMeters>
          </Trackpoint>
          <Trackpoint>
            <Time>2023-01-11T14:24:38.000Z</Time>
            <Position>
              <LatitudeDegrees>-49.22728638164699077606201171875</LatitudeDegrees>
              <LongitudeDegrees>-73.0162426270544528961181640625</LongitudeDegrees>
            </Position>
            <AltitudeMeters>579.20001220703125</AltitudeMeters>
            <DistanceMeters>701.87557113415</DistanceMeters>
          </Trackpoint>
          <Trackpoint>
            <Time>2023-01-11T14:24:39.000Z</Time>
            <Position>
              <LatitudeDegrees>-49.22728411853313446044921875</LatitudeDegrees>
              <LongitudeDegrees>-73.016247488558292388916015625</LongitudeDegrees>
            </Position>
            <AltitudeMeters>579.20001220703125</AltitudeMeters>
            <DistanceMeters>702.30054352017</DistanceMeters>
          </Trackpoint>
          <Trackpoint>
            <Time>2023-01-11T14:24:42.000Z</Time>
            <Position>
              <LatitudeDegrees>-49.2272410355508327484130859375</LatitudeDegrees>
              <LongitudeDegrees>-73.01629233174026012420654296875</LongitudeDegrees>
            </Position>
            <AltitudeMeters>574.20001220703125</AltitudeMeters>
            <DistanceMeters>708.09795195191</DistanceMeters>
          </Trackpoint>
          <Trackpoint>
            <Time>2023-01-11T14:24:45.000Z</Time>
            <Position>
              <LatitudeDegrees>-49.22720432281494140625</LatitudeDegrees>
              <LongitudeDegrees>-73.0163395218551158905029296875</LongitudeDegrees>
            </Position>
            <AltitudeMeters>574.20001220703125</AltitudeMeters>
            <DistanceMeters>713.4330059302</DistanceMeters>
          </Trackpoint>
          <Trackpoint>
            <Time>2023-01-11T14:24:46.000Z</Time>
            <Position>
              <LatitudeDegrees>-49.22720071859657764434814453125</LatitudeDegrees>
              <LongitudeDegrees>-73.01635670475661754608154296875</LongitudeDegrees>
            </Position>
            <AltitudeMeters>574.5999755859375</AltitudeMeters>
            <DistanceMeters>714.74285879383</DistanceMeters>
          </Trackpoint>
          <Trackpoint>
            <Time>2023-01-11T14:24:48.000Z</Time>
            <Position>
              <LatitudeDegrees>-49.227190576493740081787109375</LatitudeDegrees>
              <LongitudeDegrees>-73.01638956181704998016357421875</LongitudeDegrees>
            </Position>
            <AltitudeMeters>574.5999755859375</AltitudeMeters>
            <DistanceMeters>717.3831654076</DistanceMeters>
          </Trackpoint>
          <Trackpoint>
            <Time>2023-01-11T14:24:51.000Z</Time>
            <Position>
              <LatitudeDegrees>-49.22717959620058536529541015625</LatitudeDegrees>
              <LongitudeDegrees>-73.01640364341437816619873046875</LongitudeDegrees>
            </Position>
            <AltitudeMeters>575</AltitudeMeters>
            <DistanceMeters>718.97893530242</DistanceMeters>
          </Trackpoint>
          <Trackpoint>
            <Time>2023-01-11T14:24:55.000Z</Time>
            <Position>
              <LatitudeDegrees>-49.2271629162132740020751953125</LatitudeDegrees>
              <LongitudeDegrees>-73.0164558626711368560791015625</LongitudeDegrees>
            </Position>
            <AltitudeMeters>573.20001220703125</AltitudeMeters>
            <DistanceMeters>723.20522104833</DistanceMeters>
          </Trackpoint>
          <Trackpoint>
            <Time>2023-01-11T14:24:57.000Z</Time>
            <Position>
              <LatitudeDegrees>-49.22715562395751476287841796875</LatitudeDegrees>
              <LongitudeDegrees>-73.01648427732288837432861328125</LongitudeDegrees>
            </Position>
            <AltitudeMeters>572.20001220703125</AltitudeMeters>
            <DistanceMeters>725.42567634813</DistanceMeters>
          </Trackpoint>
          <Trackpoint>
            <Time>2023-01-11T14:24:59.000Z</Time>
            <Position>
              <LatitudeDegrees>-49.22715512104332447052001953125</LatitudeDegrees>
              <LongitudeDegrees>-73.01651109941303730010986328125</LongitudeDegrees>
            </Position>
            <AltitudeMeters>572</AltitudeMeters>
            <DistanceMeters>727.37777579728</DistanceMeters>
          </Trackpoint>
          <Trackpoint>
            <Time>2023-01-11T14:25:00.000Z</Time>
            <Position>
              <LatitudeDegrees>-49.22715243883430957794189453125</LatitudeDegrees>
              <LongitudeDegrees>-73.0165229178965091705322265625</LongitudeDegrees>
            </Position>
            <AltitudeMeters>571.79998779296875</AltitudeMeters>
            <DistanceMeters>728.28924002194</DistanceMeters>
          </Trackpoint>
          <Trackpoint>
            <Time>2023-01-11T14:25:01.000Z</Time>
            <Position>
              <LatitudeDegrees>-49.22714774496853351593017578125</LatitudeDegrees>
              <LongitudeDegrees>-73.01653691567480564117431640625</LongitudeDegrees>
            </Position>
            <AltitudeMeters>570.79998779296875</AltitudeMeters>
            <DistanceMeters>729.43351319054</DistanceMeters>
          </Trackpoint>
          <Trackpoint>
            <Time>2023-01-11T14:25:03.000Z</Time>
            <Position>
              <LatitudeDegrees>-49.22713818959891796112060546875</LatitudeDegrees>
              <LongitudeDegrees>-73.0165722034871578216552734375</LongitudeDegrees>
            </Position>
            <AltitudeMeters>569.20001220703125</AltitudeMeters>
            <DistanceMeters>732.21050531929</DistanceMeters>
          </Trackpoint>
          <Trackpoint>
            <Time>2023-01-11T14:25:05.000Z</Time>
            <Position>
              <LatitudeDegrees>-49.22712075524032115936279296875</LatitudeDegrees>
              <LongitudeDegrees>-73.0165929906070232391357421875</LongitudeDegrees>
            </Position>
            <AltitudeMeters>568.79998779296875</AltitudeMeters>
            <DistanceMeters>734.67021083366</DistanceMeters>
          </Trackpoint>
          <Trackpoint>
            <Time>2023-01-11T14:25:10.000Z</Time>
            <Position>
              <LatitudeDegrees>-49.22711321152746677398681640625</LatitudeDegrees>
              <LongitudeDegrees>-73.01659055985510349273681640625</LongitudeDegrees>
            </Position>
            <AltitudeMeters>568.4000244140625</AltitudeMeters>
            <DistanceMeters>735.5307143307</DistanceMeters>
          </Trackpoint>
          <Trackpoint>
            <Time>2023-01-11T14:25:22.000Z</Time>
            <Position>
              <LatitudeDegrees>-49.22710114158689975738525390625</LatitudeDegrees>
              <LongitudeDegrees>-73.016619645059108734130859375</LongitudeDegrees>
            </Position>
            <AltitudeMeters>568.20001220703125</AltitudeMeters>
            <DistanceMeters>738.03588959972</DistanceMeters>
          </Trackpoint>
          <Trackpoint>
            <Time>2023-01-11T14:25:24.000Z</Time>
            <Position>
              <LatitudeDegrees>-49.2270878143608570098876953125</LatitudeDegrees>
              <LongitudeDegrees>-73.0166456289589405059814453125</LongitudeDegrees>
            </Position>
            <AltitudeMeters>568</AltitudeMeters>
            <DistanceMeters>740.43801758293</DistanceMeters>
          </Trackpoint>
          <Trackpoint>
            <Time>2023-01-11T14:25:25.000Z</Time>
            <Position>
              <LatitudeDegrees>-49.22708027064800262451171875</LatitudeDegrees>
              <LongitudeDegrees>-73.01665912382304668426513671875</LongitudeDegrees>
            </Position>
            <AltitudeMeters>568</AltitudeMeters>
            <DistanceMeters>741.72702265107</DistanceMeters>
          </Trackpoint>
          <Trackpoint>
            <Time>2023-01-11T14:25:35.000Z</Time>
            <Position>
              <LatitudeDegrees>-49.2270358465611934661865234375</LatitudeDegrees>
              <LongitudeDegrees>-73.0167849361896514892578125</LongitudeDegrees>
            </Position>
            <AltitudeMeters>567.20001220703125</AltitudeMeters>
            <DistanceMeters>752.12278885088</DistanceMeters>
          </Trackpoint>
          <Trackpoint>
            <Time>2023-01-11T14:25:38.000Z</Time>
            <Position>
              <LatitudeDegrees>-49.2270210944116115570068359375</LatitudeDegrees>
              <LongitudeDegrees>-73.016824163496494293212890625</LongitudeDegrees>
            </Position>
            <AltitudeMeters>565.5999755859375</AltitudeMeters>
            <DistanceMeters>755.41323891984</DistanceMeters>
          </Trackpoint>
          <Trackpoint>
            <Time>2023-01-11T14:25:46.000Z</Time>
            <Position>
              <LatitudeDegrees>-49.226987063884735107421875</LatitudeDegrees>
              <LongitudeDegrees>-73.01693924702703952789306640625</LongitudeDegrees>
            </Position>
            <AltitudeMeters>564.4000244140625</AltitudeMeters>
            <DistanceMeters>764.59598653881</DistanceMeters>
          </Trackpoint>
          <Trackpoint>
            <Time>2023-01-11T14:25:52.000Z</Time>
            <Position>
              <LatitudeDegrees>-49.22695328481495380401611328125</LatitudeDegrees>
              <LongitudeDegrees>-73.01702843047678470611572265625</LongitudeDegrees>
            </Position>
            <AltitudeMeters>563.5999755859375</AltitudeMeters>
            <DistanceMeters>772.08925120306</DistanceMeters>
          </Trackpoint>
          <Trackpoint>
            <Time>2023-01-11T14:25:55.000Z</Time>
            <Position>
              <LatitudeDegrees>-49.22693274915218353271484375</LatitudeDegrees>
              <LongitudeDegrees>-73.0170617066323757171630859375</LongitudeDegrees>
            </Position>
            <AltitudeMeters>563.79998779296875</AltitudeMeters>
            <DistanceMeters>775.41790014771</DistanceMeters>
          </Trackpoint>
          <Trackpoint>
            <Time>2023-01-11T14:25:58.000Z</Time>
            <Position>
              <LatitudeDegrees>-49.22692109830677509307861328125</LatitudeDegrees>
              <LongitudeDegrees>-73.01709531806409358978271484375</LongitudeDegrees>
            </Position>
            <AltitudeMeters>563.20001220703125</AltitudeMeters>
            <DistanceMeters>778.18511983983</DistanceMeters>
          </Trackpoint>
          <Trackpoint>
            <Time>2023-01-11T14:26:03.000Z</Time>
            <Position>
              <LatitudeDegrees>-49.2268936894834041595458984375</LatitudeDegrees>
              <LongitudeDegrees>-73.01716757006943225860595703125</LongitudeDegrees>
            </Position>
            <AltitudeMeters>562</AltitudeMeters>
            <DistanceMeters>784.2579142705</DistanceMeters>
          </Trackpoint>
          <Trackpoint>
            <Time>2023-01-11T14:26:06.000Z</Time>
            <Position>
              <LatitudeDegrees>-49.2268581502139568328857421875</LatitudeDegrees>
              <LongitudeDegrees>-73.0172088928520679473876953125</LongitudeDegrees>
            </Position>
            <AltitudeMeters>560.20001220703125</AltitudeMeters>
            <DistanceMeters>789.22482164279</DistanceMeters>
          </Trackpoint>
          <Trackpoint>
            <Time>2023-01-11T14:26:14.000Z</Time>
            <Position>
              <LatitudeDegrees>-49.22678749077022075653076171875</LatitudeDegrees>
              <LongitudeDegrees>-73.017283491790294647216796875</LongitudeDegrees>
            </Position>
            <AltitudeMeters>561</AltitudeMeters>
            <DistanceMeters>798.77772447609</DistanceMeters>
          </Trackpoint>
          <Trackpoint>
            <Time>2023-01-11T14:26:17.000Z</Time>
            <Position>
              <LatitudeDegrees>-49.22675438225269317626953125</LatitudeDegrees>
              <LongitudeDegrees>-73.01730369217693805694580078125</LongitudeDegrees>
            </Position>
            <AltitudeMeters>559</AltitudeMeters>
            <DistanceMeters>802.74501867262</DistanceMeters>
          </Trackpoint>
          <Trackpoint>
            <Time>2023-01-11T14:26:19.000Z</Time>
            <Position>
              <LatitudeDegrees>-49.2267340980470180511474609375</LatitudeDegrees>
              <LongitudeDegrees>-73.01731475628912448883056640625</LongitudeDegrees>
            </Position>
            <AltitudeMeters>557.5999755859375</AltitudeMeters>
            <DistanceMeters>805.14150122385</DistanceMeters>
          </Trackpoint>
          <Trackpoint>
            <Time>2023-01-11T14:26:22.000Z</Time>
            <Position>
              <LatitudeDegrees>-49.22670568339526653289794921875</LatitudeDegrees>
              <LongitudeDegrees>-73.01733017899096012115478515625</LongitudeDegrees>
            </Position>
            <AltitudeMeters>557.20001220703125</AltitudeMeters>
            <DistanceMeters>808.49716886616</DistanceMeters>
          </Trackpoint>
          <Trackpoint>
            <Time>2023-01-11T14:26:24.000Z</Time>
            <Position>
              <LatitudeDegrees>-49.22668959014117717742919921875</LatitudeDegrees>
              <LongitudeDegrees>-73.01734560169279575347900390625</LongitudeDegrees>
            </Position>
            <AltitudeMeters>556.4000244140625</AltitudeMeters>
            <DistanceMeters>810.60924314594</DistanceMeters>
          </Trackpoint>
          <Trackpoint>
            <Time>2023-01-11T14:26:26.000Z</Time>
            <Position>
              <LatitudeDegrees>-49.2266692221164703369140625</LatitudeDegrees>
              <LongitudeDegrees>-73.01735515706241130828857421875</LongitudeDegrees>
            </Position>
            <AltitudeMeters>555.4000244140625</AltitudeMeters>
            <DistanceMeters>812.97920254393</DistanceMeters>
          </Trackpoint>
          <Trackpoint>
            <Time>2023-01-11T14:26:30.000Z</Time>
            <Position>
              <LatitudeDegrees>-49.22663426958024501800537109375</LatitudeDegrees>
              <LongitudeDegrees>-73.0173369683325290679931640625</LongitudeDegrees>
            </Position>
            <AltitudeMeters>554.79998779296875</AltitudeMeters>
            <DistanceMeters>817.08848994569</DistanceMeters>
          </Trackpoint>
          <Trackpoint>
            <Time>2023-01-11T14:26:32.000Z</Time>
            <Position>
              <LatitudeDegrees>-49.226615913212299346923828125</LatitudeDegrees>
              <LongitudeDegrees>-73.01734241656959056854248046875</LongitudeDegrees>
            </Position>
            <AltitudeMeters>554.20001220703125</AltitudeMeters>
            <DistanceMeters>819.17042094673</DistanceMeters>
          </Trackpoint>
          <Trackpoint>
            <Time>2023-01-11T14:26:35.000Z</Time>
            <Position>
              <LatitudeDegrees>-49.2265899293124675750732421875</LatitudeDegrees>
              <LongitudeDegrees>-73.01735850982367992401123046875</LongitudeDegrees>
            </Position>
            <AltitudeMeters>553.5999755859375</AltitudeMeters>
            <DistanceMeters>822.29042453752</DistanceMeters>
          </Trackpoint>
          <Trackpoint>
            <Time>2023-01-11T14:26:37.000Z</Time>
            <Position>
              <LatitudeDegrees>-49.226575009524822235107421875</LatitudeDegrees>
              <LongitudeDegrees>-73.01736898720264434814453125</LongitudeDegrees>
            </Position>
            <AltitudeMeters>553.20001220703125</AltitudeMeters>
            <DistanceMeters>824.11829988455</DistanceMeters>
          </Trackpoint>
          <Trackpoint>
            <Time>2023-01-11T14:26:40.000Z</Time>
            <Position>
              <LatitudeDegrees>-49.22655916772782802581787109375</LatitudeDegrees>
              <LongitudeDegrees>-73.01738617010414600372314453125</LongitudeDegrees>
            </Position>
            <AltitudeMeters>552.79998779296875</AltitudeMeters>
            <DistanceMeters>826.27898253629</DistanceMeters>
          </Trackpoint>
          <Trackpoint>
            <Time>2023-01-11T14:26:49.000Z</Time>
            <Position>
              <LatitudeDegrees>-49.2265161685645580291748046875</LatitudeDegrees>
              <LongitudeDegrees>-73.01746864803135395050048828125</LongitudeDegrees>
            </Position>
            <AltitudeMeters>552.4000244140625</AltitudeMeters>
            <DistanceMeters>833.94970467366</DistanceMeters>
          </Trackpoint>
          <Trackpoint>
            <Time>2023-01-11T14:26:50.000Z</Time>
            <Position>
              <LatitudeDegrees>-49.2265077866613864898681640625</LatitudeDegrees>
              <LongitudeDegrees>-73.017481975257396697998046875</LongitudeDegrees>
            </Position>
            <AltitudeMeters>551.79998779296875</AltitudeMeters>
            <DistanceMeters>835.29694086871</DistanceMeters>
          </Trackpoint>
          <Trackpoint>
            <Time>2023-01-11T14:26:53.000Z</Time>
            <Position>
              <LatitudeDegrees>-49.22648725099861621856689453125</LatitudeDegrees>
              <LongitudeDegrees>-73.01751625724136829376220703125</LongitudeDegrees>
            </Position>
            <AltitudeMeters>550.4000244140625</AltitudeMeters>
            <DistanceMeters>838.67807629605</DistanceMeters>
          </Trackpoint>
          <Trackpoint>
            <Time>2023-01-11T14:26:54.000Z</Time>
            <Position>
              <LatitudeDegrees>-49.22648004256188869476318359375</LatitudeDegrees>
              <LongitudeDegrees>-73.017526566982269287109375</LongitudeDegrees>
            </Position>
            <AltitudeMeters>549</AltitudeMeters>
            <DistanceMeters>839.77809004301</DistanceMeters>
          </Trackpoint>
          <Trackpoint>
            <Time>2023-01-11T14:26:57.000Z</Time>
            <Position>
              <LatitudeDegrees>-49.22645489685237407684326171875</LatitudeDegrees>
              <LongitudeDegrees>-73.0175547301769256591796875</LongitudeDegrees>
            </Position>
            <AltitudeMeters>548.5999755859375</AltitudeMeters>
            <DistanceMeters>843.24493756589</DistanceMeters>
          </Trackpoint>
          <Trackpoint>
            <Time>2023-01-11T14:27:00.000Z</Time>
            <Position>
              <LatitudeDegrees>-49.22644115053117275238037109375</LatitudeDegrees>
              <LongitudeDegrees>-73.0175441689789295196533203125</LongitudeDegrees>
            </Position>
            <AltitudeMeters>548.5999755859375</AltitudeMeters>
            <DistanceMeters>844.95541842455</DistanceMeters>
          </Trackpoint>
          <Trackpoint>
            <Time>2023-01-11T14:27:04.000Z</Time>
            <Position>
              <LatitudeDegrees>-49.22642153687775135040283203125</LatitudeDegrees>
              <LongitudeDegrees>-73.01750401966273784637451171875</LongitudeDegrees>
            </Position>
            <AltitudeMeters>548</AltitudeMeters>
            <DistanceMeters>848.59879767637</DistanceMeters>
          </Trackpoint>
          <Trackpoint>
            <Time>2023-01-11T14:27:06.000Z</Time>
            <Position>
              <LatitudeDegrees>-49.2264035157859325408935546875</LatitudeDegrees>
              <LongitudeDegrees>-73.01748926751315593719482421875</LongitudeDegrees>
            </Position>
            <AltitudeMeters>547.79998779296875</AltitudeMeters>
            <DistanceMeters>850.87150613236</DistanceMeters>
          </Trackpoint>
          <Trackpoint>
            <Time>2023-01-11T14:27:12.000Z</Time>
            <Position>
              <LatitudeDegrees>-49.22632765956223011016845703125</LatitudeDegrees>
              <LongitudeDegrees>-73.01749169826507568359375</LongitudeDegrees>
            </Position>
            <AltitudeMeters>547.4000244140625</AltitudeMeters>
            <DistanceMeters>859.31552671509</DistanceMeters>
          </Trackpoint>
          <Trackpoint>
            <Time>2023-01-11T14:27:15.000Z</Time>
            <Position>
              <LatitudeDegrees>-49.226295389235019683837890625</LatitudeDegrees>
              <LongitudeDegrees>-73.0174898542463779449462890625</LongitudeDegrees>
            </Position>
            <AltitudeMeters>547.20001220703125</AltitudeMeters>
            <DistanceMeters>862.91025054193</DistanceMeters>
          </Trackpoint>
          <Trackpoint>
            <Time>2023-01-11T14:27:18.000Z</Time>
            <Position>
              <LatitudeDegrees>-49.2262667231261730194091796875</LatitudeDegrees>
              <LongitudeDegrees>-73.017479293048381805419921875</LongitudeDegrees>
            </Position>
            <AltitudeMeters>547</AltitudeMeters>
            <DistanceMeters>866.1910814003</DistanceMeters>
          </Trackpoint>
          <Trackpoint>
            <Time>2023-01-11T14:27:19.000Z</Time>
            <Position>
              <LatitudeDegrees>-49.2262570001184940338134765625</LatitudeDegrees>
              <LongitudeDegrees>-73.01748172380030155181884765625</LongitudeDegrees>
            </Position>
            <AltitudeMeters>547</AltitudeMeters>
            <DistanceMeters>867.28285522788</DistanceMeters>
          </Trackpoint>
          <Trackpoint>
            <Time>2023-01-11T14:27:20.000Z</Time>
            <Position>
              <LatitudeDegrees>-49.226251803338527679443359375</LatitudeDegrees>
              <LongitudeDegrees>-73.0174903571605682373046875</LongitudeDegrees>
            </Position>
            <AltitudeMeters>546.79998779296875</AltitudeMeters>
            <DistanceMeters>868.13279999992</DistanceMeters>
          </Trackpoint>
          <Trackpoint>
            <Time>2023-01-11T14:27:24.000Z</Time>
            <Position>
              <LatitudeDegrees>-49.2262320220470428466796875</LatitudeDegrees>
              <LongitudeDegrees>-73.017510138452053070068359375</LongitudeDegrees>
            </Position>
            <AltitudeMeters>546.5999755859375</AltitudeMeters>
            <DistanceMeters>870.76282634125</DistanceMeters>
          </Trackpoint>
          <Trackpoint>
            <Time>2023-01-11T14:27:25.000Z</Time>
            <Position>
              <LatitudeDegrees>-49.22622221522033214569091796875</LatitudeDegrees>
              <LongitudeDegrees>-73.0175103060901165008544921875</LongitudeDegrees>
            </Position>
            <AltitudeMeters>546.79998779296875</AltitudeMeters>
            <DistanceMeters>871.85460016883</DistanceMeters>
          </Trackpoint>
          <Trackpoint>
            <Time>2023-01-11T14:27:26.000Z</Time>
            <Position>
              <LatitudeDegrees>-49.22621928155422210693359375</LatitudeDegrees>
              <LongitudeDegrees>-73.017508126795291900634765625</LongitudeDegrees>
            </Position>
            <AltitudeMeters>546.79998779296875</AltitudeMeters>
            <DistanceMeters>872.23470702631</DistanceMeters>
          </Trackpoint>
          <Trackpoint>
            <Time>2023-01-11T14:27:27.000Z</Time>
            <Position>
              <LatitudeDegrees>-49.2262194491922855377197265625</LatitudeDegrees>
              <LongitudeDegrees>-73.0175072886049747467041015625</LongitudeDegrees>
            </Position>
            <AltitudeMeters>547</AltitudeMeters>
            <DistanceMeters>872.32973374068</DistanceMeters>
          </Trackpoint>
          <Trackpoint>
            <Time>2023-01-11T14:27:29.000Z</Time>
            <Position>
              <LatitudeDegrees>-49.22622104175388813018798828125</LatitudeDegrees>
              <LongitudeDegrees>-73.0175099708139896392822265625</LongitudeDegrees>
            </Position>
            <AltitudeMeters>547</AltitudeMeters>
            <DistanceMeters>872.59850987718</DistanceMeters>
          </Trackpoint>
          <Trackpoint>
            <Time>2023-01-11T14:27:37.000Z</Time>
            <Position>
              <LatitudeDegrees>-49.2262204550206661224365234375</LatitudeDegrees>
              <LongitudeDegrees>-73.01752916537225246429443359375</LongitudeDegrees>
            </Position>
            <AltitudeMeters>546.79998779296875</AltitudeMeters>
            <DistanceMeters>873.99511165002</DistanceMeters>
          </Trackpoint>
          <Trackpoint>
            <Time>2023-01-11T14:27:38.000Z</Time>
            <Position>
              <LatitudeDegrees>-49.22622405923902988433837890625</LatitudeDegrees>
              <LongitudeDegrees>-73.01754358224570751190185546875</LongitudeDegrees>
            </Position>
            <AltitudeMeters>546.79998779296875</AltitudeMeters>
            <DistanceMeters>875.11546008944</DistanceMeters>
          </Trackpoint>
          <Trackpoint>
            <Time>2023-01-11T14:27:43.000Z</Time>
            <Position>
              <LatitudeDegrees>-49.22623931430280208587646484375</LatitudeDegrees>
              <LongitudeDegrees>-73.0176258087158203125</LongitudeDegrees>
            </Position>
            <AltitudeMeters>547.4000244140625</AltitudeMeters>
            <DistanceMeters>881.32936440753</DistanceMeters>
          </Trackpoint>
          <Trackpoint>
            <Time>2023-01-11T14:27:50.000Z</Time>
            <Position>
              <LatitudeDegrees>-49.22624342143535614013671875</LatitudeDegrees>
              <LongitudeDegrees>-73.01774776540696620941162109375</LongitudeDegrees>
            </Position>
            <AltitudeMeters>548</AltitudeMeters>
            <DistanceMeters>890.20610069121</DistanceMeters>
          </Trackpoint>
          <Trackpoint>
            <Time>2023-01-11T14:27:51.000Z</Time>
            <Position>
              <LatitudeDegrees>-49.22624149359762668609619140625</LatitudeDegrees>
              <LongitudeDegrees>-73.017764277756214141845703125</LongitudeDegrees>
            </Position>
            <AltitudeMeters>548</AltitudeMeters>
            <DistanceMeters>891.42303640718</DistanceMeters>
          </Trackpoint>
          <Trackpoint>
            <Time>2023-01-11T14:27:57.000Z</Time>
            <Position>
              <LatitudeDegrees>-49.2262348718941211700439453125</LatitudeDegrees>
              <LongitudeDegrees>-73.01785991527140140533447265625</LongitudeDegrees>
            </Position>
            <AltitudeMeters>549</AltitudeMeters>
            <DistanceMeters>898.41379986439</DistanceMeters>
          </Trackpoint>
          <Trackpoint>
            <Time>2023-01-11T14:28:00.000Z</Time>
            <Position>
              <LatitudeDegrees>-49.22623059712350368499755859375</LatitudeDegrees>
              <LongitudeDegrees>-73.01790014840662479400634765625</LongitudeDegrees>
            </Position>
            <AltitudeMeters>549.5999755859375</AltitudeMeters>
            <DistanceMeters>901.37643961696</DistanceMeters>
          </Trackpoint>
          <Trackpoint>
            <Time>2023-01-11T14:28:05.000Z</Time>
            <Position>
              <LatitudeDegrees>-49.2262288369238376617431640625</LatitudeDegrees>
              <LongitudeDegrees>-73.01797114312648773193359375</LongitudeDegrees>
            </Position>
            <AltitudeMeters>549.20001220703125</AltitudeMeters>
            <DistanceMeters>906.54033502053</DistanceMeters>
          </Trackpoint>
          <Trackpoint>
            <Time>2023-01-11T14:28:10.000Z</Time>
            <Position>
              <LatitudeDegrees>-49.226224310696125030517578125</LatitudeDegrees>
              <LongitudeDegrees>-73.01804532296955585479736328125</LongitudeDegrees>
            </Position>
            <AltitudeMeters>549.4000244140625</AltitudeMeters>
            <DistanceMeters>911.95519034764</DistanceMeters>
          </Trackpoint>
          <Trackpoint>
            <Time>2023-01-11T14:28:14.000Z</Time>
            <Position>
              <LatitudeDegrees>-49.22621190547943115234375</LatitudeDegrees>
              <LongitudeDegrees>-73.01810651086270809173583984375</LongitudeDegrees>
            </Position>
            <AltitudeMeters>548</AltitudeMeters>
            <DistanceMeters>916.61149935177</DistanceMeters>
          </Trackpoint>
          <Trackpoint>
            <Time>2023-01-11T14:28:16.000Z</Time>
            <Position>
              <LatitudeDegrees>-49.22620318830013275146484375</LatitudeDegrees>
              <LongitudeDegrees>-73.01814205013215541839599609375</LongitudeDegrees>
            </Position>
            <AltitudeMeters>546</AltitudeMeters>
            <DistanceMeters>919.36891197338</DistanceMeters>
          </Trackpoint>
          <Trackpoint>
            <Time>2023-01-11T14:28:19.000Z</Time>
            <Position>
              <LatitudeDegrees>-49.2261943034827709197998046875</LatitudeDegrees>
              <LongitudeDegrees>-73.01820172928273677825927734375</LongitudeDegrees>
            </Position>
            <AltitudeMeters>546</AltitudeMeters>
            <DistanceMeters>923.81794867419</DistanceMeters>
          </Trackpoint>
          <Trackpoint>
            <Time>2023-01-11T14:28:20.000Z</Time>
            <Position>
              <LatitudeDegrees>-49.22619069926440715789794921875</LatitudeDegrees>
              <LongitudeDegrees>-73.0182207562029361724853515625</LongitudeDegrees>
            </Position>
            <AltitudeMeters>547.5999755859375</AltitudeMeters>
            <DistanceMeters>925.25910015204</DistanceMeters>
          </Trackpoint>
          <Trackpoint>
            <Time>2023-01-11T14:28:23.000Z</Time>
            <Position>
              <LatitudeDegrees>-49.226187765598297119140625</LatitudeDegrees>
              <LongitudeDegrees>-73.01827146671712398529052734375</LongitudeDegrees>
            </Position>
            <AltitudeMeters>548</AltitudeMeters>
            <DistanceMeters>928.96148533485</DistanceMeters>
          </Trackpoint>
          <Trackpoint>
            <Time>2023-01-11T14:28:28.000Z</Time>
            <Position>
              <LatitudeDegrees>-49.22618416137993335723876953125</LatitudeDegrees>
              <LongitudeDegrees>-73.01835981197655200958251953125</LongitudeDegrees>
            </Position>
            <AltitudeMeters>548</AltitudeMeters>
            <DistanceMeters>935.39669555457</DistanceMeters>
          </Trackpoint>
          <Trackpoint>
            <Time>2023-01-11T14:28:35.000Z</Time>
            <Position>
              <LatitudeDegrees>-49.226110987365245819091796875</LatitudeDegrees>
              <LongitudeDegrees>-73.01843491382896900177001953125</LongitudeDegrees>
            </Position>
            <AltitudeMeters>547.5999755859375</AltitudeMeters>
            <DistanceMeters>945.20150018406</DistanceMeters>
          </Trackpoint>
          <Trackpoint>
            <Time>2023-01-11T14:28:40.000Z</Time>
            <Position>
              <LatitudeDegrees>-49.22605239786207675933837890625</LatitudeDegrees>
              <LongitudeDegrees>-73.0184876359999179840087890625</LongitudeDegrees>
            </Position>
            <AltitudeMeters>549</AltitudeMeters>
            <DistanceMeters>952.76612802853</DistanceMeters>
          </Trackpoint>
          <Trackpoint>
            <Time>2023-01-11T14:28:41.000Z</Time>
            <Position>
              <LatitudeDegrees>-49.2260481230914592742919921875</LatitudeDegrees>
              <LongitudeDegrees>-73.0184933356940746307373046875</LongitudeDegrees>
            </Position>
            <AltitudeMeters>548.79998779296875</AltitudeMeters>
            <DistanceMeters>953.39646394178</DistanceMeters>
          </Trackpoint>
          <Trackpoint>
            <Time>2023-01-11T14:28:46.000Z</Time>
            <Position>
              <LatitudeDegrees>-49.22604183666408061981201171875</LatitudeDegrees>
              <LongitudeDegrees>-73.01851873286068439483642578125</LongitudeDegrees>
            </Position>
            <AltitudeMeters>549.20001220703125</AltitudeMeters>
            <DistanceMeters>955.37155711016</DistanceMeters>
          </Trackpoint>
          <Trackpoint>
            <Time>2023-01-11T14:28:52.000Z</Time>
            <Position>
              <LatitudeDegrees>-49.226026497781276702880859375</LatitudeDegrees>
              <LongitudeDegrees>-73.01861428655683994293212890625</LongitudeDegrees>
            </Position>
            <AltitudeMeters>548.79998779296875</AltitudeMeters>
            <DistanceMeters>962.52448749787</DistanceMeters>
          </Trackpoint>
          <Trackpoint>
            <Time>2023-01-11T14:28:59.000Z</Time>
            <Position>
              <LatitudeDegrees>-49.22600998543202877044677734375</LatitudeDegrees>
              <LongitudeDegrees>-73.01873431541025638580322265625</LongitudeDegrees>
            </Position>
            <AltitudeMeters>549.5999755859375</AltitudeMeters>
            <DistanceMeters>971.43979640221</DistanceMeters>
          </Trackpoint>
          <Trackpoint>
            <Time>2023-01-11T14:29:01.000Z</Time>
            <Position>
              <LatitudeDegrees>-49.22599053941667079925537109375</LatitudeDegrees>
              <LongitudeDegrees>-73.01876231096684932708740234375</LongitudeDegrees>
            </Position>
            <AltitudeMeters>549.4000244140625</AltitudeMeters>
            <DistanceMeters>974.41004633878</DistanceMeters>
          </Trackpoint>
          <Trackpoint>
            <Time>2023-01-11T14:29:12.000Z</Time>
            <Position>
              <LatitudeDegrees>-49.2258962430059909820556640625</LatitudeDegrees>
              <LongitudeDegrees>-73.01887881942093372344970703125</LongitudeDegrees>
            </Position>
            <AltitudeMeters>548.5999755859375</AltitudeMeters>
            <DistanceMeters>987.8958069618</DistanceMeters>
          </Trackpoint>
          <Trackpoint>
            <Time>2023-01-11T14:29:13.000Z</Time>
            <Position>
              <LatitudeDegrees>-49.2258908785879611968994140625</LatitudeDegrees>
              <LongitudeDegrees>-73.0188856087625026702880859375</LongitudeDegrees>
            </Position>
            <AltitudeMeters>548.4000244140625</AltitudeMeters>
            <DistanceMeters>988.66780763881</DistanceMeters>
          </Trackpoint>
          <Trackpoint>
            <Time>2023-01-11T14:29:18.000Z</Time>
            <Position>
              <LatitudeDegrees>-49.22589473426342010498046875</LatitudeDegrees>
              <LongitudeDegrees>-73.0188939906656742095947265625</LongitudeDegrees>
            </Position>
            <AltitudeMeters>548</AltitudeMeters>
            <DistanceMeters>989.40999000392</DistanceMeters>
          </Trackpoint>
          <Trackpoint>
            <Time>2023-01-11T14:29:19.000Z</Time>
            <Position>
              <LatitudeDegrees>-49.22589666210114955902099609375</LatitudeDegrees>
              <LongitudeDegrees>-73.018893487751483917236328125</LongitudeDegrees>
            </Position>
            <AltitudeMeters>547.5999755859375</AltitudeMeters>
            <DistanceMeters>989.60004343266</DistanceMeters>
          </Trackpoint>
          <Trackpoint>
            <Time>2023-01-11T14:29:27.000Z</Time>
            <Position>
              <LatitudeDegrees>-49.22589180059731006622314453125</LatitudeDegrees>
              <LongitudeDegrees>-73.01895073615014553070068359375</LongitudeDegrees>
            </Position>
            <AltitudeMeters>547.20001220703125</AltitudeMeters>
            <DistanceMeters>993.7963095188</DistanceMeters>
          </Trackpoint>
          <Trackpoint>
            <Time>2023-01-11T14:29:30.000Z</Time>
            <Position>
              <LatitudeDegrees>-49.2258731089532375335693359375</LatitudeDegrees>
              <LongitudeDegrees>-73.0189915560185909271240234375</LongitudeDegrees>
            </Position>
            <AltitudeMeters>549.20001220703125</AltitudeMeters>
            <DistanceMeters>997.4210524374</DistanceMeters>
          </Trackpoint>
          <Trackpoint>
            <Time>2023-01-11T14:29:33.000Z</Time>
            <Position>
              <LatitudeDegrees>-49.22585190273821353912353515625</LatitudeDegrees>
              <LongitudeDegrees>-73.0190433561801910400390625</LongitudeDegrees>
            </Position>
            <AltitudeMeters>549.5999755859375</AltitudeMeters>
            <DistanceMeters>1001.8639959557</DistanceMeters>
          </Trackpoint>
          <Trackpoint>
            <Time>2023-01-11T14:29:43.000Z</Time>
            <Position>
              <LatitudeDegrees>-49.2258151061832904815673828125</LatitudeDegrees>
              <LongitudeDegrees>-73.01920135505497455596923828125</LongitudeDegrees>
            </Position>
            <AltitudeMeters>549.79998779296875</AltitudeMeters>
            <DistanceMeters>1014.0574453712</DistanceMeters>
          </Trackpoint>
          <Trackpoint>
            <Time>2023-01-11T14:29:51.000Z</Time>
            <Position>
              <LatitudeDegrees>-49.2257866077125072479248046875</LatitudeDegrees>
              <LongitudeDegrees>-73.01933663897216320037841796875</LongitudeDegrees>
            </Position>
            <AltitudeMeters>549.4000244140625</AltitudeMeters>
            <DistanceMeters>1024.3904809307</DistanceMeters>
          </Trackpoint>
          <Trackpoint>
            <Time>2023-01-11T14:29:54.000Z</Time>
            <Position>
              <LatitudeDegrees>-49.22578702680766582489013671875</LatitudeDegrees>
              <LongitudeDegrees>-73.0193606950342655181884765625</LongitudeDegrees>
            </Position>
            <AltitudeMeters>549.4000244140625</AltitudeMeters>
            <DistanceMeters>1026.1375258179</DistanceMeters>
          </Trackpoint>
          <Trackpoint>
            <Time>2023-01-11T14:30:12.000Z</Time>
            <Position>
              <LatitudeDegrees>-49.225785769522190093994140625</LatitudeDegrees>
              <LongitudeDegrees>-73.019355498254299163818359375</LongitudeDegrees>
            </Position>
            <AltitudeMeters>548.20001220703125</AltitudeMeters>
            <DistanceMeters>1026.5406900227</DistanceMeters>
          </Trackpoint>
          <Trackpoint>
            <Time>2023-01-11T14:30:19.000Z</Time>
            <Position>
              <LatitudeDegrees>-49.22576858662068843841552734375</LatitudeDegrees>
              <LongitudeDegrees>-73.019413836300373077392578125</LongitudeDegrees>
            </Position>
            <AltitudeMeters>548.79998779296875</AltitudeMeters>
            <DistanceMeters>1031.1921481983</DistanceMeters>
          </Trackpoint>
          <Trackpoint>
            <Time>2023-01-11T14:30:20.000Z</Time>
            <Position>
              <LatitudeDegrees>-49.225763976573944091796875</LatitudeDegrees>
              <LongitudeDegrees>-73.019432611763477325439453125</LongitudeDegrees>
            </Position>
            <AltitudeMeters>550.20001220703125</AltitudeMeters>
            <DistanceMeters>1032.6519762844</DistanceMeters>
          </Trackpoint>
          <Trackpoint>
            <Time>2023-01-11T14:30:27.000Z</Time>
            <Position>
              <LatitudeDegrees>-49.225726090371608734130859375</LatitudeDegrees>
              <LongitudeDegrees>-73.01956730894744396209716796875</LongitudeDegrees>
            </Position>
            <AltitudeMeters>551.79998779296875</AltitudeMeters>
            <DistanceMeters>1043.3123473871</DistanceMeters>
          </Trackpoint>
          <Trackpoint>
            <Time>2023-01-11T14:30:28.000Z</Time>
            <Position>
              <LatitudeDegrees>-49.2257212288677692413330078125</LatitudeDegrees>
              <LongitudeDegrees>-73.01958306692540645599365234375</LongitudeDegrees>
            </Position>
            <AltitudeMeters>553</AltitudeMeters>
            <DistanceMeters>1044.5801618873</DistanceMeters>
          </Trackpoint>
          <Trackpoint>
            <Time>2023-01-11T14:30:30.000Z</Time>
            <Position>
              <LatitudeDegrees>-49.22571443952620029449462890625</LatitudeDegrees>
              <LongitudeDegrees>-73.0196195282042026519775390625</LongitudeDegrees>
            </Position>
            <AltitudeMeters>553</AltitudeMeters>
            <DistanceMeters>1047.3375745089</DistanceMeters>
          </Trackpoint>
          <Trackpoint>
            <Time>2023-01-11T14:30:33.000Z</Time>
            <Position>
              <LatitudeDegrees>-49.2257089912891387939453125</LatitudeDegrees>
              <LongitudeDegrees>-73.01966588012874126434326171875</LongitudeDegrees>
            </Position>
            <AltitudeMeters>553</AltitudeMeters>
            <DistanceMeters>1050.7611748396</DistanceMeters>
          </Trackpoint>
          <Trackpoint>
            <Time>2023-01-11T14:30:34.000Z</Time>
            <Position>
              <LatitudeDegrees>-49.22570689581334590911865234375</LatitudeDegrees>
              <LongitudeDegrees>-73.0196768604218959808349609375</LongitudeDegrees>
            </Position>
            <AltitudeMeters>551.20001220703125</AltitudeMeters>
            <DistanceMeters>1051.5895985293</DistanceMeters>
          </Trackpoint>
          <Trackpoint>
            <Time>2023-01-11T14:30:36.000Z</Time>
            <Position>
              <LatitudeDegrees>-49.22570387832820415496826171875</LatitudeDegrees>
              <LongitudeDegrees>-73.01970158703625202178955078125</LongitudeDegrees>
            </Position>
            <AltitudeMeters>549</AltitudeMeters>
            <DistanceMeters>1053.4174738764</DistanceMeters>
          </Trackpoint>
          <Trackpoint>
            <Time>2023-01-11T14:30:39.000Z</Time>
            <Position>
              <LatitudeDegrees>-49.22570991329848766326904296875</LatitudeDegrees>
              <LongitudeDegrees>-73.01970141939818859100341796875</LongitudeDegrees>
            </Position>
            <AltitudeMeters>548.79998779296875</AltitudeMeters>
            <DistanceMeters>1054.0894142176</DistanceMeters>
          </Trackpoint>
          <Trackpoint>
            <Time>2023-01-11T14:30:46.000Z</Time>
            <Position>
              <LatitudeDegrees>-49.2257063090801239013671875</LatitudeDegrees>
              <LongitudeDegrees>-73.01970326341688632965087890625</LongitudeDegrees>
            </Position>
            <AltitudeMeters>549</AltitudeMeters>
            <DistanceMeters>1054.5143866036</DistanceMeters>
          </Trackpoint>
          <Trackpoint>
            <Time>2023-01-11T14:31:06.000Z</Time>
            <Position>
              <LatitudeDegrees>-49.2257063090801239013671875</LatitudeDegrees>
              <LongitudeDegrees>-73.01970074884593486785888671875</LongitudeDegrees>
            </Position>
            <AltitudeMeters>547.4000244140625</AltitudeMeters>
            <DistanceMeters>1054.7044400324</DistanceMeters>
          </Trackpoint>
          <Trackpoint>
            <Time>2023-01-11T14:31:17.000Z</Time>
            <Position>
              <LatitudeDegrees>-49.22570136375725269317626953125</LatitudeDegrees>
              <LongitudeDegrees>-73.01969714462757110595703125</LongitudeDegrees>
            </Position>
            <AltitudeMeters>547.4000244140625</AltitudeMeters>
            <DistanceMeters>1055.3054417443</DistanceMeters>
          </Trackpoint>
          <Trackpoint>
            <Time>2023-01-11T14:31:20.000Z</Time>
            <Position>
              <LatitudeDegrees>-49.22570027410984039306640625</LatitudeDegrees>
              <LongitudeDegrees>-73.01969689317047595977783203125</LongitudeDegrees>
            </Position>
            <AltitudeMeters>547.4000244140625</AltitudeMeters>
            <DistanceMeters>1055.4398298126</DistanceMeters>
          </Trackpoint>
          <Trackpoint>
            <Time>2023-01-11T14:31:27.000Z</Time>
            <Position>
              <LatitudeDegrees>-49.2257001064717769622802734375</LatitudeDegrees>
              <LongitudeDegrees>-73.01968985237181186676025390625</LongitudeDegrees>
            </Position>
            <AltitudeMeters>547.20001220703125</AltitudeMeters>
            <DistanceMeters>1055.9426639208</DistanceMeters>
          </Trackpoint>
          <Trackpoint>
            <Time>2023-01-11T14:31:30.000Z</Time>
            <Position>
              <LatitudeDegrees>-49.2257001064717769622802734375</LatitudeDegrees>
              <LongitudeDegrees>-73.01968951709568500518798828125</LongitudeDegrees>
            </Position>
            <AltitudeMeters>547.79998779296875</AltitudeMeters>
            <DistanceMeters>1055.9426639208</DistanceMeters>
          </Trackpoint>
          <Trackpoint>
            <Time>2023-01-11T14:31:32.000Z</Time>
            <Position>
              <LatitudeDegrees>-49.22570069320499897003173828125</LatitudeDegrees>
              <LongitudeDegrees>-73.01968951709568500518798828125</LongitudeDegrees>
            </Position>
            <AltitudeMeters>548.20001220703125</AltitudeMeters>
            <DistanceMeters>1055.9426639208</DistanceMeters>
          </Trackpoint>
          <Trackpoint>
            <Time>2023-01-11T14:31:33.000Z</Time>
            <Position>
              <LatitudeDegrees>-49.2257009446620941162109375</LatitudeDegrees>
              <LongitudeDegrees>-73.01968951709568500518798828125</LongitudeDegrees>
            </Position>
            <AltitudeMeters>548.5999755859375</AltitudeMeters>
            <DistanceMeters>1055.9426639208</DistanceMeters>
          </Trackpoint>
          <Trackpoint>
            <Time>2023-01-11T14:31:37.000Z</Time>
            <Position>
              <LatitudeDegrees>-49.22570203430950641632080078125</LatitudeDegrees>
              <LongitudeDegrees>-73.01968951709568500518798828125</LongitudeDegrees>
            </Position>
            <AltitudeMeters>548.20001220703125</AltitudeMeters>
            <DistanceMeters>1056.0376906352</DistanceMeters>
          </Trackpoint>
          <Trackpoint>
            <Time>2023-01-11T14:31:43.000Z</Time>
            <Position>
              <LatitudeDegrees>-49.22570203430950641632080078125</LatitudeDegrees>
              <LongitudeDegrees>-73.0196912772953510284423828125</LongitudeDegrees>
            </Position>
            <AltitudeMeters>549.79998779296875</AltitudeMeters>
            <DistanceMeters>1056.1720787035</DistanceMeters>
          </Trackpoint>
          <Trackpoint>
            <Time>2023-01-11T14:31:49.000Z</Time>
            <Position>
              <LatitudeDegrees>-49.22570086084306240081787109375</LatitudeDegrees>
              <LongitudeDegrees>-73.01969421096146106719970703125</LongitudeDegrees>
            </Position>
            <AltitudeMeters>546.79998779296875</AltitudeMeters>
            <DistanceMeters>1056.44085484</DistanceMeters>
          </Trackpoint>
          <Trackpoint>
            <Time>2023-01-11T14:32:04.000Z</Time>
            <Position>
              <LatitudeDegrees>-49.22569633461534976959228515625</LatitudeDegrees>
              <LongitudeDegrees>-73.019717596471309661865234375</LongitudeDegrees>
            </Position>
            <AltitudeMeters>548.79998779296875</AltitudeMeters>
            <DistanceMeters>1058.2135552102</DistanceMeters>
          </Trackpoint>
          <Trackpoint>
            <Time>2023-01-11T14:32:14.000Z</Time>
            <Position>
              <LatitudeDegrees>-49.2256964184343814849853515625</LatitudeDegrees>
              <LongitudeDegrees>-73.01971466280519962310791015625</LongitudeDegrees>
            </Position>
            <AltitudeMeters>550</AltitudeMeters>
            <DistanceMeters>1058.4463221723</DistanceMeters>
          </Trackpoint>
          <Trackpoint>
            <Time>2023-01-11T14:32:16.000Z</Time>
            <Position>
              <LatitudeDegrees>-49.2256964184343814849853515625</LatitudeDegrees>
              <LongitudeDegrees>-73.0197137407958507537841796875</LongitudeDegrees>
            </Position>
            <AltitudeMeters>551.20001220703125</AltitudeMeters>
            <DistanceMeters>1058.5807102405</DistanceMeters>
          </Trackpoint>
          <Trackpoint>
            <Time>2023-01-11T14:32:20.000Z</Time>
            <Position>
              <LatitudeDegrees>-49.2256964184343814849853515625</LatitudeDegrees>
              <LongitudeDegrees>-73.01971164532005786895751953125</LongitudeDegrees>
            </Position>
            <AltitudeMeters>549.5999755859375</AltitudeMeters>
            <DistanceMeters>1058.7707636693</DistanceMeters>
          </Trackpoint>
          <Trackpoint>
            <Time>2023-01-11T14:32:22.000Z</Time>
            <Position>
              <LatitudeDegrees>-49.2256964184343814849853515625</LatitudeDegrees>
              <LongitudeDegrees>-73.01971147768199443817138671875</LongitudeDegrees>
            </Position>
            <AltitudeMeters>547</AltitudeMeters>
            <DistanceMeters>1058.8657903837</DistanceMeters>
          </Trackpoint>
          <Trackpoint>
            <Time>2023-01-11T14:32:26.000Z</Time>
            <Position>
              <LatitudeDegrees>-49.22569449059665203094482421875</LatitudeDegrees>
              <LongitudeDegrees>-73.01971198059618473052978515625</LongitudeDegrees>
            </Position>
            <AltitudeMeters>550.5999755859375</AltitudeMeters>
            <DistanceMeters>1059.0558438124</DistanceMeters>
          </Trackpoint>
          <Trackpoint>
            <Time>2023-01-11T14:32:33.000Z</Time>
            <Position>
              <LatitudeDegrees>-49.22568895854055881500244140625</LatitudeDegrees>
              <LongitudeDegrees>-73.01980175077915191650390625</LongitudeDegrees>
            </Position>
            <AltitudeMeters>550.79998779296875</AltitudeMeters>
            <DistanceMeters>1065.6092432026</DistanceMeters>
          </Trackpoint>
          <Trackpoint>
            <Time>2023-01-11T14:32:39.000Z</Time>
            <Position>
              <LatitudeDegrees>-49.22566942870616912841796875</LatitudeDegrees>
              <LongitudeDegrees>-73.01993175409734249114990234375</LongitudeDegrees>
            </Position>
            <AltitudeMeters>550.79998779296875</AltitudeMeters>
            <DistanceMeters>1075.3056938901</DistanceMeters>
          </Trackpoint>
          <Trackpoint>
            <Time>2023-01-11T14:32:42.000Z</Time>
            <Position>
              <LatitudeDegrees>-49.2256553471088409423828125</LatitudeDegrees>
              <LongitudeDegrees>-73.01996729336678981781005859375</LongitudeDegrees>
            </Position>
            <AltitudeMeters>551.20001220703125</AltitudeMeters>
            <DistanceMeters>1078.3286787331</DistanceMeters>
          </Trackpoint>
          <Trackpoint>
            <Time>2023-01-11T14:32:44.000Z</Time>
            <Position>
              <LatitudeDegrees>-49.22563900239765644073486328125</LatitudeDegrees>
              <LongitudeDegrees>-73.02000400610268115997314453125</LongitudeDegrees>
            </Position>
            <AltitudeMeters>549.4000244140625</AltitudeMeters>
            <DistanceMeters>1081.5567909084</DistanceMeters>
          </Trackpoint>
          <Trackpoint>
            <Time>2023-01-11T14:32:45.000Z</Time>
            <Position>
              <LatitudeDegrees>-49.22563145868480205535888671875</LatitudeDegrees>
              <LongitudeDegrees>-73.020018674433231353759765625</LongitudeDegrees>
            </Position>
            <AltitudeMeters>548.4000244140625</AltitudeMeters>
            <DistanceMeters>1082.9107131802</DistanceMeters>
          </Trackpoint>
          <Trackpoint>
            <Time>2023-01-11T14:32:47.000Z</Time>
            <Position>
              <LatitudeDegrees>-49.22562005929648876190185546875</LatitudeDegrees>
              <LongitudeDegrees>-73.0200402997434139251708984375</LongitudeDegrees>
            </Position>
            <AltitudeMeters>549.4000244140625</AltitudeMeters>
            <DistanceMeters>1084.9310088399</DistanceMeters>
          </Trackpoint>
          <Trackpoint>
            <Time>2023-01-11T14:32:48.000Z</Time>
            <Position>
              <LatitudeDegrees>-49.22561553306877613067626953125</LatitudeDegrees>
              <LongitudeDegrees>-73.02005496807396411895751953125</LongitudeDegrees>
            </Position>
            <AltitudeMeters>551.5999755859375</AltitudeMeters>
            <DistanceMeters>1086.1064243817</DistanceMeters>
          </Trackpoint>
          <Trackpoint>
            <Time>2023-01-11T14:32:54.000Z</Time>
            <Position>
              <LatitudeDegrees>-49.22558653168380260467529296875</LatitudeDegrees>
              <LongitudeDegrees>-73.0201358534395694732666015625</LongitudeDegrees>
            </Position>
            <AltitudeMeters>552</AltitudeMeters>
            <DistanceMeters>1092.813721963</DistanceMeters>
          </Trackpoint>
          <Trackpoint>
            <Time>2023-01-11T14:33:02.000Z</Time>
            <Position>
              <LatitudeDegrees>-49.22553858719766139984130859375</LatitudeDegrees>
              <LongitudeDegrees>-73.02025261335074901580810546875</LongitudeDegrees>
            </Position>
            <AltitudeMeters>551</AltitudeMeters>
            <DistanceMeters>1102.8389277375</DistanceMeters>
          </Trackpoint>
          <Trackpoint>
            <Time>2023-01-11T14:33:04.000Z</Time>
            <Position>
              <LatitudeDegrees>-49.225522242486476898193359375</LatitudeDegrees>
              <LongitudeDegrees>-73.02028161473572254180908203125</LongitudeDegrees>
            </Position>
            <AltitudeMeters>550.20001220703125</AltitudeMeters>
            <DistanceMeters>1105.6256580334</DistanceMeters>
          </Trackpoint>
          <Trackpoint>
            <Time>2023-01-11T14:33:09.000Z</Time>
            <Position>
              <LatitudeDegrees>-49.22549231909215450286865234375</LatitudeDegrees>
              <LongitudeDegrees>-73.0203480832278728485107421875</LongitudeDegrees>
            </Position>
            <AltitudeMeters>550.79998779296875</AltitudeMeters>
            <DistanceMeters>1111.494278958</DistanceMeters>
          </Trackpoint>
          <Trackpoint>
            <Time>2023-01-11T14:33:20.000Z</Time>
            <Position>
              <LatitudeDegrees>-49.22540414147078990936279296875</LatitudeDegrees>
              <LongitudeDegrees>-73.020492084324359893798828125</LongitudeDegrees>
            </Position>
            <AltitudeMeters>551.5999755859375</AltitudeMeters>
            <DistanceMeters>1125.8429981665</DistanceMeters>
          </Trackpoint>
          <Trackpoint>
            <Time>2023-01-11T14:33:29.000Z</Time>
            <Position>
              <LatitudeDegrees>-49.2253608070313930511474609375</LatitudeDegrees>
              <LongitudeDegrees>-73.02055570296943187713623046875</LongitudeDegrees>
            </Position>
            <AltitudeMeters>551.20001220703125</AltitudeMeters>
            <DistanceMeters>1132.5246669654</DistanceMeters>
          </Trackpoint>
          <Trackpoint>
            <Time>2023-01-11T14:33:37.000Z</Time>
            <Position>
              <LatitudeDegrees>-49.2253093421459197998046875</LatitudeDegrees>
              <LongitudeDegrees>-73.0206307210028171539306640625</LongitudeDegrees>
            </Position>
            <AltitudeMeters>551.20001220703125</AltitudeMeters>
            <DistanceMeters>1140.4330365477</DistanceMeters>
          </Trackpoint>
          <Trackpoint>
            <Time>2023-01-11T14:33:46.000Z</Time>
            <Position>
              <LatitudeDegrees>-49.22523901797831058502197265625</LatitudeDegrees>
              <LongitudeDegrees>-73.02074697799980640411376953125</LongitudeDegrees>
            </Position>
            <AltitudeMeters>552.5999755859375</AltitudeMeters>
            <DistanceMeters>1151.9516698517</DistanceMeters>
          </Trackpoint>
          <Trackpoint>
            <Time>2023-01-11T14:33:50.000Z</Time>
            <Position>
              <LatitudeDegrees>-49.22520808875560760498046875</LatitudeDegrees>
              <LongitudeDegrees>-73.02078838460147380828857421875</LongitudeDegrees>
            </Position>
            <AltitudeMeters>551.4000244140625</AltitudeMeters>
            <DistanceMeters>1156.5248150543</DistanceMeters>
          </Trackpoint>
          <Trackpoint>
            <Time>2023-01-11T14:33:51.000Z</Time>
            <Position>
              <LatitudeDegrees>-49.2252002097666263580322265625</LatitudeDegrees>
              <LongitudeDegrees>-73.02080146037042140960693359375</LongitudeDegrees>
            </Position>
            <AltitudeMeters>551.4000244140625</AltitudeMeters>
            <DistanceMeters>1157.820806651</DistanceMeters>
          </Trackpoint>
          <Trackpoint>
            <Time>2023-01-11T14:33:55.000Z</Time>
            <Position>
              <LatitudeDegrees>-49.22516928054392337799072265625</LatitudeDegrees>
              <LongitudeDegrees>-73.020847477018833160400390625</LongitudeDegrees>
            </Position>
            <AltitudeMeters>550.20001220703125</AltitudeMeters>
            <DistanceMeters>1162.6194205062</DistanceMeters>
          </Trackpoint>
          <Trackpoint>
            <Time>2023-01-11T14:33:57.000Z</Time>
            <Position>
              <LatitudeDegrees>-49.22515503130853176116943359375</LatitudeDegrees>
              <LongitudeDegrees>-73.02086985670030117034912109375</LongitudeDegrees>
            </Position>
            <AltitudeMeters>551.20001220703125</AltitudeMeters>
            <DistanceMeters>1164.8901414599</DistanceMeters>
          </Trackpoint>
          <Trackpoint>
            <Time>2023-01-11T14:33:58.000Z</Time>
            <Position>
              <LatitudeDegrees>-49.22514715231955051422119140625</LatitudeDegrees>
              <LongitudeDegrees>-73.02088108845055103302001953125</LongitudeDegrees>
            </Position>
            <AltitudeMeters>551.79998779296875</AltitudeMeters>
            <DistanceMeters>1166.0921448838</DistanceMeters>
          </Trackpoint>
          <Trackpoint>
            <Time>2023-01-11T14:34:00.000Z</Time>
            <Position>
              <LatitudeDegrees>-49.2251314781606197357177734375</LatitudeDegrees>
              <LongitudeDegrees>-73.0209039710462093353271484375</LongitudeDegrees>
            </Position>
            <AltitudeMeters>550.20001220703125</AltitudeMeters>
            <DistanceMeters>1168.5036525512</DistanceMeters>
          </Trackpoint>
          <Trackpoint>
            <Time>2023-01-11T14:34:03.000Z</Time>
            <Position>
              <LatitudeDegrees>-49.22510809265077114105224609375</LatitudeDegrees>
              <LongitudeDegrees>-73.02094294689595699310302734375</LongitudeDegrees>
            </Position>
            <AltitudeMeters>551.79998779296875</AltitudeMeters>
            <DistanceMeters>1172.3507677421</DistanceMeters>
          </Trackpoint>
          <Trackpoint>
            <Time>2023-01-11T14:34:07.000Z</Time>
            <Position>
              <LatitudeDegrees>-49.22508537769317626953125</LatitudeDegrees>
              <LongitudeDegrees>-73.0209874548017978668212890625</LongitudeDegrees>
            </Position>
            <AltitudeMeters>552.4000244140625</AltitudeMeters>
            <DistanceMeters>1176.4567576009</DistanceMeters>
          </Trackpoint>
          <Trackpoint>
            <Time>2023-01-11T14:34:09.000Z</Time>
            <Position>
              <LatitudeDegrees>-49.2250677756965160369873046875</LatitudeDegrees>
              <LongitudeDegrees>-73.0210159532725811004638671875</LongitudeDegrees>
            </Position>
            <AltitudeMeters>553.20001220703125</AltitudeMeters>
            <DistanceMeters>1179.307559032</DistanceMeters>
          </Trackpoint>
          <Trackpoint>
            <Time>2023-01-11T14:34:19.000Z</Time>
            <Position>
              <LatitudeDegrees>-49.22498001717031002044677734375</LatitudeDegrees>
              <LongitudeDegrees>-73.0211403407156467437744140625</LongitudeDegrees>
            </Position>
            <AltitudeMeters>552</AltitudeMeters>
            <DistanceMeters>1192.6174065021</DistanceMeters>
          </Trackpoint>
          <Trackpoint>
            <Time>2023-01-11T14:34:28.000Z</Time>
            <Position>
              <LatitudeDegrees>-49.224900305271148681640625</LatitudeDegrees>
              <LongitudeDegrees>-73.02124612033367156982421875</LongitudeDegrees>
            </Position>
            <AltitudeMeters>552.20001220703125</AltitudeMeters>
            <DistanceMeters>1204.3573407764</DistanceMeters>
          </Trackpoint>
          <Trackpoint>
            <Time>2023-01-11T14:34:32.000Z</Time>
            <Position>
              <LatitudeDegrees>-49.22486635856330394744873046875</LatitudeDegrees>
              <LongitudeDegrees>-73.0212868563830852508544921875</LongitudeDegrees>
            </Position>
            <AltitudeMeters>551.79998779296875</AltitudeMeters>
            <DistanceMeters>1209.1568954441</DistanceMeters>
          </Trackpoint>
          <Trackpoint>
            <Time>2023-01-11T14:34:33.000Z</Time>
            <Position>
              <LatitudeDegrees>-49.224857054650783538818359375</LatitudeDegrees>
              <LongitudeDegrees>-73.02129498682916164398193359375</LongitudeDegrees>
            </Position>
            <AltitudeMeters>551.79998779296875</AltitudeMeters>
            <DistanceMeters>1210.3475767624</DistanceMeters>
          </Trackpoint>
          <Trackpoint>
            <Time>2023-01-11T14:34:34.000Z</Time>
            <Position>
              <LatitudeDegrees>-49.2248505167663097381591796875</LatitudeDegrees>
              <LongitudeDegrees>-73.02130739204585552215576171875</LongitudeDegrees>
            </Position>
            <AltitudeMeters>550.79998779296875</AltitudeMeters>
            <DistanceMeters>1211.5036266375</DistanceMeters>
          </Trackpoint>
          <Trackpoint>
            <Time>2023-01-11T14:34:35.000Z</Time>
            <Position>
              <LatitudeDegrees>-49.22484691254794597625732421875</LatitudeDegrees>
              <LongitudeDegrees>-73.02131996490061283111572265625</LongitudeDegrees>
            </Position>
            <AltitudeMeters>550.5999755859375</AltitudeMeters>
            <DistanceMeters>1212.5047951973</DistanceMeters>
          </Trackpoint>
          <Trackpoint>
            <Time>2023-01-11T14:34:37.000Z</Time>
            <Position>
              <LatitudeDegrees>-49.2248485051095485687255859375</LatitudeDegrees>
              <LongitudeDegrees>-73.0213488824665546417236328125</LongitudeDegrees>
            </Position>
            <AltitudeMeters>551.20001220703125</AltitudeMeters>
            <DistanceMeters>1214.6147306672</DistanceMeters>
          </Trackpoint>
          <Trackpoint>
            <Time>2023-01-11T14:34:48.000Z</Time>
            <Position>
              <LatitudeDegrees>-49.22488429583609104156494140625</LatitudeDegrees>
              <LongitudeDegrees>-73.02152817137539386749267578125</LongitudeDegrees>
            </Position>
            <AltitudeMeters>551.20001220703125</AltitudeMeters>
            <DistanceMeters>1228.2423699399</DistanceMeters>
          </Trackpoint>
          <Trackpoint>
            <Time>2023-01-11T14:34:53.000Z</Time>
            <Position>
              <LatitudeDegrees>-49.22489368356764316558837890625</LatitudeDegrees>
              <LongitudeDegrees>-73.021615259349346160888671875</LongitudeDegrees>
            </Position>
            <AltitudeMeters>551.5999755859375</AltitudeMeters>
            <DistanceMeters>1234.6586085972</DistanceMeters>
          </Trackpoint>
          <Trackpoint>
            <Time>2023-01-11T14:35:00.000Z</Time>
            <Position>
              <LatitudeDegrees>-49.22490357421338558197021484375</LatitudeDegrees>
              <LongitudeDegrees>-73.021739982068538665771484375</LongitudeDegrees>
            </Position>
            <AltitudeMeters>552</AltitudeMeters>
            <DistanceMeters>1243.7910664283</DistanceMeters>
          </Trackpoint>
          <Trackpoint>
            <Time>2023-01-11T14:35:08.000Z</Time>
            <Position>
              <LatitudeDegrees>-49.224921427667140960693359375</LatitudeDegrees>
              <LongitudeDegrees>-73.02188406698405742645263671875</LongitudeDegrees>
            </Position>
            <AltitudeMeters>552.20001220703125</AltitudeMeters>
            <DistanceMeters>1254.4510139878</DistanceMeters>
          </Trackpoint>
          <Trackpoint>
            <Time>2023-01-11T14:35:14.000Z</Time>
            <Position>
              <LatitudeDegrees>-49.224903993308544158935546875</LatitudeDegrees>
              <LongitudeDegrees>-73.02197559736669063568115234375</LongitudeDegrees>
            </Position>
            <AltitudeMeters>553</AltitudeMeters>
            <DistanceMeters>1261.3808008913</DistanceMeters>
          </Trackpoint>
          <Trackpoint>
            <Time>2023-01-11T14:35:16.000Z</Time>
            <Position>
              <LatitudeDegrees>-49.22489619813859462738037109375</LatitudeDegrees>
              <LongitudeDegrees>-73.022005520761013031005859375</LongitudeDegrees>
            </Position>
            <AltitudeMeters>554</AltitudeMeters>
            <DistanceMeters>1263.7220092122</DistanceMeters>
          </Trackpoint>
          <Trackpoint>
            <Time>2023-01-11T14:35:18.000Z</Time>
            <Position>
              <LatitudeDegrees>-49.224884547293186187744140625</LatitudeDegrees>
              <LongitudeDegrees>-73.0220315046608448028564453125</LongitudeDegrees>
            </Position>
            <AltitudeMeters>554.4000244140625</AltitudeMeters>
            <DistanceMeters>1266.0125275845</DistanceMeters>
          </Trackpoint>
          <Trackpoint>
            <Time>2023-01-11T14:35:27.000Z</Time>
            <Position>
              <LatitudeDegrees>-49.22484339214861392974853515625</LatitudeDegrees>
              <LongitudeDegrees>-73.02217089571058750152587890625</LongitudeDegrees>
            </Position>
            <AltitudeMeters>553.4000244140625</AltitudeMeters>
            <DistanceMeters>1277.1322774354</DistanceMeters>
          </Trackpoint>
          <Trackpoint>
            <Time>2023-01-11T14:35:28.000Z</Time>
            <Position>
              <LatitudeDegrees>-49.2248381115496158599853515625</LatitudeDegrees>
              <LongitudeDegrees>-73.02218581549823284149169921875</LongitudeDegrees>
            </Position>
            <AltitudeMeters>553</AltitudeMeters>
            <DistanceMeters>1278.3639644259</DistanceMeters>
          </Trackpoint>
          <Trackpoint>
            <Time>2023-01-11T14:35:36.000Z</Time>
            <Position>
              <LatitudeDegrees>-49.2247931845486164093017578125</LatitudeDegrees>
              <LongitudeDegrees>-73.0223020724952220916748046875</LongitudeDegrees>
            </Position>
            <AltitudeMeters>552</AltitudeMeters>
            <DistanceMeters>1288.1834937562</DistanceMeters>
          </Trackpoint>
          <Trackpoint>
            <Time>2023-01-11T14:35:43.000Z</Time>
            <Position>
              <LatitudeDegrees>-49.22475940547883510589599609375</LatitudeDegrees>
              <LongitudeDegrees>-73.0224100314080715179443359375</LongitudeDegrees>
            </Position>
            <AltitudeMeters>552.4000244140625</AltitudeMeters>
            <DistanceMeters>1296.8855751773</DistanceMeters>
          </Trackpoint>
          <Trackpoint>
            <Time>2023-01-11T14:35:44.000Z</Time>
            <Position>
              <LatitudeDegrees>-49.224757142364978790283203125</LatitudeDegrees>
              <LongitudeDegrees>-73.022424280643463134765625</LongitudeDegrees>
            </Position>
            <AltitudeMeters>552.4000244140625</AltitudeMeters>
            <DistanceMeters>1297.9522474006</DistanceMeters>
          </Trackpoint>
          <Trackpoint>
            <Time>2023-01-11T14:35:45.000Z</Time>
            <Position>
              <LatitudeDegrees>-49.2247526161372661590576171875</LatitudeDegrees>
              <LongitudeDegrees>-73.02243693731725215911865234375</LongitudeDegrees>
            </Position>
            <AltitudeMeters>553</AltitudeMeters>
            <DistanceMeters>1299.0018517671</DistanceMeters>
          </Trackpoint>
          <Trackpoint>
            <Time>2023-01-11T14:35:53.000Z</Time>
            <Position>
              <LatitudeDegrees>-49.2247318290174007415771484375</LatitudeDegrees>
              <LongitudeDegrees>-73.022580184042453765869140625</LongitudeDegrees>
            </Position>
            <AltitudeMeters>551.79998779296875</AltitudeMeters>
            <DistanceMeters>1309.668574</DistanceMeters>
          </Trackpoint>
          <Trackpoint>
            <Time>2023-01-11T14:35:56.000Z</Time>
            <Position>
              <LatitudeDegrees>-49.224717915058135986328125</LatitudeDegrees>
              <LongitudeDegrees>-73.02262569777667522430419921875</LongitudeDegrees>
            </Position>
            <AltitudeMeters>552.20001220703125</AltitudeMeters>
            <DistanceMeters>1313.3218537571</DistanceMeters>
          </Trackpoint>
          <Trackpoint>
            <Time>2023-01-11T14:36:04.000Z</Time>
            <Position>
              <LatitudeDegrees>-49.224668629467487335205078125</LatitudeDegrees>
              <LongitudeDegrees>-73.0227516777813434600830078125</LongitudeDegrees>
            </Position>
            <AltitudeMeters>551.5999755859375</AltitudeMeters>
            <DistanceMeters>1323.9970382859</DistanceMeters>
          </Trackpoint>
          <Trackpoint>
            <Time>2023-01-11T14:36:14.000Z</Time>
            <Position>
              <LatitudeDegrees>-49.224606268107891082763671875</LatitudeDegrees>
              <LongitudeDegrees>-73.02287648431956768035888671875</LongitudeDegrees>
            </Position>
            <AltitudeMeters>552</AltitudeMeters>
            <DistanceMeters>1335.4200240871</DistanceMeters>
          </Trackpoint>
          <Trackpoint>
            <Time>2023-01-11T14:36:20.000Z</Time>
            <Position>
              <LatitudeDegrees>-49.22456980682909488677978515625</LatitudeDegrees>
              <LongitudeDegrees>-73.02294923923909664154052734375</LongitudeDegrees>
            </Position>
            <AltitudeMeters>553.20001220703125</AltitudeMeters>
            <DistanceMeters>1342.0861328607</DistanceMeters>
          </Trackpoint>
          <Trackpoint>
            <Time>2023-01-11T14:36:25.000Z</Time>
            <Position>
              <LatitudeDegrees>-49.2245309986174106597900390625</LatitudeDegrees>
              <LongitudeDegrees>-73.02299986593425273895263671875</LongitudeDegrees>
            </Position>
            <AltitudeMeters>553.20001220703125</AltitudeMeters>
            <DistanceMeters>1347.760747614</DistanceMeters>
          </Trackpoint>
          <Trackpoint>
            <Time>2023-01-11T14:36:29.000Z</Time>
            <Position>
              <LatitudeDegrees>-49.22452555038034915924072265625</LatitudeDegrees>
              <LongitudeDegrees>-73.023043535649776458740234375</LongitudeDegrees>
            </Position>
            <AltitudeMeters>554.20001220703125</AltitudeMeters>
            <DistanceMeters>1350.9916559026</DistanceMeters>
          </Trackpoint>
          <Trackpoint>
            <Time>2023-01-11T14:36:32.000Z</Time>
            <Position>
              <LatitudeDegrees>-49.22451180405914783477783203125</LatitudeDegrees>
              <LongitudeDegrees>-73.0230695195496082305908203125</LongitudeDegrees>
            </Position>
            <AltitudeMeters>554.79998779296875</AltitudeMeters>
            <DistanceMeters>1353.4218143325</DistanceMeters>
          </Trackpoint>
          <Trackpoint>
            <Time>2023-01-11T14:36:36.000Z</Time>
            <Position>
              <LatitudeDegrees>-49.2245041765272617340087890625</LatitudeDegrees>
              <LongitudeDegrees>-73.0230934917926788330078125</LongitudeDegrees>
            </Position>
            <AltitudeMeters>555.5999755859375</AltitudeMeters>
            <DistanceMeters>1355.359986616</DistanceMeters>
          </Trackpoint>
          <Trackpoint>
            <Time>2023-01-11T14:36:40.000Z</Time>
            <Position>
              <LatitudeDegrees>-49.2244864068925380706787109375</LatitudeDegrees>
              <LongitudeDegrees>-73.0231144465506076812744140625</LongitudeDegrees>
            </Position>
            <AltitudeMeters>556.20001220703125</AltitudeMeters>
            <DistanceMeters>1357.8543247386</DistanceMeters>
          </Trackpoint>
          <Trackpoint>
            <Time>2023-01-11T14:36:42.000Z</Time>
            <Position>
              <LatitudeDegrees>-49.2244840599596500396728515625</LatitudeDegrees>
              <LongitudeDegrees>-73.02312810905277729034423828125</LongitudeDegrees>
            </Position>
            <AltitudeMeters>556.79998779296875</AltitudeMeters>
            <DistanceMeters>1358.8777937746</DistanceMeters>
          </Trackpoint>
          <Trackpoint>
            <Time>2023-01-11T14:36:49.000Z</Time>
            <Position>
              <LatitudeDegrees>-49.22446872107684612274169921875</LatitudeDegrees>
              <LongitudeDegrees>-73.02318711765110492706298828125</LongitudeDegrees>
            </Position>
            <AltitudeMeters>556.5999755859375</AltitudeMeters>
            <DistanceMeters>1363.4941755187</DistanceMeters>
          </Trackpoint>
          <Trackpoint>
            <Time>2023-01-11T14:36:55.000Z</Time>
            <Position>
              <LatitudeDegrees>-49.22444659285247325897216796875</LatitudeDegrees>
              <LongitudeDegrees>-73.02322156727313995361328125</LongitudeDegrees>
            </Position>
            <AltitudeMeters>556.5999755859375</AltitudeMeters>
            <DistanceMeters>1367.0063094032</DistanceMeters>
          </Trackpoint>
          <Trackpoint>
            <Time>2023-01-11T14:37:03.000Z</Time>
            <Position>
              <LatitudeDegrees>-49.22440770082175731658935546875</LatitudeDegrees>
              <LongitudeDegrees>-73.02332751452922821044921875</LongitudeDegrees>
            </Position>
            <AltitudeMeters>556</AltitudeMeters>
            <DistanceMeters>1375.8412389887</DistanceMeters>
          </Trackpoint>
          <Trackpoint>
            <Time>2023-01-11T14:37:06.000Z</Time>
            <Position>
              <LatitudeDegrees>-49.224403761327266693115234375</LatitudeDegrees>
              <LongitudeDegrees>-73.023388199508190155029296875</LongitudeDegrees>
            </Position>
            <AltitudeMeters>555.5999755859375</AltitudeMeters>
            <DistanceMeters>1380.2740085905</DistanceMeters>
          </Trackpoint>
          <Trackpoint>
            <Time>2023-01-11T14:37:11.000Z</Time>
            <Position>
              <LatitudeDegrees>-49.22439211048185825347900390625</LatitudeDegrees>
              <LongitudeDegrees>-73.023467995226383209228515625</LongitudeDegrees>
            </Position>
            <AltitudeMeters>555.5999755859375</AltitudeMeters>
            <DistanceMeters>1386.2183074663</DistanceMeters>
          </Trackpoint>
          <Trackpoint>
            <Time>2023-01-11T14:37:19.000Z</Time>
            <Position>
              <LatitudeDegrees>-49.2243546433746814727783203125</LatitudeDegrees>
              <LongitudeDegrees>-73.0235912092030048370361328125</LongitudeDegrees>
            </Position>
            <AltitudeMeters>555.20001220703125</AltitudeMeters>
            <DistanceMeters>1396.0983442253</DistanceMeters>
          </Trackpoint>
          <Trackpoint>
            <Time>2023-01-11T14:37:22.000Z</Time>
            <Position>
              <LatitudeDegrees>-49.2243383824825286865234375</LatitudeDegrees>
              <LongitudeDegrees>-73.02362968213856220245361328125</LongitudeDegrees>
            </Position>
            <AltitudeMeters>556.20001220703125</AltitudeMeters>
            <DistanceMeters>1399.4297049007</DistanceMeters>
          </Trackpoint>
          <Trackpoint>
            <Time>2023-01-11T14:37:23.000Z</Time>
            <Position>
              <LatitudeDegrees>-49.22433109022676944732666015625</LatitudeDegrees>
              <LongitudeDegrees>-73.023643679916858673095703125</LongitudeDegrees>
            </Position>
            <AltitudeMeters>556.79998779296875</AltitudeMeters>
            <DistanceMeters>1400.7291756757</DistanceMeters>
          </Trackpoint>
          <Trackpoint>
            <Time>2023-01-11T14:37:27.000Z</Time>
            <Position>
              <LatitudeDegrees>-49.224313236773014068603515625</LatitudeDegrees>
              <LongitudeDegrees>-73.02367343567311763763427734375</LongitudeDegrees>
            </Position>
            <AltitudeMeters>557</AltitudeMeters>
            <DistanceMeters>1403.6657932885</DistanceMeters>
          </Trackpoint>
          <Trackpoint>
            <Time>2023-01-11T14:37:30.000Z</Time>
            <Position>
              <LatitudeDegrees>-49.22431365586817264556884765625</LatitudeDegrees>
              <LongitudeDegrees>-73.0236723460257053375244140625</LongitudeDegrees>
            </Position>
            <AltitudeMeters>556.5999755859375</AltitudeMeters>
            <DistanceMeters>1403.8001813567</DistanceMeters>
          </Trackpoint>
          <Trackpoint>
            <Time>2023-01-11T14:37:39.000Z</Time>
            <Position>
              <LatitudeDegrees>-49.224309884011745452880859375</LatitudeDegrees>
              <LongitudeDegrees>-73.023670502007007598876953125</LongitudeDegrees>
            </Position>
            <AltitudeMeters>556.5999755859375</AltitudeMeters>
            <DistanceMeters>1404.2458961554</DistanceMeters>
          </Trackpoint>
          <Trackpoint>
            <Time>2023-01-11T14:37:50.000Z</Time>
            <Position>
              <LatitudeDegrees>-49.2242899350821971893310546875</LatitudeDegrees>
              <LongitudeDegrees>-73.02372406236827373504638671875</LongitudeDegrees>
            </Position>
            <AltitudeMeters>557.20001220703125</AltitudeMeters>
            <DistanceMeters>1408.7293044755</DistanceMeters>
          </Trackpoint>
          <Trackpoint>
            <Time>2023-01-11T14:37:54.000Z</Time>
            <Position>
              <LatitudeDegrees>-49.22426051460206508636474609375</LatitudeDegrees>
              <LongitudeDegrees>-73.023788519203662872314453125</LongitudeDegrees>
            </Position>
            <AltitudeMeters>558.4000244140625</AltitudeMeters>
            <DistanceMeters>1414.4451435717</DistanceMeters>
          </Trackpoint>
          <Trackpoint>
            <Time>2023-01-11T14:37:56.000Z</Time>
            <Position>
              <LatitudeDegrees>-49.2242466844618320465087890625</LatitudeDegrees>
              <LongitudeDegrees>-73.02381928078830242156982421875</LongitudeDegrees>
            </Position>
            <AltitudeMeters>561.4000244140625</AltitudeMeters>
            <DistanceMeters>1417.1596494896</DistanceMeters>
          </Trackpoint>
          <Trackpoint>
            <Time>2023-01-11T14:37:58.000Z</Time>
            <Position>
              <LatitudeDegrees>-49.22423721291124820709228515625</LatitudeDegrees>
              <LongitudeDegrees>-73.02383939735591411590576171875</LongitudeDegrees>
            </Position>
            <AltitudeMeters>561.4000244140625</AltitudeMeters>
            <DistanceMeters>1418.9626546254</DistanceMeters>
          </Trackpoint>
          <Trackpoint>
            <Time>2023-01-11T14:38:06.000Z</Time>
            <Position>
              <LatitudeDegrees>-49.2241863347589969635009765625</LatitudeDegrees>
              <LongitudeDegrees>-73.02391533739864826202392578125</LongitudeDegrees>
            </Position>
            <AltitudeMeters>559</AltitudeMeters>
            <DistanceMeters>1426.8710242078</DistanceMeters>
          </Trackpoint>
          <Trackpoint>
            <Time>2023-01-11T14:38:07.000Z</Time>
            <Position>
              <LatitudeDegrees>-49.22417904250323772430419921875</LatitudeDegrees>
              <LongitudeDegrees>-73.02392162382602691650390625</LongitudeDegrees>
            </Position>
            <AltitudeMeters>558.4000244140625</AltitudeMeters>
            <DistanceMeters>1427.8020920563</DistanceMeters>
          </Trackpoint>
          <Trackpoint>
            <Time>2023-01-11T14:38:08.000Z</Time>
            <Position>
              <LatitudeDegrees>-49.2241747677326202392578125</LatitudeDegrees>
              <LongitudeDegrees>-73.02392137236893177032470703125</LongitudeDegrees>
            </Position>
            <AltitudeMeters>558</AltitudeMeters>
            <DistanceMeters>1428.2676259806</DistanceMeters>
          </Trackpoint>
          <Trackpoint>
            <Time>2023-01-11T14:38:11.000Z</Time>
            <Position>
              <LatitudeDegrees>-49.22416864894330501556396484375</LatitudeDegrees>
              <LongitudeDegrees>-73.02391651086509227752685546875</LongitudeDegrees>
            </Position>
            <AltitudeMeters>557.79998779296875</AltitudeMeters>
            <DistanceMeters>1429.0278396956</DistanceMeters>
          </Trackpoint>
          <Trackpoint>
            <Time>2023-01-11T14:38:13.000Z</Time>
            <Position>
              <LatitudeDegrees>-49.224167056381702423095703125</LatitudeDegrees>
              <LongitudeDegrees>-73.0239140801131725311279296875</LongitudeDegrees>
            </Position>
            <AltitudeMeters>557.4000244140625</AltitudeMeters>
            <DistanceMeters>1429.2792567497</DistanceMeters>
          </Trackpoint>
          <Trackpoint>
            <Time>2023-01-11T14:38:23.000Z</Time>
            <Position>
              <LatitudeDegrees>-49.224161691963672637939453125</LatitudeDegrees>
              <LongitudeDegrees>-73.0238885991275310516357421875</LongitudeDegrees>
            </Position>
            <AltitudeMeters>557.5999755859375</AltitudeMeters>
            <DistanceMeters>1431.2267248769</DistanceMeters>
          </Trackpoint>
          <Trackpoint>
            <Time>2023-01-11T14:38:25.000Z</Time>
            <Position>
              <LatitudeDegrees>-49.22416202723979949951171875</LatitudeDegrees>
              <LongitudeDegrees>-73.02388834767043590545654296875</LongitudeDegrees>
            </Position>
            <AltitudeMeters>556.20001220703125</AltitudeMeters>
            <DistanceMeters>1431.2267248769</DistanceMeters>
          </Trackpoint>
          <Trackpoint>
            <Time>2023-01-11T14:38:28.000Z</Time>
            <Position>
              <LatitudeDegrees>-49.2241615243256092071533203125</LatitudeDegrees>
              <LongitudeDegrees>-73.0238892696797847747802734375</LongitudeDegrees>
            </Position>
            <AltitudeMeters>557.79998779296875</AltitudeMeters>
            <DistanceMeters>1431.2267248769</DistanceMeters>
          </Trackpoint>
          <Trackpoint>
            <Time>2023-01-11T14:38:37.000Z</Time>
            <Position>
              <LatitudeDegrees>-49.2241615243256092071533203125</LatitudeDegrees>
              <LongitudeDegrees>-73.0238892696797847747802734375</LongitudeDegrees>
            </Position>
            <AltitudeMeters>557</AltitudeMeters>
            <DistanceMeters>1431.2267248769</DistanceMeters>
          </Trackpoint>
          <Trackpoint>
            <Time>2023-01-11T14:38:42.000Z</Time>
            <Position>
              <LatitudeDegrees>-49.2241615243256092071533203125</LatitudeDegrees>
              <LongitudeDegrees>-73.0238892696797847747802734375</LongitudeDegrees>
            </Position>
            <AltitudeMeters>557</AltitudeMeters>
            <DistanceMeters>1431.2267248769</DistanceMeters>
          </Trackpoint>
          <Trackpoint>
            <Time>2023-01-11T14:38:47.000Z</Time>
            <Position>
              <LatitudeDegrees>-49.22416127286851406097412109375</LatitudeDegrees>
              <LongitudeDegrees>-73.0238892696797847747802734375</LongitudeDegrees>
            </Position>
            <AltitudeMeters>557.5999755859375</AltitudeMeters>
            <DistanceMeters>1431.2267248769</DistanceMeters>
          </Trackpoint>
          <Trackpoint>
            <Time>2023-01-11T14:38:50.000Z</Time>
            <Position>
              <LatitudeDegrees>-49.22414786182343959808349609375</LatitudeDegrees>
              <LongitudeDegrees>-73.02392455749213695526123046875</LongitudeDegrees>
            </Position>
            <AltitudeMeters>555</AltitudeMeters>
            <DistanceMeters>1434.1954543374</DistanceMeters>
          </Trackpoint>
          <Trackpoint>
            <Time>2023-01-11T14:38:52.000Z</Time>
            <Position>
              <LatitudeDegrees>-49.2241290025413036346435546875</LatitudeDegrees>
              <LongitudeDegrees>-73.0239777825772762298583984375</LongitudeDegrees>
            </Position>
            <AltitudeMeters>554.20001220703125</AltitudeMeters>
            <DistanceMeters>1438.5975611112</DistanceMeters>
          </Trackpoint>
          <Trackpoint>
            <Time>2023-01-11T14:38:57.000Z</Time>
            <Position>
              <LatitudeDegrees>-49.2240870930254459381103515625</LatitudeDegrees>
              <LongitudeDegrees>-73.02408121526241302490234375</LongitudeDegrees>
            </Position>
            <AltitudeMeters>555.20001220703125</AltitudeMeters>
            <DistanceMeters>1447.4457678657</DistanceMeters>
          </Trackpoint>
          <Trackpoint>
            <Time>2023-01-11T14:39:01.000Z</Time>
            <Position>
              <LatitudeDegrees>-49.224075190722942352294921875</LatitudeDegrees>
              <LongitudeDegrees>-73.02414290606975555419921875</LongitudeDegrees>
            </Position>
            <AltitudeMeters>555.4000244140625</AltitudeMeters>
            <DistanceMeters>1452.1214298585</DistanceMeters>
          </Trackpoint>
          <Trackpoint>
            <Time>2023-01-11T14:39:03.000Z</Time>
            <Position>
              <LatitudeDegrees>-49.22406856901943683624267578125</LatitudeDegrees>
              <LongitudeDegrees>-73.024184145033359527587890625</LongitudeDegrees>
            </Position>
            <AltitudeMeters>554</AltitudeMeters>
            <DistanceMeters>1455.2094325665</DistanceMeters>
          </Trackpoint>
          <Trackpoint>
            <Time>2023-01-11T14:39:06.000Z</Time>
            <Position>
              <LatitudeDegrees>-49.22405716963112354278564453125</LatitudeDegrees>
              <LongitudeDegrees>-73.0242372862994670867919921875</LongitudeDegrees>
            </Position>
            <AltitudeMeters>553.20001220703125</AltitudeMeters>
            <DistanceMeters>1459.2756433295</DistanceMeters>
          </Trackpoint>
          <Trackpoint>
            <Time>2023-01-11T14:39:10.000Z</Time>
            <Position>
              <LatitudeDegrees>-49.22404107637703418731689453125</LatitudeDegrees>
              <LongitudeDegrees>-73.02429721690714359283447265625</LongitudeDegrees>
            </Position>
            <AltitudeMeters>553.79998779296875</AltitudeMeters>
            <DistanceMeters>1463.9859403289</DistanceMeters>
          </Trackpoint>
          <Trackpoint>
            <Time>2023-01-11T14:39:13.000Z</Time>
            <Position>
              <LatitudeDegrees>-49.224043674767017364501953125</LatitudeDegrees>
              <LongitudeDegrees>-73.02433761768043041229248046875</LongitudeDegrees>
            </Position>
            <AltitudeMeters>554.20001220703125</AltitudeMeters>
            <DistanceMeters>1466.9378928638</DistanceMeters>
          </Trackpoint>
          <Trackpoint>
            <Time>2023-01-11T14:39:16.000Z</Time>
            <Position>
              <LatitudeDegrees>-49.22405582852661609649658203125</LatitudeDegrees>
              <LongitudeDegrees>-73.02437919192016124725341796875</LongitudeDegrees>
            </Position>
            <AltitudeMeters>554.5999755859375</AltitudeMeters>
            <DistanceMeters>1470.2488614234</DistanceMeters>
          </Trackpoint>
          <Trackpoint>
            <Time>2023-01-11T14:39:19.000Z</Time>
            <Position>
              <LatitudeDegrees>-49.2240522243082523345947265625</LatitudeDegrees>
              <LongitudeDegrees>-73.0244250409305095672607421875</LongitudeDegrees>
            </Position>
            <AltitudeMeters>554.79998779296875</AltitudeMeters>
            <DistanceMeters>1473.6045290658</DistanceMeters>
          </Trackpoint>
          <Trackpoint>
            <Time>2023-01-11T14:39:21.000Z</Time>
            <Position>
              <LatitudeDegrees>-49.22404208220541477203369140625</LatitudeDegrees>
              <LongitudeDegrees>-73.02444507367908954620361328125</LongitudeDegrees>
            </Position>
            <AltitudeMeters>555.4000244140625</AltitudeMeters>
            <DistanceMeters>1475.4471654224</DistanceMeters>
          </Trackpoint>
          <Trackpoint>
            <Time>2023-01-11T14:39:23.000Z</Time>
            <Position>
              <LatitudeDegrees>-49.22403059899806976318359375</LatitudeDegrees>
              <LongitudeDegrees>-73.02446451969444751739501953125</LongitudeDegrees>
            </Position>
            <AltitudeMeters>556.20001220703125</AltitudeMeters>
            <DistanceMeters>1477.3524451212</DistanceMeters>
          </Trackpoint>
          <Trackpoint>
            <Time>2023-01-11T14:39:25.000Z</Time>
            <Position>
              <LatitudeDegrees>-49.22401844523847103118896484375</LatitudeDegrees>
              <LongitudeDegrees>-73.024478852748870849609375</LongitudeDegrees>
            </Position>
            <AltitudeMeters>556.4000244140625</AltitudeMeters>
            <DistanceMeters>1479.0576385457</DistanceMeters>
          </Trackpoint>
          <Trackpoint>
            <Time>2023-01-11T14:39:29.000Z</Time>
            <Position>
              <LatitudeDegrees>-49.22400511801242828369140625</LatitudeDegrees>
              <LongitudeDegrees>-73.0245031602680683135986328125</LongitudeDegrees>
            </Position>
            <AltitudeMeters>556.5999755859375</AltitudeMeters>
            <DistanceMeters>1481.3658294178</DistanceMeters>
          </Trackpoint>
          <Trackpoint>
            <Time>2023-01-11T14:39:31.000Z</Time>
            <Position>
              <LatitudeDegrees>-49.22400377690792083740234375</LatitudeDegrees>
              <LongitudeDegrees>-73.02449922077357769012451171875</LongitudeDegrees>
            </Position>
            <AltitudeMeters>556.5999755859375</AltitudeMeters>
            <DistanceMeters>1481.6663302737</DistanceMeters>
          </Trackpoint>
          <Trackpoint>
            <Time>2023-01-11T14:39:39.000Z</Time>
            <Position>
              <LatitudeDegrees>-49.223955161869525909423828125</LatitudeDegrees>
              <LongitudeDegrees>-73.02454766817390918731689453125</LongitudeDegrees>
            </Position>
            <AltitudeMeters>556.79998779296875</AltitudeMeters>
            <DistanceMeters>1488.1218552554</DistanceMeters>
          </Trackpoint>
          <Trackpoint>
            <Time>2023-01-11T14:39:46.000Z</Time>
            <Position>
              <LatitudeDegrees>-49.2239385657012462615966796875</LatitudeDegrees>
              <LongitudeDegrees>-73.02463651634752750396728515625</LongitudeDegrees>
            </Position>
            <AltitudeMeters>557.5999755859375</AltitudeMeters>
            <DistanceMeters>1494.8399146528</DistanceMeters>
          </Trackpoint>
          <Trackpoint>
            <Time>2023-01-11T14:39:47.000Z</Time>
            <Position>
              <LatitudeDegrees>-49.223943762481212615966796875</LatitudeDegrees>
              <LongitudeDegrees>-73.0246473290026187896728515625</LongitudeDegrees>
            </Position>
            <AltitudeMeters>557.5999755859375</AltitudeMeters>
            <DistanceMeters>1495.8090007945</DistanceMeters>
          </Trackpoint>
          <Trackpoint>
            <Time>2023-01-11T14:39:54.000Z</Time>
            <Position>
              <LatitudeDegrees>-49.22397787682712078094482421875</LatitudeDegrees>
              <LongitudeDegrees>-73.024717234075069427490234375</LongitudeDegrees>
            </Position>
            <AltitudeMeters>557.20001220703125</AltitudeMeters>
            <DistanceMeters>1502.1523453882</DistanceMeters>
          </Trackpoint>
          <Trackpoint>
            <Time>2023-01-11T14:40:01.000Z</Time>
            <Position>
              <LatitudeDegrees>-49.22397427260875701904296875</LatitudeDegrees>
              <LongitudeDegrees>-73.024706505239009857177734375</LongitudeDegrees>
            </Position>
            <AltitudeMeters>557.4000244140625</AltitudeMeters>
            <DistanceMeters>1503.0232796115</DistanceMeters>
          </Trackpoint>
          <Trackpoint>
            <Time>2023-01-11T14:40:06.000Z</Time>
            <Position>
              <LatitudeDegrees>-49.22397963702678680419921875</LatitudeDegrees>
              <LongitudeDegrees>-73.02470843307673931121826171875</LongitudeDegrees>
            </Position>
            <AltitudeMeters>556.4000244140625</AltitudeMeters>
            <DistanceMeters>1503.6317474695</DistanceMeters>
          </Trackpoint>
          <Trackpoint>
            <Time>2023-01-11T14:40:10.000Z</Time>
            <Position>
              <LatitudeDegrees>-49.2239747755229473114013671875</LatitudeDegrees>
              <LongitudeDegrees>-73.0247026495635509490966796875</LongitudeDegrees>
            </Position>
            <AltitudeMeters>557.5999755859375</AltitudeMeters>
            <DistanceMeters>1504.3169948519</DistanceMeters>
          </Trackpoint>
          <Trackpoint>
            <Time>2023-01-11T14:40:19.000Z</Time>
            <Position>
              <LatitudeDegrees>-49.22395977191627025604248046875</LatitudeDegrees>
              <LongitudeDegrees>-73.02472067065536975860595703125</LongitudeDegrees>
            </Position>
            <AltitudeMeters>558</AltitudeMeters>
            <DistanceMeters>1506.441856782</DistanceMeters>
          </Trackpoint>
          <Trackpoint>
            <Time>2023-01-11T14:40:20.000Z</Time>
            <Position>
              <LatitudeDegrees>-49.22395474277436733245849609375</LatitudeDegrees>
              <LongitudeDegrees>-73.02474045194685459136962890625</LongitudeDegrees>
            </Position>
            <AltitudeMeters>558.4000244140625</AltitudeMeters>
            <DistanceMeters>1507.985858136</DistanceMeters>
          </Trackpoint>
          <Trackpoint>
            <Time>2023-01-11T14:40:22.000Z</Time>
            <Position>
              <LatitudeDegrees>-49.22395013272762298583984375</LatitudeDegrees>
              <LongitudeDegrees>-73.02478588186204433441162109375</LongitudeDegrees>
            </Position>
            <AltitudeMeters>558</AltitudeMeters>
            <DistanceMeters>1511.3266925355</DistanceMeters>
          </Trackpoint>
          <Trackpoint>
            <Time>2023-01-11T14:40:27.000Z</Time>
            <Position>
              <LatitudeDegrees>-49.223943091928958892822265625</LatitudeDegrees>
              <LongitudeDegrees>-73.02489124238491058349609375</LongitudeDegrees>
            </Position>
            <AltitudeMeters>557.4000244140625</AltitudeMeters>
            <DistanceMeters>1519.0250294794</DistanceMeters>
          </Trackpoint>
          <Trackpoint>
            <Time>2023-01-11T14:40:31.000Z</Time>
            <Position>
              <LatitudeDegrees>-49.2239409126341342926025390625</LatitudeDegrees>
              <LongitudeDegrees>-73.0249611474573612213134765625</LongitudeDegrees>
            </Position>
            <AltitudeMeters>557.4000244140625</AltitudeMeters>
            <DistanceMeters>1524.1122879836</DistanceMeters>
          </Trackpoint>
          <Trackpoint>
            <Time>2023-01-11T14:40:37.000Z</Time>
            <Position>
              <LatitudeDegrees>-49.22394485212862491607666015625</LatitudeDegrees>
              <LongitudeDegrees>-73.02503063343465328216552734375</LongitudeDegrees>
            </Position>
            <AltitudeMeters>557.4000244140625</AltitudeMeters>
            <DistanceMeters>1529.1817650335</DistanceMeters>
          </Trackpoint>
          <Trackpoint>
            <Time>2023-01-11T14:40:44.000Z</Time>
            <Position>
              <LatitudeDegrees>-49.223918616771697998046875</LatitudeDegrees>
              <LongitudeDegrees>-73.02510925568640232086181640625</LongitudeDegrees>
            </Position>
            <AltitudeMeters>558.5999755859375</AltitudeMeters>
            <DistanceMeters>1535.5987073415</DistanceMeters>
          </Trackpoint>
          <Trackpoint>
            <Time>2023-01-11T14:40:52.000Z</Time>
            <Position>
              <LatitudeDegrees>-49.22391660511493682861328125</LatitudeDegrees>
              <LongitudeDegrees>-73.02519944496452808380126953125</LongitudeDegrees>
            </Position>
            <AltitudeMeters>558.79998779296875</AltitudeMeters>
            <DistanceMeters>1542.1583044522</DistanceMeters>
          </Trackpoint>
          <Trackpoint>
            <Time>2023-01-11T14:40:54.000Z</Time>
            <Position>
              <LatitudeDegrees>-49.22392255626618862152099609375</LatitudeDegrees>
              <LongitudeDegrees>-73.02523079328238964080810546875</LongitudeDegrees>
            </Position>
            <AltitudeMeters>558.79998779296875</AltitudeMeters>
            <DistanceMeters>1544.5301681972</DistanceMeters>
          </Trackpoint>
          <Trackpoint>
            <Time>2023-01-11T14:40:55.000Z</Time>
            <Position>
              <LatitudeDegrees>-49.22392708249390125274658203125</LatitudeDegrees>
              <LongitudeDegrees>-73.025242947041988372802734375</LongitudeDegrees>
            </Position>
            <AltitudeMeters>558.5999755859375</AltitudeMeters>
            <DistanceMeters>1545.5447758626</DistanceMeters>
          </Trackpoint>
          <Trackpoint>
            <Time>2023-01-11T14:40:59.000Z</Time>
            <Position>
              <LatitudeDegrees>-49.22392867505550384521484375</LatitudeDegrees>
              <LongitudeDegrees>-73.0252902209758758544921875</LongitudeDegrees>
            </Position>
            <AltitudeMeters>558.5999755859375</AltitudeMeters>
            <DistanceMeters>1548.9841653638</DistanceMeters>
          </Trackpoint>
          <Trackpoint>
            <Time>2023-01-11T14:41:01.000Z</Time>
            <Position>
              <LatitudeDegrees>-49.22392590902745723724365234375</LatitudeDegrees>
              <LongitudeDegrees>-73.02532835863530635833740234375</LongitudeDegrees>
            </Position>
            <AltitudeMeters>558.4000244140625</AltitudeMeters>
            <DistanceMeters>1551.774134162</DistanceMeters>
          </Trackpoint>
          <Trackpoint>
            <Time>2023-01-11T14:41:08.000Z</Time>
            <Position>
              <LatitudeDegrees>-49.22391668893396854400634765625</LatitudeDegrees>
              <LongitudeDegrees>-73.02542391233146190643310546875</LongitudeDegrees>
            </Position>
            <AltitudeMeters>557.5999755859375</AltitudeMeters>
            <DistanceMeters>1558.79518731</DistanceMeters>
          </Trackpoint>
          <Trackpoint>
            <Time>2023-01-11T14:41:09.000Z</Time>
            <Position>
              <LatitudeDegrees>-49.223913252353668212890625</LatitudeDegrees>
              <LongitudeDegrees>-73.0254362337291240692138671875</LongitudeDegrees>
            </Position>
            <AltitudeMeters>557.5999755859375</AltitudeMeters>
            <DistanceMeters>1559.7642734518</DistanceMeters>
          </Trackpoint>
          <Trackpoint>
            <Time>2023-01-11T14:41:13.000Z</Time>
            <Position>
              <LatitudeDegrees>-49.223894812166690826416015625</LatitudeDegrees>
              <LongitudeDegrees>-73.02547638304531574249267578125</LongitudeDegrees>
            </Position>
            <AltitudeMeters>557.5999755859375</AltitudeMeters>
            <DistanceMeters>1563.3325234131</DistanceMeters>
          </Trackpoint>
          <Trackpoint>
            <Time>2023-01-11T14:41:15.000Z</Time>
            <Position>
              <LatitudeDegrees>-49.22389590181410312652587890625</LatitudeDegrees>
              <LongitudeDegrees>-73.0255066417157649993896484375</LongitudeDegrees>
            </Position>
            <AltitudeMeters>558</AltitudeMeters>
            <DistanceMeters>1565.5346022151</DistanceMeters>
          </Trackpoint>
          <Trackpoint>
            <Time>2023-01-11T14:41:17.000Z</Time>
            <Position>
              <LatitudeDegrees>-49.22389925457537174224853515625</LatitudeDegrees>
              <LongitudeDegrees>-73.02554008550941944122314453125</LongitudeDegrees>
            </Position>
            <AltitudeMeters>558.20001220703125</AltitudeMeters>
            <DistanceMeters>1567.9943077295</DistanceMeters>
          </Trackpoint>
          <Trackpoint>
            <Time>2023-01-11T14:41:23.000Z</Time>
            <Position>
              <LatitudeDegrees>-49.22390495426952838897705078125</LatitudeDegrees>
              <LongitudeDegrees>-73.0256300233304500579833984375</LongitudeDegrees>
            </Position>
            <AltitudeMeters>559</AltitudeMeters>
            <DistanceMeters>1574.5628467793</DistanceMeters>
          </Trackpoint>
          <Trackpoint>
            <Time>2023-01-11T14:41:24.000Z</Time>
            <Position>
              <LatitudeDegrees>-49.223905541002750396728515625</LatitudeDegrees>
              <LongitudeDegrees>-73.025641925632953643798828125</LongitudeDegrees>
            </Position>
            <AltitudeMeters>559.4000244140625</AltitudeMeters>
            <DistanceMeters>1575.4233502763</DistanceMeters>
          </Trackpoint>
          <Trackpoint>
            <Time>2023-01-11T14:41:26.000Z</Time>
            <Position>
              <LatitudeDegrees>-49.22389707528054714202880859375</LatitudeDegrees>
              <LongitudeDegrees>-73.02566095255315303802490234375</LongitudeDegrees>
            </Position>
            <AltitudeMeters>560.4000244140625</AltitudeMeters>
            <DistanceMeters>1577.0964682332</DistanceMeters>
          </Trackpoint>
          <Trackpoint>
            <Time>2023-01-11T14:41:34.000Z</Time>
            <Position>
              <LatitudeDegrees>-49.223888106644153594970703125</LatitudeDegrees>
              <LongitudeDegrees>-73.02575893700122833251953125</LongitudeDegrees>
            </Position>
            <AltitudeMeters>559.79998779296875</AltitudeMeters>
            <DistanceMeters>1584.2890552468</DistanceMeters>
          </Trackpoint>
          <Trackpoint>
            <Time>2023-01-11T14:41:37.000Z</Time>
            <Position>
              <LatitudeDegrees>-49.22388014383614063262939453125</LatitudeDegrees>
              <LongitudeDegrees>-73.02579858340322971343994140625</LongitudeDegrees>
            </Position>
            <AltitudeMeters>559.20001220703125</AltitudeMeters>
            <DistanceMeters>1587.3045629949</DistanceMeters>
          </Trackpoint>
          <Trackpoint>
            <Time>2023-01-11T14:41:42.000Z</Time>
            <Position>
              <LatitudeDegrees>-49.22386405058205127716064453125</LatitudeDegrees>
              <LongitudeDegrees>-73.02586245350539684295654296875</LongitudeDegrees>
            </Position>
            <AltitudeMeters>559.4000244140625</AltitudeMeters>
            <DistanceMeters>1592.2823667036</DistanceMeters>
          </Trackpoint>
          <Trackpoint>
            <Time>2023-01-11T14:41:51.000Z</Time>
            <Position>
              <LatitudeDegrees>-49.2238247394561767578125</LatitudeDegrees>
              <LongitudeDegrees>-73.02598549984395503997802734375</LongitudeDegrees>
            </Position>
            <AltitudeMeters>558.4000244140625</AltitudeMeters>
            <DistanceMeters>1602.2397880241</DistanceMeters>
          </Trackpoint>
          <Trackpoint>
            <Time>2023-01-11T14:41:59.000Z</Time>
            <Position>
              <LatitudeDegrees>-49.22379724681377410888671875</LatitudeDegrees>
              <LongitudeDegrees>-73.0260752700269222259521484375</LongitudeDegrees>
            </Position>
            <AltitudeMeters>559</AltitudeMeters>
            <DistanceMeters>1609.447424931</DistanceMeters>
          </Trackpoint>
          <Trackpoint>
            <Time>2023-01-11T14:42:10.000Z</Time>
            <Position>
              <LatitudeDegrees>-49.22380655072629451751708984375</LatitudeDegrees>
              <LongitudeDegrees>-73.02617895416915416717529296875</LongitudeDegrees>
            </Position>
            <AltitudeMeters>558.79998779296875</AltitudeMeters>
            <DistanceMeters>1617.0554989321</DistanceMeters>
          </Trackpoint>
          <Trackpoint>
            <Time>2023-01-11T14:42:11.000Z</Time>
            <Position>
              <LatitudeDegrees>-49.2238114960491657257080078125</LatitudeDegrees>
              <LongitudeDegrees>-73.02619152702391147613525390625</LongitudeDegrees>
            </Position>
            <AltitudeMeters>558.79998779296875</AltitudeMeters>
            <DistanceMeters>1618.1221711554</DistanceMeters>
          </Trackpoint>
          <Trackpoint>
            <Time>2023-01-11T14:42:13.000Z</Time>
            <Position>
              <LatitudeDegrees>-49.2238233983516693115234375</LatitudeDegrees>
              <LongitudeDegrees>-73.02619018591940402984619140625</LongitudeDegrees>
            </Position>
            <AltitudeMeters>558.79998779296875</AltitudeMeters>
            <DistanceMeters>1619.4491470054</DistanceMeters>
          </Trackpoint>
          <Trackpoint>
            <Time>2023-01-11T14:42:18.000Z</Time>
            <Position>
              <LatitudeDegrees>-49.22382599674165248870849609375</LatitudeDegrees>
              <LongitudeDegrees>-73.02620418369770050048828125</LongitudeDegrees>
            </Position>
            <AltitudeMeters>558.20001220703125</AltitudeMeters>
            <DistanceMeters>1620.5030442502</DistanceMeters>
          </Trackpoint>
          <Trackpoint>
            <Time>2023-01-11T14:42:25.000Z</Time>
            <Position>
              <LatitudeDegrees>-49.22384359873831272125244140625</LatitudeDegrees>
              <LongitudeDegrees>-73.02628221921622753143310546875</LongitudeDegrees>
            </Position>
            <AltitudeMeters>558.79998779296875</AltitudeMeters>
            <DistanceMeters>1626.5040395726</DistanceMeters>
          </Trackpoint>
          <Trackpoint>
            <Time>2023-01-11T14:42:26.000Z</Time>
            <Position>
              <LatitudeDegrees>-49.223843179643154144287109375</LatitudeDegrees>
              <LongitudeDegrees>-73.02629479207098484039306640625</LongitudeDegrees>
            </Position>
            <AltitudeMeters>559.4000244140625</AltitudeMeters>
            <DistanceMeters>1627.4155037972</DistanceMeters>
          </Trackpoint>
          <Trackpoint>
            <Time>2023-01-11T14:42:34.000Z</Time>
            <Position>
              <LatitudeDegrees>-49.22382566146552562713623046875</LatitudeDegrees>
              <LongitudeDegrees>-73.0263894237577915191650390625</LongitudeDegrees>
            </Position>
            <AltitudeMeters>559</AltitudeMeters>
            <DistanceMeters>1634.5646458907</DistanceMeters>
          </Trackpoint>
          <Trackpoint>
            <Time>2023-01-11T14:42:45.000Z</Time>
            <Position>
              <LatitudeDegrees>-49.223823063075542449951171875</LatitudeDegrees>
              <LongitudeDegrees>-73.02654490806162357330322265625</LongitudeDegrees>
            </Position>
            <AltitudeMeters>559.4000244140625</AltitudeMeters>
            <DistanceMeters>1645.8708283649</DistanceMeters>
          </Trackpoint>
          <Trackpoint>
            <Time>2023-01-11T14:42:46.000Z</Time>
            <Position>
              <LatitudeDegrees>-49.223827421665191650390625</LatitudeDegrees>
              <LongitudeDegrees>-73.02655278705060482025146484375</LongitudeDegrees>
            </Position>
            <AltitudeMeters>559.4000244140625</AltitudeMeters>
            <DistanceMeters>1646.6250795273</DistanceMeters>
          </Trackpoint>
          <Trackpoint>
            <Time>2023-01-11T14:42:47.000Z</Time>
            <Position>
              <LatitudeDegrees>-49.22382934950292110443115234375</LatitudeDegrees>
              <LongitudeDegrees>-73.026563934981822967529296875</LongitudeDegrees>
            </Position>
            <AltitudeMeters>559.4000244140625</AltitudeMeters>
            <DistanceMeters>1647.4643327446</DistanceMeters>
          </Trackpoint>
          <Trackpoint>
            <Time>2023-01-11T14:42:48.000Z</Time>
            <Position>
              <LatitudeDegrees>-49.22382867895066738128662109375</LatitudeDegrees>
              <LongitudeDegrees>-73.02657776512205600738525390625</LongitudeDegrees>
            </Position>
            <AltitudeMeters>559.79998779296875</AltitudeMeters>
            <DistanceMeters>1648.4744805744</DistanceMeters>
          </Trackpoint>
          <Trackpoint>
            <Time>2023-01-11T14:42:53.000Z</Time>
            <Position>
              <LatitudeDegrees>-49.22383345663547515869140625</LatitudeDegrees>
              <LongitudeDegrees>-73.0266539566218852996826171875</LongitudeDegrees>
            </Position>
            <AltitudeMeters>560</AltitudeMeters>
            <DistanceMeters>1654.0390229749</DistanceMeters>
          </Trackpoint>
          <Trackpoint>
            <Time>2023-01-11T14:43:00.000Z</Time>
            <Position>
              <LatitudeDegrees>-49.223825074732303619384765625</LatitudeDegrees>
              <LongitudeDegrees>-73.02674942649900913238525390625</LongitudeDegrees>
            </Position>
            <AltitudeMeters>559.79998779296875</AltitudeMeters>
            <DistanceMeters>1661.0414022199</DistanceMeters>
          </Trackpoint>
          <Trackpoint>
            <Time>2023-01-11T14:43:02.000Z</Time>
            <Position>
              <LatitudeDegrees>-49.22381727956235408782958984375</LatitudeDegrees>
              <LongitudeDegrees>-73.02676317282021045684814453125</LongitudeDegrees>
            </Position>
            <AltitudeMeters>559.79998779296875</AltitudeMeters>
            <DistanceMeters>1662.3649711943</DistanceMeters>
          </Trackpoint>
          <Trackpoint>
            <Time>2023-01-11T14:43:06.000Z</Time>
            <Position>
              <LatitudeDegrees>-49.22381359152495861053466796875</LatitudeDegrees>
              <LongitudeDegrees>-73.02678748033940792083740234375</LongitudeDegrees>
            </Position>
            <AltitudeMeters>560.4000244140625</AltitudeMeters>
            <DistanceMeters>1664.1804540232</DistanceMeters>
          </Trackpoint>
          <Trackpoint>
            <Time>2023-01-11T14:43:10.000Z</Time>
            <Position>
              <LatitudeDegrees>-49.223800599575042724609375</LatitudeDegrees>
              <LongitudeDegrees>-73.02683793939650058746337890625</LongitudeDegrees>
            </Position>
            <AltitudeMeters>560.4000244140625</AltitudeMeters>
            <DistanceMeters>1668.1214858023</DistanceMeters>
          </Trackpoint>
          <Trackpoint>
            <Time>2023-01-11T14:43:11.000Z</Time>
            <Position>
              <LatitudeDegrees>-49.2237873561680316925048828125</LatitudeDegrees>
              <LongitudeDegrees>-73.02684179507195949554443359375</LongitudeDegrees>
            </Position>
            <AltitudeMeters>560.4000244140625</AltitudeMeters>
            <DistanceMeters>1669.6179679967</DistanceMeters>
          </Trackpoint>
          <Trackpoint>
            <Time>2023-01-11T14:43:14.000Z</Time>
            <Position>
              <LatitudeDegrees>-49.2237561754882335662841796875</LatitudeDegrees>
              <LongitudeDegrees>-73.02686140872538089752197265625</LongitudeDegrees>
            </Position>
            <AltitudeMeters>561.20001220703125</AltitudeMeters>
            <DistanceMeters>1673.3712224848</DistanceMeters>
          </Trackpoint>
          <Trackpoint>
            <Time>2023-01-11T14:43:15.000Z</Time>
            <Position>
              <LatitudeDegrees>-49.22374536283314228057861328125</LatitudeDegrees>
              <LongitudeDegrees>-73.026869036257266998291015625</LongitudeDegrees>
            </Position>
            <AltitudeMeters>561.79998779296875</AltitudeMeters>
            <DistanceMeters>1674.6947914592</DistanceMeters>
          </Trackpoint>
          <Trackpoint>
            <Time>2023-01-11T14:43:18.000Z</Time>
            <Position>
              <LatitudeDegrees>-49.2237283475697040557861328125</LatitudeDegrees>
              <LongitudeDegrees>-73.0268822796642780303955078125</LongitudeDegrees>
            </Position>
            <AltitudeMeters>563.5999755859375</AltitudeMeters>
            <DistanceMeters>1676.8196533893</DistanceMeters>
          </Trackpoint>
          <Trackpoint>
            <Time>2023-01-11T14:43:19.000Z</Time>
            <Position>
              <LatitudeDegrees>-49.223722480237483978271484375</LatitudeDegrees>
              <LongitudeDegrees>-73.0268889851868152618408203125</LongitudeDegrees>
            </Position>
            <AltitudeMeters>565.5999755859375</AltitudeMeters>
            <DistanceMeters>1677.6315619928</DistanceMeters>
          </Trackpoint>
          <Trackpoint>
            <Time>2023-01-11T14:43:25.000Z</Time>
            <Position>
              <LatitudeDegrees>-49.2237132601439952850341796875</LatitudeDegrees>
              <LongitudeDegrees>-73.02694489248096942901611328125</LongitudeDegrees>
            </Position>
            <AltitudeMeters>564.4000244140625</AltitudeMeters>
            <DistanceMeters>1681.8224447976</DistanceMeters>
          </Trackpoint>
          <Trackpoint>
            <Time>2023-01-11T14:43:26.000Z</Time>
            <Position>
              <LatitudeDegrees>-49.22371149994432926177978515625</LatitudeDegrees>
              <LongitudeDegrees>-73.02694925107061862945556640625</LongitudeDegrees>
            </Position>
            <AltitudeMeters>564</AltitudeMeters>
            <DistanceMeters>1682.1780022054</DistanceMeters>
          </Trackpoint>
          <Trackpoint>
            <Time>2023-01-11T14:43:34.000Z</Time>
            <Position>
              <LatitudeDegrees>-49.2237162776291370391845703125</LatitudeDegrees>
              <LongitudeDegrees>-73.02696727216243743896484375</LongitudeDegrees>
            </Position>
            <AltitudeMeters>563.5999755859375</AltitudeMeters>
            <DistanceMeters>1683.587476156</DistanceMeters>
          </Trackpoint>
          <Trackpoint>
            <Time>2023-01-11T14:43:38.000Z</Time>
            <Position>
              <LatitudeDegrees>-49.22372055239975452423095703125</LatitudeDegrees>
              <LongitudeDegrees>-73.02697858773171901702880859375</LongitudeDegrees>
            </Position>
            <AltitudeMeters>563.20001220703125</AltitudeMeters>
            <DistanceMeters>1684.5377432997</DistanceMeters>
          </Trackpoint>
          <Trackpoint>
            <Time>2023-01-11T14:43:41.000Z</Time>
            <Position>
              <LatitudeDegrees>-49.223721139132976531982421875</LatitudeDegrees>
              <LongitudeDegrees>-73.02702091634273529052734375</LongitudeDegrees>
            </Position>
            <AltitudeMeters>562.20001220703125</AltitudeMeters>
            <DistanceMeters>1687.6154941327</DistanceMeters>
          </Trackpoint>
          <Trackpoint>
            <Time>2023-01-11T14:43:42.000Z</Time>
            <Position>
              <LatitudeDegrees>-49.2237229831516742706298828125</LatitudeDegrees>
              <LongitudeDegrees>-73.0270443856716156005859375</LongitudeDegrees>
            </Position>
            <AltitudeMeters>562.20001220703125</AltitudeMeters>
            <DistanceMeters>1689.3338756378</DistanceMeters>
          </Trackpoint>
          <Trackpoint>
            <Time>2023-01-11T14:43:45.000Z</Time>
            <Position>
              <LatitudeDegrees>-49.22372256405651569366455078125</LatitudeDegrees>
              <LongitudeDegrees>-73.02709341980516910552978515625</LongitudeDegrees>
            </Position>
            <AltitudeMeters>560.79998779296875</AltitudeMeters>
            <DistanceMeters>1692.8995940273</DistanceMeters>
          </Trackpoint>
          <Trackpoint>
            <Time>2023-01-11T14:43:48.000Z</Time>
            <Position>
              <LatitudeDegrees>-49.22372977249324321746826171875</LatitudeDegrees>
              <LongitudeDegrees>-73.02713633514940738677978515625</LongitudeDegrees>
            </Position>
            <AltitudeMeters>562</AltitudeMeters>
            <DistanceMeters>1696.1221066977</DistanceMeters>
          </Trackpoint>
          <Trackpoint>
            <Time>2023-01-11T14:43:50.000Z</Time>
            <Position>
              <LatitudeDegrees>-49.22373295761644840240478515625</LatitudeDegrees>
              <LongitudeDegrees>-73.02716332487761974334716796875</LongitudeDegrees>
            </Position>
            <AltitudeMeters>562</AltitudeMeters>
            <DistanceMeters>1698.1154038745</DistanceMeters>
          </Trackpoint>
          <Trackpoint>
            <Time>2023-01-11T14:43:52.000Z</Time>
            <Position>
              <LatitudeDegrees>-49.22373580746352672576904296875</LatitudeDegrees>
              <LongitudeDegrees>-73.02718712948262691497802734375</LongitudeDegrees>
            </Position>
            <AltitudeMeters>561.5999755859375</AltitudeMeters>
            <DistanceMeters>1699.8727559007</DistanceMeters>
          </Trackpoint>
          <Trackpoint>
            <Time>2023-01-11T14:43:58.000Z</Time>
            <Position>
              <LatitudeDegrees>-49.22375123016536235809326171875</LatitudeDegrees>
              <LongitudeDegrees>-73.02727664820849895477294921875</LongitudeDegrees>
            </Position>
            <AltitudeMeters>561.4000244140625</AltitudeMeters>
            <DistanceMeters>1706.6029017715</DistanceMeters>
          </Trackpoint>
          <Trackpoint>
            <Time>2023-01-11T14:44:01.000Z</Time>
            <Position>
              <LatitudeDegrees>-49.2237590253353118896484375</LatitudeDegrees>
              <LongitudeDegrees>-73.027323000133037567138671875</LongitudeDegrees>
            </Position>
            <AltitudeMeters>561.5999755859375</AltitudeMeters>
            <DistanceMeters>1710.0814506694</DistanceMeters>
          </Trackpoint>
          <Trackpoint>
            <Time>2023-01-11T14:44:02.000Z</Time>
            <Position>
              <LatitudeDegrees>-49.22375567257404327392578125</LatitudeDegrees>
              <LongitudeDegrees>-73.02732995711266994476318359375</LongitudeDegrees>
            </Position>
            <AltitudeMeters>561.79998779296875</AltitudeMeters>
            <DistanceMeters>1710.7117865827</DistanceMeters>
          </Trackpoint>
          <Trackpoint>
            <Time>2023-01-11T14:44:05.000Z</Time>
            <Position>
              <LatitudeDegrees>-49.2237544991075992584228515625</LatitudeDegrees>
              <LongitudeDegrees>-73.02733875811100006103515625</LongitudeDegrees>
            </Position>
            <AltitudeMeters>561.79998779296875</AltitudeMeters>
            <DistanceMeters>1711.3701509721</DistanceMeters>
          </Trackpoint>
          <Trackpoint>
            <Time>2023-01-11T14:44:12.000Z</Time>
            <Position>
              <LatitudeDegrees>-49.22375299036502838134765625</LatitudeDegrees>
              <LongitudeDegrees>-73.0274294503033161163330078125</LongitudeDegrees>
            </Position>
            <AltitudeMeters>561.79998779296875</AltitudeMeters>
            <DistanceMeters>1717.9654430984</DistanceMeters>
          </Trackpoint>
          <Trackpoint>
            <Time>2023-01-11T14:44:19.000Z</Time>
            <Position>
              <LatitudeDegrees>-49.2237645573914051055908203125</LatitudeDegrees>
              <LongitudeDegrees>-73.02752592600882053375244140625</LongitudeDegrees>
            </Position>
            <AltitudeMeters>561.20001220703125</AltitudeMeters>
            <DistanceMeters>1725.0956135297</DistanceMeters>
          </Trackpoint>
          <Trackpoint>
            <Time>2023-01-11T14:44:27.000Z</Time>
            <Position>
              <LatitudeDegrees>-49.22378391958773136138916015625</LatitudeDegrees>
              <LongitudeDegrees>-73.0276138521730899810791015625</LongitudeDegrees>
            </Position>
            <AltitudeMeters>562</AltitudeMeters>
            <DistanceMeters>1731.8411717127</DistanceMeters>
          </Trackpoint>
          <Trackpoint>
            <Time>2023-01-11T14:44:37.000Z</Time>
            <Position>
              <LatitudeDegrees>-49.2237850092351436614990234375</LatitudeDegrees>
              <LongitudeDegrees>-73.02774083800613880157470703125</LongitudeDegrees>
            </Position>
            <AltitudeMeters>562.20001220703125</AltitudeMeters>
            <DistanceMeters>1741.0729571022</DistanceMeters>
          </Trackpoint>
          <Trackpoint>
            <Time>2023-01-11T14:44:39.000Z</Time>
            <Position>
              <LatitudeDegrees>-49.2237783037126064300537109375</LatitudeDegrees>
              <LongitudeDegrees>-73.0277687497437000274658203125</LongitudeDegrees>
            </Position>
            <AltitudeMeters>562.20001220703125</AltitudeMeters>
            <DistanceMeters>1743.2357283796</DistanceMeters>
          </Trackpoint>
          <Trackpoint>
            <Time>2023-01-11T14:44:46.000Z</Time>
            <Position>
              <LatitudeDegrees>-49.22374653629958629608154296875</LatitudeDegrees>
              <LongitudeDegrees>-73.0278718471527099609375</LongitudeDegrees>
            </Position>
            <AltitudeMeters>562.5999755859375</AltitudeMeters>
            <DistanceMeters>1751.5221450526</DistanceMeters>
          </Trackpoint>
          <Trackpoint>
            <Time>2023-01-11T14:44:53.000Z</Time>
            <Position>
              <LatitudeDegrees>-49.2237404175102710723876953125</LatitudeDegrees>
              <LongitudeDegrees>-73.02798290736973285675048828125</LongitudeDegrees>
            </Position>
            <AltitudeMeters>563.20001220703125</AltitudeMeters>
            <DistanceMeters>1759.6239735914</DistanceMeters>
          </Trackpoint>
          <Trackpoint>
            <Time>2023-01-11T14:44:54.000Z</Time>
            <Position>
              <LatitudeDegrees>-49.22373999841511249542236328125</LatitudeDegrees>
              <LongitudeDegrees>-73.02800285629928112030029296875</LongitudeDegrees>
            </Position>
            <AltitudeMeters>563.20001220703125</AltitudeMeters>
            <DistanceMeters>1761.0744934332</DistanceMeters>
          </Trackpoint>
          <Trackpoint>
            <Time>2023-01-11T14:44:55.000Z</Time>
            <Position>
              <LatitudeDegrees>-49.22373899258673191070556640625</LatitudeDegrees>
              <LongitudeDegrees>-73.0280141718685626983642578125</LongitudeDegrees>
            </Position>
            <AltitudeMeters>564.4000244140625</AltitudeMeters>
            <DistanceMeters>1761.9029171229</DistanceMeters>
          </Trackpoint>
          <Trackpoint>
            <Time>2023-01-11T14:45:01.000Z</Time>
            <Position>
              <LatitudeDegrees>-49.22372289933264255523681640625</LatitudeDegrees>
              <LongitudeDegrees>-73.02811752073466777801513671875</LongitudeDegrees>
            </Position>
            <AltitudeMeters>563.4000244140625</AltitudeMeters>
            <DistanceMeters>1769.6252629346</DistanceMeters>
          </Trackpoint>
          <Trackpoint>
            <Time>2023-01-11T14:45:02.000Z</Time>
            <Position>
              <LatitudeDegrees>-49.2237186245620250701904296875</LatitudeDegrees>
              <LongitudeDegrees>-73.02812975831329822540283203125</LongitudeDegrees>
            </Position>
            <AltitudeMeters>563.4000244140625</AltitudeMeters>
            <DistanceMeters>1770.6309311512</DistanceMeters>
          </Trackpoint>
          <Trackpoint>
            <Time>2023-01-11T14:45:04.000Z</Time>
            <Position>
              <LatitudeDegrees>-49.223711080849170684814453125</LatitudeDegrees>
              <LongitudeDegrees>-73.0281657166779041290283203125</LongitudeDegrees>
            </Position>
            <AltitudeMeters>561.5999755859375</AltitudeMeters>
            <DistanceMeters>1773.3752131619</DistanceMeters>
          </Trackpoint>
          <Trackpoint>
            <Time>2023-01-11T14:45:05.000Z</Time>
            <Position>
              <LatitudeDegrees>-49.2237125895917415618896484375</LatitudeDegrees>
              <LongitudeDegrees>-73.0281801335513591766357421875</LongitudeDegrees>
            </Position>
            <AltitudeMeters>561.5999755859375</AltitudeMeters>
            <DistanceMeters>1774.4333858694</DistanceMeters>
          </Trackpoint>
          <Trackpoint>
            <Time>2023-01-11T14:45:08.000Z</Time>
            <Position>
              <LatitudeDegrees>-49.22371678054332733154296875</LatitudeDegrees>
              <LongitudeDegrees>-73.02822195924818515777587890625</LongitudeDegrees>
            </Position>
            <AltitudeMeters>562.4000244140625</AltitudeMeters>
            <DistanceMeters>1777.5096693598</DistanceMeters>
          </Trackpoint>
          <Trackpoint>
            <Time>2023-01-11T14:45:14.000Z</Time>
            <Position>
              <LatitudeDegrees>-49.22372323460876941680908203125</LatitudeDegrees>
              <LongitudeDegrees>-73.02829496562480926513671875</LongitudeDegrees>
            </Position>
            <AltitudeMeters>562.20001220703125</AltitudeMeters>
            <DistanceMeters>1782.8649959405</DistanceMeters>
          </Trackpoint>
          <Trackpoint>
            <Time>2023-01-11T14:45:16.000Z</Time>
            <Position>
              <LatitudeDegrees>-49.22372859902679920196533203125</LatitudeDegrees>
              <LongitudeDegrees>-73.0283184349536895751953125</LongitudeDegrees>
            </Position>
            <AltitudeMeters>562.5999755859375</AltitudeMeters>
            <DistanceMeters>1784.6730024872</DistanceMeters>
          </Trackpoint>
          <Trackpoint>
            <Time>2023-01-11T14:45:17.000Z</Time>
            <Position>
              <LatitudeDegrees>-49.22372893430292606353759765625</LatitudeDegrees>
              <LongitudeDegrees>-73.028331510722637176513671875</LongitudeDegrees>
            </Position>
            <AltitudeMeters>562.79998779296875</AltitudeMeters>
            <DistanceMeters>1785.6232696309</DistanceMeters>
          </Trackpoint>
          <Trackpoint>
            <Time>2023-01-11T14:45:25.000Z</Time>
            <Position>
              <LatitudeDegrees>-49.22371141612529754638671875</LatitudeDegrees>
              <LongitudeDegrees>-73.0284523777663707733154296875</LongitudeDegrees>
            </Position>
            <AltitudeMeters>563.4000244140625</AltitudeMeters>
            <DistanceMeters>1794.6227560399</DistanceMeters>
          </Trackpoint>
          <Trackpoint>
            <Time>2023-01-11T14:45:29.000Z</Time>
            <Position>
              <LatitudeDegrees>-49.22368283383548259735107421875</LatitudeDegrees>
              <LongitudeDegrees>-73.0284932814538478851318359375</LongitudeDegrees>
            </Position>
            <AltitudeMeters>564.20001220703125</AltitudeMeters>
            <DistanceMeters>1798.9763902064</DistanceMeters>
          </Trackpoint>
          <Trackpoint>
            <Time>2023-01-11T14:45:33.000Z</Time>
            <Position>
              <LatitudeDegrees>-49.22365198843181133270263671875</LatitudeDegrees>
              <LongitudeDegrees>-73.0285315029323101043701171875</LongitudeDegrees>
            </Position>
            <AltitudeMeters>564</AltitudeMeters>
            <DistanceMeters>1803.3918103498</DistanceMeters>
          </Trackpoint>
          <Trackpoint>
            <Time>2023-01-11T14:45:39.000Z</Time>
            <Position>
              <LatitudeDegrees>-49.22365684993565082550048828125</LatitudeDegrees>
              <LongitudeDegrees>-73.02859998308122158050537109375</LongitudeDegrees>
            </Position>
            <AltitudeMeters>564.5999755859375</AltitudeMeters>
            <DistanceMeters>1808.3985550216</DistanceMeters>
          </Trackpoint>
          <Trackpoint>
            <Time>2023-01-11T14:45:46.000Z</Time>
            <Position>
              <LatitudeDegrees>-49.2236462049186229705810546875</LatitudeDegrees>
              <LongitudeDegrees>-73.02866469137370586395263671875</LongitudeDegrees>
            </Position>
            <AltitudeMeters>565.20001220703125</AltitudeMeters>
            <DistanceMeters>1813.2495733902</DistanceMeters>
          </Trackpoint>
          <Trackpoint>
            <Time>2023-01-11T14:45:48.000Z</Time>
            <Position>
              <LatitudeDegrees>-49.22364461235702037811279296875</LatitudeDegrees>
              <LongitudeDegrees>-73.0286817066371440887451171875</LongitudeDegrees>
            </Position>
            <AltitudeMeters>565.5999755859375</AltitudeMeters>
            <DistanceMeters>1814.4958370655</DistanceMeters>
          </Trackpoint>
          <Trackpoint>
            <Time>2023-01-11T14:45:51.000Z</Time>
            <Position>
              <LatitudeDegrees>-49.22364394180476665496826171875</LatitudeDegrees>
              <LongitudeDegrees>-73.0286991409957408905029296875</LongitudeDegrees>
            </Position>
            <AltitudeMeters>566.4000244140625</AltitudeMeters>
            <DistanceMeters>1815.7636515657</DistanceMeters>
          </Trackpoint>
          <Trackpoint>
            <Time>2023-01-11T14:45:54.000Z</Time>
            <Position>
              <LatitudeDegrees>-49.22365400008857250213623046875</LatitudeDegrees>
              <LongitudeDegrees>-73.02872487343847751617431640625</LongitudeDegrees>
            </Position>
            <AltitudeMeters>568</AltitudeMeters>
            <DistanceMeters>1817.9451304875</DistanceMeters>
          </Trackpoint>
          <Trackpoint>
            <Time>2023-01-11T14:45:59.000Z</Time>
            <Position>
              <LatitudeDegrees>-49.223659448325634002685546875</LatitudeDegrees>
              <LongitudeDegrees>-73.0287551321089267730712890625</LongitudeDegrees>
            </Position>
            <AltitudeMeters>566.79998779296875</AltitudeMeters>
            <DistanceMeters>1820.2277504971</DistanceMeters>
          </Trackpoint>
          <Trackpoint>
            <Time>2023-01-11T14:46:03.000Z</Time>
            <Position>
              <LatitudeDegrees>-49.223661459982395172119140625</LatitudeDegrees>
              <LongitudeDegrees>-73.0287504382431507110595703125</LongitudeDegrees>
            </Position>
            <AltitudeMeters>566.5999755859375</AltitudeMeters>
            <DistanceMeters>1820.6419623419</DistanceMeters>
          </Trackpoint>
          <Trackpoint>
            <Time>2023-01-11T14:46:17.000Z</Time>
            <Position>
              <LatitudeDegrees>-49.22366003505885601043701171875</LatitudeDegrees>
              <LongitudeDegrees>-73.0287524498999118804931640625</LongitudeDegrees>
            </Position>
            <AltitudeMeters>566.20001220703125</AltitudeMeters>
            <DistanceMeters>1820.8747293041</DistanceMeters>
          </Trackpoint>
          <Trackpoint>
            <Time>2023-01-11T14:46:18.000Z</Time>
            <Position>
              <LatitudeDegrees>-49.223659448325634002685546875</LatitudeDegrees>
              <LongitudeDegrees>-73.02875253371894359588623046875</LongitudeDegrees>
            </Position>
            <AltitudeMeters>567.20001220703125</AltitudeMeters>
            <DistanceMeters>1820.9697560184</DistanceMeters>
          </Trackpoint>
          <Trackpoint>
            <Time>2023-01-11T14:46:23.000Z</Time>
            <Position>
              <LatitudeDegrees>-49.223658107221126556396484375</LatitudeDegrees>
              <LongitudeDegrees>-73.0287551321089267730712890625</LongitudeDegrees>
            </Position>
            <AltitudeMeters>569.20001220703125</AltitudeMeters>
            <DistanceMeters>1821.2025229806</DistanceMeters>
          </Trackpoint>
          <Trackpoint>
            <Time>2023-01-11T14:46:26.000Z</Time>
            <Position>
              <LatitudeDegrees>-49.2236544191837310791015625</LatitudeDegrees>
              <LongitudeDegrees>-73.0287661962211132049560546875</LongitudeDegrees>
            </Position>
            <AltitudeMeters>569.5999755859375</AltitudeMeters>
            <DistanceMeters>1822.1040255485</DistanceMeters>
          </Trackpoint>
          <Trackpoint>
            <Time>2023-01-11T14:46:29.000Z</Time>
            <Position>
              <LatitudeDegrees>-49.22365467064082622528076171875</LatitudeDegrees>
              <LongitudeDegrees>-73.02882042713463306427001953125</LongitudeDegrees>
            </Position>
            <AltitudeMeters>569.20001220703125</AltitudeMeters>
            <DistanceMeters>1826.0450573276</DistanceMeters>
          </Trackpoint>
          <Trackpoint>
            <Time>2023-01-11T14:46:33.000Z</Time>
            <Position>
              <LatitudeDegrees>-49.2236505635082721710205078125</LatitudeDegrees>
              <LongitudeDegrees>-73.028900139033794403076171875</LongitudeDegrees>
            </Position>
            <AltitudeMeters>568</AltitudeMeters>
            <DistanceMeters>1831.8580209481</DistanceMeters>
          </Trackpoint>
          <Trackpoint>
            <Time>2023-01-11T14:46:37.000Z</Time>
            <Position>
              <LatitudeDegrees>-49.22362835146486759185791015625</LatitudeDegrees>
              <LongitudeDegrees>-73.02897465415298938751220703125</LongitudeDegrees>
            </Position>
            <AltitudeMeters>568.20001220703125</AltitudeMeters>
            <DistanceMeters>1837.8121858869</DistanceMeters>
          </Trackpoint>
          <Trackpoint>
            <Time>2023-01-11T14:46:42.000Z</Time>
            <Position>
              <LatitudeDegrees>-49.2236244119703769683837890625</LatitudeDegrees>
              <LongitudeDegrees>-73.02902276627719402313232421875</LongitudeDegrees>
            </Position>
            <AltitudeMeters>568</AltitudeMeters>
            <DistanceMeters>1841.3371518707</DistanceMeters>
          </Trackpoint>
          <Trackpoint>
            <Time>2023-01-11T14:46:44.000Z</Time>
            <Position>
              <LatitudeDegrees>-49.22362424433231353759765625</LatitudeDegrees>
              <LongitudeDegrees>-73.02902829833328723907470703125</LongitudeDegrees>
            </Position>
            <AltitudeMeters>567.79998779296875</AltitudeMeters>
            <DistanceMeters>1841.7403160754</DistanceMeters>
          </Trackpoint>
          <Trackpoint>
            <Time>2023-01-11T14:46:57.000Z</Time>
            <Position>
              <LatitudeDegrees>-49.223637990653514862060546875</LatitudeDegrees>
              <LongitudeDegrees>-73.02908428944647312164306640625</LongitudeDegrees>
            </Position>
            <AltitudeMeters>568.20001220703125</AltitudeMeters>
            <DistanceMeters>1846.0887617832</DistanceMeters>
          </Trackpoint>
          <Trackpoint>
            <Time>2023-01-11T14:46:59.000Z</Time>
            <Position>
              <LatitudeDegrees>-49.223637320101261138916015625</LatitudeDegrees>
              <LongitudeDegrees>-73.02910289727151393890380859375</LongitudeDegrees>
            </Position>
            <AltitudeMeters>567</AltitudeMeters>
            <DistanceMeters>1847.4460147422</DistanceMeters>
          </Trackpoint>
          <Trackpoint>
            <Time>2023-01-11T14:47:05.000Z</Time>
            <Position>
              <LatitudeDegrees>-49.22364125959575176239013671875</LatitudeDegrees>
              <LongitudeDegrees>-73.0291271209716796875</LongitudeDegrees>
            </Position>
            <AltitudeMeters>566.4000244140625</AltitudeMeters>
            <DistanceMeters>1849.2614975711</DistanceMeters>
          </Trackpoint>
          <Trackpoint>
            <Time>2023-01-11T14:47:08.000Z</Time>
            <Position>
              <LatitudeDegrees>-49.223631285130977630615234375</LatitudeDegrees>
              <LongitudeDegrees>-73.0291561223566532135009765625</LongitudeDegrees>
            </Position>
            <AltitudeMeters>565.79998779296875</AltitudeMeters>
            <DistanceMeters>1851.6466491721</DistanceMeters>
          </Trackpoint>
          <Trackpoint>
            <Time>2023-01-11T14:47:09.000Z</Time>
            <Position>
              <LatitudeDegrees>-49.22362768091261386871337890625</LatitudeDegrees>
              <LongitudeDegrees>-73.02916307933628559112548828125</LongitudeDegrees>
            </Position>
            <AltitudeMeters>564.79998779296875</AltitudeMeters>
            <DistanceMeters>1852.2911517062</DistanceMeters>
          </Trackpoint>
          <Trackpoint>
            <Time>2023-01-11T14:47:13.000Z</Time>
            <Position>
              <LatitudeDegrees>-49.2236177064478397369384765625</LatitudeDegrees>
              <LongitudeDegrees>-73.0291606485843658447265625</LongitudeDegrees>
            </Position>
            <AltitudeMeters>564.4000244140625</AltitudeMeters>
            <DistanceMeters>1853.4155229536</DistanceMeters>
          </Trackpoint>
          <Trackpoint>
            <Time>2023-01-11T14:47:17.000Z</Time>
            <Position>
              <LatitudeDegrees>-49.223620891571044921875</LatitudeDegrees>
              <LongitudeDegrees>-73.02918889559805393218994140625</LongitudeDegrees>
            </Position>
            <AltitudeMeters>564.4000244140625</AltitudeMeters>
            <DistanceMeters>1855.4996215045</DistanceMeters>
          </Trackpoint>
          <Trackpoint>
            <Time>2023-01-11T14:47:19.000Z</Time>
            <Position>
              <LatitudeDegrees>-49.22361410222947597503662109375</LatitudeDegrees>
              <LongitudeDegrees>-73.029210269451141357421875</LongitudeDegrees>
            </Position>
            <AltitudeMeters>565</AltitudeMeters>
            <DistanceMeters>1857.2258674969</DistanceMeters>
          </Trackpoint>
          <Trackpoint>
            <Time>2023-01-11T14:47:20.000Z</Time>
            <Position>
              <LatitudeDegrees>-49.2236103303730487823486328125</LatitudeDegrees>
              <LongitudeDegrees>-73.0292168073356151580810546875</LongitudeDegrees>
            </Position>
            <AltitudeMeters>566</AltitudeMeters>
            <DistanceMeters>1857.8562034102</DistanceMeters>
          </Trackpoint>
          <Trackpoint>
            <Time>2023-01-11T14:47:22.000Z</Time>
            <Position>
              <LatitudeDegrees>-49.22360488213598728179931640625</LatitudeDegrees>
              <LongitudeDegrees>-73.02923751063644886016845703125</LongitudeDegrees>
            </Position>
            <AltitudeMeters>564.5999755859375</AltitudeMeters>
            <DistanceMeters>1859.4800206171</DistanceMeters>
          </Trackpoint>
          <Trackpoint>
            <Time>2023-01-11T14:47:26.000Z</Time>
            <Position>
              <LatitudeDegrees>-49.22359817661345005035400390625</LatitudeDegrees>
              <LongitudeDegrees>-73.02928478457033634185791015625</LongitudeDegrees>
            </Position>
            <AltitudeMeters>564.5999755859375</AltitudeMeters>
            <DistanceMeters>1862.9972929592</DistanceMeters>
          </Trackpoint>
          <Trackpoint>
            <Time>2023-01-11T14:47:27.000Z</Time>
            <Position>
              <LatitudeDegrees>-49.2235959134995937347412109375</LatitudeDegrees>
              <LongitudeDegrees>-73.02929467521607875823974609375</LongitudeDegrees>
            </Position>
            <AltitudeMeters>564.5999755859375</AltitudeMeters>
            <DistanceMeters>1863.7634228234</DistanceMeters>
          </Trackpoint>
          <Trackpoint>
            <Time>2023-01-11T14:47:32.000Z</Time>
            <Position>
              <LatitudeDegrees>-49.22357839532196521759033203125</LatitudeDegrees>
              <LongitudeDegrees>-73.0293264426290988922119140625</LongitudeDegrees>
            </Position>
            <AltitudeMeters>563.4000244140625</AltitudeMeters>
            <DistanceMeters>1866.7849137277</DistanceMeters>
          </Trackpoint>
          <Trackpoint>
            <Time>2023-01-11T14:47:33.000Z</Time>
            <Position>
              <LatitudeDegrees>-49.22357588075101375579833984375</LatitudeDegrees>
              <LongitudeDegrees>-73.02932669408619403839111328125</LongitudeDegrees>
            </Position>
            <AltitudeMeters>562.4000244140625</AltitudeMeters>
            <DistanceMeters>1867.0536898642</DistanceMeters>
          </Trackpoint>
          <Trackpoint>
            <Time>2023-01-11T14:47:35.000Z</Time>
            <Position>
              <LatitudeDegrees>-49.2235741205513477325439453125</LatitudeDegrees>
              <LongitudeDegrees>-73.02932870574295520782470703125</LongitudeDegrees>
            </Position>
            <AltitudeMeters>562.4000244140625</AltitudeMeters>
            <DistanceMeters>1867.3224660007</DistanceMeters>
          </Trackpoint>
          <Trackpoint>
            <Time>2023-01-11T14:47:40.000Z</Time>
            <Position>
              <LatitudeDegrees>-49.22355945222079753875732421875</LatitudeDegrees>
              <LongitudeDegrees>-73.02936290390789508819580078125</LongitudeDegrees>
            </Position>
            <AltitudeMeters>563</AltitudeMeters>
            <DistanceMeters>1870.2942356355</DistanceMeters>
          </Trackpoint>
          <Trackpoint>
            <Time>2023-01-11T14:47:42.000Z</Time>
            <Position>
              <LatitudeDegrees>-49.22354780137538909912109375</LatitudeDegrees>
              <LongitudeDegrees>-73.0293884687125682830810546875</LongitudeDegrees>
            </Position>
            <AltitudeMeters>563</AltitudeMeters>
            <DistanceMeters>1872.5609763566</DistanceMeters>
          </Trackpoint>
          <Trackpoint>
            <Time>2023-01-11T14:47:47.000Z</Time>
            <Position>
              <LatitudeDegrees>-49.22352634370326995849609375</LatitudeDegrees>
              <LongitudeDegrees>-73.0294374190270900726318359375</LongitudeDegrees>
            </Position>
            <AltitudeMeters>561.5999755859375</AltitudeMeters>
            <DistanceMeters>1876.8466706395</DistanceMeters>
          </Trackpoint>
          <Trackpoint>
            <Time>2023-01-11T14:47:49.000Z</Time>
            <Position>
              <LatitudeDegrees>-49.223532043397426605224609375</LatitudeDegrees>
              <LongitudeDegrees>-73.02947052754461765289306640625</LongitudeDegrees>
            </Position>
            <AltitudeMeters>562</AltitudeMeters>
            <DistanceMeters>1879.3373859017</DistanceMeters>
          </Trackpoint>
          <Trackpoint>
            <Time>2023-01-11T14:47:57.000Z</Time>
            <Position>
              <LatitudeDegrees>-49.223552830517292022705078125</LatitudeDegrees>
              <LongitudeDegrees>-73.029580079019069671630859375</LongitudeDegrees>
            </Position>
            <AltitudeMeters>563.4000244140625</AltitudeMeters>
            <DistanceMeters>1887.6303384638</DistanceMeters>
          </Trackpoint>
          <Trackpoint>
            <Time>2023-01-11T14:48:06.000Z</Time>
            <Position>
              <LatitudeDegrees>-49.22354570589959621429443359375</LatitudeDegrees>
              <LongitudeDegrees>-73.029708154499530792236328125</LongitudeDegrees>
            </Position>
            <AltitudeMeters>562</AltitudeMeters>
            <DistanceMeters>1896.9744172914</DistanceMeters>
          </Trackpoint>
          <Trackpoint>
            <Time>2023-01-11T14:48:16.000Z</Time>
            <Position>
              <LatitudeDegrees>-49.2235283553600311279296875</LatitudeDegrees>
              <LongitudeDegrees>-73.029844947159290313720703125</LongitudeDegrees>
            </Position>
            <AltitudeMeters>562.79998779296875</AltitudeMeters>
            <DistanceMeters>1907.1044611565</DistanceMeters>
          </Trackpoint>
          <Trackpoint>
            <Time>2023-01-11T14:48:24.000Z</Time>
            <Position>
              <LatitudeDegrees>-49.22351771034300327301025390625</LatitudeDegrees>
              <LongitudeDegrees>-73.0298843421041965484619140625</LongitudeDegrees>
            </Position>
            <AltitudeMeters>561.79998779296875</AltitudeMeters>
            <DistanceMeters>1910.2041387746</DistanceMeters>
          </Trackpoint>
          <Trackpoint>
            <Time>2023-01-11T14:48:25.000Z</Time>
            <Position>
              <LatitudeDegrees>-49.223514609038829803466796875</LatitudeDegrees>
              <LongitudeDegrees>-73.02988350391387939453125</LongitudeDegrees>
            </Position>
            <AltitudeMeters>561.20001220703125</AltitudeMeters>
            <DistanceMeters>1910.5467624658</DistanceMeters>
          </Trackpoint>
          <Trackpoint>
            <Time>2023-01-11T14:48:31.000Z</Time>
            <Position>
              <LatitudeDegrees>-49.22349172644317150115966796875</LatitudeDegrees>
              <LongitudeDegrees>-73.0298793129622936248779296875</LongitudeDegrees>
            </Position>
            <AltitudeMeters>561.20001220703125</AltitudeMeters>
            <DistanceMeters>1913.110723396</DistanceMeters>
          </Trackpoint>
          <Trackpoint>
            <Time>2023-01-11T14:48:38.000Z</Time>
            <Position>
              <LatitudeDegrees>-49.22349457629024982452392578125</LatitudeDegrees>
              <LongitudeDegrees>-73.02988157607614994049072265625</LongitudeDegrees>
            </Position>
            <AltitudeMeters>560.20001220703125</AltitudeMeters>
            <DistanceMeters>1913.4662808037</DistanceMeters>
          </Trackpoint>
          <Trackpoint>
            <Time>2023-01-11T14:48:41.000Z</Time>
            <Position>
              <LatitudeDegrees>-49.22349457629024982452392578125</LatitudeDegrees>
              <LongitudeDegrees>-73.02988157607614994049072265625</LongitudeDegrees>
            </Position>
            <AltitudeMeters>560</AltitudeMeters>
            <DistanceMeters>1913.4662808037</DistanceMeters>
          </Trackpoint>
          <Trackpoint>
            <Time>2023-01-11T14:48:45.000Z</Time>
            <Position>
              <LatitudeDegrees>-49.22347948886454105377197265625</LatitudeDegrees>
              <LongitudeDegrees>-73.02990755997598171234130859375</LongitudeDegrees>
            </Position>
            <AltitudeMeters>561.4000244140625</AltitudeMeters>
            <DistanceMeters>1915.9929909268</DistanceMeters>
          </Trackpoint>
          <Trackpoint>
            <Time>2023-01-11T14:48:48.000Z</Time>
            <Position>
              <LatitudeDegrees>-49.2234450392425060272216796875</LatitudeDegrees>
              <LongitudeDegrees>-73.0299624614417552947998046875</LongitudeDegrees>
            </Position>
            <AltitudeMeters>561.4000244140625</AltitudeMeters>
            <DistanceMeters>1921.527430311</DistanceMeters>
          </Trackpoint>
          <Trackpoint>
            <Time>2023-01-11T14:48:56.000Z</Time>
            <Position>
              <LatitudeDegrees>-49.22341394238173961639404296875</LatitudeDegrees>
              <LongitudeDegrees>-73.03011593408882617950439453125</LongitudeDegrees>
            </Position>
            <AltitudeMeters>562.79998779296875</AltitudeMeters>
            <DistanceMeters>1933.208374411</DistanceMeters>
          </Trackpoint>
          <Trackpoint>
            <Time>2023-01-11T14:48:57.000Z</Time>
            <Position>
              <LatitudeDegrees>-49.223409332334995269775390625</LatitudeDegrees>
              <LongitudeDegrees>-73.0301341228187084197998046875</LongitudeDegrees>
            </Position>
            <AltitudeMeters>562.79998779296875</AltitudeMeters>
            <DistanceMeters>1934.6242405666</DistanceMeters>
          </Trackpoint>
          <Trackpoint>
            <Time>2023-01-11T14:48:58.000Z</Time>
            <Position>
              <LatitudeDegrees>-49.223410002887248992919921875</LatitudeDegrees>
              <LongitudeDegrees>-73.03015264682471752166748046875</LongitudeDegrees>
            </Position>
            <AltitudeMeters>562.79998779296875</AltitudeMeters>
            <DistanceMeters>1935.9748239375</DistanceMeters>
          </Trackpoint>
          <Trackpoint>
            <Time>2023-01-11T14:49:04.000Z</Time>
            <Position>
              <LatitudeDegrees>-49.223393239080905914306640625</LatitudeDegrees>
              <LongitudeDegrees>-73.03025088272988796234130859375</LongitudeDegrees>
            </Position>
            <AltitudeMeters>562.20001220703125</AltitudeMeters>
            <DistanceMeters>1943.3557758535</DistanceMeters>
          </Trackpoint>
          <Trackpoint>
            <Time>2023-01-11T14:49:09.000Z</Time>
            <Position>
              <LatitudeDegrees>-49.2233605496585369110107421875</LatitudeDegrees>
              <LongitudeDegrees>-73.03031911142170429229736328125</LongitudeDegrees>
            </Position>
            <AltitudeMeters>562.5999755859375</AltitudeMeters>
            <DistanceMeters>1949.5068749667</DistanceMeters>
          </Trackpoint>
          <Trackpoint>
            <Time>2023-01-11T14:49:11.000Z</Time>
            <Position>
              <LatitudeDegrees>-49.2233379185199737548828125</LatitudeDegrees>
              <LongitudeDegrees>-73.0303327739238739013671875</LongitudeDegrees>
            </Position>
            <AltitudeMeters>561.5999755859375</AltitudeMeters>
            <DistanceMeters>1952.2147195103</DistanceMeters>
          </Trackpoint>
          <Trackpoint>
            <Time>2023-01-11T14:49:14.000Z</Time>
            <Position>
              <LatitudeDegrees>-49.22331067733466625213623046875</LatitudeDegrees>
              <LongitudeDegrees>-73.030350543558597564697265625</LongitudeDegrees>
            </Position>
            <AltitudeMeters>561</AltitudeMeters>
            <DistanceMeters>1955.5092835005</DistanceMeters>
          </Trackpoint>
          <Trackpoint>
            <Time>2023-01-11T14:49:18.000Z</Time>
            <Position>
              <LatitudeDegrees>-49.22329558990895748138427734375</LatitudeDegrees>
              <LongitudeDegrees>-73.030347526073455810546875</LongitudeDegrees>
            </Position>
            <AltitudeMeters>560.79998779296875</AltitudeMeters>
            <DistanceMeters>1957.2011860488</DistanceMeters>
          </Trackpoint>
          <Trackpoint>
            <Time>2023-01-11T14:49:20.000Z</Time>
            <Position>
              <LatitudeDegrees>-49.223301373422145843505859375</LatitudeDegrees>
              <LongitudeDegrees>-73.030349873006343841552734375</LongitudeDegrees>
            </Position>
            <AltitudeMeters>560.79998779296875</AltitudeMeters>
            <DistanceMeters>1957.87312639</DistanceMeters>
          </Trackpoint>
          <Trackpoint>
            <Time>2023-01-11T14:49:26.000Z</Time>
            <Position>
              <LatitudeDegrees>-49.2232921533286571502685546875</LatitudeDegrees>
              <LongitudeDegrees>-73.0303443409502506256103515625</LongitudeDegrees>
            </Position>
            <AltitudeMeters>560.4000244140625</AltitudeMeters>
            <DistanceMeters>1958.9772370366</DistanceMeters>
          </Trackpoint>
          <Trackpoint>
            <Time>2023-01-11T14:49:28.000Z</Time>
            <Position>
              <LatitudeDegrees>-49.2232847772538661956787109375</LatitudeDegrees>
              <LongitudeDegrees>-73.03034325130283832550048828125</LongitudeDegrees>
            </Position>
            <AltitudeMeters>560.4000244140625</AltitudeMeters>
            <DistanceMeters>1959.8056607264</DistanceMeters>
          </Trackpoint>
          <Trackpoint>
            <Time>2023-01-11T14:49:33.000Z</Time>
            <Position>
              <LatitudeDegrees>-49.2232847772538661956787109375</LatitudeDegrees>
              <LongitudeDegrees>-73.03034325130283832550048828125</LongitudeDegrees>
            </Position>
            <AltitudeMeters>561.5999755859375</AltitudeMeters>
            <DistanceMeters>1959.9006874408</DistanceMeters>
          </Trackpoint>
          <Trackpoint>
            <Time>2023-01-11T14:49:37.000Z</Time>
            <Position>
              <LatitudeDegrees>-49.22328804619610309600830078125</LatitudeDegrees>
              <LongitudeDegrees>-73.03034325130283832550048828125</LongitudeDegrees>
            </Position>
            <AltitudeMeters>561.5999755859375</AltitudeMeters>
            <DistanceMeters>1960.2807942982</DistanceMeters>
          </Trackpoint>
          <Trackpoint>
            <Time>2023-01-11T14:49:44.000Z</Time>
            <Position>
              <LatitudeDegrees>-49.22329567372798919677734375</LatitudeDegrees>
              <LongitudeDegrees>-73.03034325130283832550048828125</LongitudeDegrees>
            </Position>
            <AltitudeMeters>562.20001220703125</AltitudeMeters>
            <DistanceMeters>1961.1307390703</DistanceMeters>
          </Trackpoint>
          <Trackpoint>
            <Time>2023-01-11T14:49:45.000Z</Time>
            <Position>
              <LatitudeDegrees>-49.22329567372798919677734375</LatitudeDegrees>
              <LongitudeDegrees>-73.03034325130283832550048828125</LongitudeDegrees>
            </Position>
            <AltitudeMeters>562.20001220703125</AltitudeMeters>
            <DistanceMeters>1961.1307390703</DistanceMeters>
          </Trackpoint>
          <Trackpoint>
            <Time>2023-01-11T14:49:46.000Z</Time>
            <Position>
              <LatitudeDegrees>-49.22329567372798919677734375</LatitudeDegrees>
              <LongitudeDegrees>-73.03034325130283832550048828125</LongitudeDegrees>
            </Position>
            <AltitudeMeters>561.5999755859375</AltitudeMeters>
            <DistanceMeters>1961.1307390703</DistanceMeters>
          </Trackpoint>
          <Trackpoint>
            <Time>2023-01-11T14:49:47.000Z</Time>
            <Position>
              <LatitudeDegrees>-49.22329366207122802734375</LatitudeDegrees>
              <LongitudeDegrees>-73.0303500406444072723388671875</LongitudeDegrees>
            </Position>
            <AltitudeMeters>561.5999755859375</AltitudeMeters>
            <DistanceMeters>1961.6682913433</DistanceMeters>
          </Trackpoint>
          <Trackpoint>
            <Time>2023-01-11T14:49:48.000Z</Time>
            <Position>
              <LatitudeDegrees>-49.22329223714768886566162109375</LatitudeDegrees>
              <LongitudeDegrees>-73.0303674750030040740966796875</LongitudeDegrees>
            </Position>
            <AltitudeMeters>562.4000244140625</AltitudeMeters>
            <DistanceMeters>1962.9467450328</DistanceMeters>
          </Trackpoint>
          <Trackpoint>
            <Time>2023-01-11T14:49:55.000Z</Time>
            <Position>
              <LatitudeDegrees>-49.2232945002615451812744140625</LatitudeDegrees>
              <LongitudeDegrees>-73.03050535731017589569091796875</LongitudeDegrees>
            </Position>
            <AltitudeMeters>561.79998779296875</AltitudeMeters>
            <DistanceMeters>1972.9728515041</DistanceMeters>
          </Trackpoint>
          <Trackpoint>
            <Time>2023-01-11T14:49:56.000Z</Time>
            <Position>
              <LatitudeDegrees>-49.2232898063957691192626953125</LatitudeDegrees>
              <LongitudeDegrees>-73.0305290780961513519287109375</LongitudeDegrees>
            </Position>
            <AltitudeMeters>561.79998779296875</AltitudeMeters>
            <DistanceMeters>1974.77585664</DistanceMeters>
          </Trackpoint>
          <Trackpoint>
            <Time>2023-01-11T14:49:59.000Z</Time>
            <Position>
              <LatitudeDegrees>-49.2232814244925975799560546875</LatitudeDegrees>
              <LongitudeDegrees>-73.03057216107845306396484375</LongitudeDegrees>
            </Position>
            <AltitudeMeters>561.5999755859375</AltitudeMeters>
            <DistanceMeters>1978.0428966392</DistanceMeters>
          </Trackpoint>
          <Trackpoint>
            <Time>2023-01-11T14:50:03.000Z</Time>
            <Position>
              <LatitudeDegrees>-49.2232995294034481048583984375</LatitudeDegrees>
              <LongitudeDegrees>-73.030621446669101715087890625</LongitudeDegrees>
            </Position>
            <AltitudeMeters>561.20001220703125</AltitudeMeters>
            <DistanceMeters>1982.1543809336</DistanceMeters>
          </Trackpoint>
          <Trackpoint>
            <Time>2023-01-11T14:50:12.000Z</Time>
            <Position>
              <LatitudeDegrees>-49.22329994849860668182373046875</LatitudeDegrees>
              <LongitudeDegrees>-73.03074340336024761199951171875</LongitudeDegrees>
            </Position>
            <AltitudeMeters>563</AltitudeMeters>
            <DistanceMeters>1991.0199201371</DistanceMeters>
          </Trackpoint>
          <Trackpoint>
            <Time>2023-01-11T14:50:13.000Z</Time>
            <Position>
              <LatitudeDegrees>-49.22329525463283061981201171875</LatitudeDegrees>
              <LongitudeDegrees>-73.03075983189046382904052734375</LongitudeDegrees>
            </Position>
            <AltitudeMeters>563</AltitudeMeters>
            <DistanceMeters>1992.3228608002</DistanceMeters>
          </Trackpoint>
          <Trackpoint>
            <Time>2023-01-11T14:50:14.000Z</Time>
            <Position>
              <LatitudeDegrees>-49.2232894711196422576904296875</LatitudeDegrees>
              <LongitudeDegrees>-73.03077156655490398406982421875</LongitudeDegrees>
            </Position>
            <AltitudeMeters>564.4000244140625</AltitudeMeters>
            <DistanceMeters>1993.3895330235</DistanceMeters>
          </Trackpoint>
          <Trackpoint>
            <Time>2023-01-11T14:50:19.000Z</Time>
            <Position>
              <LatitudeDegrees>-49.22327966429293155670166015625</LatitudeDegrees>
              <LongitudeDegrees>-73.0308459140360355377197265625</LongitudeDegrees>
            </Position>
            <AltitudeMeters>562.5999755859375</AltitudeMeters>
            <DistanceMeters>1998.9035394967</DistanceMeters>
          </Trackpoint>
          <Trackpoint>
            <Time>2023-01-11T14:50:22.000Z</Time>
            <Position>
              <LatitudeDegrees>-49.2232810892164707183837890625</LatitudeDegrees>
              <LongitudeDegrees>-73.0308879911899566650390625</LongitudeDegrees>
            </Position>
            <AltitudeMeters>561.79998779296875</AltitudeMeters>
            <DistanceMeters>2001.9665852726</DistanceMeters>
          </Trackpoint>
          <Trackpoint>
            <Time>2023-01-11T14:50:31.000Z</Time>
            <Position>
              <LatitudeDegrees>-49.22330665402114391326904296875</LatitudeDegrees>
              <LongitudeDegrees>-73.03103039972484111785888671875</LongitudeDegrees>
            </Position>
            <AltitudeMeters>562.5999755859375</AltitudeMeters>
            <DistanceMeters>2012.7025014296</DistanceMeters>
          </Trackpoint>
          <Trackpoint>
            <Time>2023-01-11T14:50:32.000Z</Time>
            <Position>
              <LatitudeDegrees>-49.22330883331596851348876953125</LatitudeDegrees>
              <LongitudeDegrees>-73.03104615770280361175537109375</LongitudeDegrees>
            </Position>
            <AltitudeMeters>562.5999755859375</AltitudeMeters>
            <DistanceMeters>2013.874069447</DistanceMeters>
          </Trackpoint>
          <Trackpoint>
            <Time>2023-01-11T14:50:43.000Z</Time>
            <Position>
              <LatitudeDegrees>-49.22328771091997623443603515625</LatitudeDegrees>
              <LongitudeDegrees>-73.031228967010974884033203125</LongitudeDegrees>
            </Position>
            <AltitudeMeters>563.4000244140625</AltitudeMeters>
            <DistanceMeters>2027.3692012256</DistanceMeters>
          </Trackpoint>
          <Trackpoint>
            <Time>2023-01-11T14:50:52.000Z</Time>
            <Position>
              <LatitudeDegrees>-49.2232532612979412078857421875</LatitudeDegrees>
              <LongitudeDegrees>-73.03130968473851680755615234375</LongitudeDegrees>
            </Position>
            <AltitudeMeters>561.79998779296875</AltitudeMeters>
            <DistanceMeters>2034.3780253678</DistanceMeters>
          </Trackpoint>
          <Trackpoint>
            <Time>2023-01-11T14:50:55.000Z</Time>
            <Position>
              <LatitudeDegrees>-49.2232467234134674072265625</LatitudeDegrees>
              <LongitudeDegrees>-73.031339608132839202880859375</LongitudeDegrees>
            </Position>
            <AltitudeMeters>561.79998779296875</AltitudeMeters>
            <DistanceMeters>2036.6724827256</DistanceMeters>
          </Trackpoint>
          <Trackpoint>
            <Time>2023-01-11T14:50:57.000Z</Time>
            <Position>
              <LatitudeDegrees>-49.223235659301280975341796875</LatitudeDegrees>
              <LongitudeDegrees>-73.03137137554585933685302734375</LongitudeDegrees>
            </Position>
            <AltitudeMeters>560.20001220703125</AltitudeMeters>
            <DistanceMeters>2039.2921884528</DistanceMeters>
          </Trackpoint>
          <Trackpoint>
            <Time>2023-01-11T14:50:58.000Z</Time>
            <Position>
              <LatitudeDegrees>-49.2232318036258220672607421875</LatitudeDegrees>
              <LongitudeDegrees>-73.03138830699026584625244140625</LongitudeDegrees>
            </Position>
            <AltitudeMeters>559.79998779296875</AltitudeMeters>
            <DistanceMeters>2040.5985897878</DistanceMeters>
          </Trackpoint>
          <Trackpoint>
            <Time>2023-01-11T14:51:06.000Z</Time>
            <Position>
              <LatitudeDegrees>-49.22320037148892879486083984375</LatitudeDegrees>
              <LongitudeDegrees>-73.0315100960433483123779296875</LongitudeDegrees>
            </Position>
            <AltitudeMeters>561.4000244140625</AltitudeMeters>
            <DistanceMeters>2050.1183506667</DistanceMeters>
          </Trackpoint>
          <Trackpoint>
            <Time>2023-01-11T14:51:09.000Z</Time>
            <Position>
              <LatitudeDegrees>-49.22318746335804462432861328125</LatitudeDegrees>
              <LongitudeDegrees>-73.0315432883799076080322265625</LongitudeDegrees>
            </Position>
            <AltitudeMeters>561.4000244140625</AltitudeMeters>
            <DistanceMeters>2052.9276720815</DistanceMeters>
          </Trackpoint>
          <Trackpoint>
            <Time>2023-01-11T14:51:13.000Z</Time>
            <Position>
              <LatitudeDegrees>-49.22318712808191776275634765625</LatitudeDegrees>
              <LongitudeDegrees>-73.031634651124477386474609375</LongitudeDegrees>
            </Position>
            <AltitudeMeters>562.79998779296875</AltitudeMeters>
            <DistanceMeters>2059.5693528499</DistanceMeters>
          </Trackpoint>
          <Trackpoint>
            <Time>2023-01-11T14:51:18.000Z</Time>
            <Position>
              <LatitudeDegrees>-49.22315393574535846710205078125</LatitudeDegrees>
              <LongitudeDegrees>-73.0316857807338237762451171875</LongitudeDegrees>
            </Position>
            <AltitudeMeters>562.5999755859375</AltitudeMeters>
            <DistanceMeters>2064.8087643044</DistanceMeters>
          </Trackpoint>
          <Trackpoint>
            <Time>2023-01-11T14:51:20.000Z</Time>
            <Position>
              <LatitudeDegrees>-49.22313767485320568084716796875</LatitudeDegrees>
              <LongitudeDegrees>-73.0317236669361591339111328125</LongitudeDegrees>
            </Position>
            <AltitudeMeters>561.79998779296875</AltitudeMeters>
            <DistanceMeters>2068.1033282946</DistanceMeters>
          </Trackpoint>
          <Trackpoint>
            <Time>2023-01-11T14:51:29.000Z</Time>
            <Position>
              <LatitudeDegrees>-49.223077408969402313232421875</LatitudeDegrees>
              <LongitudeDegrees>-73.0318426899611949920654296875</LongitudeDegrees>
            </Position>
            <AltitudeMeters>561.20001220703125</AltitudeMeters>
            <DistanceMeters>2079.0508017275</DistanceMeters>
          </Trackpoint>
          <Trackpoint>
            <Time>2023-01-11T14:51:39.000Z</Time>
            <Position>
              <LatitudeDegrees>-49.22301001846790313720703125</LatitudeDegrees>
              <LongitudeDegrees>-73.03193178959190845489501953125</LongitudeDegrees>
            </Position>
            <AltitudeMeters>562.79998779296875</AltitudeMeters>
            <DistanceMeters>2088.960953664</DistanceMeters>
          </Trackpoint>
          <Trackpoint>
            <Time>2023-01-11T14:51:41.000Z</Time>
            <Position>
              <LatitudeDegrees>-49.22300172038376331329345703125</LatitudeDegrees>
              <LongitudeDegrees>-73.0319509841501712799072265625</LongitudeDegrees>
            </Position>
            <AltitudeMeters>562.79998779296875</AltitudeMeters>
            <DistanceMeters>2090.6340716209</DistanceMeters>
          </Trackpoint>
          <Trackpoint>
            <Time>2023-01-11T14:51:45.000Z</Time>
            <Position>
              <LatitudeDegrees>-49.22298613004386425018310546875</LatitudeDegrees>
              <LongitudeDegrees>-73.0319949053227901458740234375</LongitudeDegrees>
            </Position>
            <AltitudeMeters>563.20001220703125</AltitudeMeters>
            <DistanceMeters>2094.2675233904</DistanceMeters>
          </Trackpoint>
          <Trackpoint>
            <Time>2023-01-11T14:51:46.000Z</Time>
            <Position>
              <LatitudeDegrees>-49.22298252582550048828125</LatitudeDegrees>
              <LongitudeDegrees>-73.03201393224298954010009765625</LongitudeDegrees>
            </Position>
            <AltitudeMeters>562.5999755859375</AltitudeMeters>
            <DistanceMeters>2095.7086748682</DistanceMeters>
          </Trackpoint>
          <Trackpoint>
            <Time>2023-01-11T14:51:50.000Z</Time>
            <Position>
              <LatitudeDegrees>-49.22296484000980854034423828125</LatitudeDegrees>
              <LongitudeDegrees>-73.03204310126602649688720703125</LongitudeDegrees>
            </Position>
            <AltitudeMeters>563.4000244140625</AltitudeMeters>
            <DistanceMeters>2098.601922328</DistanceMeters>
          </Trackpoint>
          <Trackpoint>
            <Time>2023-01-11T14:51:54.000Z</Time>
            <Position>
              <LatitudeDegrees>-49.22294874675571918487548828125</LatitudeDegrees>
              <LongitudeDegrees>-73.032081238925457000732421875</LongitudeDegrees>
            </Position>
            <AltitudeMeters>563.4000244140625</AltitudeMeters>
            <DistanceMeters>2101.9033314617</DistanceMeters>
          </Trackpoint>
          <Trackpoint>
            <Time>2023-01-11T14:51:56.000Z</Time>
            <Position>
              <LatitudeDegrees>-49.2229344137012958526611328125</LatitudeDegrees>
              <LongitudeDegrees>-73.03208434022963047027587890625</LongitudeDegrees>
            </Position>
            <AltitudeMeters>563.4000244140625</AltitudeMeters>
            <DistanceMeters>2103.5159882807</DistanceMeters>
          </Trackpoint>
          <Trackpoint>
            <Time>2023-01-11T14:51:58.000Z</Time>
            <Position>
              <LatitudeDegrees>-49.2229302227497100830078125</LatitudeDegrees>
              <LongitudeDegrees>-73.0320881120860576629638671875</LongitudeDegrees>
            </Position>
            <AltitudeMeters>563.79998779296875</AltitudeMeters>
            <DistanceMeters>2104.0535405537</DistanceMeters>
          </Trackpoint>
          <Trackpoint>
            <Time>2023-01-11T14:52:02.000Z</Time>
            <Position>
              <LatitudeDegrees>-49.22293080948293209075927734375</LatitudeDegrees>
              <LongitudeDegrees>-73.03213731385767459869384765625</LongitudeDegrees>
            </Position>
            <AltitudeMeters>563.20001220703125</AltitudeMeters>
            <DistanceMeters>2107.6293744766</DistanceMeters>
          </Trackpoint>
          <Trackpoint>
            <Time>2023-01-11T14:52:04.000Z</Time>
            <Position>
              <LatitudeDegrees>-49.22294019721448421478271484375</LatitudeDegrees>
              <LongitudeDegrees>-73.03216111846268177032470703125</LongitudeDegrees>
            </Position>
            <AltitudeMeters>563.20001220703125</AltitudeMeters>
            <DistanceMeters>2109.6496701363</DistanceMeters>
          </Trackpoint>
          <Trackpoint>
            <Time>2023-01-11T14:52:06.000Z</Time>
            <Position>
              <LatitudeDegrees>-49.2229377664625644683837890625</LatitudeDegrees>
              <LongitudeDegrees>-73.0321903713047504425048828125</LongitudeDegrees>
            </Position>
            <AltitudeMeters>562.79998779296875</AltitudeMeters>
            <DistanceMeters>2111.7935705328</DistanceMeters>
          </Trackpoint>
          <Trackpoint>
            <Time>2023-01-11T14:52:10.000Z</Time>
            <Position>
              <LatitudeDegrees>-49.22294103540480136871337890625</LatitudeDegrees>
              <LongitudeDegrees>-73.03224711678922176361083984375</LongitudeDegrees>
            </Position>
            <AltitudeMeters>562.20001220703125</AltitudeMeters>
            <DistanceMeters>2115.9335083452</DistanceMeters>
          </Trackpoint>
          <Trackpoint>
            <Time>2023-01-11T14:52:19.000Z</Time>
            <Position>
              <LatitudeDegrees>-49.22295612283051013946533203125</LatitudeDegrees>
              <LongitudeDegrees>-73.0323730967938899993896484375</LongitudeDegrees>
            </Position>
            <AltitudeMeters>562.20001220703125</AltitudeMeters>
            <DistanceMeters>2125.243701887</DistanceMeters>
          </Trackpoint>
          <Trackpoint>
            <Time>2023-01-11T14:52:23.000Z</Time>
            <Position>
              <LatitudeDegrees>-49.2229531891644001007080078125</LatitudeDegrees>
              <LongitudeDegrees>-73.03243084810674190521240234375</LongitudeDegrees>
            </Position>
            <AltitudeMeters>562.4000244140625</AltitudeMeters>
            <DistanceMeters>2129.455004552</DistanceMeters>
          </Trackpoint>
          <Trackpoint>
            <Time>2023-01-11T14:52:25.000Z</Time>
            <Position>
              <LatitudeDegrees>-49.22295176424086093902587890625</LatitudeDegrees>
              <LongitudeDegrees>-73.03246387280523777008056640625</LongitudeDegrees>
            </Position>
            <AltitudeMeters>561.5999755859375</AltitudeMeters>
            <DistanceMeters>2131.860888797</DistanceMeters>
          </Trackpoint>
          <Trackpoint>
            <Time>2023-01-11T14:52:27.000Z</Time>
            <Position>
              <LatitudeDegrees>-49.22294908203184604644775390625</LatitudeDegrees>
              <LongitudeDegrees>-73.03250201046466827392578125</LongitudeDegrees>
            </Position>
            <AltitudeMeters>561.20001220703125</AltitudeMeters>
            <DistanceMeters>2134.6476190929</DistanceMeters>
          </Trackpoint>
          <Trackpoint>
            <Time>2023-01-11T14:52:30.000Z</Time>
            <Position>
              <LatitudeDegrees>-49.2229491658508777618408203125</LatitudeDegrees>
              <LongitudeDegrees>-73.03254199214279651641845703125</LongitudeDegrees>
            </Position>
            <AltitudeMeters>561.20001220703125</AltitudeMeters>
            <DistanceMeters>2137.5548775182</DistanceMeters>
          </Trackpoint>
          <Trackpoint>
            <Time>2023-01-11T14:52:34.000Z</Time>
            <Position>
              <LatitudeDegrees>-49.2229521833360195159912109375</LatitudeDegrees>
              <LongitudeDegrees>-73.0326044373214244842529296875</LongitudeDegrees>
            </Position>
            <AltitudeMeters>561.5999755859375</AltitudeMeters>
            <DistanceMeters>2142.1062504278</DistanceMeters>
          </Trackpoint>
          <Trackpoint>
            <Time>2023-01-11T14:52:37.000Z</Time>
            <Position>
              <LatitudeDegrees>-49.2229535244405269622802734375</LatitudeDegrees>
              <LongitudeDegrees>-73.0326530523598194122314453125</LongitudeDegrees>
            </Position>
            <AltitudeMeters>561.20001220703125</AltitudeMeters>
            <DistanceMeters>2145.6440019667</DistanceMeters>
          </Trackpoint>
          <Trackpoint>
            <Time>2023-01-11T14:52:38.000Z</Time>
            <Position>
              <LatitudeDegrees>-49.2229572124779224395751953125</LatitudeDegrees>
              <LongitudeDegrees>-73.03267124108970165252685546875</LongitudeDegrees>
            </Position>
            <AltitudeMeters>561.20001220703125</AltitudeMeters>
            <DistanceMeters>2147.0276118128</DistanceMeters>
          </Trackpoint>
          <Trackpoint>
            <Time>2023-01-11T14:52:43.000Z</Time>
            <Position>
              <LatitudeDegrees>-49.22297121025621891021728515625</LatitudeDegrees>
              <LongitudeDegrees>-73.03275221027433872222900390625</LongitudeDegrees>
            </Position>
            <AltitudeMeters>561.79998779296875</AltitudeMeters>
            <DistanceMeters>2153.1167409688</DistanceMeters>
          </Trackpoint>
          <Trackpoint>
            <Time>2023-01-11T14:52:47.000Z</Time>
            <Position>
              <LatitudeDegrees>-49.22298411838710308074951171875</LatitudeDegrees>
              <LongitudeDegrees>-73.03281825967133045196533203125</LongitudeDegrees>
            </Position>
            <AltitudeMeters>561.79998779296875</AltitudeMeters>
            <DistanceMeters>2158.1279925681</DistanceMeters>
          </Trackpoint>
          <Trackpoint>
            <Time>2023-01-11T14:52:49.000Z</Time>
            <Position>
              <LatitudeDegrees>-49.22298830933868885040283203125</LatitudeDegrees>
              <LongitudeDegrees>-73.0328515358269214630126953125</LongitudeDegrees>
            </Position>
            <AltitudeMeters>561.79998779296875</AltitudeMeters>
            <DistanceMeters>2160.5913665491</DistanceMeters>
          </Trackpoint>
          <Trackpoint>
            <Time>2023-01-11T14:52:56.000Z</Time>
            <Position>
              <LatitudeDegrees>-49.2229890637099742889404296875</LatitudeDegrees>
              <LongitudeDegrees>-73.0329742468893527984619140625</LongitudeDegrees>
            </Position>
            <AltitudeMeters>561.79998779296875</AltitudeMeters>
            <DistanceMeters>2169.5117383812</DistanceMeters>
          </Trackpoint>
          <Trackpoint>
            <Time>2023-01-11T14:53:02.000Z</Time>
            <Position>
              <LatitudeDegrees>-49.22299970872700214385986328125</LatitudeDegrees>
              <LongitudeDegrees>-73.03306267596781253814697265625</LongitudeDegrees>
            </Position>
            <AltitudeMeters>561.5999755859375</AltitudeMeters>
            <DistanceMeters>2176.0485817886</DistanceMeters>
          </Trackpoint>
          <Trackpoint>
            <Time>2023-01-11T14:53:05.000Z</Time>
            <Position>
              <LatitudeDegrees>-49.22299954108893871307373046875</LatitudeDegrees>
              <LongitudeDegrees>-73.0331086926162242889404296875</LongitudeDegrees>
            </Position>
            <AltitudeMeters>561.5999755859375</AltitudeMeters>
            <DistanceMeters>2179.3948177024</DistanceMeters>
          </Trackpoint>
          <Trackpoint>
            <Time>2023-01-11T14:53:07.000Z</Time>
            <Position>
              <LatitudeDegrees>-49.222993589937686920166015625</LatitudeDegrees>
              <LongitudeDegrees>-73.03314079530537128448486328125</LongitudeDegrees>
            </Position>
            <AltitudeMeters>561.5999755859375</AltitudeMeters>
            <DistanceMeters>2181.8212574485</DistanceMeters>
          </Trackpoint>
          <Trackpoint>
            <Time>2023-01-11T14:53:11.000Z</Time>
            <Position>
              <LatitudeDegrees>-49.222978167235851287841796875</LatitudeDegrees>
              <LongitudeDegrees>-73.033206760883331298828125</LongitudeDegrees>
            </Position>
            <AltitudeMeters>561.5999755859375</AltitudeMeters>
            <DistanceMeters>2186.9147247963</DistanceMeters>
          </Trackpoint>
          <Trackpoint>
            <Time>2023-01-11T14:53:12.000Z</Time>
            <Position>
              <LatitudeDegrees>-49.2229733057320117950439453125</LatitudeDegrees>
              <LongitudeDegrees>-73.0332210101187229156494140625</LongitudeDegrees>
            </Position>
            <AltitudeMeters>559.79998779296875</AltitudeMeters>
            <DistanceMeters>2188.0824326121</DistanceMeters>
          </Trackpoint>
          <Trackpoint>
            <Time>2023-01-11T14:53:20.000Z</Time>
            <Position>
              <LatitudeDegrees>-49.22293491661548614501953125</LatitudeDegrees>
              <LongitudeDegrees>-73.033357299864292144775390625</LongitudeDegrees>
            </Position>
            <AltitudeMeters>560.20001220703125</AltitudeMeters>
            <DistanceMeters>2198.8716269953</DistanceMeters>
          </Trackpoint>
          <Trackpoint>
            <Time>2023-01-11T14:53:26.000Z</Time>
            <Position>
              <LatitudeDegrees>-49.22291169874370098114013671875</LatitudeDegrees>
              <LongitudeDegrees>-73.0334624089300632476806640625</LongitudeDegrees>
            </Position>
            <AltitudeMeters>560.20001220703125</AltitudeMeters>
            <DistanceMeters>2206.9371505805</DistanceMeters>
          </Trackpoint>
          <Trackpoint>
            <Time>2023-01-11T14:53:29.000Z</Time>
            <Position>
              <LatitudeDegrees>-49.22289862297475337982177734375</LatitudeDegrees>
              <LongitudeDegrees>-73.033507168292999267578125</LongitudeDegrees>
            </Position>
            <AltitudeMeters>560.20001220703125</AltitudeMeters>
            <DistanceMeters>2210.5016025098</DistanceMeters>
          </Trackpoint>
          <Trackpoint>
            <Time>2023-01-11T14:53:34.000Z</Time>
            <Position>
              <LatitudeDegrees>-49.2228821106255054473876953125</LatitudeDegrees>
              <LongitudeDegrees>-73.03358587436378002166748046875</LongitudeDegrees>
            </Position>
            <AltitudeMeters>560.4000244140625</AltitudeMeters>
            <DistanceMeters>2216.5116196292</DistanceMeters>
          </Trackpoint>
          <Trackpoint>
            <Time>2023-01-11T14:53:44.000Z</Time>
            <Position>
              <LatitudeDegrees>-49.22284103929996490478515625</LatitudeDegrees>
              <LongitudeDegrees>-73.03374278359115123748779296875</LongitudeDegrees>
            </Position>
            <AltitudeMeters>560</AltitudeMeters>
            <DistanceMeters>2228.7998635353</DistanceMeters>
          </Trackpoint>
          <Trackpoint>
            <Time>2023-01-11T14:53:54.000Z</Time>
            <Position>
              <LatitudeDegrees>-49.2227925918996334075927734375</LatitudeDegrees>
              <LongitudeDegrees>-73.03389801643788814544677734375</LongitudeDegrees>
            </Position>
            <AltitudeMeters>559.4000244140625</AltitudeMeters>
            <DistanceMeters>2241.3066210753</DistanceMeters>
          </Trackpoint>
          <Trackpoint>
            <Time>2023-01-11T14:54:00.000Z</Time>
            <Position>
              <LatitudeDegrees>-49.222784377634525299072265625</LatitudeDegrees>
              <LongitudeDegrees>-73.03399222902953624725341796875</LongitudeDegrees>
            </Position>
            <AltitudeMeters>561.20001220703125</AltitudeMeters>
            <DistanceMeters>2248.2168341136</DistanceMeters>
          </Trackpoint>
          <Trackpoint>
            <Time>2023-01-11T14:54:03.000Z</Time>
            <Position>
              <LatitudeDegrees>-49.22278605401515960693359375</LatitudeDegrees>
              <LongitudeDegrees>-73.0340293608605861663818359375</LongitudeDegrees>
            </Position>
            <AltitudeMeters>562</AltitudeMeters>
            <DistanceMeters>2250.9230107516</DistanceMeters>
          </Trackpoint>
          <Trackpoint>
            <Time>2023-01-11T14:54:04.000Z</Time>
            <Position>
              <LatitudeDegrees>-49.22278714366257190704345703125</LatitudeDegrees>
              <LongitudeDegrees>-73.03404025733470916748046875</LongitudeDegrees>
            </Position>
            <AltitudeMeters>562.20001220703125</AltitudeMeters>
            <DistanceMeters>2251.7293391611</DistanceMeters>
          </Trackpoint>
          <Trackpoint>
            <Time>2023-01-11T14:54:07.000Z</Time>
            <Position>
              <LatitudeDegrees>-49.222785718739032745361328125</LatitudeDegrees>
              <LongitudeDegrees>-73.0340749584138393402099609375</LongitudeDegrees>
            </Position>
            <AltitudeMeters>563.4000244140625</AltitudeMeters>
            <DistanceMeters>2254.2542617281</DistanceMeters>
          </Trackpoint>
          <Trackpoint>
            <Time>2023-01-11T14:54:12.000Z</Time>
            <Position>
              <LatitudeDegrees>-49.2227610759437084197998046875</LatitudeDegrees>
              <LongitudeDegrees>-73.0341369844973087310791015625</LongitudeDegrees>
            </Position>
            <AltitudeMeters>562.5999755859375</AltitudeMeters>
            <DistanceMeters>2259.5314537611</DistanceMeters>
          </Trackpoint>
          <Trackpoint>
            <Time>2023-01-11T14:54:13.000Z</Time>
            <Position>
              <LatitudeDegrees>-49.22275847755372524261474609375</LatitudeDegrees>
              <LongitudeDegrees>-73.03414360620081424713134765625</LongitudeDegrees>
            </Position>
            <AltitudeMeters>562.20001220703125</AltitudeMeters>
            <DistanceMeters>2260.0855499613</DistanceMeters>
          </Trackpoint>
          <Trackpoint>
            <Time>2023-01-11T14:54:14.000Z</Time>
            <Position>
              <LatitudeDegrees>-49.2227650992572307586669921875</LatitudeDegrees>
              <LongitudeDegrees>-73.0341460369527339935302734375</LongitudeDegrees>
            </Position>
            <AltitudeMeters>562.20001220703125</AltitudeMeters>
            <DistanceMeters>2260.8398011237</DistanceMeters>
          </Trackpoint>
          <Trackpoint>
            <Time>2023-01-11T14:54:18.000Z</Time>
            <Position>
              <LatitudeDegrees>-49.22276702709496021270751953125</LatitudeDegrees>
              <LongitudeDegrees>-73.034198842942714691162109375</LongitudeDegrees>
            </Position>
            <AltitudeMeters>563.20001220703125</AltitudeMeters>
            <DistanceMeters>2264.6833938522</DistanceMeters>
          </Trackpoint>
          <Trackpoint>
            <Time>2023-01-11T14:54:19.000Z</Time>
            <Position>
              <LatitudeDegrees>-49.22276468016207218170166015625</LatitudeDegrees>
              <LongitudeDegrees>-73.03421200253069400787353515625</LongitudeDegrees>
            </Position>
            <AltitudeMeters>563.4000244140625</AltitudeMeters>
            <DistanceMeters>2265.6800424406</DistanceMeters>
          </Trackpoint>
          <Trackpoint>
            <Time>2023-01-11T14:54:20.000Z</Time>
            <Position>
              <LatitudeDegrees>-49.2227627523243427276611328125</LatitudeDegrees>
              <LongitudeDegrees>-73.034229017794132232666015625</LongitudeDegrees>
            </Position>
            <AltitudeMeters>563.5999755859375</AltitudeMeters>
            <DistanceMeters>2266.9371277113</DistanceMeters>
          </Trackpoint>
          <Trackpoint>
            <Time>2023-01-11T14:54:25.000Z</Time>
            <Position>
              <LatitudeDegrees>-49.22273986972868442535400390625</LatitudeDegrees>
              <LongitudeDegrees>-73.0343036167323589324951171875</LongitudeDegrees>
            </Position>
            <AltitudeMeters>563.79998779296875</AltitudeMeters>
            <DistanceMeters>2272.9283340894</DistanceMeters>
          </Trackpoint>
          <Trackpoint>
            <Time>2023-01-11T14:54:28.000Z</Time>
            <Position>
              <LatitudeDegrees>-49.22272193245589733123779296875</LatitudeDegrees>
              <LongitudeDegrees>-73.03434058092534542083740234375</LongitudeDegrees>
            </Position>
            <AltitudeMeters>563.5999755859375</AltitudeMeters>
            <DistanceMeters>2276.2772674932</DistanceMeters>
          </Trackpoint>
          <Trackpoint>
            <Time>2023-01-11T14:54:29.000Z</Time>
            <Position>
              <LatitudeDegrees>-49.2227235250174999237060546875</LatitudeDegrees>
              <LongitudeDegrees>-73.0343565903604030609130859375</LongitudeDegrees>
            </Position>
            <AltitudeMeters>563.5999755859375</AltitudeMeters>
            <DistanceMeters>2277.4565180062</DistanceMeters>
          </Trackpoint>
          <Trackpoint>
            <Time>2023-01-11T14:54:33.000Z</Time>
            <Position>
              <LatitudeDegrees>-49.22273567877709865570068359375</LatitudeDegrees>
              <LongitudeDegrees>-73.03441031835973262786865234375</LongitudeDegrees>
            </Position>
            <AltitudeMeters>564.20001220703125</AltitudeMeters>
            <DistanceMeters>2281.589907007</DistanceMeters>
          </Trackpoint>
          <Trackpoint>
            <Time>2023-01-11T14:54:34.000Z</Time>
            <Position>
              <LatitudeDegrees>-49.22273911535739898681640625</LatitudeDegrees>
              <LongitudeDegrees>-73.03442247211933135986328125</LongitudeDegrees>
            </Position>
            <AltitudeMeters>564.20001220703125</AltitudeMeters>
            <DistanceMeters>2282.5496297781</DistanceMeters>
          </Trackpoint>
          <Trackpoint>
            <Time>2023-01-11T14:54:38.000Z</Time>
            <Position>
              <LatitudeDegrees>-49.22273618169128894805908203125</LatitudeDegrees>
              <LongitudeDegrees>-73.03447687067091464996337890625</LongitudeDegrees>
            </Position>
            <AltitudeMeters>564.20001220703125</AltitudeMeters>
            <DistanceMeters>2286.5169239746</DistanceMeters>
          </Trackpoint>
          <Trackpoint>
            <Time>2023-01-11T14:54:41.000Z</Time>
            <Position>
              <LatitudeDegrees>-49.222740791738033294677734375</LatitudeDegrees>
              <LongitudeDegrees>-73.03453168831765651702880859375</LongitudeDegrees>
            </Position>
            <AltitudeMeters>564</AltitudeMeters>
            <DistanceMeters>2290.5339809328</DistanceMeters>
          </Trackpoint>
          <Trackpoint>
            <Time>2023-01-11T14:54:46.000Z</Time>
            <Position>
              <LatitudeDegrees>-49.2227339185774326324462890625</LatitudeDegrees>
              <LongitudeDegrees>-73.03461215458810329437255859375</LongitudeDegrees>
            </Position>
            <AltitudeMeters>563</AltitudeMeters>
            <DistanceMeters>2296.4325302916</DistanceMeters>
          </Trackpoint>
          <Trackpoint>
            <Time>2023-01-11T14:54:48.000Z</Time>
            <Position>
              <LatitudeDegrees>-49.22272109426558017730712890625</LatitudeDegrees>
              <LongitudeDegrees>-73.03464450873434543609619140625</LongitudeDegrees>
            </Position>
            <AltitudeMeters>563</AltitudeMeters>
            <DistanceMeters>2299.1833854423</DistanceMeters>
          </Trackpoint>
          <Trackpoint>
            <Time>2023-01-11T14:54:49.000Z</Time>
            <Position>
              <LatitudeDegrees>-49.22271656803786754608154296875</LatitudeDegrees>
              <LongitudeDegrees>-73.03465716540813446044921875</LongitudeDegrees>
            </Position>
            <AltitudeMeters>563</AltitudeMeters>
            <DistanceMeters>2300.2329898088</DistanceMeters>
          </Trackpoint>
          <Trackpoint>
            <Time>2023-01-11T14:54:54.000Z</Time>
            <Position>
              <LatitudeDegrees>-49.222702570259571075439453125</LatitudeDegrees>
              <LongitudeDegrees>-73.03473721258342266082763671875</LongitudeDegrees>
            </Position>
            <AltitudeMeters>563</AltitudeMeters>
            <DistanceMeters>2306.256514288</DistanceMeters>
          </Trackpoint>
          <Trackpoint>
            <Time>2023-01-11T14:54:58.000Z</Time>
            <Position>
              <LatitudeDegrees>-49.22271489165723323822021484375</LatitudeDegrees>
              <LongitudeDegrees>-73.03479152731597423553466796875</LongitudeDegrees>
            </Position>
            <AltitudeMeters>563</AltitudeMeters>
            <DistanceMeters>2310.4355294642</DistanceMeters>
          </Trackpoint>
          <Trackpoint>
            <Time>2023-01-11T14:55:01.000Z</Time>
            <Position>
              <LatitudeDegrees>-49.222703911364078521728515625</LatitudeDegrees>
              <LongitudeDegrees>-73.03482723422348499298095703125</LongitudeDegrees>
            </Position>
            <AltitudeMeters>562.79998779296875</AltitudeMeters>
            <DistanceMeters>2313.3052733059</DistanceMeters>
          </Trackpoint>
          <Trackpoint>
            <Time>2023-01-11T14:55:02.000Z</Time>
            <Position>
              <LatitudeDegrees>-49.2227000556886196136474609375</LatitudeDegrees>
              <LongitudeDegrees>-73.03483461029827594757080078125</LongitudeDegrees>
            </Position>
            <AltitudeMeters>563.20001220703125</AltitudeMeters>
            <DistanceMeters>2313.9905206883</DistanceMeters>
          </Trackpoint>
          <Trackpoint>
            <Time>2023-01-11T14:55:05.000Z</Time>
            <Position>
              <LatitudeDegrees>-49.22269913367927074432373046875</LatitudeDegrees>
              <LongitudeDegrees>-73.03487350232899188995361328125</LongitudeDegrees>
            </Position>
            <AltitudeMeters>563.20001220703125</AltitudeMeters>
            <DistanceMeters>2316.8190623141</DistanceMeters>
          </Trackpoint>
          <Trackpoint>
            <Time>2023-01-11T14:55:09.000Z</Time>
            <Position>
              <LatitudeDegrees>-49.22269427217543125152587890625</LatitudeDegrees>
              <LongitudeDegrees>-73.03492798469960689544677734375</LongitudeDegrees>
            </Position>
            <AltitudeMeters>563</AltitudeMeters>
            <DistanceMeters>2320.8158366672</DistanceMeters>
          </Trackpoint>
          <Trackpoint>
            <Time>2023-01-11T14:55:19.000Z</Time>
            <Position>
              <LatitudeDegrees>-49.22266879118978977203369140625</LatitudeDegrees>
              <LongitudeDegrees>-73.03507265634834766387939453125</LongitudeDegrees>
            </Position>
            <AltitudeMeters>563.20001220703125</AltitudeMeters>
            <DistanceMeters>2331.7079046215</DistanceMeters>
          </Trackpoint>
          <Trackpoint>
            <Time>2023-01-11T14:55:24.000Z</Time>
            <Position>
              <LatitudeDegrees>-49.222691841423511505126953125</LatitudeDegrees>
              <LongitudeDegrees>-73.03512110374867916107177734375</LongitudeDegrees>
            </Position>
            <AltitudeMeters>563.4000244140625</AltitudeMeters>
            <DistanceMeters>2336.0646488973</DistanceMeters>
          </Trackpoint>
          <Trackpoint>
            <Time>2023-01-11T14:55:25.000Z</Time>
            <Position>
              <LatitudeDegrees>-49.2226970382034778594970703125</LatitudeDegrees>
              <LongitudeDegrees>-73.03512395359575748443603515625</LongitudeDegrees>
            </Position>
            <AltitudeMeters>563.5999755859375</AltitudeMeters>
            <DistanceMeters>2336.6804923926</DistanceMeters>
          </Trackpoint>
          <Trackpoint>
            <Time>2023-01-11T14:55:26.000Z</Time>
            <Position>
              <LatitudeDegrees>-49.22270424664020538330078125</LatitudeDegrees>
              <LongitudeDegrees>-73.0351280607283115386962890625</LongitudeDegrees>
            </Position>
            <AltitudeMeters>563.5999755859375</AltitudeMeters>
            <DistanceMeters>2337.5304371646</DistanceMeters>
          </Trackpoint>
          <Trackpoint>
            <Time>2023-01-11T14:55:29.000Z</Time>
            <Position>
              <LatitudeDegrees>-49.22271891497075557708740234375</LatitudeDegrees>
              <LongitudeDegrees>-73.03516033105552196502685546875</LongitudeDegrees>
            </Position>
            <AltitudeMeters>563.79998779296875</AltitudeMeters>
            <DistanceMeters>2340.3875666866</DistanceMeters>
          </Trackpoint>
          <Trackpoint>
            <Time>2023-01-11T14:55:32.000Z</Time>
            <Position>
              <LatitudeDegrees>-49.22273584641516208648681640625</LatitudeDegrees>
              <LongitudeDegrees>-73.0351897515356540679931640625</LongitudeDegrees>
            </Position>
            <AltitudeMeters>564</AltitudeMeters>
            <DistanceMeters>2343.236783899</DistanceMeters>
          </Trackpoint>
          <Trackpoint>
            <Time>2023-01-11T14:55:33.000Z</Time>
            <Position>
              <LatitudeDegrees>-49.22273282893002033233642578125</LatitudeDegrees>
              <LongitudeDegrees>-73.03520567715167999267578125</LongitudeDegrees>
            </Position>
            <AltitudeMeters>564</AltitudeMeters>
            <DistanceMeters>2344.4387873228</DistanceMeters>
          </Trackpoint>
          <Trackpoint>
            <Time>2023-01-11T14:55:37.000Z</Time>
            <Position>
              <LatitudeDegrees>-49.22268815338611602783203125</LatitudeDegrees>
              <LongitudeDegrees>-73.0352397076785564422607421875</LongitudeDegrees>
            </Position>
            <AltitudeMeters>564</AltitudeMeters>
            <DistanceMeters>2349.9927715803</DistanceMeters>
          </Trackpoint>
          <Trackpoint>
            <Time>2023-01-11T14:55:43.000Z</Time>
            <Position>
              <LatitudeDegrees>-49.22265538014471530914306640625</LatitudeDegrees>
              <LongitudeDegrees>-73.03525286726653575897216796875</LongitudeDegrees>
            </Position>
            <AltitudeMeters>564.20001220703125</AltitudeMeters>
            <DistanceMeters>2353.7628299781</DistanceMeters>
          </Trackpoint>
          <Trackpoint>
            <Time>2023-01-11T14:55:51.000Z</Time>
            <Position>
              <LatitudeDegrees>-49.22265194356441497802734375</LatitudeDegrees>
              <LongitudeDegrees>-73.035261668264865875244140625</LongitudeDegrees>
            </Position>
            <AltitudeMeters>564.4000244140625</AltitudeMeters>
            <DistanceMeters>2354.5110710753</DistanceMeters>
          </Trackpoint>
          <Trackpoint>
            <Time>2023-01-11T14:55:52.000Z</Time>
            <Position>
              <LatitudeDegrees>-49.22265194356441497802734375</LatitudeDegrees>
              <LongitudeDegrees>-73.035261668264865875244140625</LongitudeDegrees>
            </Position>
            <AltitudeMeters>564.4000244140625</AltitudeMeters>
            <DistanceMeters>2354.5110710753</DistanceMeters>
          </Trackpoint>
          <Trackpoint>
            <Time>2023-01-11T14:56:12.000Z</Time>
            <Position>
              <LatitudeDegrees>-49.2226511053740978240966796875</LatitudeDegrees>
              <LongitudeDegrees>-73.03526460193097591400146484375</LongitudeDegrees>
            </Position>
            <AltitudeMeters>564.4000244140625</AltitudeMeters>
            <DistanceMeters>2354.7438380375</DistanceMeters>
          </Trackpoint>
          <Trackpoint>
            <Time>2023-01-11T14:56:18.000Z</Time>
            <Position>
              <LatitudeDegrees>-49.22264599241316318511962890625</LatitudeDegrees>
              <LongitudeDegrees>-73.0352725647389888763427734375</LongitudeDegrees>
            </Position>
            <AltitudeMeters>564.4000244140625</AltitudeMeters>
            <DistanceMeters>2355.5612887435</DistanceMeters>
          </Trackpoint>
          <Trackpoint>
            <Time>2023-01-11T14:56:31.000Z</Time>
            <Position>
              <LatitudeDegrees>-49.22264389693737030029296875</LatitudeDegrees>
              <LongitudeDegrees>-73.03529175929725170135498046875</LongitudeDegrees>
            </Position>
            <AltitudeMeters>565.4000244140625</AltitudeMeters>
            <DistanceMeters>2356.9771548991</DistanceMeters>
          </Trackpoint>
          <Trackpoint>
            <Time>2023-01-11T14:56:37.000Z</Time>
            <Position>
              <LatitudeDegrees>-49.222641550004482269287109375</LatitudeDegrees>
              <LongitudeDegrees>-73.03532905876636505126953125</LongitudeDegrees>
            </Position>
            <AltitudeMeters>566.4000244140625</AltitudeMeters>
            <DistanceMeters>2359.7016223401</DistanceMeters>
          </Trackpoint>
          <Trackpoint>
            <Time>2023-01-11T14:56:45.000Z</Time>
            <Position>
              <LatitudeDegrees>-49.222595952451229095458984375</LatitudeDegrees>
              <LongitudeDegrees>-73.035391755402088165283203125</LongitudeDegrees>
            </Position>
            <AltitudeMeters>567.79998779296875</AltitudeMeters>
            <DistanceMeters>2366.52305796</DistanceMeters>
          </Trackpoint>
          <Trackpoint>
            <Time>2023-01-11T14:56:49.000Z</Time>
            <Position>
              <LatitudeDegrees>-49.2225773446261882781982421875</LatitudeDegrees>
              <LongitudeDegrees>-73.03545487113296985626220703125</LongitudeDegrees>
            </Position>
            <AltitudeMeters>569</AltitudeMeters>
            <DistanceMeters>2371.5567836678</DistanceMeters>
          </Trackpoint>
          <Trackpoint>
            <Time>2023-01-11T14:56:53.000Z</Time>
            <Position>
              <LatitudeDegrees>-49.22255949117243289947509765625</LatitudeDegrees>
              <LongitudeDegrees>-73.03549778647720813751220703125</LongitudeDegrees>
            </Position>
            <AltitudeMeters>569</AltitudeMeters>
            <DistanceMeters>2375.2567290578</DistanceMeters>
          </Trackpoint>
          <Trackpoint>
            <Time>2023-01-11T14:56:58.000Z</Time>
            <Position>
              <LatitudeDegrees>-49.22255136072635650634765625</LatitudeDegrees>
              <LongitudeDegrees>-73.0355277098715305328369140625</LongitudeDegrees>
            </Position>
            <AltitudeMeters>570</AltitudeMeters>
            <DistanceMeters>2377.6133149385</DistanceMeters>
          </Trackpoint>
          <Trackpoint>
            <Time>2023-01-11T14:57:00.000Z</Time>
            <Position>
              <LatitudeDegrees>-49.22255345620214939117431640625</LatitudeDegrees>
              <LongitudeDegrees>-73.035547994077205657958984375</LongitudeDegrees>
            </Position>
            <AltitudeMeters>570.4000244140625</AltitudeMeters>
            <DistanceMeters>2379.1067769841</DistanceMeters>
          </Trackpoint>
          <Trackpoint>
            <Time>2023-01-11T14:57:05.000Z</Time>
            <Position>
              <LatitudeDegrees>-49.2225505225360393524169921875</LatitudeDegrees>
              <LongitudeDegrees>-73.03559551946818828582763671875</LongitudeDegrees>
            </Position>
            <AltitudeMeters>571.20001220703125</AltitudeMeters>
            <DistanceMeters>2382.5775293487</DistanceMeters>
          </Trackpoint>
          <Trackpoint>
            <Time>2023-01-11T14:57:08.000Z</Time>
            <Position>
              <LatitudeDegrees>-49.22255563549697399139404296875</LatitudeDegrees>
              <LongitudeDegrees>-73.03562686778604984283447265625</LongitudeDegrees>
            </Position>
            <AltitudeMeters>571.79998779296875</AltitudeMeters>
            <DistanceMeters>2384.9245160616</DistanceMeters>
          </Trackpoint>
          <Trackpoint>
            <Time>2023-01-11T14:57:09.000Z</Time>
            <Position>
              <LatitudeDegrees>-49.22255530022084712982177734375</LatitudeDegrees>
              <LongitudeDegrees>-73.03563105873763561248779296875</LongitudeDegrees>
            </Position>
            <AltitudeMeters>572</AltitudeMeters>
            <DistanceMeters>2385.2250169176</DistanceMeters>
          </Trackpoint>
          <Trackpoint>
            <Time>2023-01-11T14:57:10.000Z</Time>
            <Position>
              <LatitudeDegrees>-49.22255312092602252960205078125</LatitudeDegrees>
              <LongitudeDegrees>-73.035636842250823974609375</LongitudeDegrees>
            </Position>
            <AltitudeMeters>572</AltitudeMeters>
            <DistanceMeters>2385.7095599885</DistanceMeters>
          </Trackpoint>
          <Trackpoint>
            <Time>2023-01-11T14:57:14.000Z</Time>
            <Position>
              <LatitudeDegrees>-49.22254507429897785186767578125</LatitudeDegrees>
              <LongitudeDegrees>-73.035625778138637542724609375</LongitudeDegrees>
            </Position>
            <AltitudeMeters>572</AltitudeMeters>
            <DistanceMeters>2386.9078012641</DistanceMeters>
          </Trackpoint>
          <Trackpoint>
            <Time>2023-01-11T14:57:17.000Z</Time>
            <Position>
              <LatitudeDegrees>-49.2225468344986438751220703125</LatitudeDegrees>
              <LongitudeDegrees>-73.0356279574334621429443359375</LongitudeDegrees>
            </Position>
            <AltitudeMeters>572</AltitudeMeters>
            <DistanceMeters>2387.1405682262</DistanceMeters>
          </Trackpoint>
          <Trackpoint>
            <Time>2023-01-11T14:57:18.000Z</Time>
            <Position>
              <LatitudeDegrees>-49.2225468344986438751220703125</LatitudeDegrees>
              <LongitudeDegrees>-73.0356279574334621429443359375</LongitudeDegrees>
            </Position>
            <AltitudeMeters>572.20001220703125</AltitudeMeters>
            <DistanceMeters>2387.1405682262</DistanceMeters>
          </Trackpoint>
          <Trackpoint>
            <Time>2023-01-11T14:57:20.000Z</Time>
            <Position>
              <LatitudeDegrees>-49.2225468344986438751220703125</LatitudeDegrees>
              <LongitudeDegrees>-73.0356279574334621429443359375</LongitudeDegrees>
            </Position>
            <AltitudeMeters>572.20001220703125</AltitudeMeters>
            <DistanceMeters>2387.1405682262</DistanceMeters>
          </Trackpoint>
          <Trackpoint>
            <Time>2023-01-11T14:57:23.000Z</Time>
            <Position>
              <LatitudeDegrees>-49.2225468344986438751220703125</LatitudeDegrees>
              <LongitudeDegrees>-73.0356279574334621429443359375</LongitudeDegrees>
            </Position>
            <AltitudeMeters>572.20001220703125</AltitudeMeters>
            <DistanceMeters>2387.1405682262</DistanceMeters>
          </Trackpoint>
          <Trackpoint>
            <Time>2023-01-11T14:57:35.000Z</Time>
            <Position>
              <LatitudeDegrees>-49.2225428111851215362548828125</LatitudeDegrees>
              <LongitudeDegrees>-73.035642541944980621337890625</LongitudeDegrees>
            </Position>
            <AltitudeMeters>572.20001220703125</AltitudeMeters>
            <DistanceMeters>2388.2887803847</DistanceMeters>
          </Trackpoint>
          <Trackpoint>
            <Time>2023-01-11T14:57:44.000Z</Time>
            <Position>
              <LatitudeDegrees>-49.2225273884832859039306640625</LatitudeDegrees>
              <LongitudeDegrees>-73.03565084002912044525146484375</LongitudeDegrees>
            </Position>
            <AltitudeMeters>573.4000244140625</AltitudeMeters>
            <DistanceMeters>2390.1067484753</DistanceMeters>
          </Trackpoint>
          <Trackpoint>
            <Time>2023-01-11T14:57:46.000Z</Time>
            <Position>
              <LatitudeDegrees>-49.222528897225856781005859375</LatitudeDegrees>
              <LongitudeDegrees>-73.03565637208521366119384765625</LongitudeDegrees>
            </Position>
            <AltitudeMeters>573.5999755859375</AltitudeMeters>
            <DistanceMeters>2390.5422155869</DistanceMeters>
          </Trackpoint>
          <Trackpoint>
            <Time>2023-01-11T14:57:49.000Z</Time>
            <Position>
              <LatitudeDegrees>-49.22252797521650791168212890625</LatitudeDegrees>
              <LongitudeDegrees>-73.0357087589800357818603515625</LongitudeDegrees>
            </Position>
            <AltitudeMeters>573.5999755859375</AltitudeMeters>
            <DistanceMeters>2394.3515899247</DistanceMeters>
          </Trackpoint>
          <Trackpoint>
            <Time>2023-01-11T14:57:55.000Z</Time>
            <Position>
              <LatitudeDegrees>-49.222520180046558380126953125</LatitudeDegrees>
              <LongitudeDegrees>-73.035815544426441192626953125</LongitudeDegrees>
            </Position>
            <AltitudeMeters>574.20001220703125</AltitudeMeters>
            <DistanceMeters>2402.1628783288</DistanceMeters>
          </Trackpoint>
          <Trackpoint>
            <Time>2023-01-11T14:57:58.000Z</Time>
            <Position>
              <LatitudeDegrees>-49.22251221723854541778564453125</LatitudeDegrees>
              <LongitudeDegrees>-73.035843372344970703125</LongitudeDegrees>
            </Position>
            <AltitudeMeters>574.5999755859375</AltitudeMeters>
            <DistanceMeters>2404.371099622</DistanceMeters>
          </Trackpoint>
          <Trackpoint>
            <Time>2023-01-11T14:57:59.000Z</Time>
            <Position>
              <LatitudeDegrees>-49.22250735573470592498779296875</LatitudeDegrees>
              <LongitudeDegrees>-73.0358482338488101959228515625</LongitudeDegrees>
            </Position>
            <AltitudeMeters>574.79998779296875</AltitudeMeters>
            <DistanceMeters>2405.0156021561</DistanceMeters>
          </Trackpoint>
          <Trackpoint>
            <Time>2023-01-11T14:58:08.000Z</Time>
            <Position>
              <LatitudeDegrees>-49.22245237044990062713623046875</LatitudeDegrees>
              <LongitudeDegrees>-73.03586189635097980499267578125</LongitudeDegrees>
            </Position>
            <AltitudeMeters>575.4000244140625</AltitudeMeters>
            <DistanceMeters>2411.2156856573</DistanceMeters>
          </Trackpoint>
          <Trackpoint>
            <Time>2023-01-11T14:58:09.000Z</Time>
            <Position>
              <LatitudeDegrees>-49.22244365327060222625732421875</LatitudeDegrees>
              <LongitudeDegrees>-73.03587011061608791351318359375</LongitudeDegrees>
            </Position>
            <AltitudeMeters>575.5999755859375</AltitudeMeters>
            <DistanceMeters>2412.3560062297</DistanceMeters>
          </Trackpoint>
          <Trackpoint>
            <Time>2023-01-11T14:58:13.000Z</Time>
            <Position>
              <LatitudeDegrees>-49.2224251292645931243896484375</LatitudeDegrees>
              <LongitudeDegrees>-73.035872876644134521484375</LongitudeDegrees>
            </Position>
            <AltitudeMeters>576.79998779296875</AltitudeMeters>
            <DistanceMeters>2414.4292443703</DistanceMeters>
          </Trackpoint>
          <Trackpoint>
            <Time>2023-01-11T14:58:15.000Z</Time>
            <Position>
              <LatitudeDegrees>-49.22242169268429279327392578125</LatitudeDegrees>
              <LongitudeDegrees>-73.03588737733662128448486328125</LongitudeDegrees>
            </Position>
            <AltitudeMeters>577.20001220703125</AltitudeMeters>
            <DistanceMeters>2415.5455555049</DistanceMeters>
          </Trackpoint>
          <Trackpoint>
            <Time>2023-01-11T14:58:21.000Z</Time>
            <Position>
              <LatitudeDegrees>-49.2223922722041606903076171875</LatitudeDegrees>
              <LongitudeDegrees>-73.0358991958200931549072265625</LongitudeDegrees>
            </Position>
            <AltitudeMeters>578.20001220703125</AltitudeMeters>
            <DistanceMeters>2418.9293606013</DistanceMeters>
          </Trackpoint>
          <Trackpoint>
            <Time>2023-01-11T14:58:23.000Z</Time>
            <Position>
              <LatitudeDegrees>-49.22238514758646488189697265625</LatitudeDegrees>
              <LongitudeDegrees>-73.0358970165252685546875</LongitudeDegrees>
            </Position>
            <AltitudeMeters>578.5999755859375</AltitudeMeters>
            <DistanceMeters>2419.7412692048</DistanceMeters>
          </Trackpoint>
          <Trackpoint>
            <Time>2023-01-11T14:58:28.000Z</Time>
            <Position>
              <LatitudeDegrees>-49.2223577387630939483642578125</LatitudeDegrees>
              <LongitudeDegrees>-73.03589609451591968536376953125</LongitudeDegrees>
            </Position>
            <AltitudeMeters>579.20001220703125</AltitudeMeters>
            <DistanceMeters>2422.7939792943</DistanceMeters>
          </Trackpoint>
          <Trackpoint>
            <Time>2023-01-11T14:58:31.000Z</Time>
            <Position>
              <LatitudeDegrees>-49.22233812510967254638671875</LatitudeDegrees>
              <LongitudeDegrees>-73.03588301874697208404541015625</LongitudeDegrees>
            </Position>
            <AltitudeMeters>579.4000244140625</AltitudeMeters>
            <DistanceMeters>2425.1753419308</DistanceMeters>
          </Trackpoint>
          <Trackpoint>
            <Time>2023-01-11T14:58:37.000Z</Time>
            <Position>
              <LatitudeDegrees>-49.2223121412098407745361328125</LatitudeDegrees>
              <LongitudeDegrees>-73.03590078838169574737548828125</LongitudeDegrees>
            </Position>
            <AltitudeMeters>580.79998779296875</AltitudeMeters>
            <DistanceMeters>2428.344165846</DistanceMeters>
          </Trackpoint>
          <Trackpoint>
            <Time>2023-01-11T14:58:40.000Z</Time>
            <Position>
              <LatitudeDegrees>-49.22230183146893978118896484375</LatitudeDegrees>
              <LongitudeDegrees>-73.03592174313962459564208984375</LongitudeDegrees>
            </Position>
            <AltitudeMeters>581.20001220703125</AltitudeMeters>
            <DistanceMeters>2430.2541791663</DistanceMeters>
          </Trackpoint>
          <Trackpoint>
            <Time>2023-01-11T14:58:45.000Z</Time>
            <Position>
              <LatitudeDegrees>-49.2222725786268711090087890625</LatitudeDegrees>
              <LongitudeDegrees>-73.0359037220478057861328125</LongitudeDegrees>
            </Position>
            <AltitudeMeters>581.79998779296875</AltitudeMeters>
            <DistanceMeters>2433.7637410007</DistanceMeters>
          </Trackpoint>
          <Trackpoint>
            <Time>2023-01-11T14:58:48.000Z</Time>
            <Position>
              <LatitudeDegrees>-49.22225363552570343017578125</LatitudeDegrees>
              <LongitudeDegrees>-73.0358851142227649688720703125</LongitudeDegrees>
            </Position>
            <AltitudeMeters>582.20001220703125</AltitudeMeters>
            <DistanceMeters>2436.2689162697</DistanceMeters>
          </Trackpoint>
          <Trackpoint>
            <Time>2023-01-11T14:58:50.000Z</Time>
            <Position>
              <LatitudeDegrees>-49.2222356982529163360595703125</LatitudeDegrees>
              <LongitudeDegrees>-73.03587866015732288360595703125</LongitudeDegrees>
            </Position>
            <AltitudeMeters>584.20001220703125</AltitudeMeters>
            <DistanceMeters>2438.3202611025</DistanceMeters>
          </Trackpoint>
          <Trackpoint>
            <Time>2023-01-11T14:58:54.000Z</Time>
            <Position>
              <LatitudeDegrees>-49.2222162522375583648681640625</LatitudeDegrees>
              <LongitudeDegrees>-73.0359015427529811859130859375</LongitudeDegrees>
            </Position>
            <AltitudeMeters>584.4000244140625</AltitudeMeters>
            <DistanceMeters>2441.0513493732</DistanceMeters>
          </Trackpoint>
          <Trackpoint>
            <Time>2023-01-11T14:58:56.000Z</Time>
            <Position>
              <LatitudeDegrees>-49.222213067114353179931640625</LatitudeDegrees>
              <LongitudeDegrees>-73.0359042249619960784912109375</LongitudeDegrees>
            </Position>
            <AltitudeMeters>583</AltitudeMeters>
            <DistanceMeters>2441.4655612181</DistanceMeters>
          </Trackpoint>
          <Trackpoint>
            <Time>2023-01-11T14:59:00.000Z</Time>
            <Position>
              <LatitudeDegrees>-49.22221080400049686431884765625</LatitudeDegrees>
              <LongitudeDegrees>-73.03589039482176303863525390625</LongitudeDegrees>
            </Position>
            <AltitudeMeters>582.79998779296875</AltitudeMeters>
            <DistanceMeters>2442.5065267186</DistanceMeters>
          </Trackpoint>
          <Trackpoint>
            <Time>2023-01-11T14:59:03.000Z</Time>
            <Position>
              <LatitudeDegrees>-49.222203008830547332763671875</LatitudeDegrees>
              <LongitudeDegrees>-73.03588234819471836090087890625</LongitudeDegrees>
            </Position>
            <AltitudeMeters>585.20001220703125</AltitudeMeters>
            <DistanceMeters>2443.5518205767</DistanceMeters>
          </Trackpoint>
          <Trackpoint>
            <Time>2023-01-11T14:59:05.000Z</Time>
            <Position>
              <LatitudeDegrees>-49.22218859195709228515625</LatitudeDegrees>
              <LongitudeDegrees>-73.03588922135531902313232421875</LongitudeDegrees>
            </Position>
            <AltitudeMeters>585.4000244140625</AltitudeMeters>
            <DistanceMeters>2445.2303270111</DistanceMeters>
          </Trackpoint>
          <Trackpoint>
            <Time>2023-01-11T14:59:06.000Z</Time>
            <Position>
              <LatitudeDegrees>-49.2221783660352230072021484375</LatitudeDegrees>
              <LongitudeDegrees>-73.03589039482176303863525390625</LongitudeDegrees>
            </Position>
            <AltitudeMeters>585.79998779296875</AltitudeMeters>
            <DistanceMeters>2446.3706475836</DistanceMeters>
          </Trackpoint>
          <Trackpoint>
            <Time>2023-01-11T14:59:12.000Z</Time>
            <Position>
              <LatitudeDegrees>-49.22214232385158538818359375</LatitudeDegrees>
              <LongitudeDegrees>-73.035937249660491943359375</LongitudeDegrees>
            </Position>
            <AltitudeMeters>585.5999755859375</AltitudeMeters>
            <DistanceMeters>2451.6324167136</DistanceMeters>
          </Trackpoint>
          <Trackpoint>
            <Time>2023-01-11T14:59:21.000Z</Time>
            <Position>
              <LatitudeDegrees>-49.22208331525325775146484375</LatitudeDegrees>
              <LongitudeDegrees>-73.03599315695464611053466796875</LongitudeDegrees>
            </Position>
            <AltitudeMeters>584.79998779296875</AltitudeMeters>
            <DistanceMeters>2459.355347175</DistanceMeters>
          </Trackpoint>
          <Trackpoint>
            <Time>2023-01-11T14:59:27.000Z</Time>
            <Position>
              <LatitudeDegrees>-49.22207686118781566619873046875</LatitudeDegrees>
              <LongitudeDegrees>-73.035997934639453887939453125</LongitudeDegrees>
            </Position>
            <AltitudeMeters>584.79998779296875</AltitudeMeters>
            <DistanceMeters>2460.1503977087</DistanceMeters>
          </Trackpoint>
          <Trackpoint>
            <Time>2023-01-11T14:59:34.000Z</Time>
            <Position>
              <LatitudeDegrees>-49.2221123166382312774658203125</LatitudeDegrees>
              <LongitudeDegrees>-73.0360195599496364593505859375</LongitudeDegrees>
            </Position>
            <AltitudeMeters>585.5999755859375</AltitudeMeters>
            <DistanceMeters>2464.3979961754</DistanceMeters>
          </Trackpoint>
          <Trackpoint>
            <Time>2023-01-11T14:59:38.000Z</Time>
            <Position>
              <LatitudeDegrees>-49.22212128527462482452392578125</LatitudeDegrees>
              <LongitudeDegrees>-73.03604520857334136962890625</LongitudeDegrees>
            </Position>
            <AltitudeMeters>586.20001220703125</AltitudeMeters>
            <DistanceMeters>2466.5100704552</DistanceMeters>
          </Trackpoint>
          <Trackpoint>
            <Time>2023-01-11T14:59:40.000Z</Time>
            <Position>
              <LatitudeDegrees>-49.22212480567395687103271484375</LatitudeDegrees>
              <LongitudeDegrees>-73.03606121800839900970458984375</LongitudeDegrees>
            </Position>
            <AltitudeMeters>586.5999755859375</AltitudeMeters>
            <DistanceMeters>2467.7344040248</DistanceMeters>
          </Trackpoint>
          <Trackpoint>
            <Time>2023-01-11T14:59:41.000Z</Time>
            <Position>
              <LatitudeDegrees>-49.2221284098923206329345703125</LatitudeDegrees>
              <LongitudeDegrees>-73.0360698513686656951904296875</LongitudeDegrees>
            </Position>
            <AltitudeMeters>586.5999755859375</AltitudeMeters>
            <DistanceMeters>2468.482645122</DistanceMeters>
          </Trackpoint>
          <Trackpoint>
            <Time>2023-01-11T14:59:46.000Z</Time>
            <Position>
              <LatitudeDegrees>-49.22210234217345714569091796875</LatitudeDegrees>
              <LongitudeDegrees>-73.03609491325914859771728515625</LongitudeDegrees>
            </Position>
            <AltitudeMeters>588.20001220703125</AltitudeMeters>
            <DistanceMeters>2471.908882034</DistanceMeters>
          </Trackpoint>
          <Trackpoint>
            <Time>2023-01-11T14:59:48.000Z</Time>
            <Position>
              <LatitudeDegrees>-49.22209312207996845245361328125</LatitudeDegrees>
              <LongitudeDegrees>-73.0361063964664936065673828125</LongitudeDegrees>
            </Position>
            <AltitudeMeters>588.79998779296875</AltitudeMeters>
            <DistanceMeters>2473.2290353409</DistanceMeters>
          </Trackpoint>
          <Trackpoint>
            <Time>2023-01-11T14:59:50.000Z</Time>
            <Position>
              <LatitudeDegrees>-49.22208658419549465179443359375</LatitudeDegrees>
              <LongitudeDegrees>-73.03612089715898036956787109375</LongitudeDegrees>
            </Position>
            <AltitudeMeters>589.4000244140625</AltitudeMeters>
            <DistanceMeters>2474.511015806</DistanceMeters>
          </Trackpoint>
          <Trackpoint>
            <Time>2023-01-11T14:59:55.000Z</Time>
            <Position>
              <LatitudeDegrees>-49.2220799624919891357421875</LatitudeDegrees>
              <LongitudeDegrees>-73.0361161194741725921630859375</LongitudeDegrees>
            </Position>
            <AltitudeMeters>589.79998779296875</AltitudeMeters>
            <DistanceMeters>2475.3173442155</DistanceMeters>
          </Trackpoint>
          <Trackpoint>
            <Time>2023-01-11T15:00:00.000Z</Time>
            <Position>
              <LatitudeDegrees>-49.2220799624919891357421875</LatitudeDegrees>
              <LongitudeDegrees>-73.0361161194741725921630859375</LongitudeDegrees>
            </Position>
            <AltitudeMeters>590.5999755859375</AltitudeMeters>
            <DistanceMeters>2475.3173442155</DistanceMeters>
          </Trackpoint>
          <Trackpoint>
            <Time>2023-01-11T15:00:03.000Z</Time>
            <Position>
              <LatitudeDegrees>-49.2220799624919891357421875</LatitudeDegrees>
              <LongitudeDegrees>-73.0361161194741725921630859375</LongitudeDegrees>
            </Position>
            <AltitudeMeters>589.5999755859375</AltitudeMeters>
            <DistanceMeters>2475.3173442155</DistanceMeters>
          </Trackpoint>
          <Trackpoint>
            <Time>2023-01-11T15:00:21.000Z</Time>
            <Position>
              <LatitudeDegrees>-49.22207736410200595855712890625</LatitudeDegrees>
              <LongitudeDegrees>-73.0361397564411163330078125</LongitudeDegrees>
            </Position>
            <AltitudeMeters>590.5999755859375</AltitudeMeters>
            <DistanceMeters>2477.0592126621</DistanceMeters>
          </Trackpoint>
          <Trackpoint>
            <Time>2023-01-11T15:00:31.000Z</Time>
            <Position>
              <LatitudeDegrees>-49.2220808006823062896728515625</LatitudeDegrees>
              <LongitudeDegrees>-73.0361586995422840118408203125</LongitudeDegrees>
            </Position>
            <AltitudeMeters>591.79998779296875</AltitudeMeters>
            <DistanceMeters>2478.487777423</DistanceMeters>
          </Trackpoint>
          <Trackpoint>
            <Time>2023-01-11T15:00:42.000Z</Time>
            <Position>
              <LatitudeDegrees>-49.222088344395160675048828125</LatitudeDegrees>
              <LongitudeDegrees>-73.03627143613994121551513671875</LongitudeDegrees>
            </Position>
            <AltitudeMeters>592.4000244140625</AltitudeMeters>
            <DistanceMeters>2486.7261058064</DistanceMeters>
          </Trackpoint>
          <Trackpoint>
            <Time>2023-01-11T15:00:46.000Z</Time>
            <Position>
              <LatitudeDegrees>-49.222064204514026641845703125</LatitudeDegrees>
              <LongitudeDegrees>-73.036339916288852691650390625</LongitudeDegrees>
            </Position>
            <AltitudeMeters>590.79998779296875</AltitudeMeters>
            <DistanceMeters>2492.3831890582</DistanceMeters>
          </Trackpoint>
          <Trackpoint>
            <Time>2023-01-11T15:00:48.000Z</Time>
            <Position>
              <LatitudeDegrees>-49.2220476083457469940185546875</LatitudeDegrees>
              <LongitudeDegrees>-73.0363464541733264923095703125</LongitudeDegrees>
            </Position>
            <AltitudeMeters>590.79998779296875</AltitudeMeters>
            <DistanceMeters>2494.2932023784</DistanceMeters>
          </Trackpoint>
          <Trackpoint>
            <Time>2023-01-11T15:00:49.000Z</Time>
            <Position>
              <LatitudeDegrees>-49.22204283066093921661376953125</LatitudeDegrees>
              <LongitudeDegrees>-73.03634695708751678466796875</LongitudeDegrees>
            </Position>
            <AltitudeMeters>590.79998779296875</AltitudeMeters>
            <DistanceMeters>2494.8307546514</DistanceMeters>
          </Trackpoint>
          <Trackpoint>
            <Time>2023-01-11T15:00:53.000Z</Time>
            <Position>
              <LatitudeDegrees>-49.2220355384051799774169921875</LatitudeDegrees>
              <LongitudeDegrees>-73.0363545008003711700439453125</LongitudeDegrees>
            </Position>
            <AltitudeMeters>592</AltitudeMeters>
            <DistanceMeters>2495.8091145561</DistanceMeters>
          </Trackpoint>
          <Trackpoint>
            <Time>2023-01-11T15:00:54.000Z</Time>
            <Position>
              <LatitudeDegrees>-49.2220382206141948699951171875</LatitudeDegrees>
              <LongitudeDegrees>-73.03636305034160614013671875</LongitudeDegrees>
            </Position>
            <AltitudeMeters>592</AltitudeMeters>
            <DistanceMeters>2496.5009194791</DistanceMeters>
          </Trackpoint>
          <Trackpoint>
            <Time>2023-01-11T15:00:56.000Z</Time>
            <Position>
              <LatitudeDegrees>-49.2220375500619411468505859375</LatitudeDegrees>
              <LongitudeDegrees>-73.0363860167562961578369140625</LongitudeDegrees>
            </Position>
            <AltitudeMeters>592.20001220703125</AltitudeMeters>
            <DistanceMeters>2498.174037436</DistanceMeters>
          </Trackpoint>
          <Trackpoint>
            <Time>2023-01-11T15:00:57.000Z</Time>
            <Position>
              <LatitudeDegrees>-49.22204400412738323211669921875</LatitudeDegrees>
              <LongitudeDegrees>-73.036396242678165435791015625</LongitudeDegrees>
            </Position>
            <AltitudeMeters>592.4000244140625</AltitudeMeters>
            <DistanceMeters>2499.206291775</DistanceMeters>
          </Trackpoint>
          <Trackpoint>
            <Time>2023-01-11T15:01:03.000Z</Time>
            <Position>
              <LatitudeDegrees>-49.22202858142554759979248046875</LatitudeDegrees>
              <LongitudeDegrees>-73.03642499260604381561279296875</LongitudeDegrees>
            </Position>
            <AltitudeMeters>592.79998779296875</AltitudeMeters>
            <DistanceMeters>2501.9074585167</DistanceMeters>
          </Trackpoint>
          <Trackpoint>
            <Time>2023-01-11T15:01:10.000Z</Time>
            <Position>
              <LatitudeDegrees>-49.222017265856266021728515625</LatitudeDegrees>
              <LongitudeDegrees>-73.036449216306209564208984375</LongitudeDegrees>
            </Position>
            <AltitudeMeters>593.20001220703125</AltitudeMeters>
            <DistanceMeters>2504.0723164045</DistanceMeters>
          </Trackpoint>
          <Trackpoint>
            <Time>2023-01-11T15:01:13.000Z</Time>
            <Position>
              <LatitudeDegrees>-49.2220050282776355743408203125</LatitudeDegrees>
              <LongitudeDegrees>-73.03647662512958049774169921875</LongitudeDegrees>
            </Position>
            <AltitudeMeters>594.20001220703125</AltitudeMeters>
            <DistanceMeters>2506.4875657463</DistanceMeters>
          </Trackpoint>
          <Trackpoint>
            <Time>2023-01-11T15:01:14.000Z</Time>
            <Position>
              <LatitudeDegrees>-49.2220008373260498046875</LatitudeDegrees>
              <LongitudeDegrees>-73.03647897206246852874755859375</LongitudeDegrees>
            </Position>
            <AltitudeMeters>594.5999755859375</AltitudeMeters>
            <DistanceMeters>2506.9903998545</DistanceMeters>
          </Trackpoint>
          <Trackpoint>
            <Time>2023-01-11T15:01:17.000Z</Time>
            <Position>
              <LatitudeDegrees>-49.22199974767863750457763671875</LatitudeDegrees>
              <LongitudeDegrees>-73.0365030281245708465576171875</LongitudeDegrees>
            </Position>
            <AltitudeMeters>595.4000244140625</AltitudeMeters>
            <DistanceMeters>2508.7426058901</DistanceMeters>
          </Trackpoint>
          <Trackpoint>
            <Time>2023-01-11T15:01:19.000Z</Time>
            <Position>
              <LatitudeDegrees>-49.22199740074574947357177734375</LatitudeDegrees>
              <LongitudeDegrees>-73.03652809001505374908447265625</LongitudeDegrees>
            </Position>
            <AltitudeMeters>595.4000244140625</AltitudeMeters>
            <DistanceMeters>2510.5827903011</DistanceMeters>
          </Trackpoint>
          <Trackpoint>
            <Time>2023-01-11T15:01:22.000Z</Time>
            <Position>
              <LatitudeDegrees>-49.2219758592545986175537109375</LatitudeDegrees>
              <LongitudeDegrees>-73.03655482828617095947265625</LongitudeDegrees>
            </Position>
            <AltitudeMeters>595.79998779296875</AltitudeMeters>
            <DistanceMeters>2513.6707930091</DistanceMeters>
          </Trackpoint>
          <Trackpoint>
            <Time>2023-01-11T15:01:28.000Z</Time>
            <Position>
              <LatitudeDegrees>-49.2219312675297260284423828125</LatitudeDegrees>
              <LongitudeDegrees>-73.03661894984543323516845703125</LongitudeDegrees>
            </Position>
            <AltitudeMeters>596.4000244140625</AltitudeMeters>
            <DistanceMeters>2520.4796411102</DistanceMeters>
          </Trackpoint>
          <Trackpoint>
            <Time>2023-01-11T15:01:32.000Z</Time>
            <Position>
              <LatitudeDegrees>-49.22191056422889232635498046875</LatitudeDegrees>
              <LongitudeDegrees>-73.03666052408516407012939453125</LongitudeDegrees>
            </Position>
            <AltitudeMeters>597.20001220703125</AltitudeMeters>
            <DistanceMeters>2524.280709685</DistanceMeters>
          </Trackpoint>
          <Trackpoint>
            <Time>2023-01-11T15:01:35.000Z</Time>
            <Position>
              <LatitudeDegrees>-49.2218868434429168701171875</LatitudeDegrees>
              <LongitudeDegrees>-73.0366807244718074798583984375</LongitudeDegrees>
            </Position>
            <AltitudeMeters>597.4000244140625</AltitudeMeters>
            <DistanceMeters>2527.303694528</DistanceMeters>
          </Trackpoint>
          <Trackpoint>
            <Time>2023-01-11T15:01:36.000Z</Time>
            <Position>
              <LatitudeDegrees>-49.221885837614536285400390625</LatitudeDegrees>
              <LongitudeDegrees>-73.036688603460788726806640625</LongitudeDegrees>
            </Position>
            <AltitudeMeters>598</AltitudeMeters>
            <DistanceMeters>2527.897136169</DistanceMeters>
          </Trackpoint>
          <Trackpoint>
            <Time>2023-01-11T15:01:41.000Z</Time>
            <Position>
              <LatitudeDegrees>-49.2218873463571071624755859375</LatitudeDegrees>
              <LongitudeDegrees>-73.03673579357564449310302734375</LongitudeDegrees>
            </Position>
            <AltitudeMeters>599.20001220703125</AltitudeMeters>
            <DistanceMeters>2531.3299556748</DistanceMeters>
          </Trackpoint>
          <Trackpoint>
            <Time>2023-01-11T15:01:43.000Z</Time>
            <Position>
              <LatitudeDegrees>-49.2218886874616146087646484375</LatitudeDegrees>
              <LongitudeDegrees>-73.0367561616003513336181640625</LongitudeDegrees>
            </Position>
            <AltitudeMeters>599.79998779296875</AltitudeMeters>
            <DistanceMeters>2532.8173590259</DistanceMeters>
          </Trackpoint>
          <Trackpoint>
            <Time>2023-01-11T15:01:47.000Z</Time>
            <Position>
              <LatitudeDegrees>-49.22188818454742431640625</LatitudeDegrees>
              <LongitudeDegrees>-73.0368024297058582305908203125</LongitudeDegrees>
            </Position>
            <AltitudeMeters>600.4000244140625</AltitudeMeters>
            <DistanceMeters>2536.1824319613</DistanceMeters>
          </Trackpoint>
          <Trackpoint>
            <Time>2023-01-11T15:01:48.000Z</Time>
            <Position>
              <LatitudeDegrees>-49.22188692726194858551025390625</LatitudeDegrees>
              <LongitudeDegrees>-73.03680938668549060821533203125</LongitudeDegrees>
            </Position>
            <AltitudeMeters>601.20001220703125</AltitudeMeters>
            <DistanceMeters>2536.7029147116</DistanceMeters>
          </Trackpoint>
          <Trackpoint>
            <Time>2023-01-11T15:01:49.000Z</Time>
            <Position>
              <LatitudeDegrees>-49.2218860052525997161865234375</LatitudeDegrees>
              <LongitudeDegrees>-73.0368188582360744476318359375</LongitudeDegrees>
            </Position>
            <AltitudeMeters>601.4000244140625</AltitudeMeters>
            <DistanceMeters>2537.3947196346</DistanceMeters>
          </Trackpoint>
          <Trackpoint>
            <Time>2023-01-11T15:01:54.000Z</Time>
            <Position>
              <LatitudeDegrees>-49.221878461539745330810546875</LatitudeDegrees>
              <LongitudeDegrees>-73.03684425540268421173095703125</LongitudeDegrees>
            </Position>
            <AltitudeMeters>601.20001220703125</AltitudeMeters>
            <DistanceMeters>2539.4217087273</DistanceMeters>
          </Trackpoint>
          <Trackpoint>
            <Time>2023-01-11T15:01:59.000Z</Time>
            <Position>
              <LatitudeDegrees>-49.22186873853206634521484375</LatitudeDegrees>
              <LongitudeDegrees>-73.0368641205132007598876953125</LongitudeDegrees>
            </Position>
            <AltitudeMeters>601.20001220703125</AltitudeMeters>
            <DistanceMeters>2541.2247138632</DistanceMeters>
          </Trackpoint>
          <Trackpoint>
            <Time>2023-01-11T15:02:02.000Z</Time>
            <Position>
              <LatitudeDegrees>-49.22184920869767665863037109375</LatitudeDegrees>
              <LongitudeDegrees>-73.0368708260357379913330078125</LongitudeDegrees>
            </Position>
            <AltitudeMeters>601.5999755859375</AltitudeMeters>
            <DistanceMeters>2543.4532878566</DistanceMeters>
          </Trackpoint>
          <Trackpoint>
            <Time>2023-01-11T15:02:04.000Z</Time>
            <Position>
              <LatitudeDegrees>-49.22184267081320285797119140625</LatitudeDegrees>
              <LongitudeDegrees>-73.03687929175794124603271484375</LongitudeDegrees>
            </Position>
            <AltitudeMeters>602.20001220703125</AltitudeMeters>
            <DistanceMeters>2544.4082945167</DistanceMeters>
          </Trackpoint>
          <Trackpoint>
            <Time>2023-01-11T15:02:05.000Z</Time>
            <Position>
              <LatitudeDegrees>-49.2218390665948390960693359375</LatitudeDegrees>
              <LongitudeDegrees>-73.03688448853790760040283203125</LongitudeDegrees>
            </Position>
            <AltitudeMeters>602.5999755859375</AltitudeMeters>
            <DistanceMeters>2544.9623907169</DistanceMeters>
          </Trackpoint>
          <Trackpoint>
            <Time>2023-01-11T15:02:09.000Z</Time>
            <Position>
              <LatitudeDegrees>-49.2218320257961750030517578125</LatitudeDegrees>
              <LongitudeDegrees>-73.036915920674800872802734375</LongitudeDegrees>
            </Position>
            <AltitudeMeters>603.79998779296875</AltitudeMeters>
            <DistanceMeters>2547.3776400587</DistanceMeters>
          </Trackpoint>
          <Trackpoint>
            <Time>2023-01-11T15:02:16.000Z</Time>
            <Position>
              <LatitudeDegrees>-49.2218135856091976165771484375</LatitudeDegrees>
              <LongitudeDegrees>-73.0369848199188709259033203125</LongitudeDegrees>
            </Position>
            <AltitudeMeters>604.20001220703125</AltitudeMeters>
            <DistanceMeters>2552.7899933347</DistanceMeters>
          </Trackpoint>
          <Trackpoint>
            <Time>2023-01-11T15:02:23.000Z</Time>
            <Position>
              <LatitudeDegrees>-49.22177620232105255126953125</LatitudeDegrees>
              <LongitudeDegrees>-73.0370166711509227752685546875</LongitudeDegrees>
            </Position>
            <AltitudeMeters>605.20001220703125</AltitudeMeters>
            <DistanceMeters>2557.5527186078</DistanceMeters>
          </Trackpoint>
          <Trackpoint>
            <Time>2023-01-11T15:02:27.000Z</Time>
            <Position>
              <LatitudeDegrees>-49.22176639549434185028076171875</LatitudeDegrees>
              <LongitudeDegrees>-73.0370387993752956390380859375</LongitudeDegrees>
            </Position>
            <AltitudeMeters>606.4000244140625</AltitudeMeters>
            <DistanceMeters>2559.500186735</DistanceMeters>
          </Trackpoint>
          <Trackpoint>
            <Time>2023-01-11T15:02:32.000Z</Time>
            <Position>
              <LatitudeDegrees>-49.221777878701686859130859375</LatitudeDegrees>
              <LongitudeDegrees>-73.03702999837696552276611328125</LongitudeDegrees>
            </Position>
            <AltitudeMeters>606.20001220703125</AltitudeMeters>
            <DistanceMeters>2560.928751496</DistanceMeters>
          </Trackpoint>
          <Trackpoint>
            <Time>2023-01-11T15:02:40.000Z</Time>
            <Position>
              <LatitudeDegrees>-49.221777878701686859130859375</LatitudeDegrees>
              <LongitudeDegrees>-73.03702999837696552276611328125</LongitudeDegrees>
            </Position>
            <AltitudeMeters>606</AltitudeMeters>
            <DistanceMeters>2560.928751496</DistanceMeters>
          </Trackpoint>
          <Trackpoint>
            <Time>2023-01-11T15:02:50.000Z</Time>
            <Position>
              <LatitudeDegrees>-49.221775531768798828125</LatitudeDegrees>
              <LongitudeDegrees>-73.03704391233623027801513671875</LongitudeDegrees>
            </Position>
            <AltitudeMeters>606.4000244140625</AltitudeMeters>
            <DistanceMeters>2561.974045354</DistanceMeters>
          </Trackpoint>
          <Trackpoint>
            <Time>2023-01-11T15:02:51.000Z</Time>
            <Position>
              <LatitudeDegrees>-49.221769161522388458251953125</LatitudeDegrees>
              <LongitudeDegrees>-73.03706310689449310302734375</LongitudeDegrees>
            </Position>
            <AltitudeMeters>605.20001220703125</AltitudeMeters>
            <DistanceMeters>2563.5383825032</DistanceMeters>
          </Trackpoint>
          <Trackpoint>
            <Time>2023-01-11T15:02:53.000Z</Time>
            <Position>
              <LatitudeDegrees>-49.22176220454275608062744140625</LatitudeDegrees>
              <LongitudeDegrees>-73.03708950988948345184326171875</LongitudeDegrees>
            </Position>
            <AltitudeMeters>605.20001220703125</AltitudeMeters>
            <DistanceMeters>2565.6072605166</DistanceMeters>
          </Trackpoint>
          <Trackpoint>
            <Time>2023-01-11T15:03:02.000Z</Time>
            <Position>
              <LatitudeDegrees>-49.221732951700687408447265625</LatitudeDegrees>
              <LongitudeDegrees>-73.03713058121502399444580078125</LongitudeDegrees>
            </Position>
            <AltitudeMeters>605.5999755859375</AltitudeMeters>
            <DistanceMeters>2570.023703103</DistanceMeters>
          </Trackpoint>
          <Trackpoint>
            <Time>2023-01-11T15:03:12.000Z</Time>
            <Position>
              <LatitudeDegrees>-49.2217337898910045623779296875</LatitudeDegrees>
              <LongitudeDegrees>-73.03713058121502399444580078125</LongitudeDegrees>
            </Position>
            <AltitudeMeters>605.4000244140625</AltitudeMeters>
            <DistanceMeters>2570.1187298174</DistanceMeters>
          </Trackpoint>
          <Trackpoint>
            <Time>2023-01-11T15:03:16.000Z</Time>
            <Position>
              <LatitudeDegrees>-49.2217337898910045623779296875</LatitudeDegrees>
              <LongitudeDegrees>-73.03713326342403888702392578125</LongitudeDegrees>
            </Position>
            <AltitudeMeters>607.20001220703125</AltitudeMeters>
            <DistanceMeters>2570.3087832461</DistanceMeters>
          </Trackpoint>
          <Trackpoint>
            <Time>2023-01-11T15:03:21.000Z</Time>
            <Position>
              <LatitudeDegrees>-49.22173320315778255462646484375</LatitudeDegrees>
              <LongitudeDegrees>-73.037136532366275787353515625</LongitudeDegrees>
            </Position>
            <AltitudeMeters>608.20001220703125</AltitudeMeters>
            <DistanceMeters>2570.5415502083</DistanceMeters>
          </Trackpoint>
          <Trackpoint>
            <Time>2023-01-11T15:03:26.000Z</Time>
            <Position>
              <LatitudeDegrees>-49.2217178642749786376953125</LatitudeDegrees>
              <LongitudeDegrees>-73.03722227923572063446044921875</LongitudeDegrees>
            </Position>
            <AltitudeMeters>608.20001220703125</AltitudeMeters>
            <DistanceMeters>2577.004764086</DistanceMeters>
          </Trackpoint>
          <Trackpoint>
            <Time>2023-01-11T15:03:33.000Z</Time>
            <Position>
              <LatitudeDegrees>-49.2216989211738109588623046875</LatitudeDegrees>
              <LongitudeDegrees>-73.03728036582469940185546875</LongitudeDegrees>
            </Position>
            <AltitudeMeters>608</AltitudeMeters>
            <DistanceMeters>2581.7236801174</DistanceMeters>
          </Trackpoint>
          <Trackpoint>
            <Time>2023-01-11T15:03:41.000Z</Time>
            <Position>
              <LatitudeDegrees>-49.22171073965728282928466796875</LatitudeDegrees>
              <LongitudeDegrees>-73.03733426146209239959716796875</LongitudeDegrees>
            </Position>
            <AltitudeMeters>608.79998779296875</AltitudeMeters>
            <DistanceMeters>2585.8559766406</DistanceMeters>
          </Trackpoint>
          <Trackpoint>
            <Time>2023-01-11T15:03:43.000Z</Time>
            <Position>
              <LatitudeDegrees>-49.2217124998569488525390625</LatitudeDegrees>
              <LongitudeDegrees>-73.0373512767255306243896484375</LongitudeDegrees>
            </Position>
            <AltitudeMeters>609.4000244140625</AltitudeMeters>
            <DistanceMeters>2587.1058579249</DistanceMeters>
          </Trackpoint>
          <Trackpoint>
            <Time>2023-01-11T15:03:46.000Z</Time>
            <Position>
              <LatitudeDegrees>-49.22171224839985370635986328125</LatitudeDegrees>
              <LongitudeDegrees>-73.037375919520854949951171875</LongitudeDegrees>
            </Position>
            <AltitudeMeters>611</AltitudeMeters>
            <DistanceMeters>2588.8988183857</DistanceMeters>
          </Trackpoint>
          <Trackpoint>
            <Time>2023-01-11T15:03:47.000Z</Time>
            <Position>
              <LatitudeDegrees>-49.221714176237583160400390625</LatitudeDegrees>
              <LongitudeDegrees>-73.037386648356914520263671875</LongitudeDegrees>
            </Position>
            <AltitudeMeters>612.4000244140625</AltitudeMeters>
            <DistanceMeters>2589.7051467952</DistanceMeters>
          </Trackpoint>
          <Trackpoint>
            <Time>2023-01-11T15:03:49.000Z</Time>
            <Position>
              <LatitudeDegrees>-49.2217217199504375457763671875</LatitudeDegrees>
              <LongitudeDegrees>-73.03741891868412494659423828125</LongitudeDegrees>
            </Position>
            <AltitudeMeters>612.5999755859375</AltitudeMeters>
            <DistanceMeters>2592.1958620573</DistanceMeters>
          </Trackpoint>
          <Trackpoint>
            <Time>2023-01-11T15:03:56.000Z</Time>
            <Position>
              <LatitudeDegrees>-49.221748374402523040771484375</LatitudeDegrees>
              <LongitudeDegrees>-73.0375095270574092864990234375</LongitudeDegrees>
            </Position>
            <AltitudeMeters>612.79998779296875</AltitudeMeters>
            <DistanceMeters>2599.4203926196</DistanceMeters>
          </Trackpoint>
          <Trackpoint>
            <Time>2023-01-11T15:04:02.000Z</Time>
            <Position>
              <LatitudeDegrees>-49.22173689119517803192138671875</LatitudeDegrees>
              <LongitudeDegrees>-73.0375505983829498291015625</LongitudeDegrees>
            </Position>
            <AltitudeMeters>612.5999755859375</AltitudeMeters>
            <DistanceMeters>2602.6680270336</DistanceMeters>
          </Trackpoint>
          <Trackpoint>
            <Time>2023-01-11T15:04:08.000Z</Time>
            <Position>
              <LatitudeDegrees>-49.22173001803457736968994140625</LatitudeDegrees>
              <LongitudeDegrees>-73.037584461271762847900390625</LongitudeDegrees>
            </Position>
            <AltitudeMeters>613</AltitudeMeters>
            <DistanceMeters>2605.2460371698</DistanceMeters>
          </Trackpoint>
          <Trackpoint>
            <Time>2023-01-11T15:04:16.000Z</Time>
            <Position>
              <LatitudeDegrees>-49.22172951512038707733154296875</LatitudeDegrees>
              <LongitudeDegrees>-73.03765411488711833953857421875</LongitudeDegrees>
            </Position>
            <AltitudeMeters>613.20001220703125</AltitudeMeters>
            <DistanceMeters>2610.3101676086</DistanceMeters>
          </Trackpoint>
          <Trackpoint>
            <Time>2023-01-11T15:04:20.000Z</Time>
            <Position>
              <LatitudeDegrees>-49.22172297723591327667236328125</LatitudeDegrees>
              <LongitudeDegrees>-73.037691079080104827880859375</LongitudeDegrees>
            </Position>
            <AltitudeMeters>613.4000244140625</AltitudeMeters>
            <DistanceMeters>2613.0936556342</DistanceMeters>
          </Trackpoint>
          <Trackpoint>
            <Time>2023-01-11T15:04:23.000Z</Time>
            <Position>
              <LatitudeDegrees>-49.22171308659017086029052734375</LatitudeDegrees>
              <LongitudeDegrees>-73.03770524449646472930908203125</LongitudeDegrees>
            </Position>
            <AltitudeMeters>614.5999755859375</AltitudeMeters>
            <DistanceMeters>2614.602157959</DistanceMeters>
          </Trackpoint>
          <Trackpoint>
            <Time>2023-01-11T15:04:33.000Z</Time>
            <Position>
              <LatitudeDegrees>-49.2216720990836620330810546875</LatitudeDegrees>
              <LongitudeDegrees>-73.0377619899809360504150390625</LongitudeDegrees>
            </Position>
            <AltitudeMeters>615.20001220703125</AltitudeMeters>
            <DistanceMeters>2620.752523007</DistanceMeters>
          </Trackpoint>
          <Trackpoint>
            <Time>2023-01-11T15:04:34.000Z</Time>
            <Position>
              <LatitudeDegrees>-49.2216684110462665557861328125</LatitudeDegrees>
              <LongitudeDegrees>-73.03777121007442474365234375</LongitudeDegrees>
            </Position>
            <AltitudeMeters>615.5999755859375</AltitudeMeters>
            <DistanceMeters>2621.5361333682</DistanceMeters>
          </Trackpoint>
          <Trackpoint>
            <Time>2023-01-11T15:04:41.000Z</Time>
            <Position>
              <LatitudeDegrees>-49.2216643877327442169189453125</LatitudeDegrees>
              <LongitudeDegrees>-73.0378136225044727325439453125</LongitudeDegrees>
            </Position>
            <AltitudeMeters>616.79998779296875</AltitudeMeters>
            <DistanceMeters>2624.6517925565</DistanceMeters>
          </Trackpoint>
          <Trackpoint>
            <Time>2023-01-11T15:04:42.000Z</Time>
            <Position>
              <LatitudeDegrees>-49.2216690815985202789306640625</LatitudeDegrees>
              <LongitudeDegrees>-73.0378179810941219329833984375</LongitudeDegrees>
            </Position>
            <AltitudeMeters>616.79998779296875</AltitudeMeters>
            <DistanceMeters>2625.2527942684</DistanceMeters>
          </Trackpoint>
          <Trackpoint>
            <Time>2023-01-11T15:04:46.000Z</Time>
            <Position>
              <LatitudeDegrees>-49.22167235054075717926025390625</LatitudeDegrees>
              <LongitudeDegrees>-73.03784639574587345123291015625</LongitudeDegrees>
            </Position>
            <AltitudeMeters>617</AltitudeMeters>
            <DistanceMeters>2627.3520030014</DistanceMeters>
          </Trackpoint>
          <Trackpoint>
            <Time>2023-01-11T15:04:47.000Z</Time>
            <Position>
              <LatitudeDegrees>-49.22166933305561542510986328125</LatitudeDegrees>
              <LongitudeDegrees>-73.037853352725505828857421875</LongitudeDegrees>
            </Position>
            <AltitudeMeters>617.5999755859375</AltitudeMeters>
            <DistanceMeters>2627.9530047133</DistanceMeters>
          </Trackpoint>
          <Trackpoint>
            <Time>2023-01-11T15:04:48.000Z</Time>
            <Position>
              <LatitudeDegrees>-49.22166614793241024017333984375</LatitudeDegrees>
              <LongitudeDegrees>-73.0378605611622333526611328125</LongitudeDegrees>
            </Position>
            <AltitudeMeters>617.79998779296875</AltitudeMeters>
            <DistanceMeters>2628.5833406266</DistanceMeters>
          </Trackpoint>
          <Trackpoint>
            <Time>2023-01-11T15:04:50.000Z</Time>
            <Position>
              <LatitudeDegrees>-49.22166111879050731658935546875</LatitudeDegrees>
              <LongitudeDegrees>-73.037879168987274169921875</LongitudeDegrees>
            </Position>
            <AltitudeMeters>618</AltitudeMeters>
            <DistanceMeters>2630.0431687126</DistanceMeters>
          </Trackpoint>
          <Trackpoint>
            <Time>2023-01-11T15:04:51.000Z</Time>
            <Position>
              <LatitudeDegrees>-49.2216586880385875701904296875</LatitudeDegrees>
              <LongitudeDegrees>-73.03788880817592144012451171875</LongitudeDegrees>
            </Position>
            <AltitudeMeters>618</AltitudeMeters>
            <DistanceMeters>2630.7914098098</DistanceMeters>
          </Trackpoint>
          <Trackpoint>
            <Time>2023-01-11T15:04:55.000Z</Time>
            <Position>
              <LatitudeDegrees>-49.22165910713374614715576171875</LatitudeDegrees>
              <LongitudeDegrees>-73.0379188992083072662353515625</LongitudeDegrees>
            </Position>
            <AltitudeMeters>618.79998779296875</AltitudeMeters>
            <DistanceMeters>2632.9790890631</DistanceMeters>
          </Trackpoint>
          <Trackpoint>
            <Time>2023-01-11T15:04:58.000Z</Time>
            <Position>
              <LatitudeDegrees>-49.22166078351438045501708984375</LatitudeDegrees>
              <LongitudeDegrees>-73.03794479928910732269287109375</LongitudeDegrees>
            </Position>
            <AltitudeMeters>619.20001220703125</AltitudeMeters>
            <DistanceMeters>2634.8700968029</DistanceMeters>
          </Trackpoint>
          <Trackpoint>
            <Time>2023-01-11T15:05:04.000Z</Time>
            <Position>
              <LatitudeDegrees>-49.221653826534748077392578125</LatitudeDegrees>
              <LongitudeDegrees>-73.0379582941532135009765625</LongitudeDegrees>
            </Position>
            <AltitudeMeters>619.20001220703125</AltitudeMeters>
            <DistanceMeters>2636.1163604782</DistanceMeters>
          </Trackpoint>
          <Trackpoint>
            <Time>2023-01-11T15:05:14.000Z</Time>
            <Position>
              <LatitudeDegrees>-49.221653826534748077392578125</LatitudeDegrees>
              <LongitudeDegrees>-73.0379690229892730712890625</LongitudeDegrees>
            </Position>
            <AltitudeMeters>619.4000244140625</AltitudeMeters>
            <DistanceMeters>2636.894187658</DistanceMeters>
          </Trackpoint>
          <Trackpoint>
            <Time>2023-01-11T15:05:25.000Z</Time>
            <Position>
              <LatitudeDegrees>-49.22165290452539920806884765625</LatitudeDegrees>
              <LongitudeDegrees>-73.03796441294252872467041015625</LongitudeDegrees>
            </Position>
            <AltitudeMeters>619.20001220703125</AltitudeMeters>
            <DistanceMeters>2637.2497450658</DistanceMeters>
          </Trackpoint>
          <Trackpoint>
            <Time>2023-01-11T15:05:31.000Z</Time>
            <Position>
              <LatitudeDegrees>-49.2216308601200580596923828125</LatitudeDegrees>
              <LongitudeDegrees>-73.03801403380930423736572265625</LongitudeDegrees>
            </Position>
            <AltitudeMeters>620</AltitudeMeters>
            <DistanceMeters>2641.6127029093</DistanceMeters>
          </Trackpoint>
          <Trackpoint>
            <Time>2023-01-11T15:05:32.000Z</Time>
            <Position>
              <LatitudeDegrees>-49.22162524424493312835693359375</LatitudeDegrees>
              <LongitudeDegrees>-73.03802442736923694610595703125</LongitudeDegrees>
            </Position>
            <AltitudeMeters>620</AltitudeMeters>
            <DistanceMeters>2642.5910628139</DistanceMeters>
          </Trackpoint>
          <Trackpoint>
            <Time>2023-01-11T15:05:38.000Z</Time>
            <Position>
              <LatitudeDegrees>-49.221605546772480010986328125</LatitudeDegrees>
              <LongitudeDegrees>-73.0380996130406856536865234375</LongitudeDegrees>
            </Position>
            <AltitudeMeters>621.20001220703125</AltitudeMeters>
            <DistanceMeters>2648.4796529291</DistanceMeters>
          </Trackpoint>
          <Trackpoint>
            <Time>2023-01-11T15:05:40.000Z</Time>
            <Position>
              <LatitudeDegrees>-49.22160848043859004974365234375</LatitudeDegrees>
              <LongitudeDegrees>-73.0381157062947750091552734375</LongitudeDegrees>
            </Position>
            <AltitudeMeters>621.20001220703125</AltitudeMeters>
            <DistanceMeters>2649.6928728022</DistanceMeters>
          </Trackpoint>
          <Trackpoint>
            <Time>2023-01-11T15:05:42.000Z</Time>
            <Position>
              <LatitudeDegrees>-49.2216063849627971649169921875</LatitudeDegrees>
              <LongitudeDegrees>-73.03812660276889801025390625</LongitudeDegrees>
            </Position>
            <AltitudeMeters>621.79998779296875</AltitudeMeters>
            <DistanceMeters>2650.5212964919</DistanceMeters>
          </Trackpoint>
          <Trackpoint>
            <Time>2023-01-11T15:05:53.000Z</Time>
            <Position>
              <LatitudeDegrees>-49.2216130904853343963623046875</LatitudeDegrees>
              <LongitudeDegrees>-73.03816205821931362152099609375</LongitudeDegrees>
            </Position>
            <AltitudeMeters>622.20001220703125</AltitudeMeters>
            <DistanceMeters>2653.2056960528</DistanceMeters>
          </Trackpoint>
          <Trackpoint>
            <Time>2023-01-11T15:05:55.000Z</Time>
            <Position>
              <LatitudeDegrees>-49.22160722315311431884765625</LatitudeDegrees>
              <LongitudeDegrees>-73.03818225860595703125</LongitudeDegrees>
            </Position>
            <AltitudeMeters>622.5999755859375</AltitudeMeters>
            <DistanceMeters>2654.8127436137</DistanceMeters>
          </Trackpoint>
          <Trackpoint>
            <Time>2023-01-11T15:05:56.000Z</Time>
            <Position>
              <LatitudeDegrees>-49.22160613350570201873779296875</LatitudeDegrees>
              <LongitudeDegrees>-73.03819105960428714752197265625</LongitudeDegrees>
            </Position>
            <AltitudeMeters>622.5999755859375</AltitudeMeters>
            <DistanceMeters>2655.4572461477</DistanceMeters>
          </Trackpoint>
          <Trackpoint>
            <Time>2023-01-11T15:05:59.000Z</Time>
            <Position>
              <LatitudeDegrees>-49.22159758396446704864501953125</LatitudeDegrees>
              <LongitudeDegrees>-73.0382062308490276336669921875</LongitudeDegrees>
            </Position>
            <AltitudeMeters>623.5999755859375</AltitudeMeters>
            <DistanceMeters>2656.9170742338</DistanceMeters>
          </Trackpoint>
          <Trackpoint>
            <Time>2023-01-11T15:06:05.000Z</Time>
            <Position>
              <LatitudeDegrees>-49.2215688340365886688232421875</LatitudeDegrees>
              <LongitudeDegrees>-73.038238920271396636962890625</LongitudeDegrees>
            </Position>
            <AltitudeMeters>624</AltitudeMeters>
            <DistanceMeters>2660.9025358714</DistanceMeters>
          </Trackpoint>
          <Trackpoint>
            <Time>2023-01-11T15:06:06.000Z</Time>
            <Position>
              <LatitudeDegrees>-49.22156204469501972198486328125</LatitudeDegrees>
              <LongitudeDegrees>-73.0382424406707286834716796875</LongitudeDegrees>
            </Position>
            <AltitudeMeters>625.5999755859375</AltitudeMeters>
            <DistanceMeters>2661.6975864051</DistanceMeters>
          </Trackpoint>
          <Trackpoint>
            <Time>2023-01-11T15:06:07.000Z</Time>
            <Position>
              <LatitudeDegrees>-49.2215560935437679290771484375</LatitudeDegrees>
              <LongitudeDegrees>-73.038241602480411529541015625</LongitudeDegrees>
            </Position>
            <AltitudeMeters>625.5999755859375</AltitudeMeters>
            <DistanceMeters>2662.3695267463</DistanceMeters>
          </Trackpoint>
          <Trackpoint>
            <Time>2023-01-11T15:06:11.000Z</Time>
            <Position>
              <LatitudeDegrees>-49.22153480350971221923828125</LatitudeDegrees>
              <LongitudeDegrees>-73.0382560193538665771484375</LongitudeDegrees>
            </Position>
            <AltitudeMeters>625.5999755859375</AltitudeMeters>
            <DistanceMeters>2664.9615099396</DistanceMeters>
          </Trackpoint>
          <Trackpoint>
            <Time>2023-01-11T15:06:14.000Z</Time>
            <Position>
              <LatitudeDegrees>-49.221515022218227386474609375</LatitudeDegrees>
              <LongitudeDegrees>-73.03828342817723751068115234375</LongitudeDegrees>
            </Position>
            <AltitudeMeters>626</AltitudeMeters>
            <DistanceMeters>2667.9302394</DistanceMeters>
          </Trackpoint>
          <Trackpoint>
            <Time>2023-01-11T15:06:16.000Z</Time>
            <Position>
              <LatitudeDegrees>-49.221509657800197601318359375</LatitudeDegrees>
              <LongitudeDegrees>-73.038299269974231719970703125</LongitudeDegrees>
            </Position>
            <AltitudeMeters>627.79998779296875</AltitudeMeters>
            <DistanceMeters>2669.2262309967</DistanceMeters>
          </Trackpoint>
          <Trackpoint>
            <Time>2023-01-11T15:06:18.000Z</Time>
            <Position>
              <LatitudeDegrees>-49.22150420956313610076904296875</LatitudeDegrees>
              <LongitudeDegrees>-73.03831829689443111419677734375</LongitudeDegrees>
            </Position>
            <AltitudeMeters>628.4000244140625</AltitudeMeters>
            <DistanceMeters>2670.7347333215</DistanceMeters>
          </Trackpoint>
          <Trackpoint>
            <Time>2023-01-11T15:06:19.000Z</Time>
            <Position>
              <LatitudeDegrees>-49.22150119207799434661865234375</LatitudeDegrees>
              <LongitudeDegrees>-73.03832567296922206878662109375</LongitudeDegrees>
            </Position>
            <AltitudeMeters>629</AltitudeMeters>
            <DistanceMeters>2671.3650692347</DistanceMeters>
          </Trackpoint>
          <Trackpoint>
            <Time>2023-01-11T15:06:26.000Z</Time>
            <Position>
              <LatitudeDegrees>-49.2214954085648059844970703125</LatitudeDegrees>
              <LongitudeDegrees>-73.0383809097111225128173828125</LongitudeDegrees>
            </Position>
            <AltitudeMeters>628.5999755859375</AltitudeMeters>
            <DistanceMeters>2675.4312799977</DistanceMeters>
          </Trackpoint>
          <Trackpoint>
            <Time>2023-01-11T15:06:32.000Z</Time>
            <Position>
              <LatitudeDegrees>-49.22147286124527454376220703125</LatitudeDegrees>
              <LongitudeDegrees>-73.03845207206904888153076171875</LongitudeDegrees>
            </Position>
            <AltitudeMeters>630.79998779296875</AltitudeMeters>
            <DistanceMeters>2681.1801998775</DistanceMeters>
          </Trackpoint>
          <Trackpoint>
            <Time>2023-01-11T15:06:35.000Z</Time>
            <Position>
              <LatitudeDegrees>-49.2214630544185638427734375</LatitudeDegrees>
              <LongitudeDegrees>-73.03848342038691043853759765625</LongitudeDegrees>
            </Position>
            <AltitudeMeters>630.79998779296875</AltitudeMeters>
            <DistanceMeters>2683.7069100006</DistanceMeters>
          </Trackpoint>
          <Trackpoint>
            <Time>2023-01-11T15:06:37.000Z</Time>
            <Position>
              <LatitudeDegrees>-49.22145877964794635772705078125</LatitudeDegrees>
              <LongitudeDegrees>-73.0385027825832366943359375</LongitudeDegrees>
            </Position>
            <AltitudeMeters>629.4000244140625</AltitudeMeters>
            <DistanceMeters>2685.1912747308</DistanceMeters>
          </Trackpoint>
          <Trackpoint>
            <Time>2023-01-11T15:06:41.000Z</Time>
            <Position>
              <LatitudeDegrees>-49.221451990306377410888671875</LatitudeDegrees>
              <LongitudeDegrees>-73.03852331824600696563720703125</LongitudeDegrees>
            </Position>
            <AltitudeMeters>628.20001220703125</AltitudeMeters>
            <DistanceMeters>2686.8643926877</DistanceMeters>
          </Trackpoint>
          <Trackpoint>
            <Time>2023-01-11T15:06:44.000Z</Time>
            <Position>
              <LatitudeDegrees>-49.22145006246864795684814453125</LatitudeDegrees>
              <LongitudeDegrees>-73.03852616809308528900146484375</LongitudeDegrees>
            </Position>
            <AltitudeMeters>627.5999755859375</AltitudeMeters>
            <DistanceMeters>2687.1648935436</DistanceMeters>
          </Trackpoint>
          <Trackpoint>
            <Time>2023-01-11T15:06:48.000Z</Time>
            <Position>
              <LatitudeDegrees>-49.22144134528934955596923828125</LatitudeDegrees>
              <LongitudeDegrees>-73.03852532990276813507080078125</LongitudeDegrees>
            </Position>
            <AltitudeMeters>627</AltitudeMeters>
            <DistanceMeters>2688.1432534483</DistanceMeters>
          </Trackpoint>
          <Trackpoint>
            <Time>2023-01-11T15:06:51.000Z</Time>
            <Position>
              <LatitudeDegrees>-49.22143883071839809417724609375</LatitudeDegrees>
              <LongitudeDegrees>-73.03853555582463741302490234375</LongitudeDegrees>
            </Position>
            <AltitudeMeters>625.4000244140625</AltitudeMeters>
            <DistanceMeters>2688.938303982</DistanceMeters>
          </Trackpoint>
          <Trackpoint>
            <Time>2023-01-11T15:06:55.000Z</Time>
            <Position>
              <LatitudeDegrees>-49.22143195755779743194580078125</LatitudeDegrees>
              <LongitudeDegrees>-73.0385483801364898681640625</LongitudeDegrees>
            </Position>
            <AltitudeMeters>625.4000244140625</AltitudeMeters>
            <DistanceMeters>2690.1477965962</DistanceMeters>
          </Trackpoint>
          <Trackpoint>
            <Time>2023-01-11T15:06:57.000Z</Time>
            <Position>
              <LatitudeDegrees>-49.22143195755779743194580078125</LatitudeDegrees>
              <LongitudeDegrees>-73.0385483801364898681640625</LongitudeDegrees>
            </Position>
            <AltitudeMeters>626.5999755859375</AltitudeMeters>
            <DistanceMeters>2690.1477965962</DistanceMeters>
          </Trackpoint>
          <Trackpoint>
            <Time>2023-01-11T15:07:03.000Z</Time>
            <Position>
              <LatitudeDegrees>-49.221414439380168914794921875</LatitudeDegrees>
              <LongitudeDegrees>-73.03862038068473339080810546875</LongitudeDegrees>
            </Position>
            <AltitudeMeters>627.20001220703125</AltitudeMeters>
            <DistanceMeters>2695.7342036876</DistanceMeters>
          </Trackpoint>
          <Trackpoint>
            <Time>2023-01-11T15:07:06.000Z</Time>
            <Position>
              <LatitudeDegrees>-49.2214082367718219757080078125</LatitudeDegrees>
              <LongitudeDegrees>-73.03867972455918788909912109375</LongitudeDegrees>
            </Position>
            <AltitudeMeters>628</AltitudeMeters>
            <DistanceMeters>2700.1033662621</DistanceMeters>
          </Trackpoint>
          <Trackpoint>
            <Time>2023-01-11T15:07:11.000Z</Time>
            <Position>
              <LatitudeDegrees>-49.22139356844127178192138671875</LatitudeDegrees>
              <LongitudeDegrees>-73.038743175566196441650390625</LongitudeDegrees>
            </Position>
            <AltitudeMeters>625.4000244140625</AltitudeMeters>
            <DistanceMeters>2704.9960886794</DistanceMeters>
          </Trackpoint>
          <Trackpoint>
            <Time>2023-01-11T15:07:12.000Z</Time>
            <Position>
              <LatitudeDegrees>-49.22139457426965236663818359375</LatitudeDegrees>
              <LongitudeDegrees>-73.03874351084232330322265625</LongitudeDegrees>
            </Position>
            <AltitudeMeters>625.4000244140625</AltitudeMeters>
            <DistanceMeters>2705.1304767476</DistanceMeters>
          </Trackpoint>
          <Trackpoint>
            <Time>2023-01-11T15:07:16.000Z</Time>
            <Position>
              <LatitudeDegrees>-49.22139356844127178192138671875</LatitudeDegrees>
              <LongitudeDegrees>-73.038762621581554412841796875</LongitudeDegrees>
            </Position>
            <AltitudeMeters>624.79998779296875</AltitudeMeters>
            <DistanceMeters>2706.5238418956</DistanceMeters>
          </Trackpoint>
          <Trackpoint>
            <Time>2023-01-11T15:07:21.000Z</Time>
            <Position>
              <LatitudeDegrees>-49.22138049267232418060302734375</LatitudeDegrees>
              <LongitudeDegrees>-73.03878181613981723785400390625</LongitudeDegrees>
            </Position>
            <AltitudeMeters>624.79998779296875</AltitudeMeters>
            <DistanceMeters>2708.5396629193</DistanceMeters>
          </Trackpoint>
          <Trackpoint>
            <Time>2023-01-11T15:07:26.000Z</Time>
            <Position>
              <LatitudeDegrees>-49.221359789371490478515625</LatitudeDegrees>
              <LongitudeDegrees>-73.03883227519690990447998046875</LongitudeDegrees>
            </Position>
            <AltitudeMeters>621.79998779296875</AltitudeMeters>
            <DistanceMeters>2712.8714637978</DistanceMeters>
          </Trackpoint>
          <Trackpoint>
            <Time>2023-01-11T15:07:27.000Z</Time>
            <Position>
              <LatitudeDegrees>-49.22135886736214160919189453125</LatitudeDegrees>
              <LongitudeDegrees>-73.03884635679423809051513671875</LongitudeDegrees>
            </Position>
            <AltitudeMeters>625.4000244140625</AltitudeMeters>
            <DistanceMeters>2713.9037181368</DistanceMeters>
          </Trackpoint>
          <Trackpoint>
            <Time>2023-01-11T15:07:28.000Z</Time>
            <Position>
              <LatitudeDegrees>-49.2213569395244121551513671875</LatitudeDegrees>
              <LongitudeDegrees>-73.03885809145867824554443359375</LongitudeDegrees>
            </Position>
            <AltitudeMeters>622.5999755859375</AltitudeMeters>
            <DistanceMeters>2714.7849596327</DistanceMeters>
          </Trackpoint>
          <Trackpoint>
            <Time>2023-01-11T15:07:34.000Z</Time>
            <Position>
              <LatitudeDegrees>-49.22134277410805225372314453125</LatitudeDegrees>
              <LongitudeDegrees>-73.03892950527369976043701171875</LongitudeDegrees>
            </Position>
            <AltitudeMeters>621.4000244140625</AltitudeMeters>
            <DistanceMeters>2720.2106438483</DistanceMeters>
          </Trackpoint>
          <Trackpoint>
            <Time>2023-01-11T15:07:35.000Z</Time>
            <Position>
              <LatitudeDegrees>-49.22134168446063995361328125</LatitudeDegrees>
              <LongitudeDegrees>-73.038950376212596893310546875</LongitudeDegrees>
            </Position>
            <AltitudeMeters>619.79998779296875</AltitudeMeters>
            <DistanceMeters>2721.7310712782</DistanceMeters>
          </Trackpoint>
          <Trackpoint>
            <Time>2023-01-11T15:07:36.000Z</Time>
            <Position>
              <LatitudeDegrees>-49.2213415168225765228271484375</LatitudeDegrees>
              <LongitudeDegrees>-73.03896571509540081024169921875</LongitudeDegrees>
            </Position>
            <AltitudeMeters>619.79998779296875</AltitudeMeters>
            <DistanceMeters>2722.8433304534</DistanceMeters>
          </Trackpoint>
          <Trackpoint>
            <Time>2023-01-11T15:07:40.000Z</Time>
            <Position>
              <LatitudeDegrees>-49.221350736916065216064453125</LatitudeDegrees>
              <LongitudeDegrees>-73.03900863043963909149169921875</LongitudeDegrees>
            </Position>
            <AltitudeMeters>619.79998779296875</AltitudeMeters>
            <DistanceMeters>2726.1269125331</DistanceMeters>
          </Trackpoint>
          <Trackpoint>
            <Time>2023-01-11T15:07:46.000Z</Time>
            <Position>
              <LatitudeDegrees>-49.221343696117401123046875</LatitudeDegrees>
              <LongitudeDegrees>-73.03909647278487682342529296875</LongitudeDegrees>
            </Position>
            <AltitudeMeters>620</AltitudeMeters>
            <DistanceMeters>2732.5614210999</DistanceMeters>
          </Trackpoint>
          <Trackpoint>
            <Time>2023-01-11T15:07:48.000Z</Time>
            <Position>
              <LatitudeDegrees>-49.2213438637554645538330078125</LatitudeDegrees>
              <LongitudeDegrees>-73.0391232110559940338134765625</LongitudeDegrees>
            </Position>
            <AltitudeMeters>620</AltitudeMeters>
            <DistanceMeters>2734.506569431</DistanceMeters>
          </Trackpoint>
          <Trackpoint>
            <Time>2023-01-11T15:07:51.000Z</Time>
            <Position>
              <LatitudeDegrees>-49.2213475517928600311279296875</LatitudeDegrees>
              <LongitudeDegrees>-73.039157576858997344970703125</LongitudeDegrees>
            </Position>
            <AltitudeMeters>620.5999755859375</AltitudeMeters>
            <DistanceMeters>2737.0386346504</DistanceMeters>
          </Trackpoint>
          <Trackpoint>
            <Time>2023-01-11T15:07:53.000Z</Time>
            <Position>
              <LatitudeDegrees>-49.221348725259304046630859375</LatitudeDegrees>
              <LongitudeDegrees>-73.03916537202894687652587890625</LongitudeDegrees>
            </Position>
            <AltitudeMeters>622</AltitudeMeters>
            <DistanceMeters>2737.6244186591</DistanceMeters>
          </Trackpoint>
          <Trackpoint>
            <Time>2023-01-11T15:07:54.000Z</Time>
            <Position>
              <LatitudeDegrees>-49.221348725259304046630859375</LatitudeDegrees>
              <LongitudeDegrees>-73.039171658456325531005859375</LongitudeDegrees>
            </Position>
            <AltitudeMeters>622</AltitudeMeters>
            <DistanceMeters>2738.0899525834</DistanceMeters>
          </Trackpoint>
          <Trackpoint>
            <Time>2023-01-11T15:07:58.000Z</Time>
            <Position>
              <LatitudeDegrees>-49.2213539220392704010009765625</LatitudeDegrees>
              <LongitudeDegrees>-73.039213903248310089111328125</LongitudeDegrees>
            </Position>
            <AltitudeMeters>623.20001220703125</AltitudeMeters>
            <DistanceMeters>2741.2157393183</DistanceMeters>
          </Trackpoint>
          <Trackpoint>
            <Time>2023-01-11T15:08:00.000Z</Time>
            <Position>
              <LatitudeDegrees>-49.22135107219219207763671875</LatitudeDegrees>
              <LongitudeDegrees>-73.03924583829939365386962890625</LongitudeDegrees>
            </Position>
            <AltitudeMeters>624.4000244140625</AltitudeMeters>
            <DistanceMeters>2743.5588753532</DistanceMeters>
          </Trackpoint>
          <Trackpoint>
            <Time>2023-01-11T15:08:04.000Z</Time>
            <Position>
              <LatitudeDegrees>-49.22133690677583217620849609375</LatitudeDegrees>
              <LongitudeDegrees>-73.0393106304109096527099609375</LongitudeDegrees>
            </Position>
            <AltitudeMeters>622.4000244140625</AltitudeMeters>
            <DistanceMeters>2748.5257827255</DistanceMeters>
          </Trackpoint>
          <Trackpoint>
            <Time>2023-01-11T15:08:06.000Z</Time>
            <Position>
              <LatitudeDegrees>-49.22133338637650012969970703125</LatitudeDegrees>
              <LongitudeDegrees>-73.039338290691375732421875</LongitudeDegrees>
            </Position>
            <AltitudeMeters>620.5999755859375</AltitudeMeters>
            <DistanceMeters>2750.5771275582</DistanceMeters>
          </Trackpoint>
          <Trackpoint>
            <Time>2023-01-11T15:08:09.000Z</Time>
            <Position>
              <LatitudeDegrees>-49.22132533974945545196533203125</LatitudeDegrees>
              <LongitudeDegrees>-73.039386905729770660400390625</LongitudeDegrees>
            </Position>
            <AltitudeMeters>619.5999755859375</AltitudeMeters>
            <DistanceMeters>2754.2229844569</DistanceMeters>
          </Trackpoint>
          <Trackpoint>
            <Time>2023-01-11T15:08:12.000Z</Time>
            <Position>
              <LatitudeDegrees>-49.22132466919720172882080078125</LatitudeDegrees>
              <LongitudeDegrees>-73.03942403756082057952880859375</LongitudeDegrees>
            </Position>
            <AltitudeMeters>619.5999755859375</AltitudeMeters>
            <DistanceMeters>2756.9241511986</DistanceMeters>
          </Trackpoint>
          <Trackpoint>
            <Time>2023-01-11T15:08:19.000Z</Time>
            <Position>
              <LatitudeDegrees>-49.221325926482677459716796875</LatitudeDegrees>
              <LongitudeDegrees>-73.0394457466900348663330078125</LongitudeDegrees>
            </Position>
            <AltitudeMeters>620.5999755859375</AltitudeMeters>
            <DistanceMeters>2758.5085631562</DistanceMeters>
          </Trackpoint>
          <Trackpoint>
            <Time>2023-01-11T15:08:22.000Z</Time>
            <Position>
              <LatitudeDegrees>-49.22132651321589946746826171875</LatitudeDegrees>
              <LongitudeDegrees>-73.03944583050906658172607421875</LongitudeDegrees>
            </Position>
            <AltitudeMeters>621</AltitudeMeters>
            <DistanceMeters>2758.5085631562</DistanceMeters>
          </Trackpoint>
          <Trackpoint>
            <Time>2023-01-11T15:08:24.000Z</Time>
            <Position>
              <LatitudeDegrees>-49.22132383100688457489013671875</LatitudeDegrees>
              <LongitudeDegrees>-73.03944398649036884307861328125</LongitudeDegrees>
            </Position>
            <AltitudeMeters>621</AltitudeMeters>
            <DistanceMeters>2758.837745351</DistanceMeters>
          </Trackpoint>
          <Trackpoint>
            <Time>2023-01-11T15:08:27.000Z</Time>
            <Position>
              <LatitudeDegrees>-49.22132316045463085174560546875</LatitudeDegrees>
              <LongitudeDegrees>-73.03944465704262256622314453125</LongitudeDegrees>
            </Position>
            <AltitudeMeters>620.4000244140625</AltitudeMeters>
            <DistanceMeters>2758.9327720653</DistanceMeters>
          </Trackpoint>
          <Trackpoint>
            <Time>2023-01-11T15:08:38.000Z</Time>
            <Position>
              <LatitudeDegrees>-49.22132316045463085174560546875</LatitudeDegrees>
              <LongitudeDegrees>-73.039445243775844573974609375</LongitudeDegrees>
            </Position>
            <AltitudeMeters>620.20001220703125</AltitudeMeters>
            <DistanceMeters>2758.9327720653</DistanceMeters>
          </Trackpoint>
          <Trackpoint>
            <Time>2023-01-11T15:09:02.000Z</Time>
            <Position>
              <LatitudeDegrees>-49.22131997533142566680908203125</LatitudeDegrees>
              <LongitudeDegrees>-73.0394496023654937744140625</LongitudeDegrees>
            </Position>
            <AltitudeMeters>620.5999755859375</AltitudeMeters>
            <DistanceMeters>2759.3983059896</DistanceMeters>
          </Trackpoint>
          <Trackpoint>
            <Time>2023-01-11T15:09:08.000Z</Time>
            <Position>
              <LatitudeDegrees>-49.221313856542110443115234375</LatitudeDegrees>
              <LongitudeDegrees>-73.0394496023654937744140625</LongitudeDegrees>
            </Position>
            <AltitudeMeters>620.5999755859375</AltitudeMeters>
            <DistanceMeters>2760.0702463309</DistanceMeters>
          </Trackpoint>
          <Trackpoint>
            <Time>2023-01-11T15:09:11.000Z</Time>
            <Position>
              <LatitudeDegrees>-49.2213128507137298583984375</LatitudeDegrees>
              <LongitudeDegrees>-73.03945320658385753631591796875</LongitudeDegrees>
            </Position>
            <AltitudeMeters>620.5999755859375</AltitudeMeters>
            <DistanceMeters>2760.3707471868</DistanceMeters>
          </Trackpoint>
          <Trackpoint>
            <Time>2023-01-11T15:09:23.000Z</Time>
            <Position>
              <LatitudeDegrees>-49.2212975956499576568603515625</LatitudeDegrees>
              <LongitudeDegrees>-73.039507605135440826416015625</LongitudeDegrees>
            </Position>
            <AltitudeMeters>620.5999755859375</AltitudeMeters>
            <DistanceMeters>2764.6753629494</DistanceMeters>
          </Trackpoint>
          <Trackpoint>
            <Time>2023-01-11T15:09:32.000Z</Time>
            <Position>
              <LatitudeDegrees>-49.221347384154796600341796875</LatitudeDegrees>
              <LongitudeDegrees>-73.039552867412567138671875</LongitudeDegrees>
            </Position>
            <AltitudeMeters>620.5999755859375</AltitudeMeters>
            <DistanceMeters>2771.1203882901</DistanceMeters>
          </Trackpoint>
          <Trackpoint>
            <Time>2023-01-11T15:09:39.000Z</Time>
            <Position>
              <LatitudeDegrees>-49.22138166613876819610595703125</LatitudeDegrees>
              <LongitudeDegrees>-73.03961145691573619842529296875</LongitudeDegrees>
            </Position>
            <AltitudeMeters>620.5999755859375</AltitudeMeters>
            <DistanceMeters>2776.837807002</DistanceMeters>
          </Trackpoint>
          <Trackpoint>
            <Time>2023-01-11T15:09:41.000Z</Time>
            <Position>
              <LatitudeDegrees>-49.2213877849280834197998046875</LatitudeDegrees>
              <LongitudeDegrees>-73.03962059319019317626953125</LongitudeDegrees>
            </Position>
            <AltitudeMeters>626</AltitudeMeters>
            <DistanceMeters>2777.7880741457</DistanceMeters>
          </Trackpoint>
          <Trackpoint>
            <Time>2023-01-11T15:09:45.000Z</Time>
            <Position>
              <LatitudeDegrees>-49.22139071859419345855712890625</LatitudeDegrees>
              <LongitudeDegrees>-73.039619922637939453125</LongitudeDegrees>
            </Position>
            <AltitudeMeters>626.20001220703125</AltitudeMeters>
            <DistanceMeters>2778.1172563404</DistanceMeters>
          </Trackpoint>
          <Trackpoint>
            <Time>2023-01-11T15:09:46.000Z</Time>
            <Position>
              <LatitudeDegrees>-49.2213884554803371429443359375</LatitudeDegrees>
              <LongitudeDegrees>-73.03962117992341518402099609375</LongitudeDegrees>
            </Position>
            <AltitudeMeters>626.20001220703125</AltitudeMeters>
            <DistanceMeters>2778.3860324769</DistanceMeters>
          </Trackpoint>
          <Trackpoint>
            <Time>2023-01-11T15:09:53.000Z</Time>
            <Position>
              <LatitudeDegrees>-49.221403710544109344482421875</LatitudeDegrees>
              <LongitudeDegrees>-73.03959268145263195037841796875</LongitudeDegrees>
            </Position>
            <AltitudeMeters>626.20001220703125</AltitudeMeters>
            <DistanceMeters>2781.0636957672</DistanceMeters>
          </Trackpoint>
          <Trackpoint>
            <Time>2023-01-11T15:09:57.000Z</Time>
            <Position>
              <LatitudeDegrees>-49.221431203186511993408203125</LatitudeDegrees>
              <LongitudeDegrees>-73.03958698175847530364990234375</LongitudeDegrees>
            </Position>
            <AltitudeMeters>626.79998779296875</AltitudeMeters>
            <DistanceMeters>2784.1516984753</DistanceMeters>
          </Trackpoint>
          <Trackpoint>
            <Time>2023-01-11T15:10:00.000Z</Time>
            <Position>
              <LatitudeDegrees>-49.22145358286798000335693359375</LatitudeDegrees>
              <LongitudeDegrees>-73.03958815522491931915283203125</LongitudeDegrees>
            </Position>
            <AltitudeMeters>627.4000244140625</AltitudeMeters>
            <DistanceMeters>2786.6460365979</DistanceMeters>
          </Trackpoint>
          <Trackpoint>
            <Time>2023-01-11T15:10:01.000Z</Time>
            <Position>
              <LatitudeDegrees>-49.2214585281908512115478515625</LatitudeDegrees>
              <LongitudeDegrees>-73.039587400853633880615234375</LongitudeDegrees>
            </Position>
            <AltitudeMeters>627.4000244140625</AltitudeMeters>
            <DistanceMeters>2787.2001327981</DistanceMeters>
          </Trackpoint>
          <Trackpoint>
            <Time>2023-01-11T15:10:05.000Z</Time>
            <Position>
              <LatitudeDegrees>-49.221482835710048675537109375</LatitudeDegrees>
              <LongitudeDegrees>-73.0396150611340999603271484375</LongitudeDegrees>
            </Position>
            <AltitudeMeters>628.79998779296875</AltitudeMeters>
            <DistanceMeters>2790.5705684029</DistanceMeters>
          </Trackpoint>
          <Trackpoint>
            <Time>2023-01-11T15:10:09.000Z</Time>
            <Position>
              <LatitudeDegrees>-49.22149180434644222259521484375</LatitudeDegrees>
              <LongitudeDegrees>-73.03965873084962368011474609375</LongitudeDegrees>
            </Position>
            <AltitudeMeters>629.20001220703125</AltitudeMeters>
            <DistanceMeters>2793.8978606535</DistanceMeters>
          </Trackpoint>
          <Trackpoint>
            <Time>2023-01-11T15:10:10.000Z</Time>
            <Position>
              <LatitudeDegrees>-49.2214974202215671539306640625</LatitudeDegrees>
              <LongitudeDegrees>-73.03967147134244441986083984375</LongitudeDegrees>
            </Position>
            <AltitudeMeters>630.20001220703125</AltitudeMeters>
            <DistanceMeters>2795.0141717881</DistanceMeters>
          </Trackpoint>
          <Trackpoint>
            <Time>2023-01-11T15:10:16.000Z</Time>
            <Position>
              <LatitudeDegrees>-49.221514351665973663330078125</LatitudeDegrees>
              <LongitudeDegrees>-73.03969779051840305328369140625</LongitudeDegrees>
            </Position>
            <AltitudeMeters>630.79998779296875</AltitudeMeters>
            <DistanceMeters>2797.6985713489</DistanceMeters>
          </Trackpoint>
          <Trackpoint>
            <Time>2023-01-11T15:10:29.000Z</Time>
            <Position>
              <LatitudeDegrees>-49.22152784653007984161376953125</LatitudeDegrees>
              <LongitudeDegrees>-73.03979217074811458587646484375</LongitudeDegrees>
            </Position>
            <AltitudeMeters>627.79998779296875</AltitudeMeters>
            <DistanceMeters>2804.7228391179</DistanceMeters>
          </Trackpoint>
          <Trackpoint>
            <Time>2023-01-11T15:10:36.000Z</Time>
            <Position>
              <LatitudeDegrees>-49.22154796309769153594970703125</LatitudeDegrees>
              <LongitudeDegrees>-73.03984480910003185272216796875</LongitudeDegrees>
            </Position>
            <AltitudeMeters>627.4000244140625</AltitudeMeters>
            <DistanceMeters>2809.1556087196</DistanceMeters>
          </Trackpoint>
          <Trackpoint>
            <Time>2023-01-11T15:10:38.000Z</Time>
            <Position>
              <LatitudeDegrees>-49.221555925905704498291015625</LatitudeDegrees>
              <LongitudeDegrees>-73.03985486738383769989013671875</LongitudeDegrees>
            </Position>
            <AltitudeMeters>626.79998779296875</AltitudeMeters>
            <DistanceMeters>2810.303820878</DistanceMeters>
          </Trackpoint>
          <Trackpoint>
            <Time>2023-01-11T15:10:39.000Z</Time>
            <Position>
              <LatitudeDegrees>-49.22156187705695629119873046875</LatitudeDegrees>
              <LongitudeDegrees>-73.03986006416380405426025390625</LongitudeDegrees>
            </Position>
            <AltitudeMeters>626.79998779296875</AltitudeMeters>
            <DistanceMeters>2811.064034593</DistanceMeters>
          </Trackpoint>
          <Trackpoint>
            <Time>2023-01-11T15:10:43.000Z</Time>
            <Position>
              <LatitudeDegrees>-49.22158014960587024688720703125</LatitudeDegrees>
              <LongitudeDegrees>-73.03989308886229991912841796875</LongitudeDegrees>
            </Position>
            <AltitudeMeters>628</AltitudeMeters>
            <DistanceMeters>2814.2099786139</DistanceMeters>
          </Trackpoint>
          <Trackpoint>
            <Time>2023-01-11T15:10:44.000Z</Time>
            <Position>
              <LatitudeDegrees>-49.22158819623291492462158203125</LatitudeDegrees>
              <LongitudeDegrees>-73.03990113548934459686279296875</LongitudeDegrees>
            </Position>
            <AltitudeMeters>628</AltitudeMeters>
            <DistanceMeters>2815.2808752982</DistanceMeters>
          </Trackpoint>
          <Trackpoint>
            <Time>2023-01-11T15:10:45.000Z</Time>
            <Position>
              <LatitudeDegrees>-49.22159791924059391021728515625</LatitudeDegrees>
              <LongitudeDegrees>-73.03990901447832584381103515625</LongitudeDegrees>
            </Position>
            <AltitudeMeters>628</AltitudeMeters>
            <DistanceMeters>2816.5052088678</DistanceMeters>
          </Trackpoint>
          <Trackpoint>
            <Time>2023-01-11T15:10:52.000Z</Time>
            <Position>
              <LatitudeDegrees>-49.22163647599518299102783203125</LatitudeDegrees>
              <LongitudeDegrees>-73.03996467031538486480712890625</LongitudeDegrees>
            </Position>
            <AltitudeMeters>628.79998779296875</AltitudeMeters>
            <DistanceMeters>2822.402992728</DistanceMeters>
          </Trackpoint>
          <Trackpoint>
            <Time>2023-01-11T15:10:54.000Z</Time>
            <Position>
              <LatitudeDegrees>-49.22163806855678558349609375</LatitudeDegrees>
              <LongitudeDegrees>-73.0399833619594573974609375</LongitudeDegrees>
            </Position>
            <AltitudeMeters>630</AltitudeMeters>
            <DistanceMeters>2823.7734874928</DistanceMeters>
          </Trackpoint>
          <Trackpoint>
            <Time>2023-01-11T15:10:58.000Z</Time>
            <Position>
              <LatitudeDegrees>-49.2216508090496063232421875</LatitudeDegrees>
              <LongitudeDegrees>-73.039989732205867767333984375</LongitudeDegrees>
            </Position>
            <AltitudeMeters>630.4000244140625</AltitudeMeters>
            <DistanceMeters>2825.2699696872</DistanceMeters>
          </Trackpoint>
          <Trackpoint>
            <Time>2023-01-11T15:11:03.000Z</Time>
            <Position>
              <LatitudeDegrees>-49.22168944962322711944580078125</LatitudeDegrees>
              <LongitudeDegrees>-73.03997741080820560455322265625</LongitudeDegrees>
            </Position>
            <AltitudeMeters>631.20001220703125</AltitudeMeters>
            <DistanceMeters>2829.6638635682</DistanceMeters>
          </Trackpoint>
          <Trackpoint>
            <Time>2023-01-11T15:11:04.000Z</Time>
            <Position>
              <LatitudeDegrees>-49.2216975800693035125732421875</LatitudeDegrees>
              <LongitudeDegrees>-73.0399821884930133819580078125</LongitudeDegrees>
            </Position>
            <AltitudeMeters>631.4000244140625</AltitudeMeters>
            <DistanceMeters>2830.6329497099</DistanceMeters>
          </Trackpoint>
          <Trackpoint>
            <Time>2023-01-11T15:11:06.000Z</Time>
            <Position>
              <LatitudeDegrees>-49.22171409241855144500732421875</LatitudeDegrees>
              <LongitudeDegrees>-73.03998763673007488250732421875</LongitudeDegrees>
            </Position>
            <AltitudeMeters>631.5999755859375</AltitudeMeters>
            <DistanceMeters>2832.5143826654</DistanceMeters>
          </Trackpoint>
          <Trackpoint>
            <Time>2023-01-11T15:11:07.000Z</Time>
            <Position>
              <LatitudeDegrees>-49.22171987593173980712890625</LatitudeDegrees>
              <LongitudeDegrees>-73.03999073803424835205078125</LongitudeDegrees>
            </Position>
            <AltitudeMeters>631.5999755859375</AltitudeMeters>
            <DistanceMeters>2833.1996300478</DistanceMeters>
          </Trackpoint>
          <Trackpoint>
            <Time>2023-01-11T15:11:08.000Z</Time>
            <Position>
              <LatitudeDegrees>-49.2217260785400867462158203125</LatitudeDegrees>
              <LongitudeDegrees>-73.03999518044292926788330078125</LongitudeDegrees>
            </Position>
            <AltitudeMeters>631.5999755859375</AltitudeMeters>
            <DistanceMeters>2833.9598437628</DistanceMeters>
          </Trackpoint>
          <Trackpoint>
            <Time>2023-01-11T15:11:09.000Z</Time>
            <Position>
              <LatitudeDegrees>-49.2217314429581165313720703125</LatitudeDegrees>
              <LongitudeDegrees>-73.040001802146434783935546875</LongitudeDegrees>
            </Position>
            <AltitudeMeters>631.5999755859375</AltitudeMeters>
            <DistanceMeters>2834.7200574778</DistanceMeters>
          </Trackpoint>
          <Trackpoint>
            <Time>2023-01-11T15:11:10.000Z</Time>
            <Position>
              <LatitudeDegrees>-49.22173471190035343170166015625</LatitudeDegrees>
              <LongitudeDegrees>-73.04000574164092540740966796875</LongitudeDegrees>
            </Position>
            <AltitudeMeters>632.5999755859375</AltitudeMeters>
            <DistanceMeters>2835.185591402</DistanceMeters>
          </Trackpoint>
          <Trackpoint>
            <Time>2023-01-11T15:11:14.000Z</Time>
            <Position>
              <LatitudeDegrees>-49.2217428423464298248291015625</LatitudeDegrees>
              <LongitudeDegrees>-73.04001295007765293121337890625</LongitudeDegrees>
            </Position>
            <AltitudeMeters>633.79998779296875</AltitudeMeters>
            <DistanceMeters>2836.2351957685</DistanceMeters>
          </Trackpoint>
          <Trackpoint>
            <Time>2023-01-11T15:11:16.000Z</Time>
            <Position>
              <LatitudeDegrees>-49.22174560837447643280029296875</LatitudeDegrees>
              <LongitudeDegrees>-73.040010519325733184814453125</LongitudeDegrees>
            </Position>
            <AltitudeMeters>633.4000244140625</AltitudeMeters>
            <DistanceMeters>2836.5907531763</DistanceMeters>
          </Trackpoint>
          <Trackpoint>
            <Time>2023-01-11T15:11:27.000Z</Time>
            <Position>
              <LatitudeDegrees>-49.22177075408399105072021484375</LatitudeDegrees>
              <LongitudeDegrees>-73.04004547186195850372314453125</LongitudeDegrees>
            </Position>
            <AltitudeMeters>634.20001220703125</AltitudeMeters>
            <DistanceMeters>2840.3703802656</DistanceMeters>
          </Trackpoint>
          <Trackpoint>
            <Time>2023-01-11T15:11:33.000Z</Time>
            <Position>
              <LatitudeDegrees>-49.2218021862208843231201171875</LatitudeDegrees>
              <LongitudeDegrees>-73.04004077799618244171142578125</LongitudeDegrees>
            </Position>
            <AltitudeMeters>634.79998779296875</AltitudeMeters>
            <DistanceMeters>2843.8850843179</DistanceMeters>
          </Trackpoint>
          <Trackpoint>
            <Time>2023-01-11T15:11:37.000Z</Time>
            <Position>
              <LatitudeDegrees>-49.22183076851069927215576171875</LatitudeDegrees>
              <LongitudeDegrees>-73.04006005637347698211669921875</LongitudeDegrees>
            </Position>
            <AltitudeMeters>636</AltitudeMeters>
            <DistanceMeters>2847.3610363144</DistanceMeters>
          </Trackpoint>
          <Trackpoint>
            <Time>2023-01-11T15:11:43.000Z</Time>
            <Position>
              <LatitudeDegrees>-49.2218353785574436187744140625</LatitudeDegrees>
              <LongitudeDegrees>-73.0400660075247287750244140625</LongitudeDegrees>
            </Position>
            <AltitudeMeters>635.20001220703125</AltitudeMeters>
            <DistanceMeters>2848.0329766557</DistanceMeters>
          </Trackpoint>
          <Trackpoint>
            <Time>2023-01-11T15:11:51.000Z</Time>
            <Position>
              <LatitudeDegrees>-49.2218573391437530517578125</LatitudeDegrees>
              <LongitudeDegrees>-73.040119819343090057373046875</LongitudeDegrees>
            </Position>
            <AltitudeMeters>635.79998779296875</AltitudeMeters>
            <DistanceMeters>2852.6454445528</DistanceMeters>
          </Trackpoint>
          <Trackpoint>
            <Time>2023-01-11T15:11:56.000Z</Time>
            <Position>
              <LatitudeDegrees>-49.22189178876578807830810546875</LatitudeDegrees>
              <LongitudeDegrees>-73.040166758000850677490234375</LongitudeDegrees>
            </Position>
            <AltitudeMeters>635.4000244140625</AltitudeMeters>
            <DistanceMeters>2857.7786465811</DistanceMeters>
          </Trackpoint>
          <Trackpoint>
            <Time>2023-01-11T15:11:59.000Z</Time>
            <Position>
              <LatitudeDegrees>-49.22191525809466838836669921875</LatitudeDegrees>
              <LongitudeDegrees>-73.0401937477290630340576171875</LongitudeDegrees>
            </Position>
            <AltitudeMeters>635</AltitudeMeters>
            <DistanceMeters>2861.0456865804</DistanceMeters>
          </Trackpoint>
          <Trackpoint>
            <Time>2023-01-11T15:12:01.000Z</Time>
            <Position>
              <LatitudeDegrees>-49.22191877849400043487548828125</LatitudeDegrees>
              <LongitudeDegrees>-73.040201626718044281005859375</LongitudeDegrees>
            </Position>
            <AltitudeMeters>634.79998779296875</AltitudeMeters>
            <DistanceMeters>2861.7439874668</DistanceMeters>
          </Trackpoint>
          <Trackpoint>
            <Time>2023-01-11T15:12:04.000Z</Time>
            <Position>
              <LatitudeDegrees>-49.22193487174808979034423828125</LatitudeDegrees>
              <LongitudeDegrees>-73.0402100086212158203125</LongitudeDegrees>
            </Position>
            <AltitudeMeters>634.20001220703125</AltitudeMeters>
            <DistanceMeters>2863.6349952065</DistanceMeters>
          </Trackpoint>
          <Trackpoint>
            <Time>2023-01-11T15:12:11.000Z</Time>
            <Position>
              <LatitudeDegrees>-49.221995808184146881103515625</LatitudeDegrees>
              <LongitudeDegrees>-73.04024814628064632415771484375</LongitudeDegrees>
            </Position>
            <AltitudeMeters>634.4000244140625</AltitudeMeters>
            <DistanceMeters>2870.9625346664</DistanceMeters>
          </Trackpoint>
          <Trackpoint>
            <Time>2023-01-11T15:12:12.000Z</Time>
            <Position>
              <LatitudeDegrees>-49.22200410626828670501708984375</LatitudeDegrees>
              <LongitudeDegrees>-73.040259294211864471435546875</LongitudeDegrees>
            </Position>
            <AltitudeMeters>634.20001220703125</AltitudeMeters>
            <DistanceMeters>2872.1942216569</DistanceMeters>
          </Trackpoint>
          <Trackpoint>
            <Time>2023-01-11T15:12:17.000Z</Time>
            <Position>
              <LatitudeDegrees>-49.22205037437379360198974609375</LatitudeDegrees>
              <LongitudeDegrees>-73.0402822606265544891357421875</LongitudeDegrees>
            </Position>
            <AltitudeMeters>634</AltitudeMeters>
            <DistanceMeters>2877.6082430955</DistanceMeters>
          </Trackpoint>
          <Trackpoint>
            <Time>2023-01-11T15:12:21.000Z</Time>
            <Position>
              <LatitudeDegrees>-49.22207920812070369720458984375</LatitudeDegrees>
              <LongitudeDegrees>-73.040322996675968170166015625</LongitudeDegrees>
            </Position>
            <AltitudeMeters>634</AltitudeMeters>
            <DistanceMeters>2881.9753384058</DistanceMeters>
          </Trackpoint>
          <Trackpoint>
            <Time>2023-01-11T15:12:23.000Z</Time>
            <Position>
              <LatitudeDegrees>-49.22209781594574451446533203125</LatitudeDegrees>
              <LongitudeDegrees>-73.04034923203289508819580078125</LongitudeDegrees>
            </Position>
            <AltitudeMeters>634</AltitudeMeters>
            <DistanceMeters>2884.7910811351</DistanceMeters>
          </Trackpoint>
          <Trackpoint>
            <Time>2023-01-11T15:12:25.000Z</Time>
            <Position>
              <LatitudeDegrees>-49.2221059463918209075927734375</LatitudeDegrees>
              <LongitudeDegrees>-73.04037203080952167510986328125</LongitudeDegrees>
            </Position>
            <AltitudeMeters>633.5999755859375</AltitudeMeters>
            <DistanceMeters>2886.6773075582</DistanceMeters>
          </Trackpoint>
          <Trackpoint>
            <Time>2023-01-11T15:12:27.000Z</Time>
            <Position>
              <LatitudeDegrees>-49.22210837714374065399169921875</LatitudeDegrees>
              <LongitudeDegrees>-73.0403905548155307769775390625</LongitudeDegrees>
            </Position>
            <AltitudeMeters>632.5999755859375</AltitudeMeters>
            <DistanceMeters>2888.047802323</DistanceMeters>
          </Trackpoint>
          <Trackpoint>
            <Time>2023-01-11T15:12:29.000Z</Time>
            <Position>
              <LatitudeDegrees>-49.22211072407662868499755859375</LatitudeDegrees>
              <LongitudeDegrees>-73.04041729308664798736572265625</LongitudeDegrees>
            </Position>
            <AltitudeMeters>632.5999755859375</AltitudeMeters>
            <DistanceMeters>2890.006828226</DistanceMeters>
          </Trackpoint>
          <Trackpoint>
            <Time>2023-01-11T15:12:33.000Z</Time>
            <Position>
              <LatitudeDegrees>-49.2221274040639400482177734375</LatitudeDegrees>
              <LongitudeDegrees>-73.040459454059600830078125</LongitudeDegrees>
            </Position>
            <AltitudeMeters>631.5999755859375</AltitudeMeters>
            <DistanceMeters>2893.5902300599</DistanceMeters>
          </Trackpoint>
          <Trackpoint>
            <Time>2023-01-11T15:12:34.000Z</Time>
            <Position>
              <LatitudeDegrees>-49.2221324332058429718017578125</LatitudeDegrees>
              <LongitudeDegrees>-73.04046305827796459197998046875</LongitudeDegrees>
            </Position>
            <AltitudeMeters>631.5999755859375</AltitudeMeters>
            <DistanceMeters>2894.2060735551</DistanceMeters>
          </Trackpoint>
          <Trackpoint>
            <Time>2023-01-11T15:12:36.000Z</Time>
            <Position>
              <LatitudeDegrees>-49.22214861027896404266357421875</LatitudeDegrees>
              <LongitudeDegrees>-73.04048736579716205596923828125</LongitudeDegrees>
            </Position>
            <AltitudeMeters>631.5999755859375</AltitudeMeters>
            <DistanceMeters>2896.7274172081</DistanceMeters>
          </Trackpoint>
          <Trackpoint>
            <Time>2023-01-11T15:12:42.000Z</Time>
            <Position>
              <LatitudeDegrees>-49.22217316925525665283203125</LatitudeDegrees>
              <LongitudeDegrees>-73.0405719392001628875732421875</LongitudeDegrees>
            </Position>
            <AltitudeMeters>630.4000244140625</AltitudeMeters>
            <DistanceMeters>2903.4562212096</DistanceMeters>
          </Trackpoint>
          <Trackpoint>
            <Time>2023-01-11T15:12:43.000Z</Time>
            <Position>
              <LatitudeDegrees>-49.22217861749231815338134765625</LatitudeDegrees>
              <LongitudeDegrees>-73.0405826680362224578857421875</LongitudeDegrees>
            </Position>
            <AltitudeMeters>629.5999755859375</AltitudeMeters>
            <DistanceMeters>2904.4483292342</DistanceMeters>
          </Trackpoint>
          <Trackpoint>
            <Time>2023-01-11T15:12:44.000Z</Time>
            <Position>
              <LatitudeDegrees>-49.222185909748077392578125</LatitudeDegrees>
              <LongitudeDegrees>-73.04059264250099658966064453125</LongitudeDegrees>
            </Position>
            <AltitudeMeters>629.5999755859375</AltitudeMeters>
            <DistanceMeters>2905.5401030617</DistanceMeters>
          </Trackpoint>
          <Trackpoint>
            <Time>2023-01-11T15:12:45.000Z</Time>
            <Position>
              <LatitudeDegrees>-49.2221988178789615631103515625</LatitudeDegrees>
              <LongitudeDegrees>-73.0406044609844684600830078125</LongitudeDegrees>
            </Position>
            <AltitudeMeters>629.4000244140625</AltitudeMeters>
            <DistanceMeters>2907.2159174232</DistanceMeters>
          </Trackpoint>
          <Trackpoint>
            <Time>2023-01-11T15:12:48.000Z</Time>
            <Position>
              <LatitudeDegrees>-49.222223795950412750244140625</LatitudeDegrees>
              <LongitudeDegrees>-73.04063941352069377899169921875</LongitudeDegrees>
            </Position>
            <AltitudeMeters>628.5999755859375</AltitudeMeters>
            <DistanceMeters>2910.9823812945</DistanceMeters>
          </Trackpoint>
          <Trackpoint>
            <Time>2023-01-11T15:12:50.000Z</Time>
            <Position>
              <LatitudeDegrees>-49.2222330160439014434814453125</LatitudeDegrees>
              <LongitudeDegrees>-73.04066623561084270477294921875</LongitudeDegrees>
            </Position>
            <AltitudeMeters>628.5999755859375</AltitudeMeters>
            <DistanceMeters>2913.1865094955</DistanceMeters>
          </Trackpoint>
          <Trackpoint>
            <Time>2023-01-11T15:12:52.000Z</Time>
            <Position>
              <LatitudeDegrees>-49.2222437448799610137939453125</LatitudeDegrees>
              <LongitudeDegrees>-73.04068886674940586090087890625</LongitudeDegrees>
            </Position>
            <AltitudeMeters>628.5999755859375</AltitudeMeters>
            <DistanceMeters>2915.2201699911</DistanceMeters>
          </Trackpoint>
          <Trackpoint>
            <Time>2023-01-11T15:12:58.000Z</Time>
            <Position>
              <LatitudeDegrees>-49.2222896777093410491943359375</LatitudeDegrees>
              <LongitudeDegrees>-73.0407477915287017822265625</LongitudeDegrees>
            </Position>
            <AltitudeMeters>629.20001220703125</AltitudeMeters>
            <DistanceMeters>2921.8896644669</DistanceMeters>
          </Trackpoint>
          <Trackpoint>
            <Time>2023-01-11T15:13:00.000Z</Time>
            <Position>
              <LatitudeDegrees>-49.22230736352503299713134765625</LatitudeDegrees>
              <LongitudeDegrees>-73.04076748900115489959716796875</LongitudeDegrees>
            </Position>
            <AltitudeMeters>628.79998779296875</AltitudeMeters>
            <DistanceMeters>2924.3235358989</DistanceMeters>
          </Trackpoint>
          <Trackpoint>
            <Time>2023-01-11T15:13:01.000Z</Time>
            <Position>
              <LatitudeDegrees>-49.22231524251401424407958984375</LatitudeDegrees>
              <LongitudeDegrees>-73.04078039713203907012939453125</LongitudeDegrees>
            </Position>
            <AltitudeMeters>628.79998779296875</AltitudeMeters>
            <DistanceMeters>2925.612540967</DistanceMeters>
          </Trackpoint>
          <Trackpoint>
            <Time>2023-01-11T15:13:02.000Z</Time>
            <Position>
              <LatitudeDegrees>-49.2223158292472362518310546875</LatitudeDegrees>
              <LongitudeDegrees>-73.040792383253574371337890625</LongitudeDegrees>
            </Position>
            <AltitudeMeters>628.5999755859375</AltitudeMeters>
            <DistanceMeters>2926.4834751903</DistanceMeters>
          </Trackpoint>
          <Trackpoint>
            <Time>2023-01-11T15:13:03.000Z</Time>
            <Position>
              <LatitudeDegrees>-49.2223148234188556671142578125</LatitudeDegrees>
              <LongitudeDegrees>-73.04080487228929996490478515625</LongitudeDegrees>
            </Position>
            <AltitudeMeters>628.20001220703125</AltitudeMeters>
            <DistanceMeters>2927.3998796367</DistanceMeters>
          </Trackpoint>
          <Trackpoint>
            <Time>2023-01-11T15:13:04.000Z</Time>
            <Position>
              <LatitudeDegrees>-49.2223108001053333282470703125</LatitudeDegrees>
              <LongitudeDegrees>-73.0408173613250255584716796875</LongitudeDegrees>
            </Position>
            <AltitudeMeters>628.20001220703125</AltitudeMeters>
            <DistanceMeters>2928.414487302</DistanceMeters>
          </Trackpoint>
          <Trackpoint>
            <Time>2023-01-11T15:13:10.000Z</Time>
            <Position>
              <LatitudeDegrees>-49.22233141958713531494140625</LatitudeDegrees>
              <LongitudeDegrees>-73.04085365496575832366943359375</LongitudeDegrees>
            </Position>
            <AltitudeMeters>628.4000244140625</AltitudeMeters>
            <DistanceMeters>2931.9111605074</DistanceMeters>
          </Trackpoint>
          <Trackpoint>
            <Time>2023-01-11T15:13:14.000Z</Time>
            <Position>
              <LatitudeDegrees>-49.22236218117177486419677734375</LatitudeDegrees>
              <LongitudeDegrees>-73.0408777110278606414794921875</LongitudeDegrees>
            </Position>
            <AltitudeMeters>628.79998779296875</AltitudeMeters>
            <DistanceMeters>2935.7547532359</DistanceMeters>
          </Trackpoint>
          <Trackpoint>
            <Time>2023-01-11T15:13:17.000Z</Time>
            <Position>
              <LatitudeDegrees>-49.2223751731216907501220703125</LatitudeDegrees>
              <LongitudeDegrees>-73.04089690558612346649169921875</LongitudeDegrees>
            </Position>
            <AltitudeMeters>628.79998779296875</AltitudeMeters>
            <DistanceMeters>2937.7638436197</DistanceMeters>
          </Trackpoint>
          <Trackpoint>
            <Time>2023-01-11T15:13:19.000Z</Time>
            <Position>
              <LatitudeDegrees>-49.22238732688128948211669921875</LatitudeDegrees>
              <LongitudeDegrees>-73.040915094316005706787109375</LongitudeDegrees>
            </Position>
            <AltitudeMeters>628.79998779296875</AltitudeMeters>
            <DistanceMeters>2939.6548513595</DistanceMeters>
          </Trackpoint>
          <Trackpoint>
            <Time>2023-01-11T15:13:20.000Z</Time>
            <Position>
              <LatitudeDegrees>-49.22239084728062152862548828125</LatitudeDegrees>
              <LongitudeDegrees>-73.04092490114271640777587890625</LongitudeDegrees>
            </Position>
            <AltitudeMeters>628.79998779296875</AltitudeMeters>
            <DistanceMeters>2940.4723020655</DistanceMeters>
          </Trackpoint>
          <Trackpoint>
            <Time>2023-01-11T15:13:21.000Z</Time>
            <Position>
              <LatitudeDegrees>-49.22239738516509532928466796875</LatitudeDegrees>
              <LongitudeDegrees>-73.0409382283687591552734375</LongitudeDegrees>
            </Position>
            <AltitudeMeters>628.79998779296875</AltitudeMeters>
            <DistanceMeters>2941.6817946798</DistanceMeters>
          </Trackpoint>
          <Trackpoint>
            <Time>2023-01-11T15:13:26.000Z</Time>
            <Position>
              <LatitudeDegrees>-49.22242051921784877777099609375</LatitudeDegrees>
              <LongitudeDegrees>-73.040960021317005157470703125</LongitudeDegrees>
            </Position>
            <AltitudeMeters>629</AltitudeMeters>
            <DistanceMeters>2944.7047795228</DistanceMeters>
          </Trackpoint>
          <Trackpoint>
            <Time>2023-01-11T15:13:31.000Z</Time>
            <Position>
              <LatitudeDegrees>-49.22237944789230823516845703125</LatitudeDegrees>
              <LongitudeDegrees>-73.04093328304588794708251953125</LongitudeDegrees>
            </Position>
            <AltitudeMeters>629</AltitudeMeters>
            <DistanceMeters>2949.6735046106</DistanceMeters>
          </Trackpoint>
          <Trackpoint>
            <Time>2023-01-11T15:13:33.000Z</Time>
            <Position>
              <LatitudeDegrees>-49.22238816507160663604736328125</LatitudeDegrees>
              <LongitudeDegrees>-73.04095155559480190277099609375</LongitudeDegrees>
            </Position>
            <AltitudeMeters>629</AltitudeMeters>
            <DistanceMeters>2951.3194155842</DistanceMeters>
          </Trackpoint>
          <Trackpoint>
            <Time>2023-01-11T15:13:36.000Z</Time>
            <Position>
              <LatitudeDegrees>-49.2223999835550785064697265625</LatitudeDegrees>
              <LongitudeDegrees>-73.04097921587526798248291015625</LongitudeDegrees>
            </Position>
            <AltitudeMeters>629.4000244140625</AltitudeMeters>
            <DistanceMeters>2953.723422432</DistanceMeters>
          </Trackpoint>
          <Trackpoint>
            <Time>2023-01-11T15:13:40.000Z</Time>
            <Position>
              <LatitudeDegrees>-49.22242655418813228607177734375</LatitudeDegrees>
              <LongitudeDegrees>-73.04102028720080852508544921875</LongitudeDegrees>
            </Position>
            <AltitudeMeters>629.79998779296875</AltitudeMeters>
            <DistanceMeters>2957.9261393538</DistanceMeters>
          </Trackpoint>
          <Trackpoint>
            <Time>2023-01-11T15:13:47.000Z</Time>
            <Position>
              <LatitudeDegrees>-49.222443066537380218505859375</LatitudeDegrees>
              <LongitudeDegrees>-73.04111148230731487274169921875</LongitudeDegrees>
            </Position>
            <AltitudeMeters>630</AltitudeMeters>
            <DistanceMeters>2964.8062309752</DistanceMeters>
          </Trackpoint>
          <Trackpoint>
            <Time>2023-01-11T15:13:48.000Z</Time>
            <Position>
              <LatitudeDegrees>-49.2224393784999847412109375</LatitudeDegrees>
              <LongitudeDegrees>-73.041126318275928497314453125</LongitudeDegrees>
            </Position>
            <AltitudeMeters>630</AltitudeMeters>
            <DistanceMeters>2965.9622808503</DistanceMeters>
          </Trackpoint>
          <Trackpoint>
            <Time>2023-01-11T15:13:53.000Z</Time>
            <Position>
              <LatitudeDegrees>-49.22244784422218799591064453125</LatitudeDegrees>
              <LongitudeDegrees>-73.04119228385388851165771484375</LongitudeDegrees>
            </Position>
            <AltitudeMeters>629.79998779296875</AltitudeMeters>
            <DistanceMeters>2970.8503870552</DistanceMeters>
          </Trackpoint>
          <Trackpoint>
            <Time>2023-01-11T15:13:59.000Z</Time>
            <Position>
              <LatitudeDegrees>-49.22244281508028507232666015625</LatitudeDegrees>
              <LongitudeDegrees>-73.04127157665789127349853515625</LongitudeDegrees>
            </Position>
            <AltitudeMeters>630.5999755859375</AltitudeMeters>
            <DistanceMeters>2976.6415617126</DistanceMeters>
          </Trackpoint>
          <Trackpoint>
            <Time>2023-01-11T15:14:02.000Z</Time>
            <Position>
              <LatitudeDegrees>-49.2224355228245258331298828125</LatitudeDegrees>
              <LongitudeDegrees>-73.041296303272247314453125</LongitudeDegrees>
            </Position>
            <AltitudeMeters>631</AltitudeMeters>
            <DistanceMeters>2978.616654881</DistanceMeters>
          </Trackpoint>
          <Trackpoint>
            <Time>2023-01-11T15:14:05.000Z</Time>
            <Position>
              <LatitudeDegrees>-49.22242353670299053192138671875</LatitudeDegrees>
              <LongitudeDegrees>-73.041332848370075225830078125</LongitudeDegrees>
            </Position>
            <AltitudeMeters>631.5999755859375</AltitudeMeters>
            <DistanceMeters>2981.5899434373</DistanceMeters>
          </Trackpoint>
          <Trackpoint>
            <Time>2023-01-11T15:14:11.000Z</Time>
            <Position>
              <LatitudeDegrees>-49.22240174375474452972412109375</LatitudeDegrees>
              <LongitudeDegrees>-73.04139998741447925567626953125</LongitudeDegrees>
            </Position>
            <AltitudeMeters>634.20001220703125</AltitudeMeters>
            <DistanceMeters>2987.0405352859</DistanceMeters>
          </Trackpoint>
          <Trackpoint>
            <Time>2023-01-11T15:14:12.000Z</Time>
            <Position>
              <LatitudeDegrees>-49.222400486469268798828125</LatitudeDegrees>
              <LongitudeDegrees>-73.04141457192599773406982421875</LongitudeDegrees>
            </Position>
            <AltitudeMeters>634.20001220703125</AltitudeMeters>
            <DistanceMeters>2988.1072075092</DistanceMeters>
          </Trackpoint>
          <Trackpoint>
            <Time>2023-01-11T15:14:18.000Z</Time>
            <Position>
              <LatitudeDegrees>-49.22241666354238986968994140625</LatitudeDegrees>
              <LongitudeDegrees>-73.0414912663400173187255859375</LongitudeDegrees>
            </Position>
            <AltitudeMeters>633.5999755859375</AltitudeMeters>
            <DistanceMeters>2993.9650475964</DistanceMeters>
          </Trackpoint>
          <Trackpoint>
            <Time>2023-01-11T15:14:20.000Z</Time>
            <Position>
              <LatitudeDegrees>-49.22241129912436008453369140625</LatitudeDegrees>
              <LongitudeDegrees>-73.04152655415236949920654296875</LongitudeDegrees>
            </Position>
            <AltitudeMeters>633.79998779296875</AltitudeMeters>
            <DistanceMeters>2996.5985051542</DistanceMeters>
          </Trackpoint>
          <Trackpoint>
            <Time>2023-01-11T15:14:28.000Z</Time>
            <Position>
              <LatitudeDegrees>-49.222384728491306304931640625</LatitudeDegrees>
              <LongitudeDegrees>-73.0416247062385082244873046875</LongitudeDegrees>
            </Position>
            <AltitudeMeters>633.5999755859375</AltitudeMeters>
            <DistanceMeters>3004.3220202211</DistanceMeters>
          </Trackpoint>
          <Trackpoint>
            <Time>2023-01-11T15:14:30.000Z</Time>
            <Position>
              <LatitudeDegrees>-49.22237156890332698822021484375</LatitudeDegrees>
              <LongitudeDegrees>-73.04161841981112957000732421875</LongitudeDegrees>
            </Position>
            <AltitudeMeters>633.20001220703125</AltitudeMeters>
            <DistanceMeters>3005.8542799496</DistanceMeters>
          </Trackpoint>
          <Trackpoint>
            <Time>2023-01-11T15:14:37.000Z</Time>
            <Position>
              <LatitudeDegrees>-49.22235430218279361724853515625</LatitudeDegrees>
              <LongitudeDegrees>-73.04162956774234771728515625</LongitudeDegrees>
            </Position>
            <AltitudeMeters>633.4000244140625</AltitudeMeters>
            <DistanceMeters>3007.9362109506</DistanceMeters>
          </Trackpoint>
          <Trackpoint>
            <Time>2023-01-11T15:14:43.000Z</Time>
            <Position>
              <LatitudeDegrees>-49.222329743206501007080078125</LatitudeDegrees>
              <LongitudeDegrees>-73.041698634624481201171875</LongitudeDegrees>
            </Position>
            <AltitudeMeters>634</AltitudeMeters>
            <DistanceMeters>3013.6520500469</DistanceMeters>
          </Trackpoint>
          <Trackpoint>
            <Time>2023-01-11T15:14:45.000Z</Time>
            <Position>
              <LatitudeDegrees>-49.2223305813968181610107421875</LatitudeDegrees>
              <LongitudeDegrees>-73.04172051139175891876220703125</LongitudeDegrees>
            </Position>
            <AltitudeMeters>634</AltitudeMeters>
            <DistanceMeters>3015.2478199417</DistanceMeters>
          </Trackpoint>
          <Trackpoint>
            <Time>2023-01-11T15:14:47.000Z</Time>
            <Position>
              <LatitudeDegrees>-49.22231876291334629058837890625</LatitudeDegrees>
              <LongitudeDegrees>-73.04174582473933696746826171875</LongitudeDegrees>
            </Position>
            <AltitudeMeters>634.79998779296875</AltitudeMeters>
            <DistanceMeters>3017.5085771748</DistanceMeters>
          </Trackpoint>
          <Trackpoint>
            <Time>2023-01-11T15:14:48.000Z</Time>
            <Position>
              <LatitudeDegrees>-49.22231256030499935150146484375</LatitudeDegrees>
              <LongitudeDegrees>-73.0417611636221408843994140625</LongitudeDegrees>
            </Position>
            <AltitudeMeters>634.79998779296875</AltitudeMeters>
            <DistanceMeters>3018.8184300385</DistanceMeters>
          </Trackpoint>
          <Trackpoint>
            <Time>2023-01-11T15:14:50.000Z</Time>
            <Position>
              <LatitudeDegrees>-49.22231197357177734375</LatitudeDegrees>
              <LongitudeDegrees>-73.0417819507420063018798828125</LongitudeDegrees>
            </Position>
            <AltitudeMeters>633.5999755859375</AltitudeMeters>
            <DistanceMeters>3020.32992246</DistanceMeters>
          </Trackpoint>
          <Trackpoint>
            <Time>2023-01-11T15:14:51.000Z</Time>
            <Position>
              <LatitudeDegrees>-49.22231130301952362060546875</LatitudeDegrees>
              <LongitudeDegrees>-73.0417977087199687957763671875</LongitudeDegrees>
            </Position>
            <AltitudeMeters>633.5999755859375</AltitudeMeters>
            <DistanceMeters>3021.4781346184</DistanceMeters>
          </Trackpoint>
          <Trackpoint>
            <Time>2023-01-11T15:14:53.000Z</Time>
            <Position>
              <LatitudeDegrees>-49.22230937518179416656494140625</LatitudeDegrees>
              <LongitudeDegrees>-73.04182712920010089874267578125</LongitudeDegrees>
            </Position>
            <AltitudeMeters>632.5999755859375</AltitudeMeters>
            <DistanceMeters>3023.6283437104</DistanceMeters>
          </Trackpoint>
          <Trackpoint>
            <Time>2023-01-11T15:14:55.000Z</Time>
            <Position>
              <LatitudeDegrees>-49.2222913540899753570556640625</LatitudeDegrees>
              <LongitudeDegrees>-73.04185881279408931732177734375</LongitudeDegrees>
            </Position>
            <AltitudeMeters>632.5999755859375</AltitudeMeters>
            <DistanceMeters>3026.6840104205</DistanceMeters>
          </Trackpoint>
          <Trackpoint>
            <Time>2023-01-11T15:14:56.000Z</Time>
            <Position>
              <LatitudeDegrees>-49.22228305600583553314208984375</LatitudeDegrees>
              <LongitudeDegrees>-73.04187121801078319549560546875</LongitudeDegrees>
            </Position>
            <AltitudeMeters>632.5999755859375</AltitudeMeters>
            <DistanceMeters>3027.9765134736</DistanceMeters>
          </Trackpoint>
          <Trackpoint>
            <Time>2023-01-11T15:15:00.000Z</Time>
            <Position>
              <LatitudeDegrees>-49.22228707931935787200927734375</LatitudeDegrees>
              <LongitudeDegrees>-73.04186836816370487213134765625</LongitudeDegrees>
            </Position>
            <AltitudeMeters>633.79998779296875</AltitudeMeters>
            <DistanceMeters>3028.4610565444</DistanceMeters>
          </Trackpoint>
          <Trackpoint>
            <Time>2023-01-11T15:15:06.000Z</Time>
            <Position>
              <LatitudeDegrees>-49.2222913540899753570556640625</LatitudeDegrees>
              <LongitudeDegrees>-73.0418624170124530792236328125</LongitudeDegrees>
            </Position>
            <AltitudeMeters>633.79998779296875</AltitudeMeters>
            <DistanceMeters>3029.1055590785</DistanceMeters>
          </Trackpoint>
          <Trackpoint>
            <Time>2023-01-11T15:15:10.000Z</Time>
            <Position>
              <LatitudeDegrees>-49.22229579649865627288818359375</LatitudeDegrees>
              <LongitudeDegrees>-73.04189451970160007476806640625</LongitudeDegrees>
            </Position>
            <AltitudeMeters>633.5999755859375</AltitudeMeters>
            <DistanceMeters>3031.4907106795</DistanceMeters>
          </Trackpoint>
          <Trackpoint>
            <Time>2023-01-11T15:15:22.000Z</Time>
            <Position>
              <LatitudeDegrees>-49.22229579649865627288818359375</LatitudeDegrees>
              <LongitudeDegrees>-73.04188496433198451995849609375</LongitudeDegrees>
            </Position>
            <AltitudeMeters>633.79998779296875</AltitudeMeters>
            <DistanceMeters>3032.1890115659</DistanceMeters>
          </Trackpoint>
          <Trackpoint>
            <Time>2023-01-11T15:15:28.000Z</Time>
            <Position>
              <LatitudeDegrees>-49.22229043208062648773193359375</LatitudeDegrees>
              <LongitudeDegrees>-73.04187574423849582672119140625</LongitudeDegrees>
            </Position>
            <AltitudeMeters>634</AltitudeMeters>
            <DistanceMeters>3033.0905141338</DistanceMeters>
          </Trackpoint>
          <Trackpoint>
            <Time>2023-01-11T15:15:30.000Z</Time>
            <Position>
              <LatitudeDegrees>-49.22228909097611904144287109375</LatitudeDegrees>
              <LongitudeDegrees>-73.0418741516768932342529296875</LongitudeDegrees>
            </Position>
            <AltitudeMeters>633.79998779296875</AltitudeMeters>
            <DistanceMeters>3033.2805675626</DistanceMeters>
          </Trackpoint>
          <Trackpoint>
            <Time>2023-01-11T15:15:33.000Z</Time>
            <Position>
              <LatitudeDegrees>-49.22228741459548473358154296875</LatitudeDegrees>
              <LongitudeDegrees>-73.04187457077205181121826171875</LongitudeDegrees>
            </Position>
            <AltitudeMeters>633.4000244140625</AltitudeMeters>
            <DistanceMeters>3033.4451586599</DistanceMeters>
          </Trackpoint>
          <Trackpoint>
            <Time>2023-01-11T15:15:41.000Z</Time>
            <Position>
              <LatitudeDegrees>-49.2222658731043338775634765625</LatitudeDegrees>
              <LongitudeDegrees>-73.04195218719542026519775390625</LongitudeDegrees>
            </Position>
            <AltitudeMeters>633.5999755859375</AltitudeMeters>
            <DistanceMeters>3039.5741975737</DistanceMeters>
          </Trackpoint>
          <Trackpoint>
            <Time>2023-01-11T15:15:47.000Z</Time>
            <Position>
              <LatitudeDegrees>-49.22224827110767364501953125</LatitudeDegrees>
              <LongitudeDegrees>-73.04204707033932209014892578125</LongitudeDegrees>
            </Position>
            <AltitudeMeters>632.5999755859375</AltitudeMeters>
            <DistanceMeters>3046.7435207719</DistanceMeters>
          </Trackpoint>
          <Trackpoint>
            <Time>2023-01-11T15:15:53.000Z</Time>
            <Position>
              <LatitudeDegrees>-49.2222095467150211334228515625</LatitudeDegrees>
              <LongitudeDegrees>-73.04212887771427631378173828125</LongitudeDegrees>
            </Position>
            <AltitudeMeters>632.20001220703125</AltitudeMeters>
            <DistanceMeters>3054.0882928361</DistanceMeters>
          </Trackpoint>
          <Trackpoint>
            <Time>2023-01-11T15:15:55.000Z</Time>
            <Position>
              <LatitudeDegrees>-49.2221952974796295166015625</LatitudeDegrees>
              <LongitudeDegrees>-73.042150251567363739013671875</LongitudeDegrees>
            </Position>
            <AltitudeMeters>632.5999755859375</AltitudeMeters>
            <DistanceMeters>3056.3087481359</DistanceMeters>
          </Trackpoint>
          <Trackpoint>
            <Time>2023-01-11T15:15:59.000Z</Time>
            <Position>
              <LatitudeDegrees>-49.22219957225024700164794921875</LatitudeDegrees>
              <LongitudeDegrees>-73.0422154627740383148193359375</LongitudeDegrees>
            </Position>
            <AltitudeMeters>632.20001220703125</AltitudeMeters>
            <DistanceMeters>3061.0733690212</DistanceMeters>
          </Trackpoint>
          <Trackpoint>
            <Time>2023-01-11T15:16:03.000Z</Time>
            <Position>
              <LatitudeDegrees>-49.22218079678714275360107421875</LatitudeDegrees>
              <LongitudeDegrees>-73.0422835238277912139892578125</LongitudeDegrees>
            </Position>
            <AltitudeMeters>631.4000244140625</AltitudeMeters>
            <DistanceMeters>3066.4446904823</DistanceMeters>
          </Trackpoint>
          <Trackpoint>
            <Time>2023-01-11T15:16:06.000Z</Time>
            <Position>
              <LatitudeDegrees>-49.22217660583555698394775390625</LatitudeDegrees>
              <LongitudeDegrees>-73.04231914691627025604248046875</LongitudeDegrees>
            </Position>
            <AltitudeMeters>630.4000244140625</AltitudeMeters>
            <DistanceMeters>3069.0747168236</DistanceMeters>
          </Trackpoint>
          <Trackpoint>
            <Time>2023-01-11T15:16:09.000Z</Time>
            <Position>
              <LatitudeDegrees>-49.22216202132403850555419921875</LatitudeDegrees>
              <LongitudeDegrees>-73.04237195290625095367431640625</LongitudeDegrees>
            </Position>
            <AltitudeMeters>630</AltitudeMeters>
            <DistanceMeters>3073.2429139252</DistanceMeters>
          </Trackpoint>
          <Trackpoint>
            <Time>2023-01-11T15:16:16.000Z</Time>
            <Position>
              <LatitudeDegrees>-49.22210971824824810028076171875</LatitudeDegrees>
              <LongitudeDegrees>-73.04248812608420848846435546875</LongitudeDegrees>
            </Position>
            <AltitudeMeters>629.5999755859375</AltitudeMeters>
            <DistanceMeters>3083.5000782823</DistanceMeters>
          </Trackpoint>
          <Trackpoint>
            <Time>2023-01-11T15:16:24.000Z</Time>
            <Position>
              <LatitudeDegrees>-49.2220885120332241058349609375</LatitudeDegrees>
              <LongitudeDegrees>-73.04260329343378543853759765625</LongitudeDegrees>
            </Position>
            <AltitudeMeters>631</AltitudeMeters>
            <DistanceMeters>3092.1990460717</DistanceMeters>
          </Trackpoint>
          <Trackpoint>
            <Time>2023-01-11T15:16:25.000Z</Time>
            <Position>
              <LatitudeDegrees>-49.2220838181674480438232421875</LatitudeDegrees>
              <LongitudeDegrees>-73.042618297040462493896484375</LongitudeDegrees>
            </Position>
            <AltitudeMeters>631.5999755859375</AltitudeMeters>
            <DistanceMeters>3093.4085386859</DistanceMeters>
          </Trackpoint>
          <Trackpoint>
            <Time>2023-01-11T15:16:31.000Z</Time>
            <Position>
              <LatitudeDegrees>-49.22202791087329387664794921875</LatitudeDegrees>
              <LongitudeDegrees>-73.0426865257322788238525390625</LongitudeDegrees>
            </Position>
            <AltitudeMeters>632.20001220703125</AltitudeMeters>
            <DistanceMeters>3101.3658558233</DistanceMeters>
          </Trackpoint>
          <Trackpoint>
            <Time>2023-01-11T15:16:36.000Z</Time>
            <Position>
              <LatitudeDegrees>-49.22198868356645107269287109375</LatitudeDegrees>
              <LongitudeDegrees>-73.04272986017167568206787109375</LongitudeDegrees>
            </Position>
            <AltitudeMeters>630.4000244140625</AltitudeMeters>
            <DistanceMeters>3106.7497712559</DistanceMeters>
          </Trackpoint>
          <Trackpoint>
            <Time>2023-01-11T15:16:38.000Z</Time>
            <Position>
              <LatitudeDegrees>-49.2219852469861507415771484375</LatitudeDegrees>
              <LongitudeDegrees>-73.04274377413094043731689453125</LongitudeDegrees>
            </Position>
            <AltitudeMeters>629.20001220703125</AltitudeMeters>
            <DistanceMeters>3107.8332425004</DistanceMeters>
          </Trackpoint>
          <Trackpoint>
            <Time>2023-01-11T15:16:40.000Z</Time>
            <Position>
              <LatitudeDegrees>-49.22198063693940639495849609375</LatitudeDegrees>
              <LongitudeDegrees>-73.04273773916065692901611328125</LongitudeDegrees>
            </Position>
            <AltitudeMeters>629</AltitudeMeters>
            <DistanceMeters>3108.5051828417</DistanceMeters>
          </Trackpoint>
          <Trackpoint>
            <Time>2023-01-11T15:16:43.000Z</Time>
            <Position>
              <LatitudeDegrees>-49.2219726741313934326171875</LatitudeDegrees>
              <LongitudeDegrees>-73.0427420139312744140625</LongitudeDegrees>
            </Position>
            <AltitudeMeters>629</AltitudeMeters>
            <DistanceMeters>3109.4410874389</DistanceMeters>
          </Trackpoint>
          <Trackpoint>
            <Time>2023-01-11T15:16:46.000Z</Time>
            <Position>
              <LatitudeDegrees>-49.2219654656946659088134765625</LatitudeDegrees>
              <LongitudeDegrees>-73.04276389069855213165283203125</LongitudeDegrees>
            </Position>
            <AltitudeMeters>629.5999755859375</AltitudeMeters>
            <DistanceMeters>3111.2239466336</DistanceMeters>
          </Trackpoint>
          <Trackpoint>
            <Time>2023-01-11T15:16:47.000Z</Time>
            <Position>
              <LatitudeDegrees>-49.2219538986682891845703125</LatitudeDegrees>
              <LongitudeDegrees>-73.04276757873594760894775390625</LongitudeDegrees>
            </Position>
            <AltitudeMeters>629.5999755859375</AltitudeMeters>
            <DistanceMeters>3112.5406754125</DistanceMeters>
          </Trackpoint>
          <Trackpoint>
            <Time>2023-01-11T15:16:49.000Z</Time>
            <Position>
              <LatitudeDegrees>-49.22194928862154483795166015625</LatitudeDegrees>
              <LongitudeDegrees>-73.0427567660808563232421875</LongitudeDegrees>
            </Position>
            <AltitudeMeters>629.79998779296875</AltitudeMeters>
            <DistanceMeters>3113.4813918903</DistanceMeters>
          </Trackpoint>
          <Trackpoint>
            <Time>2023-01-11T15:16:53.000Z</Time>
            <Position>
              <LatitudeDegrees>-49.22194291837513446807861328125</LatitudeDegrees>
              <LongitudeDegrees>-73.04276020266115665435791015625</LongitudeDegrees>
            </Position>
            <AltitudeMeters>629.5999755859375</AltitudeMeters>
            <DistanceMeters>3114.2296329875</DistanceMeters>
          </Trackpoint>
          <Trackpoint>
            <Time>2023-01-11T15:17:04.000Z</Time>
            <Position>
              <LatitudeDegrees>-49.22194174490869045257568359375</LatitudeDegrees>
              <LongitudeDegrees>-73.042758442461490631103515625</LongitudeDegrees>
            </Position>
            <AltitudeMeters>629.79998779296875</AltitudeMeters>
            <DistanceMeters>3114.4196864162</DistanceMeters>
          </Trackpoint>
          <Trackpoint>
            <Time>2023-01-11T15:17:06.000Z</Time>
            <Position>
              <LatitudeDegrees>-49.22193638049066066741943359375</LatitudeDegrees>
              <LongitudeDegrees>-73.04278870113193988800048828125</LongitudeDegrees>
            </Position>
            <AltitudeMeters>628.20001220703125</AltitudeMeters>
            <DistanceMeters>3116.7003275611</DistanceMeters>
          </Trackpoint>
          <Trackpoint>
            <Time>2023-01-11T15:17:09.000Z</Time>
            <Position>
              <LatitudeDegrees>-49.22193420119583606719970703125</LatitudeDegrees>
              <LongitudeDegrees>-73.0428645573556423187255859375</LongitudeDegrees>
            </Position>
            <AltitudeMeters>627.5999755859375</AltitudeMeters>
            <DistanceMeters>3122.2200628738</DistanceMeters>
          </Trackpoint>
          <Trackpoint>
            <Time>2023-01-11T15:17:11.000Z</Time>
            <Position>
              <LatitudeDegrees>-49.22192213125526905059814453125</LatitudeDegrees>
              <LongitudeDegrees>-73.04290621541440486907958984375</LongitudeDegrees>
            </Position>
            <AltitudeMeters>627.5999755859375</AltitudeMeters>
            <DistanceMeters>3125.5310314334</DistanceMeters>
          </Trackpoint>
          <Trackpoint>
            <Time>2023-01-11T15:17:14.000Z</Time>
            <Position>
              <LatitudeDegrees>-49.2219150066375732421875</LatitudeDegrees>
              <LongitudeDegrees>-73.04295784793794155120849609375</LongitudeDegrees>
            </Position>
            <AltitudeMeters>627.5999755859375</AltitudeMeters>
            <DistanceMeters>3129.3663925021</DistanceMeters>
          </Trackpoint>
          <Trackpoint>
            <Time>2023-01-11T15:17:20.000Z</Time>
            <Position>
              <LatitudeDegrees>-49.22190402634441852569580078125</LatitudeDegrees>
              <LongitudeDegrees>-73.042982406914234161376953125</LongitudeDegrees>
            </Position>
            <AltitudeMeters>627.5999755859375</AltitudeMeters>
            <DistanceMeters>3131.5291637794</DistanceMeters>
          </Trackpoint>
          <Trackpoint>
            <Time>2023-01-11T15:17:27.000Z</Time>
            <Position>
              <LatitudeDegrees>-49.2218963988125324249267578125</LatitudeDegrees>
              <LongitudeDegrees>-73.04306563921272754669189453125</LongitudeDegrees>
            </Position>
            <AltitudeMeters>629</AltitudeMeters>
            <DistanceMeters>3137.6390194258</DistanceMeters>
          </Trackpoint>
          <Trackpoint>
            <Time>2023-01-11T15:17:29.000Z</Time>
            <Position>
              <LatitudeDegrees>-49.22189782373607158660888671875</LatitudeDegrees>
              <LongitudeDegrees>-73.04309631697833538055419921875</LongitudeDegrees>
            </Position>
            <AltitudeMeters>629</AltitudeMeters>
            <DistanceMeters>3139.8736630827</DistanceMeters>
          </Trackpoint>
          <Trackpoint>
            <Time>2023-01-11T15:17:34.000Z</Time>
            <Position>
              <LatitudeDegrees>-49.221894554793834686279296875</LatitudeDegrees>
              <LongitudeDegrees>-73.04315716959536075592041015625</LongitudeDegrees>
            </Position>
            <AltitudeMeters>628</AltitudeMeters>
            <DistanceMeters>3144.3125398326</DistanceMeters>
          </Trackpoint>
          <Trackpoint>
            <Time>2023-01-11T15:17:38.000Z</Time>
            <Position>
              <LatitudeDegrees>-49.22191274352371692657470703125</LatitudeDegrees>
              <LongitudeDegrees>-73.04321986623108386993408203125</LongitudeDegrees>
            </Position>
            <AltitudeMeters>627.4000244140625</AltitudeMeters>
            <DistanceMeters>3149.3012160778</DistanceMeters>
          </Trackpoint>
          <Trackpoint>
            <Time>2023-01-11T15:17:42.000Z</Time>
            <Position>
              <LatitudeDegrees>-49.2219081334769725799560546875</LatitudeDegrees>
              <LongitudeDegrees>-73.04325775243341922760009765625</LongitudeDegrees>
            </Position>
            <AltitudeMeters>627.4000244140625</AltitudeMeters>
            <DistanceMeters>3152.1041014672</DistanceMeters>
          </Trackpoint>
          <Trackpoint>
            <Time>2023-01-11T15:17:44.000Z</Time>
            <Position>
              <LatitudeDegrees>-49.22189346514642238616943359375</LatitudeDegrees>
              <LongitudeDegrees>-73.04326982237398624420166015625</LongitudeDegrees>
            </Position>
            <AltitudeMeters>626.20001220703125</AltitudeMeters>
            <DistanceMeters>3153.9589489341</DistanceMeters>
          </Trackpoint>
          <Trackpoint>
            <Time>2023-01-11T15:17:45.000Z</Time>
            <Position>
              <LatitudeDegrees>-49.22189078293740749359130859375</LatitudeDegrees>
              <LongitudeDegrees>-73.04326948709785938262939453125</LongitudeDegrees>
            </Position>
            <AltitudeMeters>626</AltitudeMeters>
            <DistanceMeters>3154.25944979</DistanceMeters>
          </Trackpoint>
          <Trackpoint>
            <Time>2023-01-11T15:17:50.000Z</Time>
            <Position>
              <LatitudeDegrees>-49.22187385149300098419189453125</LatitudeDegrees>
              <LongitudeDegrees>-73.04327200166881084442138671875</LongitudeDegrees>
            </Position>
            <AltitudeMeters>625.5999755859375</AltitudeMeters>
            <DistanceMeters>3156.1528436604</DistanceMeters>
          </Trackpoint>
          <Trackpoint>
            <Time>2023-01-11T15:17:58.000Z</Time>
            <Position>
              <LatitudeDegrees>-49.22186379320919513702392578125</LatitudeDegrees>
              <LongitudeDegrees>-73.04334425367414951324462890625</LongitudeDegrees>
            </Position>
            <AltitudeMeters>625.20001220703125</AltitudeMeters>
            <DistanceMeters>3161.5233244733</DistanceMeters>
          </Trackpoint>
          <Trackpoint>
            <Time>2023-01-11T15:18:00.000Z</Time>
            <Position>
              <LatitudeDegrees>-49.22186144627630710601806640625</LatitudeDegrees>
              <LongitudeDegrees>-73.04337912239134311676025390625</LongitudeDegrees>
            </Position>
            <AltitudeMeters>625</AltitudeMeters>
            <DistanceMeters>3164.0713874559</DistanceMeters>
          </Trackpoint>
          <Trackpoint>
            <Time>2023-01-11T15:18:01.000Z</Time>
            <Position>
              <LatitudeDegrees>-49.22186379320919513702392578125</LatitudeDegrees>
              <LongitudeDegrees>-73.0434046871960163116455078125</LongitudeDegrees>
            </Position>
            <AltitudeMeters>624.79998779296875</AltitudeMeters>
            <DistanceMeters>3165.9480146999</DistanceMeters>
          </Trackpoint>
          <Trackpoint>
            <Time>2023-01-11T15:18:02.000Z</Time>
            <Position>
              <LatitudeDegrees>-49.2218588478863239288330078125</LatitudeDegrees>
              <LongitudeDegrees>-73.0434207804501056671142578125</LongitudeDegrees>
            </Position>
            <AltitudeMeters>624.79998779296875</AltitudeMeters>
            <DistanceMeters>3167.2440062966</DistanceMeters>
          </Trackpoint>
          <Trackpoint>
            <Time>2023-01-11T15:18:06.000Z</Time>
            <Position>
              <LatitudeDegrees>-49.2218679003417491912841796875</LatitudeDegrees>
              <LongitudeDegrees>-73.04347492754459381103515625</LongitudeDegrees>
            </Position>
            <AltitudeMeters>624.4000244140625</AltitudeMeters>
            <DistanceMeters>3171.3079956932</DistanceMeters>
          </Trackpoint>
          <Trackpoint>
            <Time>2023-01-11T15:18:08.000Z</Time>
            <Position>
              <LatitudeDegrees>-49.2218652181327342987060546875</LatitudeDegrees>
              <LongitudeDegrees>-73.0435022525489330291748046875</LongitudeDegrees>
            </Position>
            <AltitudeMeters>624</AltitudeMeters>
            <DistanceMeters>3173.3193321263</DistanceMeters>
          </Trackpoint>
          <Trackpoint>
            <Time>2023-01-11T15:18:12.000Z</Time>
            <Position>
              <LatitudeDegrees>-49.22186312265694141387939453125</LatitudeDegrees>
              <LongitudeDegrees>-73.043583892285823822021484375</LongitudeDegrees>
            </Position>
            <AltitudeMeters>623.20001220703125</AltitudeMeters>
            <DistanceMeters>3179.2583117179</DistanceMeters>
          </Trackpoint>
          <Trackpoint>
            <Time>2023-01-11T15:18:13.000Z</Time>
            <Position>
              <LatitudeDegrees>-49.2218601889908313751220703125</LatitudeDegrees>
              <LongitudeDegrees>-73.04359696805477142333984375</LongitudeDegrees>
            </Position>
            <AltitudeMeters>623</AltitudeMeters>
            <DistanceMeters>3180.2639799344</DistanceMeters>
          </Trackpoint>
          <Trackpoint>
            <Time>2023-01-11T15:18:14.000Z</Time>
            <Position>
              <LatitudeDegrees>-49.22185792587697505950927734375</LatitudeDegrees>
              <LongitudeDegrees>-73.04361247457563877105712890625</LongitudeDegrees>
            </Position>
            <AltitudeMeters>623</AltitudeMeters>
            <DistanceMeters>3181.4200298095</DistanceMeters>
          </Trackpoint>
          <Trackpoint>
            <Time>2023-01-11T15:18:15.000Z</Time>
            <Position>
              <LatitudeDegrees>-49.22185658477246761322021484375</LatitudeDegrees>
              <LongitudeDegrees>-73.04362605325877666473388671875</LongitudeDegrees>
            </Position>
            <AltitudeMeters>623</AltitudeMeters>
            <DistanceMeters>3182.416678398</DistanceMeters>
          </Trackpoint>
          <Trackpoint>
            <Time>2023-01-11T15:18:19.000Z</Time>
            <Position>
              <LatitudeDegrees>-49.22183655202388763427734375</LatitudeDegrees>
              <LongitudeDegrees>-73.0436839722096920013427734375</LongitudeDegrees>
            </Position>
            <AltitudeMeters>622</AltitudeMeters>
            <DistanceMeters>3187.1812992832</DistanceMeters>
          </Trackpoint>
          <Trackpoint>
            <Time>2023-01-11T15:18:22.000Z</Time>
            <Position>
              <LatitudeDegrees>-49.2218224704265594482421875</LatitudeDegrees>
              <LongitudeDegrees>-73.0436993949115276336669921875</LongitudeDegrees>
            </Position>
            <AltitudeMeters>622</AltitudeMeters>
            <DistanceMeters>3189.1101309231</DistanceMeters>
          </Trackpoint>
          <Trackpoint>
            <Time>2023-01-11T15:18:28.000Z</Time>
            <Position>
              <LatitudeDegrees>-49.22180235385894775390625</LatitudeDegrees>
              <LongitudeDegrees>-73.043787740170955657958984375</LongitudeDegrees>
            </Position>
            <AltitudeMeters>622</AltitudeMeters>
            <DistanceMeters>3195.9116808657</DistanceMeters>
          </Trackpoint>
          <Trackpoint>
            <Time>2023-01-11T15:18:29.000Z</Time>
            <Position>
              <LatitudeDegrees>-49.2217971570789813995361328125</LatitudeDegrees>
              <LongitudeDegrees>-73.04380224086344242095947265625</LongitudeDegrees>
            </Position>
            <AltitudeMeters>622</AltitudeMeters>
            <DistanceMeters>3197.1136842896</DistanceMeters>
          </Trackpoint>
          <Trackpoint>
            <Time>2023-01-11T15:18:31.000Z</Time>
            <Position>
              <LatitudeDegrees>-49.221788607537746429443359375</LatitudeDegrees>
              <LongitudeDegrees>-73.04382738657295703887939453125</LongitudeDegrees>
            </Position>
            <AltitudeMeters>622</AltitudeMeters>
            <DistanceMeters>3199.1738143653</DistanceMeters>
          </Trackpoint>
          <Trackpoint>
            <Time>2023-01-11T15:18:36.000Z</Time>
            <Position>
              <LatitudeDegrees>-49.2217773757874965667724609375</LatitudeDegrees>
              <LongitudeDegrees>-73.0439047515392303466796875</LongitudeDegrees>
            </Position>
            <AltitudeMeters>622.4000244140625</AltitudeMeters>
            <DistanceMeters>3204.9337189526</DistanceMeters>
          </Trackpoint>
          <Trackpoint>
            <Time>2023-01-11T15:18:37.000Z</Time>
            <Position>
              <LatitudeDegrees>-49.22177595086395740509033203125</LatitudeDegrees>
              <LongitudeDegrees>-73.04392310790717601776123046875</LongitudeDegrees>
            </Position>
            <AltitudeMeters>622.4000244140625</AltitudeMeters>
            <DistanceMeters>3206.2775996351</DistanceMeters>
          </Trackpoint>
          <Trackpoint>
            <Time>2023-01-11T15:18:48.000Z</Time>
            <Position>
              <LatitudeDegrees>-49.22178022563457489013671875</LatitudeDegrees>
              <LongitudeDegrees>-73.04407532326877117156982421875</LongitudeDegrees>
            </Position>
            <AltitudeMeters>623.5999755859375</AltitudeMeters>
            <DistanceMeters>3217.3534105982</DistanceMeters>
          </Trackpoint>
          <Trackpoint>
            <Time>2023-01-11T15:18:56.000Z</Time>
            <Position>
              <LatitudeDegrees>-49.221751056611537933349609375</LatitudeDegrees>
              <LongitudeDegrees>-73.0441246926784515380859375</LongitudeDegrees>
            </Position>
            <AltitudeMeters>624.20001220703125</AltitudeMeters>
            <DistanceMeters>3222.1932471963</DistanceMeters>
          </Trackpoint>
          <Trackpoint>
            <Time>2023-01-11T15:18:58.000Z</Time>
            <Position>
              <LatitudeDegrees>-49.22173655591905117034912109375</LatitudeDegrees>
              <LongitudeDegrees>-73.04414086975157260894775390625</LongitudeDegrees>
            </Position>
            <AltitudeMeters>625.4000244140625</AltitudeMeters>
            <DistanceMeters>3224.1910694577</DistanceMeters>
          </Trackpoint>
          <Trackpoint>
            <Time>2023-01-11T15:18:59.000Z</Time>
            <Position>
              <LatitudeDegrees>-49.2217301018536090850830078125</LatitudeDegrees>
              <LongitudeDegrees>-73.0441513471305370330810546875</LongitudeDegrees>
            </Position>
            <AltitudeMeters>625.4000244140625</AltitudeMeters>
            <DistanceMeters>3225.2406738242</DistanceMeters>
          </Trackpoint>
          <Trackpoint>
            <Time>2023-01-11T15:19:01.000Z</Time>
            <Position>
              <LatitudeDegrees>-49.2217150144279003143310546875</LatitudeDegrees>
              <LongitudeDegrees>-73.04417456500232219696044921875</LongitudeDegrees>
            </Position>
            <AltitudeMeters>626.20001220703125</AltitudeMeters>
            <DistanceMeters>3227.6220364607</DistanceMeters>
          </Trackpoint>
          <Trackpoint>
            <Time>2023-01-11T15:19:02.000Z</Time>
            <Position>
              <LatitudeDegrees>-49.22171057201921939849853515625</LatitudeDegrees>
              <LongitudeDegrees>-73.04418613202869892120361328125</LongitudeDegrees>
            </Position>
            <AltitudeMeters>626.20001220703125</AltitudeMeters>
            <DistanceMeters>3228.6003963654</DistanceMeters>
          </Trackpoint>
          <Trackpoint>
            <Time>2023-01-11T15:19:05.000Z</Time>
            <Position>
              <LatitudeDegrees>-49.22169062308967113494873046875</LatitudeDegrees>
              <LongitudeDegrees>-73.04422468878328800201416015625</LongitudeDegrees>
            </Position>
            <AltitudeMeters>624</AltitudeMeters>
            <DistanceMeters>3232.1749674121</DistanceMeters>
          </Trackpoint>
          <Trackpoint>
            <Time>2023-01-11T15:19:08.000Z</Time>
            <Position>
              <LatitudeDegrees>-49.2216722667217254638671875</LatitudeDegrees>
              <LongitudeDegrees>-73.04424262605607509613037109375</LongitudeDegrees>
            </Position>
            <AltitudeMeters>623.5999755859375</AltitudeMeters>
            <DistanceMeters>3234.5976827666</DistanceMeters>
          </Trackpoint>
          <Trackpoint>
            <Time>2023-01-11T15:19:15.000Z</Time>
            <Position>
              <LatitudeDegrees>-49.22162842936813831329345703125</LatitudeDegrees>
              <LongitudeDegrees>-73.04426877759397029876708984375</LongitudeDegrees>
            </Position>
            <AltitudeMeters>624.20001220703125</AltitudeMeters>
            <DistanceMeters>3239.8336461052</DistanceMeters>
          </Trackpoint>
          <Trackpoint>
            <Time>2023-01-11T15:19:22.000Z</Time>
            <Position>
              <LatitudeDegrees>-49.22160563059151172637939453125</LatitudeDegrees>
              <LongitudeDegrees>-73.04427179507911205291748046875</LongitudeDegrees>
            </Position>
            <AltitudeMeters>627.79998779296875</AltitudeMeters>
            <DistanceMeters>3242.379936522</DistanceMeters>
          </Trackpoint>
          <Trackpoint>
            <Time>2023-01-11T15:19:29.000Z</Time>
            <Position>
              <LatitudeDegrees>-49.22157394699752330780029296875</LatitudeDegrees>
              <LongitudeDegrees>-73.04424966685473918914794921875</LongitudeDegrees>
            </Position>
            <AltitudeMeters>626.79998779296875</AltitudeMeters>
            <DistanceMeters>3246.2562810891</DistanceMeters>
          </Trackpoint>
          <Trackpoint>
            <Time>2023-01-11T15:19:31.000Z</Time>
            <Position>
              <LatitudeDegrees>-49.22158333472907543182373046875</LatitudeDegrees>
              <LongitudeDegrees>-73.04425268433988094329833984375</LongitudeDegrees>
            </Position>
            <AltitudeMeters>627.79998779296875</AltitudeMeters>
            <DistanceMeters>3247.3229533124</DistanceMeters>
          </Trackpoint>
          <Trackpoint>
            <Time>2023-01-11T15:19:39.000Z</Time>
            <Position>
              <LatitudeDegrees>-49.2215762101113796234130859375</LatitudeDegrees>
              <LongitudeDegrees>-73.04427900351583957672119140625</LongitudeDegrees>
            </Position>
            <AltitudeMeters>628.4000244140625</AltitudeMeters>
            <DistanceMeters>3249.3918313258</DistanceMeters>
          </Trackpoint>
          <Trackpoint>
            <Time>2023-01-11T15:19:45.000Z</Time>
            <Position>
              <LatitudeDegrees>-49.2215762101113796234130859375</LatitudeDegrees>
              <LongitudeDegrees>-73.04427900351583957672119140625</LongitudeDegrees>
            </Position>
            <AltitudeMeters>626.5999755859375</AltitudeMeters>
            <DistanceMeters>3249.3918313258</DistanceMeters>
          </Trackpoint>
          <Trackpoint>
            <Time>2023-01-11T15:19:49.000Z</Time>
            <Position>
              <LatitudeDegrees>-49.2215762101113796234130859375</LatitudeDegrees>
              <LongitudeDegrees>-73.04427900351583957672119140625</LongitudeDegrees>
            </Position>
            <AltitudeMeters>624</AltitudeMeters>
            <DistanceMeters>3249.3918313258</DistanceMeters>
          </Trackpoint>
          <Trackpoint>
            <Time>2023-01-11T15:19:59.000Z</Time>
            <Position>
              <LatitudeDegrees>-49.2215622961521148681640625</LatitudeDegrees>
              <LongitudeDegrees>-73.0443102680146694183349609375</LongitudeDegrees>
            </Position>
            <AltitudeMeters>623.4000244140625</AltitudeMeters>
            <DistanceMeters>3252.1394018722</DistanceMeters>
          </Trackpoint>
          <Trackpoint>
            <Time>2023-01-11T15:20:03.000Z</Time>
            <Position>
              <LatitudeDegrees>-49.2215542495250701904296875</LatitudeDegrees>
              <LongitudeDegrees>-73.0443243496119976043701171875</LongitudeDegrees>
            </Position>
            <AltitudeMeters>622.20001220703125</AltitudeMeters>
            <DistanceMeters>3253.5032918045</DistanceMeters>
          </Trackpoint>
          <Trackpoint>
            <Time>2023-01-11T15:20:04.000Z</Time>
            <Position>
              <LatitudeDegrees>-49.22155332751572132110595703125</LatitudeDegrees>
              <LongitudeDegrees>-73.04432460106909275054931640625</LongitudeDegrees>
            </Position>
            <AltitudeMeters>622.20001220703125</AltitudeMeters>
            <DistanceMeters>3253.5983185189</DistanceMeters>
          </Trackpoint>
          <Trackpoint>
            <Time>2023-01-11T15:20:10.000Z</Time>
            <Position>
              <LatitudeDegrees>-49.2215487174689769744873046875</LatitudeDegrees>
              <LongitudeDegrees>-73.04434253834187984466552734375</LongitudeDegrees>
            </Position>
            <AltitudeMeters>621.79998779296875</AltitudeMeters>
            <DistanceMeters>3254.9949202917</DistanceMeters>
          </Trackpoint>
          <Trackpoint>
            <Time>2023-01-11T15:20:12.000Z</Time>
            <Position>
              <LatitudeDegrees>-49.22154528088867664337158203125</LatitudeDegrees>
              <LongitudeDegrees>-73.04435226134955883026123046875</LongitudeDegrees>
            </Position>
            <AltitudeMeters>620.5999755859375</AltitudeMeters>
            <DistanceMeters>3255.8012487012</DistanceMeters>
          </Trackpoint>
          <Trackpoint>
            <Time>2023-01-11T15:20:13.000Z</Time>
            <Position>
              <LatitudeDegrees>-49.2215435206890106201171875</LatitudeDegrees>
              <LongitudeDegrees>-73.04435293190181255340576171875</LongitudeDegrees>
            </Position>
            <AltitudeMeters>620.5999755859375</AltitudeMeters>
            <DistanceMeters>3256.0340156633</DistanceMeters>
          </Trackpoint>
          <Trackpoint>
            <Time>2023-01-11T15:20:15.000Z</Time>
            <Position>
              <LatitudeDegrees>-49.2215376533567905426025390625</LatitudeDegrees>
              <LongitudeDegrees>-73.0443553626537322998046875</LongitudeDegrees>
            </Position>
            <AltitudeMeters>622</AltitudeMeters>
            <DistanceMeters>3256.7126421428</DistanceMeters>
          </Trackpoint>
          <Trackpoint>
            <Time>2023-01-11T15:20:16.000Z</Time>
            <Position>
              <LatitudeDegrees>-49.22153689898550510406494140625</LatitudeDegrees>
              <LongitudeDegrees>-73.04435561411082744598388671875</LongitudeDegrees>
            </Position>
            <AltitudeMeters>620.5999755859375</AltitudeMeters>
            <DistanceMeters>3256.8470302111</DistanceMeters>
          </Trackpoint>
          <Trackpoint>
            <Time>2023-01-11T15:20:19.000Z</Time>
            <Position>
              <LatitudeDegrees>-49.2215299420058727264404296875</LatitudeDegrees>
              <LongitudeDegrees>-73.0443572066724300384521484375</LongitudeDegrees>
            </Position>
            <AltitudeMeters>622.4000244140625</AltitudeMeters>
            <DistanceMeters>3257.6306405723</DistanceMeters>
          </Trackpoint>
          <Trackpoint>
            <Time>2023-01-11T15:20:20.000Z</Time>
            <Position>
              <LatitudeDegrees>-49.22152918763458728790283203125</LatitudeDegrees>
              <LongitudeDegrees>-73.04435829631984233856201171875</LongitudeDegrees>
            </Position>
            <AltitudeMeters>620.79998779296875</AltitudeMeters>
            <DistanceMeters>3257.7650286405</DistanceMeters>
          </Trackpoint>
          <Trackpoint>
            <Time>2023-01-11T15:20:24.000Z</Time>
            <Position>
              <LatitudeDegrees>-49.221525080502033233642578125</LatitudeDegrees>
              <LongitudeDegrees>-73.04436651058495044708251953125</LongitudeDegrees>
            </Position>
            <AltitudeMeters>619.4000244140625</AltitudeMeters>
            <DistanceMeters>3258.5132697377</DistanceMeters>
          </Trackpoint>
          <Trackpoint>
            <Time>2023-01-11T15:20:26.000Z</Time>
            <Position>
              <LatitudeDegrees>-49.2214940674602985382080078125</LatitudeDegrees>
              <LongitudeDegrees>-73.04440339095890522003173828125</LongitudeDegrees>
            </Position>
            <AltitudeMeters>619.20001220703125</AltitudeMeters>
            <DistanceMeters>3262.8824323122</DistanceMeters>
          </Trackpoint>
          <Trackpoint>
            <Time>2023-01-11T15:20:28.000Z</Time>
            <Position>
              <LatitudeDegrees>-49.2214833386242389678955078125</LatitudeDegrees>
              <LongitudeDegrees>-73.0444229207932949066162109375</LongitudeDegrees>
            </Position>
            <AltitudeMeters>619.20001220703125</AltitudeMeters>
            <DistanceMeters>3264.7348439967</DistanceMeters>
          </Trackpoint>
          <Trackpoint>
            <Time>2023-01-11T15:20:29.000Z</Time>
            <Position>
              <LatitudeDegrees>-49.2214789800345897674560546875</LatitudeDegrees>
              <LongitudeDegrees>-73.04443423636257648468017578125</LongitudeDegrees>
            </Position>
            <AltitudeMeters>619.20001220703125</AltitudeMeters>
            <DistanceMeters>3265.6898506568</DistanceMeters>
          </Trackpoint>
          <Trackpoint>
            <Time>2023-01-11T15:20:33.000Z</Time>
            <Position>
              <LatitudeDegrees>-49.22142751514911651611328125</LatitudeDegrees>
              <LongitudeDegrees>-73.0444963462650775909423828125</LongitudeDegrees>
            </Position>
            <AltitudeMeters>618.20001220703125</AltitudeMeters>
            <DistanceMeters>3272.9828027514</DistanceMeters>
          </Trackpoint>
          <Trackpoint>
            <Time>2023-01-11T15:20:35.000Z</Time>
            <Position>
              <LatitudeDegrees>-49.2214276827871799468994140625</LatitudeDegrees>
              <LongitudeDegrees>-73.04452023468911647796630859375</LongitudeDegrees>
            </Position>
            <AltitudeMeters>617</AltitudeMeters>
            <DistanceMeters>3274.7168775641</DistanceMeters>
          </Trackpoint>
          <Trackpoint>
            <Time>2023-01-11T15:20:40.000Z</Time>
            <Position>
              <LatitudeDegrees>-49.2214415967464447021484375</LatitudeDegrees>
              <LongitudeDegrees>-73.044563569128513336181640625</LongitudeDegrees>
            </Position>
            <AltitudeMeters>615.79998779296875</AltitudeMeters>
            <DistanceMeters>3278.2264393985</DistanceMeters>
          </Trackpoint>
          <Trackpoint>
            <Time>2023-01-11T15:20:42.000Z</Time>
            <Position>
              <LatitudeDegrees>-49.22144201584160327911376953125</LatitudeDegrees>
              <LongitudeDegrees>-73.04456432349979877471923828125</LongitudeDegrees>
            </Position>
            <AltitudeMeters>615.79998779296875</AltitudeMeters>
            <DistanceMeters>3278.2264393985</DistanceMeters>
          </Trackpoint>
          <Trackpoint>
            <Time>2023-01-11T15:20:46.000Z</Time>
            <Position>
              <LatitudeDegrees>-49.2214669100940227508544921875</LatitudeDegrees>
              <LongitudeDegrees>-73.0445815064013004302978515625</LongitudeDegrees>
            </Position>
            <AltitudeMeters>616.20001220703125</AltitudeMeters>
            <DistanceMeters>3281.2643232221</DistanceMeters>
          </Trackpoint>
          <Trackpoint>
            <Time>2023-01-11T15:20:48.000Z</Time>
            <Position>
              <LatitudeDegrees>-49.22147939912974834442138671875</LatitudeDegrees>
              <LongitudeDegrees>-73.0446079932153224945068359375</LongitudeDegrees>
            </Position>
            <AltitudeMeters>616</AltitudeMeters>
            <DistanceMeters>3283.6380897862</DistanceMeters>
          </Trackpoint>
          <Trackpoint>
            <Time>2023-01-11T15:20:49.000Z</Time>
            <Position>
              <LatitudeDegrees>-49.22148006968200206756591796875</LatitudeDegrees>
              <LongitudeDegrees>-73.04461796768009662628173828125</LongitudeDegrees>
            </Position>
            <AltitudeMeters>615.5999755859375</AltitudeMeters>
            <DistanceMeters>3284.3617916819</DistanceMeters>
          </Trackpoint>
          <Trackpoint>
            <Time>2023-01-11T15:20:50.000Z</Time>
            <Position>
              <LatitudeDegrees>-49.22148107551038265228271484375</LatitudeDegrees>
              <LongitudeDegrees>-73.04462215863168239593505859375</LongitudeDegrees>
            </Position>
            <AltitudeMeters>614.20001220703125</AltitudeMeters>
            <DistanceMeters>3284.6622925378</DistanceMeters>
          </Trackpoint>
          <Trackpoint>
            <Time>2023-01-11T15:20:53.000Z</Time>
            <Position>
              <LatitudeDegrees>-49.2214818298816680908203125</LatitudeDegrees>
              <LongitudeDegrees>-73.044647388160228729248046875</LongitudeDegrees>
            </Position>
            <AltitudeMeters>613.5999755859375</AltitudeMeters>
            <DistanceMeters>3286.5000217317</DistanceMeters>
          </Trackpoint>
          <Trackpoint>
            <Time>2023-01-11T15:20:57.000Z</Time>
            <Position>
              <LatitudeDegrees>-49.221474789083003997802734375</LatitudeDegrees>
              <LongitudeDegrees>-73.0447122640907764434814453125</LongitudeDegrees>
            </Position>
            <AltitudeMeters>613.20001220703125</AltitudeMeters>
            <DistanceMeters>3291.2816693093</DistanceMeters>
          </Trackpoint>
          <Trackpoint>
            <Time>2023-01-11T15:20:59.000Z</Time>
            <Position>
              <LatitudeDegrees>-49.22146833501756191253662109375</LatitudeDegrees>
              <LongitudeDegrees>-73.04473950527608394622802734375</LongitudeDegrees>
            </Position>
            <AltitudeMeters>613</AltitudeMeters>
            <DistanceMeters>3293.3916047791</DistanceMeters>
          </Trackpoint>
          <Trackpoint>
            <Time>2023-01-11T15:21:03.000Z</Time>
            <Position>
              <LatitudeDegrees>-49.22146531753242015838623046875</LatitudeDegrees>
              <LongitudeDegrees>-73.04479591548442840576171875</LongitudeDegrees>
            </Position>
            <AltitudeMeters>613</AltitudeMeters>
            <DistanceMeters>3297.5052847929</DistanceMeters>
          </Trackpoint>
          <Trackpoint>
            <Time>2023-01-11T15:21:05.000Z</Time>
            <Position>
              <LatitudeDegrees>-49.22146246768534183502197265625</LatitudeDegrees>
              <LongitudeDegrees>-73.0448220670223236083984375</LongitudeDegrees>
            </Position>
            <AltitudeMeters>613.20001220703125</AltitudeMeters>
            <DistanceMeters>3299.4317741956</DistanceMeters>
          </Trackpoint>
          <Trackpoint>
            <Time>2023-01-11T15:21:06.000Z</Time>
            <Position>
              <LatitudeDegrees>-49.22146280296146869659423828125</LatitudeDegrees>
              <LongitudeDegrees>-73.0448332987725734710693359375</LongitudeDegrees>
            </Position>
            <AltitudeMeters>613.20001220703125</AltitudeMeters>
            <DistanceMeters>3300.2492249016</DistanceMeters>
          </Trackpoint>
          <Trackpoint>
            <Time>2023-01-11T15:21:08.000Z</Time>
            <Position>
              <LatitudeDegrees>-49.2214635573327541351318359375</LatitudeDegrees>
              <LongitudeDegrees>-73.04485903121531009674072265625</LongitudeDegrees>
            </Position>
            <AltitudeMeters>613.5999755859375</AltitudeMeters>
            <DistanceMeters>3302.121034096</DistanceMeters>
          </Trackpoint>
          <Trackpoint>
            <Time>2023-01-11T15:21:12.000Z</Time>
            <Position>
              <LatitudeDegrees>-49.22145626507699489593505859375</LatitudeDegrees>
              <LongitudeDegrees>-73.04490412585437297821044921875</LongitudeDegrees>
            </Position>
            <AltitudeMeters>612.5999755859375</AltitudeMeters>
            <DistanceMeters>3305.4981610627</DistanceMeters>
          </Trackpoint>
          <Trackpoint>
            <Time>2023-01-11T15:21:13.000Z</Time>
            <Position>
              <LatitudeDegrees>-49.2214548401534557342529296875</LatitudeDegrees>
              <LongitudeDegrees>-73.04491460323333740234375</LongitudeDegrees>
            </Position>
            <AltitudeMeters>612</AltitudeMeters>
            <DistanceMeters>3306.2817714239</DistanceMeters>
          </Trackpoint>
          <Trackpoint>
            <Time>2023-01-11T15:21:15.000Z</Time>
            <Position>
              <LatitudeDegrees>-49.2214420996606349945068359375</LatitudeDegrees>
              <LongitudeDegrees>-73.04493346251547336578369140625</LongitudeDegrees>
            </Position>
            <AltitudeMeters>612.4000244140625</AltitudeMeters>
            <DistanceMeters>3308.2545772803</DistanceMeters>
          </Trackpoint>
          <Trackpoint>
            <Time>2023-01-11T15:21:22.000Z</Time>
            <Position>
              <LatitudeDegrees>-49.22141888178884983062744140625</LatitudeDegrees>
              <LongitudeDegrees>-73.04501946084201335906982421875</LongitudeDegrees>
            </Position>
            <AltitudeMeters>612.4000244140625</AltitudeMeters>
            <DistanceMeters>3315.0195183309</DistanceMeters>
          </Trackpoint>
          <Trackpoint>
            <Time>2023-01-11T15:21:23.000Z</Time>
            <Position>
              <LatitudeDegrees>-49.22141334973275661468505859375</LatitudeDegrees>
              <LongitudeDegrees>-73.04503002204000949859619140625</LongitudeDegrees>
            </Position>
            <AltitudeMeters>612.4000244140625</AltitudeMeters>
            <DistanceMeters>3316.0070649151</DistanceMeters>
          </Trackpoint>
          <Trackpoint>
            <Time>2023-01-11T15:21:27.000Z</Time>
            <Position>
              <LatitudeDegrees>-49.2213747091591358184814453125</LatitudeDegrees>
              <LongitudeDegrees>-73.04506237618625164031982421875</LongitudeDegrees>
            </Position>
            <AltitudeMeters>611</AltitudeMeters>
            <DistanceMeters>3320.9080855579</DistanceMeters>
          </Trackpoint>
          <Trackpoint>
            <Time>2023-01-11T15:21:32.000Z</Time>
            <Position>
              <LatitudeDegrees>-49.221331961452960968017578125</LatitudeDegrees>
              <LongitudeDegrees>-73.04504443891346454620361328125</LongitudeDegrees>
            </Position>
            <AltitudeMeters>610.5999755859375</AltitudeMeters>
            <DistanceMeters>3325.8412443853</DistanceMeters>
          </Trackpoint>
          <Trackpoint>
            <Time>2023-01-11T15:21:34.000Z</Time>
            <Position>
              <LatitudeDegrees>-49.22131813131272792816162109375</LatitudeDegrees>
              <LongitudeDegrees>-73.045056425034999847412109375</LongitudeDegrees>
            </Position>
            <AltitudeMeters>610</AltitudeMeters>
            <DistanceMeters>3327.6113959399</DistanceMeters>
          </Trackpoint>
          <Trackpoint>
            <Time>2023-01-11T15:21:38.000Z</Time>
            <Position>
              <LatitudeDegrees>-49.22129365615546703338623046875</LatitudeDegrees>
              <LongitudeDegrees>-73.0450884439051151275634765625</LongitudeDegrees>
            </Position>
            <AltitudeMeters>609.4000244140625</AltitudeMeters>
            <DistanceMeters>3331.1947977738</DistanceMeters>
          </Trackpoint>
          <Trackpoint>
            <Time>2023-01-11T15:21:40.000Z</Time>
            <Position>
              <LatitudeDegrees>-49.22128125093877315521240234375</LatitudeDegrees>
              <LongitudeDegrees>-73.045100010931491851806640625</LongitudeDegrees>
            </Position>
            <AltitudeMeters>608.79998779296875</AltitudeMeters>
            <DistanceMeters>3332.8130444079</DistanceMeters>
          </Trackpoint>
          <Trackpoint>
            <Time>2023-01-11T15:21:45.000Z</Time>
            <Position>
              <LatitudeDegrees>-49.22125141136348247528076171875</LatitudeDegrees>
              <LongitudeDegrees>-73.045093975961208343505859375</LongitudeDegrees>
            </Position>
            <AltitudeMeters>608.4000244140625</AltitudeMeters>
            <DistanceMeters>3336.1619778117</DistanceMeters>
          </Trackpoint>
          <Trackpoint>
            <Time>2023-01-11T15:21:47.000Z</Time>
            <Position>
              <LatitudeDegrees>-49.22123984433710575103759765625</LatitudeDegrees>
              <LongitudeDegrees>-73.04509959183633327484130859375</LongitudeDegrees>
            </Position>
            <AltitudeMeters>607.5999755859375</AltitudeMeters>
            <DistanceMeters>3337.5125611826</DistanceMeters>
          </Trackpoint>
          <Trackpoint>
            <Time>2023-01-11T15:21:53.000Z</Time>
            <Position>
              <LatitudeDegrees>-49.22119860537350177764892578125</LatitudeDegrees>
              <LongitudeDegrees>-73.04512021131813526153564453125</LongitudeDegrees>
            </Position>
            <AltitudeMeters>606.5999755859375</AltitudeMeters>
            <DistanceMeters>3342.3411901162</DistanceMeters>
          </Trackpoint>
          <Trackpoint>
            <Time>2023-01-11T15:21:54.000Z</Time>
            <Position>
              <LatitudeDegrees>-49.2211933247745037078857421875</LatitudeDegrees>
              <LongitudeDegrees>-73.0451333709061145782470703125</LongitudeDegrees>
            </Position>
            <AltitudeMeters>606.4000244140625</AltitudeMeters>
            <DistanceMeters>3343.4655613636</DistanceMeters>
          </Trackpoint>
          <Trackpoint>
            <Time>2023-01-11T15:22:00.000Z</Time>
            <Position>
              <LatitudeDegrees>-49.221169687807559967041015625</LatitudeDegrees>
              <LongitudeDegrees>-73.0452141724526882171630859375</LongitudeDegrees>
            </Position>
            <AltitudeMeters>606.20001220703125</AltitudeMeters>
            <DistanceMeters>3349.9014731598</DistanceMeters>
          </Trackpoint>
          <Trackpoint>
            <Time>2023-01-11T15:22:09.000Z</Time>
            <Position>
              <LatitudeDegrees>-49.22110590152442455291748046875</LatitudeDegrees>
              <LongitudeDegrees>-73.04530796594917774200439453125</LongitudeDegrees>
            </Position>
            <AltitudeMeters>606.20001220703125</AltitudeMeters>
            <DistanceMeters>3359.7448831505</DistanceMeters>
          </Trackpoint>
          <Trackpoint>
            <Time>2023-01-11T15:22:16.000Z</Time>
            <Position>
              <LatitudeDegrees>-49.22110430896282196044921875</LatitudeDegrees>
              <LongitudeDegrees>-73.0453719198703765869140625</LongitudeDegrees>
            </Position>
            <AltitudeMeters>607.20001220703125</AltitudeMeters>
            <DistanceMeters>3364.3963413261</DistanceMeters>
          </Trackpoint>
          <Trackpoint>
            <Time>2023-01-11T15:22:24.000Z</Time>
            <Position>
              <LatitudeDegrees>-49.2210850305855274200439453125</LatitudeDegrees>
              <LongitudeDegrees>-73.04548524320125579833984375</LongitudeDegrees>
            </Position>
            <AltitudeMeters>607</AltitudeMeters>
            <DistanceMeters>3372.9095894453</DistanceMeters>
          </Trackpoint>
          <Trackpoint>
            <Time>2023-01-11T15:22:25.000Z</Time>
            <Position>
              <LatitudeDegrees>-49.2210820131003856658935546875</LatitudeDegrees>
              <LongitudeDegrees>-73.04549731314182281494140625</LongitudeDegrees>
            </Position>
            <AltitudeMeters>607.20001220703125</AltitudeMeters>
            <DistanceMeters>3373.8503059231</DistanceMeters>
          </Trackpoint>
          <Trackpoint>
            <Time>2023-01-11T15:22:33.000Z</Time>
            <Position>
              <LatitudeDegrees>-49.22105041332542896270751953125</LatitudeDegrees>
              <LongitudeDegrees>-73.045610301196575164794921875</LongitudeDegrees>
            </Position>
            <AltitudeMeters>607.20001220703125</AltitudeMeters>
            <DistanceMeters>3382.7858493267</DistanceMeters>
          </Trackpoint>
          <Trackpoint>
            <Time>2023-01-11T15:22:34.000Z</Time>
            <Position>
              <LatitudeDegrees>-49.2210464738309383392333984375</LatitudeDegrees>
              <LongitudeDegrees>-73.04562245495617389678955078125</LongitudeDegrees>
            </Position>
            <AltitudeMeters>607.4000244140625</AltitudeMeters>
            <DistanceMeters>3383.7733959109</DistanceMeters>
          </Trackpoint>
          <Trackpoint>
            <Time>2023-01-11T15:22:36.000Z</Time>
            <Position>
              <LatitudeDegrees>-49.22103700228035449981689453125</LatitudeDegrees>
              <LongitudeDegrees>-73.045645169913768768310546875</LongitudeDegrees>
            </Position>
            <AltitudeMeters>607.5999755859375</AltitudeMeters>
            <DistanceMeters>3385.7324218139</DistanceMeters>
          </Trackpoint>
          <Trackpoint>
            <Time>2023-01-11T15:22:40.000Z</Time>
            <Position>
              <LatitudeDegrees>-49.221008084714412689208984375</LatitudeDegrees>
              <LongitudeDegrees>-73.0456835590302944183349609375</LongitudeDegrees>
            </Position>
            <AltitudeMeters>608.79998779296875</AltitudeMeters>
            <DistanceMeters>3389.9927567364</DistanceMeters>
          </Trackpoint>
          <Trackpoint>
            <Time>2023-01-11T15:22:43.000Z</Time>
            <Position>
              <LatitudeDegrees>-49.22098352573812007904052734375</LatitudeDegrees>
              <LongitudeDegrees>-73.0457018315792083740234375</LongitudeDegrees>
            </Position>
            <AltitudeMeters>609.20001220703125</AltitudeMeters>
            <DistanceMeters>3393.0336115963</DistanceMeters>
          </Trackpoint>
          <Trackpoint>
            <Time>2023-01-11T15:22:45.000Z</Time>
            <Position>
              <LatitudeDegrees>-49.22097832895815372467041015625</LatitudeDegrees>
              <LongitudeDegrees>-73.0457080341875553131103515625</LongitudeDegrees>
            </Position>
            <AltitudeMeters>609.4000244140625</AltitudeMeters>
            <DistanceMeters>3393.7696853607</DistanceMeters>
          </Trackpoint>
          <Trackpoint>
            <Time>2023-01-11T15:22:48.000Z</Time>
            <Position>
              <LatitudeDegrees>-49.220979921519756317138671875</LatitudeDegrees>
              <LongitudeDegrees>-73.04571666754782199859619140625</LongitudeDegrees>
            </Position>
            <AltitudeMeters>609.5999755859375</AltitudeMeters>
            <DistanceMeters>3394.4211556922</DistanceMeters>
          </Trackpoint>
          <Trackpoint>
            <Time>2023-01-11T15:22:52.000Z</Time>
            <Position>
              <LatitudeDegrees>-49.22097958624362945556640625</LatitudeDegrees>
              <LongitudeDegrees>-73.04572974331676959991455078125</LongitudeDegrees>
            </Position>
            <AltitudeMeters>609.5999755859375</AltitudeMeters>
            <DistanceMeters>3395.3714228359</DistanceMeters>
          </Trackpoint>
          <Trackpoint>
            <Time>2023-01-11T15:22:54.000Z</Time>
            <Position>
              <LatitudeDegrees>-49.22097564674913883209228515625</LatitudeDegrees>
              <LongitudeDegrees>-73.0457506142556667327880859375</LongitudeDegrees>
            </Position>
            <AltitudeMeters>610</AltitudeMeters>
            <DistanceMeters>3396.9501251823</DistanceMeters>
          </Trackpoint>
          <Trackpoint>
            <Time>2023-01-11T15:22:55.000Z</Time>
            <Position>
              <LatitudeDegrees>-49.22097422182559967041015625</LatitudeDegrees>
              <LongitudeDegrees>-73.04576293565332889556884765625</LongitudeDegrees>
            </Position>
            <AltitudeMeters>610.4000244140625</AltitudeMeters>
            <DistanceMeters>3397.861589407</DistanceMeters>
          </Trackpoint>
          <Trackpoint>
            <Time>2023-01-11T15:22:57.000Z</Time>
            <Position>
              <LatitudeDegrees>-49.22096617519855499267578125</LatitudeDegrees>
              <LongitudeDegrees>-73.04577617906033992767333984375</LongitudeDegrees>
            </Position>
            <AltitudeMeters>611</AltitudeMeters>
            <DistanceMeters>3399.1783181859</DistanceMeters>
          </Trackpoint>
          <Trackpoint>
            <Time>2023-01-11T15:23:02.000Z</Time>
            <Position>
              <LatitudeDegrees>-49.22094178386032581329345703125</LatitudeDegrees>
              <LongitudeDegrees>-73.045803420245647430419921875</LongitudeDegrees>
            </Position>
            <AltitudeMeters>611.5999755859375</AltitudeMeters>
            <DistanceMeters>3402.5393635041</DistanceMeters>
          </Trackpoint>
          <Trackpoint>
            <Time>2023-01-11T15:23:08.000Z</Time>
            <Position>
              <LatitudeDegrees>-49.22091395594179630279541015625</LatitudeDegrees>
              <LongitudeDegrees>-73.04585346020758152008056640625</LongitudeDegrees>
            </Position>
            <AltitudeMeters>612.20001220703125</AltitudeMeters>
            <DistanceMeters>3407.317232616</DistanceMeters>
          </Trackpoint>
          <Trackpoint>
            <Time>2023-01-11T15:23:09.000Z</Time>
            <Position>
              <LatitudeDegrees>-49.2209110222756862640380859375</LatitudeDegrees>
              <LongitudeDegrees>-73.045862428843975067138671875</LongitudeDegrees>
            </Position>
            <AltitudeMeters>612</AltitudeMeters>
            <DistanceMeters>3408.0533063804</DistanceMeters>
          </Trackpoint>
          <Trackpoint>
            <Time>2023-01-11T15:23:15.000Z</Time>
            <Position>
              <LatitudeDegrees>-49.2208915762603282928466796875</LatitudeDegrees>
              <LongitudeDegrees>-73.04592688567936420440673828125</LongitudeDegrees>
            </Position>
            <AltitudeMeters>613.4000244140625</AltitudeMeters>
            <DistanceMeters>3413.2163273626</DistanceMeters>
          </Trackpoint>
          <Trackpoint>
            <Time>2023-01-11T15:23:17.000Z</Time>
            <Position>
              <LatitudeDegrees>-49.22088260762393474578857421875</LatitudeDegrees>
              <LongitudeDegrees>-73.045944236218929290771484375</LongitudeDegrees>
            </Position>
            <AltitudeMeters>614.5999755859375</AltitudeMeters>
            <DistanceMeters>3414.8261819956</DistanceMeters>
          </Trackpoint>
          <Trackpoint>
            <Time>2023-01-11T15:23:19.000Z</Time>
            <Position>
              <LatitudeDegrees>-49.2208781652152538299560546875</LatitudeDegrees>
              <LongitudeDegrees>-73.04595035500824451446533203125</LongitudeDegrees>
            </Position>
            <AltitudeMeters>614.79998779296875</AltitudeMeters>
            <DistanceMeters>3415.4981223369</DistanceMeters>
          </Trackpoint>
          <Trackpoint>
            <Time>2023-01-11T15:23:26.000Z</Time>
            <Position>
              <LatitudeDegrees>-49.2208687774837017059326171875</LatitudeDegrees>
              <LongitudeDegrees>-73.0459829606115818023681640625</LongitudeDegrees>
            </Position>
            <AltitudeMeters>614.4000244140625</AltitudeMeters>
            <DistanceMeters>3418.0883630203</DistanceMeters>
          </Trackpoint>
          <Trackpoint>
            <Time>2023-01-11T15:23:29.000Z</Time>
            <Position>
              <LatitudeDegrees>-49.22086500562727451324462890625</LatitudeDegrees>
              <LongitudeDegrees>-73.04601095616817474365234375</LongitudeDegrees>
            </Position>
            <AltitudeMeters>614.4000244140625</AltitudeMeters>
            <DistanceMeters>3420.1659521375</DistanceMeters>
          </Trackpoint>
          <Trackpoint>
            <Time>2023-01-11T15:23:35.000Z</Time>
            <Position>
              <LatitudeDegrees>-49.22086969949305057525634765625</LatitudeDegrees>
              <LongitudeDegrees>-73.04607809521257877349853515625</LongitudeDegrees>
            </Position>
            <AltitudeMeters>615.5999755859375</AltitudeMeters>
            <DistanceMeters>3425.0743372032</DistanceMeters>
          </Trackpoint>
          <Trackpoint>
            <Time>2023-01-11T15:23:37.000Z</Time>
            <Position>
              <LatitudeDegrees>-49.2208595573902130126953125</LatitudeDegrees>
              <LongitudeDegrees>-73.046096451580524444580078125</LongitudeDegrees>
            </Position>
            <AltitudeMeters>616</AltitudeMeters>
            <DistanceMeters>3426.8213820904</DistanceMeters>
          </Trackpoint>
          <Trackpoint>
            <Time>2023-01-11T15:23:44.000Z</Time>
            <Position>
              <LatitudeDegrees>-49.22082628123462200164794921875</LatitudeDegrees>
              <LongitudeDegrees>-73.04616007022559642791748046875</LongitudeDegrees>
            </Position>
            <AltitudeMeters>617.20001220703125</AltitudeMeters>
            <DistanceMeters>3432.7458995507</DistanceMeters>
          </Trackpoint>
          <Trackpoint>
            <Time>2023-01-11T15:23:49.000Z</Time>
            <Position>
              <LatitudeDegrees>-49.220794178545475006103515625</LatitudeDegrees>
              <LongitudeDegrees>-73.04619510658085346221923828125</LongitudeDegrees>
            </Position>
            <AltitudeMeters>618.20001220703125</AltitudeMeters>
            <DistanceMeters>3437.1336236736</DistanceMeters>
          </Trackpoint>
          <Trackpoint>
            <Time>2023-01-11T15:23:50.000Z</Time>
            <Position>
              <LatitudeDegrees>-49.2207963578402996063232421875</LatitudeDegrees>
              <LongitudeDegrees>-73.04619560949504375457763671875</LongitudeDegrees>
            </Position>
            <AltitudeMeters>618.5999755859375</AltitudeMeters>
            <DistanceMeters>3437.3663906357</DistanceMeters>
          </Trackpoint>
          <Trackpoint>
            <Time>2023-01-11T15:23:52.000Z</Time>
            <Position>
              <LatitudeDegrees>-49.22080113552510738372802734375</LatitudeDegrees>
              <LongitudeDegrees>-73.0462126247584819793701171875</LongitudeDegrees>
            </Position>
            <AltitudeMeters>619.4000244140625</AltitudeMeters>
            <DistanceMeters>3438.7136268308</DistanceMeters>
          </Trackpoint>
          <Trackpoint>
            <Time>2023-01-11T15:23:55.000Z</Time>
            <Position>
              <LatitudeDegrees>-49.2207963578402996063232421875</LatitudeDegrees>
              <LongitudeDegrees>-73.0462283827364444732666015625</LongitudeDegrees>
            </Position>
            <AltitudeMeters>619.79998779296875</AltitudeMeters>
            <DistanceMeters>3439.9778750385</DistanceMeters>
          </Trackpoint>
          <Trackpoint>
            <Time>2023-01-11T15:23:56.000Z</Time>
            <Position>
              <LatitudeDegrees>-49.22079392708837985992431640625</LatitudeDegrees>
              <LongitudeDegrees>-73.04623785428702831268310546875</LongitudeDegrees>
            </Position>
            <AltitudeMeters>619.79998779296875</AltitudeMeters>
            <DistanceMeters>3440.7139488029</DistanceMeters>
          </Trackpoint>
          <Trackpoint>
            <Time>2023-01-11T15:24:01.000Z</Time>
            <Position>
              <LatitudeDegrees>-49.2207782529294490814208984375</LatitudeDegrees>
              <LongitudeDegrees>-73.0462736450135707855224609375</LongitudeDegrees>
            </Position>
            <AltitudeMeters>621.79998779296875</AltitudeMeters>
            <DistanceMeters>3443.8455080021</DistanceMeters>
          </Trackpoint>
          <Trackpoint>
            <Time>2023-01-11T15:24:02.000Z</Time>
            <Position>
              <LatitudeDegrees>-49.22077666036784648895263671875</LatitudeDegrees>
              <LongitudeDegrees>-73.04627741686999797821044921875</LongitudeDegrees>
            </Position>
            <AltitudeMeters>623</AltitudeMeters>
            <DistanceMeters>3444.1746901968</DistanceMeters>
          </Trackpoint>
          <Trackpoint>
            <Time>2023-01-11T15:24:04.000Z</Time>
            <Position>
              <LatitudeDegrees>-49.22076635062694549560546875</LatitudeDegrees>
              <LongitudeDegrees>-73.04629082791507244110107421875</LongitudeDegrees>
            </Position>
            <AltitudeMeters>623.79998779296875</AltitudeMeters>
            <DistanceMeters>3445.6831925216</DistanceMeters>
          </Trackpoint>
          <Trackpoint>
            <Time>2023-01-11T15:24:08.000Z</Time>
            <Position>
              <LatitudeDegrees>-49.220758639276027679443359375</LatitudeDegrees>
              <LongitudeDegrees>-73.04632209241390228271484375</LongitudeDegrees>
            </Position>
            <AltitudeMeters>622</AltitudeMeters>
            <DistanceMeters>3448.1133509515</DistanceMeters>
          </Trackpoint>
          <Trackpoint>
            <Time>2023-01-11T15:24:11.000Z</Time>
            <Position>
              <LatitudeDegrees>-49.2207594774663448333740234375</LatitudeDegrees>
              <LongitudeDegrees>-73.04632469080388545989990234375</LongitudeDegrees>
            </Position>
            <AltitudeMeters>620.5999755859375</AltitudeMeters>
            <DistanceMeters>3448.3034043802</DistanceMeters>
          </Trackpoint>
          <Trackpoint>
            <Time>2023-01-11T15:24:12.000Z</Time>
            <Position>
              <LatitudeDegrees>-49.22075738199055194854736328125</LatitudeDegrees>
              <LongitudeDegrees>-73.0463279597461223602294921875</LongitudeDegrees>
            </Position>
            <AltitudeMeters>622</AltitudeMeters>
            <DistanceMeters>3448.6460280714</DistanceMeters>
          </Trackpoint>
          <Trackpoint>
            <Time>2023-01-11T15:24:13.000Z</Time>
            <Position>
              <LatitudeDegrees>-49.22075822018086910247802734375</LatitudeDegrees>
              <LongitudeDegrees>-73.0463289655745029449462890625</LongitudeDegrees>
            </Position>
            <AltitudeMeters>624</AltitudeMeters>
            <DistanceMeters>3448.7804161396</DistanceMeters>
          </Trackpoint>
          <Trackpoint>
            <Time>2023-01-11T15:24:14.000Z</Time>
            <Position>
              <LatitudeDegrees>-49.2207591421902179718017578125</LatitudeDegrees>
              <LongitudeDegrees>-73.04632971994578838348388671875</LongitudeDegrees>
            </Position>
            <AltitudeMeters>625.79998779296875</AltitudeMeters>
            <DistanceMeters>3448.9148042079</DistanceMeters>
          </Trackpoint>
          <Trackpoint>
            <Time>2023-01-11T15:24:15.000Z</Time>
            <Position>
              <LatitudeDegrees>-49.2207581363618373870849609375</LatitudeDegrees>
              <LongitudeDegrees>-73.0463293008506298065185546875</LongitudeDegrees>
            </Position>
            <AltitudeMeters>624</AltitudeMeters>
            <DistanceMeters>3449.0491922761</DistanceMeters>
          </Trackpoint>
          <Trackpoint>
            <Time>2023-01-11T15:24:16.000Z</Time>
            <Position>
              <LatitudeDegrees>-49.22075838781893253326416015625</LatitudeDegrees>
              <LongitudeDegrees>-73.0463267862796783447265625</LongitudeDegrees>
            </Position>
            <AltitudeMeters>621.5999755859375</AltitudeMeters>
            <DistanceMeters>3449.2392457049</DistanceMeters>
          </Trackpoint>
          <Trackpoint>
            <Time>2023-01-11T15:24:18.000Z</Time>
            <Position>
              <LatitudeDegrees>-49.2207598127424716949462890625</LatitudeDegrees>
              <LongitudeDegrees>-73.04632611572742462158203125</LongitudeDegrees>
            </Position>
            <AltitudeMeters>624</AltitudeMeters>
            <DistanceMeters>3449.4038368023</DistanceMeters>
          </Trackpoint>
          <Trackpoint>
            <Time>2023-01-11T15:24:20.000Z</Time>
            <Position>
              <LatitudeDegrees>-49.22075436450541019439697265625</LatitudeDegrees>
              <LongitudeDegrees>-73.0463215894997119903564453125</LongitudeDegrees>
            </Position>
            <AltitudeMeters>624</AltitudeMeters>
            <DistanceMeters>3450.0890841847</DistanceMeters>
          </Trackpoint>
          <Trackpoint>
            <Time>2023-01-11T15:24:27.000Z</Time>
            <Position>
              <LatitudeDegrees>-49.220748580992221832275390625</LatitudeDegrees>
              <LongitudeDegrees>-73.0462994612753391265869140625</LongitudeDegrees>
            </Position>
            <AltitudeMeters>624.4000244140625</AltitudeMeters>
            <DistanceMeters>3451.8205533237</DistanceMeters>
          </Trackpoint>
          <Trackpoint>
            <Time>2023-01-11T15:24:39.000Z</Time>
            <Position>
              <LatitudeDegrees>-49.2207510955631732940673828125</LatitudeDegrees>
              <LongitudeDegrees>-73.04629795253276824951171875</LongitudeDegrees>
            </Position>
            <AltitudeMeters>623.4000244140625</AltitudeMeters>
            <DistanceMeters>3452.1210541796</DistanceMeters>
          </Trackpoint>
          <Trackpoint>
            <Time>2023-01-11T15:24:45.000Z</Time>
            <Position>
              <LatitudeDegrees>-49.22075084410607814788818359375</LatitudeDegrees>
              <LongitudeDegrees>-73.04629669524729251861572265625</LongitudeDegrees>
            </Position>
            <AltitudeMeters>624.79998779296875</AltitudeMeters>
            <DistanceMeters>3452.1210541796</DistanceMeters>
          </Trackpoint>
          <Trackpoint>
            <Time>2023-01-11T15:24:49.000Z</Time>
            <Position>
              <LatitudeDegrees>-49.2207484133541584014892578125</LatitudeDegrees>
              <LongitudeDegrees>-73.0462924204766750335693359375</LongitudeDegrees>
            </Position>
            <AltitudeMeters>623.79998779296875</AltitudeMeters>
            <DistanceMeters>3452.5352660245</DistanceMeters>
          </Trackpoint>
          <Trackpoint>
            <Time>2023-01-11T15:24:55.000Z</Time>
            <Position>
              <LatitudeDegrees>-49.22074715606868267059326171875</LatitudeDegrees>
              <LongitudeDegrees>-73.04629116319119930267333984375</LongitudeDegrees>
            </Position>
            <AltitudeMeters>623.20001220703125</AltitudeMeters>
            <DistanceMeters>3452.7253194533</DistanceMeters>
          </Trackpoint>
          <Trackpoint>
            <Time>2023-01-11T15:24:57.000Z</Time>
            <Position>
              <LatitudeDegrees>-49.2207467369735240936279296875</LatitudeDegrees>
              <LongitudeDegrees>-73.04629116319119930267333984375</LongitudeDegrees>
            </Position>
            <AltitudeMeters>622.79998779296875</AltitudeMeters>
            <DistanceMeters>3452.7253194533</DistanceMeters>
          </Trackpoint>
          <Trackpoint>
            <Time>2023-01-11T15:25:12.000Z</Time>
            <Position>
              <LatitudeDegrees>-49.22075017355382442474365234375</LatitudeDegrees>
              <LongitudeDegrees>-73.04633005522191524505615234375</LongitudeDegrees>
            </Position>
            <AltitudeMeters>623.20001220703125</AltitudeMeters>
            <DistanceMeters>3455.5792866837</DistanceMeters>
          </Trackpoint>
          <Trackpoint>
            <Time>2023-01-11T15:25:16.000Z</Time>
            <Position>
              <LatitudeDegrees>-49.220767356455326080322265625</LatitudeDegrees>
              <LongitudeDegrees>-73.04642133414745330810546875</LongitudeDegrees>
            </Position>
            <AltitudeMeters>622.20001220703125</AltitudeMeters>
            <DistanceMeters>3462.4842706536</DistanceMeters>
          </Trackpoint>
          <Trackpoint>
            <Time>2023-01-11T15:25:20.000Z</Time>
            <Position>
              <LatitudeDegrees>-49.220793507993221282958984375</LatitudeDegrees>
              <LongitudeDegrees>-73.04650691337883472442626953125</LongitudeDegrees>
            </Position>
            <AltitudeMeters>621.4000244140625</AltitudeMeters>
            <DistanceMeters>3469.3525396745</DistanceMeters>
          </Trackpoint>
          <Trackpoint>
            <Time>2023-01-11T15:25:23.000Z</Time>
            <Position>
              <LatitudeDegrees>-49.2207978665828704833984375</LatitudeDegrees>
              <LongitudeDegrees>-73.04655821062624454498291015625</LongitudeDegrees>
            </Position>
            <AltitudeMeters>621.20001220703125</AltitudeMeters>
            <DistanceMeters>3473.1130050328</DistanceMeters>
          </Trackpoint>
          <Trackpoint>
            <Time>2023-01-11T15:25:28.000Z</Time>
            <Position>
              <LatitudeDegrees>-49.22078504227101802825927734375</LatitudeDegrees>
              <LongitudeDegrees>-73.046605400741100311279296875</LongitudeDegrees>
            </Position>
            <AltitudeMeters>620.5999755859375</AltitudeMeters>
            <DistanceMeters>3476.8287804408</DistanceMeters>
          </Trackpoint>
          <Trackpoint>
            <Time>2023-01-11T15:25:29.000Z</Time>
            <Position>
              <LatitudeDegrees>-49.22078068368136882781982421875</LatitudeDegrees>
              <LongitudeDegrees>-73.04660883732140064239501953125</LongitudeDegrees>
            </Position>
            <AltitudeMeters>620.5999755859375</AltitudeMeters>
            <DistanceMeters>3477.3746673546</DistanceMeters>
          </Trackpoint>
          <Trackpoint>
            <Time>2023-01-11T15:25:30.000Z</Time>
            <Position>
              <LatitudeDegrees>-49.22077783383429050445556640625</LatitudeDegrees>
              <LongitudeDegrees>-73.04661453701555728912353515625</LongitudeDegrees>
            </Position>
            <AltitudeMeters>620</AltitudeMeters>
            <DistanceMeters>3477.8951501049</DistanceMeters>
          </Trackpoint>
          <Trackpoint>
            <Time>2023-01-11T15:25:40.000Z</Time>
            <Position>
              <LatitudeDegrees>-49.22078889794647693634033203125</LatitudeDegrees>
              <LongitudeDegrees>-73.04662107490003108978271484375</LongitudeDegrees>
            </Position>
            <AltitudeMeters>619.79998779296875</AltitudeMeters>
            <DistanceMeters>3479.2187190793</DistanceMeters>
          </Trackpoint>
          <Trackpoint>
            <Time>2023-01-11T15:25:44.000Z</Time>
            <Position>
              <LatitudeDegrees>-49.22078889794647693634033203125</LatitudeDegrees>
              <LongitudeDegrees>-73.04662107490003108978271484375</LongitudeDegrees>
            </Position>
            <AltitudeMeters>619.79998779296875</AltitudeMeters>
            <DistanceMeters>3479.3137457937</DistanceMeters>
          </Trackpoint>
          <Trackpoint>
            <Time>2023-01-11T15:25:46.000Z</Time>
            <Position>
              <LatitudeDegrees>-49.22078889794647693634033203125</LatitudeDegrees>
              <LongitudeDegrees>-73.04662107490003108978271484375</LongitudeDegrees>
            </Position>
            <AltitudeMeters>619.79998779296875</AltitudeMeters>
            <DistanceMeters>3479.408772508</DistanceMeters>
          </Trackpoint>
          <Trackpoint>
            <Time>2023-01-11T15:25:48.000Z</Time>
            <Position>
              <LatitudeDegrees>-49.22078889794647693634033203125</LatitudeDegrees>
              <LongitudeDegrees>-73.04662107490003108978271484375</LongitudeDegrees>
            </Position>
            <AltitudeMeters>619.79998779296875</AltitudeMeters>
            <DistanceMeters>3479.5037992224</DistanceMeters>
          </Trackpoint>
          <Trackpoint>
            <Time>2023-01-11T15:25:51.000Z</Time>
            <Position>
              <LatitudeDegrees>-49.220788478851318359375</LatitudeDegrees>
              <LongitudeDegrees>-73.0466290377080440521240234375</LongitudeDegrees>
            </Position>
            <AltitudeMeters>620.5999755859375</AltitudeMeters>
            <DistanceMeters>3480.08182416</DistanceMeters>
          </Trackpoint>
          <Trackpoint>
            <Time>2023-01-11T15:25:54.000Z</Time>
            <Position>
              <LatitudeDegrees>-49.22078034840524196624755859375</LatitudeDegrees>
              <LongitudeDegrees>-73.04670992307364940643310546875</LongitudeDegrees>
            </Position>
            <AltitudeMeters>620.5999755859375</AltitudeMeters>
            <DistanceMeters>3486.0306786366</DistanceMeters>
          </Trackpoint>
          <Trackpoint>
            <Time>2023-01-11T15:25:58.000Z</Time>
            <Position>
              <LatitudeDegrees>-49.2207782529294490814208984375</LatitudeDegrees>
              <LongitudeDegrees>-73.0467996932566165924072265625</LongitudeDegrees>
            </Position>
            <AltitudeMeters>621.20001220703125</AltitudeMeters>
            <DistanceMeters>3492.5606113291</DistanceMeters>
          </Trackpoint>
          <Trackpoint>
            <Time>2023-01-11T15:26:01.000Z</Time>
            <Position>
              <LatitudeDegrees>-49.22077448107302188873291015625</LatitudeDegrees>
              <LongitudeDegrees>-73.04685744456946849822998046875</LongitudeDegrees>
            </Position>
            <AltitudeMeters>621.20001220703125</AltitudeMeters>
            <DistanceMeters>3496.7783418319</DistanceMeters>
          </Trackpoint>
          <Trackpoint>
            <Time>2023-01-11T15:26:02.000Z</Time>
            <Position>
              <LatitudeDegrees>-49.22076702117919921875</LatitudeDegrees>
              <LongitudeDegrees>-73.046872951090335845947265625</LongitudeDegrees>
            </Position>
            <AltitudeMeters>620.79998779296875</AltitudeMeters>
            <DistanceMeters>3498.1813944556</DistanceMeters>
          </Trackpoint>
          <Trackpoint>
            <Time>2023-01-11T15:26:09.000Z</Time>
            <Position>
              <LatitudeDegrees>-49.220743887126445770263671875</LatitudeDegrees>
              <LongitudeDegrees>-73.04691930301487445831298828125</LongitudeDegrees>
            </Position>
            <AltitudeMeters>621</AltitudeMeters>
            <DistanceMeters>3502.4226103515</DistanceMeters>
          </Trackpoint>
          <Trackpoint>
            <Time>2023-01-11T15:26:10.000Z</Time>
            <Position>
              <LatitudeDegrees>-49.2207400314509868621826171875</LatitudeDegrees>
              <LongitudeDegrees>-73.04692114703357219696044921875</LongitudeDegrees>
            </Position>
            <AltitudeMeters>621</AltitudeMeters>
            <DistanceMeters>3502.8783424639</DistanceMeters>
          </Trackpoint>
          <Trackpoint>
            <Time>2023-01-11T15:26:18.000Z</Time>
            <Position>
              <LatitudeDegrees>-49.22070457600057125091552734375</LatitudeDegrees>
              <LongitudeDegrees>-73.0469606257975101470947265625</LongitudeDegrees>
            </Position>
            <AltitudeMeters>620.79998779296875</AltitudeMeters>
            <DistanceMeters>3507.7572031409</DistanceMeters>
          </Trackpoint>
          <Trackpoint>
            <Time>2023-01-11T15:26:25.000Z</Time>
            <Position>
              <LatitudeDegrees>-49.2206971161067485809326171875</LatitudeDegrees>
              <LongitudeDegrees>-73.0469356477260589599609375</LongitudeDegrees>
            </Position>
            <AltitudeMeters>620.79998779296875</AltitudeMeters>
            <DistanceMeters>3509.7550254024</DistanceMeters>
          </Trackpoint>
          <Trackpoint>
            <Time>2023-01-11T15:26:26.000Z</Time>
            <Position>
              <LatitudeDegrees>-49.220698289573192596435546875</LatitudeDegrees>
              <LongitudeDegrees>-73.04693388752639293670654296875</LongitudeDegrees>
            </Position>
            <AltitudeMeters>620.20001220703125</AltitudeMeters>
            <DistanceMeters>3509.9450788311</DistanceMeters>
          </Trackpoint>
          <Trackpoint>
            <Time>2023-01-11T15:26:35.000Z</Time>
            <Position>
              <LatitudeDegrees>-49.220676831901073455810546875</LatitudeDegrees>
              <LongitudeDegrees>-73.0469539202749729156494140625</LongitudeDegrees>
            </Position>
            <AltitudeMeters>620.5999755859375</AltitudeMeters>
            <DistanceMeters>3512.7415133825</DistanceMeters>
          </Trackpoint>
          <Trackpoint>
            <Time>2023-01-11T15:26:39.000Z</Time>
            <Position>
              <LatitudeDegrees>-49.220676831901073455810546875</LatitudeDegrees>
              <LongitudeDegrees>-73.0469539202749729156494140625</LongitudeDegrees>
            </Position>
            <AltitudeMeters>620.20001220703125</AltitudeMeters>
            <DistanceMeters>3512.7415133825</DistanceMeters>
          </Trackpoint>
          <Trackpoint>
            <Time>2023-01-11T15:26:49.000Z</Time>
            <Position>
              <LatitudeDegrees>-49.2206602357327938079833984375</LatitudeDegrees>
              <LongitudeDegrees>-73.04697646759450435638427734375</LongitudeDegrees>
            </Position>
            <AltitudeMeters>620.5999755859375</AltitudeMeters>
            <DistanceMeters>3515.2122079562</DistanceMeters>
          </Trackpoint>
          <Trackpoint>
            <Time>2023-01-11T15:26:57.000Z</Time>
            <Position>
              <LatitudeDegrees>-49.2206369340419769287109375</LatitudeDegrees>
              <LongitudeDegrees>-73.0470132641494274139404296875</LongitudeDegrees>
            </Position>
            <AltitudeMeters>620</AltitudeMeters>
            <DistanceMeters>3518.9376914811</DistanceMeters>
          </Trackpoint>
          <Trackpoint>
            <Time>2023-01-11T15:27:05.000Z</Time>
            <Position>
              <LatitudeDegrees>-49.22063282690942287445068359375</LatitudeDegrees>
              <LongitudeDegrees>-73.04706162773072719573974609375</LongitudeDegrees>
            </Position>
            <AltitudeMeters>621</AltitudeMeters>
            <DistanceMeters>3522.4830922215</DistanceMeters>
          </Trackpoint>
          <Trackpoint>
            <Time>2023-01-11T15:27:09.000Z</Time>
            <Position>
              <LatitudeDegrees>-49.22062276862561702728271484375</LatitudeDegrees>
              <LongitudeDegrees>-73.0470927245914936065673828125</LongitudeDegrees>
            </Position>
            <AltitudeMeters>621.20001220703125</AltitudeMeters>
            <DistanceMeters>3525.0044358745</DistanceMeters>
          </Trackpoint>
          <Trackpoint>
            <Time>2023-01-11T15:27:12.000Z</Time>
            <Position>
              <LatitudeDegrees>-49.22062285244464874267578125</LatitudeDegrees>
              <LongitudeDegrees>-73.04710353724658489227294921875</LongitudeDegrees>
            </Position>
            <AltitudeMeters>621.5999755859375</AltitudeMeters>
            <DistanceMeters>3525.7880462357</DistanceMeters>
          </Trackpoint>
          <Trackpoint>
            <Time>2023-01-11T15:27:14.000Z</Time>
            <Position>
              <LatitudeDegrees>-49.2206277139484882354736328125</LatitudeDegrees>
              <LongitudeDegrees>-73.0471078120172023773193359375</LongitudeDegrees>
            </Position>
            <AltitudeMeters>622.4000244140625</AltitudeMeters>
            <DistanceMeters>3526.4111780733</DistanceMeters>
          </Trackpoint>
          <Trackpoint>
            <Time>2023-01-11T15:27:18.000Z</Time>
            <Position>
              <LatitudeDegrees>-49.22064489684998989105224609375</LatitudeDegrees>
              <LongitudeDegrees>-73.04712097160518169403076171875</LongitudeDegrees>
            </Position>
            <AltitudeMeters>622.5999755859375</AltitudeMeters>
            <DistanceMeters>3528.5487511553</DistanceMeters>
          </Trackpoint>
          <Trackpoint>
            <Time>2023-01-11T15:27:25.000Z</Time>
            <Position>
              <LatitudeDegrees>-49.2206568829715251922607421875</LatitudeDegrees>
              <LongitudeDegrees>-73.04717830382287502288818359375</LongitudeDegrees>
            </Position>
            <AltitudeMeters>623.20001220703125</AltitudeMeters>
            <DistanceMeters>3532.9241096619</DistanceMeters>
          </Trackpoint>
          <Trackpoint>
            <Time>2023-01-11T15:27:28.000Z</Time>
            <Position>
              <LatitudeDegrees>-49.220659397542476654052734375</LatitudeDegrees>
              <LongitudeDegrees>-73.04718978703022003173828125</LongitudeDegrees>
            </Position>
            <AltitudeMeters>623.4000244140625</AltitudeMeters>
            <DistanceMeters>3533.8002126796</DistanceMeters>
          </Trackpoint>
          <Trackpoint>
            <Time>2023-01-11T15:27:32.000Z</Time>
            <Position>
              <LatitudeDegrees>-49.22066710889339447021484375</LatitudeDegrees>
              <LongitudeDegrees>-73.0471869371831417083740234375</LongitudeDegrees>
            </Position>
            <AltitudeMeters>624.20001220703125</AltitudeMeters>
            <DistanceMeters>3534.6763156974</DistanceMeters>
          </Trackpoint>
          <Trackpoint>
            <Time>2023-01-11T15:27:33.000Z</Time>
            <Position>
              <LatitudeDegrees>-49.22067188657820224761962890625</LatitudeDegrees>
              <LongitudeDegrees>-73.0471959896385669708251953125</LongitudeDegrees>
            </Position>
            <AltitudeMeters>624.79998779296875</AltitudeMeters>
            <DistanceMeters>3535.5209316095</DistanceMeters>
          </Trackpoint>
          <Trackpoint>
            <Time>2023-01-11T15:27:35.000Z</Time>
            <Position>
              <LatitudeDegrees>-49.22067993320524692535400390625</LatitudeDegrees>
              <LongitudeDegrees>-73.0472174473106861114501953125</LongitudeDegrees>
            </Position>
            <AltitudeMeters>624.79998779296875</AltitudeMeters>
            <DistanceMeters>3537.3189214223</DistanceMeters>
          </Trackpoint>
          <Trackpoint>
            <Time>2023-01-11T15:27:39.000Z</Time>
            <Position>
              <LatitudeDegrees>-49.2206932604312896728515625</LatitudeDegrees>
              <LongitudeDegrees>-73.04724317975342273712158203125</LongitudeDegrees>
            </Position>
            <AltitudeMeters>625</AltitudeMeters>
            <DistanceMeters>3539.7040730233</DistanceMeters>
          </Trackpoint>
          <Trackpoint>
            <Time>2023-01-11T15:27:48.000Z</Time>
            <Position>
              <LatitudeDegrees>-49.22069124877452850341796875</LatitudeDegrees>
              <LongitudeDegrees>-73.04730017669498920440673828125</LongitudeDegrees>
            </Position>
            <AltitudeMeters>624.20001220703125</AltitudeMeters>
            <DistanceMeters>3543.8538146754</DistanceMeters>
          </Trackpoint>
          <Trackpoint>
            <Time>2023-01-11T15:27:56.000Z</Time>
            <Position>
              <LatitudeDegrees>-49.220662079751491546630859375</LatitudeDegrees>
              <LongitudeDegrees>-73.0473326146602630615234375</LongitudeDegrees>
            </Position>
            <AltitudeMeters>624.5999755859375</AltitudeMeters>
            <DistanceMeters>3547.8674983171</DistanceMeters>
          </Trackpoint>
          <Trackpoint>
            <Time>2023-01-11T15:27:58.000Z</Time>
            <Position>
              <LatitudeDegrees>-49.22065663151443004608154296875</LatitudeDegrees>
              <LongitudeDegrees>-73.04733018390834331512451171875</LongitudeDegrees>
            </Position>
            <AltitudeMeters>624.5999755859375</AltitudeMeters>
            <DistanceMeters>3548.4978342304</DistanceMeters>
          </Trackpoint>
          <Trackpoint>
            <Time>2023-01-11T15:28:02.000Z</Time>
            <Position>
              <LatitudeDegrees>-49.22063718549907207489013671875</LatitudeDegrees>
              <LongitudeDegrees>-73.04733303375542163848876953125</LongitudeDegrees>
            </Position>
            <AltitudeMeters>624.4000244140625</AltitudeMeters>
            <DistanceMeters>3550.6730951473</DistanceMeters>
          </Trackpoint>
          <Trackpoint>
            <Time>2023-01-11T15:28:04.000Z</Time>
            <Position>
              <LatitudeDegrees>-49.2206280492246150970458984375</LatitudeDegrees>
              <LongitudeDegrees>-73.04732582531869411468505859375</LongitudeDegrees>
            </Position>
            <AltitudeMeters>625.20001220703125</AltitudeMeters>
            <DistanceMeters>3551.8134157197</DistanceMeters>
          </Trackpoint>
          <Trackpoint>
            <Time>2023-01-11T15:28:12.000Z</Time>
            <Position>
              <LatitudeDegrees>-49.2206025682389736175537109375</LatitudeDegrees>
              <LongitudeDegrees>-73.04741970263421535491943359375</LongitudeDegrees>
            </Position>
            <AltitudeMeters>624.79998779296875</AltitudeMeters>
            <DistanceMeters>3559.2035376628</DistanceMeters>
          </Trackpoint>
          <Trackpoint>
            <Time>2023-01-11T15:28:14.000Z</Time>
            <Position>
              <LatitudeDegrees>-49.22059091739356517791748046875</LatitudeDegrees>
              <LongitudeDegrees>-73.04743613116443157196044921875</LongitudeDegrees>
            </Position>
            <AltitudeMeters>625</AltitudeMeters>
            <DistanceMeters>3560.9660206546</DistanceMeters>
          </Trackpoint>
          <Trackpoint>
            <Time>2023-01-11T15:28:18.000Z</Time>
            <Position>
              <LatitudeDegrees>-49.220565855503082275390625</LatitudeDegrees>
              <LongitudeDegrees>-73.0474658869206905364990234375</LongitudeDegrees>
            </Position>
            <AltitudeMeters>625.20001220703125</AltitudeMeters>
            <DistanceMeters>3564.4961064174</DistanceMeters>
          </Trackpoint>
          <Trackpoint>
            <Time>2023-01-11T15:28:19.000Z</Time>
            <Position>
              <LatitudeDegrees>-49.22056107781827449798583984375</LatitudeDegrees>
              <LongitudeDegrees>-73.0474772863090038299560546875</LongitudeDegrees>
            </Position>
            <AltitudeMeters>626.4000244140625</AltitudeMeters>
            <DistanceMeters>3565.4836530016</DistanceMeters>
          </Trackpoint>
          <Trackpoint>
            <Time>2023-01-11T15:28:22.000Z</Time>
            <Position>
              <LatitudeDegrees>-49.22054833732545375823974609375</LatitudeDegrees>
              <LongitudeDegrees>-73.04750486277043819427490234375</LongitudeDegrees>
            </Position>
            <AltitudeMeters>626.4000244140625</AltitudeMeters>
            <DistanceMeters>3567.9396845699</DistanceMeters>
          </Trackpoint>
          <Trackpoint>
            <Time>2023-01-11T15:28:25.000Z</Time>
            <Position>
              <LatitudeDegrees>-49.2205314897000789642333984375</LatitudeDegrees>
              <LongitudeDegrees>-73.04753319360315799713134765625</LongitudeDegrees>
            </Position>
            <AltitudeMeters>625.5999755859375</AltitudeMeters>
            <DistanceMeters>3570.7247942025</DistanceMeters>
          </Trackpoint>
          <Trackpoint>
            <Time>2023-01-11T15:28:27.000Z</Time>
            <Position>
              <LatitudeDegrees>-49.22053408809006214141845703125</LatitudeDegrees>
              <LongitudeDegrees>-73.04755599237978458404541015625</LongitudeDegrees>
            </Position>
            <AltitudeMeters>625.5999755859375</AltitudeMeters>
            <DistanceMeters>3572.4059883992</DistanceMeters>
          </Trackpoint>
          <Trackpoint>
            <Time>2023-01-11T15:28:31.000Z</Time>
            <Position>
              <LatitudeDegrees>-49.22053928487002849578857421875</LatitudeDegrees>
              <LongitudeDegrees>-73.0476127378642559051513671875</LongitudeDegrees>
            </Position>
            <AltitudeMeters>625.4000244140625</AltitudeMeters>
            <DistanceMeters>3576.5709345992</DistanceMeters>
          </Trackpoint>
          <Trackpoint>
            <Time>2023-01-11T15:28:33.000Z</Time>
            <Position>
              <LatitudeDegrees>-49.22054238617420196533203125</LatitudeDegrees>
              <LongitudeDegrees>-73.0476442538201808929443359375</LongitudeDegrees>
            </Position>
            <AltitudeMeters>625</AltitudeMeters>
            <DistanceMeters>3578.8869366302</DistanceMeters>
          </Trackpoint>
          <Trackpoint>
            <Time>2023-01-11T15:28:37.000Z</Time>
            <Position>
              <LatitudeDegrees>-49.22053433954715728759765625</LatitudeDegrees>
              <LongitudeDegrees>-73.047700412571430206298828125</LongitudeDegrees>
            </Position>
            <AltitudeMeters>624.5999755859375</AltitudeMeters>
            <DistanceMeters>3583.067032074</DistanceMeters>
          </Trackpoint>
          <Trackpoint>
            <Time>2023-01-11T15:28:45.000Z</Time>
            <Position>
              <LatitudeDegrees>-49.220497123897075653076171875</LatitudeDegrees>
              <LongitudeDegrees>-73.0478048510849475860595703125</LongitudeDegrees>
            </Position>
            <AltitudeMeters>624.79998779296875</AltitudeMeters>
            <DistanceMeters>3591.7160293142</DistanceMeters>
          </Trackpoint>
          <Trackpoint>
            <Time>2023-01-11T15:28:52.000Z</Time>
            <Position>
              <LatitudeDegrees>-49.22044892795383930206298828125</LatitudeDegrees>
              <LongitudeDegrees>-73.04782773368060588836669921875</LongitudeDegrees>
            </Position>
            <AltitudeMeters>624.79998779296875</AltitudeMeters>
            <DistanceMeters>3597.3330647507</DistanceMeters>
          </Trackpoint>
          <Trackpoint>
            <Time>2023-01-11T15:28:55.000Z</Time>
            <Position>
              <LatitudeDegrees>-49.22042981721460819244384765625</LatitudeDegrees>
              <LongitudeDegrees>-73.04785120300948619842529296875</LongitudeDegrees>
            </Position>
            <AltitudeMeters>624.4000244140625</AltitudeMeters>
            <DistanceMeters>3600.0608446154</DistanceMeters>
          </Trackpoint>
          <Trackpoint>
            <Time>2023-01-11T15:28:56.000Z</Time>
            <Position>
              <LatitudeDegrees>-49.2204258777201175689697265625</LatitudeDegrees>
              <LongitudeDegrees>-73.04785841144621372222900390625</LongitudeDegrees>
            </Position>
            <AltitudeMeters>623.5999755859375</AltitudeMeters>
            <DistanceMeters>3600.7460919978</DistanceMeters>
          </Trackpoint>
          <Trackpoint>
            <Time>2023-01-11T15:29:00.000Z</Time>
            <Position>
              <LatitudeDegrees>-49.22041632235050201416015625</LatitudeDegrees>
              <LongitudeDegrees>-73.04789026267826557159423828125</LongitudeDegrees>
            </Position>
            <AltitudeMeters>622.5999755859375</AltitudeMeters>
            <DistanceMeters>3603.2923824146</DistanceMeters>
          </Trackpoint>
          <Trackpoint>
            <Time>2023-01-11T15:29:02.000Z</Time>
            <Position>
              <LatitudeDegrees>-49.2204111255705356597900390625</LatitudeDegrees>
              <LongitudeDegrees>-73.0479107983410358428955078125</LongitudeDegrees>
            </Position>
            <AltitudeMeters>622.4000244140625</AltitudeMeters>
            <DistanceMeters>3604.89380107</DistanceMeters>
          </Trackpoint>
          <Trackpoint>
            <Time>2023-01-11T15:29:03.000Z</Time>
            <Position>
              <LatitudeDegrees>-49.220405258238315582275390625</LatitudeDegrees>
              <LongitudeDegrees>-73.04792228154838085174560546875</LongitudeDegrees>
            </Position>
            <AltitudeMeters>621.5999755859375</AltitudeMeters>
            <DistanceMeters>3605.9519737776</DistanceMeters>
          </Trackpoint>
          <Trackpoint>
            <Time>2023-01-11T15:29:06.000Z</Time>
            <Position>
              <LatitudeDegrees>-49.2203993909060955047607421875</LatitudeDegrees>
              <LongitudeDegrees>-73.0479607544839382171630859375</LongitudeDegrees>
            </Position>
            <AltitudeMeters>621.4000244140625</AltitudeMeters>
            <DistanceMeters>3608.8232905127</DistanceMeters>
          </Trackpoint>
          <Trackpoint>
            <Time>2023-01-11T15:29:07.000Z</Time>
            <Position>
              <LatitudeDegrees>-49.2203963734209537506103515625</LatitudeDegrees>
              <LongitudeDegrees>-73.04797693155705928802490234375</LongitudeDegrees>
            </Position>
            <AltitudeMeters>620</AltitudeMeters>
            <DistanceMeters>3610.04393076</DistanceMeters>
          </Trackpoint>
          <Trackpoint>
            <Time>2023-01-11T15:29:10.000Z</Time>
            <Position>
              <LatitudeDegrees>-49.2203856445848941802978515625</LatitudeDegrees>
              <LongitudeDegrees>-73.0480023287236690521240234375</LongitudeDegrees>
            </Position>
            <AltitudeMeters>619.4000244140625</AltitudeMeters>
            <DistanceMeters>3612.2439582539</DistanceMeters>
          </Trackpoint>
          <Trackpoint>
            <Time>2023-01-11T15:29:14.000Z</Time>
            <Position>
              <LatitudeDegrees>-49.22037231735885143280029296875</LatitudeDegrees>
              <LongitudeDegrees>-73.04805387742817401885986328125</LongitudeDegrees>
            </Position>
            <AltitudeMeters>618.5999755859375</AltitudeMeters>
            <DistanceMeters>3616.2744802452</DistanceMeters>
          </Trackpoint>
          <Trackpoint>
            <Time>2023-01-11T15:29:17.000Z</Time>
            <Position>
              <LatitudeDegrees>-49.22035806812345981597900390625</LatitudeDegrees>
              <LongitudeDegrees>-73.04808673448860645294189453125</LongitudeDegrees>
            </Position>
            <AltitudeMeters>618.20001220703125</AltitudeMeters>
            <DistanceMeters>3619.141075711</DistanceMeters>
          </Trackpoint>
          <Trackpoint>
            <Time>2023-01-11T15:29:20.000Z</Time>
            <Position>
              <LatitudeDegrees>-49.22034717164933681488037109375</LatitudeDegrees>
              <LongitudeDegrees>-73.04811992682516574859619140625</LongitudeDegrees>
            </Position>
            <AltitudeMeters>618</AltitudeMeters>
            <DistanceMeters>3621.8388973533</DistanceMeters>
          </Trackpoint>
          <Trackpoint>
            <Time>2023-01-11T15:29:21.000Z</Time>
            <Position>
              <LatitudeDegrees>-49.2203410528600215911865234375</LatitudeDegrees>
              <LongitudeDegrees>-73.0481310747563838958740234375</LongitudeDegrees>
            </Position>
            <AltitudeMeters>617.5999755859375</AltitudeMeters>
            <DistanceMeters>3622.8927945981</DistanceMeters>
          </Trackpoint>
          <Trackpoint>
            <Time>2023-01-11T15:29:22.000Z</Time>
            <Position>
              <LatitudeDegrees>-49.2203343473374843597412109375</LatitudeDegrees>
              <LongitudeDegrees>-73.0481481738388538360595703125</LongitudeDegrees>
            </Position>
            <AltitudeMeters>616.20001220703125</AltitudeMeters>
            <DistanceMeters>3624.3401983894</DistanceMeters>
          </Trackpoint>
          <Trackpoint>
            <Time>2023-01-11T15:29:25.000Z</Time>
            <Position>
              <LatitudeDegrees>-49.22032286413013935089111328125</LatitudeDegrees>
              <LongitudeDegrees>-73.0482051707804203033447265625</LongitudeDegrees>
            </Position>
            <AltitudeMeters>616.20001220703125</AltitudeMeters>
            <DistanceMeters>3628.6772076391</DistanceMeters>
          </Trackpoint>
          <Trackpoint>
            <Time>2023-01-11T15:29:26.000Z</Time>
            <Position>
              <LatitudeDegrees>-49.22032286413013935089111328125</LatitudeDegrees>
              <LongitudeDegrees>-73.04821707308292388916015625</LongitudeDegrees>
            </Position>
            <AltitudeMeters>616.5999755859375</AltitudeMeters>
            <DistanceMeters>3629.5481418624</DistanceMeters>
          </Trackpoint>
          <Trackpoint>
            <Time>2023-01-11T15:29:29.000Z</Time>
            <Position>
              <LatitudeDegrees>-49.22032688744366168975830078125</LatitudeDegrees>
              <LongitudeDegrees>-73.0482392013072967529296875</LongitudeDegrees>
            </Position>
            <AltitudeMeters>617.20001220703125</AltitudeMeters>
            <DistanceMeters>3631.2158539313</DistanceMeters>
          </Trackpoint>
          <Trackpoint>
            <Time>2023-01-11T15:29:33.000Z</Time>
            <Position>
              <LatitudeDegrees>-49.22033744864165782928466796875</LatitudeDegrees>
              <LongitudeDegrees>-73.04826040752232074737548828125</LongitudeDegrees>
            </Position>
            <AltitudeMeters>618.20001220703125</AltitudeMeters>
            <DistanceMeters>3633.1540262149</DistanceMeters>
          </Trackpoint>
          <Trackpoint>
            <Time>2023-01-11T15:29:34.000Z</Time>
            <Position>
              <LatitudeDegrees>-49.2203420586884021759033203125</LatitudeDegrees>
              <LongitudeDegrees>-73.04826728068292140960693359375</LongitudeDegrees>
            </Position>
            <AltitudeMeters>618.5999755859375</AltitudeMeters>
            <DistanceMeters>3633.8651410304</DistanceMeters>
          </Trackpoint>
          <Trackpoint>
            <Time>2023-01-11T15:29:41.000Z</Time>
            <Position>
              <LatitudeDegrees>-49.220373742282390594482421875</LatitudeDegrees>
              <LongitudeDegrees>-73.048270381987094879150390625</LongitudeDegrees>
            </Position>
            <AltitudeMeters>617.4000244140625</AltitudeMeters>
            <DistanceMeters>3637.3977839002</DistanceMeters>
          </Trackpoint>
          <Trackpoint>
            <Time>2023-01-11T15:29:47.000Z</Time>
            <Position>
              <LatitudeDegrees>-49.22037214972078800201416015625</LatitudeDegrees>
              <LongitudeDegrees>-73.04826510138809680938720703125</LongitudeDegrees>
            </Position>
            <AltitudeMeters>616.4000244140625</AltitudeMeters>
            <DistanceMeters>3637.8227562862</DistanceMeters>
          </Trackpoint>
          <Trackpoint>
            <Time>2023-01-11T15:29:55.000Z</Time>
            <Position>
              <LatitudeDegrees>-49.22037214972078800201416015625</LatitudeDegrees>
              <LongitudeDegrees>-73.04826510138809680938720703125</LongitudeDegrees>
            </Position>
            <AltitudeMeters>617.20001220703125</AltitudeMeters>
            <DistanceMeters>3637.9177830006</DistanceMeters>
          </Trackpoint>
          <Trackpoint>
            <Time>2023-01-11T15:29:57.000Z</Time>
            <Position>
              <LatitudeDegrees>-49.2203732393682003021240234375</LatitudeDegrees>
              <LongitudeDegrees>-73.04826510138809680938720703125</LongitudeDegrees>
            </Position>
            <AltitudeMeters>617.5999755859375</AltitudeMeters>
            <DistanceMeters>3638.0521710688</DistanceMeters>
          </Trackpoint>
          <Trackpoint>
            <Time>2023-01-11T15:29:58.000Z</Time>
            <Position>
              <LatitudeDegrees>-49.2203732393682003021240234375</LatitudeDegrees>
              <LongitudeDegrees>-73.04826510138809680938720703125</LongitudeDegrees>
            </Position>
            <AltitudeMeters>616.4000244140625</AltitudeMeters>
            <DistanceMeters>3638.0521710688</DistanceMeters>
          </Trackpoint>
          <Trackpoint>
            <Time>2023-01-11T15:29:59.000Z</Time>
            <Position>
              <LatitudeDegrees>-49.2203732393682003021240234375</LatitudeDegrees>
              <LongitudeDegrees>-73.04826510138809680938720703125</LongitudeDegrees>
            </Position>
            <AltitudeMeters>614.4000244140625</AltitudeMeters>
            <DistanceMeters>3638.0521710688</DistanceMeters>
          </Trackpoint>
          <Trackpoint>
            <Time>2023-01-11T15:30:09.000Z</Time>
            <Position>
              <LatitudeDegrees>-49.22037349082529544830322265625</LatitudeDegrees>
              <LongitudeDegrees>-73.0482740700244903564453125</LongitudeDegrees>
            </Position>
            <AltitudeMeters>613.4000244140625</AltitudeMeters>
            <DistanceMeters>3638.7105354583</DistanceMeters>
          </Trackpoint>
          <Trackpoint>
            <Time>2023-01-11T15:30:10.000Z</Time>
            <Position>
              <LatitudeDegrees>-49.22037365846335887908935546875</LatitudeDegrees>
              <LongitudeDegrees>-73.04828270338475704193115234375</LongitudeDegrees>
            </Position>
            <AltitudeMeters>613.20001220703125</AltitudeMeters>
            <DistanceMeters>3639.3408713715</DistanceMeters>
          </Trackpoint>
          <Trackpoint>
            <Time>2023-01-11T15:30:22.000Z</Time>
            <Position>
              <LatitudeDegrees>-49.220384471118450164794921875</LatitudeDegrees>
              <LongitudeDegrees>-73.048345483839511871337890625</LongitudeDegrees>
            </Position>
            <AltitudeMeters>612</AltitudeMeters>
            <DistanceMeters>3644.0617006063</DistanceMeters>
          </Trackpoint>
          <Trackpoint>
            <Time>2023-01-11T15:30:24.000Z</Time>
            <Position>
              <LatitudeDegrees>-49.22038857825100421905517578125</LatitudeDegrees>
              <LongitudeDegrees>-73.0483867228031158447265625</LongitudeDegrees>
            </Position>
            <AltitudeMeters>612</AltitudeMeters>
            <DistanceMeters>3647.0936336234</DistanceMeters>
          </Trackpoint>
          <Trackpoint>
            <Time>2023-01-11T15:30:25.000Z</Time>
            <Position>
              <LatitudeDegrees>-49.2203873209655284881591796875</LatitudeDegrees>
              <LongitudeDegrees>-73.04840474389493465423583984375</LongitudeDegrees>
            </Position>
            <AltitudeMeters>612</AltitudeMeters>
            <DistanceMeters>3648.4137869302</DistanceMeters>
          </Trackpoint>
          <Trackpoint>
            <Time>2023-01-11T15:30:30.000Z</Time>
            <Position>
              <LatitudeDegrees>-49.2203920148313045501708984375</LatitudeDegrees>
              <LongitudeDegrees>-73.048493005335330963134765625</LongitudeDegrees>
            </Position>
            <AltitudeMeters>611</AltitudeMeters>
            <DistanceMeters>3654.8518029972</DistanceMeters>
          </Trackpoint>
          <Trackpoint>
            <Time>2023-01-11T15:30:31.000Z</Time>
            <Position>
              <LatitudeDegrees>-49.22039754688739776611328125</LatitudeDegrees>
              <LongitudeDegrees>-73.04851203225553035736083984375</LongitudeDegrees>
            </Position>
            <AltitudeMeters>610.4000244140625</AltitudeMeters>
            <DistanceMeters>3656.366279612</DistanceMeters>
          </Trackpoint>
          <Trackpoint>
            <Time>2023-01-11T15:30:32.000Z</Time>
            <Position>
              <LatitudeDegrees>-49.22039511613547801971435546875</LatitudeDegrees>
              <LongitudeDegrees>-73.04852225817739963531494140625</LongitudeDegrees>
            </Position>
            <AltitudeMeters>610</AltitudeMeters>
            <DistanceMeters>3657.1556307852</DistanceMeters>
          </Trackpoint>
          <Trackpoint>
            <Time>2023-01-11T15:30:36.000Z</Time>
            <Position>
              <LatitudeDegrees>-49.2204047553241252899169921875</LatitudeDegrees>
              <LongitudeDegrees>-73.0486024729907512664794921875</LongitudeDegrees>
            </Position>
            <AltitudeMeters>610.20001220703125</AltitudeMeters>
            <DistanceMeters>3663.0847190453</DistanceMeters>
          </Trackpoint>
          <Trackpoint>
            <Time>2023-01-11T15:30:39.000Z</Time>
            <Position>
              <LatitudeDegrees>-49.22041439451277256011962890625</LatitudeDegrees>
              <LongitudeDegrees>-73.0486346594989299774169921875</LongitudeDegrees>
            </Position>
            <AltitudeMeters>611.20001220703125</AltitudeMeters>
            <DistanceMeters>3665.6592240676</DistanceMeters>
          </Trackpoint>
          <Trackpoint>
            <Time>2023-01-11T15:30:42.000Z</Time>
            <Position>
              <LatitudeDegrees>-49.22042260877788066864013671875</LatitudeDegrees>
              <LongitudeDegrees>-73.04865335114300251007080078125</LongitudeDegrees>
            </Position>
            <AltitudeMeters>611.5999755859375</AltitudeMeters>
            <DistanceMeters>3667.2996394968</DistanceMeters>
          </Trackpoint>
          <Trackpoint>
            <Time>2023-01-11T15:30:46.000Z</Time>
            <Position>
              <LatitudeDegrees>-49.22044088132679462432861328125</LatitudeDegrees>
              <LongitudeDegrees>-73.0486852861940860748291015625</LongitudeDegrees>
            </Position>
            <AltitudeMeters>611.79998779296875</AltitudeMeters>
            <DistanceMeters>3670.386179736</DistanceMeters>
          </Trackpoint>
          <Trackpoint>
            <Time>2023-01-11T15:30:52.000Z</Time>
            <Position>
              <LatitudeDegrees>-49.22044557519257068634033203125</LatitudeDegrees>
              <LongitudeDegrees>-73.04869559593498706817626953125</LongitudeDegrees>
            </Position>
            <AltitudeMeters>612</AltitudeMeters>
            <DistanceMeters>3671.2976439606</DistanceMeters>
          </Trackpoint>
          <Trackpoint>
            <Time>2023-01-11T15:31:02.000Z</Time>
            <Position>
              <LatitudeDegrees>-49.220450185239315032958984375</LatitudeDegrees>
              <LongitudeDegrees>-73.04870414547622203826904296875</LongitudeDegrees>
            </Position>
            <AltitudeMeters>612.79998779296875</AltitudeMeters>
            <DistanceMeters>3672.0983532884</DistanceMeters>
          </Trackpoint>
          <Trackpoint>
            <Time>2023-01-11T15:31:03.000Z</Time>
            <Position>
              <LatitudeDegrees>-49.220450185239315032958984375</LatitudeDegrees>
              <LongitudeDegrees>-73.04870414547622203826904296875</LongitudeDegrees>
            </Position>
            <AltitudeMeters>613.20001220703125</AltitudeMeters>
            <DistanceMeters>3672.0983532884</DistanceMeters>
          </Trackpoint>
          <Trackpoint>
            <Time>2023-01-11T15:31:06.000Z</Time>
            <Position>
              <LatitudeDegrees>-49.220450185239315032958984375</LatitudeDegrees>
              <LongitudeDegrees>-73.04870414547622203826904296875</LongitudeDegrees>
            </Position>
            <AltitudeMeters>613.79998779296875</AltitudeMeters>
            <DistanceMeters>3672.0983532884</DistanceMeters>
          </Trackpoint>
          <Trackpoint>
            <Time>2023-01-11T15:31:14.000Z</Time>
            <Position>
              <LatitudeDegrees>-49.22051346860826015472412109375</LatitudeDegrees>
              <LongitudeDegrees>-73.04868218488991260528564453125</LongitudeDegrees>
            </Position>
            <AltitudeMeters>614.5999755859375</AltitudeMeters>
            <DistanceMeters>3679.3203835805</DistanceMeters>
          </Trackpoint>
          <Trackpoint>
            <Time>2023-01-11T15:31:18.000Z</Time>
            <Position>
              <LatitudeDegrees>-49.220565855503082275390625</LatitudeDegrees>
              <LongitudeDegrees>-73.048683106899261474609375</LongitudeDegrees>
            </Position>
            <AltitudeMeters>614.4000244140625</AltitudeMeters>
            <DistanceMeters>3685.151184367</DistanceMeters>
          </Trackpoint>
          <Trackpoint>
            <Time>2023-01-11T15:31:22.000Z</Time>
            <Position>
              <LatitudeDegrees>-49.22059477306902408599853515625</LatitudeDegrees>
              <LongitudeDegrees>-73.04868386127054691314697265625</LongitudeDegrees>
            </Position>
            <AltitudeMeters>613.5999755859375</AltitudeMeters>
            <DistanceMeters>3688.370893633</DistanceMeters>
          </Trackpoint>
          <Trackpoint>
            <Time>2023-01-11T15:31:25.000Z</Time>
            <Position>
              <LatitudeDegrees>-49.22061706893146038055419921875</LatitudeDegrees>
              <LongitudeDegrees>-73.04871856234967708587646484375</LongitudeDegrees>
            </Position>
            <AltitudeMeters>613.4000244140625</AltitudeMeters>
            <DistanceMeters>3691.9086451719</DistanceMeters>
          </Trackpoint>
          <Trackpoint>
            <Time>2023-01-11T15:31:29.000Z</Time>
            <Position>
              <LatitudeDegrees>-49.22065881080925464630126953125</LatitudeDegrees>
              <LongitudeDegrees>-73.048786707222461700439453125</LongitudeDegrees>
            </Position>
            <AltitudeMeters>614</AltitudeMeters>
            <DistanceMeters>3698.7002304416</DistanceMeters>
          </Trackpoint>
          <Trackpoint>
            <Time>2023-01-11T15:31:32.000Z</Time>
            <Position>
              <LatitudeDegrees>-49.220680184662342071533203125</LatitudeDegrees>
              <LongitudeDegrees>-73.0488086678087711334228515625</LongitudeDegrees>
            </Position>
            <AltitudeMeters>614</AltitudeMeters>
            <DistanceMeters>3701.5668259073</DistanceMeters>
          </Trackpoint>
          <Trackpoint>
            <Time>2023-01-11T15:31:35.000Z</Time>
            <Position>
              <LatitudeDegrees>-49.220699965953826904296875</LatitudeDegrees>
              <LongitudeDegrees>-73.0487945862114429473876953125</LongitudeDegrees>
            </Position>
            <AltitudeMeters>614.20001220703125</AltitudeMeters>
            <DistanceMeters>3703.9951257072</DistanceMeters>
          </Trackpoint>
          <Trackpoint>
            <Time>2023-01-11T15:31:36.000Z</Time>
            <Position>
              <LatitudeDegrees>-49.220713041722774505615234375</LatitudeDegrees>
              <LongitudeDegrees>-73.0487942509353160858154296875</LongitudeDegrees>
            </Position>
            <AltitudeMeters>614.79998779296875</AltitudeMeters>
            <DistanceMeters>3705.4487549198</DistanceMeters>
          </Trackpoint>
          <Trackpoint>
            <Time>2023-01-11T15:31:43.000Z</Time>
            <Position>
              <LatitudeDegrees>-49.22076056711375713348388671875</LatitudeDegrees>
              <LongitudeDegrees>-73.048773966729640960693359375</LongitudeDegrees>
            </Position>
            <AltitudeMeters>616</AltitudeMeters>
            <DistanceMeters>3710.9406084615</DistanceMeters>
          </Trackpoint>
          <Trackpoint>
            <Time>2023-01-11T15:31:47.000Z</Time>
            <Position>
              <LatitudeDegrees>-49.22078856267035007476806640625</LatitudeDegrees>
              <LongitudeDegrees>-73.0487828515470027923583984375</LongitudeDegrees>
            </Position>
            <AltitudeMeters>617.5999755859375</AltitudeMeters>
            <DistanceMeters>3714.1222300125</DistanceMeters>
          </Trackpoint>
          <Trackpoint>
            <Time>2023-01-11T15:31:50.000Z</Time>
            <Position>
              <LatitudeDegrees>-49.220793507993221282958984375</LatitudeDegrees>
              <LongitudeDegrees>-73.0487872101366519927978515625</LongitudeDegrees>
            </Position>
            <AltitudeMeters>617.79998779296875</AltitudeMeters>
            <DistanceMeters>3714.7525659257</DistanceMeters>
          </Trackpoint>
          <Trackpoint>
            <Time>2023-01-11T15:32:01.000Z</Time>
            <Position>
              <LatitudeDegrees>-49.22080515883862972259521484375</LatitudeDegrees>
              <LongitudeDegrees>-73.04879450239241123199462890625</LongitudeDegrees>
            </Position>
            <AltitudeMeters>617</AltitudeMeters>
            <DistanceMeters>3716.1556185494</DistanceMeters>
          </Trackpoint>
          <Trackpoint>
            <Time>2023-01-11T15:32:05.000Z</Time>
            <Position>
              <LatitudeDegrees>-49.22080515883862972259521484375</LatitudeDegrees>
              <LongitudeDegrees>-73.04879450239241123199462890625</LongitudeDegrees>
            </Position>
            <AltitudeMeters>616.20001220703125</AltitudeMeters>
            <DistanceMeters>3716.1556185494</DistanceMeters>
          </Trackpoint>
          <Trackpoint>
            <Time>2023-01-11T15:32:12.000Z</Time>
            <Position>
              <LatitudeDegrees>-49.22080515883862972259521484375</LatitudeDegrees>
              <LongitudeDegrees>-73.04879450239241123199462890625</LongitudeDegrees>
            </Position>
            <AltitudeMeters>616.20001220703125</AltitudeMeters>
            <DistanceMeters>3716.1556185494</DistanceMeters>
          </Trackpoint>
          <Trackpoint>
            <Time>2023-01-11T15:32:26.000Z</Time>
            <Position>
              <LatitudeDegrees>-49.2208734713494777679443359375</LatitudeDegrees>
              <LongitudeDegrees>-73.04880313575267791748046875</LongitudeDegrees>
            </Position>
            <AltitudeMeters>616.79998779296875</AltitudeMeters>
            <DistanceMeters>3723.7844351471</DistanceMeters>
          </Trackpoint>
          <Trackpoint>
            <Time>2023-01-11T15:32:28.000Z</Time>
            <Position>
              <LatitudeDegrees>-49.2208997905254364013671875</LatitudeDegrees>
              <LongitudeDegrees>-73.048802129924297332763671875</LongitudeDegrees>
            </Position>
            <AltitudeMeters>617.79998779296875</AltitudeMeters>
            <DistanceMeters>3726.7133551907</DistanceMeters>
          </Trackpoint>
          <Trackpoint>
            <Time>2023-01-11T15:32:35.000Z</Time>
            <Position>
              <LatitudeDegrees>-49.220961816608905792236328125</LatitudeDegrees>
              <LongitudeDegrees>-73.04879886098206043243408203125</LongitudeDegrees>
            </Position>
            <AltitudeMeters>618.20001220703125</AltitudeMeters>
            <DistanceMeters>3733.6209541896</DistanceMeters>
          </Trackpoint>
          <Trackpoint>
            <Time>2023-01-11T15:32:37.000Z</Time>
            <Position>
              <LatitudeDegrees>-49.22097514383494853973388671875</LatitudeDegrees>
              <LongitudeDegrees>-73.04879265837371349334716796875</LongitudeDegrees>
            </Position>
            <AltitudeMeters>619.20001220703125</AltitudeMeters>
            <DistanceMeters>3735.1707929987</DistanceMeters>
          </Trackpoint>
          <Trackpoint>
            <Time>2023-01-11T15:32:39.000Z</Time>
            <Position>
              <LatitudeDegrees>-49.220987968146800994873046875</LatitudeDegrees>
              <LongitudeDegrees>-73.0487768165767192840576171875</LongitudeDegrees>
            </Position>
            <AltitudeMeters>619.5999755859375</AltitudeMeters>
            <DistanceMeters>3737.0036018914</DistanceMeters>
          </Trackpoint>
          <Trackpoint>
            <Time>2023-01-11T15:32:42.000Z</Time>
            <Position>
              <LatitudeDegrees>-49.22100783325731754302978515625</LatitudeDegrees>
              <LongitudeDegrees>-73.0487560294568538665771484375</LongitudeDegrees>
            </Position>
            <AltitudeMeters>620.20001220703125</AltitudeMeters>
            <DistanceMeters>3739.6812651817</DistanceMeters>
          </Trackpoint>
          <Trackpoint>
            <Time>2023-01-11T15:32:45.000Z</Time>
            <Position>
              <LatitudeDegrees>-49.2210317216813564300537109375</LatitudeDegrees>
              <LongitudeDegrees>-73.04872811771929264068603515625</LongitudeDegrees>
            </Position>
            <AltitudeMeters>620.5999755859375</AltitudeMeters>
            <DistanceMeters>3743.0261515346</DistanceMeters>
          </Trackpoint>
          <Trackpoint>
            <Time>2023-01-11T15:32:48.000Z</Time>
            <Position>
              <LatitudeDegrees>-49.22105242498219013214111328125</LatitudeDegrees>
              <LongitudeDegrees>-73.0487278662621974945068359375</LongitudeDegrees>
            </Position>
            <AltitudeMeters>622</AltitudeMeters>
            <DistanceMeters>3745.3304268978</DistanceMeters>
          </Trackpoint>
          <Trackpoint>
            <Time>2023-01-11T15:32:52.000Z</Time>
            <Position>
              <LatitudeDegrees>-49.221061728894710540771484375</LatitudeDegrees>
              <LongitudeDegrees>-73.04873113520443439483642578125</LongitudeDegrees>
            </Position>
            <AltitudeMeters>622</AltitudeMeters>
            <DistanceMeters>3746.397099121</DistanceMeters>
          </Trackpoint>
          <Trackpoint>
            <Time>2023-01-11T15:32:58.000Z</Time>
            <Position>
              <LatitudeDegrees>-49.22108285129070281982421875</LatitudeDegrees>
              <LongitudeDegrees>-73.04875292815268039703369140625</LongitudeDegrees>
            </Position>
            <AltitudeMeters>621</AltitudeMeters>
            <DistanceMeters>3749.2320185264</DistanceMeters>
          </Trackpoint>
          <Trackpoint>
            <Time>2023-01-11T15:32:59.000Z</Time>
            <Position>
              <LatitudeDegrees>-49.22108042053878307342529296875</LatitudeDegrees>
              <LongitudeDegrees>-73.0487516708672046661376953125</LongitudeDegrees>
            </Position>
            <AltitudeMeters>621</AltitudeMeters>
            <DistanceMeters>3749.5007946629</DistanceMeters>
          </Trackpoint>
          <Trackpoint>
            <Time>2023-01-11T15:33:12.000Z</Time>
            <Position>
              <LatitudeDegrees>-49.22108729369938373565673828125</LatitudeDegrees>
              <LongitudeDegrees>-73.0487496592104434967041015625</LongitudeDegrees>
            </Position>
            <AltitudeMeters>623</AltitudeMeters>
            <DistanceMeters>3750.2844050242</DistanceMeters>
          </Trackpoint>
          <Trackpoint>
            <Time>2023-01-11T15:33:15.000Z</Time>
            <Position>
              <LatitudeDegrees>-49.22108729369938373565673828125</LatitudeDegrees>
              <LongitudeDegrees>-73.0487429536879062652587890625</LongitudeDegrees>
            </Position>
            <AltitudeMeters>625</AltitudeMeters>
            <DistanceMeters>3750.7872391324</DistanceMeters>
          </Trackpoint>
          <Trackpoint>
            <Time>2023-01-11T15:33:24.000Z</Time>
            <Position>
              <LatitudeDegrees>-49.221112690865993499755859375</LatitudeDegrees>
              <LongitudeDegrees>-73.04868939332664012908935546875</LongitudeDegrees>
            </Position>
            <AltitudeMeters>625.79998779296875</AltitudeMeters>
            <DistanceMeters>3755.5990076225</DistanceMeters>
          </Trackpoint>
          <Trackpoint>
            <Time>2023-01-11T15:33:25.000Z</Time>
            <Position>
              <LatitudeDegrees>-49.22112249769270420074462890625</LatitudeDegrees>
              <LongitudeDegrees>-73.04867346771061420440673828125</LongitudeDegrees>
            </Position>
            <AltitudeMeters>626.4000244140625</AltitudeMeters>
            <DistanceMeters>3757.1891086898</DistanceMeters>
          </Trackpoint>
          <Trackpoint>
            <Time>2023-01-11T15:33:28.000Z</Time>
            <Position>
              <LatitudeDegrees>-49.22115636058151721954345703125</LatitudeDegrees>
              <LongitudeDegrees>-73.048621080815792083740234375</LongitudeDegrees>
            </Position>
            <AltitudeMeters>627.5999755859375</AltitudeMeters>
            <DistanceMeters>3762.5469639525</DistanceMeters>
          </Trackpoint>
          <Trackpoint>
            <Time>2023-01-11T15:33:33.000Z</Time>
            <Position>
              <LatitudeDegrees>-49.22119013965129852294921875</LatitudeDegrees>
              <LongitudeDegrees>-73.04856785573065280914306640625</LongitudeDegrees>
            </Position>
            <AltitudeMeters>628.4000244140625</AltitudeMeters>
            <DistanceMeters>3767.9417703789</DistanceMeters>
          </Trackpoint>
          <Trackpoint>
            <Time>2023-01-11T15:33:36.000Z</Time>
            <Position>
              <LatitudeDegrees>-49.22118603251874446868896484375</LatitudeDegrees>
              <LongitudeDegrees>-73.0485785007476806640625</LongitudeDegrees>
            </Position>
            <AltitudeMeters>628.79998779296875</AltitudeMeters>
            <DistanceMeters>3768.8432729468</DistanceMeters>
          </Trackpoint>
          <Trackpoint>
            <Time>2023-01-11T15:33:41.000Z</Time>
            <Position>
              <LatitudeDegrees>-49.22120531089603900909423828125</LatitudeDegrees>
              <LongitudeDegrees>-73.0485461466014385223388671875</LongitudeDegrees>
            </Position>
            <AltitudeMeters>629.79998779296875</AltitudeMeters>
            <DistanceMeters>3772.0263132812</DistanceMeters>
          </Trackpoint>
          <Trackpoint>
            <Time>2023-01-11T15:33:42.000Z</Time>
            <Position>
              <LatitudeDegrees>-49.22121318988502025604248046875</LatitudeDegrees>
              <LongitudeDegrees>-73.04854002781212329864501953125</LongitudeDegrees>
            </Position>
            <AltitudeMeters>630</AltitudeMeters>
            <DistanceMeters>3773.0138598654</DistanceMeters>
          </Trackpoint>
          <Trackpoint>
            <Time>2023-01-11T15:33:50.000Z</Time>
            <Position>
              <LatitudeDegrees>-49.22124437056481838226318359375</LatitudeDegrees>
              <LongitudeDegrees>-73.04848135448992252349853515625</LongitudeDegrees>
            </Position>
            <AltitudeMeters>629</AltitudeMeters>
            <DistanceMeters>3778.5122865435</DistanceMeters>
          </Trackpoint>
          <Trackpoint>
            <Time>2023-01-11T15:33:51.000Z</Time>
            <Position>
              <LatitudeDegrees>-49.22124437056481838226318359375</LatitudeDegrees>
              <LongitudeDegrees>-73.04846676997840404510498046875</LongitudeDegrees>
            </Position>
            <AltitudeMeters>629</AltitudeMeters>
            <DistanceMeters>3779.570459251</DistanceMeters>
          </Trackpoint>
          <Trackpoint>
            <Time>2023-01-11T15:33:54.000Z</Time>
            <Position>
              <LatitudeDegrees>-49.22125576995313167572021484375</LatitudeDegrees>
              <LongitudeDegrees>-73.04844346828758716583251953125</LongitudeDegrees>
            </Position>
            <AltitudeMeters>630</AltitudeMeters>
            <DistanceMeters>3781.6868046662</DistanceMeters>
          </Trackpoint>
          <Trackpoint>
            <Time>2023-01-11T15:33:59.000Z</Time>
            <Position>
              <LatitudeDegrees>-49.22127605415880680084228515625</LatitudeDegrees>
              <LongitudeDegrees>-73.04840994067490100860595703125</LongitudeDegrees>
            </Position>
            <AltitudeMeters>631</AltitudeMeters>
            <DistanceMeters>3785.0086645992</DistanceMeters>
          </Trackpoint>
          <Trackpoint>
            <Time>2023-01-11T15:34:08.000Z</Time>
            <Position>
              <LatitudeDegrees>-49.22127521596848964691162109375</LatitudeDegrees>
              <LongitudeDegrees>-73.04834179580211639404296875</LongitudeDegrees>
            </Position>
            <AltitudeMeters>631.5999755859375</AltitudeMeters>
            <DistanceMeters>3789.9646516782</DistanceMeters>
          </Trackpoint>
          <Trackpoint>
            <Time>2023-01-11T15:34:12.000Z</Time>
            <Position>
              <LatitudeDegrees>-49.22129952348768711090087890625</LatitudeDegrees>
              <LongitudeDegrees>-73.048320002853870391845703125</LongitudeDegrees>
            </Position>
            <AltitudeMeters>632</AltitudeMeters>
            <DistanceMeters>3793.1005332524</DistanceMeters>
          </Trackpoint>
          <Trackpoint>
            <Time>2023-01-11T15:34:13.000Z</Time>
            <Position>
              <LatitudeDegrees>-49.221303798258304595947265625</LatitudeDegrees>
              <LongitudeDegrees>-73.04831606335937976837158203125</LongitudeDegrees>
            </Position>
            <AltitudeMeters>632.20001220703125</AltitudeMeters>
            <DistanceMeters>3793.6546294527</DistanceMeters>
          </Trackpoint>
          <Trackpoint>
            <Time>2023-01-11T15:34:16.000Z</Time>
            <Position>
              <LatitudeDegrees>-49.2213155329227447509765625</LatitudeDegrees>
              <LongitudeDegrees>-73.048303909599781036376953125</LongitudeDegrees>
            </Position>
            <AltitudeMeters>632.79998779296875</AltitudeMeters>
            <DistanceMeters>3795.2333317991</DistanceMeters>
          </Trackpoint>
          <Trackpoint>
            <Time>2023-01-11T15:34:24.000Z</Time>
            <Position>
              <LatitudeDegrees>-49.22135300002992153167724609375</LatitudeDegrees>
              <LongitudeDegrees>-73.04826275445520877838134765625</LongitudeDegrees>
            </Position>
            <AltitudeMeters>633.20001220703125</AltitudeMeters>
            <DistanceMeters>3800.3665338274</DistanceMeters>
          </Trackpoint>
          <Trackpoint>
            <Time>2023-01-11T15:34:27.000Z</Time>
            <Position>
              <LatitudeDegrees>-49.22136808745563030242919921875</LatitudeDegrees>
              <LongitudeDegrees>-73.04824967868626117706298828125</LongitudeDegrees>
            </Position>
            <AltitudeMeters>633.4000244140625</AltitudeMeters>
            <DistanceMeters>3802.29302323</DistanceMeters>
          </Trackpoint>
          <Trackpoint>
            <Time>2023-01-11T15:34:31.000Z</Time>
            <Position>
              <LatitudeDegrees>-49.22140127979218959808349609375</LatitudeDegrees>
              <LongitudeDegrees>-73.0482417158782482147216796875</LongitudeDegrees>
            </Position>
            <AltitudeMeters>633.4000244140625</AltitudeMeters>
            <DistanceMeters>3806.0318142559</DistanceMeters>
          </Trackpoint>
          <Trackpoint>
            <Time>2023-01-11T15:34:35.000Z</Time>
            <Position>
              <LatitudeDegrees>-49.22143380157649517059326171875</LatitudeDegrees>
              <LongitudeDegrees>-73.04824247024953365325927734375</LongitudeDegrees>
            </Position>
            <AltitudeMeters>633.4000244140625</AltitudeMeters>
            <DistanceMeters>3809.6515712809</DistanceMeters>
          </Trackpoint>
          <Trackpoint>
            <Time>2023-01-11T15:34:42.000Z</Time>
            <Position>
              <LatitudeDegrees>-49.22147621400654315948486328125</LatitudeDegrees>
              <LongitudeDegrees>-73.0482326634228229522705078125</LongitudeDegrees>
            </Position>
            <AltitudeMeters>634.4000244140625</AltitudeMeters>
            <DistanceMeters>3814.4256589366</DistanceMeters>
          </Trackpoint>
          <Trackpoint>
            <Time>2023-01-11T15:34:44.000Z</Time>
            <Position>
              <LatitudeDegrees>-49.22148928977549076080322265625</LatitudeDegrees>
              <LongitudeDegrees>-73.04822738282382488250732421875</LongitudeDegrees>
            </Position>
            <AltitudeMeters>634.79998779296875</AltitudeMeters>
            <DistanceMeters>3815.9281632165</DistanceMeters>
          </Trackpoint>
          <Trackpoint>
            <Time>2023-01-11T15:34:46.000Z</Time>
            <Position>
              <LatitudeDegrees>-49.22150270082056522369384765625</LatitudeDegrees>
              <LongitudeDegrees>-73.0482326634228229522705078125</LongitudeDegrees>
            </Position>
            <AltitudeMeters>635.4000244140625</AltitudeMeters>
            <DistanceMeters>3817.4663049617</DistanceMeters>
          </Trackpoint>
          <Trackpoint>
            <Time>2023-01-11T15:34:53.000Z</Time>
            <Position>
              <LatitudeDegrees>-49.22153388150036334991455078125</LatitudeDegrees>
              <LongitudeDegrees>-73.04823760874569416046142578125</LongitudeDegrees>
            </Position>
            <AltitudeMeters>636.5999755859375</AltitudeMeters>
            <DistanceMeters>3820.9552221356</DistanceMeters>
          </Trackpoint>
          <Trackpoint>
            <Time>2023-01-11T15:34:57.000Z</Time>
            <Position>
              <LatitudeDegrees>-49.22155399806797504425048828125</LatitudeDegrees>
              <LongitudeDegrees>-73.048224784433841705322265625</LongitudeDegrees>
            </Position>
            <AltitudeMeters>637</AltitudeMeters>
            <DistanceMeters>3823.3816618817</DistanceMeters>
          </Trackpoint>
          <Trackpoint>
            <Time>2023-01-11T15:35:00.000Z</Time>
            <Position>
              <LatitudeDegrees>-49.2215705104172229766845703125</LatitudeDegrees>
              <LongitudeDegrees>-73.04822235368192195892333984375</LongitudeDegrees>
            </Position>
            <AltitudeMeters>637.79998779296875</AltitudeMeters>
            <DistanceMeters>3825.2291923675</DistanceMeters>
          </Trackpoint>
          <Trackpoint>
            <Time>2023-01-11T15:35:03.000Z</Time>
            <Position>
              <LatitudeDegrees>-49.22157503664493560791015625</LatitudeDegrees>
              <LongitudeDegrees>-73.04822436533868312835693359375</LongitudeDegrees>
            </Position>
            <AltitudeMeters>638</AltitudeMeters>
            <DistanceMeters>3825.7496751177</DistanceMeters>
          </Trackpoint>
          <Trackpoint>
            <Time>2023-01-11T15:35:05.000Z</Time>
            <Position>
              <LatitudeDegrees>-49.22156699001789093017578125</LatitudeDegrees>
              <LongitudeDegrees>-73.0482232756912708282470703125</LongitudeDegrees>
            </Position>
            <AltitudeMeters>638.20001220703125</AltitudeMeters>
            <DistanceMeters>3826.6511776856</DistanceMeters>
          </Trackpoint>
          <Trackpoint>
            <Time>2023-01-11T15:35:12.000Z</Time>
            <Position>
              <LatitudeDegrees>-49.2216070555150508880615234375</LatitudeDegrees>
              <LongitudeDegrees>-73.04822419770061969757080078125</LongitudeDegrees>
            </Position>
            <AltitudeMeters>638.5999755859375</AltitudeMeters>
            <DistanceMeters>3831.1103511886</DistanceMeters>
          </Trackpoint>
          <Trackpoint>
            <Time>2023-01-11T15:35:14.000Z</Time>
            <Position>
              <LatitudeDegrees>-49.22161904163658618927001953125</LatitudeDegrees>
              <LongitudeDegrees>-73.0482256226241588592529296875</LongitudeDegrees>
            </Position>
            <AltitudeMeters>639</AltitudeMeters>
            <DistanceMeters>3832.4474955847</DistanceMeters>
          </Trackpoint>
          <Trackpoint>
            <Time>2023-01-11T15:35:17.000Z</Time>
            <Position>
              <LatitudeDegrees>-49.22163865529000759124755859375</LatitudeDegrees>
              <LongitudeDegrees>-73.04822905920445919036865234375</LongitudeDegrees>
            </Position>
            <AltitudeMeters>640.20001220703125</AltitudeMeters>
            <DistanceMeters>3834.645469856</DistanceMeters>
          </Trackpoint>
          <Trackpoint>
            <Time>2023-01-11T15:35:21.000Z</Time>
            <Position>
              <LatitudeDegrees>-49.2216615378856658935546875</LatitudeDegrees>
              <LongitudeDegrees>-73.048221431672573089599609375</LongitudeDegrees>
            </Position>
            <AltitudeMeters>641</AltitudeMeters>
            <DistanceMeters>3837.2530832404</DistanceMeters>
          </Trackpoint>
          <Trackpoint>
            <Time>2023-01-11T15:35:23.000Z</Time>
            <Position>
              <LatitudeDegrees>-49.22167427837848663330078125</LatitudeDegrees>
              <LongitudeDegrees>-73.0482185818254947662353515625</LongitudeDegrees>
            </Position>
            <AltitudeMeters>641.20001220703125</AltitudeMeters>
            <DistanceMeters>3838.6879551612</DistanceMeters>
          </Trackpoint>
          <Trackpoint>
            <Time>2023-01-11T15:35:27.000Z</Time>
            <Position>
              <LatitudeDegrees>-49.22168861143290996551513671875</LatitudeDegrees>
              <LongitudeDegrees>-73.0481984652578830718994140625</LongitudeDegrees>
            </Position>
            <AltitudeMeters>641.5999755859375</AltitudeMeters>
            <DistanceMeters>3840.8507264385</DistanceMeters>
          </Trackpoint>
          <Trackpoint>
            <Time>2023-01-11T15:35:28.000Z</Time>
            <Position>
              <LatitudeDegrees>-49.22168827615678310394287109375</LatitudeDegrees>
              <LongitudeDegrees>-73.0481890775263309478759765625</LongitudeDegrees>
            </Position>
            <AltitudeMeters>641.5999755859375</AltitudeMeters>
            <DistanceMeters>3841.5359738209</DistanceMeters>
          </Trackpoint>
          <Trackpoint>
            <Time>2023-01-11T15:35:30.000Z</Time>
            <Position>
              <LatitudeDegrees>-49.2216952331364154815673828125</LatitudeDegrees>
              <LongitudeDegrees>-73.0481776781380176544189453125</LongitudeDegrees>
            </Position>
            <AltitudeMeters>642</AltitudeMeters>
            <DistanceMeters>3842.6683478117</DistanceMeters>
          </Trackpoint>
          <Trackpoint>
            <Time>2023-01-11T15:35:32.000Z</Time>
            <Position>
              <LatitudeDegrees>-49.2217066325247287750244140625</LatitudeDegrees>
              <LongitudeDegrees>-73.0481676198542118072509765625</LongitudeDegrees>
            </Position>
            <AltitudeMeters>642.4000244140625</AltitudeMeters>
            <DistanceMeters>3844.1312654845</DistanceMeters>
          </Trackpoint>
          <Trackpoint>
            <Time>2023-01-11T15:35:33.000Z</Time>
            <Position>
              <LatitudeDegrees>-49.2217106558382511138916015625</LatitudeDegrees>
              <LongitudeDegrees>-73.04816368035972118377685546875</LongitudeDegrees>
            </Position>
            <AltitudeMeters>643.4000244140625</AltitudeMeters>
            <DistanceMeters>3844.6517482347</DistanceMeters>
          </Trackpoint>
          <Trackpoint>
            <Time>2023-01-11T15:35:36.000Z</Time>
            <Position>
              <LatitudeDegrees>-49.22172716818749904632568359375</LatitudeDegrees>
              <LongitudeDegrees>-73.0481535382568836212158203125</LongitudeDegrees>
            </Position>
            <AltitudeMeters>644.4000244140625</AltitudeMeters>
            <DistanceMeters>3846.6314080986</DistanceMeters>
          </Trackpoint>
          <Trackpoint>
            <Time>2023-01-11T15:35:37.000Z</Time>
            <Position>
              <LatitudeDegrees>-49.2217337898910045623779296875</LatitudeDegrees>
              <LongitudeDegrees>-73.04814867675304412841796875</LongitudeDegrees>
            </Position>
            <AltitudeMeters>646</AltitudeMeters>
            <DistanceMeters>3847.4488588047</DistanceMeters>
          </Trackpoint>
          <Trackpoint>
            <Time>2023-01-11T15:35:45.000Z</Time>
            <Position>
              <LatitudeDegrees>-49.2217696644365787506103515625</LatitudeDegrees>
              <LongitudeDegrees>-73.04811892099678516387939453125</LongitudeDegrees>
            </Position>
            <AltitudeMeters>645.5999755859375</AltitudeMeters>
            <DistanceMeters>3851.990300712</DistanceMeters>
          </Trackpoint>
          <Trackpoint>
            <Time>2023-01-11T15:35:46.000Z</Time>
            <Position>
              <LatitudeDegrees>-49.2217743583023548126220703125</LatitudeDegrees>
              <LongitudeDegrees>-73.0481169931590557098388671875</LongitudeDegrees>
            </Position>
            <AltitudeMeters>645.79998779296875</AltitudeMeters>
            <DistanceMeters>3852.527852985</DistanceMeters>
          </Trackpoint>
          <Trackpoint>
            <Time>2023-01-11T15:35:49.000Z</Time>
            <Position>
              <LatitudeDegrees>-49.22179338522255420684814453125</LatitudeDegrees>
              <LongitudeDegrees>-73.04811825044453144073486328125</LongitudeDegrees>
            </Position>
            <AltitudeMeters>647</AltitudeMeters>
            <DistanceMeters>3854.648460933</DistanceMeters>
          </Trackpoint>
          <Trackpoint>
            <Time>2023-01-11T15:35:56.000Z</Time>
            <Position>
              <LatitudeDegrees>-49.221810735762119293212890625</LatitudeDegrees>
              <LongitudeDegrees>-73.04808606393635272979736328125</LongitudeDegrees>
            </Position>
            <AltitudeMeters>647.79998779296875</AltitudeMeters>
            <DistanceMeters>3857.6833708119</DistanceMeters>
          </Trackpoint>
          <Trackpoint>
            <Time>2023-01-11T15:35:57.000Z</Time>
            <Position>
              <LatitudeDegrees>-49.2218122445046901702880859375</LatitudeDegrees>
              <LongitudeDegrees>-73.04807935841381549835205078125</LongitudeDegrees>
            </Position>
            <AltitudeMeters>648.4000244140625</AltitudeMeters>
            <DistanceMeters>3858.2038535622</DistanceMeters>
          </Trackpoint>
          <Trackpoint>
            <Time>2023-01-11T15:36:00.000Z</Time>
            <Position>
              <LatitudeDegrees>-49.2218249849975109100341796875</LatitudeDegrees>
              <LongitudeDegrees>-73.0480730719864368438720703125</LongitudeDegrees>
            </Position>
            <AltitudeMeters>649.5999755859375</AltitudeMeters>
            <DistanceMeters>3859.6942893391</DistanceMeters>
          </Trackpoint>
          <Trackpoint>
            <Time>2023-01-11T15:36:02.000Z</Time>
            <Position>
              <LatitudeDegrees>-49.2218305170536041259765625</LatitudeDegrees>
              <LongitudeDegrees>-73.04806561209261417388916015625</LongitudeDegrees>
            </Position>
            <AltitudeMeters>650.4000244140625</AltitudeMeters>
            <DistanceMeters>3860.5117400452</DistanceMeters>
          </Trackpoint>
          <Trackpoint>
            <Time>2023-01-11T15:36:04.000Z</Time>
            <Position>
              <LatitudeDegrees>-49.2218387313187122344970703125</LatitudeDegrees>
              <LongitudeDegrees>-73.04805991239845752716064453125</LongitudeDegrees>
            </Position>
            <AltitudeMeters>650.79998779296875</AltitudeMeters>
            <DistanceMeters>3861.5174082617</DistanceMeters>
          </Trackpoint>
          <Trackpoint>
            <Time>2023-01-11T15:36:07.000Z</Time>
            <Position>
              <LatitudeDegrees>-49.2218501307070255279541015625</LatitudeDegrees>
              <LongitudeDegrees>-73.04806024767458438873291015625</LongitudeDegrees>
            </Position>
            <AltitudeMeters>651.79998779296875</AltitudeMeters>
            <DistanceMeters>3862.7852227619</DistanceMeters>
          </Trackpoint>
          <Trackpoint>
            <Time>2023-01-11T15:36:10.000Z</Time>
            <Position>
              <LatitudeDegrees>-49.22185935080051422119140625</LatitudeDegrees>
              <LongitudeDegrees>-73.0480425618588924407958984375</LongitudeDegrees>
            </Position>
            <AltitudeMeters>652.20001220703125</AltitudeMeters>
            <DistanceMeters>3864.4311337356</DistanceMeters>
          </Trackpoint>
          <Trackpoint>
            <Time>2023-01-11T15:36:17.000Z</Time>
            <Position>
              <LatitudeDegrees>-49.2218806408345699310302734375</LatitudeDegrees>
              <LongitudeDegrees>-73.0480076931416988372802734375</LongitudeDegrees>
            </Position>
            <AltitudeMeters>652.5999755859375</AltitudeMeters>
            <DistanceMeters>3867.9005849746</DistanceMeters>
          </Trackpoint>
          <Trackpoint>
            <Time>2023-01-11T15:36:19.000Z</Time>
            <Position>
              <LatitudeDegrees>-49.2218900285661220550537109375</LatitudeDegrees>
              <LongitudeDegrees>-73.0479979701340198516845703125</LongitudeDegrees>
            </Position>
            <AltitudeMeters>652.79998779296875</AltitudeMeters>
            <DistanceMeters>3869.1612568011</DistanceMeters>
          </Trackpoint>
          <Trackpoint>
            <Time>2023-01-11T15:36:26.000Z</Time>
            <Position>
              <LatitudeDegrees>-49.2219088040292263031005859375</LatitudeDegrees>
              <LongitudeDegrees>-73.04798983968794345855712890625</LongitudeDegrees>
            </Position>
            <AltitudeMeters>652.20001220703125</AltitudeMeters>
            <DistanceMeters>3871.332362488</DistanceMeters>
          </Trackpoint>
          <Trackpoint>
            <Time>2023-01-11T15:36:33.000Z</Time>
            <Position>
              <LatitudeDegrees>-49.22191894613206386566162109375</LatitudeDegrees>
              <LongitudeDegrees>-73.04798506200313568115234375</LongitudeDegrees>
            </Position>
            <AltitudeMeters>652.20001220703125</AltitudeMeters>
            <DistanceMeters>3872.515435541</DistanceMeters>
          </Trackpoint>
          <Trackpoint>
            <Time>2023-01-11T15:36:37.000Z</Time>
            <Position>
              <LatitudeDegrees>-49.221939146518707275390625</LatitudeDegrees>
              <LongitudeDegrees>-73.047953881323337554931640625</LongitudeDegrees>
            </Position>
            <AltitudeMeters>652.20001220703125</AltitudeMeters>
            <DistanceMeters>3875.7069753307</DistanceMeters>
          </Trackpoint>
          <Trackpoint>
            <Time>2023-01-11T15:36:39.000Z</Time>
            <Position>
              <LatitudeDegrees>-49.22195046208798885345458984375</LatitudeDegrees>
              <LongitudeDegrees>-73.04794692434370517730712890625</LongitudeDegrees>
            </Position>
            <AltitudeMeters>652.20001220703125</AltitudeMeters>
            <DistanceMeters>3877.0642282896</DistanceMeters>
          </Trackpoint>
          <Trackpoint>
            <Time>2023-01-11T15:36:40.000Z</Time>
            <Position>
              <LatitudeDegrees>-49.22195498831570148468017578125</LatitudeDegrees>
              <LongitudeDegrees>-73.04794575087726116180419921875</LongitudeDegrees>
            </Position>
            <AltitudeMeters>652.20001220703125</AltitudeMeters>
            <DistanceMeters>3877.5670623979</DistanceMeters>
          </Trackpoint>
          <Trackpoint>
            <Time>2023-01-11T15:36:43.000Z</Time>
            <Position>
              <LatitudeDegrees>-49.22197141684591770172119140625</LatitudeDegrees>
              <LongitudeDegrees>-73.0479372851550579071044921875</LongitudeDegrees>
            </Position>
            <AltitudeMeters>654</AltitudeMeters>
            <DistanceMeters>3879.4958940377</DistanceMeters>
          </Trackpoint>
          <Trackpoint>
            <Time>2023-01-11T15:36:50.000Z</Time>
            <Position>
              <LatitudeDegrees>-49.2220147512853145599365234375</LatitudeDegrees>
              <LongitudeDegrees>-73.04792873561382293701171875</LongitudeDegrees>
            </Position>
            <AltitudeMeters>653.79998779296875</AltitudeMeters>
            <DistanceMeters>3884.3589969779</DistanceMeters>
          </Trackpoint>
          <Trackpoint>
            <Time>2023-01-11T15:36:51.000Z</Time>
            <Position>
              <LatitudeDegrees>-49.2220224626362323760986328125</LatitudeDegrees>
              <LongitudeDegrees>-73.04792680777609348297119140625</LongitudeDegrees>
            </Position>
            <AltitudeMeters>653.4000244140625</AltitudeMeters>
            <DistanceMeters>3885.2299312012</DistanceMeters>
          </Trackpoint>
          <Trackpoint>
            <Time>2023-01-11T15:36:53.000Z</Time>
            <Position>
              <LatitudeDegrees>-49.22204232774674892425537109375</LatitudeDegrees>
              <LongitudeDegrees>-73.04792999289929866790771484375</LongitudeDegrees>
            </Position>
            <AltitudeMeters>652.79998779296875</AltitudeMeters>
            <DistanceMeters>3887.4544495516</DistanceMeters>
          </Trackpoint>
          <Trackpoint>
            <Time>2023-01-11T15:36:56.000Z</Time>
            <Position>
              <LatitudeDegrees>-49.222065545618534088134765625</LatitudeDegrees>
              <LongitudeDegrees>-73.0479382909834384918212890625</LongitudeDegrees>
            </Position>
            <AltitudeMeters>652.20001220703125</AltitudeMeters>
            <DistanceMeters>3890.1084012517</DistanceMeters>
          </Trackpoint>
          <Trackpoint>
            <Time>2023-01-11T15:36:57.000Z</Time>
            <Position>
              <LatitudeDegrees>-49.222074262797832489013671875</LatitudeDegrees>
              <LongitudeDegrees>-73.04794021882116794586181640625</LongitudeDegrees>
            </Position>
            <AltitudeMeters>652.20001220703125</AltitudeMeters>
            <DistanceMeters>3891.0867611563</DistanceMeters>
          </Trackpoint>
          <Trackpoint>
            <Time>2023-01-11T15:37:01.000Z</Time>
            <Position>
              <LatitudeDegrees>-49.2220960557460784912109375</LatitudeDegrees>
              <LongitudeDegrees>-73.04795530624687671661376953125</LongitudeDegrees>
            </Position>
            <AltitudeMeters>652.5999755859375</AltitudeMeters>
            <DistanceMeters>3893.7475091587</DistanceMeters>
          </Trackpoint>
          <Trackpoint>
            <Time>2023-01-11T15:37:09.000Z</Time>
            <Position>
              <LatitudeDegrees>-49.222143329679965972900390625</LatitudeDegrees>
              <LongitudeDegrees>-73.04797165095806121826171875</LongitudeDegrees>
            </Position>
            <AltitudeMeters>652.4000244140625</AltitudeMeters>
            <DistanceMeters>3899.1414785971</DistanceMeters>
          </Trackpoint>
          <Trackpoint>
            <Time>2023-01-11T15:37:13.000Z</Time>
            <Position>
              <LatitudeDegrees>-49.22217207960784435272216796875</LatitudeDegrees>
              <LongitudeDegrees>-73.047980032861232757568359375</LongitudeDegrees>
            </Position>
            <AltitudeMeters>652.20001220703125</AltitudeMeters>
            <DistanceMeters>3902.3988302548</DistanceMeters>
          </Trackpoint>
          <Trackpoint>
            <Time>2023-01-11T15:37:19.000Z</Time>
            <Position>
              <LatitudeDegrees>-49.22221801243722438812255859375</LatitudeDegrees>
              <LongitudeDegrees>-73.04800962097942829132080078125</LongitudeDegrees>
            </Position>
            <AltitudeMeters>652.20001220703125</AltitudeMeters>
            <DistanceMeters>3907.944679186</DistanceMeters>
          </Trackpoint>
          <Trackpoint>
            <Time>2023-01-11T15:37:20.000Z</Time>
            <Position>
              <LatitudeDegrees>-49.22222002409398555755615234375</LatitudeDegrees>
              <LongitudeDegrees>-73.04801548831164836883544921875</LongitudeDegrees>
            </Position>
            <AltitudeMeters>652.20001220703125</AltitudeMeters>
            <DistanceMeters>3908.4292222569</DistanceMeters>
          </Trackpoint>
          <Trackpoint>
            <Time>2023-01-11T15:37:22.000Z</Time>
            <Position>
              <LatitudeDegrees>-49.2222306691110134124755859375</LatitudeDegrees>
              <LongitudeDegrees>-73.04802118800580501556396484375</LongitudeDegrees>
            </Position>
            <AltitudeMeters>652.20001220703125</AltitudeMeters>
            <DistanceMeters>3909.6863075275</DistanceMeters>
          </Trackpoint>
          <Trackpoint>
            <Time>2023-01-11T15:37:25.000Z</Time>
            <Position>
              <LatitudeDegrees>-49.2222538031637668609619140625</LatitudeDegrees>
              <LongitudeDegrees>-73.048041723668575286865234375</LongitudeDegrees>
            </Position>
            <AltitudeMeters>652.4000244140625</AltitudeMeters>
            <DistanceMeters>3912.6626316012</DistanceMeters>
          </Trackpoint>
          <Trackpoint>
            <Time>2023-01-11T15:37:28.000Z</Time>
            <Position>
              <LatitudeDegrees>-49.22227802686393260955810546875</LatitudeDegrees>
              <LongitudeDegrees>-73.04806192405521869659423828125</LongitudeDegrees>
            </Position>
            <AltitudeMeters>653</AltitudeMeters>
            <DistanceMeters>3915.733038709</DistanceMeters>
          </Trackpoint>
          <Trackpoint>
            <Time>2023-01-11T15:37:34.000Z</Time>
            <Position>
              <LatitudeDegrees>-49.22234407626092433929443359375</LatitudeDegrees>
              <LongitudeDegrees>-73.04809645749628543853759765625</LongitudeDegrees>
            </Position>
            <AltitudeMeters>652.79998779296875</AltitudeMeters>
            <DistanceMeters>3923.5020174676</DistanceMeters>
          </Trackpoint>
          <Trackpoint>
            <Time>2023-01-11T15:37:39.000Z</Time>
            <Position>
              <LatitudeDegrees>-49.22238565050065517425537109375</LatitudeDegrees>
              <LongitudeDegrees>-73.0481116287410259246826171875</LongitudeDegrees>
            </Position>
            <AltitudeMeters>652.79998779296875</AltitudeMeters>
            <DistanceMeters>3928.2590513721</DistanceMeters>
          </Trackpoint>
          <Trackpoint>
            <Time>2023-01-11T15:37:41.000Z</Time>
            <Position>
              <LatitudeDegrees>-49.22239780426025390625</LatitudeDegrees>
              <LongitudeDegrees>-73.0481076054275035858154296875</LongitudeDegrees>
            </Position>
            <AltitudeMeters>652.79998779296875</AltitudeMeters>
            <DistanceMeters>3929.6426612181</DistanceMeters>
          </Trackpoint>
          <Trackpoint>
            <Time>2023-01-11T15:37:48.000Z</Time>
            <Position>
              <LatitudeDegrees>-49.22245957888662815093994140625</LatitudeDegrees>
              <LongitudeDegrees>-73.04812026210129261016845703125</LongitudeDegrees>
            </Position>
            <AltitudeMeters>652.5999755859375</AltitudeMeters>
            <DistanceMeters>3936.5789604687</DistanceMeters>
          </Trackpoint>
          <Trackpoint>
            <Time>2023-01-11T15:37:50.000Z</Time>
            <Position>
              <LatitudeDegrees>-49.22247986309230327606201171875</LatitudeDegrees>
              <LongitudeDegrees>-73.048130907118320465087890625</LongitudeDegrees>
            </Position>
            <AltitudeMeters>652.5999755859375</AltitudeMeters>
            <DistanceMeters>3938.9641120697</DistanceMeters>
          </Trackpoint>
          <Trackpoint>
            <Time>2023-01-11T15:38:01.000Z</Time>
            <Position>
              <LatitudeDegrees>-49.22257306985557079315185546875</LatitudeDegrees>
              <LongitudeDegrees>-73.04819687269628047943115234375</LongitudeDegrees>
            </Position>
            <AltitudeMeters>652.79998779296875</AltitudeMeters>
            <DistanceMeters>3950.3926301576</DistanceMeters>
          </Trackpoint>
          <Trackpoint>
            <Time>2023-01-11T15:38:13.000Z</Time>
            <Position>
              <LatitudeDegrees>-49.22268438152968883514404296875</LatitudeDegrees>
              <LongitudeDegrees>-73.04822872392833232879638671875</LongitudeDegrees>
            </Position>
            <AltitudeMeters>652.5999755859375</AltitudeMeters>
            <DistanceMeters>3962.9964829337</DistanceMeters>
          </Trackpoint>
          <Trackpoint>
            <Time>2023-01-11T15:38:15.000Z</Time>
            <Position>
              <LatitudeDegrees>-49.2227030731737613677978515625</LatitudeDegrees>
              <LongitudeDegrees>-73.048230819404125213623046875</LongitudeDegrees>
            </Position>
            <AltitudeMeters>652.5999755859375</AltitudeMeters>
            <DistanceMeters>3965.0827467823</DistanceMeters>
          </Trackpoint>
          <Trackpoint>
            <Time>2023-01-11T15:38:26.000Z</Time>
            <Position>
              <LatitudeDegrees>-49.22280885279178619384765625</LatitudeDegrees>
              <LongitudeDegrees>-73.0482472479343414306640625</LongitudeDegrees>
            </Position>
            <AltitudeMeters>652.79998779296875</AltitudeMeters>
            <DistanceMeters>3976.9165300105</DistanceMeters>
          </Trackpoint>
          <Trackpoint>
            <Time>2023-01-11T15:38:36.000Z</Time>
            <Position>
              <LatitudeDegrees>-49.2229082621634006500244140625</LatitudeDegrees>
              <LongitudeDegrees>-73.0483008921146392822265625</LongitudeDegrees>
            </Position>
            <AltitudeMeters>653.4000244140625</AltitudeMeters>
            <DistanceMeters>3988.6483851562</DistanceMeters>
          </Trackpoint>
          <Trackpoint>
            <Time>2023-01-11T15:38:37.000Z</Time>
            <Position>
              <LatitudeDegrees>-49.22291773371398448944091796875</LatitudeDegrees>
              <LongitudeDegrees>-73.04831086657941341400146484375</LongitudeDegrees>
            </Position>
            <AltitudeMeters>653.5999755859375</AltitudeMeters>
            <DistanceMeters>3989.9268388458</DistanceMeters>
          </Trackpoint>
          <Trackpoint>
            <Time>2023-01-11T15:38:39.000Z</Time>
            <Position>
              <LatitudeDegrees>-49.22294002957642078399658203125</LatitudeDegrees>
              <LongitudeDegrees>-73.048332743346691131591796875</LongitudeDegrees>
            </Position>
            <AltitudeMeters>653.4000244140625</AltitudeMeters>
            <DistanceMeters>3992.8741992817</DistanceMeters>
          </Trackpoint>
          <Trackpoint>
            <Time>2023-01-11T15:38:41.000Z</Time>
            <Position>
              <LatitudeDegrees>-49.222958050668239593505859375</LatitudeDegrees>
              <LongitudeDegrees>-73.0483486689627170562744140625</LongitudeDegrees>
            </Position>
            <AltitudeMeters>653.4000244140625</AltitudeMeters>
            <DistanceMeters>3995.1902013127</DistanceMeters>
          </Trackpoint>
          <Trackpoint>
            <Time>2023-01-11T15:38:48.000Z</Time>
            <Position>
              <LatitudeDegrees>-49.2230165563523769378662109375</LatitudeDegrees>
              <LongitudeDegrees>-73.04839267395436763763427734375</LongitudeDegrees>
            </Position>
            <AltitudeMeters>653.20001220703125</AltitudeMeters>
            <DistanceMeters>4002.4452902571</DistanceMeters>
          </Trackpoint>
          <Trackpoint>
            <Time>2023-01-11T15:38:49.000Z</Time>
            <Position>
              <LatitudeDegrees>-49.22302586026489734649658203125</LatitudeDegrees>
              <LongitudeDegrees>-73.04839837364852428436279296875</LongitudeDegrees>
            </Position>
            <AltitudeMeters>653.20001220703125</AltitudeMeters>
            <DistanceMeters>4003.5656386965</DistanceMeters>
          </Trackpoint>
          <Trackpoint>
            <Time>2023-01-11T15:38:52.000Z</Time>
            <Position>
              <LatitudeDegrees>-49.22305402345955371856689453125</LatitudeDegrees>
              <LongitudeDegrees>-73.04843039251863956451416015625</LongitudeDegrees>
            </Position>
            <AltitudeMeters>653.20001220703125</AltitudeMeters>
            <DistanceMeters>4007.4698375948</DistanceMeters>
          </Trackpoint>
          <Trackpoint>
            <Time>2023-01-11T15:38:57.000Z</Time>
            <Position>
              <LatitudeDegrees>-49.22311839647591114044189453125</LatitudeDegrees>
              <LongitudeDegrees>-73.0484643392264842987060546875</LongitudeDegrees>
            </Position>
            <AltitudeMeters>653.20001220703125</AltitudeMeters>
            <DistanceMeters>4015.0475850245</DistanceMeters>
          </Trackpoint>
          <Trackpoint>
            <Time>2023-01-11T15:39:04.000Z</Time>
            <Position>
              <LatitudeDegrees>-49.22316491603851318359375</LatitudeDegrees>
              <LongitudeDegrees>-73.0485092662274837493896484375</LongitudeDegrees>
            </Position>
            <AltitudeMeters>653.20001220703125</AltitudeMeters>
            <DistanceMeters>4021.1685152778</DistanceMeters>
          </Trackpoint>
          <Trackpoint>
            <Time>2023-01-11T15:39:05.000Z</Time>
            <Position>
              <LatitudeDegrees>-49.22317631542682647705078125</LatitudeDegrees>
              <LongitudeDegrees>-73.0485163070261478424072265625</LongitudeDegrees>
            </Position>
            <AltitudeMeters>653.20001220703125</AltitudeMeters>
            <DistanceMeters>4022.5390100426</DistanceMeters>
          </Trackpoint>
          <Trackpoint>
            <Time>2023-01-11T15:39:06.000Z</Time>
            <Position>
              <LatitudeDegrees>-49.223189055919647216796875</LatitudeDegrees>
              <LongitudeDegrees>-73.04851454682648181915283203125</LongitudeDegrees>
            </Position>
            <AltitudeMeters>653.20001220703125</AltitudeMeters>
            <DistanceMeters>4023.9612396736</DistanceMeters>
          </Trackpoint>
          <Trackpoint>
            <Time>2023-01-11T15:39:08.000Z</Time>
            <Position>
              <LatitudeDegrees>-49.22320581972599029541015625</LatitudeDegrees>
              <LongitudeDegrees>-73.04852426983416080474853515625</LongitudeDegrees>
            </Position>
            <AltitudeMeters>653.20001220703125</AltitudeMeters>
            <DistanceMeters>4025.9545368505</DistanceMeters>
          </Trackpoint>
          <Trackpoint>
            <Time>2023-01-11T15:39:09.000Z</Time>
            <Position>
              <LatitudeDegrees>-49.22321428544819355010986328125</LatitudeDegrees>
              <LongitudeDegrees>-73.048535250127315521240234375</LongitudeDegrees>
            </Position>
            <AltitudeMeters>653.20001220703125</AltitudeMeters>
            <DistanceMeters>4027.1898841373</DistanceMeters>
          </Trackpoint>
          <Trackpoint>
            <Time>2023-01-11T15:39:12.000Z</Time>
            <Position>
              <LatitudeDegrees>-49.2232371680438518524169921875</LatitudeDegrees>
              <LongitudeDegrees>-73.0485642515122890472412109375</LongitudeDegrees>
            </Position>
            <AltitudeMeters>653.20001220703125</AltitudeMeters>
            <DistanceMeters>4030.495393553</DistanceMeters>
          </Trackpoint>
          <Trackpoint>
            <Time>2023-01-11T15:39:20.000Z</Time>
            <Position>
              <LatitudeDegrees>-49.22330631874501705169677734375</LatitudeDegrees>
              <LongitudeDegrees>-73.04861227981746196746826171875</LongitudeDegrees>
            </Position>
            <AltitudeMeters>653.20001220703125</AltitudeMeters>
            <DistanceMeters>4038.9468966543</DistanceMeters>
          </Trackpoint>
          <Trackpoint>
            <Time>2023-01-11T15:39:22.000Z</Time>
            <Position>
              <LatitudeDegrees>-49.22331403009593486785888671875</LatitudeDegrees>
              <LongitudeDegrees>-73.0486380122601985931396484375</LongitudeDegrees>
            </Position>
            <AltitudeMeters>653.20001220703125</AltitudeMeters>
            <DistanceMeters>4041.0026388015</DistanceMeters>
          </Trackpoint>
          <Trackpoint>
            <Time>2023-01-11T15:39:28.000Z</Time>
            <Position>
              <LatitudeDegrees>-49.223367758095264434814453125</LatitudeDegrees>
              <LongitudeDegrees>-73.04867782630026340484619140625</LongitudeDegrees>
            </Position>
            <AltitudeMeters>653.20001220703125</AltitudeMeters>
            <DistanceMeters>4047.6463586675</DistanceMeters>
          </Trackpoint>
          <Trackpoint>
            <Time>2023-01-11T15:39:34.000Z</Time>
            <Position>
              <LatitudeDegrees>-49.2234165407717227935791015625</LatitudeDegrees>
              <LongitudeDegrees>-73.04872442968189716339111328125</LongitudeDegrees>
            </Position>
            <AltitudeMeters>653.20001220703125</AltitudeMeters>
            <DistanceMeters>4054.0470974394</DistanceMeters>
          </Trackpoint>
          <Trackpoint>
            <Time>2023-01-11T15:39:37.000Z</Time>
            <Position>
              <LatitudeDegrees>-49.22344294376671314239501953125</LatitudeDegrees>
              <LongitudeDegrees>-73.0487541854381561279296875</LongitudeDegrees>
            </Position>
            <AltitudeMeters>653.20001220703125</AltitudeMeters>
            <DistanceMeters>4057.6954303023</DistanceMeters>
          </Trackpoint>
          <Trackpoint>
            <Time>2023-01-11T15:39:44.000Z</Time>
            <Position>
              <LatitudeDegrees>-49.223446212708950042724609375</LatitudeDegrees>
              <LongitudeDegrees>-73.04877958260476589202880859375</LongitudeDegrees>
            </Position>
            <AltitudeMeters>653.20001220703125</AltitudeMeters>
            <DistanceMeters>4059.5768632578</DistanceMeters>
          </Trackpoint>
          <Trackpoint>
            <Time>2023-01-11T15:39:55.000Z</Time>
            <Position>
              <LatitudeDegrees>-49.22344830818474292755126953125</LatitudeDegrees>
              <LongitudeDegrees>-73.048779666423797607421875</LongitudeDegrees>
            </Position>
            <AltitudeMeters>653.20001220703125</AltitudeMeters>
            <DistanceMeters>4059.80963022</DistanceMeters>
          </Trackpoint>
          <Trackpoint>
            <Time>2023-01-11T15:40:09.000Z</Time>
            <Position>
              <LatitudeDegrees>-49.223436154425144195556640625</LatitudeDegrees>
              <LongitudeDegrees>-73.04877975024282932281494140625</LongitudeDegrees>
            </Position>
            <AltitudeMeters>653.20001220703125</AltitudeMeters>
            <DistanceMeters>4061.1635524918</DistanceMeters>
          </Trackpoint>
          <Trackpoint>
            <Time>2023-01-11T15:40:30.000Z</Time>
            <Position>
              <LatitudeDegrees>-49.22344051301479339599609375</LatitudeDegrees>
              <LongitudeDegrees>-73.04880020208656787872314453125</LongitudeDegrees>
            </Position>
            <AltitudeMeters>653.20001220703125</AltitudeMeters>
            <DistanceMeters>4062.7250007426</DistanceMeters>
          </Trackpoint>
          <Trackpoint>
            <Time>2023-01-11T15:40:52.000Z</Time>
            <Position>
              <LatitudeDegrees>-49.22343858517706394195556640625</LatitudeDegrees>
              <LongitudeDegrees>-73.048790395259857177734375</LongitudeDegrees>
            </Position>
            <AltitudeMeters>653.20001220703125</AltitudeMeters>
            <DistanceMeters>4063.4732418398</DistanceMeters>
          </Trackpoint>
          <Trackpoint>
            <Time>2023-01-11T15:41:09.000Z</Time>
            <Position>
              <LatitudeDegrees>-49.22344344668090343475341796875</LatitudeDegrees>
              <LongitudeDegrees>-73.04877631366252899169921875</LongitudeDegrees>
            </Position>
            <AltitudeMeters>653.20001220703125</AltitudeMeters>
            <DistanceMeters>4064.6331907137</DistanceMeters>
          </Trackpoint>
          <Trackpoint>
            <Time>2023-01-11T15:41:10.000Z</Time>
            <Position>
              <LatitudeDegrees>-49.22344612888991832733154296875</LatitudeDegrees>
              <LongitudeDegrees>-73.04877631366252899169921875</LongitudeDegrees>
            </Position>
            <AltitudeMeters>653.20001220703125</AltitudeMeters>
            <DistanceMeters>4064.9336915697</DistanceMeters>
          </Trackpoint>
          <Trackpoint>
            <Time>2023-01-11T15:41:28.000Z</Time>
            <Position>
              <LatitudeDegrees>-49.22345786355435848236083984375</LatitudeDegrees>
              <LongitudeDegrees>-73.0488381721079349517822265625</LongitudeDegrees>
            </Position>
            <AltitudeMeters>653.20001220703125</AltitudeMeters>
            <DistanceMeters>4069.6161082113</DistanceMeters>
          </Trackpoint>
          <Trackpoint>
            <Time>2023-01-11T15:41:34.000Z</Time>
            <Position>
              <LatitudeDegrees>-49.22345266677439212799072265625</LatitudeDegrees>
              <LongitudeDegrees>-73.04884697310626506805419921875</LongitudeDegrees>
            </Position>
            <AltitudeMeters>653.20001220703125</AltitudeMeters>
            <DistanceMeters>4070.4818427808</DistanceMeters>
          </Trackpoint>
          <Trackpoint>
            <Time>2023-01-11T15:41:47.000Z</Time>
            <Position>
              <LatitudeDegrees>-49.2234507389366626739501953125</LatitudeDegrees>
              <LongitudeDegrees>-73.04885032586753368377685546875</LongitudeDegrees>
            </Position>
            <AltitudeMeters>653.20001220703125</AltitudeMeters>
            <DistanceMeters>4070.7970107374</DistanceMeters>
          </Trackpoint>
          <Trackpoint>
            <Time>2023-01-11T15:41:56.000Z</Time>
            <Position>
              <LatitudeDegrees>-49.223456941545009613037109375</LatitudeDegrees>
              <LongitudeDegrees>-73.0488388426601886749267578125</LongitudeDegrees>
            </Position>
            <AltitudeMeters>653.20001220703125</AltitudeMeters>
            <DistanceMeters>4071.880481982</DistanceMeters>
          </Trackpoint>
          <Trackpoint>
            <Time>2023-01-11T15:42:06.000Z</Time>
            <Position>
              <LatitudeDegrees>-49.22346389852464199066162109375</LatitudeDegrees>
              <LongitudeDegrees>-73.048824258148670196533203125</LongitudeDegrees>
            </Position>
            <AltitudeMeters>653.20001220703125</AltitudeMeters>
            <DistanceMeters>4073.1972107609</DistanceMeters>
          </Trackpoint>
          <Trackpoint>
            <Time>2023-01-11T15:42:08.000Z</Time>
            <Position>
              <LatitudeDegrees>-49.2234681732952594757080078125</LatitudeDegrees>
              <LongitudeDegrees>-73.0488240905106067657470703125</LongitudeDegrees>
            </Position>
            <AltitudeMeters>653.20001220703125</AltitudeMeters>
            <DistanceMeters>4073.6817538318</DistanceMeters>
          </Trackpoint>
          <Trackpoint>
            <Time>2023-01-11T15:42:10.000Z</Time>
            <Position>
              <LatitudeDegrees>-49.22347093932330608367919921875</LatitudeDegrees>
              <LongitudeDegrees>-73.04882400669157505035400390625</LongitudeDegrees>
            </Position>
            <AltitudeMeters>653.20001220703125</AltitudeMeters>
            <DistanceMeters>4073.9969217884</DistanceMeters>
          </Trackpoint>
          <Trackpoint>
            <Time>2023-01-11T15:42:16.000Z</Time>
            <Position>
              <LatitudeDegrees>-49.2234752140939235687255859375</LatitudeDegrees>
              <LongitudeDegrees>-73.04882685653865337371826171875</LongitudeDegrees>
            </Position>
            <AltitudeMeters>653.20001220703125</AltitudeMeters>
            <DistanceMeters>4074.5174045387</DistanceMeters>
          </Trackpoint>
          <Trackpoint>
            <Time>2023-01-11T15:42:18.000Z</Time>
            <Position>
              <LatitudeDegrees>-49.22347563318908214569091796875</LatitudeDegrees>
              <LongitudeDegrees>-73.0488277785480022430419921875</LongitudeDegrees>
            </Position>
            <AltitudeMeters>653.20001220703125</AltitudeMeters>
            <DistanceMeters>4074.6517926069</DistanceMeters>
          </Trackpoint>
          <Trackpoint>
            <Time>2023-01-11T15:42:30.000Z</Time>
            <Position>
              <LatitudeDegrees>-49.2234800755977630615234375</LatitudeDegrees>
              <LongitudeDegrees>-73.0488411895930767059326171875</LongitudeDegrees>
            </Position>
            <AltitudeMeters>653.20001220703125</AltitudeMeters>
            <DistanceMeters>4075.7476941385</DistanceMeters>
          </Trackpoint>
          <Trackpoint>
            <Time>2023-01-11T15:42:31.000Z</Time>
            <Position>
              <LatitudeDegrees>-49.22348074615001678466796875</LatitudeDegrees>
              <LongitudeDegrees>-73.04884278215467929840087890625</LongitudeDegrees>
            </Position>
            <AltitudeMeters>653.20001220703125</AltitudeMeters>
            <DistanceMeters>4075.8820822068</DistanceMeters>
          </Trackpoint>
          <Trackpoint>
            <Time>2023-01-11T15:42:50.000Z</Time>
            <Position>
              <LatitudeDegrees>-49.22349574975669384002685546875</LatitudeDegrees>
              <LongitudeDegrees>-73.0488579533994197845458984375</LongitudeDegrees>
            </Position>
            <AltitudeMeters>653.20001220703125</AltitudeMeters>
            <DistanceMeters>4077.8844193265</DistanceMeters>
          </Trackpoint>
          <Trackpoint>
            <Time>2023-01-11T15:42:58.000Z</Time>
            <Position>
              <LatitudeDegrees>-49.2235358990728855133056640625</LatitudeDegrees>
              <LongitudeDegrees>-73.0489231646060943603515625</LongitudeDegrees>
            </Position>
            <AltitudeMeters>653.20001220703125</AltitudeMeters>
            <DistanceMeters>4084.3991226419</DistanceMeters>
          </Trackpoint>
          <Trackpoint>
            <Time>2023-01-11T15:43:06.000Z</Time>
            <Position>
              <LatitudeDegrees>-49.223595075309276580810546875</LatitudeDegrees>
              <LongitudeDegrees>-73.04899298585951328277587890625</LongitudeDegrees>
            </Position>
            <AltitudeMeters>653.20001220703125</AltitudeMeters>
            <DistanceMeters>4092.7138243957</DistanceMeters>
          </Trackpoint>
          <Trackpoint>
            <Time>2023-01-11T15:43:12.000Z</Time>
            <Position>
              <LatitudeDegrees>-49.22363019548356533050537109375</LatitudeDegrees>
              <LongitudeDegrees>-73.04905232973396778106689453125</LongitudeDegrees>
            </Position>
            <AltitudeMeters>653.20001220703125</AltitudeMeters>
            <DistanceMeters>4098.5345500221</DistanceMeters>
          </Trackpoint>
          <Trackpoint>
            <Time>2023-01-11T15:43:17.000Z</Time>
            <Position>
              <LatitudeDegrees>-49.2236700095236301422119140625</LatitudeDegrees>
              <LongitudeDegrees>-73.0490695126354694366455078125</LongitudeDegrees>
            </Position>
            <AltitudeMeters>653.20001220703125</AltitudeMeters>
            <DistanceMeters>4103.139180245</DistanceMeters>
          </Trackpoint>
          <Trackpoint>
            <Time>2023-01-11T15:43:19.000Z</Time>
            <Position>
              <LatitudeDegrees>-49.2236951552331447601318359375</LatitudeDegrees>
              <LongitudeDegrees>-73.04907672107219696044921875</LongitudeDegrees>
            </Position>
            <AltitudeMeters>653.20001220703125</AltitudeMeters>
            <DistanceMeters>4105.9852263744</DistanceMeters>
          </Trackpoint>
          <Trackpoint>
            <Time>2023-01-11T15:43:26.000Z</Time>
            <Position>
              <LatitudeDegrees>-49.22374720685184001922607421875</LatitudeDegrees>
              <LongitudeDegrees>-73.04912055842578411102294921875</LongitudeDegrees>
            </Position>
            <AltitudeMeters>653.20001220703125</AltitudeMeters>
            <DistanceMeters>4112.596928127</DistanceMeters>
          </Trackpoint>
          <Trackpoint>
            <Time>2023-01-11T15:43:28.000Z</Time>
            <Position>
              <LatitudeDegrees>-49.22375944443047046661376953125</LatitudeDegrees>
              <LongitudeDegrees>-73.0491187982261180877685546875</LongitudeDegrees>
            </Position>
            <AltitudeMeters>653.20001220703125</AltitudeMeters>
            <DistanceMeters>4113.9674228918</DistanceMeters>
          </Trackpoint>
          <Trackpoint>
            <Time>2023-01-11T15:43:37.000Z</Time>
            <Position>
              <LatitudeDegrees>-49.22383320517838001251220703125</LatitudeDegrees>
              <LongitudeDegrees>-73.04921125061810016632080078125</LongitudeDegrees>
            </Position>
            <AltitudeMeters>653.20001220703125</AltitudeMeters>
            <DistanceMeters>4124.5772736424</DistanceMeters>
          </Trackpoint>
          <Trackpoint>
            <Time>2023-01-11T15:43:38.000Z</Time>
            <Position>
              <LatitudeDegrees>-49.223838150501251220703125</LatitudeDegrees>
              <LongitudeDegrees>-73.04922415874898433685302734375</LongitudeDegrees>
            </Position>
            <AltitudeMeters>653.20001220703125</AltitudeMeters>
            <DistanceMeters>4125.6649041008</DistanceMeters>
          </Trackpoint>
          <Trackpoint>
            <Time>2023-01-11T15:43:45.000Z</Time>
            <Position>
              <LatitudeDegrees>-49.22387746162712574005126953125</LatitudeDegrees>
              <LongitudeDegrees>-73.0492669902741909027099609375</LongitudeDegrees>
            </Position>
            <AltitudeMeters>653.20001220703125</AltitudeMeters>
            <DistanceMeters>4131.034544134</DistanceMeters>
          </Trackpoint>
          <Trackpoint>
            <Time>2023-01-11T15:43:51.000Z</Time>
            <Position>
              <LatitudeDegrees>-49.22391233034431934356689453125</LatitudeDegrees>
              <LongitudeDegrees>-73.0492341332137584686279296875</LongitudeDegrees>
            </Position>
            <AltitudeMeters>653.20001220703125</AltitudeMeters>
            <DistanceMeters>4135.5908744276</DistanceMeters>
          </Trackpoint>
          <Trackpoint>
            <Time>2023-01-11T15:43:54.000Z</Time>
            <Position>
              <LatitudeDegrees>-49.22393093816936016082763671875</LatitudeDegrees>
              <LongitudeDegrees>-73.04923840798437595367431640625</LongitudeDegrees>
            </Position>
            <AltitudeMeters>653.20001220703125</AltitudeMeters>
            <DistanceMeters>4137.6857770869</DistanceMeters>
          </Trackpoint>
          <Trackpoint>
            <Time>2023-01-11T15:43:55.000Z</Time>
            <Position>
              <LatitudeDegrees>-49.22393613494932651519775390625</LatitudeDegrees>
              <LongitudeDegrees>-73.049244694411754608154296875</LongitudeDegrees>
            </Position>
            <AltitudeMeters>653.20001220703125</AltitudeMeters>
            <DistanceMeters>4138.4218508513</DistanceMeters>
          </Trackpoint>
          <Trackpoint>
            <Time>2023-01-11T15:44:00.000Z</Time>
            <Position>
              <LatitudeDegrees>-49.22393940389156341552734375</LatitudeDegrees>
              <LongitudeDegrees>-73.04927051067352294921875</LongitudeDegrees>
            </Position>
            <AltitudeMeters>653.20001220703125</AltitudeMeters>
            <DistanceMeters>4140.3318641715</DistanceMeters>
          </Trackpoint>
          <Trackpoint>
            <Time>2023-01-11T15:44:01.000Z</Time>
            <Position>
              <LatitudeDegrees>-49.2239432595670223236083984375</LatitudeDegrees>
              <LongitudeDegrees>-73.04927520453929901123046875</LongitudeDegrees>
            </Position>
            <AltitudeMeters>653.20001220703125</AltitudeMeters>
            <DistanceMeters>4140.8859603717</DistanceMeters>
          </Trackpoint>
          <Trackpoint>
            <Time>2023-01-11T15:44:05.000Z</Time>
            <Position>
              <LatitudeDegrees>-49.22396614216268062591552734375</LatitudeDegrees>
              <LongitudeDegrees>-73.04929138161242008209228515625</LongitudeDegrees>
            </Position>
            <AltitudeMeters>653.20001220703125</AltitudeMeters>
            <DistanceMeters>4143.6888457611</DistanceMeters>
          </Trackpoint>
          <Trackpoint>
            <Time>2023-01-11T15:44:11.000Z</Time>
            <Position>
              <LatitudeDegrees>-49.224008135497570037841796875</LatitudeDegrees>
              <LongitudeDegrees>-73.04931619204580783843994140625</LongitudeDegrees>
            </Position>
            <AltitudeMeters>653.20001220703125</AltitudeMeters>
            <DistanceMeters>4148.6982950759</DistanceMeters>
          </Trackpoint>
          <Trackpoint>
            <Time>2023-01-11T15:44:18.000Z</Time>
            <Position>
              <LatitudeDegrees>-49.22406303696334362030029296875</LatitudeDegrees>
              <LongitudeDegrees>-73.04937788285315036773681640625</LongitudeDegrees>
            </Position>
            <AltitudeMeters>653.20001220703125</AltitudeMeters>
            <DistanceMeters>4156.2778297804</DistanceMeters>
          </Trackpoint>
          <Trackpoint>
            <Time>2023-01-11T15:44:19.000Z</Time>
            <Position>
              <LatitudeDegrees>-49.22407141886651515960693359375</LatitudeDegrees>
              <LongitudeDegrees>-73.04938257671892642974853515625</LongitudeDegrees>
            </Position>
            <AltitudeMeters>653.20001220703125</AltitudeMeters>
            <DistanceMeters>4157.2744783688</DistanceMeters>
          </Trackpoint>
          <Trackpoint>
            <Time>2023-01-11T15:44:27.000Z</Time>
            <Position>
              <LatitudeDegrees>-49.22412087209522724151611328125</LatitudeDegrees>
              <LongitudeDegrees>-73.049404956400394439697265625</LongitudeDegrees>
            </Position>
            <AltitudeMeters>653.20001220703125</AltitudeMeters>
            <DistanceMeters>4163.0139660522</DistanceMeters>
          </Trackpoint>
          <Trackpoint>
            <Time>2023-01-11T15:44:32.000Z</Time>
            <Position>
              <LatitudeDegrees>-49.22413118183612823486328125</LatitudeDegrees>
              <LongitudeDegrees>-73.04941493086516857147216796875</LongitudeDegrees>
            </Position>
            <AltitudeMeters>653.20001220703125</AltitudeMeters>
            <DistanceMeters>4164.367888324</DistanceMeters>
          </Trackpoint>
          <Trackpoint>
            <Time>2023-01-11T15:44:39.000Z</Time>
            <Position>
              <LatitudeDegrees>-49.22412849962711334228515625</LatitudeDegrees>
              <LongitudeDegrees>-73.04942398332059383392333984375</LongitudeDegrees>
            </Position>
            <AltitudeMeters>653.20001220703125</AltitudeMeters>
            <DistanceMeters>4165.0853242844</DistanceMeters>
          </Trackpoint>
          <Trackpoint>
            <Time>2023-01-11T15:44:46.000Z</Time>
            <Position>
              <LatitudeDegrees>-49.22413763590157032012939453125</LatitudeDegrees>
              <LongitudeDegrees>-73.04942264221608638763427734375</LongitudeDegrees>
            </Position>
            <AltitudeMeters>653.20001220703125</AltitudeMeters>
            <DistanceMeters>4166.0999319498</DistanceMeters>
          </Trackpoint>
          <Trackpoint>
            <Time>2023-01-11T15:44:50.000Z</Time>
            <Position>
              <LatitudeDegrees>-49.2241521365940570831298828125</LatitudeDegrees>
              <LongitudeDegrees>-73.04944259114563465118408203125</LongitudeDegrees>
            </Position>
            <AltitudeMeters>659</AltitudeMeters>
            <DistanceMeters>4168.2710376367</DistanceMeters>
          </Trackpoint>
          <Trackpoint>
            <Time>2023-01-11T15:44:52.000Z</Time>
            <Position>
              <LatitudeDegrees>-49.2241595126688480377197265625</LatitudeDegrees>
              <LongitudeDegrees>-73.04943538270890712738037109375</LongitudeDegrees>
            </Position>
            <AltitudeMeters>659</AltitudeMeters>
            <DistanceMeters>4169.2447717003</DistanceMeters>
          </Trackpoint>
          <Trackpoint>
            <Time>2023-01-11T15:44:54.000Z</Time>
            <Position>
              <LatitudeDegrees>-49.224179796874523162841796875</LatitudeDegrees>
              <LongitudeDegrees>-73.04944560863077640533447265625</LongitudeDegrees>
            </Position>
            <AltitudeMeters>658.20001220703125</AltitudeMeters>
            <DistanceMeters>4171.6204395596</DistanceMeters>
          </Trackpoint>
          <Trackpoint>
            <Time>2023-01-11T15:44:58.000Z</Time>
            <Position>
              <LatitudeDegrees>-49.22419027425348758697509765625</LatitudeDegrees>
              <LongitudeDegrees>-73.04947829805314540863037109375</LongitudeDegrees>
            </Position>
            <AltitudeMeters>658.20001220703125</AltitudeMeters>
            <DistanceMeters>4174.2675775085</DistanceMeters>
          </Trackpoint>
          <Trackpoint>
            <Time>2023-01-11T15:45:02.000Z</Time>
            <Position>
              <LatitudeDegrees>-49.22420619986951351165771484375</LatitudeDegrees>
              <LongitudeDegrees>-73.049514256417751312255859375</LongitudeDegrees>
            </Position>
            <AltitudeMeters>658.5999755859375</AltitudeMeters>
            <DistanceMeters>4177.4278408752</DistanceMeters>
          </Trackpoint>
          <Trackpoint>
            <Time>2023-01-11T15:45:14.000Z</Time>
            <Position>
              <LatitudeDegrees>-49.2242339439690113067626953125</LatitudeDegrees>
              <LongitudeDegrees>-73.0496176891028881072998046875</LongitudeDegrees>
            </Position>
            <AltitudeMeters>659</AltitudeMeters>
            <DistanceMeters>4185.5558196685</DistanceMeters>
          </Trackpoint>
          <Trackpoint>
            <Time>2023-01-11T15:45:23.000Z</Time>
            <Position>
              <LatitudeDegrees>-49.22425179742276668548583984375</LatitudeDegrees>
              <LongitudeDegrees>-73.049702681601047515869140625</LongitudeDegrees>
            </Position>
            <AltitudeMeters>659.5999755859375</AltitudeMeters>
            <DistanceMeters>4192.0455250959</DistanceMeters>
          </Trackpoint>
          <Trackpoint>
            <Time>2023-01-11T15:45:33.000Z</Time>
            <Position>
              <LatitudeDegrees>-49.2243234626948833465576171875</LatitudeDegrees>
              <LongitudeDegrees>-73.049779795110225677490234375</LongitudeDegrees>
            </Position>
            <AltitudeMeters>659.79998779296875</AltitudeMeters>
            <DistanceMeters>4201.7949140331</DistanceMeters>
          </Trackpoint>
          <Trackpoint>
            <Time>2023-01-11T15:45:35.000Z</Time>
            <Position>
              <LatitudeDegrees>-49.22432639636099338531494140625</LatitudeDegrees>
              <LongitudeDegrees>-73.04978809319436550140380859375</LongitudeDegrees>
            </Position>
            <AltitudeMeters>660</AltitudeMeters>
            <DistanceMeters>4202.4801614155</DistanceMeters>
          </Trackpoint>
          <Trackpoint>
            <Time>2023-01-11T15:45:42.000Z</Time>
            <Position>
              <LatitudeDegrees>-49.22434936277568340301513671875</LatitudeDegrees>
              <LongitudeDegrees>-73.04984358139336109161376953125</LongitudeDegrees>
            </Position>
            <AltitudeMeters>660.5999755859375</AltitudeMeters>
            <DistanceMeters>4207.2542490712</DistanceMeters>
          </Trackpoint>
          <Trackpoint>
            <Time>2023-01-11T15:45:43.000Z</Time>
            <Position>
              <LatitudeDegrees>-49.224352128803730010986328125</LatitudeDegrees>
              <LongitudeDegrees>-73.04985363967716693878173828125</LongitudeDegrees>
            </Position>
            <AltitudeMeters>660.5999755859375</AltitudeMeters>
            <DistanceMeters>4208.0492996049</DistanceMeters>
          </Trackpoint>
          <Trackpoint>
            <Time>2023-01-11T15:45:47.000Z</Time>
            <Position>
              <LatitudeDegrees>-49.224360845983028411865234375</LatitudeDegrees>
              <LongitudeDegrees>-73.0498929508030414581298828125</LongitudeDegrees>
            </Position>
            <AltitudeMeters>660.5999755859375</AltitudeMeters>
            <DistanceMeters>4211.0663042545</DistanceMeters>
          </Trackpoint>
          <Trackpoint>
            <Time>2023-01-11T15:45:51.000Z</Time>
            <Position>
              <LatitudeDegrees>-49.22437953762710094451904296875</LatitudeDegrees>
              <LongitudeDegrees>-73.049917928874492645263671875</LongitudeDegrees>
            </Position>
            <AltitudeMeters>660.5999755859375</AltitudeMeters>
            <DistanceMeters>4213.8269897705</DistanceMeters>
          </Trackpoint>
          <Trackpoint>
            <Time>2023-01-11T15:45:54.000Z</Time>
            <Position>
              <LatitudeDegrees>-49.22440074384212493896484375</LatitudeDegrees>
              <LongitudeDegrees>-73.04992740042507648468017578125</LongitudeDegrees>
            </Position>
            <AltitudeMeters>661.20001220703125</AltitudeMeters>
            <DistanceMeters>4216.2848589983</DistanceMeters>
          </Trackpoint>
          <Trackpoint>
            <Time>2023-01-11T15:46:00.000Z</Time>
            <Position>
              <LatitudeDegrees>-49.2244408093392848968505859375</LatitudeDegrees>
              <LongitudeDegrees>-73.04997601546347141265869140625</LongitudeDegrees>
            </Position>
            <AltitudeMeters>662</AltitudeMeters>
            <DistanceMeters>4221.9745711221</DistanceMeters>
          </Trackpoint>
          <Trackpoint>
            <Time>2023-01-11T15:46:01.000Z</Time>
            <Position>
              <LatitudeDegrees>-49.2244448326528072357177734375</LatitudeDegrees>
              <LongitudeDegrees>-73.04998406209051609039306640625</LongitudeDegrees>
            </Position>
            <AltitudeMeters>662.20001220703125</AltitudeMeters>
            <DistanceMeters>4222.7106448865</DistanceMeters>
          </Trackpoint>
          <Trackpoint>
            <Time>2023-01-11T15:46:09.000Z</Time>
            <Position>
              <LatitudeDegrees>-49.2244954593479633331298828125</LatitudeDegrees>
              <LongitudeDegrees>-73.0500739999115467071533203125</LongitudeDegrees>
            </Position>
            <AltitudeMeters>662</AltitudeMeters>
            <DistanceMeters>4231.3418748489</DistanceMeters>
          </Trackpoint>
          <Trackpoint>
            <Time>2023-01-11T15:46:10.000Z</Time>
            <Position>
              <LatitudeDegrees>-49.2245061881840229034423828125</LatitudeDegrees>
              <LongitudeDegrees>-73.05008296854794025421142578125</LongitudeDegrees>
            </Position>
            <AltitudeMeters>662</AltitudeMeters>
            <DistanceMeters>4232.7024503414</DistanceMeters>
          </Trackpoint>
          <Trackpoint>
            <Time>2023-01-11T15:46:17.000Z</Time>
            <Position>
              <LatitudeDegrees>-49.224531166255474090576171875</LatitudeDegrees>
              <LongitudeDegrees>-73.05016569793224334716796875</LongitudeDegrees>
            </Position>
            <AltitudeMeters>662</AltitudeMeters>
            <DistanceMeters>4239.327114221</DistanceMeters>
          </Trackpoint>
          <Trackpoint>
            <Time>2023-01-11T15:46:19.000Z</Time>
            <Position>
              <LatitudeDegrees>-49.224541895091533660888671875</LatitudeDegrees>
              <LongitudeDegrees>-73.0501910112798213958740234375</LongitudeDegrees>
            </Position>
            <AltitudeMeters>662.20001220703125</AltitudeMeters>
            <DistanceMeters>4241.52303335</DistanceMeters>
          </Trackpoint>
          <Trackpoint>
            <Time>2023-01-11T15:46:27.000Z</Time>
            <Position>
              <LatitudeDegrees>-49.22456796281039714813232421875</LatitudeDegrees>
              <LongitudeDegrees>-73.05027508176863193511962890625</LongitudeDegrees>
            </Position>
            <AltitudeMeters>663.20001220703125</AltitudeMeters>
            <DistanceMeters>4248.2879744006</DistanceMeters>
          </Trackpoint>
          <Trackpoint>
            <Time>2023-01-11T15:46:29.000Z</Time>
            <Position>
              <LatitudeDegrees>-49.2245645262300968170166015625</LatitudeDegrees>
              <LongitudeDegrees>-73.05027659051120281219482421875</LongitudeDegrees>
            </Position>
            <AltitudeMeters>663.4000244140625</AltitudeMeters>
            <DistanceMeters>4248.6911386054</DistanceMeters>
          </Trackpoint>
          <Trackpoint>
            <Time>2023-01-11T15:46:37.000Z</Time>
            <Position>
              <LatitudeDegrees>-49.22458036802709102630615234375</LatitudeDegrees>
              <LongitudeDegrees>-73.05031280033290386199951171875</LongitudeDegrees>
            </Position>
            <AltitudeMeters>663.79998779296875</AltitudeMeters>
            <DistanceMeters>4251.8599625206</DistanceMeters>
          </Trackpoint>
          <Trackpoint>
            <Time>2023-01-11T15:46:43.000Z</Time>
            <Position>
              <LatitudeDegrees>-49.22460182569921016693115234375</LatitudeDegrees>
              <LongitudeDegrees>-73.05037717334926128387451171875</LongitudeDegrees>
            </Position>
            <AltitudeMeters>663.79998779296875</AltitudeMeters>
            <DistanceMeters>4257.1131438056</DistanceMeters>
          </Trackpoint>
          <Trackpoint>
            <Time>2023-01-11T15:46:48.000Z</Time>
            <Position>
              <LatitudeDegrees>-49.22462739050388336181640625</LatitudeDegrees>
              <LongitudeDegrees>-73.05042193271219730377197265625</LongitudeDegrees>
            </Position>
            <AltitudeMeters>664.4000244140625</AltitudeMeters>
            <DistanceMeters>4261.4355538003</DistanceMeters>
          </Trackpoint>
          <Trackpoint>
            <Time>2023-01-11T15:46:52.000Z</Time>
            <Position>
              <LatitudeDegrees>-49.22464641742408275604248046875</LatitudeDegrees>
              <LongitudeDegrees>-73.0504575558006763458251953125</LongitudeDegrees>
            </Position>
            <AltitudeMeters>665.5999755859375</AltitudeMeters>
            <DistanceMeters>4264.7804401532</DistanceMeters>
          </Trackpoint>
          <Trackpoint>
            <Time>2023-01-11T15:46:55.000Z</Time>
            <Position>
              <LatitudeDegrees>-49.224661923944950103759765625</LatitudeDegrees>
              <LongitudeDegrees>-73.0504662729799747467041015625</LongitudeDegrees>
            </Position>
            <AltitudeMeters>665.5999755859375</AltitudeMeters>
            <DistanceMeters>4266.6181693471</DistanceMeters>
          </Trackpoint>
          <Trackpoint>
            <Time>2023-01-11T15:47:02.000Z</Time>
            <Position>
              <LatitudeDegrees>-49.22468430362641811370849609375</LatitudeDegrees>
              <LongitudeDegrees>-73.05045596323907375335693359375</LongitudeDegrees>
            </Position>
            <AltitudeMeters>666.5999755859375</AltitudeMeters>
            <DistanceMeters>4269.2205830984</DistanceMeters>
          </Trackpoint>
          <Trackpoint>
            <Time>2023-01-11T15:47:03.000Z</Time>
            <Position>
              <LatitudeDegrees>-49.224686734378337860107421875</LatitudeDegrees>
              <LongitudeDegrees>-73.0504521913826465606689453125</LongitudeDegrees>
            </Position>
            <AltitudeMeters>666.79998779296875</AltitudeMeters>
            <DistanceMeters>4269.6006899559</DistanceMeters>
          </Trackpoint>
          <Trackpoint>
            <Time>2023-01-11T15:47:10.000Z</Time>
            <Position>
              <LatitudeDegrees>-49.22468774020671844482421875</LatitudeDegrees>
              <LongitudeDegrees>-73.05046736262738704681396484375</LongitudeDegrees>
            </Position>
            <AltitudeMeters>667</AltitudeMeters>
            <DistanceMeters>4270.7088823563</DistanceMeters>
          </Trackpoint>
          <Trackpoint>
            <Time>2023-01-11T15:47:16.000Z</Time>
            <Position>
              <LatitudeDegrees>-49.224723614752292633056640625</LatitudeDegrees>
              <LongitudeDegrees>-73.0504377745091915130615234375</LongitudeDegrees>
            </Position>
            <AltitudeMeters>666.20001220703125</AltitudeMeters>
            <DistanceMeters>4275.2443552246</DistanceMeters>
          </Trackpoint>
          <Trackpoint>
            <Time>2023-01-11T15:47:23.000Z</Time>
            <Position>
              <LatitudeDegrees>-49.22473928891122341156005859375</LatitudeDegrees>
              <LongitudeDegrees>-73.05041958577930927276611328125</LongitudeDegrees>
            </Position>
            <AltitudeMeters>667.5999755859375</AltitudeMeters>
            <DistanceMeters>4277.4340973537</DistanceMeters>
          </Trackpoint>
          <Trackpoint>
            <Time>2023-01-11T15:47:25.000Z</Time>
            <Position>
              <LatitudeDegrees>-49.224750436842441558837890625</LatitudeDegrees>
              <LongitudeDegrees>-73.05040986277163028717041015625</LongitudeDegrees>
            </Position>
            <AltitudeMeters>667.79998779296875</AltitudeMeters>
            <DistanceMeters>4278.8626621147</DistanceMeters>
          </Trackpoint>
          <Trackpoint>
            <Time>2023-01-11T15:47:30.000Z</Time>
            <Position>
              <LatitudeDegrees>-49.2247905023396015167236328125</LatitudeDegrees>
              <LongitudeDegrees>-73.0504032410681247711181640625</LongitudeDegrees>
            </Position>
            <AltitudeMeters>667.79998779296875</AltitudeMeters>
            <DistanceMeters>4283.3480840923</DistanceMeters>
          </Trackpoint>
          <Trackpoint>
            <Time>2023-01-11T15:47:39.000Z</Time>
            <Position>
              <LatitudeDegrees>-49.22485361807048320770263671875</LatitudeDegrees>
              <LongitudeDegrees>-73.05040533654391765594482421875</LongitudeDegrees>
            </Position>
            <AltitudeMeters>668.5999755859375</AltitudeMeters>
            <DistanceMeters>4290.3742799278</DistanceMeters>
          </Trackpoint>
          <Trackpoint>
            <Time>2023-01-11T15:47:44.000Z</Time>
            <Position>
              <LatitudeDegrees>-49.22487893141806125640869140625</LatitudeDegrees>
              <LongitudeDegrees>-73.05046870373189449310302734375</LongitudeDegrees>
            </Position>
            <AltitudeMeters>669</AltitudeMeters>
            <DistanceMeters>4295.7732693482</DistanceMeters>
          </Trackpoint>
          <Trackpoint>
            <Time>2023-01-11T15:47:47.000Z</Time>
            <Position>
              <LatitudeDegrees>-49.22488463111221790313720703125</LatitudeDegrees>
              <LongitudeDegrees>-73.05046920664608478546142578125</LongitudeDegrees>
            </Position>
            <AltitudeMeters>669.5999755859375</AltitudeMeters>
            <DistanceMeters>4296.4036052614</DistanceMeters>
          </Trackpoint>
          <Trackpoint>
            <Time>2023-01-11T15:47:50.000Z</Time>
            <Position>
              <LatitudeDegrees>-49.2249044962227344512939453125</LatitudeDegrees>
              <LongitudeDegrees>-73.0505024828016757965087890625</LongitudeDegrees>
            </Position>
            <AltitudeMeters>670</AltitudeMeters>
            <DistanceMeters>4299.6816825894</DistanceMeters>
          </Trackpoint>
          <Trackpoint>
            <Time>2023-01-11T15:47:51.000Z</Time>
            <Position>
              <LatitudeDegrees>-49.224911369383335113525390625</LatitudeDegrees>
              <LongitudeDegrees>-73.05051715113222599029541015625</LongitudeDegrees>
            </Position>
            <AltitudeMeters>671.20001220703125</AltitudeMeters>
            <DistanceMeters>4300.991535453</DistanceMeters>
          </Trackpoint>
          <Trackpoint>
            <Time>2023-01-11T15:47:52.000Z</Time>
            <Position>
              <LatitudeDegrees>-49.22492234967648983001708984375</LatitudeDegrees>
              <LongitudeDegrees>-73.05052989162504673004150390625</LongitudeDegrees>
            </Position>
            <AltitudeMeters>671.4000244140625</AltitudeMeters>
            <DistanceMeters>4302.5208456894</DistanceMeters>
          </Trackpoint>
          <Trackpoint>
            <Time>2023-01-11T15:47:55.000Z</Time>
            <Position>
              <LatitudeDegrees>-49.22492620535194873809814453125</LatitudeDegrees>
              <LongitudeDegrees>-73.05057205259799957275390625</LongitudeDegrees>
            </Position>
            <AltitudeMeters>671.5999755859375</AltitudeMeters>
            <DistanceMeters>4305.6146913595</DistanceMeters>
          </Trackpoint>
          <Trackpoint>
            <Time>2023-01-11T15:48:03.000Z</Time>
            <Position>
              <LatitudeDegrees>-49.22495000995695590972900390625</LatitudeDegrees>
              <LongitudeDegrees>-73.050624690949916839599609375</LongitudeDegrees>
            </Position>
            <AltitudeMeters>672.20001220703125</AltitudeMeters>
            <DistanceMeters>4310.2680904733</DistanceMeters>
          </Trackpoint>
          <Trackpoint>
            <Time>2023-01-11T15:48:04.000Z</Time>
            <Position>
              <LatitudeDegrees>-49.22494590282440185546875</LatitudeDegrees>
              <LongitudeDegrees>-73.050625026226043701171875</LongitudeDegrees>
            </Position>
            <AltitudeMeters>672.20001220703125</AltitudeMeters>
            <DistanceMeters>4310.713805272</DistanceMeters>
          </Trackpoint>
          <Trackpoint>
            <Time>2023-01-11T15:48:06.000Z</Time>
            <Position>
              <LatitudeDegrees>-49.22491916455328464508056640625</LatitudeDegrees>
              <LongitudeDegrees>-73.0506117828190326690673828125</LongitudeDegrees>
            </Position>
            <AltitudeMeters>672.20001220703125</AltitudeMeters>
            <DistanceMeters>4313.8424795704</DistanceMeters>
          </Trackpoint>
          <Trackpoint>
            <Time>2023-01-11T15:48:08.000Z</Time>
            <Position>
              <LatitudeDegrees>-49.224909357726573944091796875</LatitudeDegrees>
              <LongitudeDegrees>-73.05061630904674530029296875</LongitudeDegrees>
            </Position>
            <AltitudeMeters>672.20001220703125</AltitudeMeters>
            <DistanceMeters>4314.9828001428</DistanceMeters>
          </Trackpoint>
          <Trackpoint>
            <Time>2023-01-11T15:48:16.000Z</Time>
            <Position>
              <LatitudeDegrees>-49.224963001906871795654296875</LatitudeDegrees>
              <LongitudeDegrees>-73.05062837898731231689453125</LongitudeDegrees>
            </Position>
            <AltitudeMeters>672.79998779296875</AltitudeMeters>
            <DistanceMeters>4321.0175576606</DistanceMeters>
          </Trackpoint>
          <Trackpoint>
            <Time>2023-01-11T15:48:19.000Z</Time>
            <Position>
              <LatitudeDegrees>-49.2249869741499423980712890625</LatitudeDegrees>
              <LongitudeDegrees>-73.0506174825131893157958984375</LongitudeDegrees>
            </Position>
            <AltitudeMeters>673.4000244140625</AltitudeMeters>
            <DistanceMeters>4323.8010456863</DistanceMeters>
          </Trackpoint>
          <Trackpoint>
            <Time>2023-01-11T15:48:24.000Z</Time>
            <Position>
              <LatitudeDegrees>-49.22503198496997356414794921875</LatitudeDegrees>
              <LongitudeDegrees>-73.050628043711185455322265625</LongitudeDegrees>
            </Position>
            <AltitudeMeters>674.4000244140625</AltitudeMeters>
            <DistanceMeters>4328.869632026</DistanceMeters>
          </Trackpoint>
          <Trackpoint>
            <Time>2023-01-11T15:48:25.000Z</Time>
            <Position>
              <LatitudeDegrees>-49.2250402830541133880615234375</LatitudeDegrees>
              <LongitudeDegrees>-73.05063030682504177093505859375</LongitudeDegrees>
            </Position>
            <AltitudeMeters>674.4000244140625</AltitudeMeters>
            <DistanceMeters>4329.8103485037</DistanceMeters>
          </Trackpoint>
          <Trackpoint>
            <Time>2023-01-11T15:48:32.000Z</Time>
            <Position>
              <LatitudeDegrees>-49.22507942654192447662353515625</LatitudeDegrees>
              <LongitudeDegrees>-73.050605915486812591552734375</LongitudeDegrees>
            </Position>
            <AltitudeMeters>675.4000244140625</AltitudeMeters>
            <DistanceMeters>4334.5139308925</DistanceMeters>
          </Trackpoint>
          <Trackpoint>
            <Time>2023-01-11T15:48:33.000Z</Time>
            <Position>
              <LatitudeDegrees>-49.2250838689506053924560546875</LatitudeDegrees>
              <LongitudeDegrees>-73.05061186663806438446044921875</LongitudeDegrees>
            </Position>
            <AltitudeMeters>675.5999755859375</AltitudeMeters>
            <DistanceMeters>4335.1722952819</DistanceMeters>
          </Trackpoint>
          <Trackpoint>
            <Time>2023-01-11T15:48:38.000Z</Time>
            <Position>
              <LatitudeDegrees>-49.2251002974808216094970703125</LatitudeDegrees>
              <LongitudeDegrees>-73.05064908228814601898193359375</LongitudeDegrees>
            </Position>
            <AltitudeMeters>676.5999755859375</AltitudeMeters>
            <DistanceMeters>4338.4379529921</DistanceMeters>
          </Trackpoint>
          <Trackpoint>
            <Time>2023-01-11T15:48:40.000Z</Time>
            <Position>
              <LatitudeDegrees>-49.22510658390820026397705078125</LatitudeDegrees>
              <LongitudeDegrees>-73.050671629607677459716796875</LongitudeDegrees>
            </Position>
            <AltitudeMeters>676.79998779296875</AltitudeMeters>
            <DistanceMeters>4340.2208121869</DistanceMeters>
          </Trackpoint>
          <Trackpoint>
            <Time>2023-01-11T15:48:43.000Z</Time>
            <Position>
              <LatitudeDegrees>-49.22511957585811614990234375</LatitudeDegrees>
              <LongitudeDegrees>-73.05069635622203350067138671875</LongitudeDegrees>
            </Position>
            <AltitudeMeters>677.5999755859375</AltitudeMeters>
            <DistanceMeters>4342.5290030589</DistanceMeters>
          </Trackpoint>
          <Trackpoint>
            <Time>2023-01-11T15:48:47.000Z</Time>
            <Position>
              <LatitudeDegrees>-49.2251298017799854278564453125</LatitudeDegrees>
              <LongitudeDegrees>-73.05070389993488788604736328125</LongitudeDegrees>
            </Position>
            <AltitudeMeters>679</AltitudeMeters>
            <DistanceMeters>4343.7968175592</DistanceMeters>
          </Trackpoint>
          <Trackpoint>
            <Time>2023-01-11T15:48:50.000Z</Time>
            <Position>
              <LatitudeDegrees>-49.225138686597347259521484375</LatitudeDegrees>
              <LongitudeDegrees>-73.050693087279796600341796875</LongitudeDegrees>
            </Position>
            <AltitudeMeters>680.4000244140625</AltitudeMeters>
            <DistanceMeters>4345.0646320594</DistanceMeters>
          </Trackpoint>
          <Trackpoint>
            <Time>2023-01-11T15:48:51.000Z</Time>
            <Position>
              <LatitudeDegrees>-49.22514078207314014434814453125</LatitudeDegrees>
              <LongitudeDegrees>-73.0507009662687778472900390625</LongitudeDegrees>
            </Position>
            <AltitudeMeters>680</AltitudeMeters>
            <DistanceMeters>4345.6877638971</DistanceMeters>
          </Trackpoint>
          <Trackpoint>
            <Time>2023-01-11T15:49:00.000Z</Time>
            <Position>
              <LatitudeDegrees>-49.22518403269350528717041015625</LatitudeDegrees>
              <LongitudeDegrees>-73.0507497489452362060546875</LongitudeDegrees>
            </Position>
            <AltitudeMeters>681.5999755859375</AltitudeMeters>
            <DistanceMeters>4351.6661451634</DistanceMeters>
          </Trackpoint>
          <Trackpoint>
            <Time>2023-01-11T15:49:01.000Z</Time>
            <Position>
              <LatitudeDegrees>-49.22518906183540821075439453125</LatitudeDegrees>
              <LongitudeDegrees>-73.05075402371585369110107421875</LongitudeDegrees>
            </Position>
            <AltitudeMeters>681.79998779296875</AltitudeMeters>
            <DistanceMeters>4352.2964810766</DistanceMeters>
          </Trackpoint>
          <Trackpoint>
            <Time>2023-01-11T15:49:10.000Z</Time>
            <Position>
              <LatitudeDegrees>-49.225223846733570098876953125</LatitudeDegrees>
              <LongitudeDegrees>-73.05080414749681949615478515625</LongitudeDegrees>
            </Position>
            <AltitudeMeters>683</AltitudeMeters>
            <DistanceMeters>4357.6128839272</DistanceMeters>
          </Trackpoint>
          <Trackpoint>
            <Time>2023-01-11T15:49:11.000Z</Time>
            <Position>
              <LatitudeDegrees>-49.22522552311420440673828125</LatitudeDegrees>
              <LongitudeDegrees>-73.0508099310100078582763671875</LongitudeDegrees>
            </Position>
            <AltitudeMeters>683.20001220703125</AltitudeMeters>
            <DistanceMeters>4358.0784178515</DistanceMeters>
          </Trackpoint>
          <Trackpoint>
            <Time>2023-01-11T15:49:13.000Z</Time>
            <Position>
              <LatitudeDegrees>-49.22522996552288532257080078125</LatitudeDegrees>
              <LongitudeDegrees>-73.050825186073780059814453125</LongitudeDegrees>
            </Position>
            <AltitudeMeters>684</AltitudeMeters>
            <DistanceMeters>4359.2879104657</DistanceMeters>
          </Trackpoint>
          <Trackpoint>
            <Time>2023-01-11T15:49:20.000Z</Time>
            <Position>
              <LatitudeDegrees>-49.22526801936328411102294921875</LatitudeDegrees>
              <LongitudeDegrees>-73.0508689396083354949951171875</LongitudeDegrees>
            </Position>
            <AltitudeMeters>684.20001220703125</AltitudeMeters>
            <DistanceMeters>4364.583891719</DistanceMeters>
          </Trackpoint>
          <Trackpoint>
            <Time>2023-01-11T15:49:29.000Z</Time>
            <Position>
              <LatitudeDegrees>-49.22528319060802459716796875</LatitudeDegrees>
              <LongitudeDegrees>-73.0509601347148418426513671875</LongitudeDegrees>
            </Position>
            <AltitudeMeters>684.20001220703125</AltitudeMeters>
            <DistanceMeters>4371.4251552141</DistanceMeters>
          </Trackpoint>
          <Trackpoint>
            <Time>2023-01-11T15:49:36.000Z</Time>
            <Position>
              <LatitudeDegrees>-49.22530573792755603790283203125</LatitudeDegrees>
              <LongitudeDegrees>-73.05101729929447174072265625</LongitudeDegrees>
            </Position>
            <AltitudeMeters>685.4000244140625</AltitudeMeters>
            <DistanceMeters>4376.2798951163</DistanceMeters>
          </Trackpoint>
          <Trackpoint>
            <Time>2023-01-11T15:49:39.000Z</Time>
            <Position>
              <LatitudeDegrees>-49.22531328164041042327880859375</LatitudeDegrees>
              <LongitudeDegrees>-73.05104034952819347381591796875</LongitudeDegrees>
            </Position>
            <AltitudeMeters>685.5999755859375</AltitudeMeters>
            <DistanceMeters>4378.1517043107</DistanceMeters>
          </Trackpoint>
          <Trackpoint>
            <Time>2023-01-11T15:49:44.000Z</Time>
            <Position>
              <LatitudeDegrees>-49.2253313027322292327880859375</LatitudeDegrees>
              <LongitudeDegrees>-73.05107236839830875396728515625</LongitudeDegrees>
            </Position>
            <AltitudeMeters>686</AltitudeMeters>
            <DistanceMeters>4381.223581568</DistanceMeters>
          </Trackpoint>
          <Trackpoint>
            <Time>2023-01-11T15:49:50.000Z</Time>
            <Position>
              <LatitudeDegrees>-49.22533088363707065582275390625</LatitudeDegrees>
              <LongitudeDegrees>-73.05110991932451725006103515625</LongitudeDegrees>
            </Position>
            <AltitudeMeters>686.4000244140625</AltitudeMeters>
            <DistanceMeters>4383.9546698388</DistanceMeters>
          </Trackpoint>
          <Trackpoint>
            <Time>2023-01-11T15:49:51.000Z</Time>
            <Position>
              <LatitudeDegrees>-49.22532635740935802459716796875</LatitudeDegrees>
              <LongitudeDegrees>-73.051104806363582611083984375</LongitudeDegrees>
            </Position>
            <AltitudeMeters>686.4000244140625</AltitudeMeters>
            <DistanceMeters>4384.5850057521</DistanceMeters>
          </Trackpoint>
          <Trackpoint>
            <Time>2023-01-11T15:49:57.000Z</Time>
            <Position>
              <LatitudeDegrees>-49.22531613148748874664306640625</LatitudeDegrees>
              <LongitudeDegrees>-73.0510892160236835479736328125</LongitudeDegrees>
            </Position>
            <AltitudeMeters>686.4000244140625</AltitudeMeters>
            <DistanceMeters>4386.1920533129</DistanceMeters>
          </Trackpoint>
          <Trackpoint>
            <Time>2023-01-11T15:50:04.000Z</Time>
            <Position>
              <LatitudeDegrees>-49.225316382944583892822265625</LatitudeDegrees>
              <LongitudeDegrees>-73.0510892160236835479736328125</LongitudeDegrees>
            </Position>
            <AltitudeMeters>686.4000244140625</AltitudeMeters>
            <DistanceMeters>4386.2870800273</DistanceMeters>
          </Trackpoint>
          <Trackpoint>
            <Time>2023-01-11T15:50:13.000Z</Time>
            <Position>
              <LatitudeDegrees>-49.2253227531909942626953125</LatitudeDegrees>
              <LongitudeDegrees>-73.05109114386141300201416015625</LongitudeDegrees>
            </Position>
            <AltitudeMeters>687.5999755859375</AltitudeMeters>
            <DistanceMeters>4387.010781923</DistanceMeters>
          </Trackpoint>
          <Trackpoint>
            <Time>2023-01-11T15:50:16.000Z</Time>
            <Position>
              <LatitudeDegrees>-49.2253245972096920013427734375</LatitudeDegrees>
              <LongitudeDegrees>-73.05109114386141300201416015625</LongitudeDegrees>
            </Position>
            <AltitudeMeters>689</AltitudeMeters>
            <DistanceMeters>4387.2435488851</DistanceMeters>
          </Trackpoint>
          <Trackpoint>
            <Time>2023-01-11T15:50:22.000Z</Time>
            <Position>
              <LatitudeDegrees>-49.225361645221710205078125</LatitudeDegrees>
              <LongitudeDegrees>-73.0510877072811126708984375</LongitudeDegrees>
            </Position>
            <AltitudeMeters>689.20001220703125</AltitudeMeters>
            <DistanceMeters>4391.3747526418</DistanceMeters>
          </Trackpoint>
          <Trackpoint>
            <Time>2023-01-11T15:50:24.000Z</Time>
            <Position>
              <LatitudeDegrees>-49.22538536600768566131591796875</LatitudeDegrees>
              <LongitudeDegrees>-73.051079325377941131591796875</LongitudeDegrees>
            </Position>
            <AltitudeMeters>689.20001220703125</AltitudeMeters>
            <DistanceMeters>4394.0842640643</DistanceMeters>
          </Trackpoint>
          <Trackpoint>
            <Time>2023-01-11T15:50:28.000Z</Time>
            <Position>
              <LatitudeDegrees>-49.22542744316160678863525390625</LatitudeDegrees>
              <LongitudeDegrees>-73.0510627292096614837646484375</LongitudeDegrees>
            </Position>
            <AltitudeMeters>690.5999755859375</AltitudeMeters>
            <DistanceMeters>4398.9203676602</DistanceMeters>
          </Trackpoint>
          <Trackpoint>
            <Time>2023-01-11T15:50:33.000Z</Time>
            <Position>
              <LatitudeDegrees>-49.225450493395328521728515625</LatitudeDegrees>
              <LongitudeDegrees>-73.05104135535657405853271484375</LongitudeDegrees>
            </Position>
            <AltitudeMeters>691.4000244140625</AltitudeMeters>
            <DistanceMeters>4401.9208653213</DistanceMeters>
          </Trackpoint>
          <Trackpoint>
            <Time>2023-01-11T15:50:42.000Z</Time>
            <Position>
              <LatitudeDegrees>-49.22550355084240436553955078125</LatitudeDegrees>
              <LongitudeDegrees>-73.05108594708144664764404296875</LongitudeDegrees>
            </Position>
            <AltitudeMeters>691.4000244140625</AltitudeMeters>
            <DistanceMeters>4408.65771653</DistanceMeters>
          </Trackpoint>
          <Trackpoint>
            <Time>2023-01-11T15:50:45.000Z</Time>
            <Position>
              <LatitudeDegrees>-49.225510172545909881591796875</LatitudeDegrees>
              <LongitudeDegrees>-73.05111025460064411163330078125</LongitudeDegrees>
            </Position>
            <AltitudeMeters>692</AltitudeMeters>
            <DistanceMeters>4410.5724517692</DistanceMeters>
          </Trackpoint>
          <Trackpoint>
            <Time>2023-01-11T15:50:49.000Z</Time>
            <Position>
              <LatitudeDegrees>-49.225521571934223175048828125</LatitudeDegrees>
              <LongitudeDegrees>-73.05111922323703765869140625</LongitudeDegrees>
            </Position>
            <AltitudeMeters>693</AltitudeMeters>
            <DistanceMeters>4411.9946814002</DistanceMeters>
          </Trackpoint>
          <Trackpoint>
            <Time>2023-01-11T15:50:50.000Z</Time>
            <Position>
              <LatitudeDegrees>-49.22552433796226978302001953125</LatitudeDegrees>
              <LongitudeDegrees>-73.05112148635089397430419921875</LongitudeDegrees>
            </Position>
            <AltitudeMeters>694</AltitudeMeters>
            <DistanceMeters>4412.3238635949</DistanceMeters>
          </Trackpoint>
          <Trackpoint>
            <Time>2023-01-11T15:50:53.000Z</Time>
            <Position>
              <LatitudeDegrees>-49.22552785836160182952880859375</LatitudeDegrees>
              <LongitudeDegrees>-73.05114336311817169189453125</LongitudeDegrees>
            </Position>
            <AltitudeMeters>694.4000244140625</AltitudeMeters>
            <DistanceMeters>4413.9587650071</DistanceMeters>
          </Trackpoint>
          <Trackpoint>
            <Time>2023-01-11T15:50:58.000Z</Time>
            <Position>
              <LatitudeDegrees>-49.2255348153412342071533203125</LatitudeDegrees>
              <LongitudeDegrees>-73.05118552409112453460693359375</LongitudeDegrees>
            </Position>
            <AltitudeMeters>695</AltitudeMeters>
            <DistanceMeters>4417.1190283738</DistanceMeters>
          </Trackpoint>
          <Trackpoint>
            <Time>2023-01-11T15:50:59.000Z</Time>
            <Position>
              <LatitudeDegrees>-49.2255358211696147918701171875</LatitudeDegrees>
              <LongitudeDegrees>-73.05119206197559833526611328125</LongitudeDegrees>
            </Position>
            <AltitudeMeters>695.4000244140625</AltitudeMeters>
            <DistanceMeters>4417.6035714447</DistanceMeters>
          </Trackpoint>
          <Trackpoint>
            <Time>2023-01-11T15:51:03.000Z</Time>
            <Position>
              <LatitudeDegrees>-49.225555099546909332275390625</LatitudeDegrees>
              <LongitudeDegrees>-73.0512018688023090362548828125</LongitudeDegrees>
            </Position>
            <AltitudeMeters>696.20001220703125</AltitudeMeters>
            <DistanceMeters>4419.8643286778</DistanceMeters>
          </Trackpoint>
          <Trackpoint>
            <Time>2023-01-11T15:51:04.000Z</Time>
            <Position>
              <LatitudeDegrees>-49.22555836848914623260498046875</LatitudeDegrees>
              <LongitudeDegrees>-73.0512042157351970672607421875</LongitudeDegrees>
            </Position>
            <AltitudeMeters>696.20001220703125</AltitudeMeters>
            <DistanceMeters>4420.2561338585</DistanceMeters>
          </Trackpoint>
          <Trackpoint>
            <Time>2023-01-11T15:51:06.000Z</Time>
            <Position>
              <LatitudeDegrees>-49.22556440345942974090576171875</LatitudeDegrees>
              <LongitudeDegrees>-73.05121838115155696868896484375</LongitudeDegrees>
            </Position>
            <AltitudeMeters>695.5999755859375</AltitudeMeters>
            <DistanceMeters>4421.4841496426</DistanceMeters>
          </Trackpoint>
          <Trackpoint>
            <Time>2023-01-11T15:51:15.000Z</Time>
            <Position>
              <LatitudeDegrees>-49.22560798935592174530029296875</LatitudeDegrees>
              <LongitudeDegrees>-73.05128325708210468292236328125</LongitudeDegrees>
            </Position>
            <AltitudeMeters>696</AltitudeMeters>
            <DistanceMeters>4428.250425396</DistanceMeters>
          </Trackpoint>
          <Trackpoint>
            <Time>2023-01-11T15:51:25.000Z</Time>
            <Position>
              <LatitudeDegrees>-49.225592315196990966796875</LatitudeDegrees>
              <LongitudeDegrees>-73.05127479135990142822265625</LongitudeDegrees>
            </Position>
            <AltitudeMeters>695.79998779296875</AltitudeMeters>
            <DistanceMeters>4430.1028370804</DistanceMeters>
          </Trackpoint>
          <Trackpoint>
            <Time>2023-01-11T15:51:32.000Z</Time>
            <Position>
              <LatitudeDegrees>-49.2256303690373897552490234375</LatitudeDegrees>
              <LongitudeDegrees>-73.05125408805906772613525390625</LongitudeDegrees>
            </Position>
            <AltitudeMeters>696.20001220703125</AltitudeMeters>
            <DistanceMeters>4434.5983138162</DistanceMeters>
          </Trackpoint>
          <Trackpoint>
            <Time>2023-01-11T15:51:38.000Z</Time>
            <Position>
              <LatitudeDegrees>-49.2256303690373897552490234375</LatitudeDegrees>
              <LongitudeDegrees>-73.05125408805906772613525390625</LongitudeDegrees>
            </Position>
            <AltitudeMeters>696.4000244140625</AltitudeMeters>
            <DistanceMeters>4434.5983138162</DistanceMeters>
          </Trackpoint>
          <Trackpoint>
            <Time>2023-01-11T15:51:45.000Z</Time>
            <Position>
              <LatitudeDegrees>-49.22562408261001110076904296875</LatitudeDegrees>
              <LongitudeDegrees>-73.0512541718780994415283203125</LongitudeDegrees>
            </Position>
            <AltitudeMeters>696.4000244140625</AltitudeMeters>
            <DistanceMeters>4435.2966147026</DistanceMeters>
          </Trackpoint>
          <Trackpoint>
            <Time>2023-01-11T15:51:47.000Z</Time>
            <Position>
              <LatitudeDegrees>-49.22562207095324993133544921875</LatitudeDegrees>
              <LongitudeDegrees>-73.05125492624938488006591796875</LongitudeDegrees>
            </Position>
            <AltitudeMeters>696.5999755859375</AltitudeMeters>
            <DistanceMeters>4435.5293816647</DistanceMeters>
          </Trackpoint>
          <Trackpoint>
            <Time>2023-01-11T15:51:53.000Z</Time>
            <Position>
              <LatitudeDegrees>-49.2256219871342182159423828125</LatitudeDegrees>
              <LongitudeDegrees>-73.05125660263001918792724609375</LongitudeDegrees>
            </Position>
            <AltitudeMeters>696.20001220703125</AltitudeMeters>
            <DistanceMeters>4435.663769733</DistanceMeters>
          </Trackpoint>
          <Trackpoint>
            <Time>2023-01-11T15:51:56.000Z</Time>
            <Position>
              <LatitudeDegrees>-49.22564956359565258026123046875</LatitudeDegrees>
              <LongitudeDegrees>-73.05127303116023540496826171875</LongitudeDegrees>
            </Position>
            <AltitudeMeters>696.4000244140625</AltitudeMeters>
            <DistanceMeters>4438.9555916803</DistanceMeters>
          </Trackpoint>
          <Trackpoint>
            <Time>2023-01-11T15:52:03.000Z</Time>
            <Position>
              <LatitudeDegrees>-49.2257383279502391815185546875</LatitudeDegrees>
              <LongitudeDegrees>-73.051359616219997406005859375</LongitudeDegrees>
            </Position>
            <AltitudeMeters>697</AltitudeMeters>
            <DistanceMeters>4450.6693447751</DistanceMeters>
          </Trackpoint>
          <Trackpoint>
            <Time>2023-01-11T15:52:07.000Z</Time>
            <Position>
              <LatitudeDegrees>-49.22577135264873504638671875</LatitudeDegrees>
              <LongitudeDegrees>-73.051367662847042083740234375</LongitudeDegrees>
            </Position>
            <AltitudeMeters>697.5999755859375</AltitudeMeters>
            <DistanceMeters>4454.3911907237</DistanceMeters>
          </Trackpoint>
          <Trackpoint>
            <Time>2023-01-11T15:52:09.000Z</Time>
            <Position>
              <LatitudeDegrees>-49.22578367404639720916748046875</LatitudeDegrees>
              <LongitudeDegrees>-73.05138400755822658538818359375</LongitudeDegrees>
            </Position>
            <AltitudeMeters>697.79998779296875</AltitudeMeters>
            <DistanceMeters>4456.2041848841</DistanceMeters>
          </Trackpoint>
          <Trackpoint>
            <Time>2023-01-11T15:52:17.000Z</Time>
            <Position>
              <LatitudeDegrees>-49.22583195380866527557373046875</LatitudeDegrees>
              <LongitudeDegrees>-73.05139590986073017120361328125</LongitudeDegrees>
            </Position>
            <AltitudeMeters>698.4000244140625</AltitudeMeters>
            <DistanceMeters>4461.6464868544</DistanceMeters>
          </Trackpoint>
          <Trackpoint>
            <Time>2023-01-11T15:52:22.000Z</Time>
            <Position>
              <LatitudeDegrees>-49.2258600331842899322509765625</LatitudeDegrees>
              <LongitudeDegrees>-73.0514335446059703826904296875</LongitudeDegrees>
            </Position>
            <AltitudeMeters>698.79998779296875</AltitudeMeters>
            <DistanceMeters>4465.79949131</DistanceMeters>
          </Trackpoint>
          <Trackpoint>
            <Time>2023-01-11T15:52:24.000Z</Time>
            <Position>
              <LatitudeDegrees>-49.225871264934539794921875</LatitudeDegrees>
              <LongitudeDegrees>-73.05144905112683773040771484375</LongitudeDegrees>
            </Position>
            <AltitudeMeters>699.4000244140625</AltitudeMeters>
            <DistanceMeters>4467.4833689787</DistanceMeters>
          </Trackpoint>
          <Trackpoint>
            <Time>2023-01-11T15:52:26.000Z</Time>
            <Position>
              <LatitudeDegrees>-49.22588392160832881927490234375</LatitudeDegrees>
              <LongitudeDegrees>-73.0514643900096416473388671875</LongitudeDegrees>
            </Position>
            <AltitudeMeters>699.79998779296875</AltitudeMeters>
            <DistanceMeters>4469.2813587915</DistanceMeters>
          </Trackpoint>
          <Trackpoint>
            <Time>2023-01-11T15:52:30.000Z</Time>
            <Position>
              <LatitudeDegrees>-49.2258989252150058746337890625</LatitudeDegrees>
              <LongitudeDegrees>-73.05148291401565074920654296875</LongitudeDegrees>
            </Position>
            <AltitudeMeters>700.4000244140625</AltitudeMeters>
            <DistanceMeters>4471.4273641472</DistanceMeters>
          </Trackpoint>
          <Trackpoint>
            <Time>2023-01-11T15:52:32.000Z</Time>
            <Position>
              <LatitudeDegrees>-49.2259061336517333984375</LatitudeDegrees>
              <LongitudeDegrees>-73.051497079432010650634765625</LongitudeDegrees>
            </Position>
            <AltitudeMeters>700.5999755859375</AltitudeMeters>
            <DistanceMeters>4472.7303048102</DistanceMeters>
          </Trackpoint>
          <Trackpoint>
            <Time>2023-01-11T15:52:36.000Z</Time>
            <Position>
              <LatitudeDegrees>-49.225919209420680999755859375</LatitudeDegrees>
              <LongitudeDegrees>-73.05154410190880298614501953125</LongitudeDegrees>
            </Position>
            <AltitudeMeters>700.79998779296875</AltitudeMeters>
            <DistanceMeters>4476.4448649196</DistanceMeters>
          </Trackpoint>
          <Trackpoint>
            <Time>2023-01-11T15:52:38.000Z</Time>
            <Position>
              <LatitudeDegrees>-49.22592750750482082366943359375</LatitudeDegrees>
              <LongitudeDegrees>-73.0515611171722412109375</LongitudeDegrees>
            </Position>
            <AltitudeMeters>701.4000244140625</AltitudeMeters>
            <DistanceMeters>4477.9888662737</DistanceMeters>
          </Trackpoint>
          <Trackpoint>
            <Time>2023-01-11T15:52:39.000Z</Time>
            <Position>
              <LatitudeDegrees>-49.22593572176992893218994140625</LatitudeDegrees>
              <LongitudeDegrees>-73.051564805209636688232421875</LongitudeDegrees>
            </Position>
            <AltitudeMeters>701.4000244140625</AltitudeMeters>
            <DistanceMeters>4478.9485890447</DistanceMeters>
          </Trackpoint>
          <Trackpoint>
            <Time>2023-01-11T15:52:48.000Z</Time>
            <Position>
              <LatitudeDegrees>-49.2259867675602436065673828125</LatitudeDegrees>
              <LongitudeDegrees>-73.0515678226947784423828125</LongitudeDegrees>
            </Position>
            <AltitudeMeters>702.4000244140625</AltitudeMeters>
            <DistanceMeters>4484.6343320629</DistanceMeters>
          </Trackpoint>
          <Trackpoint>
            <Time>2023-01-11T15:52:52.000Z</Time>
            <Position>
              <LatitudeDegrees>-49.22601853497326374053955078125</LatitudeDegrees>
              <LongitudeDegrees>-73.0515938065946102142333984375</LongitudeDegrees>
            </Position>
            <AltitudeMeters>703.5999755859375</AltitudeMeters>
            <DistanceMeters>4488.6423872015</DistanceMeters>
          </Trackpoint>
          <Trackpoint>
            <Time>2023-01-11T15:52:58.000Z</Time>
            <Position>
              <LatitudeDegrees>-49.22604284249246120452880859375</LatitudeDegrees>
              <LongitudeDegrees>-73.0516179464757442474365234375</LongitudeDegrees>
            </Position>
            <AltitudeMeters>704.20001220703125</AltitudeMeters>
            <DistanceMeters>4491.8677008395</DistanceMeters>
          </Trackpoint>
          <Trackpoint>
            <Time>2023-01-11T15:53:00.000Z</Time>
            <Position>
              <LatitudeDegrees>-49.226064048707485198974609375</LatitudeDegrees>
              <LongitudeDegrees>-73.05163043551146984100341796875</LongitudeDegrees>
            </Position>
            <AltitudeMeters>704.4000244140625</AltitudeMeters>
            <DistanceMeters>4494.3961972548</DistanceMeters>
          </Trackpoint>
          <Trackpoint>
            <Time>2023-01-11T15:53:10.000Z</Time>
            <Position>
              <LatitudeDegrees>-49.22609866596758365631103515625</LatitudeDegrees>
              <LongitudeDegrees>-73.05168810300529003143310546875</LongitudeDegrees>
            </Position>
            <AltitudeMeters>704</AltitudeMeters>
            <DistanceMeters>4500.0898757173</DistanceMeters>
          </Trackpoint>
          <Trackpoint>
            <Time>2023-01-11T15:53:11.000Z</Time>
            <Position>
              <LatitudeDegrees>-49.2260943911969661712646484375</LatitudeDegrees>
              <LongitudeDegrees>-73.0516860075294971466064453125</LongitudeDegrees>
            </Position>
            <AltitudeMeters>704</AltitudeMeters>
            <DistanceMeters>4500.5927098255</DistanceMeters>
          </Trackpoint>
          <Trackpoint>
            <Time>2023-01-11T15:53:18.000Z</Time>
            <Position>
              <LatitudeDegrees>-49.2261195369064807891845703125</LatitudeDegrees>
              <LongitudeDegrees>-73.05168944410979747772216796875</LongitudeDegrees>
            </Position>
            <AltitudeMeters>704.20001220703125</AltitudeMeters>
            <DistanceMeters>4503.4020312404</DistanceMeters>
          </Trackpoint>
          <Trackpoint>
            <Time>2023-01-11T15:53:22.000Z</Time>
            <Position>
              <LatitudeDegrees>-49.2261440120637416839599609375</LatitudeDegrees>
              <LongitudeDegrees>-73.051714338362216949462890625</LongitudeDegrees>
            </Position>
            <AltitudeMeters>704.5999755859375</AltitudeMeters>
            <DistanceMeters>4506.6718340647</DistanceMeters>
          </Trackpoint>
          <Trackpoint>
            <Time>2023-01-11T15:53:26.000Z</Time>
            <Position>
              <LatitudeDegrees>-49.2261554114520549774169921875</LatitudeDegrees>
              <LongitudeDegrees>-73.05173755623400211334228515625</LongitudeDegrees>
            </Position>
            <AltitudeMeters>705.79998779296875</AltitudeMeters>
            <DistanceMeters>4508.7839083445</DistanceMeters>
          </Trackpoint>
          <Trackpoint>
            <Time>2023-01-11T15:53:30.000Z</Time>
            <Position>
              <LatitudeDegrees>-49.22613747417926788330078125</LatitudeDegrees>
              <LongitudeDegrees>-73.05173537693917751312255859375</LongitudeDegrees>
            </Position>
            <AltitudeMeters>706.20001220703125</AltitudeMeters>
            <DistanceMeters>4510.7884990801</DistanceMeters>
          </Trackpoint>
          <Trackpoint>
            <Time>2023-01-11T15:53:32.000Z</Time>
            <Position>
              <LatitudeDegrees>-49.2261245660483837127685546875</LatitudeDegrees>
              <LongitudeDegrees>-73.051714338362216949462890625</LongitudeDegrees>
            </Position>
            <AltitudeMeters>706.20001220703125</AltitudeMeters>
            <DistanceMeters>4512.8877078131</DistanceMeters>
          </Trackpoint>
          <Trackpoint>
            <Time>2023-01-11T15:53:43.000Z</Time>
            <Position>
              <LatitudeDegrees>-49.2261175252497196197509765625</LatitudeDegrees>
              <LongitudeDegrees>-73.05168382823467254638671875</LongitudeDegrees>
            </Position>
            <AltitudeMeters>707</AltitudeMeters>
            <DistanceMeters>4515.2404587265</DistanceMeters>
          </Trackpoint>
          <Trackpoint>
            <Time>2023-01-11T15:53:50.000Z</Time>
            <Position>
              <LatitudeDegrees>-49.2261327803134918212890625</LatitudeDegrees>
              <LongitudeDegrees>-73.05169866420328617095947265625</LongitudeDegrees>
            </Position>
            <AltitudeMeters>706.79998779296875</AltitudeMeters>
            <DistanceMeters>4517.2517951595</DistanceMeters>
          </Trackpoint>
          <Trackpoint>
            <Time>2023-01-11T15:53:54.000Z</Time>
            <Position>
              <LatitudeDegrees>-49.22614191658794879913330078125</LatitudeDegrees>
              <LongitudeDegrees>-73.05171425454318523406982421875</LongitudeDegrees>
            </Position>
            <AltitudeMeters>706.79998779296875</AltitudeMeters>
            <DistanceMeters>4518.7722225894</DistanceMeters>
          </Trackpoint>
          <Trackpoint>
            <Time>2023-01-11T15:53:58.000Z</Time>
            <Position>
              <LatitudeDegrees>-49.22616203315556049346923828125</LatitudeDegrees>
              <LongitudeDegrees>-73.051745183765888214111328125</LongitudeDegrees>
            </Position>
            <AltitudeMeters>706.79998779296875</AltitudeMeters>
            <DistanceMeters>4521.9438948863</DistanceMeters>
          </Trackpoint>
          <Trackpoint>
            <Time>2023-01-11T15:54:02.000Z</Time>
            <Position>
              <LatitudeDegrees>-49.22621467150747776031494140625</LatitudeDegrees>
              <LongitudeDegrees>-73.051783405244350433349609375</LongitudeDegrees>
            </Position>
            <AltitudeMeters>706.4000244140625</AltitudeMeters>
            <DistanceMeters>4528.4280321398</DistanceMeters>
          </Trackpoint>
          <Trackpoint>
            <Time>2023-01-11T15:54:11.000Z</Time>
            <Position>
              <LatitudeDegrees>-49.22631525434553623199462890625</LatitudeDegrees>
              <LongitudeDegrees>-73.05186948738992214202880859375</LongitudeDegrees>
            </Position>
            <AltitudeMeters>705.79998779296875</AltitudeMeters>
            <DistanceMeters>4541.2527665367</DistanceMeters>
          </Trackpoint>
          <Trackpoint>
            <Time>2023-01-11T15:54:12.000Z</Time>
            <Position>
              <LatitudeDegrees>-49.226326234638690948486328125</LatitudeDegrees>
              <LongitudeDegrees>-73.05186948738992214202880859375</LongitudeDegrees>
            </Position>
            <AltitudeMeters>705.79998779296875</AltitudeMeters>
            <DistanceMeters>4542.4697022527</DistanceMeters>
          </Trackpoint>
          <Trackpoint>
            <Time>2023-01-11T15:54:21.000Z</Time>
            <Position>
              <LatitudeDegrees>-49.22640376724302768707275390625</LatitudeDegrees>
              <LongitudeDegrees>-73.05188323371112346649169921875</LongitudeDegrees>
            </Position>
            <AltitudeMeters>706.4000244140625</AltitudeMeters>
            <DistanceMeters>4551.157243845</DistanceMeters>
          </Trackpoint>
          <Trackpoint>
            <Time>2023-01-11T15:54:29.000Z</Time>
            <Position>
              <LatitudeDegrees>-49.22647417522966861724853515625</LatitudeDegrees>
              <LongitudeDegrees>-73.05189882405102252960205078125</LongitudeDegrees>
            </Position>
            <AltitudeMeters>707.20001220703125</AltitudeMeters>
            <DistanceMeters>4559.0747428614</DistanceMeters>
          </Trackpoint>
          <Trackpoint>
            <Time>2023-01-11T15:54:30.000Z</Time>
            <Position>
              <LatitudeDegrees>-49.22648079693317413330078125</LatitudeDegrees>
              <LongitudeDegrees>-73.0519015900790691375732421875</LongitudeDegrees>
            </Position>
            <AltitudeMeters>707.20001220703125</AltitudeMeters>
            <DistanceMeters>4559.8349565763</DistanceMeters>
          </Trackpoint>
          <Trackpoint>
            <Time>2023-01-11T15:54:38.000Z</Time>
            <Position>
              <LatitudeDegrees>-49.2265265621244907379150390625</LatitudeDegrees>
              <LongitudeDegrees>-73.051921539008617401123046875</LongitudeDegrees>
            </Position>
            <AltitudeMeters>708</AltitudeMeters>
            <DistanceMeters>4565.1309378296</DistanceMeters>
          </Trackpoint>
          <Trackpoint>
            <Time>2023-01-11T15:54:47.000Z</Time>
            <Position>
              <LatitudeDegrees>-49.22656084410846233367919921875</LatitudeDegrees>
              <LongitudeDegrees>-73.05197828449308872222900390625</LongitudeDegrees>
            </Position>
            <AltitudeMeters>708.20001220703125</AltitudeMeters>
            <DistanceMeters>4570.7495806593</DistanceMeters>
          </Trackpoint>
          <Trackpoint>
            <Time>2023-01-11T15:54:49.000Z</Time>
            <Position>
              <LatitudeDegrees>-49.2265699803829193115234375</LatitudeDegrees>
              <LongitudeDegrees>-73.05197778157889842987060546875</LongitudeDegrees>
            </Position>
            <AltitudeMeters>709.4000244140625</AltitudeMeters>
            <DistanceMeters>4571.7641883247</DistanceMeters>
          </Trackpoint>
          <Trackpoint>
            <Time>2023-01-11T15:54:54.000Z</Time>
            <Position>
              <LatitudeDegrees>-49.2266019992530345916748046875</LatitudeDegrees>
              <LongitudeDegrees>-73.0519813857972621917724609375</LongitudeDegrees>
            </Position>
            <AltitudeMeters>710.4000244140625</AltitudeMeters>
            <DistanceMeters>4575.3374960489</DistanceMeters>
          </Trackpoint>
          <Trackpoint>
            <Time>2023-01-11T15:54:58.000Z</Time>
            <Position>
              <LatitudeDegrees>-49.22662186436355113983154296875</LatitudeDegrees>
              <LongitudeDegrees>-73.05196604691445827484130859375</LongitudeDegrees>
            </Position>
            <AltitudeMeters>710.79998779296875</AltitudeMeters>
            <DistanceMeters>4577.8154895884</DistanceMeters>
          </Trackpoint>
          <Trackpoint>
            <Time>2023-01-11T15:55:04.000Z</Time>
            <Position>
              <LatitudeDegrees>-49.22665472142398357391357421875</LatitudeDegrees>
              <LongitudeDegrees>-73.05197090841829776763916015625</LongitudeDegrees>
            </Position>
            <AltitudeMeters>711.5999755859375</AltitudeMeters>
            <DistanceMeters>4581.4897193422</DistanceMeters>
          </Trackpoint>
          <Trackpoint>
            <Time>2023-01-11T15:55:06.000Z</Time>
            <Position>
              <LatitudeDegrees>-49.2266683839261531829833984375</LatitudeDegrees>
              <LongitudeDegrees>-73.0519780330359935760498046875</LongitudeDegrees>
            </Position>
            <AltitudeMeters>712.20001220703125</AltitudeMeters>
            <DistanceMeters>4583.0967669031</DistanceMeters>
          </Trackpoint>
          <Trackpoint>
            <Time>2023-01-11T15:55:10.000Z</Time>
            <Position>
              <LatitudeDegrees>-49.226692020893096923828125</LatitudeDegrees>
              <LongitudeDegrees>-73.05197593756020069122314453125</LongitudeDegrees>
            </Position>
            <AltitudeMeters>713.4000244140625</AltitudeMeters>
            <DistanceMeters>4585.7302244609</DistanceMeters>
          </Trackpoint>
          <Trackpoint>
            <Time>2023-01-11T15:55:14.000Z</Time>
            <Position>
              <LatitudeDegrees>-49.2267148196697235107421875</LatitudeDegrees>
              <LongitudeDegrees>-73.05195900611579418182373046875</LongitudeDegrees>
            </Position>
            <AltitudeMeters>713.4000244140625</AltitudeMeters>
            <DistanceMeters>4588.5507735825</DistanceMeters>
          </Trackpoint>
          <Trackpoint>
            <Time>2023-01-11T15:55:22.000Z</Time>
            <Position>
              <LatitudeDegrees>-49.22674440778791904449462890625</LatitudeDegrees>
              <LongitudeDegrees>-73.05193637497723102569580078125</LongitudeDegrees>
            </Position>
            <AltitudeMeters>714</AltitudeMeters>
            <DistanceMeters>4592.2311424045</DistanceMeters>
          </Trackpoint>
          <Trackpoint>
            <Time>2023-01-11T15:55:25.000Z</Time>
            <Position>
              <LatitudeDegrees>-49.22676083631813526153564453125</LatitudeDegrees>
              <LongitudeDegrees>-73.05192899890244007110595703125</LongitudeDegrees>
            </Position>
            <AltitudeMeters>714.5999755859375</AltitudeMeters>
            <DistanceMeters>4594.1364221032</DistanceMeters>
          </Trackpoint>
          <Trackpoint>
            <Time>2023-01-11T15:55:29.000Z</Time>
            <Position>
              <LatitudeDegrees>-49.22679201699793338775634765625</LatitudeDegrees>
              <LongitudeDegrees>-73.05193520151078701019287109375</LongitudeDegrees>
            </Position>
            <AltitudeMeters>715.20001220703125</AltitudeMeters>
            <DistanceMeters>4597.63696688</DistanceMeters>
          </Trackpoint>
          <Trackpoint>
            <Time>2023-01-11T15:55:32.000Z</Time>
            <Position>
              <LatitudeDegrees>-49.2268048413097858428955078125</LatitudeDegrees>
              <LongitudeDegrees>-73.0519515462219715118408203125</LongitudeDegrees>
            </Position>
            <AltitudeMeters>715.20001220703125</AltitudeMeters>
            <DistanceMeters>4599.4942469347</DistanceMeters>
          </Trackpoint>
          <Trackpoint>
            <Time>2023-01-11T15:55:35.000Z</Time>
            <Position>
              <LatitudeDegrees>-49.22680207528173923492431640625</LatitudeDegrees>
              <LongitudeDegrees>-73.0519438348710536956787109375</LongitudeDegrees>
            </Position>
            <AltitudeMeters>715.5999755859375</AltitudeMeters>
            <DistanceMeters>4600.1387494688</DistanceMeters>
          </Trackpoint>
          <Trackpoint>
            <Time>2023-01-11T15:55:37.000Z</Time>
            <Position>
              <LatitudeDegrees>-49.22680241055786609649658203125</LatitudeDegrees>
              <LongitudeDegrees>-73.0519431643187999725341796875</LongitudeDegrees>
            </Position>
            <AltitudeMeters>716</AltitudeMeters>
            <DistanceMeters>4600.1387494688</DistanceMeters>
          </Trackpoint>
          <Trackpoint>
            <Time>2023-01-11T15:55:55.000Z</Time>
            <Position>
              <LatitudeDegrees>-49.226796291768550872802734375</LatitudeDegrees>
              <LongitudeDegrees>-73.05194676853716373443603515625</LongitudeDegrees>
            </Position>
            <AltitudeMeters>714.4000244140625</AltitudeMeters>
            <DistanceMeters>4600.8624513644</DistanceMeters>
          </Trackpoint>
          <Trackpoint>
            <Time>2023-01-11T15:56:01.000Z</Time>
            <Position>
              <LatitudeDegrees>-49.22680794261395931243896484375</LatitudeDegrees>
              <LongitudeDegrees>-73.05196017958223819732666015625</LongitudeDegrees>
            </Position>
            <AltitudeMeters>714</AltitudeMeters>
            <DistanceMeters>4602.4862685714</DistanceMeters>
          </Trackpoint>
          <Trackpoint>
            <Time>2023-01-11T15:56:08.000Z</Time>
            <Position>
              <LatitudeDegrees>-49.226884804666042327880859375</LatitudeDegrees>
              <LongitudeDegrees>-73.052035532891750335693359375</LongitudeDegrees>
            </Position>
            <AltitudeMeters>714</AltitudeMeters>
            <DistanceMeters>4612.64435321</DistanceMeters>
          </Trackpoint>
          <Trackpoint>
            <Time>2023-01-11T15:56:16.000Z</Time>
            <Position>
              <LatitudeDegrees>-49.22694523818790912628173828125</LatitudeDegrees>
              <LongitudeDegrees>-73.05207685567438602447509765625</LongitudeDegrees>
            </Position>
            <AltitudeMeters>714.20001220703125</AltitudeMeters>
            <DistanceMeters>4620.0112222484</DistanceMeters>
          </Trackpoint>
          <Trackpoint>
            <Time>2023-01-11T15:56:24.000Z</Time>
            <Position>
              <LatitudeDegrees>-49.2269516922533512115478515625</LatitudeDegrees>
              <LongitudeDegrees>-73.052100241184234619140625</LongitudeDegrees>
            </Position>
            <AltitudeMeters>713.79998779296875</AltitudeMeters>
            <DistanceMeters>4621.8563072923</DistanceMeters>
          </Trackpoint>
          <Trackpoint>
            <Time>2023-01-11T15:56:26.000Z</Time>
            <Position>
              <LatitudeDegrees>-49.22695219516754150390625</LatitudeDegrees>
              <LongitudeDegrees>-73.05210401304066181182861328125</LongitudeDegrees>
            </Position>
            <AltitudeMeters>713.5999755859375</AltitudeMeters>
            <DistanceMeters>4622.1250834288</DistanceMeters>
          </Trackpoint>
          <Trackpoint>
            <Time>2023-01-11T15:56:28.000Z</Time>
            <Position>
              <LatitudeDegrees>-49.22695219516754150390625</LatitudeDegrees>
              <LongitudeDegrees>-73.05210493505001068115234375</LongitudeDegrees>
            </Position>
            <AltitudeMeters>713</AltitudeMeters>
            <DistanceMeters>4622.259471497</DistanceMeters>
          </Trackpoint>
          <Trackpoint>
            <Time>2023-01-11T15:56:35.000Z</Time>
            <Position>
              <LatitudeDegrees>-49.22695219516754150390625</LatitudeDegrees>
              <LongitudeDegrees>-73.05210493505001068115234375</LongitudeDegrees>
            </Position>
            <AltitudeMeters>713.20001220703125</AltitudeMeters>
            <DistanceMeters>4622.3544982114</DistanceMeters>
          </Trackpoint>
          <Trackpoint>
            <Time>2023-01-11T15:56:40.000Z</Time>
            <Position>
              <LatitudeDegrees>-49.22695219516754150390625</LatitudeDegrees>
              <LongitudeDegrees>-73.0521047674119472503662109375</LongitudeDegrees>
            </Position>
            <AltitudeMeters>713.20001220703125</AltitudeMeters>
            <DistanceMeters>4622.4495249258</DistanceMeters>
          </Trackpoint>
          <Trackpoint>
            <Time>2023-01-11T15:56:44.000Z</Time>
            <Position>
              <LatitudeDegrees>-49.22695219516754150390625</LatitudeDegrees>
              <LongitudeDegrees>-73.0521047674119472503662109375</LongitudeDegrees>
            </Position>
            <AltitudeMeters>714</AltitudeMeters>
            <DistanceMeters>4622.5445516402</DistanceMeters>
          </Trackpoint>
          <Trackpoint>
            <Time>2023-01-11T15:56:53.000Z</Time>
            <Position>
              <LatitudeDegrees>-49.226963929831981658935546875</LatitudeDegrees>
              <LongitudeDegrees>-73.0521181784570217132568359375</LongitudeDegrees>
            </Position>
            <AltitudeMeters>715.4000244140625</AltitudeMeters>
            <DistanceMeters>4624.1739203751</DistanceMeters>
          </Trackpoint>
          <Trackpoint>
            <Time>2023-01-11T15:56:57.000Z</Time>
            <Position>
              <LatitudeDegrees>-49.22701321542263031005859375</LatitudeDegrees>
              <LongitudeDegrees>-73.05216520093381404876708984375</LongitudeDegrees>
            </Position>
            <AltitudeMeters>715.79998779296875</AltitudeMeters>
            <DistanceMeters>4630.6371342529</DistanceMeters>
          </Trackpoint>
          <Trackpoint>
            <Time>2023-01-11T15:57:01.000Z</Time>
            <Position>
              <LatitudeDegrees>-49.227059148252010345458984375</LatitudeDegrees>
              <LongitudeDegrees>-73.05221490561962127685546875</LongitudeDegrees>
            </Position>
            <AltitudeMeters>716.79998779296875</AltitudeMeters>
            <DistanceMeters>4636.8966471485</DistanceMeters>
          </Trackpoint>
          <Trackpoint>
            <Time>2023-01-11T15:57:06.000Z</Time>
            <Position>
              <LatitudeDegrees>-49.22708622179925441741943359375</LatitudeDegrees>
              <LongitudeDegrees>-73.0522667057812213897705078125</LongitudeDegrees>
            </Position>
            <AltitudeMeters>717</AltitudeMeters>
            <DistanceMeters>4641.7196624833</DistanceMeters>
          </Trackpoint>
          <Trackpoint>
            <Time>2023-01-11T15:57:09.000Z</Time>
            <Position>
              <LatitudeDegrees>-49.2270854674279689788818359375</LatitudeDegrees>
              <LongitudeDegrees>-73.0522737465798854827880859375</LongitudeDegrees>
            </Position>
            <AltitudeMeters>717</AltitudeMeters>
            <DistanceMeters>4642.2401452336</DistanceMeters>
          </Trackpoint>
          <Trackpoint>
            <Time>2023-01-11T15:57:11.000Z</Time>
            <Position>
              <LatitudeDegrees>-49.2270767502486705780029296875</LatitudeDegrees>
              <LongitudeDegrees>-73.05226360447704792022705078125</LongitudeDegrees>
            </Position>
            <AltitudeMeters>716.5999755859375</AltitudeMeters>
            <DistanceMeters>4643.4570809495</DistanceMeters>
          </Trackpoint>
          <Trackpoint>
            <Time>2023-01-11T15:57:15.000Z</Time>
            <Position>
              <LatitudeDegrees>-49.22708940692245960235595703125</LatitudeDegrees>
              <LongitudeDegrees>-73.05227969773113727569580078125</LongitudeDegrees>
            </Position>
            <AltitudeMeters>716.5999755859375</AltitudeMeters>
            <DistanceMeters>4645.2898898422</DistanceMeters>
          </Trackpoint>
          <Trackpoint>
            <Time>2023-01-11T15:57:19.000Z</Time>
            <Position>
              <LatitudeDegrees>-49.2271086014807224273681640625</LatitudeDegrees>
              <LongitudeDegrees>-73.05229210294783115386962890625</LongitudeDegrees>
            </Position>
            <AltitudeMeters>718</AltitudeMeters>
            <DistanceMeters>4647.6097875901</DistanceMeters>
          </Trackpoint>
          <Trackpoint>
            <Time>2023-01-11T15:57:22.000Z</Time>
            <Position>
              <LatitudeDegrees>-49.2271260358393192291259765625</LatitudeDegrees>
              <LongitudeDegrees>-73.0522854812443256378173828125</LongitudeDegrees>
            </Position>
            <AltitudeMeters>718.5999755859375</AltitudeMeters>
            <DistanceMeters>4649.6076098515</DistanceMeters>
          </Trackpoint>
          <Trackpoint>
            <Time>2023-01-11T15:57:26.000Z</Time>
            <Position>
              <LatitudeDegrees>-49.22716383822262287139892578125</LatitudeDegrees>
              <LongitudeDegrees>-73.0523133091628551483154296875</LongitudeDegrees>
            </Position>
            <AltitudeMeters>718.79998779296875</AltitudeMeters>
            <DistanceMeters>4654.2765074233</DistanceMeters>
          </Trackpoint>
          <Trackpoint>
            <Time>2023-01-11T15:57:29.000Z</Time>
            <Position>
              <LatitudeDegrees>-49.2271850444376468658447265625</LatitudeDegrees>
              <LongitudeDegrees>-73.052326552569866180419921875</LongitudeDegrees>
            </Position>
            <AltitudeMeters>719.4000244140625</AltitudeMeters>
            <DistanceMeters>4656.8263417394</DistanceMeters>
          </Trackpoint>
          <Trackpoint>
            <Time>2023-01-11T15:57:34.000Z</Time>
            <Position>
              <LatitudeDegrees>-49.22722502611577510833740234375</LatitudeDegrees>
              <LongitudeDegrees>-73.0523696355521678924560546875</LongitudeDegrees>
            </Position>
            <AltitudeMeters>718.5999755859375</AltitudeMeters>
            <DistanceMeters>4662.2678140273</DistanceMeters>
          </Trackpoint>
          <Trackpoint>
            <Time>2023-01-11T15:57:38.000Z</Time>
            <Position>
              <LatitudeDegrees>-49.22724346630275249481201171875</LatitudeDegrees>
              <LongitudeDegrees>-73.05236536078155040740966796875</LongitudeDegrees>
            </Position>
            <AltitudeMeters>719</AltitudeMeters>
            <DistanceMeters>4664.3410521678</DistanceMeters>
          </Trackpoint>
          <Trackpoint>
            <Time>2023-01-11T15:57:40.000Z</Time>
            <Position>
              <LatitudeDegrees>-49.2272527702152729034423828125</LatitudeDegrees>
              <LongitudeDegrees>-73.05236217565834522247314453125</LongitudeDegrees>
            </Position>
            <AltitudeMeters>719.20001220703125</AltitudeMeters>
            <DistanceMeters>4665.3992248754</DistanceMeters>
          </Trackpoint>
          <Trackpoint>
            <Time>2023-01-11T15:57:44.000Z</Time>
            <Position>
              <LatitudeDegrees>-49.22727095894515514373779296875</LatitudeDegrees>
              <LongitudeDegrees>-73.0523537099361419677734375</LongitudeDegrees>
            </Position>
            <AltitudeMeters>718.4000244140625</AltitudeMeters>
            <DistanceMeters>4667.5155702905</DistanceMeters>
          </Trackpoint>
          <Trackpoint>
            <Time>2023-01-11T15:57:45.000Z</Time>
            <Position>
              <LatitudeDegrees>-49.22727565281093120574951171875</LatitudeDegrees>
              <LongitudeDegrees>-73.052360080182552337646484375</LongitudeDegrees>
            </Position>
            <AltitudeMeters>718.20001220703125</AltitudeMeters>
            <DistanceMeters>4668.213871177</DistanceMeters>
          </Trackpoint>
          <Trackpoint>
            <Time>2023-01-11T15:57:48.000Z</Time>
            <Position>
              <LatitudeDegrees>-49.22728671692311763763427734375</LatitudeDegrees>
              <LongitudeDegrees>-73.05237717926502227783203125</LongitudeDegrees>
            </Position>
            <AltitudeMeters>718.4000244140625</AltitudeMeters>
            <DistanceMeters>4669.9660772125</DistanceMeters>
          </Trackpoint>
          <Trackpoint>
            <Time>2023-01-11T15:57:52.000Z</Time>
            <Position>
              <LatitudeDegrees>-49.22730021178722381591796875</LatitudeDegrees>
              <LongitudeDegrees>-73.05239302106201648712158203125</LongitudeDegrees>
            </Position>
            <AltitudeMeters>719.4000244140625</AltitudeMeters>
            <DistanceMeters>4671.8570849522</DistanceMeters>
          </Trackpoint>
          <Trackpoint>
            <Time>2023-01-11T15:57:54.000Z</Time>
            <Position>
              <LatitudeDegrees>-49.227303899824619293212890625</LatitudeDegrees>
              <LongitudeDegrees>-73.0523941107094287872314453125</LongitudeDegrees>
            </Position>
            <AltitudeMeters>721.4000244140625</AltitudeMeters>
            <DistanceMeters>4672.2820573383</DistanceMeters>
          </Trackpoint>
          <Trackpoint>
            <Time>2023-01-11T15:57:58.000Z</Time>
            <Position>
              <LatitudeDegrees>-49.22729945741593837738037109375</LatitudeDegrees>
              <LongitudeDegrees>-73.0524071864783763885498046875</LongitudeDegrees>
            </Position>
            <AltitudeMeters>721.79998779296875</AltitudeMeters>
            <DistanceMeters>4673.3571618843</DistanceMeters>
          </Trackpoint>
          <Trackpoint>
            <Time>2023-01-11T15:58:00.000Z</Time>
            <Position>
              <LatitudeDegrees>-49.2272990383207798004150390625</LatitudeDegrees>
              <LongitudeDegrees>-73.05240743793547153472900390625</LongitudeDegrees>
            </Position>
            <AltitudeMeters>721.79998779296875</AltitudeMeters>
            <DistanceMeters>4673.3571618843</DistanceMeters>
          </Trackpoint>
          <Trackpoint>
            <Time>2023-01-11T15:58:01.000Z</Time>
            <Position>
              <LatitudeDegrees>-49.2272990383207798004150390625</LatitudeDegrees>
              <LongitudeDegrees>-73.05240743793547153472900390625</LongitudeDegrees>
            </Position>
            <AltitudeMeters>719.20001220703125</AltitudeMeters>
            <DistanceMeters>4673.3571618843</DistanceMeters>
          </Trackpoint>
          <Trackpoint>
            <Time>2023-01-11T15:58:04.000Z</Time>
            <Position>
              <LatitudeDegrees>-49.2272990383207798004150390625</LatitudeDegrees>
              <LongitudeDegrees>-73.05240743793547153472900390625</LongitudeDegrees>
            </Position>
            <AltitudeMeters>720.4000244140625</AltitudeMeters>
            <DistanceMeters>4673.3571618843</DistanceMeters>
          </Trackpoint>
          <Trackpoint>
            <Time>2023-01-11T15:58:06.000Z</Time>
            <Position>
              <LatitudeDegrees>-49.2272990383207798004150390625</LatitudeDegrees>
              <LongitudeDegrees>-73.05240743793547153472900390625</LongitudeDegrees>
            </Position>
            <AltitudeMeters>722.4000244140625</AltitudeMeters>
            <DistanceMeters>4673.3571618843</DistanceMeters>
          </Trackpoint>
          <Trackpoint>
            <Time>2023-01-11T15:58:12.000Z</Time>
            <Position>
              <LatitudeDegrees>-49.22730146907269954681396484375</LatitudeDegrees>
              <LongitudeDegrees>-73.05240224115550518035888671875</LongitudeDegrees>
            </Position>
            <AltitudeMeters>722.4000244140625</AltitudeMeters>
            <DistanceMeters>4673.8226958085</DistanceMeters>
          </Trackpoint>
          <Trackpoint>
            <Time>2023-01-11T15:58:24.000Z</Time>
            <Position>
              <LatitudeDegrees>-49.2273208312690258026123046875</LatitudeDegrees>
              <LongitudeDegrees>-73.05240408517420291900634765625</LongitudeDegrees>
            </Position>
            <AltitudeMeters>721</AltitudeMeters>
            <DistanceMeters>4675.9812878138</DistanceMeters>
          </Trackpoint>
          <Trackpoint>
            <Time>2023-01-11T15:58:25.000Z</Time>
            <Position>
              <LatitudeDegrees>-49.22733700834214687347412109375</LatitudeDegrees>
              <LongitudeDegrees>-73.05240894667804241180419921875</LongitudeDegrees>
            </Position>
            <AltitudeMeters>721</AltitudeMeters>
            <DistanceMeters>4677.816558506</DistanceMeters>
          </Trackpoint>
          <Trackpoint>
            <Time>2023-01-11T15:58:30.000Z</Time>
            <Position>
              <LatitudeDegrees>-49.227419234812259674072265625</LatitudeDegrees>
              <LongitudeDegrees>-73.05241338908672332763671875</LongitudeDegrees>
            </Position>
            <AltitudeMeters>721</AltitudeMeters>
            <DistanceMeters>4686.9741957523</DistanceMeters>
          </Trackpoint>
          <Trackpoint>
            <Time>2023-01-11T15:58:36.000Z</Time>
            <Position>
              <LatitudeDegrees>-49.22746910713613033294677734375</LatitudeDegrees>
              <LongitudeDegrees>-73.05241313762962818145751953125</LongitudeDegrees>
            </Position>
            <AltitudeMeters>722</AltitudeMeters>
            <DistanceMeters>4692.5249273101</DistanceMeters>
          </Trackpoint>
          <Trackpoint>
            <Time>2023-01-11T15:58:41.000Z</Time>
            <Position>
              <LatitudeDegrees>-49.22748100943863391876220703125</LatitudeDegrees>
              <LongitudeDegrees>-73.05244079791009426116943359375</LongitudeDegrees>
            </Position>
            <AltitudeMeters>721.79998779296875</AltitudeMeters>
            <DistanceMeters>4694.9326874885</DistanceMeters>
          </Trackpoint>
          <Trackpoint>
            <Time>2023-01-11T15:58:49.000Z</Time>
            <Position>
              <LatitudeDegrees>-49.2274864576756954193115234375</LatitudeDegrees>
              <LongitudeDegrees>-73.0524556338787078857421875</LongitudeDegrees>
            </Position>
            <AltitudeMeters>721.20001220703125</AltitudeMeters>
            <DistanceMeters>4696.1716842583</DistanceMeters>
          </Trackpoint>
          <Trackpoint>
            <Time>2023-01-11T15:58:56.000Z</Time>
            <Position>
              <LatitudeDegrees>-49.2274864576756954193115234375</LatitudeDegrees>
              <LongitudeDegrees>-73.0524556338787078857421875</LongitudeDegrees>
            </Position>
            <AltitudeMeters>720.79998779296875</AltitudeMeters>
            <DistanceMeters>4696.1716842583</DistanceMeters>
          </Trackpoint>
          <Trackpoint>
            <Time>2023-01-11T15:59:13.000Z</Time>
            <Position>
              <LatitudeDegrees>-49.2274686880409717559814453125</LatitudeDegrees>
              <LongitudeDegrees>-73.05247734300792217254638671875</LongitudeDegrees>
            </Position>
            <AltitudeMeters>721.4000244140625</AltitudeMeters>
            <DistanceMeters>4698.7001806736</DistanceMeters>
          </Trackpoint>
          <Trackpoint>
            <Time>2023-01-11T15:59:15.000Z</Time>
            <Position>
              <LatitudeDegrees>-49.22746676020324230194091796875</LatitudeDegrees>
              <LongitudeDegrees>-73.052477426826953887939453125</LongitudeDegrees>
            </Position>
            <AltitudeMeters>721.5999755859375</AltitudeMeters>
            <DistanceMeters>4698.8902341024</DistanceMeters>
          </Trackpoint>
          <Trackpoint>
            <Time>2023-01-11T15:59:18.000Z</Time>
            <Position>
              <LatitudeDegrees>-49.22746516764163970947265625</LatitudeDegrees>
              <LongitudeDegrees>-73.052477426826953887939453125</LongitudeDegrees>
            </Position>
            <AltitudeMeters>722.20001220703125</AltitudeMeters>
            <DistanceMeters>4699.0802875311</DistanceMeters>
          </Trackpoint>
          <Trackpoint>
            <Time>2023-01-11T15:59:24.000Z</Time>
            <Position>
              <LatitudeDegrees>-49.22750213183462619781494140625</LatitudeDegrees>
              <LongitudeDegrees>-73.05251254700124263763427734375</LongitudeDegrees>
            </Position>
            <AltitudeMeters>721.79998779296875</AltitudeMeters>
            <DistanceMeters>4703.9219895509</DistanceMeters>
          </Trackpoint>
          <Trackpoint>
            <Time>2023-01-11T15:59:27.000Z</Time>
            <Position>
              <LatitudeDegrees>-49.22753213904798030853271484375</LatitudeDegrees>
              <LongitudeDegrees>-73.05252109654247760772705078125</LongitudeDegrees>
            </Position>
            <AltitudeMeters>722</AltitudeMeters>
            <DistanceMeters>4707.3191115233</DistanceMeters>
          </Trackpoint>
          <Trackpoint>
            <Time>2023-01-11T15:59:31.000Z</Time>
            <Position>
              <LatitudeDegrees>-49.2275749705731868743896484375</LatitudeDegrees>
              <LongitudeDegrees>-73.0525412969291210174560546875</LongitudeDegrees>
            </Position>
            <AltitudeMeters>722</AltitudeMeters>
            <DistanceMeters>4712.3077877685</DistanceMeters>
          </Trackpoint>
          <Trackpoint>
            <Time>2023-01-11T15:59:38.000Z</Time>
            <Position>
              <LatitudeDegrees>-49.22761947847902774810791015625</LatitudeDegrees>
              <LongitudeDegrees>-73.05250047706067562103271484375</LongitudeDegrees>
            </Position>
            <AltitudeMeters>722.20001220703125</AltitudeMeters>
            <DistanceMeters>4718.0833485537</DistanceMeters>
          </Trackpoint>
          <Trackpoint>
            <Time>2023-01-11T15:59:41.000Z</Time>
            <Position>
              <LatitudeDegrees>-49.2276530899107456207275390625</LatitudeDegrees>
              <LongitudeDegrees>-73.05250869132578372955322265625</LongitudeDegrees>
            </Position>
            <AltitudeMeters>723.5999755859375</AltitudeMeters>
            <DistanceMeters>4721.8725201711</DistanceMeters>
          </Trackpoint>
          <Trackpoint>
            <Time>2023-01-11T15:59:44.000Z</Time>
            <Position>
              <LatitudeDegrees>-49.2276705242693424224853515625</LatitudeDegrees>
              <LongitudeDegrees>-73.05250651203095912933349609375</LongitudeDegrees>
            </Position>
            <AltitudeMeters>723.5999755859375</AltitudeMeters>
            <DistanceMeters>4723.8199882983</DistanceMeters>
          </Trackpoint>
          <Trackpoint>
            <Time>2023-01-11T15:59:52.000Z</Time>
            <Position>
              <LatitudeDegrees>-49.22772936522960662841796875</LatitudeDegrees>
              <LongitudeDegrees>-73.05252679623663425445556640625</LongitudeDegrees>
            </Position>
            <AltitudeMeters>724.4000244140625</AltitudeMeters>
            <DistanceMeters>4730.5326689443</DistanceMeters>
          </Trackpoint>
          <Trackpoint>
            <Time>2023-01-11T15:59:53.000Z</Time>
            <Position>
              <LatitudeDegrees>-49.22773531638085842132568359375</LatitudeDegrees>
              <LongitudeDegrees>-73.0525252036750316619873046875</LongitudeDegrees>
            </Position>
            <AltitudeMeters>724.5999755859375</AltitudeMeters>
            <DistanceMeters>4731.2046092856</DistanceMeters>
          </Trackpoint>
          <Trackpoint>
            <Time>2023-01-11T16:00:00.000Z</Time>
            <Position>
              <LatitudeDegrees>-49.2277707718312740325927734375</LatitudeDegrees>
              <LongitudeDegrees>-73.05257943458855152130126953125</LongitudeDegrees>
            </Position>
            <AltitudeMeters>725.79998779296875</AltitudeMeters>
            <DistanceMeters>4736.7829283358</DistanceMeters>
          </Trackpoint>
          <Trackpoint>
            <Time>2023-01-11T16:00:01.000Z</Time>
            <Position>
              <LatitudeDegrees>-49.2277754656970500946044921875</LatitudeDegrees>
              <LongitudeDegrees>-73.0525889061391353607177734375</LongitudeDegrees>
            </Position>
            <AltitudeMeters>726</AltitudeMeters>
            <DistanceMeters>4737.6486629053</DistanceMeters>
          </Trackpoint>
          <Trackpoint>
            <Time>2023-01-11T16:00:06.000Z</Time>
            <Position>
              <LatitudeDegrees>-49.2278120107948780059814453125</LatitudeDegrees>
              <LongitudeDegrees>-73.0525936000049114227294921875</LongitudeDegrees>
            </Position>
            <AltitudeMeters>727</AltitudeMeters>
            <DistanceMeters>4741.7314953921</DistanceMeters>
          </Trackpoint>
          <Trackpoint>
            <Time>2023-01-11T16:00:09.000Z</Time>
            <Position>
              <LatitudeDegrees>-49.22783757559955120086669921875</LatitudeDegrees>
              <LongitudeDegrees>-73.05259569548070430755615234375</LongitudeDegrees>
            </Position>
            <AltitudeMeters>727</AltitudeMeters>
            <DistanceMeters>4744.5822968232</DistanceMeters>
          </Trackpoint>
          <Trackpoint>
            <Time>2023-01-11T16:00:18.000Z</Time>
            <Position>
              <LatitudeDegrees>-49.22789993695914745330810546875</LatitudeDegrees>
              <LongitudeDegrees>-73.0525842122733592987060546875</LongitudeDegrees>
            </Position>
            <AltitudeMeters>726.4000244140625</AltitudeMeters>
            <DistanceMeters>4751.5730602804</DistanceMeters>
          </Trackpoint>
          <Trackpoint>
            <Time>2023-01-11T16:00:24.000Z</Time>
            <Position>
              <LatitudeDegrees>-49.227918125689029693603515625</LatitudeDegrees>
              <LongitudeDegrees>-73.05257105268537998199462890625</LongitudeDegrees>
            </Position>
            <AltitudeMeters>726.79998779296875</AltitudeMeters>
            <DistanceMeters>4753.8137571593</DistanceMeters>
          </Trackpoint>
          <Trackpoint>
            <Time>2023-01-11T16:00:25.000Z</Time>
            <Position>
              <LatitudeDegrees>-49.2279219813644886016845703125</LatitudeDegrees>
              <LongitudeDegrees>-73.05256367661058902740478515625</LongitudeDegrees>
            </Position>
            <AltitudeMeters>726.4000244140625</AltitudeMeters>
            <DistanceMeters>4754.4990045417</DistanceMeters>
          </Trackpoint>
          <Trackpoint>
            <Time>2023-01-11T16:00:33.000Z</Time>
            <Position>
              <LatitudeDegrees>-49.22795995138585567474365234375</LatitudeDegrees>
              <LongitudeDegrees>-73.05256619118154048919677734375</LongitudeDegrees>
            </Position>
            <AltitudeMeters>726.79998779296875</AltitudeMeters>
            <DistanceMeters>4758.7284940423</DistanceMeters>
          </Trackpoint>
          <Trackpoint>
            <Time>2023-01-11T16:00:37.000Z</Time>
            <Position>
              <LatitudeDegrees>-49.22797453589737415313720703125</LatitudeDegrees>
              <LongitudeDegrees>-73.05259334854781627655029296875</LongitudeDegrees>
            </Position>
            <AltitudeMeters>726.5999755859375</AltitudeMeters>
            <DistanceMeters>4761.2854014214</DistanceMeters>
          </Trackpoint>
          <Trackpoint>
            <Time>2023-01-11T16:00:40.000Z</Time>
            <Position>
              <LatitudeDegrees>-49.2279856838285923004150390625</LatitudeDegrees>
              <LongitudeDegrees>-73.05262335576117038726806640625</LongitudeDegrees>
            </Position>
            <AltitudeMeters>726.5999755859375</AltitudeMeters>
            <DistanceMeters>4763.7923783269</DistanceMeters>
          </Trackpoint>
          <Trackpoint>
            <Time>2023-01-11T16:00:48.000Z</Time>
            <Position>
              <LatitudeDegrees>-49.22802264802157878875732421875</LatitudeDegrees>
              <LongitudeDegrees>-73.0527079291641712188720703125</LongitudeDegrees>
            </Position>
            <AltitudeMeters>727</AltitudeMeters>
            <DistanceMeters>4771.1898281071</DistanceMeters>
          </Trackpoint>
          <Trackpoint>
            <Time>2023-01-11T16:00:57.000Z</Time>
            <Position>
              <LatitudeDegrees>-49.228072352707386016845703125</LatitudeDegrees>
              <LongitudeDegrees>-73.052751012146472930908203125</LongitudeDegrees>
            </Position>
            <AltitudeMeters>728</AltitudeMeters>
            <DistanceMeters>4777.5473922761</DistanceMeters>
          </Trackpoint>
          <Trackpoint>
            <Time>2023-01-11T16:00:59.000Z</Time>
            <Position>
              <LatitudeDegrees>-49.22808744013309478759765625</LatitudeDegrees>
              <LongitudeDegrees>-73.052767775952816009521484375</LongitudeDegrees>
            </Position>
            <AltitudeMeters>728</AltitudeMeters>
            <DistanceMeters>4779.6228070452</DistanceMeters>
          </Trackpoint>
          <Trackpoint>
            <Time>2023-01-11T16:01:06.000Z</Time>
            <Position>
              <LatitudeDegrees>-49.228124655783176422119140625</LatitudeDegrees>
              <LongitudeDegrees>-73.052841536700725555419921875</LongitudeDegrees>
            </Position>
            <AltitudeMeters>728.5999755859375</AltitudeMeters>
            <DistanceMeters>4786.3977519575</DistanceMeters>
          </Trackpoint>
          <Trackpoint>
            <Time>2023-01-11T16:01:07.000Z</Time>
            <Position>
              <LatitudeDegrees>-49.22812758944928646087646484375</LatitudeDegrees>
              <LongitudeDegrees>-73.05284949950873851776123046875</LongitudeDegrees>
            </Position>
            <AltitudeMeters>728.5999755859375</AltitudeMeters>
            <DistanceMeters>4787.056116347</DistanceMeters>
          </Trackpoint>
          <Trackpoint>
            <Time>2023-01-11T16:01:09.000Z</Time>
            <Position>
              <LatitudeDegrees>-49.2281368933618068695068359375</LatitudeDegrees>
              <LongitudeDegrees>-73.05286710150539875030517578125</LongitudeDegrees>
            </Position>
            <AltitudeMeters>728.79998779296875</AltitudeMeters>
            <DistanceMeters>4788.7047682234</DistanceMeters>
          </Trackpoint>
          <Trackpoint>
            <Time>2023-01-11T16:01:12.000Z</Time>
            <Position>
              <LatitudeDegrees>-49.228151142597198486328125</LatitudeDegrees>
              <LongitudeDegrees>-73.0528769083321094512939453125</LongitudeDegrees>
            </Position>
            <AltitudeMeters>729</AltitudeMeters>
            <DistanceMeters>4790.44663667</DistanceMeters>
          </Trackpoint>
          <Trackpoint>
            <Time>2023-01-11T16:01:16.000Z</Time>
            <Position>
              <LatitudeDegrees>-49.22817670740187168121337890625</LatitudeDegrees>
              <LongitudeDegrees>-73.052903898060321807861328125</LongitudeDegrees>
            </Position>
            <AltitudeMeters>729.79998779296875</AltitudeMeters>
            <DistanceMeters>4793.9030497146</DistanceMeters>
          </Trackpoint>
          <Trackpoint>
            <Time>2023-01-11T16:01:20.000Z</Time>
            <Position>
              <LatitudeDegrees>-49.2281952314078807830810546875</LatitudeDegrees>
              <LongitudeDegrees>-73.05293130688369274139404296875</LongitudeDegrees>
            </Position>
            <AltitudeMeters>730.20001220703125</AltitudeMeters>
            <DistanceMeters>4796.7696451803</DistanceMeters>
          </Trackpoint>
          <Trackpoint>
            <Time>2023-01-11T16:01:23.000Z</Time>
            <Position>
              <LatitudeDegrees>-49.22819799743592739105224609375</LatitudeDegrees>
              <LongitudeDegrees>-73.05295326747000217437744140625</LongitudeDegrees>
            </Position>
            <AltitudeMeters>731.4000244140625</AltitudeMeters>
            <DistanceMeters>4798.3934623873</DistanceMeters>
          </Trackpoint>
          <Trackpoint>
            <Time>2023-01-11T16:01:24.000Z</Time>
            <Position>
              <LatitudeDegrees>-49.22819749452173709869384765625</LatitudeDegrees>
              <LongitudeDegrees>-73.05295762605965137481689453125</LongitudeDegrees>
            </Position>
            <AltitudeMeters>731.5999755859375</AltitudeMeters>
            <DistanceMeters>4798.722644582</DistanceMeters>
          </Trackpoint>
          <Trackpoint>
            <Time>2023-01-11T16:01:31.000Z</Time>
            <Position>
              <LatitudeDegrees>-49.2281955666840076446533203125</LatitudeDegrees>
              <LongitudeDegrees>-73.0529533512890338897705078125</LongitudeDegrees>
            </Position>
            <AltitudeMeters>731.79998779296875</AltitudeMeters>
            <DistanceMeters>4799.0782019898</DistanceMeters>
          </Trackpoint>
          <Trackpoint>
            <Time>2023-01-11T16:01:54.000Z</Time>
            <Position>
              <LatitudeDegrees>-49.2282103188335895538330078125</LatitudeDegrees>
              <LongitudeDegrees>-73.0529711209237575531005859375</LongitudeDegrees>
            </Position>
            <AltitudeMeters>730.4000244140625</AltitudeMeters>
            <DistanceMeters>4801.1644658384</DistanceMeters>
          </Trackpoint>
          <Trackpoint>
            <Time>2023-01-11T16:01:55.000Z</Time>
            <Position>
              <LatitudeDegrees>-49.2282150126993656158447265625</LatitudeDegrees>
              <LongitudeDegrees>-73.05297589860856533050537109375</LongitudeDegrees>
            </Position>
            <AltitudeMeters>730.4000244140625</AltitudeMeters>
            <DistanceMeters>4801.7948017517</DistanceMeters>
          </Trackpoint>
          <Trackpoint>
            <Time>2023-01-11T16:02:04.000Z</Time>
            <Position>
              <LatitudeDegrees>-49.22822423279285430908203125</LatitudeDegrees>
              <LongitudeDegrees>-73.0530421994626522064208984375</LongitudeDegrees>
            </Position>
            <AltitudeMeters>731</AltitudeMeters>
            <DistanceMeters>4806.7215497137</DistanceMeters>
          </Trackpoint>
          <Trackpoint>
            <Time>2023-01-11T16:02:08.000Z</Time>
            <Position>
              <LatitudeDegrees>-49.228227250277996063232421875</LatitudeDegrees>
              <LongitudeDegrees>-73.05307161994278430938720703125</LongitudeDegrees>
            </Position>
            <AltitudeMeters>731.5999755859375</AltitudeMeters>
            <DistanceMeters>4808.884320991</DistanceMeters>
          </Trackpoint>
          <Trackpoint>
            <Time>2023-01-11T16:02:11.000Z</Time>
            <Position>
              <LatitudeDegrees>-49.22822833992540836334228515625</LatitudeDegrees>
              <LongitudeDegrees>-73.0530757270753383636474609375</LongitudeDegrees>
            </Position>
            <AltitudeMeters>732</AltitudeMeters>
            <DistanceMeters>4809.2135031857</DistanceMeters>
          </Trackpoint>
          <Trackpoint>
            <Time>2023-01-11T16:02:20.000Z</Time>
            <Position>
              <LatitudeDegrees>-49.228262789547443389892578125</LatitudeDegrees>
              <LongitudeDegrees>-73.05307589471340179443359375</LongitudeDegrees>
            </Position>
            <AltitudeMeters>733</AltitudeMeters>
            <DistanceMeters>4813.0476868604</DistanceMeters>
          </Trackpoint>
          <Trackpoint>
            <Time>2023-01-11T16:02:24.000Z</Time>
            <Position>
              <LatitudeDegrees>-49.22827192582190036773681640625</LatitudeDegrees>
              <LongitudeDegrees>-73.05307145230472087860107421875</LongitudeDegrees>
            </Position>
            <AltitudeMeters>734.79998779296875</AltitudeMeters>
            <DistanceMeters>4814.1143590836</DistanceMeters>
          </Trackpoint>
          <Trackpoint>
            <Time>2023-01-11T16:02:26.000Z</Time>
            <Position>
              <LatitudeDegrees>-49.2282723449170589447021484375</LatitudeDegrees>
              <LongitudeDegrees>-73.053062818944454193115234375</LongitudeDegrees>
            </Position>
            <AltitudeMeters>736</AltitudeMeters>
            <DistanceMeters>4814.7446949969</DistanceMeters>
          </Trackpoint>
          <Trackpoint>
            <Time>2023-01-11T16:02:29.000Z</Time>
            <Position>
              <LatitudeDegrees>-49.2282743565738201141357421875</LatitudeDegrees>
              <LongitudeDegrees>-73.05304328911006450653076171875</LongitudeDegrees>
            </Position>
            <AltitudeMeters>737.4000244140625</AltitudeMeters>
            <DistanceMeters>4816.1795669177</DistanceMeters>
          </Trackpoint>
          <Trackpoint>
            <Time>2023-01-11T16:02:33.000Z</Time>
            <Position>
              <LatitudeDegrees>-49.228276200592517852783203125</LatitudeDegrees>
              <LongitudeDegrees>-73.05304043926298618316650390625</LongitudeDegrees>
            </Position>
            <AltitudeMeters>738.5999755859375</AltitudeMeters>
            <DistanceMeters>4816.4800677737</DistanceMeters>
          </Trackpoint>
          <Trackpoint>
            <Time>2023-01-11T16:02:37.000Z</Time>
            <Position>
              <LatitudeDegrees>-49.22829086892306804656982421875</LatitudeDegrees>
              <LongitudeDegrees>-73.05304043926298618316650390625</LongitudeDegrees>
            </Position>
            <AltitudeMeters>740</AltitudeMeters>
            <DistanceMeters>4818.1149691858</DistanceMeters>
          </Trackpoint>
          <Trackpoint>
            <Time>2023-01-11T16:02:42.000Z</Time>
            <Position>
              <LatitudeDegrees>-49.2283129133284091949462890625</LatitudeDegrees>
              <LongitudeDegrees>-73.05304043926298618316650390625</LongitudeDegrees>
            </Position>
            <AltitudeMeters>741</AltitudeMeters>
            <DistanceMeters>4820.5691617187</DistanceMeters>
          </Trackpoint>
          <Trackpoint>
            <Time>2023-01-11T16:02:50.000Z</Time>
            <Position>
              <LatitudeDegrees>-49.22832104377448558807373046875</LatitudeDegrees>
              <LongitudeDegrees>-73.0530505813658237457275390625</LongitudeDegrees>
            </Position>
            <AltitudeMeters>740.79998779296875</AltitudeMeters>
            <DistanceMeters>4821.7407297361</DistanceMeters>
          </Trackpoint>
          <Trackpoint>
            <Time>2023-01-11T16:02:53.000Z</Time>
            <Position>
              <LatitudeDegrees>-49.2283226363360881805419921875</LatitudeDegrees>
              <LongitudeDegrees>-73.05305753834545612335205078125</LongitudeDegrees>
            </Position>
            <AltitudeMeters>740.5999755859375</AltitudeMeters>
            <DistanceMeters>4822.2782820091</DistanceMeters>
          </Trackpoint>
          <Trackpoint>
            <Time>2023-01-11T16:02:58.000Z</Time>
            <Position>
              <LatitudeDegrees>-49.2283353768289089202880859375</LatitudeDegrees>
              <LongitudeDegrees>-73.05306290276348590850830078125</LongitudeDegrees>
            </Position>
            <AltitudeMeters>740</AltitudeMeters>
            <DistanceMeters>4823.7504295379</DistanceMeters>
          </Trackpoint>
          <Trackpoint>
            <Time>2023-01-11T16:03:08.000Z</Time>
            <Position>
              <LatitudeDegrees>-49.228375442326068878173828125</LatitudeDegrees>
              <LongitudeDegrees>-73.05308704264461994171142578125</LongitudeDegrees>
            </Position>
            <AltitudeMeters>739.5999755859375</AltitudeMeters>
            <DistanceMeters>4828.5415102428</DistanceMeters>
          </Trackpoint>
          <Trackpoint>
            <Time>2023-01-11T16:03:16.000Z</Time>
            <Position>
              <LatitudeDegrees>-49.22839228995144367218017578125</LatitudeDegrees>
              <LongitudeDegrees>-73.053110428154468536376953125</LongitudeDegrees>
            </Position>
            <AltitudeMeters>738.5999755859375</AltitudeMeters>
            <DistanceMeters>4831.0700066581</DistanceMeters>
          </Trackpoint>
          <Trackpoint>
            <Time>2023-01-11T16:03:21.000Z</Time>
            <Position>
              <LatitudeDegrees>-49.228396229445934295654296875</LatitudeDegrees>
              <LongitudeDegrees>-73.0531173013150691986083984375</LongitudeDegrees>
            </Position>
            <AltitudeMeters>737.4000244140625</AltitudeMeters>
            <DistanceMeters>4831.7283710475</DistanceMeters>
          </Trackpoint>
          <Trackpoint>
            <Time>2023-01-11T16:03:28.000Z</Time>
            <Position>
              <LatitudeDegrees>-49.22840083949267864227294921875</LatitudeDegrees>
              <LongitudeDegrees>-73.0531176365911960601806640625</LongitudeDegrees>
            </Position>
            <AltitudeMeters>736.5999755859375</AltitudeMeters>
            <DistanceMeters>4832.2401055655</DistanceMeters>
          </Trackpoint>
          <Trackpoint>
            <Time>2023-01-11T16:03:29.000Z</Time>
            <Position>
              <LatitudeDegrees>-49.228401593863964080810546875</LatitudeDegrees>
              <LongitudeDegrees>-73.0531176365911960601806640625</LongitudeDegrees>
            </Position>
            <AltitudeMeters>736.5999755859375</AltitudeMeters>
            <DistanceMeters>4832.3351322799</DistanceMeters>
          </Trackpoint>
          <Trackpoint>
            <Time>2023-01-11T16:03:42.000Z</Time>
            <Position>
              <LatitudeDegrees>-49.22840394079685211181640625</LatitudeDegrees>
              <LongitudeDegrees>-73.05309860967099666595458984375</LongitudeDegrees>
            </Position>
            <AltitudeMeters>738.20001220703125</AltitudeMeters>
            <DistanceMeters>4833.7446062306</DistanceMeters>
          </Trackpoint>
          <Trackpoint>
            <Time>2023-01-11T16:03:51.000Z</Time>
            <Position>
              <LatitudeDegrees>-49.2284067906439304351806640625</LatitudeDegrees>
              <LongitudeDegrees>-73.05308251641690731048583984375</LongitudeDegrees>
            </Position>
            <AltitudeMeters>737.4000244140625</AltitudeMeters>
            <DistanceMeters>4834.9540988448</DistanceMeters>
          </Trackpoint>
          <Trackpoint>
            <Time>2023-01-11T16:04:00.000Z</Time>
            <Position>
              <LatitudeDegrees>-49.2284134961664676666259765625</LatitudeDegrees>
              <LongitudeDegrees>-73.05306893773376941680908203125</LongitudeDegrees>
            </Position>
            <AltitudeMeters>737.4000244140625</AltitudeMeters>
            <DistanceMeters>4836.1930956146</DistanceMeters>
          </Trackpoint>
          <Trackpoint>
            <Time>2023-01-11T16:04:06.000Z</Time>
            <Position>
              <LatitudeDegrees>-49.22841131687164306640625</LatitudeDegrees>
              <LongitudeDegrees>-73.0530542694032192230224609375</LongitudeDegrees>
            </Position>
            <AltitudeMeters>737.20001220703125</AltitudeMeters>
            <DistanceMeters>4837.2931093615</DistanceMeters>
          </Trackpoint>
          <Trackpoint>
            <Time>2023-01-11T16:04:16.000Z</Time>
            <Position>
              <LatitudeDegrees>-49.22841274179518222808837890625</LatitudeDegrees>
              <LongitudeDegrees>-73.05304010398685932159423828125</LongitudeDegrees>
            </Position>
            <AltitudeMeters>736.79998779296875</AltitudeMeters>
            <DistanceMeters>4838.3340748621</DistanceMeters>
          </Trackpoint>
          <Trackpoint>
            <Time>2023-01-11T16:04:23.000Z</Time>
            <Position>
              <LatitudeDegrees>-49.22841106541454792022705078125</LatitudeDegrees>
              <LongitudeDegrees>-73.0530385114252567291259765625</LongitudeDegrees>
            </Position>
            <AltitudeMeters>736.4000244140625</AltitudeMeters>
            <DistanceMeters>4838.5465610551</DistanceMeters>
          </Trackpoint>
          <Trackpoint>
            <Time>2023-01-11T16:04:41.000Z</Time>
            <Position>
              <LatitudeDegrees>-49.22840821556746959686279296875</LatitudeDegrees>
              <LongitudeDegrees>-73.053044714033603668212890625</LongitudeDegrees>
            </Position>
            <AltitudeMeters>735.79998779296875</AltitudeMeters>
            <DistanceMeters>4839.1006572553</DistanceMeters>
          </Trackpoint>
          <Trackpoint>
            <Time>2023-01-11T16:04:56.000Z</Time>
            <Position>
              <LatitudeDegrees>-49.22840653918683528900146484375</LatitudeDegrees>
              <LongitudeDegrees>-73.05304781533777713775634765625</LongitudeDegrees>
            </Position>
            <AltitudeMeters>735.4000244140625</AltitudeMeters>
            <DistanceMeters>4839.4011581113</DistanceMeters>
          </Trackpoint>
          <Trackpoint>
            <Time>2023-01-11T16:05:02.000Z</Time>
            <Position>
              <LatitudeDegrees>-49.22840637154877185821533203125</LatitudeDegrees>
              <LongitudeDegrees>-73.0530478991568088531494140625</LongitudeDegrees>
            </Position>
            <AltitudeMeters>735.20001220703125</AltitudeMeters>
            <DistanceMeters>4839.4011581113</DistanceMeters>
          </Trackpoint>
          <Trackpoint>
            <Time>2023-01-11T16:05:08.000Z</Time>
            <Position>
              <LatitudeDegrees>-49.228406287729740142822265625</LatitudeDegrees>
              <LongitudeDegrees>-73.05304798297584056854248046875</LongitudeDegrees>
            </Position>
            <AltitudeMeters>735.20001220703125</AltitudeMeters>
            <DistanceMeters>4839.4011581113</DistanceMeters>
          </Trackpoint>
          <Trackpoint>
            <Time>2023-01-11T16:05:28.000Z</Time>
            <Position>
              <LatitudeDegrees>-49.22840586863458156585693359375</LatitudeDegrees>
              <LongitudeDegrees>-73.0530482344329357147216796875</LongitudeDegrees>
            </Position>
            <AltitudeMeters>735</AltitudeMeters>
            <DistanceMeters>4839.4011581113</DistanceMeters>
          </Trackpoint>
          <Trackpoint>
            <Time>2023-01-11T16:24:34.000Z</Time>
            <Position>
              <LatitudeDegrees>-49.22839245758950710296630859375</LatitudeDegrees>
              <LongitudeDegrees>-73.0529858730733394622802734375</LongitudeDegrees>
            </Position>
            <AltitudeMeters>738.4000244140625</AltitudeMeters>
            <DistanceMeters>4844.1733539152</DistanceMeters>
          </Trackpoint>
          <Trackpoint>
            <Time>2023-01-11T16:24:37.000Z</Time>
            <Position>
              <LatitudeDegrees>-49.22839245758950710296630859375</LatitudeDegrees>
              <LongitudeDegrees>-73.0529858730733394622802734375</LongitudeDegrees>
            </Position>
            <AltitudeMeters>738.4000244140625</AltitudeMeters>
            <DistanceMeters>4844.1733539152</DistanceMeters>
          </Trackpoint>
          <Trackpoint>
            <Time>2023-01-11T16:36:12.000Z</Time>
            <Position>
              <LatitudeDegrees>-49.2284728400409221649169921875</LatitudeDegrees>
              <LongitudeDegrees>-73.05300774984061717987060546875</LongitudeDegrees>
            </Position>
            <AltitudeMeters>735.5999755859375</AltitudeMeters>
            <DistanceMeters>4853.260213604</DistanceMeters>
          </Trackpoint>
          <Trackpoint>
            <Time>2023-01-11T16:36:15.000Z</Time>
            <Position>
              <LatitudeDegrees>-49.2284718342125415802001953125</LatitudeDegrees>
              <LongitudeDegrees>-73.05300883948802947998046875</LongitudeDegrees>
            </Position>
            <AltitudeMeters>734.20001220703125</AltitudeMeters>
            <DistanceMeters>4853.3946016723</DistanceMeters>
          </Trackpoint>
          <Trackpoint>
            <Time>2023-01-11T16:36:20.000Z</Time>
            <Position>
              <LatitudeDegrees>-49.22845783643424510955810546875</LatitudeDegrees>
              <LongitudeDegrees>-73.05300347506999969482421875</LongitudeDegrees>
            </Position>
            <AltitudeMeters>733.5999755859375</AltitudeMeters>
            <DistanceMeters>4855.0016492332</DistanceMeters>
          </Trackpoint>
          <Trackpoint>
            <Time>2023-01-11T16:36:25.000Z</Time>
            <Position>
              <LatitudeDegrees>-49.22841332852840423583984375</LatitudeDegrees>
              <LongitudeDegrees>-73.0529976077377796173095703125</LongitudeDegrees>
            </Position>
            <AltitudeMeters>735.5999755859375</AltitudeMeters>
            <DistanceMeters>4859.9740077584</DistanceMeters>
          </Trackpoint>
          <Trackpoint>
            <Time>2023-01-11T16:36:27.000Z</Time>
            <Position>
              <LatitudeDegrees>-49.22840586863458156585693359375</LatitudeDegrees>
              <LongitudeDegrees>-73.05299165658652782440185546875</LongitudeDegrees>
            </Position>
            <AltitudeMeters>735.20001220703125</AltitudeMeters>
            <DistanceMeters>4860.9099123556</DistanceMeters>
          </Trackpoint>
          <Trackpoint>
            <Time>2023-01-11T16:36:30.000Z</Time>
            <Position>
              <LatitudeDegrees>-49.22837804071605205535888671875</LatitudeDegrees>
              <LongitudeDegrees>-73.05294488556683063507080078125</LongitudeDegrees>
            </Position>
            <AltitudeMeters>734.4000244140625</AltitudeMeters>
            <DistanceMeters>4865.5086555569</DistanceMeters>
          </Trackpoint>
          <Trackpoint>
            <Time>2023-01-11T16:36:31.000Z</Time>
            <Position>
              <LatitudeDegrees>-49.22836982645094394683837890625</LatitudeDegrees>
              <LongitudeDegrees>-73.05292979814112186431884765625</LongitudeDegrees>
            </Position>
            <AltitudeMeters>733.5999755859375</AltitudeMeters>
            <DistanceMeters>4866.9372203179</DistanceMeters>
          </Trackpoint>
          <Trackpoint>
            <Time>2023-01-11T16:36:32.000Z</Time>
            <Position>
              <LatitudeDegrees>-49.22836278565227985382080078125</LatitudeDegrees>
              <LongitudeDegrees>-73.0529168061912059783935546875</LongitudeDegrees>
            </Position>
            <AltitudeMeters>732.4000244140625</AltitudeMeters>
            <DistanceMeters>4868.1652361021</DistanceMeters>
          </Trackpoint>
          <Trackpoint>
            <Time>2023-01-11T16:36:33.000Z</Time>
            <Position>
              <LatitudeDegrees>-49.2283575050532817840576171875</LatitudeDegrees>
              <LongitudeDegrees>-73.05291068740189075469970703125</LongitudeDegrees>
            </Position>
            <AltitudeMeters>730.79998779296875</AltitudeMeters>
            <DistanceMeters>4868.9013098665</DistanceMeters>
          </Trackpoint>
          <Trackpoint>
            <Time>2023-01-11T16:36:37.000Z</Time>
            <Position>
              <LatitudeDegrees>-49.2283481173217296600341796875</LatitudeDegrees>
              <LongitudeDegrees>-73.0529057420790195465087890625</LongitudeDegrees>
            </Position>
            <AltitudeMeters>729.5999755859375</AltitudeMeters>
            <DistanceMeters>4870.0054205131</DistanceMeters>
          </Trackpoint>
          <Trackpoint>
            <Time>2023-01-11T16:36:40.000Z</Time>
            <Position>
              <LatitudeDegrees>-49.2283367179334163665771484375</LatitudeDegrees>
              <LongitudeDegrees>-73.05292678065598011016845703125</LongitudeDegrees>
            </Position>
            <AltitudeMeters>729</AltitudeMeters>
            <DistanceMeters>4871.9941823094</DistanceMeters>
          </Trackpoint>
          <Trackpoint>
            <Time>2023-01-11T16:36:42.000Z</Time>
            <Position>
              <LatitudeDegrees>-49.22832615673542022705078125</LatitudeDegrees>
              <LongitudeDegrees>-73.05292837321758270263671875</LongitudeDegrees>
            </Position>
            <AltitudeMeters>728.20001220703125</AltitudeMeters>
            <DistanceMeters>4873.1734328224</DistanceMeters>
          </Trackpoint>
          <Trackpoint>
            <Time>2023-01-11T16:36:44.000Z</Time>
            <Position>
              <LatitudeDegrees>-49.22833177261054515838623046875</LatitudeDegrees>
              <LongitudeDegrees>-73.0529419519007205963134765625</LongitudeDegrees>
            </Position>
            <AltitudeMeters>727.5999755859375</AltitudeMeters>
            <DistanceMeters>4874.3372676331</DistanceMeters>
          </Trackpoint>
          <Trackpoint>
            <Time>2023-01-11T16:36:47.000Z</Time>
            <Position>
              <LatitudeDegrees>-49.22832749783992767333984375</LatitudeDegrees>
              <LongitudeDegrees>-73.0529479868710041046142578125</LongitudeDegrees>
            </Position>
            <AltitudeMeters>727.20001220703125</AltitudeMeters>
            <DistanceMeters>4874.9817701671</DistanceMeters>
          </Trackpoint>
          <Trackpoint>
            <Time>2023-01-11T16:36:49.000Z</Time>
            <Position>
              <LatitudeDegrees>-49.22832749783992767333984375</LatitudeDegrees>
              <LongitudeDegrees>-73.0529479868710041046142578125</LongitudeDegrees>
            </Position>
            <AltitudeMeters>727.20001220703125</AltitudeMeters>
            <DistanceMeters>4874.9817701671</DistanceMeters>
          </Trackpoint>
          <Trackpoint>
            <Time>2023-01-11T16:36:53.000Z</Time>
            <Position>
              <LatitudeDegrees>-49.22832749783992767333984375</LatitudeDegrees>
              <LongitudeDegrees>-73.0529479868710041046142578125</LongitudeDegrees>
            </Position>
            <AltitudeMeters>727.4000244140625</AltitudeMeters>
            <DistanceMeters>4874.9817701671</DistanceMeters>
          </Trackpoint>
          <Trackpoint>
            <Time>2023-01-11T16:36:57.000Z</Time>
            <Position>
              <LatitudeDegrees>-49.22832749783992767333984375</LatitudeDegrees>
              <LongitudeDegrees>-73.0529479868710041046142578125</LongitudeDegrees>
            </Position>
            <AltitudeMeters>727.4000244140625</AltitudeMeters>
            <DistanceMeters>4874.9817701671</DistanceMeters>
          </Trackpoint>
          <Trackpoint>
            <Time>2023-01-11T16:36:59.000Z</Time>
            <Position>
              <LatitudeDegrees>-49.22832406125962734222412109375</LatitudeDegrees>
              <LongitudeDegrees>-73.052951507270336151123046875</LongitudeDegrees>
            </Position>
            <AltitudeMeters>726.79998779296875</AltitudeMeters>
            <DistanceMeters>4875.4473040914</DistanceMeters>
          </Trackpoint>
          <Trackpoint>
            <Time>2023-01-11T16:37:03.000Z</Time>
            <Position>
              <LatitudeDegrees>-49.22830226831138134002685546875</LatitudeDegrees>
              <LongitudeDegrees>-73.0530066601932048797607421875</LongitudeDegrees>
            </Position>
            <AltitudeMeters>726.5999755859375</AltitudeMeters>
            <DistanceMeters>4880.1316488438</DistanceMeters>
          </Trackpoint>
          <Trackpoint>
            <Time>2023-01-11T16:37:06.000Z</Time>
            <Position>
              <LatitudeDegrees>-49.22827879898250102996826171875</LatitudeDegrees>
              <LongitudeDegrees>-73.05301864631474018096923828125</LongitudeDegrees>
            </Position>
            <AltitudeMeters>726.5999755859375</AltitudeMeters>
            <DistanceMeters>4882.8857846815</DistanceMeters>
          </Trackpoint>
          <Trackpoint>
            <Time>2023-01-11T16:37:07.000Z</Time>
            <Position>
              <LatitudeDegrees>-49.2282756976783275604248046875</LatitudeDegrees>
              <LongitudeDegrees>-73.05302283726632595062255859375</LongitudeDegrees>
            </Position>
            <AltitudeMeters>726.5999755859375</AltitudeMeters>
            <DistanceMeters>4883.3513186058</DistanceMeters>
          </Trackpoint>
          <Trackpoint>
            <Time>2023-01-11T16:37:08.000Z</Time>
            <Position>
              <LatitudeDegrees>-49.22827108763158321380615234375</LatitudeDegrees>
              <LongitudeDegrees>-73.0530287884175777435302734375</LongitudeDegrees>
            </Position>
            <AltitudeMeters>726.5999755859375</AltitudeMeters>
            <DistanceMeters>4884.0232589471</DistanceMeters>
          </Trackpoint>
          <Trackpoint>
            <Time>2023-01-11T16:37:14.000Z</Time>
            <Position>
              <LatitudeDegrees>-49.2282227240502834320068359375</LatitudeDegrees>
              <LongitudeDegrees>-73.05298293940722942352294921875</LongitudeDegrees>
            </Position>
            <AltitudeMeters>727</AltitudeMeters>
            <DistanceMeters>4890.3537786144</DistanceMeters>
          </Trackpoint>
          <Trackpoint>
            <Time>2023-01-11T16:37:18.000Z</Time>
            <Position>
              <LatitudeDegrees>-49.22821174375712871551513671875</LatitudeDegrees>
              <LongitudeDegrees>-73.05295653641223907470703125</LongitudeDegrees>
            </Position>
            <AltitudeMeters>727.20001220703125</AltitudeMeters>
            <DistanceMeters>4892.6304568698</DistanceMeters>
          </Trackpoint>
          <Trackpoint>
            <Time>2023-01-11T16:37:19.000Z</Time>
            <Position>
              <LatitudeDegrees>-49.22820487059652805328369140625</LatitudeDegrees>
              <LongitudeDegrees>-73.05295159108936786651611328125</LongitudeDegrees>
            </Position>
            <AltitudeMeters>727.20001220703125</AltitudeMeters>
            <DistanceMeters>4893.4804016419</DistanceMeters>
          </Trackpoint>
          <Trackpoint>
            <Time>2023-01-11T16:37:24.000Z</Time>
            <Position>
              <LatitudeDegrees>-49.2281774617731571197509765625</LatitudeDegrees>
              <LongitudeDegrees>-73.05290297605097293853759765625</LongitudeDegrees>
            </Position>
            <AltitudeMeters>727.20001220703125</AltitudeMeters>
            <DistanceMeters>4898.1483320676</DistanceMeters>
          </Trackpoint>
          <Trackpoint>
            <Time>2023-01-11T16:37:26.000Z</Time>
            <Position>
              <LatitudeDegrees>-49.22816229052841663360595703125</LatitudeDegrees>
              <LongitudeDegrees>-73.05290599353611469268798828125</LongitudeDegrees>
            </Position>
            <AltitudeMeters>727.5999755859375</AltitudeMeters>
            <DistanceMeters>4899.8482216117</DistanceMeters>
          </Trackpoint>
          <Trackpoint>
            <Time>2023-01-11T16:37:32.000Z</Time>
            <Position>
              <LatitudeDegrees>-49.22815005294978618621826171875</LatitudeDegrees>
              <LongitudeDegrees>-73.052870370447635650634765625</LongitudeDegrees>
            </Position>
            <AltitudeMeters>726.20001220703125</AltitudeMeters>
            <DistanceMeters>4902.7740569571</DistanceMeters>
          </Trackpoint>
          <Trackpoint>
            <Time>2023-01-11T16:37:38.000Z</Time>
            <Position>
              <LatitudeDegrees>-49.22812256030738353729248046875</LatitudeDegrees>
              <LongitudeDegrees>-73.05281035602092742919921875</LongitudeDegrees>
            </Position>
            <AltitudeMeters>726.79998779296875</AltitudeMeters>
            <DistanceMeters>4908.102336261</DistanceMeters>
          </Trackpoint>
          <Trackpoint>
            <Time>2023-01-11T16:37:39.000Z</Time>
            <Position>
              <LatitudeDegrees>-49.22811501659452915191650390625</LatitudeDegrees>
              <LongitudeDegrees>-73.05280574597418308258056640625</LongitudeDegrees>
            </Position>
            <AltitudeMeters>726.79998779296875</AltitudeMeters>
            <DistanceMeters>4909.0038388289</DistanceMeters>
          </Trackpoint>
          <Trackpoint>
            <Time>2023-01-11T16:37:44.000Z</Time>
            <Position>
              <LatitudeDegrees>-49.228087775409221649169921875</LatitudeDegrees>
              <LongitudeDegrees>-73.05277506820857524871826171875</LongitudeDegrees>
            </Position>
            <AltitudeMeters>725.5999755859375</AltitudeMeters>
            <DistanceMeters>4912.7667047399</DistanceMeters>
          </Trackpoint>
          <Trackpoint>
            <Time>2023-01-11T16:37:47.000Z</Time>
            <Position>
              <LatitudeDegrees>-49.22807998023927211761474609375</LatitudeDegrees>
              <LongitudeDegrees>-73.05277909152209758758544921875</LongitudeDegrees>
            </Position>
            <AltitudeMeters>725.20001220703125</AltitudeMeters>
            <DistanceMeters>4913.6781689646</DistanceMeters>
          </Trackpoint>
          <Trackpoint>
            <Time>2023-01-11T16:37:56.000Z</Time>
            <Position>
              <LatitudeDegrees>-49.2280517332255840301513671875</LatitudeDegrees>
              <LongitudeDegrees>-73.05271622724831104278564453125</LongitudeDegrees>
            </Position>
            <AltitudeMeters>725</AltitudeMeters>
            <DistanceMeters>4919.2248319654</DistanceMeters>
          </Trackpoint>
          <Trackpoint>
            <Time>2023-01-11T16:38:00.000Z</Time>
            <Position>
              <LatitudeDegrees>-49.22802935354411602020263671875</LatitudeDegrees>
              <LongitudeDegrees>-73.05272377096116542816162109375</LongitudeDegrees>
            </Position>
            <AltitudeMeters>725.4000244140625</AltitudeMeters>
            <DistanceMeters>4921.7764363853</DistanceMeters>
          </Trackpoint>
          <Trackpoint>
            <Time>2023-01-11T16:38:02.000Z</Time>
            <Position>
              <LatitudeDegrees>-49.22802214510738849639892578125</LatitudeDegrees>
              <LongitudeDegrees>-73.0527005530893802642822265625</LongitudeDegrees>
            </Position>
            <AltitudeMeters>725</AltitudeMeters>
            <DistanceMeters>4923.6482455798</DistanceMeters>
          </Trackpoint>
          <Trackpoint>
            <Time>2023-01-11T16:38:03.000Z</Time>
            <Position>
              <LatitudeDegrees>-49.22802130691707134246826171875</LatitudeDegrees>
              <LongitudeDegrees>-73.052691332995891571044921875</LongitudeDegrees>
            </Position>
            <AltitudeMeters>723</AltitudeMeters>
            <DistanceMeters>4924.3334929622</DistanceMeters>
          </Trackpoint>
          <Trackpoint>
            <Time>2023-01-11T16:38:06.000Z</Time>
            <Position>
              <LatitudeDegrees>-49.22801258973777294158935546875</LatitudeDegrees>
              <LongitudeDegrees>-73.05266694165766239166259765625</LongitudeDegrees>
            </Position>
            <AltitudeMeters>722.20001220703125</AltitudeMeters>
            <DistanceMeters>4926.3537886219</DistanceMeters>
          </Trackpoint>
          <Trackpoint>
            <Time>2023-01-11T16:38:08.000Z</Time>
            <Position>
              <LatitudeDegrees>-49.22798928804695606231689453125</LatitudeDegrees>
              <LongitudeDegrees>-73.05267180316150188446044921875</LongitudeDegrees>
            </Position>
            <AltitudeMeters>724.4000244140625</AltitudeMeters>
            <DistanceMeters>4928.9700450972</DistanceMeters>
          </Trackpoint>
          <Trackpoint>
            <Time>2023-01-11T16:38:10.000Z</Time>
            <Position>
              <LatitudeDegrees>-49.2279739491641521453857421875</LatitudeDegrees>
              <LongitudeDegrees>-73.0526648461818695068359375</LongitudeDegrees>
            </Position>
            <AltitudeMeters>724.4000244140625</AltitudeMeters>
            <DistanceMeters>4930.7503700203</DistanceMeters>
          </Trackpoint>
          <Trackpoint>
            <Time>2023-01-11T16:38:12.000Z</Time>
            <Position>
              <LatitudeDegrees>-49.22797822393476963043212890625</LatitudeDegrees>
              <LongitudeDegrees>-73.05263743735849857330322265625</LongitudeDegrees>
            </Position>
            <AltitudeMeters>724.79998779296875</AltitudeMeters>
            <DistanceMeters>4932.801714853</DistanceMeters>
          </Trackpoint>
          <Trackpoint>
            <Time>2023-01-11T16:38:14.000Z</Time>
            <Position>
              <LatitudeDegrees>-49.22796866856515407562255859375</LatitudeDegrees>
              <LongitudeDegrees>-73.05259536020457744598388671875</LongitudeDegrees>
            </Position>
            <AltitudeMeters>722.5999755859375</AltitudeMeters>
            <DistanceMeters>4936.0396028609</DistanceMeters>
          </Trackpoint>
          <Trackpoint>
            <Time>2023-01-11T16:38:17.000Z</Time>
            <Position>
              <LatitudeDegrees>-49.22795894555747509002685546875</LatitudeDegrees>
              <LongitudeDegrees>-73.0525580607354640960693359375</LongitudeDegrees>
            </Position>
            <AltitudeMeters>722.79998779296875</AltitudeMeters>
            <DistanceMeters>4938.9577121951</DistanceMeters>
          </Trackpoint>
          <Trackpoint>
            <Time>2023-01-11T16:38:18.000Z</Time>
            <Position>
              <LatitudeDegrees>-49.22796296887099742889404296875</LatitudeDegrees>
              <LongitudeDegrees>-73.0525446496903896331787109375</LongitudeDegrees>
            </Position>
            <AltitudeMeters>724.4000244140625</AltitudeMeters>
            <DistanceMeters>4940.0328167411</DistanceMeters>
          </Trackpoint>
          <Trackpoint>
            <Time>2023-01-11T16:38:19.000Z</Time>
            <Position>
              <LatitudeDegrees>-49.22795508988201618194580078125</LatitudeDegrees>
              <LongitudeDegrees>-73.05253299884498119354248046875</LongitudeDegrees>
            </Position>
            <AltitudeMeters>724.4000244140625</AltitudeMeters>
            <DistanceMeters>4941.2534569884</DistanceMeters>
          </Trackpoint>
          <Trackpoint>
            <Time>2023-01-11T16:38:20.000Z</Time>
            <Position>
              <LatitudeDegrees>-49.22794737853109836578369140625</LatitudeDegrees>
              <LongitudeDegrees>-73.0525127984583377838134765625</LongitudeDegrees>
            </Position>
            <AltitudeMeters>723.79998779296875</AltitudeMeters>
            <DistanceMeters>4942.9586504129</DistanceMeters>
          </Trackpoint>
          <Trackpoint>
            <Time>2023-01-11T16:38:21.000Z</Time>
            <Position>
              <LatitudeDegrees>-49.22794251702725887298583984375</LatitudeDegrees>
              <LongitudeDegrees>-73.0524960346519947052001953125</LongitudeDegrees>
            </Position>
            <AltitudeMeters>724.4000244140625</AltitudeMeters>
            <DistanceMeters>4944.295794809</DistanceMeters>
          </Trackpoint>
          <Trackpoint>
            <Time>2023-01-11T16:38:22.000Z</Time>
            <Position>
              <LatitudeDegrees>-49.22793455421924591064453125</LatitudeDegrees>
              <LongitudeDegrees>-73.052492178976535797119140625</LongitudeDegrees>
            </Position>
            <AltitudeMeters>724.4000244140625</AltitudeMeters>
            <DistanceMeters>4945.2268626575</DistanceMeters>
          </Trackpoint>
          <Trackpoint>
            <Time>2023-01-11T16:38:26.000Z</Time>
            <Position>
              <LatitudeDegrees>-49.22791284509003162384033203125</LatitudeDegrees>
              <LongitudeDegrees>-73.0525292269885540008544921875</LongitudeDegrees>
            </Position>
            <AltitudeMeters>724.5999755859375</AltitudeMeters>
            <DistanceMeters>4948.8441241586</DistanceMeters>
          </Trackpoint>
          <Trackpoint>
            <Time>2023-01-11T16:38:31.000Z</Time>
            <Position>
              <LatitudeDegrees>-49.22787914983928203582763671875</LatitudeDegrees>
              <LongitudeDegrees>-73.05253534577786922454833984375</LongitudeDegrees>
            </Position>
            <AltitudeMeters>724.20001220703125</AltitudeMeters>
            <DistanceMeters>4952.6213613475</DistanceMeters>
          </Trackpoint>
          <Trackpoint>
            <Time>2023-01-11T16:38:33.000Z</Time>
            <Position>
              <LatitudeDegrees>-49.22786674462258815765380859375</LatitudeDegrees>
              <LongitudeDegrees>-73.0525496788322925567626953125</LongitudeDegrees>
            </Position>
            <AltitudeMeters>724</AltitudeMeters>
            <DistanceMeters>4954.3502208858</DistanceMeters>
          </Trackpoint>
          <Trackpoint>
            <Time>2023-01-11T16:38:38.000Z</Time>
            <Position>
              <LatitudeDegrees>-49.22782734967768192291259765625</LatitudeDegrees>
              <LongitudeDegrees>-73.052580021321773529052734375</LongitudeDegrees>
            </Position>
            <AltitudeMeters>724</AltitudeMeters>
            <DistanceMeters>4959.2576860029</DistanceMeters>
          </Trackpoint>
          <Trackpoint>
            <Time>2023-01-11T16:38:43.000Z</Time>
            <Position>
              <LatitudeDegrees>-49.22777186147868633270263671875</LatitudeDegrees>
              <LongitudeDegrees>-73.0525895766913890838623046875</LongitudeDegrees>
            </Position>
            <AltitudeMeters>723.79998779296875</AltitudeMeters>
            <DistanceMeters>4965.4730433561</DistanceMeters>
          </Trackpoint>
          <Trackpoint>
            <Time>2023-01-11T16:38:44.000Z</Time>
            <Position>
              <LatitudeDegrees>-49.22776331193745136260986328125</LatitudeDegrees>
              <LongitudeDegrees>-73.05257842876017093658447265625</LongitudeDegrees>
            </Position>
            <AltitudeMeters>723.4000244140625</AltitudeMeters>
            <DistanceMeters>4966.7193070314</DistanceMeters>
          </Trackpoint>
          <Trackpoint>
            <Time>2023-01-11T16:38:45.000Z</Time>
            <Position>
              <LatitudeDegrees>-49.22775576822459697723388671875</LatitudeDegrees>
              <LongitudeDegrees>-73.05256602354347705841064453125</LongitudeDegrees>
            </Position>
            <AltitudeMeters>723</AltitudeMeters>
            <DistanceMeters>4967.9509940219</DistanceMeters>
          </Trackpoint>
          <Trackpoint>
            <Time>2023-01-11T16:38:46.000Z</Time>
            <Position>
              <LatitudeDegrees>-49.22775057144463062286376953125</LatitudeDegrees>
              <LongitudeDegrees>-73.05254976265132427215576171875</LongitudeDegrees>
            </Position>
            <AltitudeMeters>723</AltitudeMeters>
            <DistanceMeters>4969.2677228008</DistanceMeters>
          </Trackpoint>
          <Trackpoint>
            <Time>2023-01-11T16:38:47.000Z</Time>
            <Position>
              <LatitudeDegrees>-49.22774420119822025299072265625</LatitudeDegrees>
              <LongitudeDegrees>-73.05253886617720127105712890625</LongitudeDegrees>
            </Position>
            <AltitudeMeters>724.4000244140625</AltitudeMeters>
            <DistanceMeters>4970.3258955084</DistanceMeters>
          </Trackpoint>
          <Trackpoint>
            <Time>2023-01-11T16:38:51.000Z</Time>
            <Position>
              <LatitudeDegrees>-49.227711595594882965087890625</LatitudeDegrees>
              <LongitudeDegrees>-73.05251665413379669189453125</LongitudeDegrees>
            </Position>
            <AltitudeMeters>723.4000244140625</AltitudeMeters>
            <DistanceMeters>4974.2966024317</DistanceMeters>
          </Trackpoint>
          <Trackpoint>
            <Time>2023-01-11T16:38:55.000Z</Time>
            <Position>
              <LatitudeDegrees>-49.22767706215381622314453125</LatitudeDegrees>
              <LongitudeDegrees>-73.052494525909423828125</LongitudeDegrees>
            </Position>
            <AltitudeMeters>723</AltitudeMeters>
            <DistanceMeters>4978.4637161813</DistanceMeters>
          </Trackpoint>
          <Trackpoint>
            <Time>2023-01-11T16:38:59.000Z</Time>
            <Position>
              <LatitudeDegrees>-49.22765518538653850555419921875</LatitudeDegrees>
              <LongitudeDegrees>-73.05244423449039459228515625</LongitudeDegrees>
            </Position>
            <AltitudeMeters>723</AltitudeMeters>
            <DistanceMeters>4982.8555544392</DistanceMeters>
          </Trackpoint>
          <Trackpoint>
            <Time>2023-01-11T16:39:03.000Z</Time>
            <Position>
              <LatitudeDegrees>-49.2276101745665073394775390625</LatitudeDegrees>
              <LongitudeDegrees>-73.05241581983864307403564453125</LongitudeDegrees>
            </Position>
            <AltitudeMeters>721.79998779296875</AltitudeMeters>
            <DistanceMeters>4988.2745772844</DistanceMeters>
          </Trackpoint>
          <Trackpoint>
            <Time>2023-01-11T16:39:06.000Z</Time>
            <Position>
              <LatitudeDegrees>-49.2276011221110820770263671875</LatitudeDegrees>
              <LongitudeDegrees>-73.0524081923067569732666015625</LongitudeDegrees>
            </Position>
            <AltitudeMeters>721.79998779296875</AltitudeMeters>
            <DistanceMeters>4989.4267149659</DistanceMeters>
          </Trackpoint>
          <Trackpoint>
            <Time>2023-01-11T16:39:10.000Z</Time>
            <Position>
              <LatitudeDegrees>-49.2275865375995635986328125</LatitudeDegrees>
              <LongitudeDegrees>-73.0523907579481601715087890625</LongitudeDegrees>
            </Position>
            <AltitudeMeters>722.79998779296875</AltitudeMeters>
            <DistanceMeters>4991.4868450416</DistanceMeters>
          </Trackpoint>
          <Trackpoint>
            <Time>2023-01-11T16:39:13.000Z</Time>
            <Position>
              <LatitudeDegrees>-49.22756767831742763519287109375</LatitudeDegrees>
              <LongitudeDegrees>-73.05239570327103137969970703125</LongitudeDegrees>
            </Position>
            <AltitudeMeters>723.20001220703125</AltitudeMeters>
            <DistanceMeters>4993.6180720242</DistanceMeters>
          </Trackpoint>
          <Trackpoint>
            <Time>2023-01-11T16:39:14.000Z</Time>
            <Position>
              <LatitudeDegrees>-49.22756097279489040374755859375</LatitudeDegrees>
              <LongitudeDegrees>-73.052387572824954986572265625</LongitudeDegrees>
            </Position>
            <AltitudeMeters>723.79998779296875</AltitudeMeters>
            <DistanceMeters>4994.5730786843</DistanceMeters>
          </Trackpoint>
          <Trackpoint>
            <Time>2023-01-11T16:39:22.000Z</Time>
            <Position>
              <LatitudeDegrees>-49.22752057202160358428955078125</LatitudeDegrees>
              <LongitudeDegrees>-73.052342645823955535888671875</LongitudeDegrees>
            </Position>
            <AltitudeMeters>723</AltitudeMeters>
            <DistanceMeters>5000.1303137376</DistanceMeters>
          </Trackpoint>
          <Trackpoint>
            <Time>2023-01-11T16:39:27.000Z</Time>
            <Position>
              <LatitudeDegrees>-49.22749643214046955108642578125</LatitudeDegrees>
              <LongitudeDegrees>-73.05229998193681240081787109375</LongitudeDegrees>
            </Position>
            <AltitudeMeters>722.79998779296875</AltitudeMeters>
            <DistanceMeters>5004.2330034031</DistanceMeters>
          </Trackpoint>
          <Trackpoint>
            <Time>2023-01-11T16:39:29.000Z</Time>
            <Position>
              <LatitudeDegrees>-49.22748335637152194976806640625</LatitudeDegrees>
              <LongitudeDegrees>-73.05229528807103633880615234375</LongitudeDegrees>
            </Position>
            <AltitudeMeters>722.79998779296875</AltitudeMeters>
            <DistanceMeters>5005.7294855975</DistanceMeters>
          </Trackpoint>
          <Trackpoint>
            <Time>2023-01-11T16:39:35.000Z</Time>
            <Position>
              <LatitudeDegrees>-49.22746525146067142486572265625</LatitudeDegrees>
              <LongitudeDegrees>-73.05226008407771587371826171875</LongitudeDegrees>
            </Position>
            <AltitudeMeters>722.20001220703125</AltitudeMeters>
            <DistanceMeters>5008.9882230675</DistanceMeters>
          </Trackpoint>
          <Trackpoint>
            <Time>2023-01-11T16:39:41.000Z</Time>
            <Position>
              <LatitudeDegrees>-49.22742116264998912811279296875</LatitudeDegrees>
              <LongitudeDegrees>-73.05222152732312679290771484375</LongitudeDegrees>
            </Position>
            <AltitudeMeters>722.4000244140625</AltitudeMeters>
            <DistanceMeters>5014.6389177421</DistanceMeters>
          </Trackpoint>
          <Trackpoint>
            <Time>2023-01-11T16:39:43.000Z</Time>
            <Position>
              <LatitudeDegrees>-49.227411858737468719482421875</LatitudeDegrees>
              <LongitudeDegrees>-73.05220945738255977630615234375</LongitudeDegrees>
            </Position>
            <AltitudeMeters>722.20001220703125</AltitudeMeters>
            <DistanceMeters>5015.996170701</DistanceMeters>
          </Trackpoint>
          <Trackpoint>
            <Time>2023-01-11T16:39:47.000Z</Time>
            <Position>
              <LatitudeDegrees>-49.22739383764564990997314453125</LatitudeDegrees>
              <LongitudeDegrees>-73.05217995308339595794677734375</LongitudeDegrees>
            </Position>
            <AltitudeMeters>722.20001220703125</AltitudeMeters>
            <DistanceMeters>5018.931250415</DistanceMeters>
          </Trackpoint>
          <Trackpoint>
            <Time>2023-01-11T16:39:51.000Z</Time>
            <Position>
              <LatitudeDegrees>-49.2273788340389728546142578125</LatitudeDegrees>
              <LongitudeDegrees>-73.0521587468683719635009765625</LongitudeDegrees>
            </Position>
            <AltitudeMeters>722.4000244140625</AltitudeMeters>
            <DistanceMeters>5021.2019713687</DistanceMeters>
          </Trackpoint>
          <Trackpoint>
            <Time>2023-01-11T16:40:00.000Z</Time>
            <Position>
              <LatitudeDegrees>-49.22731705941259860992431640625</LatitudeDegrees>
              <LongitudeDegrees>-73.05212094448506832122802734375</LongitudeDegrees>
            </Position>
            <AltitudeMeters>723.20001220703125</AltitudeMeters>
            <DistanceMeters>5028.606131962</DistanceMeters>
          </Trackpoint>
          <Trackpoint>
            <Time>2023-01-11T16:40:06.000Z</Time>
            <Position>
              <LatitudeDegrees>-49.22728286124765872955322265625</LatitudeDegrees>
              <LongitudeDegrees>-73.05208741687238216400146484375</LongitudeDegrees>
            </Position>
            <AltitudeMeters>723.20001220703125</AltitudeMeters>
            <DistanceMeters>5033.1256488517</DistanceMeters>
          </Trackpoint>
          <Trackpoint>
            <Time>2023-01-11T16:40:07.000Z</Time>
            <Position>
              <LatitudeDegrees>-49.2272745631635189056396484375</LatitudeDegrees>
              <LongitudeDegrees>-73.052073754370212554931640625</LongitudeDegrees>
            </Position>
            <AltitudeMeters>723.20001220703125</AltitudeMeters>
            <DistanceMeters>5034.4829018107</DistanceMeters>
          </Trackpoint>
          <Trackpoint>
            <Time>2023-01-11T16:40:11.000Z</Time>
            <Position>
              <LatitudeDegrees>-49.22725318931043148040771484375</LatitudeDegrees>
              <LongitudeDegrees>-73.05204860866069793701171875</LongitudeDegrees>
            </Position>
            <AltitudeMeters>724</AltitudeMeters>
            <DistanceMeters>5037.4833994718</DistanceMeters>
          </Trackpoint>
          <Trackpoint>
            <Time>2023-01-11T16:40:14.000Z</Time>
            <Position>
              <LatitudeDegrees>-49.227242879569530487060546875</LatitudeDegrees>
              <LongitudeDegrees>-73.05203695781528949737548828125</LongitudeDegrees>
            </Position>
            <AltitudeMeters>724.20001220703125</AltitudeMeters>
            <DistanceMeters>5038.9088001874</DistanceMeters>
          </Trackpoint>
          <Trackpoint>
            <Time>2023-01-11T16:40:16.000Z</Time>
            <Position>
              <LatitudeDegrees>-49.2272329889237880706787109375</LatitudeDegrees>
              <LongitudeDegrees>-73.05204969830811023712158203125</LongitudeDegrees>
            </Position>
            <AltitudeMeters>724</AltitudeMeters>
            <DistanceMeters>5040.3468153144</DistanceMeters>
          </Trackpoint>
          <Trackpoint>
            <Time>2023-01-11T16:40:21.000Z</Time>
            <Position>
              <LatitudeDegrees>-49.2271967791020870208740234375</LatitudeDegrees>
              <LongitudeDegrees>-73.052073419094085693359375</LongitudeDegrees>
            </Position>
            <AltitudeMeters>724</AltitudeMeters>
            <DistanceMeters>5044.730421441</DistanceMeters>
          </Trackpoint>
          <Trackpoint>
            <Time>2023-01-11T16:40:26.000Z</Time>
            <Position>
              <LatitudeDegrees>-49.2271900735795497894287109375</LatitudeDegrees>
              <LongitudeDegrees>-73.05205992422997951507568359375</LongitudeDegrees>
            </Position>
            <AltitudeMeters>724.20001220703125</AltitudeMeters>
            <DistanceMeters>5045.9621084315</DistanceMeters>
          </Trackpoint>
          <Trackpoint>
            <Time>2023-01-11T16:40:30.000Z</Time>
            <Position>
              <LatitudeDegrees>-49.22719669528305530548095703125</LatitudeDegrees>
              <LongitudeDegrees>-73.05209613405168056488037109375</LongitudeDegrees>
            </Position>
            <AltitudeMeters>722.5999755859375</AltitudeMeters>
            <DistanceMeters>5048.6948494033</DistanceMeters>
          </Trackpoint>
          <Trackpoint>
            <Time>2023-01-11T16:40:32.000Z</Time>
            <Position>
              <LatitudeDegrees>-49.22719619236886501312255859375</LatitudeDegrees>
              <LongitudeDegrees>-73.0520975589752197265625</LongitudeDegrees>
            </Position>
            <AltitudeMeters>722.4000244140625</AltitudeMeters>
            <DistanceMeters>5048.8292374716</DistanceMeters>
          </Trackpoint>
          <Trackpoint>
            <Time>2023-01-11T16:40:33.000Z</Time>
            <Position>
              <LatitudeDegrees>-49.22719619236886501312255859375</LatitudeDegrees>
              <LongitudeDegrees>-73.0520975589752197265625</LongitudeDegrees>
            </Position>
            <AltitudeMeters>721.4000244140625</AltitudeMeters>
            <DistanceMeters>5048.8292374716</DistanceMeters>
          </Trackpoint>
          <Trackpoint>
            <Time>2023-01-11T16:40:46.000Z</Time>
            <Position>
              <LatitudeDegrees>-49.22719116322696208953857421875</LatitudeDegrees>
              <LongitudeDegrees>-73.05209663696587085723876953125</LongitudeDegrees>
            </Position>
            <AltitudeMeters>721</AltitudeMeters>
            <DistanceMeters>5049.3993977578</DistanceMeters>
          </Trackpoint>
          <Trackpoint>
            <Time>2023-01-11T16:40:51.000Z</Time>
            <Position>
              <LatitudeDegrees>-49.22717154957354068756103515625</LatitudeDegrees>
              <LongitudeDegrees>-73.0520886741578578948974609375</LongitudeDegrees>
            </Position>
            <AltitudeMeters>720.20001220703125</AltitudeMeters>
            <DistanceMeters>5051.660154991</DistanceMeters>
          </Trackpoint>
          <Trackpoint>
            <Time>2023-01-11T16:41:00.000Z</Time>
            <Position>
              <LatitudeDegrees>-49.2271679453551769256591796875</LatitudeDegrees>
              <LongitudeDegrees>-73.05209982208907604217529296875</LongitudeDegrees>
            </Position>
            <AltitudeMeters>720.20001220703125</AltitudeMeters>
            <DistanceMeters>5052.5616575589</DistanceMeters>
          </Trackpoint>
          <Trackpoint>
            <Time>2023-01-11T16:41:15.000Z</Time>
            <Position>
              <LatitudeDegrees>-49.227166436612606048583984375</LatitudeDegrees>
              <LongitudeDegrees>-73.05209496058523654937744140625</LongitudeDegrees>
            </Position>
            <AltitudeMeters>720.5999755859375</AltitudeMeters>
            <DistanceMeters>5052.9417644164</DistanceMeters>
          </Trackpoint>
          <Trackpoint>
            <Time>2023-01-11T16:41:22.000Z</Time>
            <Position>
              <LatitudeDegrees>-49.2271654307842254638671875</LatitudeDegrees>
              <LongitudeDegrees>-73.0520933680236339569091796875</LongitudeDegrees>
            </Position>
            <AltitudeMeters>720.5999755859375</AltitudeMeters>
            <DistanceMeters>5053.1063555137</DistanceMeters>
          </Trackpoint>
          <Trackpoint>
            <Time>2023-01-11T16:41:29.000Z</Time>
            <Position>
              <LatitudeDegrees>-49.2271466553211212158203125</LatitudeDegrees>
              <LongitudeDegrees>-73.05209076963365077972412109375</LongitudeDegrees>
            </Position>
            <AltitudeMeters>721.20001220703125</AltitudeMeters>
            <DistanceMeters>5055.201258173</DistanceMeters>
          </Trackpoint>
          <Trackpoint>
            <Time>2023-01-11T16:41:35.000Z</Time>
            <Position>
              <LatitudeDegrees>-49.227138273417949676513671875</LatitudeDegrees>
              <LongitudeDegrees>-73.05208641104400157928466796875</LongitudeDegrees>
            </Position>
            <AltitudeMeters>721.20001220703125</AltitudeMeters>
            <DistanceMeters>5056.1888047572</DistanceMeters>
          </Trackpoint>
          <Trackpoint>
            <Time>2023-01-11T16:41:39.000Z</Time>
            <Position>
              <LatitudeDegrees>-49.227154366672039031982421875</LatitudeDegrees>
              <LongitudeDegrees>-73.052081130445003509521484375</LongitudeDegrees>
            </Position>
            <AltitudeMeters>721.20001220703125</AltitudeMeters>
            <DistanceMeters>5058.0166801042</DistanceMeters>
          </Trackpoint>
          <Trackpoint>
            <Time>2023-01-11T16:41:57.000Z</Time>
            <Position>
              <LatitudeDegrees>-49.2271278798580169677734375</LatitudeDegrees>
              <LongitudeDegrees>-73.0520856566727161407470703125</LongitudeDegrees>
            </Position>
            <AltitudeMeters>720</AltitudeMeters>
            <DistanceMeters>5060.9823662738</DistanceMeters>
          </Trackpoint>
          <Trackpoint>
            <Time>2023-01-11T16:42:03.000Z</Time>
            <Position>
              <LatitudeDegrees>-49.22712310217320919036865234375</LatitudeDegrees>
              <LongitudeDegrees>-73.05209496058523654937744140625</LongitudeDegrees>
            </Position>
            <AltitudeMeters>718.79998779296875</AltitudeMeters>
            <DistanceMeters>5061.8428697708</DistanceMeters>
          </Trackpoint>
          <Trackpoint>
            <Time>2023-01-11T16:42:07.000Z</Time>
            <Position>
              <LatitudeDegrees>-49.2271173186600208282470703125</LatitudeDegrees>
              <LongitudeDegrees>-73.05210367776453495025634765625</LongitudeDegrees>
            </Position>
            <AltitudeMeters>716.20001220703125</AltitudeMeters>
            <DistanceMeters>5062.7443723387</DistanceMeters>
          </Trackpoint>
          <Trackpoint>
            <Time>2023-01-11T16:42:10.000Z</Time>
            <Position>
              <LatitudeDegrees>-49.227105416357517242431640625</LatitudeDegrees>
              <LongitudeDegrees>-73.05211809463798999786376953125</LongitudeDegrees>
            </Position>
            <AltitudeMeters>714.79998779296875</AltitudeMeters>
            <DistanceMeters>5064.433604163</DistanceMeters>
          </Trackpoint>
          <Trackpoint>
            <Time>2023-01-11T16:42:12.000Z</Time>
            <Position>
              <LatitudeDegrees>-49.22709292732179164886474609375</LatitudeDegrees>
              <LongitudeDegrees>-73.05212480016052722930908203125</LongitudeDegrees>
            </Position>
            <AltitudeMeters>715.4000244140625</AltitudeMeters>
            <DistanceMeters>5065.9057516918</DistanceMeters>
          </Trackpoint>
          <Trackpoint>
            <Time>2023-01-11T16:42:19.000Z</Time>
            <Position>
              <LatitudeDegrees>-49.227041713893413543701171875</LatitudeDegrees>
              <LongitudeDegrees>-73.05217609740793704986572265625</LongitudeDegrees>
            </Position>
            <AltitudeMeters>713.79998779296875</AltitudeMeters>
            <DistanceMeters>5072.7165888425</DistanceMeters>
          </Trackpoint>
          <Trackpoint>
            <Time>2023-01-11T16:42:20.000Z</Time>
            <Position>
              <LatitudeDegrees>-49.22703676857054233551025390625</LatitudeDegrees>
              <LongitudeDegrees>-73.052175678312778472900390625</LongitudeDegrees>
            </Position>
            <AltitudeMeters>713.20001220703125</AltitudeMeters>
            <DistanceMeters>5073.2624757563</DistanceMeters>
          </Trackpoint>
          <Trackpoint>
            <Time>2023-01-11T16:42:23.000Z</Time>
            <Position>
              <LatitudeDegrees>-49.227005504071712493896484375</LatitudeDegrees>
              <LongitudeDegrees>-73.052158243954181671142578125</LongitudeDegrees>
            </Position>
            <AltitudeMeters>711.20001220703125</AltitudeMeters>
            <DistanceMeters>5076.9648609391</DistanceMeters>
          </Trackpoint>
          <Trackpoint>
            <Time>2023-01-11T16:42:26.000Z</Time>
            <Position>
              <LatitudeDegrees>-49.2269966192543506622314453125</LatitudeDegrees>
              <LongitudeDegrees>-73.05215983651578426361083984375</LongitudeDegrees>
            </Position>
            <AltitudeMeters>710.5999755859375</AltitudeMeters>
            <DistanceMeters>5077.9615095275</DistanceMeters>
          </Trackpoint>
          <Trackpoint>
            <Time>2023-01-11T16:42:33.000Z</Time>
            <Position>
              <LatitudeDegrees>-49.226976335048675537109375</LatitudeDegrees>
              <LongitudeDegrees>-73.0521833896636962890625</LongitudeDegrees>
            </Position>
            <AltitudeMeters>710.20001220703125</AltitudeMeters>
            <DistanceMeters>5080.7932418387</DistanceMeters>
          </Trackpoint>
          <Trackpoint>
            <Time>2023-01-11T16:42:35.000Z</Time>
            <Position>
              <LatitudeDegrees>-49.226965941488742828369140625</LatitudeDegrees>
              <LongitudeDegrees>-73.05217039771378040313720703125</LongitudeDegrees>
            </Position>
            <AltitudeMeters>709</AltitudeMeters>
            <DistanceMeters>5082.2836776157</DistanceMeters>
          </Trackpoint>
          <Trackpoint>
            <Time>2023-01-11T16:42:38.000Z</Time>
            <Position>
              <LatitudeDegrees>-49.2269347608089447021484375</LatitudeDegrees>
              <LongitudeDegrees>-73.052151203155517578125</LongitudeDegrees>
            </Position>
            <AltitudeMeters>707.4000244140625</AltitudeMeters>
            <DistanceMeters>5086.0224686415</DistanceMeters>
          </Trackpoint>
          <Trackpoint>
            <Time>2023-01-11T16:42:42.000Z</Time>
            <Position>
              <LatitudeDegrees>-49.22688002698123455047607421875</LatitudeDegrees>
              <LongitudeDegrees>-73.05214290507137775421142578125</LongitudeDegrees>
            </Position>
            <AltitudeMeters>708.5999755859375</AltitudeMeters>
            <DistanceMeters>5092.1441364896</DistanceMeters>
          </Trackpoint>
          <Trackpoint>
            <Time>2023-01-11T16:42:43.000Z</Time>
            <Position>
              <LatitudeDegrees>-49.22687181271612644195556640625</LatitudeDegrees>
              <LongitudeDegrees>-73.052148185670375823974609375</LongitudeDegrees>
            </Position>
            <AltitudeMeters>708.5999755859375</AltitudeMeters>
            <DistanceMeters>5093.1407850781</DistanceMeters>
          </Trackpoint>
          <Trackpoint>
            <Time>2023-01-11T16:42:44.000Z</Time>
            <Position>
              <LatitudeDegrees>-49.2268631793558597564697265625</LatitudeDegrees>
              <LongitudeDegrees>-73.0521543882787227630615234375</LongitudeDegrees>
            </Position>
            <AltitudeMeters>708.5999755859375</AltitudeMeters>
            <DistanceMeters>5094.1989577857</DistanceMeters>
          </Trackpoint>
          <Trackpoint>
            <Time>2023-01-11T16:42:46.000Z</Time>
            <Position>
              <LatitudeDegrees>-49.2268470861017704010009765625</LatitudeDegrees>
              <LongitudeDegrees>-73.05214743129909038543701171875</LongitudeDegrees>
            </Position>
            <AltitudeMeters>709.4000244140625</AltitudeMeters>
            <DistanceMeters>5096.0586672463</DistanceMeters>
          </Trackpoint>
          <Trackpoint>
            <Time>2023-01-11T16:42:49.000Z</Time>
            <Position>
              <LatitudeDegrees>-49.22680660150945186614990234375</LatitudeDegrees>
              <LongitudeDegrees>-73.0521579086780548095703125</LongitudeDegrees>
            </Position>
            <AltitudeMeters>709.4000244140625</AltitudeMeters>
            <DistanceMeters>5100.6288496075</DistanceMeters>
          </Trackpoint>
          <Trackpoint>
            <Time>2023-01-11T16:42:57.000Z</Time>
            <Position>
              <LatitudeDegrees>-49.22674843110144138336181640625</LatitudeDegrees>
              <LongitudeDegrees>-73.05220057256519794464111328125</LongitudeDegrees>
            </Position>
            <AltitudeMeters>709</AltitudeMeters>
            <DistanceMeters>5107.8069841973</DistanceMeters>
          </Trackpoint>
          <Trackpoint>
            <Time>2023-01-11T16:43:02.000Z</Time>
            <Position>
              <LatitudeDegrees>-49.226745665073394775390625</LatitudeDegrees>
              <LongitudeDegrees>-73.0522271431982517242431640625</LongitudeDegrees>
            </Position>
            <AltitudeMeters>707.5999755859375</AltitudeMeters>
            <DistanceMeters>5109.7637040067</DistanceMeters>
          </Trackpoint>
          <Trackpoint>
            <Time>2023-01-11T16:43:03.000Z</Time>
            <Position>
              <LatitudeDegrees>-49.226755388081073760986328125</LatitudeDegrees>
              <LongitudeDegrees>-73.05223904550075531005859375</LongitudeDegrees>
            </Position>
            <AltitudeMeters>707.5999755859375</AltitudeMeters>
            <DistanceMeters>5111.1473138527</DistanceMeters>
          </Trackpoint>
          <Trackpoint>
            <Time>2023-01-11T16:43:09.000Z</Time>
            <Position>
              <LatitudeDegrees>-49.22682001255452632904052734375</LatitudeDegrees>
              <LongitudeDegrees>-73.05218699388206005096435546875</LongitudeDegrees>
            </Position>
            <AltitudeMeters>707.4000244140625</AltitudeMeters>
            <DistanceMeters>5119.2747371337</DistanceMeters>
          </Trackpoint>
          <Trackpoint>
            <Time>2023-01-11T16:43:20.000Z</Time>
            <Position>
              <LatitudeDegrees>-49.2268108762800693511962890625</LatitudeDegrees>
              <LongitudeDegrees>-73.05218699388206005096435546875</LongitudeDegrees>
            </Position>
            <AltitudeMeters>706.4000244140625</AltitudeMeters>
            <DistanceMeters>5120.289344799</DistanceMeters>
          </Trackpoint>
          <Trackpoint>
            <Time>2023-01-11T16:43:23.000Z</Time>
            <Position>
              <LatitudeDegrees>-49.22679704613983631134033203125</LatitudeDegrees>
              <LongitudeDegrees>-73.05219017900526523590087890625</LongitudeDegrees>
            </Position>
            <AltitudeMeters>706</AltitudeMeters>
            <DistanceMeters>5121.8449991588</DistanceMeters>
          </Trackpoint>
          <Trackpoint>
            <Time>2023-01-11T16:43:25.000Z</Time>
            <Position>
              <LatitudeDegrees>-49.22679235227406024932861328125</LatitudeDegrees>
              <LongitudeDegrees>-73.0521912686526775360107421875</LongitudeDegrees>
            </Position>
            <AltitudeMeters>705.4000244140625</AltitudeMeters>
            <DistanceMeters>5122.3740855125</DistanceMeters>
          </Trackpoint>
          <Trackpoint>
            <Time>2023-01-11T16:43:35.000Z</Time>
            <Position>
              <LatitudeDegrees>-49.22677927650511264801025390625</LatitudeDegrees>
              <LongitudeDegrees>-73.052194118499755859375</LongitudeDegrees>
            </Position>
            <AltitudeMeters>704.4000244140625</AltitudeMeters>
            <DistanceMeters>5123.8431628659</DistanceMeters>
          </Trackpoint>
          <Trackpoint>
            <Time>2023-01-11T16:43:40.000Z</Time>
            <Position>
              <LatitudeDegrees>-49.22671523876488208770751953125</LatitudeDegrees>
              <LongitudeDegrees>-73.05216930806636810302734375</LongitudeDegrees>
            </Position>
            <AltitudeMeters>704</AltitudeMeters>
            <DistanceMeters>5131.1953079674</DistanceMeters>
          </Trackpoint>
          <Trackpoint>
            <Time>2023-01-11T16:43:49.000Z</Time>
            <Position>
              <LatitudeDegrees>-49.22661867924034595489501953125</LatitudeDegrees>
              <LongitudeDegrees>-73.0521379597485065460205078125</LongitudeDegrees>
            </Position>
            <AltitudeMeters>704</AltitudeMeters>
            <DistanceMeters>5142.1814811751</DistanceMeters>
          </Trackpoint>
          <Trackpoint>
            <Time>2023-01-11T16:43:56.000Z</Time>
            <Position>
              <LatitudeDegrees>-49.22658766619861125946044921875</LatitudeDegrees>
              <LongitudeDegrees>-73.05210552178323268890380859375</LongitudeDegrees>
            </Position>
            <AltitudeMeters>704.20001220703125</AltitudeMeters>
            <DistanceMeters>5146.3615766189</DistanceMeters>
          </Trackpoint>
          <Trackpoint>
            <Time>2023-01-11T16:44:04.000Z</Time>
            <Position>
              <LatitudeDegrees>-49.22655078582465648651123046875</LatitudeDegrees>
              <LongitudeDegrees>-73.05206428281962871551513671875</LongitudeDegrees>
            </Position>
            <AltitudeMeters>703.79998779296875</AltitudeMeters>
            <DistanceMeters>5151.4443955913</DistanceMeters>
          </Trackpoint>
          <Trackpoint>
            <Time>2023-01-11T16:44:11.000Z</Time>
            <Position>
              <LatitudeDegrees>-49.226524047553539276123046875</LatitudeDegrees>
              <LongitudeDegrees>-73.05201709270477294921875</LongitudeDegrees>
            </Position>
            <AltitudeMeters>704.5999755859375</AltitudeMeters>
            <DistanceMeters>5155.9858374986</DistanceMeters>
          </Trackpoint>
          <Trackpoint>
            <Time>2023-01-11T16:44:17.000Z</Time>
            <Position>
              <LatitudeDegrees>-49.2265165038406848907470703125</LatitudeDegrees>
              <LongitudeDegrees>-73.05196906439960002899169921875</LongitudeDegrees>
            </Position>
            <AltitudeMeters>704.5999755859375</AltitudeMeters>
            <DistanceMeters>5159.5767912942</DistanceMeters>
          </Trackpoint>
          <Trackpoint>
            <Time>2023-01-11T16:44:18.000Z</Time>
            <Position>
              <LatitudeDegrees>-49.22651155851781368255615234375</LatitudeDegrees>
              <LongitudeDegrees>-73.05196571163833141326904296875</LongitudeDegrees>
            </Position>
            <AltitudeMeters>704.5999755859375</AltitudeMeters>
            <DistanceMeters>5160.1777930062</DistanceMeters>
          </Trackpoint>
          <Trackpoint>
            <Time>2023-01-11T16:44:27.000Z</Time>
            <Position>
              <LatitudeDegrees>-49.226442910730838775634765625</LatitudeDegrees>
              <LongitudeDegrees>-73.05192531086504459381103515625</LongitudeDegrees>
            </Position>
            <AltitudeMeters>703.79998779296875</AltitudeMeters>
            <DistanceMeters>5168.3633392441</DistanceMeters>
          </Trackpoint>
          <Trackpoint>
            <Time>2023-01-11T16:44:30.000Z</Time>
            <Position>
              <LatitudeDegrees>-49.2264175973832607269287109375</LatitudeDegrees>
              <LongitudeDegrees>-73.0519025959074497222900390625</LongitudeDegrees>
            </Position>
            <AltitudeMeters>704.20001220703125</AltitudeMeters>
            <DistanceMeters>5171.6303792434</DistanceMeters>
          </Trackpoint>
          <Trackpoint>
            <Time>2023-01-11T16:44:31.000Z</Time>
            <Position>
              <LatitudeDegrees>-49.22641332261264324188232421875</LatitudeDegrees>
              <LongitudeDegrees>-73.05189966224133968353271484375</LongitudeDegrees>
            </Position>
            <AltitudeMeters>704</AltitudeMeters>
            <DistanceMeters>5172.1508619937</DistanceMeters>
          </Trackpoint>
          <Trackpoint>
            <Time>2023-01-11T16:44:32.000Z</Time>
            <Position>
              <LatitudeDegrees>-49.22641013748943805694580078125</LatitudeDegrees>
              <LongitudeDegrees>-73.05190670304000377655029296875</LongitudeDegrees>
            </Position>
            <AltitudeMeters>704.20001220703125</AltitudeMeters>
            <DistanceMeters>5172.7667054889</DistanceMeters>
          </Trackpoint>
          <Trackpoint>
            <Time>2023-01-11T16:44:34.000Z</Time>
            <Position>
              <LatitudeDegrees>-49.22639588825404644012451171875</LatitudeDegrees>
              <LongitudeDegrees>-73.05192388594150543212890625</LongitudeDegrees>
            </Position>
            <AltitudeMeters>704.4000244140625</AltitudeMeters>
            <DistanceMeters>5174.7847650708</DistanceMeters>
          </Trackpoint>
          <Trackpoint>
            <Time>2023-01-11T16:44:36.000Z</Time>
            <Position>
              <LatitudeDegrees>-49.226375520229339599609375</LatitudeDegrees>
              <LongitudeDegrees>-73.05191743187606334686279296875</LongitudeDegrees>
            </Position>
            <AltitudeMeters>704.79998779296875</AltitudeMeters>
            <DistanceMeters>5177.098816784</DistanceMeters>
          </Trackpoint>
          <Trackpoint>
            <Time>2023-01-11T16:44:39.000Z</Time>
            <Position>
              <LatitudeDegrees>-49.226340316236019134521484375</LatitudeDegrees>
              <LongitudeDegrees>-73.0519304238259792327880859375</LongitudeDegrees>
            </Position>
            <AltitudeMeters>705</AltitudeMeters>
            <DistanceMeters>5181.1293387754</DistanceMeters>
          </Trackpoint>
          <Trackpoint>
            <Time>2023-01-11T16:44:44.000Z</Time>
            <Position>
              <LatitudeDegrees>-49.22629966400563716888427734375</LatitudeDegrees>
              <LongitudeDegrees>-73.05191843770444393157958984375</LongitudeDegrees>
            </Position>
            <AltitudeMeters>704.5999755859375</AltitudeMeters>
            <DistanceMeters>5185.735929667</DistanceMeters>
          </Trackpoint>
          <Trackpoint>
            <Time>2023-01-11T16:44:45.000Z</Time>
            <Position>
              <LatitudeDegrees>-49.22629597596824169158935546875</LatitudeDegrees>
              <LongitudeDegrees>-73.051907122135162353515625</LongitudeDegrees>
            </Position>
            <AltitudeMeters>704.5999755859375</AltitudeMeters>
            <DistanceMeters>5186.6572478454</DistanceMeters>
          </Trackpoint>
          <Trackpoint>
            <Time>2023-01-11T16:44:49.000Z</Time>
            <Position>
              <LatitudeDegrees>-49.22625876031816005706787109375</LatitudeDegrees>
              <LongitudeDegrees>-73.05189698003232479095458984375</LongitudeDegrees>
            </Position>
            <AltitudeMeters>704.5999755859375</AltitudeMeters>
            <DistanceMeters>5190.864259829</DistanceMeters>
          </Trackpoint>
          <Trackpoint>
            <Time>2023-01-11T16:44:52.000Z</Time>
            <Position>
              <LatitudeDegrees>-49.2262499593198299407958984375</LatitudeDegrees>
              <LongitudeDegrees>-73.05187560617923736572265625</LongitudeDegrees>
            </Position>
            <AltitudeMeters>705</AltitudeMeters>
            <DistanceMeters>5192.7019890229</DistanceMeters>
          </Trackpoint>
          <Trackpoint>
            <Time>2023-01-11T16:45:00.000Z</Time>
            <Position>
              <LatitudeDegrees>-49.2261892743408679962158203125</LatitudeDegrees>
              <LongitudeDegrees>-73.05179405026137828826904296875</LongitudeDegrees>
            </Position>
            <AltitudeMeters>705.20001220703125</AltitudeMeters>
            <DistanceMeters>5201.6889241909</DistanceMeters>
          </Trackpoint>
          <Trackpoint>
            <Time>2023-01-11T16:45:01.000Z</Time>
            <Position>
              <LatitudeDegrees>-49.22619371674954891204833984375</LatitudeDegrees>
              <LongitudeDegrees>-73.05178717710077762603759765625</LongitudeDegrees>
            </Position>
            <AltitudeMeters>705.79998779296875</AltitudeMeters>
            <DistanceMeters>5202.3872250773</DistanceMeters>
          </Trackpoint>
          <Trackpoint>
            <Time>2023-01-11T16:45:05.000Z</Time>
            <Position>
              <LatitudeDegrees>-49.22620117664337158203125</LatitudeDegrees>
              <LongitudeDegrees>-73.05179245769977569580078125</LongitudeDegrees>
            </Position>
            <AltitudeMeters>706.20001220703125</AltitudeMeters>
            <DistanceMeters>5203.3036295237</DistanceMeters>
          </Trackpoint>
          <Trackpoint>
            <Time>2023-01-11T16:45:12.000Z</Time>
            <Position>
              <LatitudeDegrees>-49.22618382610380649566650390625</LatitudeDegrees>
              <LongitudeDegrees>-73.05179438553750514984130859375</LongitudeDegrees>
            </Position>
            <AltitudeMeters>705.5999755859375</AltitudeMeters>
            <DistanceMeters>5205.2371371259</DistanceMeters>
          </Trackpoint>
          <Trackpoint>
            <Time>2023-01-11T16:45:13.000Z</Time>
            <Position>
              <LatitudeDegrees>-49.2261798866093158721923828125</LatitudeDegrees>
              <LongitudeDegrees>-73.05178575217723846435546875</LongitudeDegrees>
            </Position>
            <AltitudeMeters>705.5999755859375</AltitudeMeters>
            <DistanceMeters>5206.0032669901</DistanceMeters>
          </Trackpoint>
          <Trackpoint>
            <Time>2023-01-11T16:45:16.000Z</Time>
            <Position>
              <LatitudeDegrees>-49.22616588883101940155029296875</LatitudeDegrees>
              <LongitudeDegrees>-73.051765300333499908447265625</LongitudeDegrees>
            </Position>
            <AltitudeMeters>704.5999755859375</AltitudeMeters>
            <DistanceMeters>5208.157671616</DistanceMeters>
          </Trackpoint>
          <Trackpoint>
            <Time>2023-01-11T16:45:20.000Z</Time>
            <Position>
              <LatitudeDegrees>-49.2261488735675811767578125</LatitudeDegrees>
              <LongitudeDegrees>-73.05175147019326686859130859375</LongitudeDegrees>
            </Position>
            <AltitudeMeters>704.20001220703125</AltitudeMeters>
            <DistanceMeters>5210.3015720125</DistanceMeters>
          </Trackpoint>
          <Trackpoint>
            <Time>2023-01-11T16:45:24.000Z</Time>
            <Position>
              <LatitudeDegrees>-49.22612247057259082794189453125</LatitudeDegrees>
              <LongitudeDegrees>-73.05173001252114772796630859375</LongitudeDegrees>
            </Position>
            <AltitudeMeters>703.20001220703125</AltitudeMeters>
            <DistanceMeters>5213.628864263</DistanceMeters>
          </Trackpoint>
          <Trackpoint>
            <Time>2023-01-11T16:45:27.000Z</Time>
            <Position>
              <LatitudeDegrees>-49.2261000908911228179931640625</LatitudeDegrees>
              <LongitudeDegrees>-73.051721714437007904052734375</LongitudeDegrees>
            </Position>
            <AltitudeMeters>702.5999755859375</AltitudeMeters>
            <DistanceMeters>5216.1910636258</DistanceMeters>
          </Trackpoint>
          <Trackpoint>
            <Time>2023-01-11T16:45:28.000Z</Time>
            <Position>
              <LatitudeDegrees>-49.22608944587409496307373046875</LatitudeDegrees>
              <LongitudeDegrees>-73.05171358399093151092529296875</LongitudeDegrees>
            </Position>
            <AltitudeMeters>702.4000244140625</AltitudeMeters>
            <DistanceMeters>5217.5180394758</DistanceMeters>
          </Trackpoint>
          <Trackpoint>
            <Time>2023-01-11T16:45:29.000Z</Time>
            <Position>
              <LatitudeDegrees>-49.226078130304813385009765625</LatitudeDegrees>
              <LongitudeDegrees>-73.05170930922031402587890625</LongitudeDegrees>
            </Position>
            <AltitudeMeters>702.4000244140625</AltitudeMeters>
            <DistanceMeters>5218.8140310725</DistanceMeters>
          </Trackpoint>
          <Trackpoint>
            <Time>2023-01-11T16:45:32.000Z</Time>
            <Position>
              <LatitudeDegrees>-49.22605256550014019012451171875</LatitudeDegrees>
              <LongitudeDegrees>-73.05169614963233470916748046875</LongitudeDegrees>
            </Position>
            <AltitudeMeters>702.20001220703125</AltitudeMeters>
            <DistanceMeters>5221.8160331196</DistanceMeters>
          </Trackpoint>
          <Trackpoint>
            <Time>2023-01-11T16:45:37.000Z</Time>
            <Position>
              <LatitudeDegrees>-49.2260276712477207183837890625</LatitudeDegrees>
              <LongitudeDegrees>-73.05164250545203685760498046875</LongitudeDegrees>
            </Position>
            <AltitudeMeters>702.20001220703125</AltitudeMeters>
            <DistanceMeters>5226.5995688108</DistanceMeters>
          </Trackpoint>
          <Trackpoint>
            <Time>2023-01-11T16:45:40.000Z</Time>
            <Position>
              <LatitudeDegrees>-49.22602959908545017242431640625</LatitudeDegrees>
              <LongitudeDegrees>-73.05161233060061931610107421875</LongitudeDegrees>
            </Position>
            <AltitudeMeters>701.4000244140625</AltitudeMeters>
            <DistanceMeters>5228.8016476129</DistanceMeters>
          </Trackpoint>
          <Trackpoint>
            <Time>2023-01-11T16:45:44.000Z</Time>
            <Position>
              <LatitudeDegrees>-49.22601451165974140167236328125</LatitudeDegrees>
              <LongitudeDegrees>-73.05157612077891826629638671875</LongitudeDegrees>
            </Position>
            <AltitudeMeters>701.20001220703125</AltitudeMeters>
            <DistanceMeters>5231.9245441144</DistanceMeters>
          </Trackpoint>
          <Trackpoint>
            <Time>2023-01-11T16:45:45.000Z</Time>
            <Position>
              <LatitudeDegrees>-49.22600830905139446258544921875</LatitudeDegrees>
              <LongitudeDegrees>-73.05156840942800045013427734375</LongitudeDegrees>
            </Position>
            <AltitudeMeters>700.20001220703125</AltitudeMeters>
            <DistanceMeters>5232.8159737118</DistanceMeters>
          </Trackpoint>
          <Trackpoint>
            <Time>2023-01-11T16:45:53.000Z</Time>
            <Position>
              <LatitudeDegrees>-49.2259807325899600982666015625</LatitudeDegrees>
              <LongitudeDegrees>-73.0515589378774166107177734375</LongitudeDegrees>
            </Position>
            <AltitudeMeters>699.20001220703125</AltitudeMeters>
            <DistanceMeters>5235.9619177327</DistanceMeters>
          </Trackpoint>
          <Trackpoint>
            <Time>2023-01-11T16:45:57.000Z</Time>
            <Position>
              <LatitudeDegrees>-49.2259673215448856353759765625</LatitudeDegrees>
              <LongitudeDegrees>-73.05154561065137386322021484375</LongitudeDegrees>
            </Position>
            <AltitudeMeters>699</AltitudeMeters>
            <DistanceMeters>5237.7397047715</DistanceMeters>
          </Trackpoint>
          <Trackpoint>
            <Time>2023-01-11T16:46:00.000Z</Time>
            <Position>
              <LatitudeDegrees>-49.2259518988430500030517578125</LatitudeDegrees>
              <LongitudeDegrees>-73.05156740359961986541748046875</LongitudeDegrees>
            </Position>
            <AltitudeMeters>699</AltitudeMeters>
            <DistanceMeters>5240.0770528946</DistanceMeters>
          </Trackpoint>
          <Trackpoint>
            <Time>2023-01-11T16:46:01.000Z</Time>
            <Position>
              <LatitudeDegrees>-49.22594309784471988677978515625</LatitudeDegrees>
              <LongitudeDegrees>-73.05157159455120563507080078125</LongitudeDegrees>
            </Position>
            <AltitudeMeters>698.5999755859375</AltitudeMeters>
            <DistanceMeters>5241.1005219305</DistanceMeters>
          </Trackpoint>
          <Trackpoint>
            <Time>2023-01-11T16:46:05.000Z</Time>
            <Position>
              <LatitudeDegrees>-49.22590948641300201416015625</LatitudeDegrees>
              <LongitudeDegrees>-73.05154527537524700164794921875</LongitudeDegrees>
            </Position>
            <AltitudeMeters>698.20001220703125</AltitudeMeters>
            <DistanceMeters>5245.3010896745</DistanceMeters>
          </Trackpoint>
          <Trackpoint>
            <Time>2023-01-11T16:46:06.000Z</Time>
            <Position>
              <LatitudeDegrees>-49.225904457271099090576171875</LatitudeDegrees>
              <LongitudeDegrees>-73.0515485443174839019775390625</LongitudeDegrees>
            </Position>
            <AltitudeMeters>697.79998779296875</AltitudeMeters>
            <DistanceMeters>5245.9020913864</DistanceMeters>
          </Trackpoint>
          <Trackpoint>
            <Time>2023-01-11T16:46:13.000Z</Time>
            <Position>
              <LatitudeDegrees>-49.2258645594120025634765625</LatitudeDegrees>
              <LongitudeDegrees>-73.0515334568917751312255859375</LongitudeDegrees>
            </Position>
            <AltitudeMeters>698</AltitudeMeters>
            <DistanceMeters>5250.4752365891</DistanceMeters>
          </Trackpoint>
          <Trackpoint>
            <Time>2023-01-11T16:46:15.000Z</Time>
            <Position>
              <LatitudeDegrees>-49.22585743479430675506591796875</LatitudeDegrees>
              <LongitudeDegrees>-73.05153228342533111572265625</LongitudeDegrees>
            </Position>
            <AltitudeMeters>697.79998779296875</AltitudeMeters>
            <DistanceMeters>5251.2759459168</DistanceMeters>
          </Trackpoint>
          <Trackpoint>
            <Time>2023-01-11T16:46:20.000Z</Time>
            <Position>
              <LatitudeDegrees>-49.22582038678228855133056640625</LatitudeDegrees>
              <LongitudeDegrees>-73.05149967782199382781982421875</LongitudeDegrees>
            </Position>
            <AltitudeMeters>696.4000244140625</AltitudeMeters>
            <DistanceMeters>5256.0329798213</DistanceMeters>
          </Trackpoint>
          <Trackpoint>
            <Time>2023-01-11T16:46:22.000Z</Time>
            <Position>
              <LatitudeDegrees>-49.22581016086041927337646484375</LatitudeDegrees>
              <LongitudeDegrees>-73.05147285573184490203857421875</LongitudeDegrees>
            </Position>
            <AltitudeMeters>695</AltitudeMeters>
            <DistanceMeters>5258.289739249</DistanceMeters>
          </Trackpoint>
          <Trackpoint>
            <Time>2023-01-11T16:46:25.000Z</Time>
            <Position>
              <LatitudeDegrees>-49.2258141003549098968505859375</LatitudeDegrees>
              <LongitudeDegrees>-73.05143446661531925201416015625</LongitudeDegrees>
            </Position>
            <AltitudeMeters>694</AltitudeMeters>
            <DistanceMeters>5261.1134880869</DistanceMeters>
          </Trackpoint>
          <Trackpoint>
            <Time>2023-01-11T16:46:26.000Z</Time>
            <Position>
              <LatitudeDegrees>-49.2258135974407196044921875</LatitudeDegrees>
              <LongitudeDegrees>-73.0514221452176570892333984375</LongitudeDegrees>
            </Position>
            <AltitudeMeters>694</AltitudeMeters>
            <DistanceMeters>5262.0099683173</DistanceMeters>
          </Trackpoint>
          <Trackpoint>
            <Time>2023-01-11T16:46:27.000Z</Time>
            <Position>
              <LatitudeDegrees>-49.225809909403324127197265625</LatitudeDegrees>
              <LongitudeDegrees>-73.0514122545719146728515625</LongitudeDegrees>
            </Position>
            <AltitudeMeters>694</AltitudeMeters>
            <DistanceMeters>5262.8383920071</DistanceMeters>
          </Trackpoint>
          <Trackpoint>
            <Time>2023-01-11T16:46:30.000Z</Time>
            <Position>
              <LatitudeDegrees>-49.22579473815858364105224609375</LatitudeDegrees>
              <LongitudeDegrees>-73.051386773586273193359375</LongitudeDegrees>
            </Position>
            <AltitudeMeters>694</AltitudeMeters>
            <DistanceMeters>5265.3453689127</DistanceMeters>
          </Trackpoint>
          <Trackpoint>
            <Time>2023-01-11T16:46:33.000Z</Time>
            <Position>
              <LatitudeDegrees>-49.22576037235558032989501953125</LatitudeDegrees>
              <LongitudeDegrees>-73.0513705126941204071044921875</LongitudeDegrees>
            </Position>
            <AltitudeMeters>694.5999755859375</AltitudeMeters>
            <DistanceMeters>5269.3477876328</DistanceMeters>
          </Trackpoint>
          <Trackpoint>
            <Time>2023-01-11T16:46:40.000Z</Time>
            <Position>
              <LatitudeDegrees>-49.225708656013011932373046875</LatitudeDegrees>
              <LongitudeDegrees>-73.0513487197458744049072265625</LongitudeDegrees>
            </Position>
            <AltitudeMeters>695</AltitudeMeters>
            <DistanceMeters>5275.3186118474</DistanceMeters>
          </Trackpoint>
          <Trackpoint>
            <Time>2023-01-11T16:46:41.000Z</Time>
            <Position>
              <LatitudeDegrees>-49.22570220194756984710693359375</LatitudeDegrees>
              <LongitudeDegrees>-73.05134092457592487335205078125</LongitudeDegrees>
            </Position>
            <AltitudeMeters>693.5999755859375</AltitudeMeters>
            <DistanceMeters>5276.2399300257</DistanceMeters>
          </Trackpoint>
          <Trackpoint>
            <Time>2023-01-11T16:46:49.000Z</Time>
            <Position>
              <LatitudeDegrees>-49.22564906068146228790283203125</LatitudeDegrees>
              <LongitudeDegrees>-73.051287867128849029541015625</LongitudeDegrees>
            </Position>
            <AltitudeMeters>693.20001220703125</AltitudeMeters>
            <DistanceMeters>5283.3001015513</DistanceMeters>
          </Trackpoint>
          <Trackpoint>
            <Time>2023-01-11T16:46:55.000Z</Time>
            <Position>
              <LatitudeDegrees>-49.22562626190483570098876953125</LatitudeDegrees>
              <LongitudeDegrees>-73.05130236782133579254150390625</LongitudeDegrees>
            </Position>
            <AltitudeMeters>693.5999755859375</AltitudeMeters>
            <DistanceMeters>5286.0476720976</DistanceMeters>
          </Trackpoint>
          <Trackpoint>
            <Time>2023-01-11T16:47:01.000Z</Time>
            <Position>
              <LatitudeDegrees>-49.22558234073221683502197265625</LatitudeDegrees>
              <LongitudeDegrees>-73.0512632243335247039794921875</LongitudeDegrees>
            </Position>
            <AltitudeMeters>693.5999755859375</AltitudeMeters>
            <DistanceMeters>5291.7047553494</DistanceMeters>
          </Trackpoint>
          <Trackpoint>
            <Time>2023-01-11T16:47:09.000Z</Time>
            <Position>
              <LatitudeDegrees>-49.2255294509232044219970703125</LatitudeDegrees>
              <LongitudeDegrees>-73.051192648708820343017578125</LongitudeDegrees>
            </Position>
            <AltitudeMeters>693.79998779296875</AltitudeMeters>
            <DistanceMeters>5299.513153146</DistanceMeters>
          </Trackpoint>
          <Trackpoint>
            <Time>2023-01-11T16:47:13.000Z</Time>
            <Position>
              <LatitudeDegrees>-49.22553523443639278411865234375</LatitudeDegrees>
              <LongitudeDegrees>-73.05114562623202800750732421875</LongitudeDegrees>
            </Position>
            <AltitudeMeters>692.4000244140625</AltitudeMeters>
            <DistanceMeters>5302.9904038356</DistanceMeters>
          </Trackpoint>
          <Trackpoint>
            <Time>2023-01-11T16:47:15.000Z</Time>
            <Position>
              <LatitudeDegrees>-49.22553489916026592254638671875</LatitudeDegrees>
              <LongitudeDegrees>-73.05112869478762149810791015625</LongitudeDegrees>
            </Position>
            <AltitudeMeters>692.4000244140625</AltitudeMeters>
            <DistanceMeters>5304.2220908261</DistanceMeters>
          </Trackpoint>
          <Trackpoint>
            <Time>2023-01-11T16:47:20.000Z</Time>
            <Position>
              <LatitudeDegrees>-49.2255133576691150665283203125</LatitudeDegrees>
              <LongitudeDegrees>-73.05109835229814052581787109375</LongitudeDegrees>
            </Position>
            <AltitudeMeters>690</AltitudeMeters>
            <DistanceMeters>5307.4780560816</DistanceMeters>
          </Trackpoint>
          <Trackpoint>
            <Time>2023-01-11T16:47:25.000Z</Time>
            <Position>
              <LatitudeDegrees>-49.2255136929452419281005859375</LatitudeDegrees>
              <LongitudeDegrees>-73.05109684355556964874267578125</LongitudeDegrees>
            </Position>
            <AltitudeMeters>690</AltitudeMeters>
            <DistanceMeters>5307.6124441499</DistanceMeters>
          </Trackpoint>
          <Trackpoint>
            <Time>2023-01-11T16:47:32.000Z</Time>
            <Position>
              <LatitudeDegrees>-49.225488044321537017822265625</LatitudeDegrees>
              <LongitudeDegrees>-73.05106365121901035308837890625</LongitudeDegrees>
            </Position>
            <AltitudeMeters>689.79998779296875</AltitudeMeters>
            <DistanceMeters>5311.3488191554</DistanceMeters>
          </Trackpoint>
          <Trackpoint>
            <Time>2023-01-11T16:47:36.000Z</Time>
            <Position>
              <LatitudeDegrees>-49.2254634015262126922607421875</LatitudeDegrees>
              <LongitudeDegrees>-73.051051832735538482666015625</LongitudeDegrees>
            </Position>
            <AltitudeMeters>689.79998779296875</AltitudeMeters>
            <DistanceMeters>5314.2217079228</DistanceMeters>
          </Trackpoint>
          <Trackpoint>
            <Time>2023-01-11T16:47:39.000Z</Time>
            <Position>
              <LatitudeDegrees>-49.2254224978387355804443359375</LatitudeDegrees>
              <LongitudeDegrees>-73.0510761402547359466552734375</LongitudeDegrees>
            </Position>
            <AltitudeMeters>689</AltitudeMeters>
            <DistanceMeters>5319.1042689119</DistanceMeters>
          </Trackpoint>
          <Trackpoint>
            <Time>2023-01-11T16:47:42.000Z</Time>
            <Position>
              <LatitudeDegrees>-49.2254053987562656402587890625</LatitudeDegrees>
              <LongitudeDegrees>-73.0510975979268550872802734375</LongitudeDegrees>
            </Position>
            <AltitudeMeters>687.79998779296875</AltitudeMeters>
            <DistanceMeters>5321.5639744263</DistanceMeters>
          </Trackpoint>
          <Trackpoint>
            <Time>2023-01-11T16:47:46.000Z</Time>
            <Position>
              <LatitudeDegrees>-49.22537363134324550628662109375</LatitudeDegrees>
              <LongitudeDegrees>-73.051136992871761322021484375</LongitudeDegrees>
            </Position>
            <AltitudeMeters>687.5999755859375</AltitudeMeters>
            <DistanceMeters>5326.1133628697</DistanceMeters>
          </Trackpoint>
          <Trackpoint>
            <Time>2023-01-11T16:47:50.000Z</Time>
            <Position>
              <LatitudeDegrees>-49.2253576219081878662109375</LatitudeDegrees>
              <LongitudeDegrees>-73.0511535890400409698486328125</LongitudeDegrees>
            </Position>
            <AltitudeMeters>688.20001220703125</AltitudeMeters>
            <DistanceMeters>5328.2635719617</DistanceMeters>
          </Trackpoint>
          <Trackpoint>
            <Time>2023-01-11T16:47:57.000Z</Time>
            <Position>
              <LatitudeDegrees>-49.2253728769719600677490234375</LatitudeDegrees>
              <LongitudeDegrees>-73.051116876304149627685546875</LongitudeDegrees>
            </Position>
            <AltitudeMeters>688</AltitudeMeters>
            <DistanceMeters>5331.4266914188</DistanceMeters>
          </Trackpoint>
          <Trackpoint>
            <Time>2023-01-11T16:48:01.000Z</Time>
            <Position>
              <LatitudeDegrees>-49.2253772355616092681884765625</LatitudeDegrees>
              <LongitudeDegrees>-73.0511244200170040130615234375</LongitudeDegrees>
            </Position>
            <AltitudeMeters>688</AltitudeMeters>
            <DistanceMeters>5332.168873784</DistanceMeters>
          </Trackpoint>
          <Trackpoint>
            <Time>2023-01-11T16:48:08.000Z</Time>
            <Position>
              <LatitudeDegrees>-49.225357286632061004638671875</LatitudeDegrees>
              <LongitudeDegrees>-73.05115945637226104736328125</LongitudeDegrees>
            </Position>
            <AltitudeMeters>688.79998779296875</AltitudeMeters>
            <DistanceMeters>5335.5500092113</DistanceMeters>
          </Trackpoint>
          <Trackpoint>
            <Time>2023-01-11T16:48:09.000Z</Time>
            <Position>
              <LatitudeDegrees>-49.225357286632061004638671875</LatitudeDegrees>
              <LongitudeDegrees>-73.05115945637226104736328125</LongitudeDegrees>
            </Position>
            <AltitudeMeters>689</AltitudeMeters>
            <DistanceMeters>5335.5500092113</DistanceMeters>
          </Trackpoint>
          <Trackpoint>
            <Time>2023-01-11T16:48:13.000Z</Time>
            <Position>
              <LatitudeDegrees>-49.225357286632061004638671875</LatitudeDegrees>
              <LongitudeDegrees>-73.05115945637226104736328125</LongitudeDegrees>
            </Position>
            <AltitudeMeters>690</AltitudeMeters>
            <DistanceMeters>5335.5500092113</DistanceMeters>
          </Trackpoint>
          <Trackpoint>
            <Time>2023-01-11T16:48:20.000Z</Time>
            <Position>
              <LatitudeDegrees>-49.2253561131656169891357421875</LatitudeDegrees>
              <LongitudeDegrees>-73.05115945637226104736328125</LongitudeDegrees>
            </Position>
            <AltitudeMeters>689.79998779296875</AltitudeMeters>
            <DistanceMeters>5335.6843972795</DistanceMeters>
          </Trackpoint>
          <Trackpoint>
            <Time>2023-01-11T16:48:32.000Z</Time>
            <Position>
              <LatitudeDegrees>-49.2253561131656169891357421875</LatitudeDegrees>
              <LongitudeDegrees>-73.051171861588954925537109375</LongitudeDegrees>
            </Position>
            <AltitudeMeters>689.20001220703125</AltitudeMeters>
            <DistanceMeters>5336.5758268769</DistanceMeters>
          </Trackpoint>
          <Trackpoint>
            <Time>2023-01-11T16:48:34.000Z</Time>
            <Position>
              <LatitudeDegrees>-49.22535636462271213531494140625</LatitudeDegrees>
              <LongitudeDegrees>-73.051171861588954925537109375</LongitudeDegrees>
            </Position>
            <AltitudeMeters>688.5999755859375</AltitudeMeters>
            <DistanceMeters>5336.5758268769</DistanceMeters>
          </Trackpoint>
          <Trackpoint>
            <Time>2023-01-11T16:48:51.000Z</Time>
            <Position>
              <LatitudeDegrees>-49.22536474652588367462158203125</LatitudeDegrees>
              <LongitudeDegrees>-73.05114026181399822235107421875</LongitudeDegrees>
            </Position>
            <AltitudeMeters>687.5999755859375</AltitudeMeters>
            <DistanceMeters>5339.0538204164</DistanceMeters>
          </Trackpoint>
          <Trackpoint>
            <Time>2023-01-11T16:49:09.000Z</Time>
            <Position>
              <LatitudeDegrees>-49.2253939993679523468017578125</LatitudeDegrees>
              <LongitudeDegrees>-73.0511338077485561370849609375</LongitudeDegrees>
            </Position>
            <AltitudeMeters>687.79998779296875</AltitudeMeters>
            <DistanceMeters>5342.3428980348</DistanceMeters>
          </Trackpoint>
          <Trackpoint>
            <Time>2023-01-11T16:49:13.000Z</Time>
            <Position>
              <LatitudeDegrees>-49.22539492137730121612548828125</LatitudeDegrees>
              <LongitudeDegrees>-73.05112726986408233642578125</LongitudeDegrees>
            </Position>
            <AltitudeMeters>687.79998779296875</AltitudeMeters>
            <DistanceMeters>5342.8366713269</DistanceMeters>
          </Trackpoint>
          <Trackpoint>
            <Time>2023-01-11T16:49:14.000Z</Time>
            <Position>
              <LatitudeDegrees>-49.22539508901536464691162109375</LatitudeDegrees>
              <LongitudeDegrees>-73.051125593483448028564453125</LongitudeDegrees>
            </Position>
            <AltitudeMeters>687.4000244140625</AltitudeMeters>
            <DistanceMeters>5342.9710593952</DistanceMeters>
          </Trackpoint>
          <Trackpoint>
            <Time>2023-01-11T16:49:15.000Z</Time>
            <Position>
              <LatitudeDegrees>-49.2253951728343963623046875</LatitudeDegrees>
              <LongitudeDegrees>-73.051124922931194305419921875</LongitudeDegrees>
            </Position>
            <AltitudeMeters>687.20001220703125</AltitudeMeters>
            <DistanceMeters>5342.9710593952</DistanceMeters>
          </Trackpoint>
          <Trackpoint>
            <Time>2023-01-11T16:49:17.000Z</Time>
            <Position>
              <LatitudeDegrees>-49.2253919877111911773681640625</LatitudeDegrees>
              <LongitudeDegrees>-73.05112064816057682037353515625</LongitudeDegrees>
            </Position>
            <AltitudeMeters>687</AltitudeMeters>
            <DistanceMeters>5343.4365933195</DistanceMeters>
          </Trackpoint>
          <Trackpoint>
            <Time>2023-01-11T16:49:18.000Z</Time>
            <Position>
              <LatitudeDegrees>-49.22537975013256072998046875</LatitudeDegrees>
              <LongitudeDegrees>-73.05111394263803958892822265625</LongitudeDegrees>
            </Position>
            <AltitudeMeters>686.4000244140625</AltitudeMeters>
            <DistanceMeters>5344.8839971107</DistanceMeters>
          </Trackpoint>
          <Trackpoint>
            <Time>2023-01-11T16:49:20.000Z</Time>
            <Position>
              <LatitudeDegrees>-49.2253527604043483734130859375</LatitudeDegrees>
              <LongitudeDegrees>-73.05110740475356578826904296875</LongitudeDegrees>
            </Position>
            <AltitudeMeters>686</AltitudeMeters>
            <DistanceMeters>5347.9248519706</DistanceMeters>
          </Trackpoint>
          <Trackpoint>
            <Time>2023-01-11T16:49:23.000Z</Time>
            <Position>
              <LatitudeDegrees>-49.225313365459442138671875</LatitudeDegrees>
              <LongitudeDegrees>-73.051091395318508148193359375</LongitudeDegrees>
            </Position>
            <AltitudeMeters>685.4000244140625</AltitudeMeters>
            <DistanceMeters>5352.4623153911</DistanceMeters>
          </Trackpoint>
          <Trackpoint>
            <Time>2023-01-11T16:49:26.000Z</Time>
            <Position>
              <LatitudeDegrees>-49.2252803407609462738037109375</LatitudeDegrees>
              <LongitudeDegrees>-73.05107018910348415374755859375</LongitudeDegrees>
            </Position>
            <AltitudeMeters>684.79998779296875</AltitudeMeters>
            <DistanceMeters>5356.4477770287</DistanceMeters>
          </Trackpoint>
          <Trackpoint>
            <Time>2023-01-11T16:49:27.000Z</Time>
            <Position>
              <LatitudeDegrees>-49.225280173122882843017578125</LatitudeDegrees>
              <LongitudeDegrees>-73.0510566942393779754638671875</LongitudeDegrees>
            </Position>
            <AltitudeMeters>684.79998779296875</AltitudeMeters>
            <DistanceMeters>5357.4261369333</DistanceMeters>
          </Trackpoint>
          <Trackpoint>
            <Time>2023-01-11T16:49:30.000Z</Time>
            <Position>
              <LatitudeDegrees>-49.2252692766487598419189453125</LatitudeDegrees>
              <LongitudeDegrees>-73.05102802813053131103515625</LongitudeDegrees>
            </Position>
            <AltitudeMeters>684.20001220703125</AltitudeMeters>
            <DistanceMeters>5359.8338971118</DistanceMeters>
          </Trackpoint>
          <Trackpoint>
            <Time>2023-01-11T16:49:35.000Z</Time>
            <Position>
              <LatitudeDegrees>-49.22525142319500446319580078125</LatitudeDegrees>
              <LongitudeDegrees>-73.05098888464272022247314453125</LongitudeDegrees>
            </Position>
            <AltitudeMeters>683.79998779296875</AltitudeMeters>
            <DistanceMeters>5363.3046494764</DistanceMeters>
          </Trackpoint>
          <Trackpoint>
            <Time>2023-01-11T16:49:39.000Z</Time>
            <Position>
              <LatitudeDegrees>-49.22524689696729183197021484375</LatitudeDegrees>
              <LongitudeDegrees>-73.05095669813454151153564453125</LongitudeDegrees>
            </Position>
            <AltitudeMeters>682.79998779296875</AltitudeMeters>
            <DistanceMeters>5365.6973610063</DistanceMeters>
          </Trackpoint>
          <Trackpoint>
            <Time>2023-01-11T16:49:42.000Z</Time>
            <Position>
              <LatitudeDegrees>-49.22522342763841152191162109375</LatitudeDegrees>
              <LongitudeDegrees>-73.05095921270549297332763671875</LongitudeDegrees>
            </Position>
            <AltitudeMeters>682.5999755859375</AltitudeMeters>
            <DistanceMeters>5368.3153426757</DistanceMeters>
          </Trackpoint>
          <Trackpoint>
            <Time>2023-01-11T16:49:45.000Z</Time>
            <Position>
              <LatitudeDegrees>-49.2252035625278949737548828125</LatitudeDegrees>
              <LongitudeDegrees>-73.050917722284793853759765625</LongitudeDegrees>
            </Position>
            <AltitudeMeters>682.79998779296875</AltitudeMeters>
            <DistanceMeters>5372.0541337015</DistanceMeters>
          </Trackpoint>
          <Trackpoint>
            <Time>2023-01-11T16:49:47.000Z</Time>
            <Position>
              <LatitudeDegrees>-49.22521152533590793609619140625</LatitudeDegrees>
              <LongitudeDegrees>-73.05087422020733356475830078125</LongitudeDegrees>
            </Position>
            <AltitudeMeters>682.5999755859375</AltitudeMeters>
            <DistanceMeters>5375.3377157812</DistanceMeters>
          </Trackpoint>
          <Trackpoint>
            <Time>2023-01-11T16:49:48.000Z</Time>
            <Position>
              <LatitudeDegrees>-49.22521554864943027496337890625</LatitudeDegrees>
              <LongitudeDegrees>-73.05085611529648303985595703125</LongitudeDegrees>
            </Position>
            <AltitudeMeters>681.4000244140625</AltitudeMeters>
            <DistanceMeters>5376.7278367684</DistanceMeters>
          </Trackpoint>
          <Trackpoint>
            <Time>2023-01-11T16:49:55.000Z</Time>
            <Position>
              <LatitudeDegrees>-49.22520398162305355072021484375</LatitudeDegrees>
              <LongitudeDegrees>-73.05080045945942401885986328125</LongitudeDegrees>
            </Position>
            <AltitudeMeters>682</AltitudeMeters>
            <DistanceMeters>5380.9733087778</DistanceMeters>
          </Trackpoint>
          <Trackpoint>
            <Time>2023-01-11T16:50:03.000Z</Time>
            <Position>
              <LatitudeDegrees>-49.2251774109899997711181640625</LatitudeDegrees>
              <LongitudeDegrees>-73.0507529340684413909912109375</LongitudeDegrees>
            </Position>
            <AltitudeMeters>681.20001220703125</AltitudeMeters>
            <DistanceMeters>5385.5207118891</DistanceMeters>
          </Trackpoint>
          <Trackpoint>
            <Time>2023-01-11T16:50:05.000Z</Time>
            <Position>
              <LatitudeDegrees>-49.2251710407435894012451171875</LatitudeDegrees>
              <LongitudeDegrees>-73.0507489107549190521240234375</LongitudeDegrees>
            </Position>
            <AltitudeMeters>680.4000244140625</AltitudeMeters>
            <DistanceMeters>5386.2868417533</DistanceMeters>
          </Trackpoint>
          <Trackpoint>
            <Time>2023-01-11T16:50:08.000Z</Time>
            <Position>
              <LatitudeDegrees>-49.2251603119075298309326171875</LatitudeDegrees>
              <LongitudeDegrees>-73.05073457770049571990966796875</LongitudeDegrees>
            </Position>
            <AltitudeMeters>680</AltitudeMeters>
            <DistanceMeters>5387.8741008146</DistanceMeters>
          </Trackpoint>
          <Trackpoint>
            <Time>2023-01-11T16:50:12.000Z</Time>
            <Position>
              <LatitudeDegrees>-49.22514715231955051422119140625</LatitudeDegrees>
              <LongitudeDegrees>-73.05072803981602191925048828125</LongitudeDegrees>
            </Position>
            <AltitudeMeters>679.20001220703125</AltitudeMeters>
            <DistanceMeters>5389.4151751492</DistanceMeters>
          </Trackpoint>
          <Trackpoint>
            <Time>2023-01-11T16:50:16.000Z</Time>
            <Position>
              <LatitudeDegrees>-49.2251287959516048431396484375</LatitudeDegrees>
              <LongitudeDegrees>-73.05069702677428722381591796875</LongitudeDegrees>
            </Position>
            <AltitudeMeters>678.20001220703125</AltitudeMeters>
            <DistanceMeters>5392.4589981453</DistanceMeters>
          </Trackpoint>
          <Trackpoint>
            <Time>2023-01-11T16:50:17.000Z</Time>
            <Position>
              <LatitudeDegrees>-49.22512359917163848876953125</LatitudeDegrees>
              <LongitudeDegrees>-73.05069141089916229248046875</LongitudeDegrees>
            </Position>
            <AltitudeMeters>678.20001220703125</AltitudeMeters>
            <DistanceMeters>5393.1701129609</DistanceMeters>
          </Trackpoint>
          <Trackpoint>
            <Time>2023-01-11T16:50:18.000Z</Time>
            <Position>
              <LatitudeDegrees>-49.22511815093457698822021484375</LatitudeDegrees>
              <LongitudeDegrees>-73.05068931542336940765380859375</LongitudeDegrees>
            </Position>
            <AltitudeMeters>678</AltitudeMeters>
            <DistanceMeters>5393.8004488741</DistanceMeters>
          </Trackpoint>
          <Trackpoint>
            <Time>2023-01-11T16:50:20.000Z</Time>
            <Position>
              <LatitudeDegrees>-49.22510239295661449432373046875</LatitudeDegrees>
              <LongitudeDegrees>-73.05070088244974613189697265625</LongitudeDegrees>
            </Position>
            <AltitudeMeters>678</AltitudeMeters>
            <DistanceMeters>5395.7479170013</DistanceMeters>
          </Trackpoint>
          <Trackpoint>
            <Time>2023-01-11T16:50:24.000Z</Time>
            <Position>
              <LatitudeDegrees>-49.2250888980925083160400390625</LatitudeDegrees>
              <LongitudeDegrees>-73.05069803260266780853271484375</LongitudeDegrees>
            </Position>
            <AltitudeMeters>676.79998779296875</AltitudeMeters>
            <DistanceMeters>5397.2653719407</DistanceMeters>
          </Trackpoint>
          <Trackpoint>
            <Time>2023-01-11T16:50:26.000Z</Time>
            <Position>
              <LatitudeDegrees>-49.22507959417998790740966796875</LatitudeDegrees>
              <LongitudeDegrees>-73.05068445391952991485595703125</LongitudeDegrees>
            </Position>
            <AltitudeMeters>675.5999755859375</AltitudeMeters>
            <DistanceMeters>5398.6970937548</DistanceMeters>
          </Trackpoint>
          <Trackpoint>
            <Time>2023-01-11T16:50:31.000Z</Time>
            <Position>
              <LatitudeDegrees>-49.225071966648101806640625</LatitudeDegrees>
              <LongitudeDegrees>-73.05063583888113498687744140625</LongitudeDegrees>
            </Position>
            <AltitudeMeters>675</AltitudeMeters>
            <DistanceMeters>5402.333029936</DistanceMeters>
          </Trackpoint>
          <Trackpoint>
            <Time>2023-01-11T16:50:34.000Z</Time>
            <Position>
              <LatitudeDegrees>-49.22506718896329402923583984375</LatitudeDegrees>
              <LongitudeDegrees>-73.050615973770618438720703125</LongitudeDegrees>
            </Position>
            <AltitudeMeters>674.5999755859375</AltitudeMeters>
            <DistanceMeters>5403.8711716812</DistanceMeters>
          </Trackpoint>
          <Trackpoint>
            <Time>2023-01-11T16:50:38.000Z</Time>
            <Position>
              <LatitudeDegrees>-49.2250533588230609893798828125</LatitudeDegrees>
              <LongitudeDegrees>-73.05062611587345600128173828125</LongitudeDegrees>
            </Position>
            <AltitudeMeters>674.4000244140625</AltitudeMeters>
            <DistanceMeters>5405.5763651057</DistanceMeters>
          </Trackpoint>
          <Trackpoint>
            <Time>2023-01-11T16:50:45.000Z</Time>
            <Position>
              <LatitudeDegrees>-49.22499728389084339141845703125</LatitudeDegrees>
              <LongitudeDegrees>-73.05063181556761264801025390625</LongitudeDegrees>
            </Position>
            <AltitudeMeters>674.20001220703125</AltitudeMeters>
            <DistanceMeters>5411.8322704205</DistanceMeters>
          </Trackpoint>
          <Trackpoint>
            <Time>2023-01-11T16:50:47.000Z</Time>
            <Position>
              <LatitudeDegrees>-49.2249775864183902740478515625</LatitudeDegrees>
              <LongitudeDegrees>-73.05062041617929935455322265625</LongitudeDegrees>
            </Position>
            <AltitudeMeters>673.5999755859375</AltitudeMeters>
            <DistanceMeters>5414.1754064554</DistanceMeters>
          </Trackpoint>
          <Trackpoint>
            <Time>2023-01-11T16:50:49.000Z</Time>
            <Position>
              <LatitudeDegrees>-49.2249578051269054412841796875</LatitudeDegrees>
              <LongitudeDegrees>-73.0506171472370624542236328125</LongitudeDegrees>
            </Position>
            <AltitudeMeters>673.4000244140625</AltitudeMeters>
            <DistanceMeters>5416.3897532008</DistanceMeters>
          </Trackpoint>
          <Trackpoint>
            <Time>2023-01-11T16:50:55.000Z</Time>
            <Position>
              <LatitudeDegrees>-49.22490365803241729736328125</LatitudeDegrees>
              <LongitudeDegrees>-73.05063952691853046417236328125</LongitudeDegrees>
            </Position>
            <AltitudeMeters>672.5999755859375</AltitudeMeters>
            <DistanceMeters>5422.631930694</DistanceMeters>
          </Trackpoint>
          <Trackpoint>
            <Time>2023-01-11T16:50:56.000Z</Time>
            <Position>
              <LatitudeDegrees>-49.22489653341472148895263671875</LatitudeDegrees>
              <LongitudeDegrees>-73.050642795860767364501953125</LongitudeDegrees>
            </Position>
            <AltitudeMeters>671.79998779296875</AltitudeMeters>
            <DistanceMeters>5423.4603543837</DistanceMeters>
          </Trackpoint>
          <Trackpoint>
            <Time>2023-01-11T16:51:00.000Z</Time>
            <Position>
              <LatitudeDegrees>-49.22486719675362110137939453125</LatitudeDegrees>
              <LongitudeDegrees>-73.0506503395736217498779296875</LongitudeDegrees>
            </Position>
            <AltitudeMeters>671.4000244140625</AltitudeMeters>
            <DistanceMeters>5426.7713229434</DistanceMeters>
          </Trackpoint>
          <Trackpoint>
            <Time>2023-01-11T16:51:02.000Z</Time>
            <Position>
              <LatitudeDegrees>-49.22485948540270328521728515625</LatitudeDegrees>
              <LongitudeDegrees>-73.05063483305275440216064453125</LongitudeDegrees>
            </Position>
            <AltitudeMeters>670.79998779296875</AltitudeMeters>
            <DistanceMeters>5428.187189099</DistanceMeters>
          </Trackpoint>
          <Trackpoint>
            <Time>2023-01-11T16:51:03.000Z</Time>
            <Position>
              <LatitudeDegrees>-49.2248632572591304779052734375</LatitudeDegrees>
              <LongitudeDegrees>-73.05062594823539257049560546875</LongitudeDegrees>
            </Position>
            <AltitudeMeters>670.4000244140625</AltitudeMeters>
            <DistanceMeters>5428.9474028139</DistanceMeters>
          </Trackpoint>
          <Trackpoint>
            <Time>2023-01-11T16:51:09.000Z</Time>
            <Position>
              <LatitudeDegrees>-49.2248538695275783538818359375</LatitudeDegrees>
              <LongitudeDegrees>-73.05057817138731479644775390625</LongitudeDegrees>
            </Position>
            <AltitudeMeters>669.20001220703125</AltitudeMeters>
            <DistanceMeters>5432.5733911347</DistanceMeters>
          </Trackpoint>
          <Trackpoint>
            <Time>2023-01-11T16:51:11.000Z</Time>
            <Position>
              <LatitudeDegrees>-49.2248434759676456451416015625</LatitudeDegrees>
              <LongitudeDegrees>-73.050571382045745849609375</LongitudeDegrees>
            </Position>
            <AltitudeMeters>669.20001220703125</AltitudeMeters>
            <DistanceMeters>5433.8304764053</DistanceMeters>
          </Trackpoint>
          <Trackpoint>
            <Time>2023-01-11T16:51:13.000Z</Time>
            <Position>
              <LatitudeDegrees>-49.22482880763709545135498046875</LatitudeDegrees>
              <LongitudeDegrees>-73.0505591444671154022216796875</LongitudeDegrees>
            </Position>
            <AltitudeMeters>668.79998779296875</AltitudeMeters>
            <DistanceMeters>5435.6926121025</DistanceMeters>
          </Trackpoint>
          <Trackpoint>
            <Time>2023-01-11T16:51:14.000Z</Time>
            <Position>
              <LatitudeDegrees>-49.2248250357806682586669921875</LatitudeDegrees>
              <LongitudeDegrees>-73.05054414086043834686279296875</LongitudeDegrees>
            </Position>
            <AltitudeMeters>668.5999755859375</AltitudeMeters>
            <DistanceMeters>5436.8641801199</DistanceMeters>
          </Trackpoint>
          <Trackpoint>
            <Time>2023-01-11T16:51:15.000Z</Time>
            <Position>
              <LatitudeDegrees>-49.2248223535716533660888671875</LatitudeDegrees>
              <LongitudeDegrees>-73.0505289696156978607177734375</LongitudeDegrees>
            </Position>
            <AltitudeMeters>668.5999755859375</AltitudeMeters>
            <DistanceMeters>5438.0084532885</DistanceMeters>
          </Trackpoint>
          <Trackpoint>
            <Time>2023-01-11T16:51:16.000Z</Time>
            <Position>
              <LatitudeDegrees>-49.2248186655342578887939453125</LatitudeDegrees>
              <LongitudeDegrees>-73.05052016861736774444580078125</LongitudeDegrees>
            </Position>
            <AltitudeMeters>668.20001220703125</AltitudeMeters>
            <DistanceMeters>5438.7686670035</DistanceMeters>
          </Trackpoint>
          <Trackpoint>
            <Time>2023-01-11T16:51:18.000Z</Time>
            <Position>
              <LatitudeDegrees>-49.22480550594627857208251953125</LatitudeDegrees>
              <LongitudeDegrees>-73.0505038239061832427978515625</LongitudeDegrees>
            </Position>
            <AltitudeMeters>667.79998779296875</AltitudeMeters>
            <DistanceMeters>5440.6548934265</DistanceMeters>
          </Trackpoint>
          <Trackpoint>
            <Time>2023-01-11T16:51:20.000Z</Time>
            <Position>
              <LatitudeDegrees>-49.2247970402240753173828125</LatitudeDegrees>
              <LongitudeDegrees>-73.050508685410022735595703125</LongitudeDegrees>
            </Position>
            <AltitudeMeters>667.4000244140625</AltitudeMeters>
            <DistanceMeters>5441.660561643</DistanceMeters>
          </Trackpoint>
          <Trackpoint>
            <Time>2023-01-11T16:51:24.000Z</Time>
            <Position>
              <LatitudeDegrees>-49.22477097250521183013916015625</LatitudeDegrees>
              <LongitudeDegrees>-73.050508685410022735595703125</LongitudeDegrees>
            </Position>
            <AltitudeMeters>667</AltitudeMeters>
            <DistanceMeters>5444.5616013266</DistanceMeters>
          </Trackpoint>
          <Trackpoint>
            <Time>2023-01-11T16:51:26.000Z</Time>
            <Position>
              <LatitudeDegrees>-49.2247613333165645599365234375</LatitudeDegrees>
              <LongitudeDegrees>-73.0505165643990039825439453125</LongitudeDegrees>
            </Position>
            <AltitudeMeters>667</AltitudeMeters>
            <DistanceMeters>5445.7822415739</DistanceMeters>
          </Trackpoint>
          <Trackpoint>
            <Time>2023-01-11T16:51:29.000Z</Time>
            <Position>
              <LatitudeDegrees>-49.22475739382207393646240234375</LatitudeDegrees>
              <LongitudeDegrees>-73.05052787996828556060791015625</LongitudeDegrees>
            </Position>
            <AltitudeMeters>666.20001220703125</AltitudeMeters>
            <DistanceMeters>5446.7181461711</DistanceMeters>
          </Trackpoint>
          <Trackpoint>
            <Time>2023-01-11T16:51:32.000Z</Time>
            <Position>
              <LatitudeDegrees>-49.22472721897065639495849609375</LatitudeDegrees>
              <LongitudeDegrees>-73.0505155585706233978271484375</LongitudeDegrees>
            </Position>
            <AltitudeMeters>666.20001220703125</AltitudeMeters>
            <DistanceMeters>5450.1927989891</DistanceMeters>
          </Trackpoint>
          <Trackpoint>
            <Time>2023-01-11T16:51:38.000Z</Time>
            <Position>
              <LatitudeDegrees>-49.22468346543610095977783203125</LatitudeDegrees>
              <LongitudeDegrees>-73.0504600703716278076171875</LongitudeDegrees>
            </Position>
            <AltitudeMeters>666</AltitudeMeters>
            <DistanceMeters>5456.5161824579</DistanceMeters>
          </Trackpoint>
          <Trackpoint>
            <Time>2023-01-11T16:51:39.000Z</Time>
            <Position>
              <LatitudeDegrees>-49.22467927448451519012451171875</LatitudeDegrees>
              <LongitudeDegrees>-73.0504474975168704986572265625</LongitudeDegrees>
            </Position>
            <AltitudeMeters>666</AltitudeMeters>
            <DistanceMeters>5457.5484367969</DistanceMeters>
          </Trackpoint>
          <Trackpoint>
            <Time>2023-01-11T16:51:40.000Z</Time>
            <Position>
              <LatitudeDegrees>-49.22466971911489963531494140625</LatitudeDegrees>
              <LongitudeDegrees>-73.05044020526111125946044921875</LongitudeDegrees>
            </Position>
            <AltitudeMeters>666</AltitudeMeters>
            <DistanceMeters>5458.7391181152</DistanceMeters>
          </Trackpoint>
          <Trackpoint>
            <Time>2023-01-11T16:51:41.000Z</Time>
            <Position>
              <LatitudeDegrees>-49.22465781681239604949951171875</LatitudeDegrees>
              <LongitudeDegrees>-73.050434924662113189697265625</LongitudeDegrees>
            </Position>
            <AltitudeMeters>665.5999755859375</AltitudeMeters>
            <DistanceMeters>5460.1194608732</DistanceMeters>
          </Trackpoint>
          <Trackpoint>
            <Time>2023-01-11T16:51:46.000Z</Time>
            <Position>
              <LatitudeDegrees>-49.22461875714361667633056640625</LatitudeDegrees>
              <LongitudeDegrees>-73.05041120387613773345947265625</LongitudeDegrees>
            </Position>
            <AltitudeMeters>664</AltitudeMeters>
            <DistanceMeters>5464.797053761</DistanceMeters>
          </Trackpoint>
          <Trackpoint>
            <Time>2023-01-11T16:51:48.000Z</Time>
            <Position>
              <LatitudeDegrees>-49.22460383735597133636474609375</LatitudeDegrees>
              <LongitudeDegrees>-73.0503876507282257080078125</LongitudeDegrees>
            </Position>
            <AltitudeMeters>662.79998779296875</AltitudeMeters>
            <DistanceMeters>5467.182205362</DistanceMeters>
          </Trackpoint>
          <Trackpoint>
            <Time>2023-01-11T16:51:49.000Z</Time>
            <Position>
              <LatitudeDegrees>-49.22459746710956096649169921875</LatitudeDegrees>
              <LongitudeDegrees>-73.0503737367689609527587890625</LongitudeDegrees>
            </Position>
            <AltitudeMeters>662.79998779296875</AltitudeMeters>
            <DistanceMeters>5468.4212021317</DistanceMeters>
          </Trackpoint>
          <Trackpoint>
            <Time>2023-01-11T16:51:50.000Z</Time>
            <Position>
              <LatitudeDegrees>-49.2245926894247531890869140625</LatitudeDegrees>
              <LongitudeDegrees>-73.05036342702805995941162109375</LongitudeDegrees>
            </Position>
            <AltitudeMeters>662.5999755859375</AltitudeMeters>
            <DistanceMeters>5469.34252031</DistanceMeters>
          </Trackpoint>
          <Trackpoint>
            <Time>2023-01-11T16:51:54.000Z</Time>
            <Position>
              <LatitudeDegrees>-49.22456762753427028656005859375</LatitudeDegrees>
              <LongitudeDegrees>-73.0503170751035213470458984375</LongitudeDegrees>
            </Position>
            <AltitudeMeters>662.4000244140625</AltitudeMeters>
            <DistanceMeters>5473.7168467707</DistanceMeters>
          </Trackpoint>
          <Trackpoint>
            <Time>2023-01-11T16:52:03.000Z</Time>
            <Position>
              <LatitudeDegrees>-49.22452253289520740509033203125</LatitudeDegrees>
              <LongitudeDegrees>-73.05019025690853595733642578125</LongitudeDegrees>
            </Position>
            <AltitudeMeters>662</AltitudeMeters>
            <DistanceMeters>5484.2133205926</DistanceMeters>
          </Trackpoint>
          <Trackpoint>
            <Time>2023-01-11T16:52:04.000Z</Time>
            <Position>
              <LatitudeDegrees>-49.224522113800048828125</LatitudeDegrees>
              <LongitudeDegrees>-73.05017433129251003265380859375</LongitudeDegrees>
            </Position>
            <AltitudeMeters>660.5999755859375</AltitudeMeters>
            <DistanceMeters>5485.3693704677</DistanceMeters>
          </Trackpoint>
          <Trackpoint>
            <Time>2023-01-11T16:52:06.000Z</Time>
            <Position>
              <LatitudeDegrees>-49.2245142348110675811767578125</LatitudeDegrees>
              <LongitudeDegrees>-73.0501440726220607757568359375</LongitudeDegrees>
            </Position>
            <AltitudeMeters>660.5999755859375</AltitudeMeters>
            <DistanceMeters>5487.7355165738</DistanceMeters>
          </Trackpoint>
          <Trackpoint>
            <Time>2023-01-11T16:52:12.000Z</Time>
            <Position>
              <LatitudeDegrees>-49.22448389232158660888671875</LatitudeDegrees>
              <LongitudeDegrees>-73.0500558950006961822509765625</LongitudeDegrees>
            </Position>
            <AltitudeMeters>661</AltitudeMeters>
            <DistanceMeters>5494.9800182331</DistanceMeters>
          </Trackpoint>
          <Trackpoint>
            <Time>2023-01-11T16:52:21.000Z</Time>
            <Position>
              <LatitudeDegrees>-49.22441122122108936309814453125</LatitudeDegrees>
              <LongitudeDegrees>-73.049970902502536773681640625</LongitudeDegrees>
            </Position>
            <AltitudeMeters>660.5999755859375</AltitudeMeters>
            <DistanceMeters>5505.1580846981</DistanceMeters>
          </Trackpoint>
          <Trackpoint>
            <Time>2023-01-11T16:52:24.000Z</Time>
            <Position>
              <LatitudeDegrees>-49.2243985645473003387451171875</LatitudeDegrees>
              <LongitudeDegrees>-73.04993662051856517791748046875</LongitudeDegrees>
            </Position>
            <AltitudeMeters>660.4000244140625</AltitudeMeters>
            <DistanceMeters>5508.0215283261</DistanceMeters>
          </Trackpoint>
          <Trackpoint>
            <Time>2023-01-11T16:52:27.000Z</Time>
            <Position>
              <LatitudeDegrees>-49.2243767715990543365478515625</LatitudeDegrees>
              <LongitudeDegrees>-73.04992689751088619232177734375</LongitudeDegrees>
            </Position>
            <AltitudeMeters>660</AltitudeMeters>
            <DistanceMeters>5510.5500247414</DistanceMeters>
          </Trackpoint>
          <Trackpoint>
            <Time>2023-01-11T16:52:31.000Z</Time>
            <Position>
              <LatitudeDegrees>-49.224355481564998626708984375</LatitudeDegrees>
              <LongitudeDegrees>-73.0498996563255786895751953125</LongitudeDegrees>
            </Position>
            <AltitudeMeters>659.5999755859375</AltitudeMeters>
            <DistanceMeters>5513.6365649807</DistanceMeters>
          </Trackpoint>
          <Trackpoint>
            <Time>2023-01-11T16:52:35.000Z</Time>
            <Position>
              <LatitudeDegrees>-49.22433896921575069427490234375</LatitudeDegrees>
              <LongitudeDegrees>-73.04985883645713329315185546875</LongitudeDegrees>
            </Position>
            <AltitudeMeters>659.4000244140625</AltitudeMeters>
            <DistanceMeters>5517.1280694128</DistanceMeters>
          </Trackpoint>
          <Trackpoint>
            <Time>2023-01-11T16:52:42.000Z</Time>
            <Position>
              <LatitudeDegrees>-49.224303178489208221435546875</LatitudeDegrees>
              <LongitudeDegrees>-73.049784488976001739501953125</LongitudeDegrees>
            </Position>
            <AltitudeMeters>659</AltitudeMeters>
            <DistanceMeters>5523.8420951506</DistanceMeters>
          </Trackpoint>
          <Trackpoint>
            <Time>2023-01-11T16:52:44.000Z</Time>
            <Position>
              <LatitudeDegrees>-49.22427778132259845733642578125</LatitudeDegrees>
              <LongitudeDegrees>-73.049776442348957061767578125</LongitudeDegrees>
            </Position>
            <AltitudeMeters>658.79998779296875</AltitudeMeters>
            <DistanceMeters>5526.7275293435</DistanceMeters>
          </Trackpoint>
          <Trackpoint>
            <Time>2023-01-11T16:52:48.000Z</Time>
            <Position>
              <LatitudeDegrees>-49.224231429398059844970703125</LatitudeDegrees>
              <LongitudeDegrees>-73.04974970407783985137939453125</LongitudeDegrees>
            </Position>
            <AltitudeMeters>658.5999755859375</AltitudeMeters>
            <DistanceMeters>5532.2407169251</DistanceMeters>
          </Trackpoint>
          <Trackpoint>
            <Time>2023-01-11T16:52:49.000Z</Time>
            <Position>
              <LatitudeDegrees>-49.22422363422811031341552734375</LatitudeDegrees>
              <LongitudeDegrees>-73.049740232527256011962890625</LongitudeDegrees>
            </Position>
            <AltitudeMeters>658.5999755859375</AltitudeMeters>
            <DistanceMeters>5533.3489093255</DistanceMeters>
          </Trackpoint>
          <Trackpoint>
            <Time>2023-01-11T16:52:56.000Z</Time>
            <Position>
              <LatitudeDegrees>-49.2241910286247730255126953125</LatitudeDegrees>
              <LongitudeDegrees>-73.0496582575142383575439453125</LongitudeDegrees>
            </Position>
            <AltitudeMeters>657.5999755859375</AltitudeMeters>
            <DistanceMeters>5540.326096589</DistanceMeters>
          </Trackpoint>
          <Trackpoint>
            <Time>2023-01-11T16:52:57.000Z</Time>
            <Position>
              <LatitudeDegrees>-49.22419899143278598785400390625</LatitudeDegrees>
              <LongitudeDegrees>-73.049643002450466156005859375</LongitudeDegrees>
            </Position>
            <AltitudeMeters>657.5999755859375</AltitudeMeters>
            <DistanceMeters>5541.7451480493</DistanceMeters>
          </Trackpoint>
          <Trackpoint>
            <Time>2023-01-11T16:52:59.000Z</Time>
            <Position>
              <LatitudeDegrees>-49.22419957816600799560546875</LatitudeDegrees>
              <LongitudeDegrees>-73.049618862569332122802734375</LongitudeDegrees>
            </Position>
            <AltitudeMeters>657.5999755859375</AltitudeMeters>
            <DistanceMeters>5543.5025000755</DistanceMeters>
          </Trackpoint>
          <Trackpoint>
            <Time>2023-01-11T16:53:03.000Z</Time>
            <Position>
              <LatitudeDegrees>-49.22419111244380474090576171875</LatitudeDegrees>
              <LongitudeDegrees>-73.04956362582743167877197265625</LongitudeDegrees>
            </Position>
            <AltitudeMeters>657.5999755859375</AltitudeMeters>
            <DistanceMeters>5547.6271411532</DistanceMeters>
          </Trackpoint>
          <Trackpoint>
            <Time>2023-01-11T16:53:09.000Z</Time>
            <Position>
              <LatitudeDegrees>-49.22417518682777881622314453125</LatitudeDegrees>
              <LongitudeDegrees>-73.04949740879237651824951171875</LongitudeDegrees>
            </Position>
            <AltitudeMeters>657.20001220703125</AltitudeMeters>
            <DistanceMeters>5552.7568236734</DistanceMeters>
          </Trackpoint>
          <Trackpoint>
            <Time>2023-01-11T16:53:14.000Z</Time>
            <Position>
              <LatitudeDegrees>-49.22414551489055156707763671875</LatitudeDegrees>
              <LongitudeDegrees>-73.0494379810988903045654296875</LongitudeDegrees>
            </Position>
            <AltitudeMeters>656.5999755859375</AltitudeMeters>
            <DistanceMeters>5558.19414565</DistanceMeters>
          </Trackpoint>
          <Trackpoint>
            <Time>2023-01-11T16:53:17.000Z</Time>
            <Position>
              <LatitudeDegrees>-49.224122799932956695556640625</LatitudeDegrees>
              <LongitudeDegrees>-73.04942599497735500335693359375</LongitudeDegrees>
            </Position>
            <AltitudeMeters>656.5999755859375</AltitudeMeters>
            <DistanceMeters>5560.8684344421</DistanceMeters>
          </Trackpoint>
          <Trackpoint>
            <Time>2023-01-11T16:53:18.000Z</Time>
            <Position>
              <LatitudeDegrees>-49.224110729992389678955078125</LatitudeDegrees>
              <LongitudeDegrees>-73.04942071437835693359375</LongitudeDegrees>
            </Position>
            <AltitudeMeters>656.4000244140625</AltitudeMeters>
            <DistanceMeters>5562.26179959</DistanceMeters>
          </Trackpoint>
          <Trackpoint>
            <Time>2023-01-11T16:53:20.000Z</Time>
            <Position>
              <LatitudeDegrees>-49.22410972416400909423828125</LatitudeDegrees>
              <LongitudeDegrees>-73.049408979713916778564453125</LongitudeDegrees>
            </Position>
            <AltitudeMeters>656.4000244140625</AltitudeMeters>
            <DistanceMeters>5563.1223030871</DistanceMeters>
          </Trackpoint>
          <Trackpoint>
            <Time>2023-01-11T16:53:22.000Z</Time>
            <Position>
              <LatitudeDegrees>-49.2241132445633411407470703125</LatitudeDegrees>
              <LongitudeDegrees>-73.04940151982009410858154296875</LongitudeDegrees>
            </Position>
            <AltitudeMeters>656.4000244140625</AltitudeMeters>
            <DistanceMeters>5563.7806674765</DistanceMeters>
          </Trackpoint>
          <Trackpoint>
            <Time>2023-01-11T16:53:29.000Z</Time>
            <Position>
              <LatitudeDegrees>-49.224089272320270538330078125</LatitudeDegrees>
              <LongitudeDegrees>-73.0493866838514804840087890625</LongitudeDegrees>
            </Position>
            <AltitudeMeters>655.79998779296875</AltitudeMeters>
            <DistanceMeters>5566.6582671879</DistanceMeters>
          </Trackpoint>
          <Trackpoint>
            <Time>2023-01-11T16:53:33.000Z</Time>
            <Position>
              <LatitudeDegrees>-49.22406253404915332794189453125</LatitudeDegrees>
              <LongitudeDegrees>-73.04937385953962802886962890625</LongitudeDegrees>
            </Position>
            <AltitudeMeters>655.79998779296875</AltitudeMeters>
            <DistanceMeters>5569.7782707787</DistanceMeters>
          </Trackpoint>
          <Trackpoint>
            <Time>2023-01-11T16:53:36.000Z</Time>
            <Position>
              <LatitudeDegrees>-49.2240364663302898406982421875</LatitudeDegrees>
              <LongitudeDegrees>-73.04936237633228302001953125</LongitudeDegrees>
            </Position>
            <AltitudeMeters>656</AltitudeMeters>
            <DistanceMeters>5572.7982670053</DistanceMeters>
          </Trackpoint>
          <Trackpoint>
            <Time>2023-01-11T16:53:39.000Z</Time>
            <Position>
              <LatitudeDegrees>-49.22401324845850467681884765625</LatitudeDegrees>
              <LongitudeDegrees>-73.0493447743356227874755859375</LongitudeDegrees>
            </Position>
            <AltitudeMeters>655.5999755859375</AltitudeMeters>
            <DistanceMeters>5575.6821360046</DistanceMeters>
          </Trackpoint>
          <Trackpoint>
            <Time>2023-01-11T16:53:43.000Z</Time>
            <Position>
              <LatitudeDegrees>-49.2239888571202754974365234375</LatitudeDegrees>
              <LongitudeDegrees>-73.0493149347603321075439453125</LongitudeDegrees>
            </Position>
            <AltitudeMeters>655.4000244140625</AltitudeMeters>
            <DistanceMeters>5579.1580880011</DistanceMeters>
          </Trackpoint>
          <Trackpoint>
            <Time>2023-01-11T16:53:46.000Z</Time>
            <Position>
              <LatitudeDegrees>-49.22395876608788967132568359375</LatitudeDegrees>
              <LongitudeDegrees>-73.04929959587752819061279296875</LongitudeDegrees>
            </Position>
            <AltitudeMeters>655.4000244140625</AltitudeMeters>
            <DistanceMeters>5582.6881737639</DistanceMeters>
          </Trackpoint>
          <Trackpoint>
            <Time>2023-01-11T16:53:52.000Z</Time>
            <Position>
              <LatitudeDegrees>-49.22392331063747406005859375</LatitudeDegrees>
              <LongitudeDegrees>-73.0492763780057430267333984375</LongitudeDegrees>
            </Position>
            <AltitudeMeters>654.5999755859375</AltitudeMeters>
            <DistanceMeters>5586.9801844751</DistanceMeters>
          </Trackpoint>
          <Trackpoint>
            <Time>2023-01-11T16:53:53.000Z</Time>
            <Position>
              <LatitudeDegrees>-49.22391585074365139007568359375</LatitudeDegrees>
              <LongitudeDegrees>-73.0492636375129222869873046875</LongitudeDegrees>
            </Position>
            <AltitudeMeters>654.5999755859375</AltitudeMeters>
            <DistanceMeters>5588.2264481504</DistanceMeters>
          </Trackpoint>
          <Trackpoint>
            <Time>2023-01-11T16:53:57.000Z</Time>
            <Position>
              <LatitudeDegrees>-49.22389556653797626495361328125</LatitudeDegrees>
              <LongitudeDegrees>-73.04924176074564456939697265625</LongitudeDegrees>
            </Position>
            <AltitudeMeters>655</AltitudeMeters>
            <DistanceMeters>5590.9871336665</DistanceMeters>
          </Trackpoint>
          <Trackpoint>
            <Time>2023-01-11T16:53:58.000Z</Time>
            <Position>
              <LatitudeDegrees>-49.22389154322445392608642578125</LatitudeDegrees>
              <LongitudeDegrees>-73.049247376620769500732421875</LongitudeDegrees>
            </Position>
            <AltitudeMeters>654.4000244140625</AltitudeMeters>
            <DistanceMeters>5591.6029771618</DistanceMeters>
          </Trackpoint>
          <Trackpoint>
            <Time>2023-01-11T16:53:59.000Z</Time>
            <Position>
              <LatitudeDegrees>-49.22388785518705844879150390625</LatitudeDegrees>
              <LongitudeDegrees>-73.0492478795349597930908203125</LongitudeDegrees>
            </Position>
            <AltitudeMeters>654.4000244140625</AltitudeMeters>
            <DistanceMeters>5592.0171890066</DistanceMeters>
          </Trackpoint>
          <Trackpoint>
            <Time>2023-01-11T16:54:02.000Z</Time>
            <Position>
              <LatitudeDegrees>-49.22387075610458850860595703125</LatitudeDegrees>
              <LongitudeDegrees>-73.04926003329455852508544921875</LongitudeDegrees>
            </Position>
            <AltitudeMeters>653.5999755859375</AltitudeMeters>
            <DistanceMeters>5594.1163977396</DistanceMeters>
          </Trackpoint>
          <Trackpoint>
            <Time>2023-01-11T16:54:04.000Z</Time>
            <Position>
              <LatitudeDegrees>-49.22386371530592441558837890625</LatitudeDegrees>
              <LongitudeDegrees>-73.04926841519773006439208984375</LongitudeDegrees>
            </Position>
            <AltitudeMeters>653.20001220703125</AltitudeMeters>
            <DistanceMeters>5595.1085057642</DistanceMeters>
          </Trackpoint>
          <Trackpoint>
            <Time>2023-01-11T16:54:07.000Z</Time>
            <Position>
              <LatitudeDegrees>-49.2238513939082622528076171875</LatitudeDegrees>
              <LongitudeDegrees>-73.04929926060140132904052734375</LongitudeDegrees>
            </Position>
            <AltitudeMeters>653.20001220703125</AltitudeMeters>
            <DistanceMeters>5597.7368148175</DistanceMeters>
          </Trackpoint>
          <Trackpoint>
            <Time>2023-01-11T16:54:13.000Z</Time>
            <Position>
              <LatitudeDegrees>-49.22385516576468944549560546875</LatitudeDegrees>
              <LongitudeDegrees>-73.0493799783289432525634765625</LongitudeDegrees>
            </Position>
            <AltitudeMeters>654.20001220703125</AltitudeMeters>
            <DistanceMeters>5603.6192677865</DistanceMeters>
          </Trackpoint>
          <Trackpoint>
            <Time>2023-01-11T16:54:15.000Z</Time>
            <Position>
              <LatitudeDegrees>-49.22385181300342082977294921875</LatitudeDegrees>
              <LongitudeDegrees>-73.0494071356952190399169921875</LongitudeDegrees>
            </Position>
            <AltitudeMeters>654.79998779296875</AltitudeMeters>
            <DistanceMeters>5605.6283581704</DistanceMeters>
          </Trackpoint>
          <Trackpoint>
            <Time>2023-01-11T16:54:19.000Z</Time>
            <Position>
              <LatitudeDegrees>-49.2238239012658596038818359375</LatitudeDegrees>
              <LongitudeDegrees>-73.04944208823144435882568359375</LongitudeDegrees>
            </Position>
            <AltitudeMeters>656.5999755859375</AltitudeMeters>
            <DistanceMeters>5609.6420418121</DistanceMeters>
          </Trackpoint>
          <Trackpoint>
            <Time>2023-01-11T16:54:22.000Z</Time>
            <Position>
              <LatitudeDegrees>-49.22380906529724597930908203125</LatitudeDegrees>
              <LongitudeDegrees>-73.049476034939289093017578125</LongitudeDegrees>
            </Position>
            <AltitudeMeters>655.5999755859375</AltitudeMeters>
            <DistanceMeters>5612.6107712726</DistanceMeters>
          </Trackpoint>
          <Trackpoint>
            <Time>2023-01-11T16:54:23.000Z</Time>
            <Position>
              <LatitudeDegrees>-49.22378190793097019195556640625</LatitudeDegrees>
              <LongitudeDegrees>-73.04947343654930591583251953125</LongitudeDegrees>
            </Position>
            <AltitudeMeters>653.5999755859375</AltitudeMeters>
            <DistanceMeters>5615.6397245022</DistanceMeters>
          </Trackpoint>
          <Trackpoint>
            <Time>2023-01-11T16:54:25.000Z</Time>
            <Position>
              <LatitudeDegrees>-49.223819039762020111083984375</LatitudeDegrees>
              <LongitudeDegrees>-73.04944527335464954376220703125</LongitudeDegrees>
            </Position>
            <AltitudeMeters>652.5999755859375</AltitudeMeters>
            <DistanceMeters>5620.2521923993</DistanceMeters>
          </Trackpoint>
          <Trackpoint>
            <Time>2023-01-11T16:54:28.000Z</Time>
            <Position>
              <LatitudeDegrees>-49.22382851131260395050048828125</LatitudeDegrees>
              <LongitudeDegrees>-73.04936983622610569000244140625</LongitudeDegrees>
            </Position>
            <AltitudeMeters>653.4000244140625</AltitudeMeters>
            <DistanceMeters>5625.8369828195</DistanceMeters>
          </Trackpoint>
          <Trackpoint>
            <Time>2023-01-11T16:54:30.000Z</Time>
            <Position>
              <LatitudeDegrees>-49.2238128371536731719970703125</LatitudeDegrees>
              <LongitudeDegrees>-73.0493622086942195892333984375</LongitudeDegrees>
            </Position>
            <AltitudeMeters>654.4000244140625</AltitudeMeters>
            <DistanceMeters>5627.6648581665</DistanceMeters>
          </Trackpoint>
          <Trackpoint>
            <Time>2023-01-11T16:54:35.000Z</Time>
            <Position>
              <LatitudeDegrees>-49.22379188239574432373046875</LatitudeDegrees>
              <LongitudeDegrees>-73.04932541213929653167724609375</LongitudeDegrees>
            </Position>
            <AltitudeMeters>654</AltitudeMeters>
            <DistanceMeters>5631.212804976</DistanceMeters>
          </Trackpoint>
          <Trackpoint>
            <Time>2023-01-11T16:54:38.000Z</Time>
            <Position>
              <LatitudeDegrees>-49.223752319812774658203125</LatitudeDegrees>
              <LongitudeDegrees>-73.04931811988353729248046875</LongitudeDegrees>
            </Position>
            <AltitudeMeters>653.20001220703125</AltitudeMeters>
            <DistanceMeters>5635.6476112282</DistanceMeters>
          </Trackpoint>
          <Trackpoint>
            <Time>2023-01-11T16:54:41.000Z</Time>
            <Position>
              <LatitudeDegrees>-49.22372390516102313995361328125</LatitudeDegrees>
              <LongitudeDegrees>-73.04930160753428936004638671875</LongitudeDegrees>
            </Position>
            <AltitudeMeters>652.79998779296875</AltitudeMeters>
            <DistanceMeters>5639.0314163247</DistanceMeters>
          </Trackpoint>
          <Trackpoint>
            <Time>2023-01-11T16:54:42.000Z</Time>
            <Position>
              <LatitudeDegrees>-49.223715774714946746826171875</LatitudeDegrees>
              <LongitudeDegrees>-73.0492866039276123046875</LongitudeDegrees>
            </Position>
            <AltitudeMeters>652.79998779296875</AltitudeMeters>
            <DistanceMeters>5640.450467785</DistanceMeters>
          </Trackpoint>
          <Trackpoint>
            <Time>2023-01-11T16:54:45.000Z</Time>
            <Position>
              <LatitudeDegrees>-49.22370328567922115325927734375</LatitudeDegrees>
              <LongitudeDegrees>-73.0492515675723552703857421875</LongitudeDegrees>
            </Position>
            <AltitudeMeters>652.79998779296875</AltitudeMeters>
            <DistanceMeters>5643.3515074686</DistanceMeters>
          </Trackpoint>
          <Trackpoint>
            <Time>2023-01-11T16:54:46.000Z</Time>
            <Position>
              <LatitudeDegrees>-49.2237089015543460845947265625</LatitudeDegrees>
              <LongitudeDegrees>-73.04923631250858306884765625</LongitudeDegrees>
            </Position>
            <AltitudeMeters>652.79998779296875</AltitudeMeters>
            <DistanceMeters>5644.6264246266</DistanceMeters>
          </Trackpoint>
          <Trackpoint>
            <Time>2023-01-11T16:54:49.000Z</Time>
            <Position>
              <LatitudeDegrees>-49.22370764426887035369873046875</LatitudeDegrees>
              <LongitudeDegrees>-73.0491922236979007720947265625</LongitudeDegrees>
            </Position>
            <AltitudeMeters>652</AltitudeMeters>
            <DistanceMeters>5647.8348957806</DistanceMeters>
          </Trackpoint>
          <Trackpoint>
            <Time>2023-01-11T16:54:56.000Z</Time>
            <Position>
              <LatitudeDegrees>-49.2236787267029285430908203125</LatitudeDegrees>
              <LongitudeDegrees>-73.0491171218454837799072265625</LongitudeDegrees>
            </Position>
            <AltitudeMeters>652</AltitudeMeters>
            <DistanceMeters>5654.1725436111</DistanceMeters>
          </Trackpoint>
          <Trackpoint>
            <Time>2023-01-11T16:55:02.000Z</Time>
            <Position>
              <LatitudeDegrees>-49.2236374877393245697021484375</LatitudeDegrees>
              <LongitudeDegrees>-73.0490681715309619903564453125</LongitudeDegrees>
            </Position>
            <AltitudeMeters>651.5999755859375</AltitudeMeters>
            <DistanceMeters>5659.9808450491</DistanceMeters>
          </Trackpoint>
          <Trackpoint>
            <Time>2023-01-11T16:55:06.000Z</Time>
            <Position>
              <LatitudeDegrees>-49.22361829318106174468994140625</LatitudeDegrees>
              <LongitudeDegrees>-73.0490286089479923248291015625</LongitudeDegrees>
            </Position>
            <AltitudeMeters>650.79998779296875</AltitudeMeters>
            <DistanceMeters>5663.564246883</DistanceMeters>
          </Trackpoint>
          <Trackpoint>
            <Time>2023-01-11T16:55:10.000Z</Time>
            <Position>
              <LatitudeDegrees>-49.22359482385218143463134765625</LatitudeDegrees>
              <LongitudeDegrees>-73.0489863641560077667236328125</LongitudeDegrees>
            </Position>
            <AltitudeMeters>650.79998779296875</AltitudeMeters>
            <DistanceMeters>5667.5958889305</DistanceMeters>
          </Trackpoint>
          <Trackpoint>
            <Time>2023-01-11T16:55:15.000Z</Time>
            <Position>
              <LatitudeDegrees>-49.2235432751476764678955078125</LatitudeDegrees>
              <LongitudeDegrees>-73.04892827756702899932861328125</LongitudeDegrees>
            </Position>
            <AltitudeMeters>651</AltitudeMeters>
            <DistanceMeters>5674.7197242469</DistanceMeters>
          </Trackpoint>
          <Trackpoint>
            <Time>2023-01-11T16:55:18.000Z</Time>
            <Position>
              <LatitudeDegrees>-49.22352994792163372039794921875</LatitudeDegrees>
              <LongitudeDegrees>-73.04889441467821598052978515625</LongitudeDegrees>
            </Position>
            <AltitudeMeters>651</AltitudeMeters>
            <DistanceMeters>5677.5926130143</DistanceMeters>
          </Trackpoint>
          <Trackpoint>
            <Time>2023-01-11T16:55:27.000Z</Time>
            <Position>
              <LatitudeDegrees>-49.2234634794294834136962890625</LatitudeDegrees>
              <LongitudeDegrees>-73.04879433475434780120849609375</LongitudeDegrees>
            </Position>
            <AltitudeMeters>650.4000244140625</AltitudeMeters>
            <DistanceMeters>5687.9683814853</DistanceMeters>
          </Trackpoint>
          <Trackpoint>
            <Time>2023-01-11T16:55:31.000Z</Time>
            <Position>
              <LatitudeDegrees>-49.22342651523649692535400390625</LatitudeDegrees>
              <LongitudeDegrees>-73.04876248352229595184326171875</LongitudeDegrees>
            </Position>
            <AltitudeMeters>650.20001220703125</AltitudeMeters>
            <DistanceMeters>5692.6892107201</DistanceMeters>
          </Trackpoint>
          <Trackpoint>
            <Time>2023-01-11T16:55:35.000Z</Time>
            <Position>
              <LatitudeDegrees>-49.2233907245099544525146484375</LatitudeDegrees>
              <LongitudeDegrees>-73.048717640340328216552734375</LongitudeDegrees>
            </Position>
            <AltitudeMeters>649.5999755859375</AltitudeMeters>
            <DistanceMeters>5697.8364667159</DistanceMeters>
          </Trackpoint>
          <Trackpoint>
            <Time>2023-01-11T16:55:43.000Z</Time>
            <Position>
              <LatitudeDegrees>-49.22332090325653553009033203125</LatitudeDegrees>
              <LongitudeDegrees>-73.0486522614955902099609375</LongitudeDegrees>
            </Position>
            <AltitudeMeters>649.20001220703125</AltitudeMeters>
            <DistanceMeters>5706.9461540058</DistanceMeters>
          </Trackpoint>
          <Trackpoint>
            <Time>2023-01-11T16:55:45.000Z</Time>
            <Position>
              <LatitudeDegrees>-49.2233028821647167205810546875</LatitudeDegrees>
              <LongitudeDegrees>-73.04864195175468921661376953125</LongitudeDegrees>
            </Position>
            <AltitudeMeters>649.20001220703125</AltitudeMeters>
            <DistanceMeters>5709.0879473743</DistanceMeters>
          </Trackpoint>
          <Trackpoint>
            <Time>2023-01-11T16:55:51.000Z</Time>
            <Position>
              <LatitudeDegrees>-49.22326239757239818572998046875</LatitudeDegrees>
              <LongitudeDegrees>-73.04858227260410785675048828125</LongitudeDegrees>
            </Position>
            <AltitudeMeters>648.5999755859375</AltitudeMeters>
            <DistanceMeters>5715.3431309233</DistanceMeters>
          </Trackpoint>
          <Trackpoint>
            <Time>2023-01-11T16:55:56.000Z</Time>
            <Position>
              <LatitudeDegrees>-49.22320573590695858001708984375</LatitudeDegrees>
              <LongitudeDegrees>-73.04856534115970134735107421875</LongitudeDegrees>
            </Position>
            <AltitudeMeters>647.4000244140625</AltitudeMeters>
            <DistanceMeters>5721.7692136787</DistanceMeters>
          </Trackpoint>
          <Trackpoint>
            <Time>2023-01-11T16:55:58.000Z</Time>
            <Position>
              <LatitudeDegrees>-49.22319282777607440948486328125</LatitudeDegrees>
              <LongitudeDegrees>-73.04855444468557834625244140625</LongitudeDegrees>
            </Position>
            <AltitudeMeters>647.5999755859375</AltitudeMeters>
            <DistanceMeters>5723.4123791775</DistanceMeters>
          </Trackpoint>
          <Trackpoint>
            <Time>2023-01-11T16:56:01.000Z</Time>
            <Position>
              <LatitudeDegrees>-49.22317489050328731536865234375</LatitudeDegrees>
              <LongitudeDegrees>-73.04851337336003780364990234375</LongitudeDegrees>
            </Position>
            <AltitudeMeters>647.5999755859375</AltitudeMeters>
            <DistanceMeters>5727.0033329731</DistanceMeters>
          </Trackpoint>
          <Trackpoint>
            <Time>2023-01-11T16:56:05.000Z</Time>
            <Position>
              <LatitudeDegrees>-49.2231322266161441802978515625</LatitudeDegrees>
              <LongitudeDegrees>-73.04850650019943714141845703125</LongitudeDegrees>
            </Position>
            <AltitudeMeters>648</AltitudeMeters>
            <DistanceMeters>5731.7774206289</DistanceMeters>
          </Trackpoint>
          <Trackpoint>
            <Time>2023-01-11T16:56:12.000Z</Time>
            <Position>
              <LatitudeDegrees>-49.22306508757174015045166015625</LatitudeDegrees>
              <LongitudeDegrees>-73.04846291430294513702392578125</LongitudeDegrees>
            </Position>
            <AltitudeMeters>648.4000244140625</AltitudeMeters>
            <DistanceMeters>5739.8937256785</DistanceMeters>
          </Trackpoint>
          <Trackpoint>
            <Time>2023-01-11T16:56:13.000Z</Time>
            <Position>
              <LatitudeDegrees>-49.22305469401180744171142578125</LatitudeDegrees>
              <LongitudeDegrees>-73.048452772200107574462890625</LongitudeDegrees>
            </Position>
            <AltitudeMeters>648.5999755859375</AltitudeMeters>
            <DistanceMeters>5741.2642204433</DistanceMeters>
          </Trackpoint>
          <Trackpoint>
            <Time>2023-01-11T16:56:21.000Z</Time>
            <Position>
              <LatitudeDegrees>-49.222969114780426025390625</LatitudeDegrees>
              <LongitudeDegrees>-73.04840843193233013153076171875</LongitudeDegrees>
            </Position>
            <AltitudeMeters>648.4000244140625</AltitudeMeters>
            <DistanceMeters>5751.3200046504</DistanceMeters>
          </Trackpoint>
          <Trackpoint>
            <Time>2023-01-11T16:56:22.000Z</Time>
            <Position>
              <LatitudeDegrees>-49.2229572124779224395751953125</LatitudeDegrees>
              <LongitudeDegrees>-73.048400469124317169189453125</LongitudeDegrees>
            </Position>
            <AltitudeMeters>648.79998779296875</AltitudeMeters>
            <DistanceMeters>5752.7674084416</DistanceMeters>
          </Trackpoint>
          <Trackpoint>
            <Time>2023-01-11T16:56:23.000Z</Time>
            <Position>
              <LatitudeDegrees>-49.22294723801314830780029296875</LatitudeDegrees>
              <LongitudeDegrees>-73.04839183576405048370361328125</LongitudeDegrees>
            </Position>
            <AltitudeMeters>648.79998779296875</AltitudeMeters>
            <DistanceMeters>5754.0423255997</DistanceMeters>
          </Trackpoint>
          <Trackpoint>
            <Time>2023-01-11T16:56:32.000Z</Time>
            <Position>
              <LatitudeDegrees>-49.22286928631365299224853515625</LatitudeDegrees>
              <LongitudeDegrees>-73.04830198176205158233642578125</LongitudeDegrees>
            </Position>
            <AltitudeMeters>649.4000244140625</AltitudeMeters>
            <DistanceMeters>5764.9024281975</DistanceMeters>
          </Trackpoint>
          <Trackpoint>
            <Time>2023-01-11T16:56:38.000Z</Time>
            <Position>
              <LatitudeDegrees>-49.2228066734969615936279296875</LatitudeDegrees>
              <LongitudeDegrees>-73.04825990460813045501708984375</LongitudeDegrees>
            </Position>
            <AltitudeMeters>648.79998779296875</AltitudeMeters>
            <DistanceMeters>5772.5128756424</DistanceMeters>
          </Trackpoint>
          <Trackpoint>
            <Time>2023-01-11T16:56:41.000Z</Time>
            <Position>
              <LatitudeDegrees>-49.22277557663619518280029296875</LatitudeDegrees>
              <LongitudeDegrees>-73.0482477508485317230224609375</LongitudeDegrees>
            </Position>
            <AltitudeMeters>649</AltitudeMeters>
            <DistanceMeters>5776.0861833666</DistanceMeters>
          </Trackpoint>
          <Trackpoint>
            <Time>2023-01-11T16:56:43.000Z</Time>
            <Position>
              <LatitudeDegrees>-49.222756884992122650146484375</LatitudeDegrees>
              <LongitudeDegrees>-73.048230819404125213623046875</LongitudeDegrees>
            </Position>
            <AltitudeMeters>649</AltitudeMeters>
            <DistanceMeters>5778.5014327083</DistanceMeters>
          </Trackpoint>
          <Trackpoint>
            <Time>2023-01-11T16:56:52.000Z</Time>
            <Position>
              <LatitudeDegrees>-49.22272947616875171661376953125</LatitudeDegrees>
              <LongitudeDegrees>-73.04817994125187397003173828125</LongitudeDegrees>
            </Position>
            <AltitudeMeters>649.20001220703125</AltitudeMeters>
            <DistanceMeters>5783.2962814678</DistanceMeters>
          </Trackpoint>
          <Trackpoint>
            <Time>2023-01-11T16:56:55.000Z</Time>
            <Position>
              <LatitudeDegrees>-49.2227144725620746612548828125</LatitudeDegrees>
              <LongitudeDegrees>-73.0481823720037937164306640625</LongitudeDegrees>
            </Position>
            <AltitudeMeters>649.20001220703125</AltitudeMeters>
            <DistanceMeters>5784.9747879023</DistanceMeters>
          </Trackpoint>
          <Trackpoint>
            <Time>2023-01-11T16:56:57.000Z</Time>
            <Position>
              <LatitudeDegrees>-49.22271606512367725372314453125</LatitudeDegrees>
              <LongitudeDegrees>-73.04818094708025455474853515625</LongitudeDegrees>
            </Position>
            <AltitudeMeters>649.20001220703125</AltitudeMeters>
            <DistanceMeters>5785.164841331</DistanceMeters>
          </Trackpoint>
          <Trackpoint>
            <Time>2023-01-11T16:56:59.000Z</Time>
            <Position>
              <LatitudeDegrees>-49.22271941788494586944580078125</LatitudeDegrees>
              <LongitudeDegrees>-73.0481760017573833465576171875</LongitudeDegrees>
            </Position>
            <AltitudeMeters>649.20001220703125</AltitudeMeters>
            <DistanceMeters>5785.6853240813</DistanceMeters>
          </Trackpoint>
          <Trackpoint>
            <Time>2023-01-11T16:57:06.000Z</Time>
            <Position>
              <LatitudeDegrees>-49.22271941788494586944580078125</LatitudeDegrees>
              <LongitudeDegrees>-73.0481760017573833465576171875</LongitudeDegrees>
            </Position>
            <AltitudeMeters>649.20001220703125</AltitudeMeters>
            <DistanceMeters>5785.6853240813</DistanceMeters>
          </Trackpoint>
          <Trackpoint>
            <Time>2023-01-11T16:57:16.000Z</Time>
            <Position>
              <LatitudeDegrees>-49.22268815338611602783203125</LatitudeDegrees>
              <LongitudeDegrees>-73.0481817014515399932861328125</LongitudeDegrees>
            </Position>
            <AltitudeMeters>649.20001220703125</AltitudeMeters>
            <DistanceMeters>5789.1897361523</DistanceMeters>
          </Trackpoint>
          <Trackpoint>
            <Time>2023-01-11T16:57:18.000Z</Time>
            <Position>
              <LatitudeDegrees>-49.22265755943953990936279296875</LatitudeDegrees>
              <LongitudeDegrees>-73.04818279109895229339599609375</LongitudeDegrees>
            </Position>
            <AltitudeMeters>649.20001220703125</AltitudeMeters>
            <DistanceMeters>5792.5948232516</DistanceMeters>
          </Trackpoint>
          <Trackpoint>
            <Time>2023-01-11T16:57:30.000Z</Time>
            <Position>
              <LatitudeDegrees>-49.222506769001483917236328125</LatitudeDegrees>
              <LongitudeDegrees>-73.04817013442516326904296875</LongitudeDegrees>
            </Position>
            <AltitudeMeters>649.20001220703125</AltitudeMeters>
            <DistanceMeters>5809.4030049387</DistanceMeters>
          </Trackpoint>
          <Trackpoint>
            <Time>2023-01-11T16:57:39.000Z</Time>
            <Position>
              <LatitudeDegrees>-49.2224179208278656005859375</LatitudeDegrees>
              <LongitudeDegrees>-73.048212714493274688720703125</LongitudeDegrees>
            </Position>
            <AltitudeMeters>649.20001220703125</AltitudeMeters>
            <DistanceMeters>5819.7648391836</DistanceMeters>
          </Trackpoint>
          <Trackpoint>
            <Time>2023-01-11T16:57:47.000Z</Time>
            <Position>
              <LatitudeDegrees>-49.222384057939052581787109375</LatitudeDegrees>
              <LongitudeDegrees>-73.04820961318910121917724609375</LongitudeDegrees>
            </Position>
            <AltitudeMeters>649.20001220703125</AltitudeMeters>
            <DistanceMeters>5823.5396849591</DistanceMeters>
          </Trackpoint>
          <Trackpoint>
            <Time>2023-01-11T16:57:53.000Z</Time>
            <Position>
              <LatitudeDegrees>-49.2223952896893024444580078125</LatitudeDegrees>
              <LongitudeDegrees>-73.04821514524519443511962890625</LongitudeDegrees>
            </Position>
            <AltitudeMeters>649.4000244140625</AltitudeMeters>
            <DistanceMeters>5824.8529802803</DistanceMeters>
          </Trackpoint>
          <Trackpoint>
            <Time>2023-01-11T16:57:57.000Z</Time>
            <Position>
              <LatitudeDegrees>-49.2223879136145114898681640625</LatitudeDegrees>
              <LongitudeDegrees>-73.0482045002281665802001953125</LongitudeDegrees>
            </Position>
            <AltitudeMeters>649.20001220703125</AltitudeMeters>
            <DistanceMeters>5825.9813599942</DistanceMeters>
          </Trackpoint>
          <Trackpoint>
            <Time>2023-01-11T16:58:00.000Z</Time>
            <Position>
              <LatitudeDegrees>-49.22238715924322605133056640625</LatitudeDegrees>
              <LongitudeDegrees>-73.04820458404719829559326171875</LongitudeDegrees>
            </Position>
            <AltitudeMeters>649.20001220703125</AltitudeMeters>
            <DistanceMeters>5825.9813599942</DistanceMeters>
          </Trackpoint>
          <Trackpoint>
            <Time>2023-01-11T16:58:05.000Z</Time>
            <Position>
              <LatitudeDegrees>-49.22238715924322605133056640625</LatitudeDegrees>
              <LongitudeDegrees>-73.04820458404719829559326171875</LongitudeDegrees>
            </Position>
            <AltitudeMeters>649.5999755859375</AltitudeMeters>
            <DistanceMeters>5825.9813599942</DistanceMeters>
          </Trackpoint>
          <Trackpoint>
            <Time>2023-01-11T16:58:06.000Z</Time>
            <Position>
              <LatitudeDegrees>-49.22238715924322605133056640625</LatitudeDegrees>
              <LongitudeDegrees>-73.04820458404719829559326171875</LongitudeDegrees>
            </Position>
            <AltitudeMeters>649.5999755859375</AltitudeMeters>
            <DistanceMeters>5825.9813599942</DistanceMeters>
          </Trackpoint>
          <Trackpoint>
            <Time>2023-01-11T16:58:23.000Z</Time>
            <Position>
              <LatitudeDegrees>-49.22236603684723377227783203125</LatitudeDegrees>
              <LongitudeDegrees>-73.04820500314235687255859375</LongitudeDegrees>
            </Position>
            <AltitudeMeters>649.4000244140625</AltitudeMeters>
            <DistanceMeters>5828.3321910778</DistanceMeters>
          </Trackpoint>
          <Trackpoint>
            <Time>2023-01-11T16:58:39.000Z</Time>
            <Position>
              <LatitudeDegrees>-49.2223691381514072418212890625</LatitudeDegrees>
              <LongitudeDegrees>-73.04820357821881771087646484375</LongitudeDegrees>
            </Position>
            <AltitudeMeters>649.20001220703125</AltitudeMeters>
            <DistanceMeters>5828.6877484855</DistanceMeters>
          </Trackpoint>
          <Trackpoint>
            <Time>2023-01-11T16:58:51.000Z</Time>
            <Position>
              <LatitudeDegrees>-49.222398810088634490966796875</LatitudeDegrees>
              <LongitudeDegrees>-73.04819821380078792572021484375</LongitudeDegrees>
            </Position>
            <AltitudeMeters>649.5999755859375</AltitudeMeters>
            <DistanceMeters>5832.0123256868</DistanceMeters>
          </Trackpoint>
          <Trackpoint>
            <Time>2023-01-11T16:58:59.000Z</Time>
            <Position>
              <LatitudeDegrees>-49.22240342013537883758544921875</LatitudeDegrees>
              <LongitudeDegrees>-73.04819754324853420257568359375</LongitudeDegrees>
            </Position>
            <AltitudeMeters>650.4000244140625</AltitudeMeters>
            <DistanceMeters>5832.5328084371</DistanceMeters>
          </Trackpoint>
          <Trackpoint>
            <Time>2023-01-11T16:59:01.000Z</Time>
            <Position>
              <LatitudeDegrees>-49.22240409068763256072998046875</LatitudeDegrees>
              <LongitudeDegrees>-73.04819754324853420257568359375</LongitudeDegrees>
            </Position>
            <AltitudeMeters>650.5999755859375</AltitudeMeters>
            <DistanceMeters>5832.6278351515</DistanceMeters>
          </Trackpoint>
          <Trackpoint>
            <Time>2023-01-11T16:59:02.000Z</Time>
            <Position>
              <LatitudeDegrees>-49.22240425832569599151611328125</LatitudeDegrees>
              <LongitudeDegrees>-73.04819754324853420257568359375</LongitudeDegrees>
            </Position>
            <AltitudeMeters>652.5999755859375</AltitudeMeters>
            <DistanceMeters>5832.7228618658</DistanceMeters>
          </Trackpoint>
          <Trackpoint>
            <Time>2023-01-11T16:59:10.000Z</Time>
            <Position>
              <LatitudeDegrees>-49.22240626998245716094970703125</LatitudeDegrees>
              <LongitudeDegrees>-73.04821765981614589691162109375</LongitudeDegrees>
            </Position>
            <AltitudeMeters>653.5999755859375</AltitudeMeters>
            <DistanceMeters>5834.2011306166</DistanceMeters>
          </Trackpoint>
          <Trackpoint>
            <Time>2023-01-11T16:59:12.000Z</Time>
            <Position>
              <LatitudeDegrees>-49.2224063538014888763427734375</LatitudeDegrees>
              <LongitudeDegrees>-73.0482269637286663055419921875</LongitudeDegrees>
            </Position>
            <AltitudeMeters>653.4000244140625</AltitudeMeters>
            <DistanceMeters>5834.8730709578</DistanceMeters>
          </Trackpoint>
          <Trackpoint>
            <Time>2023-01-11T16:59:16.000Z</Time>
            <Position>
              <LatitudeDegrees>-49.2224060185253620147705078125</LatitudeDegrees>
              <LongitudeDegrees>-73.048231489956378936767578125</LongitudeDegrees>
            </Position>
            <AltitudeMeters>652.20001220703125</AltitudeMeters>
            <DistanceMeters>5835.2022531526</DistanceMeters>
          </Trackpoint>
          <Trackpoint>
            <Time>2023-01-11T16:59:18.000Z</Time>
            <Position>
              <LatitudeDegrees>-49.2224053479731082916259765625</LatitudeDegrees>
              <LongitudeDegrees>-73.04823341779410839080810546875</LongitudeDegrees>
            </Position>
            <AltitudeMeters>650.79998779296875</AltitudeMeters>
            <DistanceMeters>5835.3366412208</DistanceMeters>
          </Trackpoint>
          <Trackpoint>
            <Time>2023-01-11T16:59:22.000Z</Time>
            <Position>
              <LatitudeDegrees>-49.2224071919918060302734375</LatitudeDegrees>
              <LongitudeDegrees>-73.0482346750795841217041015625</LongitudeDegrees>
            </Position>
            <AltitudeMeters>650.79998779296875</AltitudeMeters>
            <DistanceMeters>5835.569408183</DistanceMeters>
          </Trackpoint>
          <Trackpoint>
            <Time>2023-01-11T16:59:25.000Z</Time>
            <Position>
              <LatitudeDegrees>-49.22240786254405975341796875</LatitudeDegrees>
              <LongitudeDegrees>-73.0482350103557109832763671875</LongitudeDegrees>
            </Position>
            <AltitudeMeters>653.5999755859375</AltitudeMeters>
            <DistanceMeters>5835.6644348973</DistanceMeters>
          </Trackpoint>
          <Trackpoint>
            <Time>2023-01-11T16:59:31.000Z</Time>
            <Position>
              <LatitudeDegrees>-49.22240777872502803802490234375</LatitudeDegrees>
              <LongitudeDegrees>-73.0482353456318378448486328125</LongitudeDegrees>
            </Position>
            <AltitudeMeters>654</AltitudeMeters>
            <DistanceMeters>5835.6644348973</DistanceMeters>
          </Trackpoint>
          <Trackpoint>
            <Time>2023-01-11T16:59:35.000Z</Time>
            <Position>
              <LatitudeDegrees>-49.2224046774208545684814453125</LatitudeDegrees>
              <LongitudeDegrees>-73.0482350103557109832763671875</LongitudeDegrees>
            </Position>
            <AltitudeMeters>654</AltitudeMeters>
            <DistanceMeters>5835.9936170921</DistanceMeters>
          </Trackpoint>
          <Trackpoint>
            <Time>2023-01-11T16:59:38.000Z</Time>
            <Position>
              <LatitudeDegrees>-49.22240308485925197601318359375</LatitudeDegrees>
              <LongitudeDegrees>-73.0482350103557109832763671875</LongitudeDegrees>
            </Position>
            <AltitudeMeters>656.20001220703125</AltitudeMeters>
            <DistanceMeters>5836.1836705208</DistanceMeters>
          </Trackpoint>
          <Trackpoint>
            <Time>2023-01-11T16:59:44.000Z</Time>
            <Position>
              <LatitudeDegrees>-49.2224033363163471221923828125</LatitudeDegrees>
              <LongitudeDegrees>-73.048238195478916168212890625</LongitudeDegrees>
            </Position>
            <AltitudeMeters>654.4000244140625</AltitudeMeters>
            <DistanceMeters>5836.4164374829</DistanceMeters>
          </Trackpoint>
          <Trackpoint>
            <Time>2023-01-11T16:59:46.000Z</Time>
            <Position>
              <LatitudeDegrees>-49.2224030010402202606201171875</LatitudeDegrees>
              <LongitudeDegrees>-73.0482403747737407684326171875</LongitudeDegrees>
            </Position>
            <AltitudeMeters>652.79998779296875</AltitudeMeters>
            <DistanceMeters>5836.5810285803</DistanceMeters>
          </Trackpoint>
          <Trackpoint>
            <Time>2023-01-11T16:59:52.000Z</Time>
            <Position>
              <LatitudeDegrees>-49.2223966307938098907470703125</LatitudeDegrees>
              <LongitudeDegrees>-73.048238195478916168212890625</LongitudeDegrees>
            </Position>
            <AltitudeMeters>651</AltitudeMeters>
            <DistanceMeters>5837.3047304759</DistanceMeters>
          </Trackpoint>
          <Trackpoint>
            <Time>2023-01-11T16:59:54.000Z</Time>
            <Position>
              <LatitudeDegrees>-49.2223936133086681365966796875</LatitudeDegrees>
              <LongitudeDegrees>-73.0482363514602184295654296875</LongitudeDegrees>
            </Position>
            <AltitudeMeters>650</AltitudeMeters>
            <DistanceMeters>5837.6602878837</DistanceMeters>
          </Trackpoint>
          <Trackpoint>
            <Time>2023-01-11T17:00:00.000Z</Time>
            <Position>
              <LatitudeDegrees>-49.22238900326192378997802734375</LatitudeDegrees>
              <LongitudeDegrees>-73.04823559708893299102783203125</LongitudeDegrees>
            </Position>
            <AltitudeMeters>651</AltitudeMeters>
            <DistanceMeters>5838.180770634</DistanceMeters>
          </Trackpoint>
          <Trackpoint>
            <Time>2023-01-11T17:00:03.000Z</Time>
            <Position>
              <LatitudeDegrees>-49.2223895899951457977294921875</LatitudeDegrees>
              <LongitudeDegrees>-73.0482356809079647064208984375</LongitudeDegrees>
            </Position>
            <AltitudeMeters>651</AltitudeMeters>
            <DistanceMeters>5838.180770634</DistanceMeters>
          </Trackpoint>
          <Trackpoint>
            <Time>2023-01-11T17:00:06.000Z</Time>
            <Position>
              <LatitudeDegrees>-49.22239084728062152862548828125</LatitudeDegrees>
              <LongitudeDegrees>-73.0482363514602184295654296875</LongitudeDegrees>
            </Position>
            <AltitudeMeters>650</AltitudeMeters>
            <DistanceMeters>5838.3151587022</DistanceMeters>
          </Trackpoint>
          <Trackpoint>
            <Time>2023-01-11T17:00:07.000Z</Time>
            <Position>
              <LatitudeDegrees>-49.22239101491868495941162109375</LatitudeDegrees>
              <LongitudeDegrees>-73.048236854374408721923828125</LongitudeDegrees>
            </Position>
            <AltitudeMeters>648.20001220703125</AltitudeMeters>
            <DistanceMeters>5838.3151587022</DistanceMeters>
          </Trackpoint>
          <Trackpoint>
            <Time>2023-01-11T17:00:13.000Z</Time>
            <Position>
              <LatitudeDegrees>-49.22238715924322605133056640625</LatitudeDegrees>
              <LongitudeDegrees>-73.0482380278408527374267578125</LongitudeDegrees>
            </Position>
            <AltitudeMeters>647.79998779296875</AltitudeMeters>
            <DistanceMeters>5838.7608735009</DistanceMeters>
          </Trackpoint>
          <Trackpoint>
            <Time>2023-01-11T17:00:16.000Z</Time>
            <Position>
              <LatitudeDegrees>-49.22238481231033802032470703125</LatitudeDegrees>
              <LongitudeDegrees>-73.04823811165988445281982421875</LongitudeDegrees>
            </Position>
            <AltitudeMeters>648.4000244140625</AltitudeMeters>
            <DistanceMeters>5839.0296496374</DistanceMeters>
          </Trackpoint>
          <Trackpoint>
            <Time>2023-01-11T17:00:17.000Z</Time>
            <Position>
              <LatitudeDegrees>-49.22238464467227458953857421875</LatitudeDegrees>
              <LongitudeDegrees>-73.04823844693601131439208984375</LongitudeDegrees>
            </Position>
            <AltitudeMeters>649.4000244140625</AltitudeMeters>
            <DistanceMeters>5839.0296496374</DistanceMeters>
          </Trackpoint>
          <Trackpoint>
            <Time>2023-01-11T17:00:24.000Z</Time>
            <Position>
              <LatitudeDegrees>-49.22238816507160663604736328125</LatitudeDegrees>
              <LongitudeDegrees>-73.0482390336692333221435546875</LongitudeDegrees>
            </Position>
            <AltitudeMeters>648.4000244140625</AltitudeMeters>
            <DistanceMeters>5839.4328138421</DistanceMeters>
          </Trackpoint>
          <Trackpoint>
            <Time>2023-01-11T17:00:26.000Z</Time>
            <Position>
              <LatitudeDegrees>-49.22238866798579692840576171875</LatitudeDegrees>
              <LongitudeDegrees>-73.04823861457407474517822265625</LongitudeDegrees>
            </Position>
            <AltitudeMeters>648.20001220703125</AltitudeMeters>
            <DistanceMeters>5839.5278405565</DistanceMeters>
          </Trackpoint>
          <Trackpoint>
            <Time>2023-01-11T17:00:29.000Z</Time>
            <Position>
              <LatitudeDegrees>-49.22238900326192378997802734375</LatitudeDegrees>
              <LongitudeDegrees>-73.0482380278408527374267578125</LongitudeDegrees>
            </Position>
            <AltitudeMeters>647.79998779296875</AltitudeMeters>
            <DistanceMeters>5839.5278405565</DistanceMeters>
          </Trackpoint>
          <Trackpoint>
            <Time>2023-01-11T17:00:47.000Z</Time>
            <Position>
              <LatitudeDegrees>-49.2223830521106719970703125</LatitudeDegrees>
              <LongitudeDegrees>-73.0482366867363452911376953125</LongitudeDegrees>
            </Position>
            <AltitudeMeters>649.79998779296875</AltitudeMeters>
            <DistanceMeters>5840.1997808978</DistanceMeters>
          </Trackpoint>
          <Trackpoint>
            <Time>2023-01-11T17:00:53.000Z</Time>
            <Position>
              <LatitudeDegrees>-49.22238162718713283538818359375</LatitudeDegrees>
              <LongitudeDegrees>-73.048230819404125213623046875</LongitudeDegrees>
            </Position>
            <AltitudeMeters>650.20001220703125</AltitudeMeters>
            <DistanceMeters>5840.6555130101</DistanceMeters>
          </Trackpoint>
          <Trackpoint>
            <Time>2023-01-11T17:00:57.000Z</Time>
            <Position>
              <LatitudeDegrees>-49.22238112427294254302978515625</LatitudeDegrees>
              <LongitudeDegrees>-73.0482272990047931671142578125</LongitudeDegrees>
            </Position>
            <AltitudeMeters>650.20001220703125</AltitudeMeters>
            <DistanceMeters>5840.9405931532</DistanceMeters>
          </Trackpoint>
          <Trackpoint>
            <Time>2023-01-11T17:00:58.000Z</Time>
            <Position>
              <LatitudeDegrees>-49.22238104045391082763671875</LatitudeDegrees>
              <LongitudeDegrees>-73.04822620935738086700439453125</LongitudeDegrees>
            </Position>
            <AltitudeMeters>650</AltitudeMeters>
            <DistanceMeters>5841.0749812215</DistanceMeters>
          </Trackpoint>
          <Trackpoint>
            <Time>2023-01-11T17:01:01.000Z</Time>
            <Position>
              <LatitudeDegrees>-49.2223808728158473968505859375</LatitudeDegrees>
              <LongitudeDegrees>-73.0482232756912708282470703125</LongitudeDegrees>
            </Position>
            <AltitudeMeters>650</AltitudeMeters>
            <DistanceMeters>5841.3077481836</DistanceMeters>
          </Trackpoint>
          <Trackpoint>
            <Time>2023-01-11T17:01:02.000Z</Time>
            <Position>
              <LatitudeDegrees>-49.2223808728158473968505859375</LatitudeDegrees>
              <LongitudeDegrees>-73.04822252131998538970947265625</LongitudeDegrees>
            </Position>
            <AltitudeMeters>650.20001220703125</AltitudeMeters>
            <DistanceMeters>5841.4421362518</DistanceMeters>
          </Trackpoint>
          <Trackpoint>
            <Time>2023-01-11T17:01:03.000Z</Time>
            <Position>
              <LatitudeDegrees>-49.22238078899681568145751953125</LatitudeDegrees>
              <LongitudeDegrees>-73.04822168312966823577880859375</LongitudeDegrees>
            </Position>
            <AltitudeMeters>651.4000244140625</AltitudeMeters>
            <DistanceMeters>5841.4421362518</DistanceMeters>
          </Trackpoint>
          <Trackpoint>
            <Time>2023-01-11T17:01:04.000Z</Time>
            <Position>
              <LatitudeDegrees>-49.22238078899681568145751953125</LatitudeDegrees>
              <LongitudeDegrees>-73.048220761120319366455078125</LongitudeDegrees>
            </Position>
            <AltitudeMeters>651.5999755859375</AltitudeMeters>
            <DistanceMeters>5841.4421362518</DistanceMeters>
          </Trackpoint>
          <Trackpoint>
            <Time>2023-01-11T17:01:06.000Z</Time>
            <Position>
              <LatitudeDegrees>-49.222380705177783966064453125</LatitudeDegrees>
              <LongitudeDegrees>-73.0482192523777484893798828125</LongitudeDegrees>
            </Position>
            <AltitudeMeters>653.20001220703125</AltitudeMeters>
            <DistanceMeters>5841.5371629662</DistanceMeters>
          </Trackpoint>
          <Trackpoint>
            <Time>2023-01-11T17:01:07.000Z</Time>
            <Position>
              <LatitudeDegrees>-49.222380705177783966064453125</LatitudeDegrees>
              <LongitudeDegrees>-73.04821866564452648162841796875</LongitudeDegrees>
            </Position>
            <AltitudeMeters>653.20001220703125</AltitudeMeters>
            <DistanceMeters>5841.5371629662</DistanceMeters>
          </Trackpoint>
          <Trackpoint>
            <Time>2023-01-11T17:01:08.000Z</Time>
            <Position>
              <LatitudeDegrees>-49.222380705177783966064453125</LatitudeDegrees>
              <LongitudeDegrees>-73.048218078911304473876953125</LongitudeDegrees>
            </Position>
            <AltitudeMeters>653.4000244140625</AltitudeMeters>
            <DistanceMeters>5841.5371629662</DistanceMeters>
          </Trackpoint>
          <Trackpoint>
            <Time>2023-01-11T17:01:13.000Z</Time>
            <Position>
              <LatitudeDegrees>-49.22238028608262538909912109375</LatitudeDegrees>
              <LongitudeDegrees>-73.0482162348926067352294921875</LongitudeDegrees>
            </Position>
            <AltitudeMeters>652.20001220703125</AltitudeMeters>
            <DistanceMeters>5841.6715510345</DistanceMeters>
          </Trackpoint>
          <Trackpoint>
            <Time>2023-01-11T17:01:20.000Z</Time>
            <Position>
              <LatitudeDegrees>-49.22237978316843509674072265625</LatitudeDegrees>
              <LongitudeDegrees>-73.04821548052132129669189453125</LongitudeDegrees>
            </Position>
            <AltitudeMeters>653.20001220703125</AltitudeMeters>
            <DistanceMeters>5841.7665777488</DistanceMeters>
          </Trackpoint>
          <Trackpoint>
            <Time>2023-01-11T17:01:27.000Z</Time>
            <Position>
              <LatitudeDegrees>-49.22237961553037166595458984375</LatitudeDegrees>
              <LongitudeDegrees>-73.048215396702289581298828125</LongitudeDegrees>
            </Position>
            <AltitudeMeters>652.4000244140625</AltitudeMeters>
            <DistanceMeters>5841.7665777488</DistanceMeters>
          </Trackpoint>
          <Trackpoint>
            <Time>2023-01-11T17:01:28.000Z</Time>
            <Position>
              <LatitudeDegrees>-49.22237961553037166595458984375</LatitudeDegrees>
              <LongitudeDegrees>-73.048215396702289581298828125</LongitudeDegrees>
            </Position>
            <AltitudeMeters>651.4000244140625</AltitudeMeters>
            <DistanceMeters>5841.7665777488</DistanceMeters>
          </Trackpoint>
          <Trackpoint>
            <Time>2023-01-11T17:01:33.000Z</Time>
            <Position>
              <LatitudeDegrees>-49.22236804850399494171142578125</LatitudeDegrees>
              <LongitudeDegrees>-73.04822302423417568206787109375</LongitudeDegrees>
            </Position>
            <AltitudeMeters>651.20001220703125</AltitudeMeters>
            <DistanceMeters>5843.1696303725</DistanceMeters>
          </Trackpoint>
          <Trackpoint>
            <Time>2023-01-11T17:01:37.000Z</Time>
            <Position>
              <LatitudeDegrees>-49.22236704267561435699462890625</LatitudeDegrees>
              <LongitudeDegrees>-73.04822855629026889801025390625</LongitudeDegrees>
            </Position>
            <AltitudeMeters>652.4000244140625</AltitudeMeters>
            <DistanceMeters>5843.5727945773</DistanceMeters>
          </Trackpoint>
          <Trackpoint>
            <Time>2023-01-11T17:01:39.000Z</Time>
            <Position>
              <LatitudeDegrees>-49.22236704267561435699462890625</LatitudeDegrees>
              <LongitudeDegrees>-73.04822855629026889801025390625</LongitudeDegrees>
            </Position>
            <AltitudeMeters>653.5999755859375</AltitudeMeters>
            <DistanceMeters>5843.5727945773</DistanceMeters>
          </Trackpoint>
          <Trackpoint>
            <Time>2023-01-11T17:01:44.000Z</Time>
            <Position>
              <LatitudeDegrees>-49.22236704267561435699462890625</LatitudeDegrees>
              <LongitudeDegrees>-73.04822436533868312835693359375</LongitudeDegrees>
            </Position>
            <AltitudeMeters>652.4000244140625</AltitudeMeters>
            <DistanceMeters>5843.8732954332</DistanceMeters>
          </Trackpoint>
          <Trackpoint>
            <Time>2023-01-11T17:01:51.000Z</Time>
            <Position>
              <LatitudeDegrees>-49.22236704267561435699462890625</LatitudeDegrees>
              <LongitudeDegrees>-73.04822017438709735870361328125</LongitudeDegrees>
            </Position>
            <AltitudeMeters>652.5999755859375</AltitudeMeters>
            <DistanceMeters>5844.1737962892</DistanceMeters>
          </Trackpoint>
          <Trackpoint>
            <Time>2023-01-11T17:01:54.000Z</Time>
            <Position>
              <LatitudeDegrees>-49.22236553393304347991943359375</LatitudeDegrees>
              <LongitudeDegrees>-73.04822017438709735870361328125</LongitudeDegrees>
            </Position>
            <AltitudeMeters>652.79998779296875</AltitudeMeters>
            <DistanceMeters>5844.3383873866</DistanceMeters>
          </Trackpoint>
          <Trackpoint>
            <Time>2023-01-11T17:01:56.000Z</Time>
            <Position>
              <LatitudeDegrees>-49.22236385755240917205810546875</LatitudeDegrees>
              <LongitudeDegrees>-73.04822017438709735870361328125</LongitudeDegrees>
            </Position>
            <AltitudeMeters>652.79998779296875</AltitudeMeters>
            <DistanceMeters>5844.5284408153</DistanceMeters>
          </Trackpoint>
          <Trackpoint>
            <Time>2023-01-11T17:01:59.000Z</Time>
            <Position>
              <LatitudeDegrees>-49.22236385755240917205810546875</LatitudeDegrees>
              <LongitudeDegrees>-73.04822101257741451263427734375</LongitudeDegrees>
            </Position>
            <AltitudeMeters>651.20001220703125</AltitudeMeters>
            <DistanceMeters>5844.5284408153</DistanceMeters>
          </Trackpoint>
          <Trackpoint>
            <Time>2023-01-11T17:02:01.000Z</Time>
            <Position>
              <LatitudeDegrees>-49.22236385755240917205810546875</LatitudeDegrees>
              <LongitudeDegrees>-73.04822118021547794342041015625</LongitudeDegrees>
            </Position>
            <AltitudeMeters>652.5999755859375</AltitudeMeters>
            <DistanceMeters>5844.5284408153</DistanceMeters>
          </Trackpoint>
          <Trackpoint>
            <Time>2023-01-11T17:02:03.000Z</Time>
            <Position>
              <LatitudeDegrees>-49.22236385755240917205810546875</LatitudeDegrees>
              <LongitudeDegrees>-73.04822319187223911285400390625</LongitudeDegrees>
            </Position>
            <AltitudeMeters>650.4000244140625</AltitudeMeters>
            <DistanceMeters>5844.6628288835</DistanceMeters>
          </Trackpoint>
          <Trackpoint>
            <Time>2023-01-11T17:02:05.000Z</Time>
            <Position>
              <LatitudeDegrees>-49.22236385755240917205810546875</LatitudeDegrees>
              <LongitudeDegrees>-73.04822335951030254364013671875</LongitudeDegrees>
            </Position>
            <AltitudeMeters>651.5999755859375</AltitudeMeters>
            <DistanceMeters>5844.6628288835</DistanceMeters>
          </Trackpoint>
          <Trackpoint>
            <Time>2023-01-11T17:02:06.000Z</Time>
            <Position>
              <LatitudeDegrees>-49.2223634384572505950927734375</LatitudeDegrees>
              <LongitudeDegrees>-73.04822335951030254364013671875</LongitudeDegrees>
            </Position>
            <AltitudeMeters>652.5999755859375</AltitudeMeters>
            <DistanceMeters>5844.6628288835</DistanceMeters>
          </Trackpoint>
          <Trackpoint>
            <Time>2023-01-11T17:02:12.000Z</Time>
            <Position>
              <LatitudeDegrees>-49.22235832549631595611572265625</LatitudeDegrees>
              <LongitudeDegrees>-73.048228807747364044189453125</LongitudeDegrees>
            </Position>
            <AltitudeMeters>651.4000244140625</AltitudeMeters>
            <DistanceMeters>5845.3546338066</DistanceMeters>
          </Trackpoint>
          <Trackpoint>
            <Time>2023-01-11T17:02:38.000Z</Time>
            <Position>
              <LatitudeDegrees>-49.22236419282853603363037109375</LatitudeDegrees>
              <LongitudeDegrees>-73.04824816994369029998779296875</LongitudeDegrees>
            </Position>
            <AltitudeMeters>650.4000244140625</AltitudeMeters>
            <DistanceMeters>5846.9044726156</DistanceMeters>
          </Trackpoint>
          <Trackpoint>
            <Time>2023-01-11T17:02:43.000Z</Time>
            <Position>
              <LatitudeDegrees>-49.22236452810466289520263671875</LatitudeDegrees>
              <LongitudeDegrees>-73.0482551269233226776123046875</LongitudeDegrees>
            </Position>
            <AltitudeMeters>650.4000244140625</AltitudeMeters>
            <DistanceMeters>5847.4073067239</DistanceMeters>
          </Trackpoint>
          <Trackpoint>
            <Time>2023-01-11T17:02:45.000Z</Time>
            <Position>
              <LatitudeDegrees>-49.2223647795617580413818359375</LatitudeDegrees>
              <LongitudeDegrees>-73.0482554621994495391845703125</LongitudeDegrees>
            </Position>
            <AltitudeMeters>650.20001220703125</AltitudeMeters>
            <DistanceMeters>5847.4073067239</DistanceMeters>
          </Trackpoint>
          <Trackpoint>
            <Time>2023-01-11T17:02:53.000Z</Time>
            <Position>
              <LatitudeDegrees>-49.22236368991434574127197265625</LatitudeDegrees>
              <LongitudeDegrees>-73.04824523627758026123046875</LongitudeDegrees>
            </Position>
            <AltitudeMeters>649.79998779296875</AltitudeMeters>
            <DistanceMeters>5848.1555478211</DistanceMeters>
          </Trackpoint>
          <Trackpoint>
            <Time>2023-01-11T17:02:57.000Z</Time>
            <Position>
              <LatitudeDegrees>-49.22231926582753658294677734375</LatitudeDegrees>
              <LongitudeDegrees>-73.04815093986690044403076171875</LongitudeDegrees>
            </Position>
            <AltitudeMeters>649.5999755859375</AltitudeMeters>
            <DistanceMeters>5856.6081193129</DistanceMeters>
          </Trackpoint>
          <Trackpoint>
            <Time>2023-01-11T17:03:05.000Z</Time>
            <Position>
              <LatitudeDegrees>-49.22224081121385097503662109375</LatitudeDegrees>
              <LongitudeDegrees>-73.048045746982097625732421875</LongitudeDegrees>
            </Position>
            <AltitudeMeters>648.4000244140625</AltitudeMeters>
            <DistanceMeters>5868.2153903335</DistanceMeters>
          </Trackpoint>
          <Trackpoint>
            <Time>2023-01-11T17:03:06.000Z</Time>
            <Position>
              <LatitudeDegrees>-49.22222991473972797393798828125</LatitudeDegrees>
              <LongitudeDegrees>-73.04803845472633838653564453125</LongitudeDegrees>
            </Position>
            <AltitudeMeters>647.79998779296875</AltitudeMeters>
            <DistanceMeters>5869.5389593079</DistanceMeters>
          </Trackpoint>
          <Trackpoint>
            <Time>2023-01-11T17:03:12.000Z</Time>
            <Position>
              <LatitudeDegrees>-49.22218046151101589202880859375</LatitudeDegrees>
              <LongitudeDegrees>-73.048002161085605621337890625</LongitudeDegrees>
            </Position>
            <AltitudeMeters>648.20001220703125</AltitudeMeters>
            <DistanceMeters>5875.6429002814</DistanceMeters>
          </Trackpoint>
          <Trackpoint>
            <Time>2023-01-11T17:03:17.000Z</Time>
            <Position>
              <LatitudeDegrees>-49.2221374623477458953857421875</LatitudeDegrees>
              <LongitudeDegrees>-73.04797542281448841094970703125</LongitudeDegrees>
            </Position>
            <AltitudeMeters>648.4000244140625</AltitudeMeters>
            <DistanceMeters>5880.8085440837</DistanceMeters>
          </Trackpoint>
          <Trackpoint>
            <Time>2023-01-11T17:03:22.000Z</Time>
            <Position>
              <LatitudeDegrees>-49.22208842821419239044189453125</LatitudeDegrees>
              <LongitudeDegrees>-73.04794709198176860809326171875</LongitudeDegrees>
            </Position>
            <AltitudeMeters>649</AltitudeMeters>
            <DistanceMeters>5886.64089335</DistanceMeters>
          </Trackpoint>
          <Trackpoint>
            <Time>2023-01-11T17:03:24.000Z</Time>
            <Position>
              <LatitudeDegrees>-49.222065545618534088134765625</LatitudeDegrees>
              <LongitudeDegrees>-73.04793518967926502227783203125</LongitudeDegrees>
            </Position>
            <AltitudeMeters>649</AltitudeMeters>
            <DistanceMeters>5889.3303340412</DistanceMeters>
          </Trackpoint>
          <Trackpoint>
            <Time>2023-01-11T17:03:25.000Z</Time>
            <Position>
              <LatitudeDegrees>-49.22205372713506221771240234375</LatitudeDegrees>
              <LongitudeDegrees>-73.0479319207370281219482421875</LongitudeDegrees>
            </Position>
            <AltitudeMeters>649.5999755859375</AltitudeMeters>
            <DistanceMeters>5890.6674784373</DistanceMeters>
          </Trackpoint>
          <Trackpoint>
            <Time>2023-01-11T17:03:29.000Z</Time>
            <Position>
              <LatitudeDegrees>-49.22200578264892101287841796875</LatitudeDegrees>
              <LongitudeDegrees>-73.04793351329863071441650390625</LongitudeDegrees>
            </Position>
            <AltitudeMeters>650.79998779296875</AltitudeMeters>
            <DistanceMeters>5896.0059165288</DistanceMeters>
          </Trackpoint>
          <Trackpoint>
            <Time>2023-01-11T17:03:34.000Z</Time>
            <Position>
              <LatitudeDegrees>-49.22196219675242900848388671875</LatitudeDegrees>
              <LongitudeDegrees>-73.04794742725789546966552734375</LongitudeDegrees>
            </Position>
            <AltitudeMeters>650.79998779296875</AltitudeMeters>
            <DistanceMeters>5900.9619036078</DistanceMeters>
          </Trackpoint>
          <Trackpoint>
            <Time>2023-01-11T17:03:36.000Z</Time>
            <Position>
              <LatitudeDegrees>-49.22194786369800567626953125</LatitudeDegrees>
              <LongitudeDegrees>-73.04795949719846248626708984375</LongitudeDegrees>
            </Position>
            <AltitudeMeters>649.4000244140625</AltitudeMeters>
            <DistanceMeters>5902.7848320572</DistanceMeters>
          </Trackpoint>
          <Trackpoint>
            <Time>2023-01-11T17:03:39.000Z</Time>
            <Position>
              <LatitudeDegrees>-49.22192037105560302734375</LatitudeDegrees>
              <LongitudeDegrees>-73.04798715747892856597900390625</LongitudeDegrees>
            </Position>
            <AltitudeMeters>648.20001220703125</AltitudeMeters>
            <DistanceMeters>5906.446752799</DistanceMeters>
          </Trackpoint>
          <Trackpoint>
            <Time>2023-01-11T17:03:42.000Z</Time>
            <Position>
              <LatitudeDegrees>-49.22191073186695575714111328125</LatitudeDegrees>
              <LongitudeDegrees>-73.04801381193101406097412109375</LongitudeDegrees>
            </Position>
            <AltitudeMeters>648.4000244140625</AltitudeMeters>
            <DistanceMeters>5908.6631375998</DistanceMeters>
          </Trackpoint>
          <Trackpoint>
            <Time>2023-01-11T17:03:46.000Z</Time>
            <Position>
              <LatitudeDegrees>-49.22189530916512012481689453125</LatitudeDegrees>
              <LongitudeDegrees>-73.0480197630822658538818359375</LongitudeDegrees>
            </Position>
            <AltitudeMeters>650.79998779296875</AltitudeMeters>
            <DistanceMeters>5910.43583797</DistanceMeters>
          </Trackpoint>
          <Trackpoint>
            <Time>2023-01-11T17:03:47.000Z</Time>
            <Position>
              <LatitudeDegrees>-49.22188592143356800079345703125</LatitudeDegrees>
              <LongitudeDegrees>-73.04802387021481990814208984375</LongitudeDegrees>
            </Position>
            <AltitudeMeters>651.79998779296875</AltitudeMeters>
            <DistanceMeters>5911.5234684285</DistanceMeters>
          </Trackpoint>
          <Trackpoint>
            <Time>2023-01-11T17:03:51.000Z</Time>
            <Position>
              <LatitudeDegrees>-49.22186027280986309051513671875</LatitudeDegrees>
              <LongitudeDegrees>-73.0480378679931163787841796875</LongitudeDegrees>
            </Position>
            <AltitudeMeters>649.79998779296875</AltitudeMeters>
            <DistanceMeters>5914.5554014455</DistanceMeters>
          </Trackpoint>
          <Trackpoint>
            <Time>2023-01-11T17:03:52.000Z</Time>
            <Position>
              <LatitudeDegrees>-49.2218534834682941436767578125</LatitudeDegrees>
              <LongitudeDegrees>-73.0480434000492095947265625</LongitudeDegrees>
            </Position>
            <AltitudeMeters>649.79998779296875</AltitudeMeters>
            <DistanceMeters>5915.4106418749</DistanceMeters>
          </Trackpoint>
          <Trackpoint>
            <Time>2023-01-11T17:03:56.000Z</Time>
            <Position>
              <LatitudeDegrees>-49.22183847986161708831787109375</LatitudeDegrees>
              <LongitudeDegrees>-73.048064522445201873779296875</LongitudeDegrees>
            </Position>
            <AltitudeMeters>648.4000244140625</AltitudeMeters>
            <DistanceMeters>5917.6793735851</DistanceMeters>
          </Trackpoint>
          <Trackpoint>
            <Time>2023-01-11T17:03:59.000Z</Time>
            <Position>
              <LatitudeDegrees>-49.2218192853033542633056640625</LatitudeDegrees>
              <LongitudeDegrees>-73.0480844713747501373291015625</LongitudeDegrees>
            </Position>
            <AltitudeMeters>647</AltitudeMeters>
            <DistanceMeters>5920.262632475</DistanceMeters>
          </Trackpoint>
          <Trackpoint>
            <Time>2023-01-11T17:04:02.000Z</Time>
            <Position>
              <LatitudeDegrees>-49.22181065194308757781982421875</LatitudeDegrees>
              <LongitudeDegrees>-73.04808991961181163787841796875</LongitudeDegrees>
            </Position>
            <AltitudeMeters>647</AltitudeMeters>
            <DistanceMeters>5921.3035979755</DistanceMeters>
          </Trackpoint>
          <Trackpoint>
            <Time>2023-01-11T17:04:05.000Z</Time>
            <Position>
              <LatitudeDegrees>-49.221802018582820892333984375</LatitudeDegrees>
              <LongitudeDegrees>-73.04812344722449779510498046875</LongitudeDegrees>
            </Position>
            <AltitudeMeters>645.4000244140625</AltitudeMeters>
            <DistanceMeters>5923.9267484192</DistanceMeters>
          </Trackpoint>
          <Trackpoint>
            <Time>2023-01-11T17:04:08.000Z</Time>
            <Position>
              <LatitudeDegrees>-49.22178014181554317474365234375</LatitudeDegrees>
              <LongitudeDegrees>-73.0481399595737457275390625</LongitudeDegrees>
            </Position>
            <AltitudeMeters>644.5999755859375</AltitudeMeters>
            <DistanceMeters>5926.6412543371</DistanceMeters>
          </Trackpoint>
          <Trackpoint>
            <Time>2023-01-11T17:04:12.000Z</Time>
            <Position>
              <LatitudeDegrees>-49.22174946404993534088134765625</LatitudeDegrees>
              <LongitudeDegrees>-73.048142306506633758544921875</LongitudeDegrees>
            </Position>
            <AltitudeMeters>643.4000244140625</AltitudeMeters>
            <DistanceMeters>5930.0608959842</DistanceMeters>
          </Trackpoint>
          <Trackpoint>
            <Time>2023-01-11T17:04:18.000Z</Time>
            <Position>
              <LatitudeDegrees>-49.2217233963310718536376953125</LatitudeDegrees>
              <LongitudeDegrees>-73.0481760017573833465576171875</LongitudeDegrees>
            </Position>
            <AltitudeMeters>641.4000244140625</AltitudeMeters>
            <DistanceMeters>5933.85721025</DistanceMeters>
          </Trackpoint>
          <Trackpoint>
            <Time>2023-01-11T17:04:21.000Z</Time>
            <Position>
              <LatitudeDegrees>-49.2217096500098705291748046875</LatitudeDegrees>
              <LongitudeDegrees>-73.04818295873701572418212890625</LongitudeDegrees>
            </Position>
            <AltitudeMeters>640</AltitudeMeters>
            <DistanceMeters>5935.467064883</DistanceMeters>
          </Trackpoint>
          <Trackpoint>
            <Time>2023-01-11T17:04:24.000Z</Time>
            <Position>
              <LatitudeDegrees>-49.22169766388833522796630859375</LatitudeDegrees>
              <LongitudeDegrees>-73.0482001416385173797607421875</LongitudeDegrees>
            </Position>
            <AltitudeMeters>639</AltitudeMeters>
            <DistanceMeters>5937.2974086651</DistanceMeters>
          </Trackpoint>
          <Trackpoint>
            <Time>2023-01-11T17:04:28.000Z</Time>
            <Position>
              <LatitudeDegrees>-49.22167520038783550262451171875</LatitudeDegrees>
              <LongitudeDegrees>-73.0482336692512035369873046875</LongitudeDegrees>
            </Position>
            <AltitudeMeters>638.5999755859375</AltitudeMeters>
            <DistanceMeters>5940.7889130972</DistanceMeters>
          </Trackpoint>
          <Trackpoint>
            <Time>2023-01-11T17:04:32.000Z</Time>
            <Position>
              <LatitudeDegrees>-49.22164251096546649932861328125</LatitudeDegrees>
              <LongitudeDegrees>-73.04824749939143657684326171875</LongitudeDegrees>
            </Position>
            <AltitudeMeters>638</AltitudeMeters>
            <DistanceMeters>5944.5637588727</DistanceMeters>
          </Trackpoint>
          <Trackpoint>
            <Time>2023-01-11T17:04:35.000Z</Time>
            <Position>
              <LatitudeDegrees>-49.2216159403324127197265625</LatitudeDegrees>
              <LongitudeDegrees>-73.048248589038848876953125</LongitudeDegrees>
            </Position>
            <AltitudeMeters>636.5999755859375</AltitudeMeters>
            <DistanceMeters>5947.5218231171</DistanceMeters>
          </Trackpoint>
          <Trackpoint>
            <Time>2023-01-11T17:04:36.000Z</Time>
            <Position>
              <LatitudeDegrees>-49.2216110788285732269287109375</LatitudeDegrees>
              <LongitudeDegrees>-73.04824448190629482269287109375</LongitudeDegrees>
            </Position>
            <AltitudeMeters>635.4000244140625</AltitudeMeters>
            <DistanceMeters>5948.1376666124</DistanceMeters>
          </Trackpoint>
          <Trackpoint>
            <Time>2023-01-11T17:04:39.000Z</Time>
            <Position>
              <LatitudeDegrees>-49.22158417291939258575439453125</LatitudeDegrees>
              <LongitudeDegrees>-73.0482427217066287994384765625</LongitudeDegrees>
            </Position>
            <AltitudeMeters>634.79998779296875</AltitudeMeters>
            <DistanceMeters>5951.1366591329</DistanceMeters>
          </Trackpoint>
          <Trackpoint>
            <Time>2023-01-11T17:04:41.000Z</Time>
            <Position>
              <LatitudeDegrees>-49.22156573273241519927978515625</LatitudeDegrees>
              <LongitudeDegrees>-73.048237860202789306640625</LongitudeDegrees>
            </Position>
            <AltitudeMeters>634.20001220703125</AltitudeMeters>
            <DistanceMeters>5953.218590134</DistanceMeters>
          </Trackpoint>
          <Trackpoint>
            <Time>2023-01-11T17:04:42.000Z</Time>
            <Position>
              <LatitudeDegrees>-49.22156020067632198333740234375</LatitudeDegrees>
              <LongitudeDegrees>-73.048236183822154998779296875</LongitudeDegrees>
            </Position>
            <AltitudeMeters>635.79998779296875</AltitudeMeters>
            <DistanceMeters>5953.8489260472</DistanceMeters>
          </Trackpoint>
          <Trackpoint>
            <Time>2023-01-11T17:04:46.000Z</Time>
            <Position>
              <LatitudeDegrees>-49.221530444920063018798828125</LatitudeDegrees>
              <LongitudeDegrees>-73.048258982598781585693359375</LongitudeDegrees>
            </Position>
            <AltitudeMeters>634.5999755859375</AltitudeMeters>
            <DistanceMeters>5957.5525305237</DistanceMeters>
          </Trackpoint>
          <Trackpoint>
            <Time>2023-01-11T17:04:48.000Z</Time>
            <Position>
              <LatitudeDegrees>-49.22151200473308563232421875</LatitudeDegrees>
              <LongitudeDegrees>-73.0482564680278301239013671875</LongitudeDegrees>
            </Position>
            <AltitudeMeters>633.4000244140625</AltitudeMeters>
            <DistanceMeters>5959.6148510626</DistanceMeters>
          </Trackpoint>
          <Trackpoint>
            <Time>2023-01-11T17:04:51.000Z</Time>
            <Position>
              <LatitudeDegrees>-49.22149113379418849945068359375</LatitudeDegrees>
              <LongitudeDegrees>-73.04824632592499256134033203125</LongitudeDegrees>
            </Position>
            <AltitudeMeters>632</AltitudeMeters>
            <DistanceMeters>5962.0524298408</DistanceMeters>
          </Trackpoint>
          <Trackpoint>
            <Time>2023-01-11T17:04:52.000Z</Time>
            <Position>
              <LatitudeDegrees>-49.22148325480520725250244140625</LatitudeDegrees>
              <LongitudeDegrees>-73.048246242105960845947265625</LongitudeDegrees>
            </Position>
            <AltitudeMeters>631.4000244140625</AltitudeMeters>
            <DistanceMeters>5962.9233640641</DistanceMeters>
          </Trackpoint>
          <Trackpoint>
            <Time>2023-01-11T17:04:56.000Z</Time>
            <Position>
              <LatitudeDegrees>-49.22144201584160327911376953125</LatitudeDegrees>
              <LongitudeDegrees>-73.0482526123523712158203125</LongitudeDegrees>
            </Position>
            <AltitudeMeters>631.20001220703125</AltitudeMeters>
            <DistanceMeters>5967.5358319612</DistanceMeters>
          </Trackpoint>
          <Trackpoint>
            <Time>2023-01-11T17:04:58.000Z</Time>
            <Position>
              <LatitudeDegrees>-49.221419803798198699951171875</LatitudeDegrees>
              <LongitudeDegrees>-73.04826443083584308624267578125</LongitudeDegrees>
            </Position>
            <AltitudeMeters>631</AltitudeMeters>
            <DistanceMeters>5970.1538136306</DistanceMeters>
          </Trackpoint>
          <Trackpoint>
            <Time>2023-01-11T17:05:02.000Z</Time>
            <Position>
              <LatitudeDegrees>-49.221383593976497650146484375</LatitudeDegrees>
              <LongitudeDegrees>-73.048271723091602325439453125</LongitudeDegrees>
            </Position>
            <AltitudeMeters>630.79998779296875</AltitudeMeters>
            <DistanceMeters>5974.2189138621</DistanceMeters>
          </Trackpoint>
          <Trackpoint>
            <Time>2023-01-11T17:05:07.000Z</Time>
            <Position>
              <LatitudeDegrees>-49.221343696117401123046875</LatitudeDegrees>
              <LongitudeDegrees>-73.04830483160912990570068359375</LongitudeDegrees>
            </Position>
            <AltitudeMeters>632</AltitudeMeters>
            <DistanceMeters>5979.2705468684</DistanceMeters>
          </Trackpoint>
          <Trackpoint>
            <Time>2023-01-11T17:05:11.000Z</Time>
            <Position>
              <LatitudeDegrees>-49.22132148407399654388427734375</LatitudeDegrees>
              <LongitudeDegrees>-73.048316650092601776123046875</LongitudeDegrees>
            </Position>
            <AltitudeMeters>632.5999755859375</AltitudeMeters>
            <DistanceMeters>5981.8885285378</DistanceMeters>
          </Trackpoint>
          <Trackpoint>
            <Time>2023-01-11T17:05:16.000Z</Time>
            <Position>
              <LatitudeDegrees>-49.22130388207733631134033203125</LatitudeDegrees>
              <LongitudeDegrees>-73.04835210554301738739013671875</LongitudeDegrees>
            </Position>
            <AltitudeMeters>630.79998779296875</AltitudeMeters>
            <DistanceMeters>5985.1278106848</DistanceMeters>
          </Trackpoint>
          <Trackpoint>
            <Time>2023-01-11T17:05:19.000Z</Time>
            <Position>
              <LatitudeDegrees>-49.22129935584962368011474609375</LatitudeDegrees>
              <LongitudeDegrees>-73.04838546551764011383056640625</LongitudeDegrees>
            </Position>
            <AltitudeMeters>630.4000244140625</AltitudeMeters>
            <DistanceMeters>5987.6058042243</DistanceMeters>
          </Trackpoint>
          <Trackpoint>
            <Time>2023-01-11T17:05:21.000Z</Time>
            <Position>
              <LatitudeDegrees>-49.22128443606197834014892578125</LatitudeDegrees>
              <LongitudeDegrees>-73.04840960539877414703369140625</LongitudeDegrees>
            </Position>
            <AltitudeMeters>630.4000244140625</AltitudeMeters>
            <DistanceMeters>5990.021053566</DistanceMeters>
          </Trackpoint>
          <Trackpoint>
            <Time>2023-01-11T17:05:24.000Z</Time>
            <Position>
              <LatitudeDegrees>-49.22125711105763912200927734375</LatitudeDegrees>
              <LongitudeDegrees>-73.04843567311763763427734375</LongitudeDegrees>
            </Position>
            <AltitudeMeters>630.4000244140625</AltitudeMeters>
            <DistanceMeters>5993.6031951918</DistanceMeters>
          </Trackpoint>
          <Trackpoint>
            <Time>2023-01-11T17:05:25.000Z</Time>
            <Position>
              <LatitudeDegrees>-49.22125442884862422943115234375</LatitudeDegrees>
              <LongitudeDegrees>-73.04845067672431468963623046875</LongitudeDegrees>
            </Position>
            <AltitudeMeters>628.5999755859375</AltitudeMeters>
            <DistanceMeters>5994.7315749056</DistanceMeters>
          </Trackpoint>
          <Trackpoint>
            <Time>2023-01-11T17:05:28.000Z</Time>
            <Position>
              <LatitudeDegrees>-49.22124646604061126708984375</LatitudeDegrees>
              <LongitudeDegrees>-73.04847967810928821563720703125</LongitudeDegrees>
            </Position>
            <AltitudeMeters>628</AltitudeMeters>
            <DistanceMeters>5997.0201212428</DistanceMeters>
          </Trackpoint>
          <Trackpoint>
            <Time>2023-01-11T17:05:31.000Z</Time>
            <Position>
              <LatitudeDegrees>-49.22123062424361705780029296875</LatitudeDegrees>
              <LongitudeDegrees>-73.04850851185619831085205078125</LongitudeDegrees>
            </Position>
            <AltitudeMeters>627.5999755859375</AltitudeMeters>
            <DistanceMeters>5999.7594630479</DistanceMeters>
          </Trackpoint>
          <Trackpoint>
            <Time>2023-01-11T17:05:32.000Z</Time>
            <Position>
              <LatitudeDegrees>-49.22122442163527011871337890625</LatitudeDegrees>
              <LongitudeDegrees>-73.0485149659216403961181640625</LongitudeDegrees>
            </Position>
            <AltitudeMeters>627.20001220703125</AltitudeMeters>
            <DistanceMeters>6000.5987162651</DistanceMeters>
          </Trackpoint>
          <Trackpoint>
            <Time>2023-01-11T17:05:34.000Z</Time>
            <Position>
              <LatitudeDegrees>-49.2212117649614810943603515625</LatitudeDegrees>
              <LongitudeDegrees>-73.048525862395763397216796875</LongitudeDegrees>
            </Position>
            <AltitudeMeters>627.5999755859375</AltitudeMeters>
            <DistanceMeters>6002.2169628992</DistanceMeters>
          </Trackpoint>
          <Trackpoint>
            <Time>2023-01-11T17:05:36.000Z</Time>
            <Position>
              <LatitudeDegrees>-49.22120078466832637786865234375</LatitudeDegrees>
              <LongitudeDegrees>-73.0485401116311550140380859375</LongitudeDegrees>
            </Position>
            <AltitudeMeters>626.79998779296875</AltitudeMeters>
            <DistanceMeters>6003.8211984762</DistanceMeters>
          </Trackpoint>
          <Trackpoint>
            <Time>2023-01-11T17:05:37.000Z</Time>
            <Position>
              <LatitudeDegrees>-49.22119223512709140777587890625</LatitudeDegrees>
              <LongitudeDegrees>-73.0485476553440093994140625</LongitudeDegrees>
            </Position>
            <AltitudeMeters>626.79998779296875</AltitudeMeters>
            <DistanceMeters>6004.9212122231</DistanceMeters>
          </Trackpoint>
          <Trackpoint>
            <Time>2023-01-11T17:05:41.000Z</Time>
            <Position>
              <LatitudeDegrees>-49.22116558067500591278076171875</LatitudeDegrees>
              <LongitudeDegrees>-73.048584200441837310791015625</LongitudeDegrees>
            </Position>
            <AltitudeMeters>625.79998779296875</AltitudeMeters>
            <DistanceMeters>6008.9032737791</DistanceMeters>
          </Trackpoint>
          <Trackpoint>
            <Time>2023-01-11T17:05:43.000Z</Time>
            <Position>
              <LatitudeDegrees>-49.22114898450672626495361328125</LatitudeDegrees>
              <LongitudeDegrees>-73.04860674776136875152587890625</LongitudeDegrees>
            </Position>
            <AltitudeMeters>624.5999755859375</AltitudeMeters>
            <DistanceMeters>6011.3703107718</DistanceMeters>
          </Trackpoint>
          <Trackpoint>
            <Time>2023-01-11T17:05:45.000Z</Time>
            <Position>
              <LatitudeDegrees>-49.2211385071277618408203125</LatitudeDegrees>
              <LongitudeDegrees>-73.04863625206053256988525390625</LongitudeDegrees>
            </Position>
            <AltitudeMeters>624.20001220703125</AltitudeMeters>
            <DistanceMeters>6013.8115912663</DistanceMeters>
          </Trackpoint>
          <Trackpoint>
            <Time>2023-01-11T17:05:49.000Z</Time>
            <Position>
              <LatitudeDegrees>-49.2211155407130718231201171875</LatitudeDegrees>
              <LongitudeDegrees>-73.04866324178874492645263671875</LongitudeDegrees>
            </Position>
            <AltitudeMeters>623.79998779296875</AltitudeMeters>
            <DistanceMeters>6017.0341039367</DistanceMeters>
          </Trackpoint>
          <Trackpoint>
            <Time>2023-01-11T17:05:50.000Z</Time>
            <Position>
              <LatitudeDegrees>-49.22110774554312229156494140625</LatitudeDegrees>
              <LongitudeDegrees>-73.04867262952029705047607421875</LongitudeDegrees>
            </Position>
            <AltitudeMeters>623.79998779296875</AltitudeMeters>
            <DistanceMeters>6018.1382145833</DistanceMeters>
          </Trackpoint>
          <Trackpoint>
            <Time>2023-01-11T17:05:51.000Z</Time>
            <Position>
              <LatitudeDegrees>-49.22109701670706272125244140625</LatitudeDegrees>
              <LongitudeDegrees>-73.04868268780410289764404296875</LongitudeDegrees>
            </Position>
            <AltitudeMeters>622.5999755859375</AltitudeMeters>
            <DistanceMeters>6019.5412672069</DistanceMeters>
          </Trackpoint>
          <Trackpoint>
            <Time>2023-01-11T17:05:52.000Z</Time>
            <Position>
              <LatitudeDegrees>-49.2210940830409526824951171875</LatitudeDegrees>
              <LongitudeDegrees>-73.04870179854333400726318359375</LongitudeDegrees>
            </Position>
            <AltitudeMeters>622.4000244140625</AltitudeMeters>
            <DistanceMeters>6020.9666679225</DistanceMeters>
          </Trackpoint>
          <Trackpoint>
            <Time>2023-01-11T17:05:53.000Z</Time>
            <Position>
              <LatitudeDegrees>-49.22108964063227176666259765625</LatitudeDegrees>
              <LongitudeDegrees>-73.04871839471161365509033203125</LongitudeDegrees>
            </Position>
            <AltitudeMeters>621.20001220703125</AltitudeMeters>
            <DistanceMeters>6022.2696085855</DistanceMeters>
          </Trackpoint>
          <Trackpoint>
            <Time>2023-01-11T17:05:56.000Z</Time>
            <Position>
              <LatitudeDegrees>-49.22106944024562835693359375</LatitudeDegrees>
              <LongitudeDegrees>-73.04874756373465061187744140625</LongitudeDegrees>
            </Position>
            <AltitudeMeters>621.20001220703125</AltitudeMeters>
            <DistanceMeters>6025.3605341553</DistanceMeters>
          </Trackpoint>
          <Trackpoint>
            <Time>2023-01-11T17:06:02.000Z</Time>
            <Position>
              <LatitudeDegrees>-49.22099928371608257293701171875</LatitudeDegrees>
              <LongitudeDegrees>-73.0487593822181224822998046875</LongitudeDegrees>
            </Position>
            <AltitudeMeters>620</AltitudeMeters>
            <DistanceMeters>6033.2162035996</DistanceMeters>
          </Trackpoint>
          <Trackpoint>
            <Time>2023-01-11T17:06:03.000Z</Time>
            <Position>
              <LatitudeDegrees>-49.22099056653678417205810546875</LatitudeDegrees>
              <LongitudeDegrees>-73.0487670935690402984619140625</LongitudeDegrees>
            </Position>
            <AltitudeMeters>619.79998779296875</AltitudeMeters>
            <DistanceMeters>6034.3325147342</DistanceMeters>
          </Trackpoint>
          <Trackpoint>
            <Time>2023-01-11T17:06:05.000Z</Time>
            <Position>
              <LatitudeDegrees>-49.22096776776015758514404296875</LatitudeDegrees>
              <LongitudeDegrees>-73.0487925745546817779541015625</LongitudeDegrees>
            </Position>
            <AltitudeMeters>618.79998779296875</AltitudeMeters>
            <DistanceMeters>6037.4727127338</DistanceMeters>
          </Trackpoint>
          <Trackpoint>
            <Time>2023-01-11T17:06:09.000Z</Time>
            <Position>
              <LatitudeDegrees>-49.22089769504964351654052734375</LatitudeDegrees>
              <LongitudeDegrees>-73.04878461174666881561279296875</LongitudeDegrees>
            </Position>
            <AltitudeMeters>618.20001220703125</AltitudeMeters>
            <DistanceMeters>6045.2932439022</DistanceMeters>
          </Trackpoint>
          <Trackpoint>
            <Time>2023-01-11T17:06:10.000Z</Time>
            <Position>
              <LatitudeDegrees>-49.22088126651942729949951171875</LatitudeDegrees>
              <LongitudeDegrees>-73.0487872101366519927978515625</LongitudeDegrees>
            </Position>
            <AltitudeMeters>616</AltitudeMeters>
            <DistanceMeters>6047.130973096</DistanceMeters>
          </Trackpoint>
          <Trackpoint>
            <Time>2023-01-11T17:06:15.000Z</Time>
            <Position>
              <LatitudeDegrees>-49.2208127863705158233642578125</LatitudeDegrees>
              <LongitudeDegrees>-73.0487982742488384246826171875</LongitudeDegrees>
            </Position>
            <AltitudeMeters>615.20001220703125</AltitudeMeters>
            <DistanceMeters>6054.7952178252</DistanceMeters>
          </Trackpoint>
          <Trackpoint>
            <Time>2023-01-11T17:06:16.000Z</Time>
            <Position>
              <LatitudeDegrees>-49.220801889896392822265625</LatitudeDegrees>
              <LongitudeDegrees>-73.04879265837371349334716796875</LongitudeDegrees>
            </Position>
            <AltitudeMeters>615.20001220703125</AltitudeMeters>
            <DistanceMeters>6056.0771982902</DistanceMeters>
          </Trackpoint>
          <Trackpoint>
            <Time>2023-01-11T17:06:23.000Z</Time>
            <Position>
              <LatitudeDegrees>-49.220678508281707763671875</LatitudeDegrees>
              <LongitudeDegrees>-73.04879969917237758636474609375</LongitudeDegrees>
            </Position>
            <AltitudeMeters>614.5999755859375</AltitudeMeters>
            <DistanceMeters>6069.8196514464</DistanceMeters>
          </Trackpoint>
          <Trackpoint>
            <Time>2023-01-11T17:06:24.000Z</Time>
            <Position>
              <LatitudeDegrees>-49.22065998427569866180419921875</LatitudeDegrees>
              <LongitudeDegrees>-73.04878436028957366943359375</LongitudeDegrees>
            </Position>
            <AltitudeMeters>613.20001220703125</AltitudeMeters>
            <DistanceMeters>6072.1666381593</DistanceMeters>
          </Trackpoint>
          <Trackpoint>
            <Time>2023-01-11T17:06:25.000Z</Time>
            <Position>
              <LatitudeDegrees>-49.22064757905900478363037109375</LatitudeDegrees>
              <LongitudeDegrees>-73.04876835085451602935791015625</LongitudeDegrees>
            </Position>
            <AltitudeMeters>611</AltitudeMeters>
            <DistanceMeters>6073.9721457324</DistanceMeters>
          </Trackpoint>
          <Trackpoint>
            <Time>2023-01-11T17:06:27.000Z</Time>
            <Position>
              <LatitudeDegrees>-49.22063081525266170501708984375</LatitudeDegrees>
              <LongitudeDegrees>-73.04874144494533538818359375</LongitudeDegrees>
            </Position>
            <AltitudeMeters>609.5999755859375</AltitudeMeters>
            <DistanceMeters>6076.6733124741</DistanceMeters>
          </Trackpoint>
          <Trackpoint>
            <Time>2023-01-11T17:06:32.000Z</Time>
            <Position>
              <LatitudeDegrees>-49.22059024684131145477294921875</LatitudeDegrees>
              <LongitudeDegrees>-73.04869978688657283782958984375</LongitudeDegrees>
            </Position>
            <AltitudeMeters>609.20001220703125</AltitudeMeters>
            <DistanceMeters>6082.1098040083</DistanceMeters>
          </Trackpoint>
          <Trackpoint>
            <Time>2023-01-11T17:06:33.000Z</Time>
            <Position>
              <LatitudeDegrees>-49.2205811105668544769287109375</LatitudeDegrees>
              <LongitudeDegrees>-73.0486963503062725067138671875</LongitudeDegrees>
            </Position>
            <AltitudeMeters>609.5999755859375</AltitudeMeters>
            <DistanceMeters>6083.1594083748</DistanceMeters>
          </Trackpoint>
          <Trackpoint>
            <Time>2023-01-11T17:06:35.000Z</Time>
            <Position>
              <LatitudeDegrees>-49.22056845389306545257568359375</LatitudeDegrees>
              <LongitudeDegrees>-73.04869492538273334503173828125</LongitudeDegrees>
            </Position>
            <AltitudeMeters>611.4000244140625</AltitudeMeters>
            <DistanceMeters>6084.5752745304</DistanceMeters>
          </Trackpoint>
          <Trackpoint>
            <Time>2023-01-11T17:06:39.000Z</Time>
            <Position>
              <LatitudeDegrees>-49.22052956186234951019287109375</LatitudeDegrees>
              <LongitudeDegrees>-73.0486879684031009674072265625</LongitudeDegrees>
            </Position>
            <AltitudeMeters>612.5999755859375</AltitudeMeters>
            <DistanceMeters>6088.9330550161</DistanceMeters>
          </Trackpoint>
          <Trackpoint>
            <Time>2023-01-11T17:06:40.000Z</Time>
            <Position>
              <LatitudeDegrees>-49.22052034176886081695556640625</LatitudeDegrees>
              <LongitudeDegrees>-73.04868243634700775146484375</LongitudeDegrees>
            </Position>
            <AltitudeMeters>612.5999755859375</AltitudeMeters>
            <DistanceMeters>6090.0371656627</DistanceMeters>
          </Trackpoint>
          <Trackpoint>
            <Time>2023-01-11T17:06:44.000Z</Time>
            <Position>
              <LatitudeDegrees>-49.22048396430909633636474609375</LatitudeDegrees>
              <LongitudeDegrees>-73.0486876331269741058349609375</LongitudeDegrees>
            </Position>
            <AltitudeMeters>611.79998779296875</AltitudeMeters>
            <DistanceMeters>6094.1033764256</DistanceMeters>
          </Trackpoint>
          <Trackpoint>
            <Time>2023-01-11T17:06:45.000Z</Time>
            <Position>
              <LatitudeDegrees>-49.220470972359180450439453125</LatitudeDegrees>
              <LongitudeDegrees>-73.04869056679308414459228515625</LongitudeDegrees>
            </Position>
            <AltitudeMeters>611.5999755859375</AltitudeMeters>
            <DistanceMeters>6095.5632045117</DistanceMeters>
          </Trackpoint>
          <Trackpoint>
            <Time>2023-01-11T17:06:47.000Z</Time>
            <Position>
              <LatitudeDegrees>-49.22044984996318817138671875</LatitudeDegrees>
              <LongitudeDegrees>-73.04868687875568866729736328125</LongitudeDegrees>
            </Position>
            <AltitudeMeters>611.5999755859375</AltitudeMeters>
            <DistanceMeters>6097.9312580313</DistanceMeters>
          </Trackpoint>
          <Trackpoint>
            <Time>2023-01-11T17:06:52.000Z</Time>
            <Position>
              <LatitudeDegrees>-49.22040467150509357452392578125</LatitudeDegrees>
              <LongitudeDegrees>-73.048672378063201904296875</LongitudeDegrees>
            </Position>
            <AltitudeMeters>608.5999755859375</AltitudeMeters>
            <DistanceMeters>6103.0697348019</DistanceMeters>
          </Trackpoint>
          <Trackpoint>
            <Time>2023-01-11T17:06:53.000Z</Time>
            <Position>
              <LatitudeDegrees>-49.22039561904966831207275390625</LatitudeDegrees>
              <LongitudeDegrees>-73.0486655049026012420654296875</LongitudeDegrees>
            </Position>
            <AltitudeMeters>608.5999755859375</AltitudeMeters>
            <DistanceMeters>6104.1941060494</DistanceMeters>
          </Trackpoint>
          <Trackpoint>
            <Time>2023-01-11T17:06:56.000Z</Time>
            <Position>
              <LatitudeDegrees>-49.22038639895617961883544921875</LatitudeDegrees>
              <LongitudeDegrees>-73.04862652905285358428955078125</LongitudeDegrees>
            </Position>
            <AltitudeMeters>609</AltitudeMeters>
            <DistanceMeters>6107.2081161526</DistanceMeters>
          </Trackpoint>
          <Trackpoint>
            <Time>2023-01-11T17:07:04.000Z</Time>
            <Position>
              <LatitudeDegrees>-49.22038220800459384918212890625</LatitudeDegrees>
              <LongitudeDegrees>-73.0485682748258113861083984375</LongitudeDegrees>
            </Position>
            <AltitudeMeters>607.79998779296875</AltitudeMeters>
            <DistanceMeters>6111.4695107282</DistanceMeters>
          </Trackpoint>
          <Trackpoint>
            <Time>2023-01-11T17:07:06.000Z</Time>
            <Position>
              <LatitudeDegrees>-49.22038472257554531097412109375</LatitudeDegrees>
              <LongitudeDegrees>-73.0485411174595355987548828125</LongitudeDegrees>
            </Position>
            <AltitudeMeters>607.4000244140625</AltitudeMeters>
            <DistanceMeters>6113.4628079051</DistanceMeters>
          </Trackpoint>
          <Trackpoint>
            <Time>2023-01-11T17:07:07.000Z</Time>
            <Position>
              <LatitudeDegrees>-49.220383800566196441650390625</LatitudeDegrees>
              <LongitudeDegrees>-73.0485210008919239044189453125</LongitudeDegrees>
            </Position>
            <AltitudeMeters>607.4000244140625</AltitudeMeters>
            <DistanceMeters>6114.9288086533</DistanceMeters>
          </Trackpoint>
          <Trackpoint>
            <Time>2023-01-11T17:07:09.000Z</Time>
            <Position>
              <LatitudeDegrees>-49.22038556076586246490478515625</LatitudeDegrees>
              <LongitudeDegrees>-73.04848931729793548583984375</LongitudeDegrees>
            </Position>
            <AltitudeMeters>609</AltitudeMeters>
            <DistanceMeters>6117.2409084035</DistanceMeters>
          </Trackpoint>
          <Trackpoint>
            <Time>2023-01-11T17:07:12.000Z</Time>
            <Position>
              <LatitudeDegrees>-49.2203796096146106719970703125</LatitudeDegrees>
              <LongitudeDegrees>-73.0484589748084545135498046875</LongitudeDegrees>
            </Position>
            <AltitudeMeters>609.79998779296875</AltitudeMeters>
            <DistanceMeters>6119.5451837666</DistanceMeters>
          </Trackpoint>
          <Trackpoint>
            <Time>2023-01-11T17:07:13.000Z</Time>
            <Position>
              <LatitudeDegrees>-49.22037617303431034088134765625</LatitudeDegrees>
              <LongitudeDegrees>-73.04844816215336322784423828125</LongitudeDegrees>
            </Position>
            <AltitudeMeters>610.20001220703125</AltitudeMeters>
            <DistanceMeters>6120.4161179899</DistanceMeters>
          </Trackpoint>
          <Trackpoint>
            <Time>2023-01-11T17:07:15.000Z</Time>
            <Position>
              <LatitudeDegrees>-49.22037265263497829437255859375</LatitudeDegrees>
              <LongitudeDegrees>-73.0484244413673877716064453125</LongitudeDegrees>
            </Position>
            <AltitudeMeters>612.4000244140625</AltitudeMeters>
            <DistanceMeters>6122.1837170534</DistanceMeters>
          </Trackpoint>
          <Trackpoint>
            <Time>2023-01-11T17:07:20.000Z</Time>
            <Position>
              <LatitudeDegrees>-49.22036946751177310943603515625</LatitudeDegrees>
              <LongitudeDegrees>-73.04840214550495147705078125</LongitudeDegrees>
            </Position>
            <AltitudeMeters>611.79998779296875</AltitudeMeters>
            <DistanceMeters>6123.840564433</DistanceMeters>
          </Trackpoint>
          <Trackpoint>
            <Time>2023-01-11T17:07:21.000Z</Time>
            <Position>
              <LatitudeDegrees>-49.22036678530275821685791015625</LatitudeDegrees>
              <LongitudeDegrees>-73.04839887656271457672119140625</LongitudeDegrees>
            </Position>
            <AltitudeMeters>611.20001220703125</AltitudeMeters>
            <DistanceMeters>6124.2206712904</DistanceMeters>
          </Trackpoint>
          <Trackpoint>
            <Time>2023-01-11T17:07:25.000Z</Time>
            <Position>
              <LatitudeDegrees>-49.2203645221889019012451171875</LatitudeDegrees>
              <LongitudeDegrees>-73.048391751945018768310546875</LongitudeDegrees>
            </Position>
            <AltitudeMeters>610.5999755859375</AltitudeMeters>
            <DistanceMeters>6124.8064552991</DistanceMeters>
          </Trackpoint>
          <Trackpoint>
            <Time>2023-01-11T17:07:29.000Z</Time>
            <Position>
              <LatitudeDegrees>-49.220360331237316131591796875</LatitudeDegrees>
              <LongitudeDegrees>-73.04837255738675594329833984375</LongitudeDegrees>
            </Position>
            <AltitudeMeters>610</AltitudeMeters>
            <DistanceMeters>6126.2786028279</DistanceMeters>
          </Trackpoint>
          <Trackpoint>
            <Time>2023-01-11T17:07:31.000Z</Time>
            <Position>
              <LatitudeDegrees>-49.2203450761735439300537109375</LatitudeDegrees>
              <LongitudeDegrees>-73.04836719296872615814208984375</LongitudeDegrees>
            </Position>
            <AltitudeMeters>610</AltitudeMeters>
            <DistanceMeters>6128.0204712745</DistanceMeters>
          </Trackpoint>
          <Trackpoint>
            <Time>2023-01-11T17:07:34.000Z</Time>
            <Position>
              <LatitudeDegrees>-49.2203338444232940673828125</LatitudeDegrees>
              <LongitudeDegrees>-73.04834841750562191009521484375</LongitudeDegrees>
            </Position>
            <AltitudeMeters>610.4000244140625</AltitudeMeters>
            <DistanceMeters>6129.872882959</DistanceMeters>
          </Trackpoint>
          <Trackpoint>
            <Time>2023-01-11T17:07:37.000Z</Time>
            <Position>
              <LatitudeDegrees>-49.22032051719725131988525390625</LatitudeDegrees>
              <LongitudeDegrees>-73.04833148606121540069580078125</LongitudeDegrees>
            </Position>
            <AltitudeMeters>611.20001220703125</AltitudeMeters>
            <DistanceMeters>6131.8017145988</DistanceMeters>
          </Trackpoint>
          <Trackpoint>
            <Time>2023-01-11T17:07:41.000Z</Time>
            <Position>
              <LatitudeDegrees>-49.22032839618623256683349609375</LatitudeDegrees>
              <LongitudeDegrees>-73.0483087711036205291748046875</LongitudeDegrees>
            </Position>
            <AltitudeMeters>612.79998779296875</AltitudeMeters>
            <DistanceMeters>6133.6735237932</DistanceMeters>
          </Trackpoint>
          <Trackpoint>
            <Time>2023-01-11T17:07:48.000Z</Time>
            <Position>
              <LatitudeDegrees>-49.22032780945301055908203125</LatitudeDegrees>
              <LongitudeDegrees>-73.0482638441026210784912109375</LongitudeDegrees>
            </Position>
            <AltitudeMeters>613.4000244140625</AltitudeMeters>
            <DistanceMeters>6136.9405637925</DistanceMeters>
          </Trackpoint>
          <Trackpoint>
            <Time>2023-01-11T17:07:52.000Z</Time>
            <Position>
              <LatitudeDegrees>-49.2202887497842311859130859375</LatitudeDegrees>
              <LongitudeDegrees>-73.04824833758175373077392578125</LongitudeDegrees>
            </Position>
            <AltitudeMeters>614</AltitudeMeters>
            <DistanceMeters>6141.4320213261</DistanceMeters>
          </Trackpoint>
          <Trackpoint>
            <Time>2023-01-11T17:07:53.000Z</Time>
            <Position>
              <LatitudeDegrees>-49.22027894295752048492431640625</LatitudeDegrees>
              <LongitudeDegrees>-73.0482340045273303985595703125</LongitudeDegrees>
            </Position>
            <AltitudeMeters>614</AltitudeMeters>
            <DistanceMeters>6142.9435137476</DistanceMeters>
          </Trackpoint>
          <Trackpoint>
            <Time>2023-01-11T17:07:54.000Z</Time>
            <Position>
              <LatitudeDegrees>-49.22027475200593471527099609375</LatitudeDegrees>
              <LongitudeDegrees>-73.0482135526835918426513671875</LongitudeDegrees>
            </Position>
            <AltitudeMeters>614</AltitudeMeters>
            <DistanceMeters>6144.5049619984</DistanceMeters>
          </Trackpoint>
          <Trackpoint>
            <Time>2023-01-11T17:07:57.000Z</Time>
            <Position>
              <LatitudeDegrees>-49.2202820442616939544677734375</LatitudeDegrees>
              <LongitudeDegrees>-73.04815496318042278289794921875</LongitudeDegrees>
            </Position>
            <AltitudeMeters>614.4000244140625</AltitudeMeters>
            <DistanceMeters>6148.8409300744</DistanceMeters>
          </Trackpoint>
          <Trackpoint>
            <Time>2023-01-11T17:08:00.000Z</Time>
            <Position>
              <LatitudeDegrees>-49.22030157409608364105224609375</LatitudeDegrees>
              <LongitudeDegrees>-73.04812545888125896453857421875</LongitudeDegrees>
            </Position>
            <AltitudeMeters>614.5999755859375</AltitudeMeters>
            <DistanceMeters>6151.8951188319</DistanceMeters>
          </Trackpoint>
          <Trackpoint>
            <Time>2023-01-11T17:08:06.000Z</Time>
            <Position>
              <LatitudeDegrees>-49.2203112132847309112548828125</LatitudeDegrees>
              <LongitudeDegrees>-73.0480889976024627685546875</LongitudeDegrees>
            </Position>
            <AltitudeMeters>614.79998779296875</AltitudeMeters>
            <DistanceMeters>6154.7554071492</DistanceMeters>
          </Trackpoint>
          <Trackpoint>
            <Time>2023-01-11T17:08:11.000Z</Time>
            <Position>
              <LatitudeDegrees>-49.2203239537775516510009765625</LatitudeDegrees>
              <LongitudeDegrees>-73.04804231040179729461669921875</LongitudeDegrees>
            </Position>
            <AltitudeMeters>615</AltitudeMeters>
            <DistanceMeters>6158.4333215736</DistanceMeters>
          </Trackpoint>
          <Trackpoint>
            <Time>2023-01-11T17:08:14.000Z</Time>
            <Position>
              <LatitudeDegrees>-49.22033862210810184478759765625</LatitudeDegrees>
              <LongitudeDegrees>-73.048016913235187530517578125</LongitudeDegrees>
            </Position>
            <AltitudeMeters>615.5999755859375</AltitudeMeters>
            <DistanceMeters>6160.8966955546</DistanceMeters>
          </Trackpoint>
          <Trackpoint>
            <Time>2023-01-11T17:08:15.000Z</Time>
            <Position>
              <LatitudeDegrees>-49.22034063376486301422119140625</LatitudeDegrees>
              <LongitudeDegrees>-73.048004172742366790771484375</LongitudeDegrees>
            </Position>
            <AltitudeMeters>616</AltitudeMeters>
            <DistanceMeters>6161.8469626983</DistanceMeters>
          </Trackpoint>
          <Trackpoint>
            <Time>2023-01-11T17:08:19.000Z</Time>
            <Position>
              <LatitudeDegrees>-49.2203499376773834228515625</LatitudeDegrees>
              <LongitudeDegrees>-73.04796972312033176422119140625</LongitudeDegrees>
            </Position>
            <AltitudeMeters>617</AltitudeMeters>
            <DistanceMeters>6164.558139975</DistanceMeters>
          </Trackpoint>
          <Trackpoint>
            <Time>2023-01-11T17:08:21.000Z</Time>
            <Position>
              <LatitudeDegrees>-49.2203561402857303619384765625</LatitudeDegrees>
              <LongitudeDegrees>-73.04795245639979839324951171875</LongitudeDegrees>
            </Position>
            <AltitudeMeters>617.20001220703125</AltitudeMeters>
            <DistanceMeters>6165.9930118958</DistanceMeters>
          </Trackpoint>
          <Trackpoint>
            <Time>2023-01-11T17:08:26.000Z</Time>
            <Position>
              <LatitudeDegrees>-49.22036175616085529327392578125</LatitudeDegrees>
              <LongitudeDegrees>-73.04789931513369083404541015625</LongitudeDegrees>
            </Position>
            <AltitudeMeters>618.5999755859375</AltitudeMeters>
            <DistanceMeters>6169.9064515145</DistanceMeters>
          </Trackpoint>
          <Trackpoint>
            <Time>2023-01-11T17:08:29.000Z</Time>
            <Position>
              <LatitudeDegrees>-49.220371060073375701904296875</LatitudeDegrees>
              <LongitudeDegrees>-73.04787131957709789276123046875</LongitudeDegrees>
            </Position>
            <AltitudeMeters>620.79998779296875</AltitudeMeters>
            <DistanceMeters>6172.1890715241</DistanceMeters>
          </Trackpoint>
          <Trackpoint>
            <Time>2023-01-11T17:08:30.000Z</Time>
            <Position>
              <LatitudeDegrees>-49.22037164680659770965576171875</LatitudeDegrees>
              <LongitudeDegrees>-73.04786344058811664581298828125</LongitudeDegrees>
            </Position>
            <AltitudeMeters>620.79998779296875</AltitudeMeters>
            <DistanceMeters>6172.7592318103</DistanceMeters>
          </Trackpoint>
          <Trackpoint>
            <Time>2023-01-11T17:08:33.000Z</Time>
            <Position>
              <LatitudeDegrees>-49.2203819565474987030029296875</LatitudeDegrees>
              <LongitudeDegrees>-73.0478403903543949127197265625</LongitudeDegrees>
            </Position>
            <AltitudeMeters>621.79998779296875</AltitudeMeters>
            <DistanceMeters>6174.788447141</DistanceMeters>
          </Trackpoint>
          <Trackpoint>
            <Time>2023-01-11T17:08:40.000Z</Time>
            <Position>
              <LatitudeDegrees>-49.220424704253673553466796875</LatitudeDegrees>
              <LongitudeDegrees>-73.0477753467857837677001953125</LongitudeDegrees>
            </Position>
            <AltitudeMeters>622.20001220703125</AltitudeMeters>
            <DistanceMeters>6181.4957447223</DistanceMeters>
          </Trackpoint>
          <Trackpoint>
            <Time>2023-01-11T17:08:42.000Z</Time>
            <Position>
              <LatitudeDegrees>-49.220436103641986846923828125</LatitudeDegrees>
              <LongitudeDegrees>-73.047760762274265289306640625</LongitudeDegrees>
            </Position>
            <AltitudeMeters>622.20001220703125</AltitudeMeters>
            <DistanceMeters>6183.1471329523</DistanceMeters>
          </Trackpoint>
          <Trackpoint>
            <Time>2023-01-11T17:08:49.000Z</Time>
            <Position>
              <LatitudeDegrees>-49.2204798571765422821044921875</LatitudeDegrees>
              <LongitudeDegrees>-73.04770854301750659942626953125</LongitudeDegrees>
            </Position>
            <AltitudeMeters>621.79998779296875</AltitudeMeters>
            <DistanceMeters>6189.3216760727</DistanceMeters>
          </Trackpoint>
          <Trackpoint>
            <Time>2023-01-11T17:08:51.000Z</Time>
            <Position>
              <LatitudeDegrees>-49.22049276530742645263671875</LatitudeDegrees>
              <LongitudeDegrees>-73.0476824752986431121826171875</LongitudeDegrees>
            </Position>
            <AltitudeMeters>621.79998779296875</AltitudeMeters>
            <DistanceMeters>6191.6992437066</DistanceMeters>
          </Trackpoint>
          <Trackpoint>
            <Time>2023-01-11T17:09:00.000Z</Time>
            <Position>
              <LatitudeDegrees>-49.220503158867359161376953125</LatitudeDegrees>
              <LongitudeDegrees>-73.0475443415343761444091796875</LongitudeDegrees>
            </Position>
            <AltitudeMeters>622.4000244140625</AltitudeMeters>
            <DistanceMeters>6201.8074243027</DistanceMeters>
          </Trackpoint>
          <Trackpoint>
            <Time>2023-01-11T17:09:01.000Z</Time>
            <Position>
              <LatitudeDegrees>-49.22050458379089832305908203125</LatitudeDegrees>
              <LongitudeDegrees>-73.04753839038312435150146484375</LongitudeDegrees>
            </Position>
            <AltitudeMeters>623</AltitudeMeters>
            <DistanceMeters>6202.272958227</DistanceMeters>
          </Trackpoint>
          <Trackpoint>
            <Time>2023-01-11T17:09:06.000Z</Time>
            <Position>
              <LatitudeDegrees>-49.220519252121448516845703125</LatitudeDegrees>
              <LongitudeDegrees>-73.04751290939748287200927734375</LongitudeDegrees>
            </Position>
            <AltitudeMeters>624.20001220703125</AltitudeMeters>
            <DistanceMeters>6204.7418246875</DistanceMeters>
          </Trackpoint>
          <Trackpoint>
            <Time>2023-01-11T17:09:08.000Z</Time>
            <Position>
              <LatitudeDegrees>-49.22052671201527118682861328125</LatitudeDegrees>
              <LongitudeDegrees>-73.047501929104328155517578125</LongitudeDegrees>
            </Position>
            <AltitudeMeters>625.4000244140625</AltitudeMeters>
            <DistanceMeters>6205.8900368459</DistanceMeters>
          </Trackpoint>
          <Trackpoint>
            <Time>2023-01-11T17:09:11.000Z</Time>
            <Position>
              <LatitudeDegrees>-49.22053635120391845703125</LatitudeDegrees>
              <LongitudeDegrees>-73.047464378178119659423828125</LongitudeDegrees>
            </Position>
            <AltitudeMeters>625.4000244140625</AltitudeMeters>
            <DistanceMeters>6208.8220383423</DistanceMeters>
          </Trackpoint>
          <Trackpoint>
            <Time>2023-01-11T17:09:13.000Z</Time>
            <Position>
              <LatitudeDegrees>-49.2205402068793773651123046875</LatitudeDegrees>
              <LongitudeDegrees>-73.0474414117634296417236328125</LongitudeDegrees>
            </Position>
            <AltitudeMeters>625.20001220703125</AltitudeMeters>
            <DistanceMeters>6210.5482843348</DistanceMeters>
          </Trackpoint>
          <Trackpoint>
            <Time>2023-01-11T17:09:19.000Z</Time>
            <Position>
              <LatitudeDegrees>-49.22054372727870941162109375</LatitudeDegrees>
              <LongitudeDegrees>-73.04740947671234607696533203125</LongitudeDegrees>
            </Position>
            <AltitudeMeters>624.20001220703125</AltitudeMeters>
            <DistanceMeters>6212.9029535125</DistanceMeters>
          </Trackpoint>
          <Trackpoint>
            <Time>2023-01-11T17:09:21.000Z</Time>
            <Position>
              <LatitudeDegrees>-49.22054967842996120452880859375</LatitudeDegrees>
              <LongitudeDegrees>-73.04739497601985931396484375</LongitudeDegrees>
            </Position>
            <AltitudeMeters>623.4000244140625</AltitudeMeters>
            <DistanceMeters>6214.1492171878</DistanceMeters>
          </Trackpoint>
          <Trackpoint>
            <Time>2023-01-11T17:09:22.000Z</Time>
            <Position>
              <LatitudeDegrees>-49.22055504284799098968505859375</LatitudeDegrees>
              <LongitudeDegrees>-73.047386594116687774658203125</LongitudeDegrees>
            </Position>
            <AltitudeMeters>622.5999755859375</AltitudeMeters>
            <DistanceMeters>6215.0044576171</DistanceMeters>
          </Trackpoint>
          <Trackpoint>
            <Time>2023-01-11T17:09:30.000Z</Time>
            <Position>
              <LatitudeDegrees>-49.22059074975550174713134765625</LatitudeDegrees>
              <LongitudeDegrees>-73.04731057025492191314697265625</LongitudeDegrees>
            </Position>
            <AltitudeMeters>622.4000244140625</AltitudeMeters>
            <DistanceMeters>6221.8113160874</DistanceMeters>
          </Trackpoint>
          <Trackpoint>
            <Time>2023-01-11T17:09:37.000Z</Time>
            <Position>
              <LatitudeDegrees>-49.22058924101293087005615234375</LatitudeDegrees>
              <LongitudeDegrees>-73.047309815883636474609375</LongitudeDegrees>
            </Position>
            <AltitudeMeters>622.4000244140625</AltitudeMeters>
            <DistanceMeters>6221.9759071847</DistanceMeters>
          </Trackpoint>
          <Trackpoint>
            <Time>2023-01-11T17:09:46.000Z</Time>
            <Position>
              <LatitudeDegrees>-49.2205871455371379852294921875</LatitudeDegrees>
              <LongitudeDegrees>-73.0473130010068416595458984375</LongitudeDegrees>
            </Position>
            <AltitudeMeters>622.79998779296875</AltitudeMeters>
            <DistanceMeters>6222.3050893795</DistanceMeters>
          </Trackpoint>
          <Trackpoint>
            <Time>2023-01-11T17:09:47.000Z</Time>
            <Position>
              <LatitudeDegrees>-49.2205871455371379852294921875</LatitudeDegrees>
              <LongitudeDegrees>-73.0473130010068416595458984375</LongitudeDegrees>
            </Position>
            <AltitudeMeters>622.79998779296875</AltitudeMeters>
            <DistanceMeters>6222.4001160938</DistanceMeters>
          </Trackpoint>
          <Trackpoint>
            <Time>2023-01-11T17:09:55.000Z</Time>
            <Position>
              <LatitudeDegrees>-49.2205871455371379852294921875</LatitudeDegrees>
              <LongitudeDegrees>-73.04730780422687530517578125</LongitudeDegrees>
            </Position>
            <AltitudeMeters>623.20001220703125</AltitudeMeters>
            <DistanceMeters>6222.7919212744</DistanceMeters>
          </Trackpoint>
          <Trackpoint>
            <Time>2023-01-11T17:09:57.000Z</Time>
            <Position>
              <LatitudeDegrees>-49.2205871455371379852294921875</LatitudeDegrees>
              <LongitudeDegrees>-73.04730604402720928192138671875</LongitudeDegrees>
            </Position>
            <AltitudeMeters>623.5999755859375</AltitudeMeters>
            <DistanceMeters>6222.9263093427</DistanceMeters>
          </Trackpoint>
          <Trackpoint>
            <Time>2023-01-11T17:10:01.000Z</Time>
            <Position>
              <LatitudeDegrees>-49.2205846309661865234375</LatitudeDegrees>
              <LongitudeDegrees>-73.04730554111301898956298828125</LongitudeDegrees>
            </Position>
            <AltitudeMeters>623.20001220703125</AltitudeMeters>
            <DistanceMeters>6223.2113894858</DistanceMeters>
          </Trackpoint>
          <Trackpoint>
            <Time>2023-01-11T17:10:15.000Z</Time>
            <Position>
              <LatitudeDegrees>-49.22058722935616970062255859375</LatitudeDegrees>
              <LongitudeDegrees>-73.04730000905692577362060546875</LongitudeDegrees>
            </Position>
            <AltitudeMeters>623</AltitudeMeters>
            <DistanceMeters>6223.6959325567</DistanceMeters>
          </Trackpoint>
          <Trackpoint>
            <Time>2023-01-11T17:10:17.000Z</Time>
            <Position>
              <LatitudeDegrees>-49.220614135265350341796875</LatitudeDegrees>
              <LongitudeDegrees>-73.04726547561585903167724609375</LongitudeDegrees>
            </Position>
            <AltitudeMeters>622.79998779296875</AltitudeMeters>
            <DistanceMeters>6227.6035992859</DistanceMeters>
          </Trackpoint>
          <Trackpoint>
            <Time>2023-01-11T17:10:18.000Z</Time>
            <Position>
              <LatitudeDegrees>-49.2206208407878875732421875</LatitudeDegrees>
              <LongitudeDegrees>-73.047251813113689422607421875</LongitudeDegrees>
            </Position>
            <AltitudeMeters>622.5999755859375</AltitudeMeters>
            <DistanceMeters>6228.8425960557</DistanceMeters>
          </Trackpoint>
          <Trackpoint>
            <Time>2023-01-11T17:10:21.000Z</Time>
            <Position>
              <LatitudeDegrees>-49.22062209807336330413818359375</LatitudeDegrees>
              <LongitudeDegrees>-73.0472080595791339874267578125</LongitudeDegrees>
            </Position>
            <AltitudeMeters>622.5999755859375</AltitudeMeters>
            <DistanceMeters>6232.0270545413</DistanceMeters>
          </Trackpoint>
          <Trackpoint>
            <Time>2023-01-11T17:10:23.000Z</Time>
            <Position>
              <LatitudeDegrees>-49.220615141093730926513671875</LatitudeDegrees>
              <LongitudeDegrees>-73.047178052365779876708984375</LongitudeDegrees>
            </Position>
            <AltitudeMeters>622.4000244140625</AltitudeMeters>
            <DistanceMeters>6234.3430565723</DistanceMeters>
          </Trackpoint>
          <Trackpoint>
            <Time>2023-01-11T17:10:24.000Z</Time>
            <Position>
              <LatitudeDegrees>-49.22061841003596782684326171875</LatitudeDegrees>
              <LongitudeDegrees>-73.047163970768451690673828125</LongitudeDegrees>
            </Position>
            <AltitudeMeters>622.4000244140625</AltitudeMeters>
            <DistanceMeters>6235.4348303999</DistanceMeters>
          </Trackpoint>
          <Trackpoint>
            <Time>2023-01-11T17:10:26.000Z</Time>
            <Position>
              <LatitudeDegrees>-49.2206183262169361114501953125</LatitudeDegrees>
              <LongitudeDegrees>-73.04714687168598175048828125</LongitudeDegrees>
            </Position>
            <AltitudeMeters>622.4000244140625</AltitudeMeters>
            <DistanceMeters>6236.6810940752</DistanceMeters>
          </Trackpoint>
          <Trackpoint>
            <Time>2023-01-11T17:10:28.000Z</Time>
            <Position>
              <LatitudeDegrees>-49.22060064040124416351318359375</LatitudeDegrees>
              <LongitudeDegrees>-73.04713555611670017242431640625</LongitudeDegrees>
            </Position>
            <AltitudeMeters>621.4000244140625</AltitudeMeters>
            <DistanceMeters>6238.8144385218</DistanceMeters>
          </Trackpoint>
          <Trackpoint>
            <Time>2023-01-11T17:10:30.000Z</Time>
            <Position>
              <LatitudeDegrees>-49.2205911688506603240966796875</LatitudeDegrees>
              <LongitudeDegrees>-73.0471128411591053009033203125</LongitudeDegrees>
            </Position>
            <AltitudeMeters>621.20001220703125</AltitudeMeters>
            <DistanceMeters>6240.7734644248</DistanceMeters>
          </Trackpoint>
          <Trackpoint>
            <Time>2023-01-11T17:10:33.000Z</Time>
            <Position>
              <LatitudeDegrees>-49.22058806754648685455322265625</LatitudeDegrees>
              <LongitudeDegrees>-73.04708786308765411376953125</LongitudeDegrees>
            </Position>
            <AltitudeMeters>621.20001220703125</AltitudeMeters>
            <DistanceMeters>6242.6209949105</DistanceMeters>
          </Trackpoint>
          <Trackpoint>
            <Time>2023-01-11T17:10:34.000Z</Time>
            <Position>
              <LatitudeDegrees>-49.22059427015483379364013671875</LatitudeDegrees>
              <LongitudeDegrees>-73.04708383977413177490234375</LongitudeDegrees>
            </Position>
            <AltitudeMeters>621.20001220703125</AltitudeMeters>
            <DistanceMeters>6243.3692360077</DistanceMeters>
          </Trackpoint>
          <Trackpoint>
            <Time>2023-01-11T17:10:40.000Z</Time>
            <Position>
              <LatitudeDegrees>-49.2205844633281230926513671875</LatitudeDegrees>
              <LongitudeDegrees>-73.04705173708498477935791015625</LongitudeDegrees>
            </Position>
            <AltitudeMeters>620.5999755859375</AltitudeMeters>
            <DistanceMeters>6245.94374103</DistanceMeters>
          </Trackpoint>
          <Trackpoint>
            <Time>2023-01-11T17:10:41.000Z</Time>
            <Position>
              <LatitudeDegrees>-49.22058320604264736175537109375</LatitudeDegrees>
              <LongitudeDegrees>-73.04704620502889156341552734375</LongitudeDegrees>
            </Position>
            <AltitudeMeters>619.79998779296875</AltitudeMeters>
            <DistanceMeters>6246.3687134161</DistanceMeters>
          </Trackpoint>
          <Trackpoint>
            <Time>2023-01-11T17:10:46.000Z</Time>
            <Position>
              <LatitudeDegrees>-49.2205827869474887847900390625</LatitudeDegrees>
              <LongitudeDegrees>-73.0470374040305614471435546875</LongitudeDegrees>
            </Position>
            <AltitudeMeters>618.79998779296875</AltitudeMeters>
            <DistanceMeters>6247.0061719951</DistanceMeters>
          </Trackpoint>
          <Trackpoint>
            <Time>2023-01-11T17:10:47.000Z</Time>
            <Position>
              <LatitudeDegrees>-49.22057968564331531524658203125</LatitudeDegrees>
              <LongitudeDegrees>-73.04703547619283199310302734375</LongitudeDegrees>
            </Position>
            <AltitudeMeters>618.5999755859375</AltitudeMeters>
            <DistanceMeters>6247.3617294029</DistanceMeters>
          </Trackpoint>
          <Trackpoint>
            <Time>2023-01-11T17:10:51.000Z</Time>
            <Position>
              <LatitudeDegrees>-49.2205710522830486297607421875</LatitudeDegrees>
              <LongitudeDegrees>-73.047005049884319305419921875</LongitudeDegrees>
            </Position>
            <AltitudeMeters>618</AltitudeMeters>
            <DistanceMeters>6249.7732370702</DistanceMeters>
          </Trackpoint>
          <Trackpoint>
            <Time>2023-01-11T17:10:53.000Z</Time>
            <Position>
              <LatitudeDegrees>-49.220573566854000091552734375</LatitudeDegrees>
              <LongitudeDegrees>-73.04699172265827655792236328125</LongitudeDegrees>
            </Position>
            <AltitudeMeters>617.79998779296875</AltitudeMeters>
            <DistanceMeters>6250.7833849001</DistanceMeters>
          </Trackpoint>
          <Trackpoint>
            <Time>2023-01-11T17:10:55.000Z</Time>
            <Position>
              <LatitudeDegrees>-49.22057482413947582244873046875</LatitudeDegrees>
              <LongitudeDegrees>-73.04698552004992961883544921875</LongitudeDegrees>
            </Position>
            <AltitudeMeters>617.5999755859375</AltitudeMeters>
            <DistanceMeters>6251.258518472</DistanceMeters>
          </Trackpoint>
          <Trackpoint>
            <Time>2023-01-11T17:11:05.000Z</Time>
            <Position>
              <LatitudeDegrees>-49.22057717107236385345458984375</LatitudeDegrees>
              <LongitudeDegrees>-73.04698669351637363433837890625</LongitudeDegrees>
            </Position>
            <AltitudeMeters>618</AltitudeMeters>
            <DistanceMeters>6251.5590193279</DistanceMeters>
          </Trackpoint>
          <Trackpoint>
            <Time>2023-01-11T17:11:07.000Z</Time>
            <Position>
              <LatitudeDegrees>-49.22057717107236385345458984375</LatitudeDegrees>
              <LongitudeDegrees>-73.04698669351637363433837890625</LongitudeDegrees>
            </Position>
            <AltitudeMeters>619</AltitudeMeters>
            <DistanceMeters>6251.5590193279</DistanceMeters>
          </Trackpoint>
          <Trackpoint>
            <Time>2023-01-11T17:11:11.000Z</Time>
            <Position>
              <LatitudeDegrees>-49.22058404423296451568603515625</LatitudeDegrees>
              <LongitudeDegrees>-73.0469804070889949798583984375</LongitudeDegrees>
            </Position>
            <AltitudeMeters>619.20001220703125</AltitudeMeters>
            <DistanceMeters>6252.4504489253</DistanceMeters>
          </Trackpoint>
          <Trackpoint>
            <Time>2023-01-11T17:11:14.000Z</Time>
            <Position>
              <LatitudeDegrees>-49.2206235229969024658203125</LatitudeDegrees>
              <LongitudeDegrees>-73.04692148230969905853271484375</LongitudeDegrees>
            </Position>
            <AltitudeMeters>618.5999755859375</AltitudeMeters>
            <DistanceMeters>6258.5868500507</DistanceMeters>
          </Trackpoint>
          <Trackpoint>
            <Time>2023-01-11T17:11:24.000Z</Time>
            <Position>
              <LatitudeDegrees>-49.220710359513759613037109375</LatitudeDegrees>
              <LongitudeDegrees>-73.04674076847732067108154296875</LongitudeDegrees>
            </Position>
            <AltitudeMeters>618.4000244140625</AltitudeMeters>
            <DistanceMeters>6274.8966014861</DistanceMeters>
          </Trackpoint>
          <Trackpoint>
            <Time>2023-01-11T17:11:30.000Z</Time>
            <Position>
              <LatitudeDegrees>-49.22072251327335834503173828125</LatitudeDegrees>
              <LongitudeDegrees>-73.04664538241922855377197265625</LongitudeDegrees>
            </Position>
            <AltitudeMeters>618.20001220703125</AltitudeMeters>
            <DistanceMeters>6281.9612481514</DistanceMeters>
          </Trackpoint>
          <Trackpoint>
            <Time>2023-01-11T17:11:36.000Z</Time>
            <Position>
              <LatitudeDegrees>-49.22075184993445873260498046875</LatitudeDegrees>
              <LongitudeDegrees>-73.046563155949115753173828125</LongitudeDegrees>
            </Position>
            <AltitudeMeters>618.4000244140625</AltitudeMeters>
            <DistanceMeters>6288.7727481895</DistanceMeters>
          </Trackpoint>
          <Trackpoint>
            <Time>2023-01-11T17:11:39.000Z</Time>
            <Position>
              <LatitudeDegrees>-49.22075989656150341033935546875</LatitudeDegrees>
              <LongitudeDegrees>-73.04654262028634548187255859375</LongitudeDegrees>
            </Position>
            <AltitudeMeters>618.5999755859375</AltitudeMeters>
            <DistanceMeters>6290.5146166361</DistanceMeters>
          </Trackpoint>
          <Trackpoint>
            <Time>2023-01-11T17:11:40.000Z</Time>
            <Position>
              <LatitudeDegrees>-49.2207598127424716949462890625</LatitudeDegrees>
              <LongitudeDegrees>-73.04652702994644641876220703125</LongitudeDegrees>
            </Position>
            <AltitudeMeters>618.5999755859375</AltitudeMeters>
            <DistanceMeters>6291.6469906269</DistanceMeters>
          </Trackpoint>
          <Trackpoint>
            <Time>2023-01-11T17:11:43.000Z</Time>
            <Position>
              <LatitudeDegrees>-49.22075402922928333282470703125</LatitudeDegrees>
              <LongitudeDegrees>-73.04649417288601398468017578125</LongitudeDegrees>
            </Position>
            <AltitudeMeters>617.79998779296875</AltitudeMeters>
            <DistanceMeters>6294.1213373748</DistanceMeters>
          </Trackpoint>
          <Trackpoint>
            <Time>2023-01-11T17:11:47.000Z</Time>
            <Position>
              <LatitudeDegrees>-49.220732152462005615234375</LatitudeDegrees>
              <LongitudeDegrees>-73.04645444266498088836669921875</LongitudeDegrees>
            </Position>
            <AltitudeMeters>617.79998779296875</AltitudeMeters>
            <DistanceMeters>6297.8985745638</DistanceMeters>
          </Trackpoint>
          <Trackpoint>
            <Time>2023-01-11T17:11:49.000Z</Time>
            <Position>
              <LatitudeDegrees>-49.220723100006580352783203125</LatitudeDegrees>
              <LongitudeDegrees>-73.046429045498371124267578125</LongitudeDegrees>
            </Position>
            <AltitudeMeters>617.79998779296875</AltitudeMeters>
            <DistanceMeters>6300.0020805556</DistanceMeters>
          </Trackpoint>
          <Trackpoint>
            <Time>2023-01-11T17:11:50.000Z</Time>
            <Position>
              <LatitudeDegrees>-49.22072050161659717559814453125</LatitudeDegrees>
              <LongitudeDegrees>-73.0464112758636474609375</LongitudeDegrees>
            </Position>
            <AltitudeMeters>619</AltitudeMeters>
            <DistanceMeters>6301.32564953</DistanceMeters>
          </Trackpoint>
          <Trackpoint>
            <Time>2023-01-11T17:11:51.000Z</Time>
            <Position>
              <LatitudeDegrees>-49.2207205854356288909912109375</LatitudeDegrees>
              <LongitudeDegrees>-73.04639576934278011322021484375</LongitudeDegrees>
            </Position>
            <AltitudeMeters>621.79998779296875</AltitudeMeters>
            <DistanceMeters>6302.4500207775</DistanceMeters>
          </Trackpoint>
          <Trackpoint>
            <Time>2023-01-11T17:11:54.000Z</Time>
            <Position>
              <LatitudeDegrees>-49.22072050161659717559814453125</LatitudeDegrees>
              <LongitudeDegrees>-73.046371378004550933837890625</LongitudeDegrees>
            </Position>
            <AltitudeMeters>622.20001220703125</AltitudeMeters>
            <DistanceMeters>6304.2227211477</DistanceMeters>
          </Trackpoint>
          <Trackpoint>
            <Time>2023-01-11T17:11:55.000Z</Time>
            <Position>
              <LatitudeDegrees>-49.22072100453078746795654296875</LatitudeDegrees>
              <LongitudeDegrees>-73.04636006243526935577392578125</LongitudeDegrees>
            </Position>
            <AltitudeMeters>622.4000244140625</AltitudeMeters>
            <DistanceMeters>6305.0511448374</DistanceMeters>
          </Trackpoint>
          <Trackpoint>
            <Time>2023-01-11T17:12:00.000Z</Time>
            <Position>
              <LatitudeDegrees>-49.22072955407202243804931640625</LatitudeDegrees>
              <LongitudeDegrees>-73.04630138911306858062744140625</LongitudeDegrees>
            </Position>
            <AltitudeMeters>622.20001220703125</AltitudeMeters>
            <DistanceMeters>6309.4213406773</DistanceMeters>
          </Trackpoint>
          <Trackpoint>
            <Time>2023-01-11T17:12:03.000Z</Time>
            <Position>
              <LatitudeDegrees>-49.22073860652744770050048828125</LatitudeDegrees>
              <LongitudeDegrees>-73.0462780036032199859619140625</LongitudeDegrees>
            </Position>
            <AltitudeMeters>623</AltitudeMeters>
            <DistanceMeters>6311.3964338457</DistanceMeters>
          </Trackpoint>
          <Trackpoint>
            <Time>2023-01-11T17:12:08.000Z</Time>
            <Position>
              <LatitudeDegrees>-49.22074598260223865509033203125</LatitudeDegrees>
              <LongitudeDegrees>-73.04625662975013256072998046875</LongitudeDegrees>
            </Position>
            <AltitudeMeters>623.20001220703125</AltitudeMeters>
            <DistanceMeters>6313.1537858719</DistanceMeters>
          </Trackpoint>
          <Trackpoint>
            <Time>2023-01-11T17:12:13.000Z</Time>
            <Position>
              <LatitudeDegrees>-49.2207480780780315399169921875</LatitudeDegrees>
              <LongitudeDegrees>-73.04625931195914745330810546875</LongitudeDegrees>
            </Position>
            <AltitudeMeters>623.20001220703125</AltitudeMeters>
            <DistanceMeters>6313.4542867278</DistanceMeters>
          </Trackpoint>
          <Trackpoint>
            <Time>2023-01-11T17:12:16.000Z</Time>
            <Position>
              <LatitudeDegrees>-49.22075637616217136383056640625</LatitudeDegrees>
              <LongitudeDegrees>-73.046256043016910552978515625</LongitudeDegrees>
            </Position>
            <AltitudeMeters>624.20001220703125</AltitudeMeters>
            <DistanceMeters>6314.4045538715</DistanceMeters>
          </Trackpoint>
          <Trackpoint>
            <Time>2023-01-11T17:12:18.000Z</Time>
            <Position>
              <LatitudeDegrees>-49.220757968723773956298828125</LatitudeDegrees>
              <LongitudeDegrees>-73.04625646211206912994384765625</LongitudeDegrees>
            </Position>
            <AltitudeMeters>624.4000244140625</AltitudeMeters>
            <DistanceMeters>6314.5946073003</DistanceMeters>
          </Trackpoint>
          <Trackpoint>
            <Time>2023-01-11T17:12:25.000Z</Time>
            <Position>
              <LatitudeDegrees>-49.220757968723773956298828125</LatitudeDegrees>
              <LongitudeDegrees>-73.04625646211206912994384765625</LongitudeDegrees>
            </Position>
            <AltitudeMeters>622.5999755859375</AltitudeMeters>
            <DistanceMeters>6314.6896340146</DistanceMeters>
          </Trackpoint>
          <Trackpoint>
            <Time>2023-01-11T17:12:30.000Z</Time>
            <Position>
              <LatitudeDegrees>-49.220757968723773956298828125</LatitudeDegrees>
              <LongitudeDegrees>-73.04625646211206912994384765625</LongitudeDegrees>
            </Position>
            <AltitudeMeters>621.20001220703125</AltitudeMeters>
            <DistanceMeters>6314.784660729</DistanceMeters>
          </Trackpoint>
          <Trackpoint>
            <Time>2023-01-11T17:12:36.000Z</Time>
            <Position>
              <LatitudeDegrees>-49.220757968723773956298828125</LatitudeDegrees>
              <LongitudeDegrees>-73.046250678598880767822265625</LongitudeDegrees>
            </Position>
            <AltitudeMeters>620</AltitudeMeters>
            <DistanceMeters>6315.209633115</DistanceMeters>
          </Trackpoint>
          <Trackpoint>
            <Time>2023-01-11T17:12:38.000Z</Time>
            <Position>
              <LatitudeDegrees>-49.2207581363618373870849609375</LatitudeDegrees>
              <LongitudeDegrees>-73.0462481640279293060302734375</LongitudeDegrees>
            </Position>
            <AltitudeMeters>618.5999755859375</AltitudeMeters>
            <DistanceMeters>6315.422119308</DistanceMeters>
          </Trackpoint>
          <Trackpoint>
            <Time>2023-01-11T17:12:43.000Z</Time>
            <Position>
              <LatitudeDegrees>-49.22076408751308917999267578125</LatitudeDegrees>
              <LongitudeDegrees>-73.0462181568145751953125</LongitudeDegrees>
            </Position>
            <AltitudeMeters>618</AltitudeMeters>
            <DistanceMeters>6317.7027604529</DistanceMeters>
          </Trackpoint>
          <Trackpoint>
            <Time>2023-01-11T17:12:44.000Z</Time>
            <Position>
              <LatitudeDegrees>-49.220768697559833526611328125</LatitudeDegrees>
              <LongitudeDegrees>-73.04621153511106967926025390625</LongitudeDegrees>
            </Position>
            <AltitudeMeters>617.4000244140625</AltitudeMeters>
            <DistanceMeters>6318.4074974283</DistanceMeters>
          </Trackpoint>
          <Trackpoint>
            <Time>2023-01-11T17:12:47.000Z</Time>
            <Position>
              <LatitudeDegrees>-49.22079074196517467498779296875</LatitudeDegrees>
              <LongitudeDegrees>-73.04614263586699962615966796875</LongitudeDegrees>
            </Position>
            <AltitudeMeters>616.4000244140625</AltitudeMeters>
            <DistanceMeters>6323.9841974626</DistanceMeters>
          </Trackpoint>
          <Trackpoint>
            <Time>2023-01-11T17:12:48.000Z</Time>
            <Position>
              <LatitudeDegrees>-49.2208000458776950836181640625</LatitudeDegrees>
              <LongitudeDegrees>-73.04611749015748500823974609375</LongitudeDegrees>
            </Position>
            <AltitudeMeters>614.79998779296875</AltitudeMeters>
            <DistanceMeters>6326.0855559235</DistanceMeters>
          </Trackpoint>
          <Trackpoint>
            <Time>2023-01-11T17:12:49.000Z</Time>
            <Position>
              <LatitudeDegrees>-49.22080733813345432281494140625</LatitudeDegrees>
              <LongitudeDegrees>-73.04609066806733608245849609375</LongitudeDegrees>
            </Position>
            <AltitudeMeters>614.79998779296875</AltitudeMeters>
            <DistanceMeters>6328.1976302033</DistanceMeters>
          </Trackpoint>
          <Trackpoint>
            <Time>2023-01-11T17:12:56.000Z</Time>
            <Position>
              <LatitudeDegrees>-49.22085377387702465057373046875</LatitudeDegrees>
              <LongitudeDegrees>-73.04591984488070011138916015625</LongitudeDegrees>
            </Position>
            <AltitudeMeters>613.79998779296875</AltitudeMeters>
            <DistanceMeters>6341.6485265166</DistanceMeters>
          </Trackpoint>
          <Trackpoint>
            <Time>2023-01-11T17:13:02.000Z</Time>
            <Position>
              <LatitudeDegrees>-49.22086182050406932830810546875</LatitudeDegrees>
              <LongitudeDegrees>-73.04588011465966701507568359375</LongitudeDegrees>
            </Position>
            <AltitudeMeters>613.79998779296875</AltitudeMeters>
            <DistanceMeters>6344.6715113596</DistanceMeters>
          </Trackpoint>
          <Trackpoint>
            <Time>2023-01-11T17:13:06.000Z</Time>
            <Position>
              <LatitudeDegrees>-49.22087037004530429840087890625</LatitudeDegrees>
              <LongitudeDegrees>-73.04585513658821582794189453125</LongitudeDegrees>
            </Position>
            <AltitudeMeters>613.4000244140625</AltitudeMeters>
            <DistanceMeters>6346.7228561924</DistanceMeters>
          </Trackpoint>
          <Trackpoint>
            <Time>2023-01-11T17:13:07.000Z</Time>
            <Position>
              <LatitudeDegrees>-49.2208751477301120758056640625</LatitudeDegrees>
              <LongitudeDegrees>-73.04584574885666370391845703125</LongitudeDegrees>
            </Position>
            <AltitudeMeters>613.20001220703125</AltitudeMeters>
            <DistanceMeters>6347.5885907619</DistanceMeters>
          </Trackpoint>
          <Trackpoint>
            <Time>2023-01-11T17:13:08.000Z</Time>
            <Position>
              <LatitudeDegrees>-49.2208761535584926605224609375</LatitudeDegrees>
              <LongitudeDegrees>-73.04583451710641384124755859375</LongitudeDegrees>
            </Position>
            <AltitudeMeters>613.20001220703125</AltitudeMeters>
            <DistanceMeters>6348.4115462487</DistanceMeters>
          </Trackpoint>
          <Trackpoint>
            <Time>2023-01-11T17:13:12.000Z</Time>
            <Position>
              <LatitudeDegrees>-49.2208863794803619384765625</LatitudeDegrees>
              <LongitudeDegrees>-73.045798726379871368408203125</LongitudeDegrees>
            </Position>
            <AltitudeMeters>612.5999755859375</AltitudeMeters>
            <DistanceMeters>6351.2496491693</DistanceMeters>
          </Trackpoint>
          <Trackpoint>
            <Time>2023-01-11T17:13:15.000Z</Time>
            <Position>
              <LatitudeDegrees>-49.2209023050963878631591796875</LatitudeDegrees>
              <LongitudeDegrees>-73.04578355513513088226318359375</LongitudeDegrees>
            </Position>
            <AltitudeMeters>612.20001220703125</AltitudeMeters>
            <DistanceMeters>6353.3359130179</DistanceMeters>
          </Trackpoint>
          <Trackpoint>
            <Time>2023-01-11T17:13:19.000Z</Time>
            <Position>
              <LatitudeDegrees>-49.22091395594179630279541015625</LatitudeDegrees>
              <LongitudeDegrees>-73.045738041400909423828125</LongitudeDegrees>
            </Position>
            <AltitudeMeters>611.5999755859375</AltitudeMeters>
            <DistanceMeters>6356.8889464921</DistanceMeters>
          </Trackpoint>
          <Trackpoint>
            <Time>2023-01-11T17:13:20.000Z</Time>
            <Position>
              <LatitudeDegrees>-49.22092200256884098052978515625</LatitudeDegrees>
              <LongitudeDegrees>-73.04573024623095989227294921875</LongitudeDegrees>
            </Position>
            <AltitudeMeters>611.4000244140625</AltitudeMeters>
            <DistanceMeters>6357.9471191997</DistanceMeters>
          </Trackpoint>
          <Trackpoint>
            <Time>2023-01-11T17:13:22.000Z</Time>
            <Position>
              <LatitudeDegrees>-49.22093675471842288970947265625</LatitudeDegrees>
              <LongitudeDegrees>-73.045714907348155975341796875</LongitudeDegrees>
            </Position>
            <AltitudeMeters>610.4000244140625</AltitudeMeters>
            <DistanceMeters>6359.9336094227</DistanceMeters>
          </Trackpoint>
          <Trackpoint>
            <Time>2023-01-11T17:13:25.000Z</Time>
            <Position>
              <LatitudeDegrees>-49.22095410525798797607421875</LatitudeDegrees>
              <LongitudeDegrees>-73.04568716324865818023681640625</LongitudeDegrees>
            </Position>
            <AltitudeMeters>609.4000244140625</AltitudeMeters>
            <DistanceMeters>6362.7268129683</DistanceMeters>
          </Trackpoint>
          <Trackpoint>
            <Time>2023-01-11T17:13:28.000Z</Time>
            <Position>
              <LatitudeDegrees>-49.22097019851207733154296875</LatitudeDegrees>
              <LongitudeDegrees>-73.04565397091209888458251953125</LongitudeDegrees>
            </Position>
            <AltitudeMeters>608</AltitudeMeters>
            <DistanceMeters>6365.731821528</DistanceMeters>
          </Trackpoint>
          <Trackpoint>
            <Time>2023-01-11T17:13:29.000Z</Time>
            <Position>
              <LatitudeDegrees>-49.22098034061491489410400390625</LatitudeDegrees>
              <LongitudeDegrees>-73.0456423200666904449462890625</LongitudeDegrees>
            </Position>
            <AltitudeMeters>608</AltitudeMeters>
            <DistanceMeters>6367.1444951967</DistanceMeters>
          </Trackpoint>
          <Trackpoint>
            <Time>2023-01-11T17:13:33.000Z</Time>
            <Position>
              <LatitudeDegrees>-49.22101018019020557403564453125</LatitudeDegrees>
              <LongitudeDegrees>-73.0455947108566761016845703125</LongitudeDegrees>
            </Position>
            <AltitudeMeters>607.4000244140625</AltitudeMeters>
            <DistanceMeters>6371.9412268735</DistanceMeters>
          </Trackpoint>
          <Trackpoint>
            <Time>2023-01-11T17:13:34.000Z</Time>
            <Position>
              <LatitudeDegrees>-49.221014119684696197509765625</LatitudeDegrees>
              <LongitudeDegrees>-73.0455756001174449920654296875</LongitudeDegrees>
            </Position>
            <AltitudeMeters>607</AltitudeMeters>
            <DistanceMeters>6373.3979588201</DistanceMeters>
          </Trackpoint>
          <Trackpoint>
            <Time>2023-01-11T17:13:36.000Z</Time>
            <Position>
              <LatitudeDegrees>-49.22102191485464572906494140625</LatitudeDegrees>
              <LongitudeDegrees>-73.04553042165935039520263671875</LongitudeDegrees>
            </Position>
            <AltitudeMeters>605.79998779296875</AltitudeMeters>
            <DistanceMeters>6376.7950807925</DistanceMeters>
          </Trackpoint>
          <Trackpoint>
            <Time>2023-01-11T17:13:40.000Z</Time>
            <Position>
              <LatitudeDegrees>-49.2210384272038936614990234375</LatitudeDegrees>
              <LongitudeDegrees>-73.04546135477721691131591796875</LongitudeDegrees>
            </Position>
            <AltitudeMeters>604.79998779296875</AltitudeMeters>
            <DistanceMeters>6382.1419697966</DistanceMeters>
          </Trackpoint>
          <Trackpoint>
            <Time>2023-01-11T17:13:45.000Z</Time>
            <Position>
              <LatitudeDegrees>-49.2210424505174160003662109375</LatitudeDegrees>
              <LongitudeDegrees>-73.0453828163444995880126953125</LongitudeDegrees>
            </Position>
            <AltitudeMeters>604.4000244140625</AltitudeMeters>
            <DistanceMeters>6387.8696453915</DistanceMeters>
          </Trackpoint>
          <Trackpoint>
            <Time>2023-01-11T17:13:49.000Z</Time>
            <Position>
              <LatitudeDegrees>-49.221046976745128631591796875</LatitudeDegrees>
              <LongitudeDegrees>-73.045325316488742828369140625</LongitudeDegrees>
            </Position>
            <AltitudeMeters>604.4000244140625</AltitudeMeters>
            <DistanceMeters>6392.0809480565</DistanceMeters>
          </Trackpoint>
          <Trackpoint>
            <Time>2023-01-11T17:13:55.000Z</Time>
            <Position>
              <LatitudeDegrees>-49.221061728894710540771484375</LatitudeDegrees>
              <LongitudeDegrees>-73.04524292238056659698486328125</LongitudeDegrees>
            </Position>
            <AltitudeMeters>603.5999755859375</AltitudeMeters>
            <DistanceMeters>6398.2919452847</DistanceMeters>
          </Trackpoint>
          <Trackpoint>
            <Time>2023-01-11T17:13:56.000Z</Time>
            <Position>
              <LatitudeDegrees>-49.22106466256082057952880859375</LatitudeDegrees>
              <LongitudeDegrees>-73.04523537866771221160888671875</LongitudeDegrees>
            </Position>
            <AltitudeMeters>603.5999755859375</AltitudeMeters>
            <DistanceMeters>6398.9294038637</DistanceMeters>
          </Trackpoint>
          <Trackpoint>
            <Time>2023-01-11T17:14:01.000Z</Time>
            <Position>
              <LatitudeDegrees>-49.22109131701290607452392578125</LatitudeDegrees>
              <LongitudeDegrees>-73.0451836623251438140869140625</LongitudeDegrees>
            </Position>
            <AltitudeMeters>604</AltitudeMeters>
            <DistanceMeters>6403.7185994295</DistanceMeters>
          </Trackpoint>
          <Trackpoint>
            <Time>2023-01-11T17:14:05.000Z</Time>
            <Position>
              <LatitudeDegrees>-49.22112568281590938568115234375</LatitudeDegrees>
              <LongitudeDegrees>-73.04514451883733272552490234375</LongitudeDegrees>
            </Position>
            <AltitudeMeters>604.4000244140625</AltitudeMeters>
            <DistanceMeters>6408.485115173</DistanceMeters>
          </Trackpoint>
          <Trackpoint>
            <Time>2023-01-11T17:14:06.000Z</Time>
            <Position>
              <LatitudeDegrees>-49.22113381326198577880859375</LatitudeDegrees>
              <LongitudeDegrees>-73.0451337061822414398193359375</LongitudeDegrees>
            </Position>
            <AltitudeMeters>605</AltitudeMeters>
            <DistanceMeters>6409.6833564486</DistanceMeters>
          </Trackpoint>
          <Trackpoint>
            <Time>2023-01-11T17:14:13.000Z</Time>
            <Position>
              <LatitudeDegrees>-49.22118502669036388397216796875</LatitudeDegrees>
              <LongitudeDegrees>-73.04506455548107624053955078125</LongitudeDegrees>
            </Position>
            <AltitudeMeters>605.20001220703125</AltitudeMeters>
            <DistanceMeters>6417.2837116385</DistanceMeters>
          </Trackpoint>
          <Trackpoint>
            <Time>2023-01-11T17:14:19.000Z</Time>
            <Position>
              <LatitudeDegrees>-49.22122232615947723388671875</LatitudeDegrees>
              <LongitudeDegrees>-73.0450324527919292449951171875</LongitudeDegrees>
            </Position>
            <AltitudeMeters>606.20001220703125</AltitudeMeters>
            <DistanceMeters>6422.0473848119</DistanceMeters>
          </Trackpoint>
          <Trackpoint>
            <Time>2023-01-11T17:14:21.000Z</Time>
            <Position>
              <LatitudeDegrees>-49.221235401928424835205078125</LatitudeDegrees>
              <LongitudeDegrees>-73.04504326544702053070068359375</LongitudeDegrees>
            </Position>
            <AltitudeMeters>606.4000244140625</AltitudeMeters>
            <DistanceMeters>6423.7042321915</DistanceMeters>
          </Trackpoint>
          <Trackpoint>
            <Time>2023-01-11T17:14:24.000Z</Time>
            <Position>
              <LatitudeDegrees>-49.221251495182514190673828125</LatitudeDegrees>
              <LongitudeDegrees>-73.04503873921930789947509765625</LongitudeDegrees>
            </Position>
            <AltitudeMeters>606.5999755859375</AltitudeMeters>
            <DistanceMeters>6425.5246821509</DistanceMeters>
          </Trackpoint>
          <Trackpoint>
            <Time>2023-01-11T17:14:27.000Z</Time>
            <Position>
              <LatitudeDegrees>-49.22126783989369869232177734375</LatitudeDegrees>
              <LongitudeDegrees>-73.04500957019627094268798828125</LongitudeDegrees>
            </Position>
            <AltitudeMeters>607</AltitudeMeters>
            <DistanceMeters>6428.3178856966</DistanceMeters>
          </Trackpoint>
          <Trackpoint>
            <Time>2023-01-11T17:14:29.000Z</Time>
            <Position>
              <LatitudeDegrees>-49.221277646720409393310546875</LatitudeDegrees>
              <LongitudeDegrees>-73.0449992604553699493408203125</LongitudeDegrees>
            </Position>
            <AltitudeMeters>607.20001220703125</AltitudeMeters>
            <DistanceMeters>6429.641454671</DistanceMeters>
          </Trackpoint>
          <Trackpoint>
            <Time>2023-01-11T17:14:36.000Z</Time>
            <Position>
              <LatitudeDegrees>-49.22132584266364574432373046875</LatitudeDegrees>
              <LongitudeDegrees>-73.04499096237123012542724609375</LongitudeDegrees>
            </Position>
            <AltitudeMeters>608.20001220703125</AltitudeMeters>
            <DistanceMeters>6435.0396077519</DistanceMeters>
          </Trackpoint>
          <Trackpoint>
            <Time>2023-01-11T17:14:37.000Z</Time>
            <Position>
              <LatitudeDegrees>-49.221332967281341552734375</LatitudeDegrees>
              <LongitudeDegrees>-73.044984005391597747802734375</LongitudeDegrees>
            </Position>
            <AltitudeMeters>609.4000244140625</AltitudeMeters>
            <DistanceMeters>6435.9803242297</DistanceMeters>
          </Trackpoint>
          <Trackpoint>
            <Time>2023-01-11T17:14:43.000Z</Time>
            <Position>
              <LatitudeDegrees>-49.22138066031038761138916015625</LatitudeDegrees>
              <LongitudeDegrees>-73.0449427664279937744140625</LongitudeDegrees>
            </Position>
            <AltitudeMeters>609.79998779296875</AltitudeMeters>
            <DistanceMeters>6442.0768637927</DistanceMeters>
          </Trackpoint>
          <Trackpoint>
            <Time>2023-01-11T17:14:45.000Z</Time>
            <Position>
              <LatitudeDegrees>-49.2213877849280834197998046875</LatitudeDegrees>
              <LongitudeDegrees>-73.04492332041263580322265625</LongitudeDegrees>
            </Position>
            <AltitudeMeters>610</AltitudeMeters>
            <DistanceMeters>6443.6978981061</DistanceMeters>
          </Trackpoint>
          <Trackpoint>
            <Time>2023-01-11T17:14:46.000Z</Time>
            <Position>
              <LatitudeDegrees>-49.22139088623225688934326171875</LatitudeDegrees>
              <LongitudeDegrees>-73.04491267539560794830322265625</LongitudeDegrees>
            </Position>
            <AltitudeMeters>610</AltitudeMeters>
            <DistanceMeters>6444.5478428781</DistanceMeters>
          </Trackpoint>
          <Trackpoint>
            <Time>2023-01-11T17:14:51.000Z</Time>
            <Position>
              <LatitudeDegrees>-49.2214174568653106689453125</LatitudeDegrees>
              <LongitudeDegrees>-73.04485953412950038909912109375</LongitudeDegrees>
            </Position>
            <AltitudeMeters>610.20001220703125</AltitudeMeters>
            <DistanceMeters>6449.4137303035</DistanceMeters>
          </Trackpoint>
          <Trackpoint>
            <Time>2023-01-11T17:14:57.000Z</Time>
            <Position>
              <LatitudeDegrees>-49.22142122872173786163330078125</LatitudeDegrees>
              <LongitudeDegrees>-73.04479683749377727508544921875</LongitudeDegrees>
            </Position>
            <AltitudeMeters>610</AltitudeMeters>
            <DistanceMeters>6453.9908229778</DistanceMeters>
          </Trackpoint>
          <Trackpoint>
            <Time>2023-01-11T17:14:59.000Z</Time>
            <Position>
              <LatitudeDegrees>-49.2214256711304187774658203125</LatitudeDegrees>
              <LongitudeDegrees>-73.044771440327167510986328125</LongitudeDegrees>
            </Position>
            <AltitudeMeters>610.79998779296875</AltitudeMeters>
            <DistanceMeters>6455.900836298</DistanceMeters>
          </Trackpoint>
          <Trackpoint>
            <Time>2023-01-11T17:15:06.000Z</Time>
            <Position>
              <LatitudeDegrees>-49.221429862082004547119140625</LatitudeDegrees>
              <LongitudeDegrees>-73.04467999376356601715087890625</LongitudeDegrees>
            </Position>
            <AltitudeMeters>611.5999755859375</AltitudeMeters>
            <DistanceMeters>6462.5649128246</DistanceMeters>
          </Trackpoint>
          <Trackpoint>
            <Time>2023-01-11T17:15:12.000Z</Time>
            <Position>
              <LatitudeDegrees>-49.22144335694611072540283203125</LatitudeDegrees>
              <LongitudeDegrees>-73.04463355801999568939208984375</LongitudeDegrees>
            </Position>
            <AltitudeMeters>611</AltitudeMeters>
            <DistanceMeters>6466.2599737961</DistanceMeters>
          </Trackpoint>
          <Trackpoint>
            <Time>2023-01-11T17:15:14.000Z</Time>
            <Position>
              <LatitudeDegrees>-49.2214461229741573333740234375</LatitudeDegrees>
              <LongitudeDegrees>-73.04463339038193225860595703125</LongitudeDegrees>
            </Position>
            <AltitudeMeters>611</AltitudeMeters>
            <DistanceMeters>6466.5604746521</DistanceMeters>
          </Trackpoint>
          <Trackpoint>
            <Time>2023-01-11T17:15:15.000Z</Time>
            <Position>
              <LatitudeDegrees>-49.22144570387899875640869140625</LatitudeDegrees>
              <LongitudeDegrees>-73.04462425410747528076171875</LongitudeDegrees>
            </Position>
            <AltitudeMeters>611</AltitudeMeters>
            <DistanceMeters>6467.2256616527</DistanceMeters>
          </Trackpoint>
          <Trackpoint>
            <Time>2023-01-11T17:15:16.000Z</Time>
            <Position>
              <LatitudeDegrees>-49.2214484699070453643798828125</LatitudeDegrees>
              <LongitudeDegrees>-73.044611848890781402587890625</LongitudeDegrees>
            </Position>
            <AltitudeMeters>612</AltitudeMeters>
            <DistanceMeters>6468.1759287964</DistanceMeters>
          </Trackpoint>
          <Trackpoint>
            <Time>2023-01-11T17:15:21.000Z</Time>
            <Position>
              <LatitudeDegrees>-49.2214414291083812713623046875</LatitudeDegrees>
              <LongitudeDegrees>-73.0445737950503826141357421875</LongitudeDegrees>
            </Position>
            <AltitudeMeters>612.20001220703125</AltitudeMeters>
            <DistanceMeters>6471.0519590505</DistanceMeters>
          </Trackpoint>
          <Trackpoint>
            <Time>2023-01-11T17:15:24.000Z</Time>
            <Position>
              <LatitudeDegrees>-49.22143061645328998565673828125</LatitudeDegrees>
              <LongitudeDegrees>-73.0445496551692485809326171875</LongitudeDegrees>
            </Position>
            <AltitudeMeters>613.4000244140625</AltitudeMeters>
            <DistanceMeters>6473.1768209806</DistanceMeters>
          </Trackpoint>
          <Trackpoint>
            <Time>2023-01-11T17:15:26.000Z</Time>
            <Position>
              <LatitudeDegrees>-49.22143078409135341644287109375</LatitudeDegrees>
              <LongitudeDegrees>-73.0445275269448757171630859375</LongitudeDegrees>
            </Position>
            <AltitudeMeters>615.4000244140625</AltitudeMeters>
            <DistanceMeters>6474.7838685415</DistanceMeters>
          </Trackpoint>
          <Trackpoint>
            <Time>2023-01-11T17:15:29.000Z</Time>
            <Position>
              <LatitudeDegrees>-49.2214323766529560089111328125</LatitudeDegrees>
              <LongitudeDegrees>-73.0445224978029727935791015625</LongitudeDegrees>
            </Position>
            <AltitudeMeters>615.5999755859375</AltitudeMeters>
            <DistanceMeters>6475.1870327462</DistanceMeters>
          </Trackpoint>
          <Trackpoint>
            <Time>2023-01-11T17:15:37.000Z</Time>
            <Position>
              <LatitudeDegrees>-49.22143145464360713958740234375</LatitudeDegrees>
              <LongitudeDegrees>-73.044515959918498992919921875</LongitudeDegrees>
            </Position>
            <AltitudeMeters>614.20001220703125</AltitudeMeters>
            <DistanceMeters>6475.6715758171</DistanceMeters>
          </Trackpoint>
          <Trackpoint>
            <Time>2023-01-11T17:15:41.000Z</Time>
            <Position>
              <LatitudeDegrees>-49.22141787596046924591064453125</LatitudeDegrees>
              <LongitudeDegrees>-73.04447899572551250457763671875</LongitudeDegrees>
            </Position>
            <AltitudeMeters>616</AltitudeMeters>
            <DistanceMeters>6478.7537244863</DistanceMeters>
          </Trackpoint>
          <Trackpoint>
            <Time>2023-01-11T17:15:44.000Z</Time>
            <Position>
              <LatitudeDegrees>-49.22142977826297283172607421875</LatitudeDegrees>
              <LongitudeDegrees>-73.04444496519863605499267578125</LongitudeDegrees>
            </Position>
            <AltitudeMeters>616.79998779296875</AltitudeMeters>
            <DistanceMeters>6481.5614382779</DistanceMeters>
          </Trackpoint>
          <Trackpoint>
            <Time>2023-01-11T17:15:46.000Z</Time>
            <Position>
              <LatitudeDegrees>-49.2214404232800006866455078125</LatitudeDegrees>
              <LongitudeDegrees>-73.04442920722067356109619140625</LongitudeDegrees>
            </Position>
            <AltitudeMeters>617.4000244140625</AltitudeMeters>
            <DistanceMeters>6483.2100901543</DistanceMeters>
          </Trackpoint>
          <Trackpoint>
            <Time>2023-01-11T17:15:52.000Z</Time>
            <Position>
              <LatitudeDegrees>-49.22146598808467388153076171875</LatitudeDegrees>
              <LongitudeDegrees>-73.044389896094799041748046875</LongitudeDegrees>
            </Position>
            <AltitudeMeters>617.4000244140625</AltitudeMeters>
            <DistanceMeters>6487.2417322018</DistanceMeters>
          </Trackpoint>
          <Trackpoint>
            <Time>2023-01-11T17:15:53.000Z</Time>
            <Position>
              <LatitudeDegrees>-49.22146615572273731231689453125</LatitudeDegrees>
              <LongitudeDegrees>-73.0443857051432132720947265625</LongitudeDegrees>
            </Position>
            <AltitudeMeters>617.79998779296875</AltitudeMeters>
            <DistanceMeters>6487.5422330578</DistanceMeters>
          </Trackpoint>
          <Trackpoint>
            <Time>2023-01-11T17:15:57.000Z</Time>
            <Position>
              <LatitudeDegrees>-49.22146850265562534332275390625</LatitudeDegrees>
              <LongitudeDegrees>-73.044353686273097991943359375</LongitudeDegrees>
            </Position>
            <AltitudeMeters>618.5999755859375</AltitudeMeters>
            <DistanceMeters>6489.8853690927</DistanceMeters>
          </Trackpoint>
          <Trackpoint>
            <Time>2023-01-11T17:15:58.000Z</Time>
            <Position>
              <LatitudeDegrees>-49.22147068195044994354248046875</LatitudeDegrees>
              <LongitudeDegrees>-73.04434396326541900634765625</LongitudeDegrees>
            </Position>
            <AltitudeMeters>619.79998779296875</AltitudeMeters>
            <DistanceMeters>6490.6336101899</DistanceMeters>
          </Trackpoint>
          <Trackpoint>
            <Time>2023-01-11T17:15:59.000Z</Time>
            <Position>
              <LatitudeDegrees>-49.221473447978496551513671875</LatitudeDegrees>
              <LongitudeDegrees>-73.0443350784480571746826171875</LongitudeDegrees>
            </Position>
            <AltitudeMeters>620</AltitudeMeters>
            <DistanceMeters>6491.3447250054</DistanceMeters>
          </Trackpoint>
          <Trackpoint>
            <Time>2023-01-11T17:16:06.000Z</Time>
            <Position>
              <LatitudeDegrees>-49.22149188816547393798828125</LatitudeDegrees>
              <LongitudeDegrees>-73.04430565796792507171630859375</LongitudeDegrees>
            </Position>
            <AltitudeMeters>620.4000244140625</AltitudeMeters>
            <DistanceMeters>6494.310411175</DistanceMeters>
          </Trackpoint>
          <Trackpoint>
            <Time>2023-01-11T17:16:09.000Z</Time>
            <Position>
              <LatitudeDegrees>-49.2214954085648059844970703125</LatitudeDegrees>
              <LongitudeDegrees>-73.04429140873253345489501953125</LongitudeDegrees>
            </Position>
            <AltitudeMeters>621.4000244140625</AltitudeMeters>
            <DistanceMeters>6495.4186035754</DistanceMeters>
          </Trackpoint>
          <Trackpoint>
            <Time>2023-01-11T17:16:12.000Z</Time>
            <Position>
              <LatitudeDegrees>-49.22150035388767719268798828125</LatitudeDegrees>
              <LongitudeDegrees>-73.04426877759397029876708984375</LongitudeDegrees>
            </Position>
            <AltitudeMeters>622.5999755859375</AltitudeMeters>
            <DistanceMeters>6497.1552801522</DistanceMeters>
          </Trackpoint>
          <Trackpoint>
            <Time>2023-01-11T17:16:15.000Z</Time>
            <Position>
              <LatitudeDegrees>-49.2215172015130519866943359375</LatitudeDegrees>
              <LongitudeDegrees>-73.04425369016826152801513671875</LongitudeDegrees>
            </Position>
            <AltitudeMeters>624.20001220703125</AltitudeMeters>
            <DistanceMeters>6499.3284644472</DistanceMeters>
          </Trackpoint>
          <Trackpoint>
            <Time>2023-01-11T17:16:17.000Z</Time>
            <Position>
              <LatitudeDegrees>-49.22152717597782611846923828125</LatitudeDegrees>
              <LongitudeDegrees>-73.04423910565674304962158203125</LongitudeDegrees>
            </Position>
            <AltitudeMeters>625.4000244140625</AltitudeMeters>
            <DistanceMeters>6500.8636680011</DistanceMeters>
          </Trackpoint>
          <Trackpoint>
            <Time>2023-01-11T17:16:21.000Z</Time>
            <Position>
              <LatitudeDegrees>-49.22154058702290058135986328125</LatitudeDegrees>
              <LongitudeDegrees>-73.04420859552919864654541015625</LongitudeDegrees>
            </Position>
            <AltitudeMeters>626.4000244140625</AltitudeMeters>
            <DistanceMeters>6503.5362679463</DistanceMeters>
          </Trackpoint>
          <Trackpoint>
            <Time>2023-01-11T17:16:24.000Z</Time>
            <Position>
              <LatitudeDegrees>-49.22155089676380157470703125</LatitudeDegrees>
              <LongitudeDegrees>-73.04418244399130344390869140625</LongitudeDegrees>
            </Position>
            <AltitudeMeters>628</AltitudeMeters>
            <DistanceMeters>6505.7567232461</DistanceMeters>
          </Trackpoint>
          <Trackpoint>
            <Time>2023-01-11T17:16:27.000Z</Time>
            <Position>
              <LatitudeDegrees>-49.22156539745628833770751953125</LatitudeDegrees>
              <LongitudeDegrees>-73.04415863938629627227783203125</LongitudeDegrees>
            </Position>
            <AltitudeMeters>629</AltitudeMeters>
            <DistanceMeters>6508.1228693522</DistanceMeters>
          </Trackpoint>
          <Trackpoint>
            <Time>2023-01-11T17:16:30.000Z</Time>
            <Position>
              <LatitudeDegrees>-49.22158534638583660125732421875</LatitudeDegrees>
              <LongitudeDegrees>-73.04413072764873504638671875</LongitudeDegrees>
            </Position>
            <AltitudeMeters>630.5999755859375</AltitudeMeters>
            <DistanceMeters>6511.1308814194</DistanceMeters>
          </Trackpoint>
          <Trackpoint>
            <Time>2023-01-11T17:16:32.000Z</Time>
            <Position>
              <LatitudeDegrees>-49.22160026617348194122314453125</LatitudeDegrees>
              <LongitudeDegrees>-73.04411337710916996002197265625</LongitudeDegrees>
            </Position>
            <AltitudeMeters>630.5999755859375</AltitudeMeters>
            <DistanceMeters>6513.2149799703</DistanceMeters>
          </Trackpoint>
          <Trackpoint>
            <Time>2023-01-11T17:16:34.000Z</Time>
            <Position>
              <LatitudeDegrees>-49.22162340022623538970947265625</LatitudeDegrees>
              <LongitudeDegrees>-73.044100217521190643310546875</LongitudeDegrees>
            </Position>
            <AltitudeMeters>630.20001220703125</AltitudeMeters>
            <DistanceMeters>6515.9625505166</DistanceMeters>
          </Trackpoint>
          <Trackpoint>
            <Time>2023-01-11T17:16:36.000Z</Time>
            <Position>
              <LatitudeDegrees>-49.22164611518383026123046875</LatitudeDegrees>
              <LongitudeDegrees>-73.044100217521190643310546875</LongitudeDegrees>
            </Position>
            <AltitudeMeters>630</AltitudeMeters>
            <DistanceMeters>6518.4910469319</DistanceMeters>
          </Trackpoint>
          <Trackpoint>
            <Time>2023-01-11T17:16:37.000Z</Time>
            <Position>
              <LatitudeDegrees>-49.2216534912586212158203125</LatitudeDegrees>
              <LongitudeDegrees>-73.04409879259765148162841796875</LongitudeDegrees>
            </Position>
            <AltitudeMeters>628.5999755859375</AltitudeMeters>
            <DistanceMeters>6519.3249029664</DistanceMeters>
          </Trackpoint>
          <Trackpoint>
            <Time>2023-01-11T17:16:39.000Z</Time>
            <Position>
              <LatitudeDegrees>-49.22166178934276103973388671875</LatitudeDegrees>
              <LongitudeDegrees>-73.04408848285675048828125</LongitudeDegrees>
            </Position>
            <AltitudeMeters>627.79998779296875</AltitudeMeters>
            <DistanceMeters>6520.5193702444</DistanceMeters>
          </Trackpoint>
          <Trackpoint>
            <Time>2023-01-11T17:16:40.000Z</Time>
            <Position>
              <LatitudeDegrees>-49.22166715376079082489013671875</LatitudeDegrees>
              <LongitudeDegrees>-73.0440844595432281494140625</LongitudeDegrees>
            </Position>
            <AltitudeMeters>626.79998779296875</AltitudeMeters>
            <DistanceMeters>6521.1845572449</DistanceMeters>
          </Trackpoint>
          <Trackpoint>
            <Time>2023-01-11T17:16:42.000Z</Time>
            <Position>
              <LatitudeDegrees>-49.2216784693300724029541015625</LatitudeDegrees>
              <LongitudeDegrees>-73.0440725572407245635986328125</LongitudeDegrees>
            </Position>
            <AltitudeMeters>625.5999755859375</AltitudeMeters>
            <DistanceMeters>6522.7109122897</DistanceMeters>
          </Trackpoint>
          <Trackpoint>
            <Time>2023-01-11T17:16:49.000Z</Time>
            <Position>
              <LatitudeDegrees>-49.22170168720185756683349609375</LatitudeDegrees>
              <LongitudeDegrees>-73.0440142191946506500244140625</LongitudeDegrees>
            </Position>
            <AltitudeMeters>624</AltitudeMeters>
            <DistanceMeters>6527.676001281</DistanceMeters>
          </Trackpoint>
          <Trackpoint>
            <Time>2023-01-11T17:16:52.000Z</Time>
            <Position>
              <LatitudeDegrees>-49.2216942273080348968505859375</LatitudeDegrees>
              <LongitudeDegrees>-73.04397373460233211517333984375</LongitudeDegrees>
            </Position>
            <AltitudeMeters>623</AltitudeMeters>
            <DistanceMeters>6530.7331452291</DistanceMeters>
          </Trackpoint>
          <Trackpoint>
            <Time>2023-01-11T17:16:54.000Z</Time>
            <Position>
              <LatitudeDegrees>-49.22169615514576435089111328125</LatitudeDegrees>
              <LongitudeDegrees>-73.04394858889281749725341796875</LongitudeDegrees>
            </Position>
            <AltitudeMeters>622.79998779296875</AltitudeMeters>
            <DistanceMeters>6532.570874423</DistanceMeters>
          </Trackpoint>
          <Trackpoint>
            <Time>2023-01-11T17:16:58.000Z</Time>
            <Position>
              <LatitudeDegrees>-49.22170369885861873626708984375</LatitudeDegrees>
              <LongitudeDegrees>-73.04389628581702709197998046875</LongitudeDegrees>
            </Position>
            <AltitudeMeters>622.5999755859375</AltitudeMeters>
            <DistanceMeters>6536.4658106774</DistanceMeters>
          </Trackpoint>
          <Trackpoint>
            <Time>2023-01-11T17:16:59.000Z</Time>
            <Position>
              <LatitudeDegrees>-49.22170269303023815155029296875</LatitudeDegrees>
              <LongitudeDegrees>-73.0438844673335552215576171875</LongitudeDegrees>
            </Position>
            <AltitudeMeters>622.5999755859375</AltitudeMeters>
            <DistanceMeters>6537.3367449007</DistanceMeters>
          </Trackpoint>
          <Trackpoint>
            <Time>2023-01-11T17:17:01.000Z</Time>
            <Position>
              <LatitudeDegrees>-49.22170244157314300537109375</LatitudeDegrees>
              <LongitudeDegrees>-73.04385756142437458038330078125</LongitudeDegrees>
            </Position>
            <AltitudeMeters>623</AltitudeMeters>
            <DistanceMeters>6539.29346471</DistanceMeters>
          </Trackpoint>
          <Trackpoint>
            <Time>2023-01-11T17:17:03.000Z</Time>
            <Position>
              <LatitudeDegrees>-49.22170621342957019805908203125</LatitudeDegrees>
              <LongitudeDegrees>-73.04382671602070331573486328125</LongitudeDegrees>
            </Position>
            <AltitudeMeters>623.20001220703125</AltitudeMeters>
            <DistanceMeters>6541.5741058549</DistanceMeters>
          </Trackpoint>
          <Trackpoint>
            <Time>2023-01-11T17:17:14.000Z</Time>
            <Position>
              <LatitudeDegrees>-49.2217408306896686553955078125</LatitudeDegrees>
              <LongitudeDegrees>-73.04368204437196254730224609375</LongitudeDegrees>
            </Position>
            <AltitudeMeters>623</AltitudeMeters>
            <DistanceMeters>6552.7747688726</DistanceMeters>
          </Trackpoint>
          <Trackpoint>
            <Time>2023-01-11T17:17:20.000Z</Time>
            <Position>
              <LatitudeDegrees>-49.2217539064586162567138671875</LatitudeDegrees>
              <LongitudeDegrees>-73.04367399774491786956787109375</LongitudeDegrees>
            </Position>
            <AltitudeMeters>623.5999755859375</AltitudeMeters>
            <DistanceMeters>6554.341989595</DistanceMeters>
          </Trackpoint>
          <Trackpoint>
            <Time>2023-01-11T17:17:28.000Z</Time>
            <Position>
              <LatitudeDegrees>-49.22178131528198719024658203125</LatitudeDegrees>
              <LongitudeDegrees>-73.0435807071626186370849609375</LongitudeDegrees>
            </Position>
            <AltitudeMeters>623.4000244140625</AltitudeMeters>
            <DistanceMeters>6561.7783992222</DistanceMeters>
          </Trackpoint>
          <Trackpoint>
            <Time>2023-01-11T17:17:33.000Z</Time>
            <Position>
              <LatitudeDegrees>-49.22179623506963253021240234375</LatitudeDegrees>
              <LongitudeDegrees>-73.04351641796529293060302734375</LongitudeDegrees>
            </Position>
            <AltitudeMeters>623.4000244140625</AltitudeMeters>
            <DistanceMeters>6566.7380290706</DistanceMeters>
          </Trackpoint>
          <Trackpoint>
            <Time>2023-01-11T17:17:36.000Z</Time>
            <Position>
              <LatitudeDegrees>-49.22180570662021636962890625</LatitudeDegrees>
              <LongitudeDegrees>-73.04346981458365917205810546875</LongitudeDegrees>
            </Position>
            <AltitudeMeters>623.20001220703125</AltitudeMeters>
            <DistanceMeters>6570.2859758801</DistanceMeters>
          </Trackpoint>
          <Trackpoint>
            <Time>2023-01-11T17:17:39.000Z</Time>
            <Position>
              <LatitudeDegrees>-49.221810400485992431640625</LatitudeDegrees>
              <LongitudeDegrees>-73.04343394003808498382568359375</LongitudeDegrees>
            </Position>
            <AltitudeMeters>622.79998779296875</AltitudeMeters>
            <DistanceMeters>6572.9467238824</DistanceMeters>
          </Trackpoint>
          <Trackpoint>
            <Time>2023-01-11T17:17:44.000Z</Time>
            <Position>
              <LatitudeDegrees>-49.221812747418880462646484375</LatitudeDegrees>
              <LongitudeDegrees>-73.04336990229785442352294921875</LongitudeDegrees>
            </Position>
            <AltitudeMeters>624</AltitudeMeters>
            <DistanceMeters>6577.6098155689</DistanceMeters>
          </Trackpoint>
          <Trackpoint>
            <Time>2023-01-11T17:17:50.000Z</Time>
            <Position>
              <LatitudeDegrees>-49.22182188369333744049072265625</LatitudeDegrees>
              <LongitudeDegrees>-73.0432906933128833770751953125</LongitudeDegrees>
            </Position>
            <AltitudeMeters>624.5999755859375</AltitudeMeters>
            <DistanceMeters>6583.4568549409</DistanceMeters>
          </Trackpoint>
          <Trackpoint>
            <Time>2023-01-11T17:17:54.000Z</Time>
            <Position>
              <LatitudeDegrees>-49.22183923423290252685546875</LatitudeDegrees>
              <LongitudeDegrees>-73.04324534721672534942626953125</LongitudeDegrees>
            </Position>
            <AltitudeMeters>624.79998779296875</AltitudeMeters>
            <DistanceMeters>6587.2768815813</DistanceMeters>
          </Trackpoint>
          <Trackpoint>
            <Time>2023-01-11T17:17:58.000Z</Time>
            <Position>
              <LatitudeDegrees>-49.2218451015651226043701171875</LatitudeDegrees>
              <LongitudeDegrees>-73.0431978218257427215576171875</LongitudeDegrees>
            </Position>
            <AltitudeMeters>625.4000244140625</AltitudeMeters>
            <DistanceMeters>6590.7941539233</DistanceMeters>
          </Trackpoint>
          <Trackpoint>
            <Time>2023-01-11T17:18:01.000Z</Time>
            <Position>
              <LatitudeDegrees>-49.22184987924993038177490234375</LatitudeDegrees>
              <LongitudeDegrees>-73.04316018708050251007080078125</LongitudeDegrees>
            </Position>
            <AltitudeMeters>627.20001220703125</AltitudeMeters>
            <DistanceMeters>6593.5825039405</DistanceMeters>
          </Trackpoint>
          <Trackpoint>
            <Time>2023-01-11T17:18:03.000Z</Time>
            <Position>
              <LatitudeDegrees>-49.2218506336212158203125</LatitudeDegrees>
              <LongitudeDegrees>-73.0431351251900196075439453125</LongitudeDegrees>
            </Position>
            <AltitudeMeters>627.79998779296875</AltitudeMeters>
            <DistanceMeters>6595.4054323898</DistanceMeters>
          </Trackpoint>
          <Trackpoint>
            <Time>2023-01-11T17:18:04.000Z</Time>
            <Position>
              <LatitudeDegrees>-49.2218521423637866973876953125</LatitudeDegrees>
              <LongitudeDegrees>-73.0431227199733257293701171875</LongitudeDegrees>
            </Position>
            <AltitudeMeters>628.4000244140625</AltitudeMeters>
            <DistanceMeters>6596.3267505682</DistanceMeters>
          </Trackpoint>
          <Trackpoint>
            <Time>2023-01-11T17:18:13.000Z</Time>
            <Position>
              <LatitudeDegrees>-49.22189028002321720123291015625</LatitudeDegrees>
              <LongitudeDegrees>-73.04301719181239604949951171875</LongitudeDegrees>
            </Position>
            <AltitudeMeters>628.5999755859375</AltitudeMeters>
            <DistanceMeters>6605.0939628213</DistanceMeters>
          </Trackpoint>
          <Trackpoint>
            <Time>2023-01-11T17:18:15.000Z</Time>
            <Position>
              <LatitudeDegrees>-49.2219014279544353485107421875</LatitudeDegrees>
              <LongitudeDegrees>-73.04298785515129566192626953125</LongitudeDegrees>
            </Position>
            <AltitudeMeters>628.20001220703125</AltitudeMeters>
            <DistanceMeters>6607.560999814</DistanceMeters>
          </Trackpoint>
          <Trackpoint>
            <Time>2023-01-11T17:18:26.000Z</Time>
            <Position>
              <LatitudeDegrees>-49.2219590954482555389404296875</LatitudeDegrees>
              <LongitudeDegrees>-73.04283731617033481597900390625</LongitudeDegrees>
            </Position>
            <AltitudeMeters>628.79998779296875</AltitudeMeters>
            <DistanceMeters>6620.2476890013</DistanceMeters>
          </Trackpoint>
          <Trackpoint>
            <Time>2023-01-11T17:18:28.000Z</Time>
            <Position>
              <LatitudeDegrees>-49.22197108156979084014892578125</LatitudeDegrees>
              <LongitudeDegrees>-73.04281233809888362884521484375</LongitudeDegrees>
            </Position>
            <AltitudeMeters>628.5999755859375</AltitudeMeters>
            <DistanceMeters>6622.5004435289</DistanceMeters>
          </Trackpoint>
          <Trackpoint>
            <Time>2023-01-11T17:18:34.000Z</Time>
            <Position>
              <LatitudeDegrees>-49.221972338855266571044921875</LatitudeDegrees>
              <LongitudeDegrees>-73.0427250824868679046630859375</LongitudeDegrees>
            </Position>
            <AltitudeMeters>629.4000244140625</AltitudeMeters>
            <DistanceMeters>6628.8452115142</DistanceMeters>
          </Trackpoint>
          <Trackpoint>
            <Time>2023-01-11T17:18:35.000Z</Time>
            <Position>
              <LatitudeDegrees>-49.2219674773514270782470703125</LatitudeDegrees>
              <LongitudeDegrees>-73.04271326400339603424072265625</LongitudeDegrees>
            </Position>
            <AltitudeMeters>629.5999755859375</AltitudeMeters>
            <DistanceMeters>6629.8686805501</DistanceMeters>
          </Trackpoint>
          <Trackpoint>
            <Time>2023-01-11T17:18:43.000Z</Time>
            <Position>
              <LatitudeDegrees>-49.2219795472919940948486328125</LatitudeDegrees>
              <LongitudeDegrees>-73.042605221271514892578125</LongitudeDegrees>
            </Position>
            <AltitudeMeters>630.20001220703125</AltitudeMeters>
            <DistanceMeters>6637.8367711293</DistanceMeters>
          </Trackpoint>
          <Trackpoint>
            <Time>2023-01-11T17:18:46.000Z</Time>
            <Position>
              <LatitudeDegrees>-49.2220033518970012664794921875</LatitudeDegrees>
              <LongitudeDegrees>-73.042587451636791229248046875</LongitudeDegrees>
            </Position>
            <AltitudeMeters>630.5999755859375</AltitudeMeters>
            <DistanceMeters>6640.7825992747</DistanceMeters>
          </Trackpoint>
          <Trackpoint>
            <Time>2023-01-11T17:18:49.000Z</Time>
            <Position>
              <LatitudeDegrees>-49.2220251448452472686767578125</LatitudeDegrees>
              <LongitudeDegrees>-73.04258351214230060577392578125</LongitudeDegrees>
            </Position>
            <AltitudeMeters>631</AltitudeMeters>
            <DistanceMeters>6643.2238797693</DistanceMeters>
          </Trackpoint>
          <Trackpoint>
            <Time>2023-01-11T17:18:50.000Z</Time>
            <Position>
              <LatitudeDegrees>-49.22203009016811847686767578125</LatitudeDegrees>
              <LongitudeDegrees>-73.0425708554685115814208984375</LongitudeDegrees>
            </Position>
            <AltitudeMeters>631</AltitudeMeters>
            <DistanceMeters>6644.2989843153</DistanceMeters>
          </Trackpoint>
          <Trackpoint>
            <Time>2023-01-11T17:18:56.000Z</Time>
            <Position>
              <LatitudeDegrees>-49.22207552008330821990966796875</LatitudeDegrees>
              <LongitudeDegrees>-73.0425265990197658538818359375</LongitudeDegrees>
            </Position>
            <AltitudeMeters>631.4000244140625</AltitudeMeters>
            <DistanceMeters>6650.2924510995</DistanceMeters>
          </Trackpoint>
          <Trackpoint>
            <Time>2023-01-11T17:18:57.000Z</Time>
            <Position>
              <LatitudeDegrees>-49.22207870520651340484619140625</LatitudeDegrees>
              <LongitudeDegrees>-73.04251913912594318389892578125</LongitudeDegrees>
            </Position>
            <AltitudeMeters>631.4000244140625</AltitudeMeters>
            <DistanceMeters>6650.9439214311</DistanceMeters>
          </Trackpoint>
          <Trackpoint>
            <Time>2023-01-11T17:18:58.000Z</Time>
            <Position>
              <LatitudeDegrees>-49.2220791243016719818115234375</LatitudeDegrees>
              <LongitudeDegrees>-73.04251092486083507537841796875</LongitudeDegrees>
            </Position>
            <AltitudeMeters>631.20001220703125</AltitudeMeters>
            <DistanceMeters>6651.544923143</DistanceMeters>
          </Trackpoint>
          <Trackpoint>
            <Time>2023-01-11T17:18:59.000Z</Time>
            <Position>
              <LatitudeDegrees>-49.22207853756844997406005859375</LatitudeDegrees>
              <LongitudeDegrees>-73.0424987711012363433837890625</LongitudeDegrees>
            </Position>
            <AltitudeMeters>631.20001220703125</AltitudeMeters>
            <DistanceMeters>6652.4261646389</DistanceMeters>
          </Trackpoint>
          <Trackpoint>
            <Time>2023-01-11T17:19:06.000Z</Time>
            <Position>
              <LatitudeDegrees>-49.2220866680145263671875</LatitudeDegrees>
              <LongitudeDegrees>-73.04240070283412933349609375</LongitudeDegrees>
            </Position>
            <AltitudeMeters>631.79998779296875</AltitudeMeters>
            <DistanceMeters>6659.6118432504</DistanceMeters>
          </Trackpoint>
          <Trackpoint>
            <Time>2023-01-11T17:19:07.000Z</Time>
            <Position>
              <LatitudeDegrees>-49.222088344395160675048828125</LatitudeDegrees>
              <LongitudeDegrees>-73.042384944856166839599609375</LongitudeDegrees>
            </Position>
            <AltitudeMeters>631.79998779296875</AltitudeMeters>
            <DistanceMeters>6660.7756780611</DistanceMeters>
          </Trackpoint>
          <Trackpoint>
            <Time>2023-01-11T17:19:08.000Z</Time>
            <Position>
              <LatitudeDegrees>-49.2220918647944927215576171875</LatitudeDegrees>
              <LongitudeDegrees>-73.04237195290625095367431640625</LongitudeDegrees>
            </Position>
            <AltitudeMeters>631.79998779296875</AltitudeMeters>
            <DistanceMeters>6661.799147097</DistanceMeters>
          </Trackpoint>
          <Trackpoint>
            <Time>2023-01-11T17:19:15.000Z</Time>
            <Position>
              <LatitudeDegrees>-49.2221200279891490936279296875</LatitudeDegrees>
              <LongitudeDegrees>-73.04229903034865856170654296875</LongitudeDegrees>
            </Position>
            <AltitudeMeters>631.20001220703125</AltitudeMeters>
            <DistanceMeters>6667.9575820495</DistanceMeters>
          </Trackpoint>
          <Trackpoint>
            <Time>2023-01-11T17:19:16.000Z</Time>
            <Position>
              <LatitudeDegrees>-49.222121872007846832275390625</LatitudeDegrees>
              <LongitudeDegrees>-73.0422942526638507843017578125</LongitudeDegrees>
            </Position>
            <AltitudeMeters>631.4000244140625</AltitudeMeters>
            <DistanceMeters>6668.3607462543</DistanceMeters>
          </Trackpoint>
          <Trackpoint>
            <Time>2023-01-11T17:19:22.000Z</Time>
            <Position>
              <LatitudeDegrees>-49.22213201411068439483642578125</LatitudeDegrees>
              <LongitudeDegrees>-73.042257539927959442138671875</LongitudeDegrees>
            </Position>
            <AltitudeMeters>632</AltitudeMeters>
            <DistanceMeters>6671.2571131192</DistanceMeters>
          </Trackpoint>
          <Trackpoint>
            <Time>2023-01-11T17:19:25.000Z</Time>
            <Position>
              <LatitudeDegrees>-49.22213536687195301055908203125</LatitudeDegrees>
              <LongitudeDegrees>-73.04222292266786098480224609375</LongitudeDegrees>
            </Position>
            <AltitudeMeters>632.20001220703125</AltitudeMeters>
            <DistanceMeters>6673.7998546975</DistanceMeters>
          </Trackpoint>
          <Trackpoint>
            <Time>2023-01-11T17:19:28.000Z</Time>
            <Position>
              <LatitudeDegrees>-49.22214257530868053436279296875</LatitudeDegrees>
              <LongitudeDegrees>-73.0421879701316356658935546875</LongitudeDegrees>
            </Position>
            <AltitudeMeters>632.20001220703125</AltitudeMeters>
            <DistanceMeters>6676.4639943494</DistanceMeters>
          </Trackpoint>
          <Trackpoint>
            <Time>2023-01-11T17:19:32.000Z</Time>
            <Position>
              <LatitudeDegrees>-49.22214978374540805816650390625</LatitudeDegrees>
              <LongitudeDegrees>-73.0421376787126064300537109375</LongitudeDegrees>
            </Position>
            <AltitudeMeters>632.79998779296875</AltitudeMeters>
            <DistanceMeters>6680.2076127382</DistanceMeters>
          </Trackpoint>
          <Trackpoint>
            <Time>2023-01-11T17:19:33.000Z</Time>
            <Position>
              <LatitudeDegrees>-49.2221510410308837890625</LatitudeDegrees>
              <LongitudeDegrees>-73.04212602786719799041748046875</LongitudeDegrees>
            </Position>
            <AltitudeMeters>632.79998779296875</AltitudeMeters>
            <DistanceMeters>6681.0628531676</DistanceMeters>
          </Trackpoint>
          <Trackpoint>
            <Time>2023-01-11T17:19:37.000Z</Time>
            <Position>
              <LatitudeDegrees>-49.2221652902662754058837890625</LatitudeDegrees>
              <LongitudeDegrees>-73.04207774810492992401123046875</LongitudeDegrees>
            </Position>
            <AltitudeMeters>633.5999755859375</AltitudeMeters>
            <DistanceMeters>6684.9134875985</DistanceMeters>
          </Trackpoint>
          <Trackpoint>
            <Time>2023-01-11T17:19:40.000Z</Time>
            <Position>
              <LatitudeDegrees>-49.22218733467161655426025390625</LatitudeDegrees>
              <LongitudeDegrees>-73.04204623214900493621826171875</LongitudeDegrees>
            </Position>
            <AltitudeMeters>633.79998779296875</AltitudeMeters>
            <DistanceMeters>6688.2718451552</DistanceMeters>
          </Trackpoint>
          <Trackpoint>
            <Time>2023-01-11T17:19:42.000Z</Time>
            <Position>
              <LatitudeDegrees>-49.2221964709460735321044921875</LatitudeDegrees>
              <LongitudeDegrees>-73.04202494211494922637939453125</LongitudeDegrees>
            </Position>
            <AltitudeMeters>633.79998779296875</AltitudeMeters>
            <DistanceMeters>6690.1242568397</DistanceMeters>
          </Trackpoint>
          <Trackpoint>
            <Time>2023-01-11T17:19:43.000Z</Time>
            <Position>
              <LatitudeDegrees>-49.22219999134540557861328125</LatitudeDegrees>
              <LongitudeDegrees>-73.04201203398406505584716796875</LongitudeDegrees>
            </Position>
            <AltitudeMeters>634</AltitudeMeters>
            <DistanceMeters>6691.138864505</DistanceMeters>
          </Trackpoint>
          <Trackpoint>
            <Time>2023-01-11T17:19:47.000Z</Time>
            <Position>
              <LatitudeDegrees>-49.2222045175731182098388671875</LatitudeDegrees>
              <LongitudeDegrees>-73.0419539473950862884521484375</LongitudeDegrees>
            </Position>
            <AltitudeMeters>634</AltitudeMeters>
            <DistanceMeters>6695.3907126962</DistanceMeters>
          </Trackpoint>
          <Trackpoint>
            <Time>2023-01-11T17:19:49.000Z</Time>
            <Position>
              <LatitudeDegrees>-49.22220937907695770263671875</LatitudeDegrees>
              <LongitudeDegrees>-73.0419279634952545166015625</LongitudeDegrees>
            </Position>
            <AltitudeMeters>634</AltitudeMeters>
            <DistanceMeters>6697.3566406496</DistanceMeters>
          </Trackpoint>
          <Trackpoint>
            <Time>2023-01-11T17:19:56.000Z</Time>
            <Position>
              <LatitudeDegrees>-49.22223041765391826629638671875</LatitudeDegrees>
              <LongitudeDegrees>-73.04183769039809703826904296875</LongitudeDegrees>
            </Position>
            <AltitudeMeters>634.20001220703125</AltitudeMeters>
            <DistanceMeters>6704.3241144359</DistanceMeters>
          </Trackpoint>
          <Trackpoint>
            <Time>2023-01-11T17:20:06.000Z</Time>
            <Position>
              <LatitudeDegrees>-49.222286157310009002685546875</LatitudeDegrees>
              <LongitudeDegrees>-73.04171849973499774932861328125</LongitudeDegrees>
            </Position>
            <AltitudeMeters>634.5999755859375</AltitudeMeters>
            <DistanceMeters>6714.9806730436</DistanceMeters>
          </Trackpoint>
          <Trackpoint>
            <Time>2023-01-11T17:20:11.000Z</Time>
            <Position>
              <LatitudeDegrees>-49.22231306321918964385986328125</LatitudeDegrees>
              <LongitudeDegrees>-73.04166837595403194427490234375</LongitudeDegrees>
            </Position>
            <AltitudeMeters>634.79998779296875</AltitudeMeters>
            <DistanceMeters>6719.6976750955</DistanceMeters>
          </Trackpoint>
          <Trackpoint>
            <Time>2023-01-11T17:20:12.000Z</Time>
            <Position>
              <LatitudeDegrees>-49.2223159968852996826171875</LatitudeDegrees>
              <LongitudeDegrees>-73.0416552163660526275634765625</LongitudeDegrees>
            </Position>
            <AltitudeMeters>634.79998779296875</AltitudeMeters>
            <DistanceMeters>6720.7078229254</DistanceMeters>
          </Trackpoint>
          <Trackpoint>
            <Time>2023-01-11T17:20:14.000Z</Time>
            <Position>
              <LatitudeDegrees>-49.222323708236217498779296875</LatitudeDegrees>
              <LongitudeDegrees>-73.04163493216037750244140625</LongitudeDegrees>
            </Position>
            <AltitudeMeters>635.20001220703125</AltitudeMeters>
            <DistanceMeters>6722.4130163499</DistanceMeters>
          </Trackpoint>
          <Trackpoint>
            <Time>2023-01-11T17:20:22.000Z</Time>
            <Position>
              <LatitudeDegrees>-49.2223587445914745330810546875</LatitudeDegrees>
              <LongitudeDegrees>-73.04154600016772747039794921875</LongitudeDegrees>
            </Position>
            <AltitudeMeters>634.4000244140625</AltitudeMeters>
            <DistanceMeters>6729.9627079008</DistanceMeters>
          </Trackpoint>
          <Trackpoint>
            <Time>2023-01-11T17:20:29.000Z</Time>
            <Position>
              <LatitudeDegrees>-49.2223728261888027191162109375</LatitudeDegrees>
              <LongitudeDegrees>-73.04146838374435901641845703125</LongitudeDegrees>
            </Position>
            <AltitudeMeters>634.5999755859375</AltitudeMeters>
            <DistanceMeters>6735.8190062483</DistanceMeters>
          </Trackpoint>
          <Trackpoint>
            <Time>2023-01-11T17:20:34.000Z</Time>
            <Position>
              <LatitudeDegrees>-49.22238414175808429718017578125</LatitudeDegrees>
              <LongitudeDegrees>-73.04141205735504627227783203125</LongitudeDegrees>
            </Position>
            <AltitudeMeters>634.5999755859375</AltitudeMeters>
            <DistanceMeters>6740.1025929853</DistanceMeters>
          </Trackpoint>
          <Trackpoint>
            <Time>2023-01-11T17:20:36.000Z</Time>
            <Position>
              <LatitudeDegrees>-49.22238866798579692840576171875</LatitudeDegrees>
              <LongitudeDegrees>-73.0413888394832611083984375</LongitudeDegrees>
            </Position>
            <AltitudeMeters>636.20001220703125</AltitudeMeters>
            <DistanceMeters>6741.8650759772</DistanceMeters>
          </Trackpoint>
          <Trackpoint>
            <Time>2023-01-11T17:20:37.000Z</Time>
            <Position>
              <LatitudeDegrees>-49.22239403240382671356201171875</LatitudeDegrees>
              <LongitudeDegrees>-73.04137383587658405303955078125</LongitudeDegrees>
            </Position>
            <AltitudeMeters>636.20001220703125</AltitudeMeters>
            <DistanceMeters>6743.1113396525</DistanceMeters>
          </Trackpoint>
          <Trackpoint>
            <Time>2023-01-11T17:20:42.000Z</Time>
            <Position>
              <LatitudeDegrees>-49.2224197648465633392333984375</LatitudeDegrees>
              <LongitudeDegrees>-73.04129789583384990692138671875</LongitudeDegrees>
            </Position>
            <AltitudeMeters>635.20001220703125</AltitudeMeters>
            <DistanceMeters>6749.3296020572</DistanceMeters>
          </Trackpoint>
          <Trackpoint>
            <Time>2023-01-11T17:20:44.000Z</Time>
            <Position>
              <LatitudeDegrees>-49.22242655418813228607177734375</LatitudeDegrees>
              <LongitudeDegrees>-73.041276521980762481689453125</LongitudeDegrees>
            </Position>
            <AltitudeMeters>635</AltitudeMeters>
            <DistanceMeters>6751.0558480496</DistanceMeters>
          </Trackpoint>
          <Trackpoint>
            <Time>2023-01-11T17:20:48.000Z</Time>
            <Position>
              <LatitudeDegrees>-49.22243996523320674896240234375</LatitudeDegrees>
              <LongitudeDegrees>-73.04120737127959728240966796875</LongitudeDegrees>
            </Position>
            <AltitudeMeters>634</AltitudeMeters>
            <DistanceMeters>6756.2995664604</DistanceMeters>
          </Trackpoint>
          <Trackpoint>
            <Time>2023-01-11T17:20:53.000Z</Time>
            <Position>
              <LatitudeDegrees>-49.2224474251270294189453125</LatitudeDegrees>
              <LongitudeDegrees>-73.04111190140247344970703125</LongitudeDegrees>
            </Position>
            <AltitudeMeters>633.5999755859375</AltitudeMeters>
            <DistanceMeters>6763.2896840302</DistanceMeters>
          </Trackpoint>
          <Trackpoint>
            <Time>2023-01-11T17:20:54.000Z</Time>
            <Position>
              <LatitudeDegrees>-49.2224522866308689117431640625</LatitudeDegrees>
              <LongitudeDegrees>-73.04108499549329280853271484375</LongitudeDegrees>
            </Position>
            <AltitudeMeters>633.20001220703125</AltitudeMeters>
            <DistanceMeters>6765.3188993609</DistanceMeters>
          </Trackpoint>
          <Trackpoint>
            <Time>2023-01-11T17:20:55.000Z</Time>
            <Position>
              <LatitudeDegrees>-49.2224569804966449737548828125</LatitudeDegrees>
              <LongitudeDegrees>-73.041063956916332244873046875</LongitudeDegrees>
            </Position>
            <AltitudeMeters>633</AltitudeMeters>
            <DistanceMeters>6766.937145995</DistanceMeters>
          </Trackpoint>
          <Trackpoint>
            <Time>2023-01-11T17:20:56.000Z</Time>
            <Position>
              <LatitudeDegrees>-49.22245622612535953521728515625</LatitudeDegrees>
              <LongitudeDegrees>-73.04104928858578205108642578125</LongitudeDegrees>
            </Position>
            <AltitudeMeters>633</AltitudeMeters>
            <DistanceMeters>6768.0080426792</DistanceMeters>
          </Trackpoint>
          <Trackpoint>
            <Time>2023-01-11T17:20:58.000Z</Time>
            <Position>
              <LatitudeDegrees>-49.222443737089633941650390625</LatitudeDegrees>
              <LongitudeDegrees>-73.0410254001617431640625</LongitudeDegrees>
            </Position>
            <AltitudeMeters>632.4000244140625</AltitudeMeters>
            <DistanceMeters>6770.2325610296</DistanceMeters>
          </Trackpoint>
          <Trackpoint>
            <Time>2023-01-11T17:21:00.000Z</Time>
            <Position>
              <LatitudeDegrees>-49.2224261350929737091064453125</LatitudeDegrees>
              <LongitudeDegrees>-73.04100863635540008544921875</LongitudeDegrees>
            </Position>
            <AltitudeMeters>631.79998779296875</AltitudeMeters>
            <DistanceMeters>6772.5407519017</DistanceMeters>
          </Trackpoint>
          <Trackpoint>
            <Time>2023-01-11T17:21:05.000Z</Time>
            <Position>
              <LatitudeDegrees>-49.2223926074802875518798828125</LatitudeDegrees>
              <LongitudeDegrees>-73.04095826111733913421630859375</LongitudeDegrees>
            </Position>
            <AltitudeMeters>631</AltitudeMeters>
            <DistanceMeters>6777.7698121875</DistanceMeters>
          </Trackpoint>
          <Trackpoint>
            <Time>2023-01-11T17:21:07.000Z</Time>
            <Position>
              <LatitudeDegrees>-49.22237374819815158843994140625</LatitudeDegrees>
              <LongitudeDegrees>-73.040938563644886016845703125</LongitudeDegrees>
            </Position>
            <AltitudeMeters>630.5999755859375</AltitudeMeters>
            <DistanceMeters>6780.3107774878</DistanceMeters>
          </Trackpoint>
          <Trackpoint>
            <Time>2023-01-11T17:21:15.000Z</Time>
            <Position>
              <LatitudeDegrees>-49.222309291362762451171875</LatitudeDegrees>
              <LongitudeDegrees>-73.0408874340355396270751953125</LongitudeDegrees>
            </Position>
            <AltitudeMeters>629.20001220703125</AltitudeMeters>
            <DistanceMeters>6788.3902838226</DistanceMeters>
          </Trackpoint>
          <Trackpoint>
            <Time>2023-01-11T17:21:17.000Z</Time>
            <Position>
              <LatitudeDegrees>-49.2222943715751171112060546875</LatitudeDegrees>
              <LongitudeDegrees>-73.04086790420114994049072265625</LongitudeDegrees>
            </Position>
            <AltitudeMeters>629.20001220703125</AltitudeMeters>
            <DistanceMeters>6790.5758982531</DistanceMeters>
          </Trackpoint>
          <Trackpoint>
            <Time>2023-01-11T17:21:20.000Z</Time>
            <Position>
              <LatitudeDegrees>-49.2222719080746173858642578125</LatitudeDegrees>
              <LongitudeDegrees>-73.040860109031200408935546875</LongitudeDegrees>
            </Position>
            <AltitudeMeters>629.20001220703125</AltitudeMeters>
            <DistanceMeters>6793.1398591832</DistanceMeters>
          </Trackpoint>
          <Trackpoint>
            <Time>2023-01-11T17:21:22.000Z</Time>
            <Position>
              <LatitudeDegrees>-49.222264699637889862060546875</LatitudeDegrees>
              <LongitudeDegrees>-73.040837980806827545166015625</LongitudeDegrees>
            </Position>
            <AltitudeMeters>629.79998779296875</AltitudeMeters>
            <DistanceMeters>6794.937848996</DistanceMeters>
          </Trackpoint>
          <Trackpoint>
            <Time>2023-01-11T17:21:28.000Z</Time>
            <Position>
              <LatitudeDegrees>-49.22226645983755588531494140625</LatitudeDegrees>
              <LongitudeDegrees>-73.040783666074275970458984375</LongitudeDegrees>
            </Position>
            <AltitudeMeters>629.79998779296875</AltitudeMeters>
            <DistanceMeters>6798.8903206592</DistanceMeters>
          </Trackpoint>
          <Trackpoint>
            <Time>2023-01-11T17:21:32.000Z</Time>
            <Position>
              <LatitudeDegrees>-49.22223762609064579010009765625</LatitudeDegrees>
              <LongitudeDegrees>-73.040750138461589813232421875</LongitudeDegrees>
            </Position>
            <AltitudeMeters>629.79998779296875</AltitudeMeters>
            <DistanceMeters>6802.9208426505</DistanceMeters>
          </Trackpoint>
          <Trackpoint>
            <Time>2023-01-11T17:21:33.000Z</Time>
            <Position>
              <LatitudeDegrees>-49.22223259694874286651611328125</LatitudeDegrees>
              <LongitudeDegrees>-73.04074167273938655853271484375</LongitudeDegrees>
            </Position>
            <AltitudeMeters>629.79998779296875</AltitudeMeters>
            <DistanceMeters>6803.7546986849</DistanceMeters>
          </Trackpoint>
          <Trackpoint>
            <Time>2023-01-11T17:21:37.000Z</Time>
            <Position>
              <LatitudeDegrees>-49.22220963053405284881591796875</LatitudeDegrees>
              <LongitudeDegrees>-73.04070018231868743896484375</LongitudeDegrees>
            </Position>
            <AltitudeMeters>630.20001220703125</AltitudeMeters>
            <DistanceMeters>6807.7071703481</DistanceMeters>
          </Trackpoint>
          <Trackpoint>
            <Time>2023-01-11T17:21:38.000Z</Time>
            <Position>
              <LatitudeDegrees>-49.22219999134540557861328125</LatitudeDegrees>
              <LongitudeDegrees>-73.04068936966359615325927734375</LongitudeDegrees>
            </Position>
            <AltitudeMeters>630.20001220703125</AltitudeMeters>
            <DistanceMeters>6809.0375443493</DistanceMeters>
          </Trackpoint>
          <Trackpoint>
            <Time>2023-01-11T17:21:40.000Z</Time>
            <Position>
              <LatitudeDegrees>-49.22218632884323596954345703125</LatitudeDegrees>
              <LongitudeDegrees>-73.04066891781985759735107421875</LongitudeDegrees>
            </Position>
            <AltitudeMeters>631.5999755859375</AltitudeMeters>
            <DistanceMeters>6811.1624062794</DistanceMeters>
          </Trackpoint>
          <Trackpoint>
            <Time>2023-01-11T17:21:43.000Z</Time>
            <Position>
              <LatitudeDegrees>-49.222189597785472869873046875</LatitudeDegrees>
              <LongitudeDegrees>-73.04066422395408153533935546875</LongitudeDegrees>
            </Position>
            <AltitudeMeters>632</AltitudeMeters>
            <DistanceMeters>6811.6561795715</DistanceMeters>
          </Trackpoint>
          <Trackpoint>
            <Time>2023-01-11T17:21:49.000Z</Time>
            <Position>
              <LatitudeDegrees>-49.22216244041919708251953125</LatitudeDegrees>
              <LongitudeDegrees>-73.04061477072536945343017578125</LongitudeDegrees>
            </Position>
            <AltitudeMeters>631.5999755859375</AltitudeMeters>
            <DistanceMeters>6816.3530377504</DistanceMeters>
          </Trackpoint>
          <Trackpoint>
            <Time>2023-01-11T17:21:56.000Z</Time>
            <Position>
              <LatitudeDegrees>-49.22211776487529277801513671875</LatitudeDegrees>
              <LongitudeDegrees>-73.04054637439548969268798828125</LongitudeDegrees>
            </Position>
            <AltitudeMeters>632.20001220703125</AltitudeMeters>
            <DistanceMeters>6823.384372512</DistanceMeters>
          </Trackpoint>
          <Trackpoint>
            <Time>2023-01-11T17:22:04.000Z</Time>
            <Position>
              <LatitudeDegrees>-49.22210116870701313018798828125</LatitudeDegrees>
              <LongitudeDegrees>-73.04048082791268825531005859375</LongitudeDegrees>
            </Position>
            <AltitudeMeters>632.4000244140625</AltitudeMeters>
            <DistanceMeters>6828.4946544099</DistanceMeters>
          </Trackpoint>
          <Trackpoint>
            <Time>2023-01-11T17:22:06.000Z</Time>
            <Position>
              <LatitudeDegrees>-49.2221022583544254302978515625</LatitudeDegrees>
              <LongitudeDegrees>-73.04046951234340667724609375</LongitudeDegrees>
            </Position>
            <AltitudeMeters>633.4000244140625</AltitudeMeters>
            <DistanceMeters>6829.3285104444</DistanceMeters>
          </Trackpoint>
          <Trackpoint>
            <Time>2023-01-11T17:22:07.000Z</Time>
            <Position>
              <LatitudeDegrees>-49.22209798358380794525146484375</LatitudeDegrees>
              <LongitudeDegrees>-73.04046708159148693084716796875</LongitudeDegrees>
            </Position>
            <AltitudeMeters>633.4000244140625</AltitudeMeters>
            <DistanceMeters>6829.8402449623</DistanceMeters>
          </Trackpoint>
          <Trackpoint>
            <Time>2023-01-11T17:22:09.000Z</Time>
            <Position>
              <LatitudeDegrees>-49.222091026604175567626953125</LatitudeDegrees>
              <LongitudeDegrees>-73.04046976380050182342529296875</LongitudeDegrees>
            </Position>
            <AltitudeMeters>633.4000244140625</AltitudeMeters>
            <DistanceMeters>6830.6465733718</DistanceMeters>
          </Trackpoint>
          <Trackpoint>
            <Time>2023-01-11T17:22:13.000Z</Time>
            <Position>
              <LatitudeDegrees>-49.2220660485327243804931640625</LatitudeDegrees>
              <LongitudeDegrees>-73.04043053649365901947021484375</LongitudeDegrees>
            </Position>
            <AltitudeMeters>635.79998779296875</AltitudeMeters>
            <DistanceMeters>6834.6297686108</DistanceMeters>
          </Trackpoint>
          <Trackpoint>
            <Time>2023-01-11T17:22:16.000Z</Time>
            <Position>
              <LatitudeDegrees>-49.22206009738147258758544921875</LatitudeDegrees>
              <LongitudeDegrees>-73.0404002778232097625732421875</LongitudeDegrees>
            </Position>
            <AltitudeMeters>636</AltitudeMeters>
            <DistanceMeters>6836.9261929277</DistanceMeters>
          </Trackpoint>
          <Trackpoint>
            <Time>2023-01-11T17:22:17.000Z</Time>
            <Position>
              <LatitudeDegrees>-49.222060181200504302978515625</LatitudeDegrees>
              <LongitudeDegrees>-73.04038829170167446136474609375</LongitudeDegrees>
            </Position>
            <AltitudeMeters>636</AltitudeMeters>
            <DistanceMeters>6837.797127151</DistanceMeters>
          </Trackpoint>
          <Trackpoint>
            <Time>2023-01-11T17:22:18.000Z</Time>
            <Position>
              <LatitudeDegrees>-49.22206093557178974151611328125</LatitudeDegrees>
              <LongitudeDegrees>-73.0403768084943294525146484375</LongitudeDegrees>
            </Position>
            <AltitudeMeters>636</AltitudeMeters>
            <DistanceMeters>6838.6363803683</DistanceMeters>
          </Trackpoint>
          <Trackpoint>
            <Time>2023-01-11T17:22:25.000Z</Time>
            <Position>
              <LatitudeDegrees>-49.2220717482268810272216796875</LatitudeDegrees>
              <LongitudeDegrees>-73.040342442691326141357421875</LongitudeDegrees>
            </Position>
            <AltitudeMeters>638</AltitudeMeters>
            <DistanceMeters>6841.408490585</DistanceMeters>
          </Trackpoint>
          <Trackpoint>
            <Time>2023-01-11T17:22:26.000Z</Time>
            <Position>
              <LatitudeDegrees>-49.222064204514026641845703125</LatitudeDegrees>
              <LongitudeDegrees>-73.04033900611102581024169921875</LongitudeDegrees>
            </Position>
            <AltitudeMeters>637.20001220703125</AltitudeMeters>
            <DistanceMeters>6842.2897320809</DistanceMeters>
          </Trackpoint>
          <Trackpoint>
            <Time>2023-01-11T17:22:31.000Z</Time>
            <Position>
              <LatitudeDegrees>-49.22203838825225830078125</LatitudeDegrees>
              <LongitudeDegrees>-73.04030681960284709930419921875</LongitudeDegrees>
            </Position>
            <AltitudeMeters>637.4000244140625</AltitudeMeters>
            <DistanceMeters>6845.9945554499</DistanceMeters>
          </Trackpoint>
          <Trackpoint>
            <Time>2023-01-11T17:22:33.000Z</Time>
            <Position>
              <LatitudeDegrees>-49.22202556394040584564208984375</LatitudeDegrees>
              <LongitudeDegrees>-73.04029961116611957550048828125</LongitudeDegrees>
            </Position>
            <AltitudeMeters>637.4000244140625</AltitudeMeters>
            <DistanceMeters>6847.5149828798</DistanceMeters>
          </Trackpoint>
          <Trackpoint>
            <Time>2023-01-11T17:22:40.000Z</Time>
            <Position>
              <LatitudeDegrees>-49.22197979874908924102783203125</LatitudeDegrees>
              <LongitudeDegrees>-73.0402644909918308258056640625</LongitudeDegrees>
            </Position>
            <AltitudeMeters>638</AltitudeMeters>
            <DistanceMeters>6853.2134173045</DistanceMeters>
          </Trackpoint>
          <Trackpoint>
            <Time>2023-01-11T17:22:47.000Z</Time>
            <Position>
              <LatitudeDegrees>-49.221931435167789459228515625</LatitudeDegrees>
              <LongitudeDegrees>-73.04025384597480297088623046875</LongitudeDegrees>
            </Position>
            <AltitudeMeters>639</AltitudeMeters>
            <DistanceMeters>6858.6515695967</DistanceMeters>
          </Trackpoint>
          <Trackpoint>
            <Time>2023-01-11T17:22:48.000Z</Time>
            <Position>
              <LatitudeDegrees>-49.22192246653139591217041015625</LatitudeDegrees>
              <LongitudeDegrees>-73.04025015793740749359130859375</LongitudeDegrees>
            </Position>
            <AltitudeMeters>639</AltitudeMeters>
            <DistanceMeters>6859.6838239357</DistanceMeters>
          </Trackpoint>
          <Trackpoint>
            <Time>2023-01-11T17:22:55.000Z</Time>
            <Position>
              <LatitudeDegrees>-49.2218814790248870849609375</LatitudeDegrees>
              <LongitudeDegrees>-73.04021243937313556671142578125</LongitudeDegrees>
            </Position>
            <AltitudeMeters>641.4000244140625</AltitudeMeters>
            <DistanceMeters>6865.0061683256</DistanceMeters>
          </Trackpoint>
          <Trackpoint>
            <Time>2023-01-11T17:22:56.000Z</Time>
            <Position>
              <LatitudeDegrees>-49.22187452204525470733642578125</LatitudeDegrees>
              <LongitudeDegrees>-73.040208332240581512451171875</LongitudeDegrees>
            </Position>
            <AltitudeMeters>644.4000244140625</AltitudeMeters>
            <DistanceMeters>6865.8345920154</DistanceMeters>
          </Trackpoint>
          <Trackpoint>
            <Time>2023-01-11T17:23:06.000Z</Time>
            <Position>
              <LatitudeDegrees>-49.221804030239582061767578125</LatitudeDegrees>
              <LongitudeDegrees>-73.04012996144592761993408203125</LongitudeDegrees>
            </Position>
            <AltitudeMeters>644.4000244140625</AltitudeMeters>
            <DistanceMeters>6875.5305770534</DistanceMeters>
          </Trackpoint>
          <Trackpoint>
            <Time>2023-01-11T17:23:08.000Z</Time>
            <Position>
              <LatitudeDegrees>-49.22179757617413997650146484375</LatitudeDegrees>
              <LongitudeDegrees>-73.04009936749935150146484375</LongitudeDegrees>
            </Position>
            <AltitudeMeters>638.20001220703125</AltitudeMeters>
            <DistanceMeters>6877.8679251765</DistanceMeters>
          </Trackpoint>
          <Trackpoint>
            <Time>2023-01-11T17:23:12.000Z</Time>
            <Position>
              <LatitudeDegrees>-49.22179807908833026885986328125</LatitudeDegrees>
              <LongitudeDegrees>-73.04007983766496181488037109375</LongitudeDegrees>
            </Position>
            <AltitudeMeters>639.5999755859375</AltitudeMeters>
            <DistanceMeters>6879.2869766369</DistanceMeters>
          </Trackpoint>
          <Trackpoint>
            <Time>2023-01-11T17:23:16.000Z</Time>
            <Position>
              <LatitudeDegrees>-49.2217847518622875213623046875</LatitudeDegrees>
              <LongitudeDegrees>-73.04005645215511322021484375</LongitudeDegrees>
            </Position>
            <AltitudeMeters>637.4000244140625</AltitudeMeters>
            <DistanceMeters>6881.5417345037</DistanceMeters>
          </Trackpoint>
          <Trackpoint>
            <Time>2023-01-11T17:23:20.000Z</Time>
            <Position>
              <LatitudeDegrees>-49.22175533138215541839599609375</LatitudeDegrees>
              <LongitudeDegrees>-73.0400609783828258514404296875</LongitudeDegrees>
            </Position>
            <AltitudeMeters>636.4000244140625</AltitudeMeters>
            <DistanceMeters>6884.833556451</DistanceMeters>
          </Trackpoint>
          <Trackpoint>
            <Time>2023-01-11T17:23:22.000Z</Time>
            <Position>
              <LatitudeDegrees>-49.22173202969133853912353515625</LatitudeDegrees>
              <LongitudeDegrees>-73.04005251266062259674072265625</LongitudeDegrees>
            </Position>
            <AltitudeMeters>635.79998779296875</AltitudeMeters>
            <DistanceMeters>6887.4976961029</DistanceMeters>
          </Trackpoint>
          <Trackpoint>
            <Time>2023-01-11T17:23:26.000Z</Time>
            <Position>
              <LatitudeDegrees>-49.22172180376946926116943359375</LatitudeDegrees>
              <LongitudeDegrees>-73.04001999087631702423095703125</LongitudeDegrees>
            </Position>
            <AltitudeMeters>635.79998779296875</AltitudeMeters>
            <DistanceMeters>6890.1208465466</DistanceMeters>
          </Trackpoint>
          <Trackpoint>
            <Time>2023-01-11T17:23:32.000Z</Time>
            <Position>
              <LatitudeDegrees>-49.2217347957193851470947265625</LatitudeDegrees>
              <LongitudeDegrees>-73.04000683128833770751953125</LongitudeDegrees>
            </Position>
            <AltitudeMeters>636.4000244140625</AltitudeMeters>
            <DistanceMeters>6891.8549213592</DistanceMeters>
          </Trackpoint>
          <Trackpoint>
            <Time>2023-01-11T17:23:37.000Z</Time>
            <Position>
              <LatitudeDegrees>-49.2217394895851612091064453125</LatitudeDegrees>
              <LongitudeDegrees>-73.040008507668972015380859375</LongitudeDegrees>
            </Position>
            <AltitudeMeters>636.20001220703125</AltitudeMeters>
            <DistanceMeters>6892.3924736322</DistanceMeters>
          </Trackpoint>
          <Trackpoint>
            <Time>2023-01-11T17:23:39.000Z</Time>
            <Position>
              <LatitudeDegrees>-49.2217394895851612091064453125</LatitudeDegrees>
              <LongitudeDegrees>-73.040008507668972015380859375</LongitudeDegrees>
            </Position>
            <AltitudeMeters>636.20001220703125</AltitudeMeters>
            <DistanceMeters>6892.3924736322</DistanceMeters>
          </Trackpoint>
          <Trackpoint>
            <Time>2023-01-11T17:23:50.000Z</Time>
            <Position>
              <LatitudeDegrees>-49.2217394895851612091064453125</LatitudeDegrees>
              <LongitudeDegrees>-73.040008507668972015380859375</LongitudeDegrees>
            </Position>
            <AltitudeMeters>637</AltitudeMeters>
            <DistanceMeters>6892.3924736322</DistanceMeters>
          </Trackpoint>
          <Trackpoint>
            <Time>2023-01-11T17:23:53.000Z</Time>
            <Position>
              <LatitudeDegrees>-49.2217394895851612091064453125</LatitudeDegrees>
              <LongitudeDegrees>-73.040008507668972015380859375</LongitudeDegrees>
            </Position>
            <AltitudeMeters>635</AltitudeMeters>
            <DistanceMeters>6892.3924736322</DistanceMeters>
          </Trackpoint>
          <Trackpoint>
            <Time>2023-01-11T17:23:54.000Z</Time>
            <Position>
              <LatitudeDegrees>-49.2217394895851612091064453125</LatitudeDegrees>
              <LongitudeDegrees>-73.04000909440219402313232421875</LongitudeDegrees>
            </Position>
            <AltitudeMeters>636.5999755859375</AltitudeMeters>
            <DistanceMeters>6892.3924736322</DistanceMeters>
          </Trackpoint>
          <Trackpoint>
            <Time>2023-01-11T17:23:55.000Z</Time>
            <Position>
              <LatitudeDegrees>-49.221738986670970916748046875</LatitudeDegrees>
              <LongitudeDegrees>-73.04000909440219402313232421875</LongitudeDegrees>
            </Position>
            <AltitudeMeters>638.4000244140625</AltitudeMeters>
            <DistanceMeters>6892.3924736322</DistanceMeters>
          </Trackpoint>
          <Trackpoint>
            <Time>2023-01-11T17:24:01.000Z</Time>
            <Position>
              <LatitudeDegrees>-49.221738316118717193603515625</LatitudeDegrees>
              <LongitudeDegrees>-73.04000909440219402313232421875</LongitudeDegrees>
            </Position>
            <AltitudeMeters>634.5999755859375</AltitudeMeters>
            <DistanceMeters>6892.3924736322</DistanceMeters>
          </Trackpoint>
          <Trackpoint>
            <Time>2023-01-11T17:24:02.000Z</Time>
            <Position>
              <LatitudeDegrees>-49.221738316118717193603515625</LatitudeDegrees>
              <LongitudeDegrees>-73.04000909440219402313232421875</LongitudeDegrees>
            </Position>
            <AltitudeMeters>635.79998779296875</AltitudeMeters>
            <DistanceMeters>6892.3924736322</DistanceMeters>
          </Trackpoint>
          <Trackpoint>
            <Time>2023-01-11T17:24:03.000Z</Time>
            <Position>
              <LatitudeDegrees>-49.221738316118717193603515625</LatitudeDegrees>
              <LongitudeDegrees>-73.04000859148800373077392578125</LongitudeDegrees>
            </Position>
            <AltitudeMeters>634.5999755859375</AltitudeMeters>
            <DistanceMeters>6892.3924736322</DistanceMeters>
          </Trackpoint>
          <Trackpoint>
            <Time>2023-01-11T17:24:07.000Z</Time>
            <Position>
              <LatitudeDegrees>-49.221717528998851776123046875</LatitudeDegrees>
              <LongitudeDegrees>-73.03999300114810466766357421875</LongitudeDegrees>
            </Position>
            <AltitudeMeters>632.4000244140625</AltitudeMeters>
            <DistanceMeters>6894.9669786545</DistanceMeters>
          </Trackpoint>
          <Trackpoint>
            <Time>2023-01-11T17:24:08.000Z</Time>
            <Position>
              <LatitudeDegrees>-49.221708811819553375244140625</LatitudeDegrees>
              <LongitudeDegrees>-73.0399848707020282745361328125</LongitudeDegrees>
            </Position>
            <AltitudeMeters>630.5999755859375</AltitudeMeters>
            <DistanceMeters>6896.107299227</DistanceMeters>
          </Trackpoint>
          <Trackpoint>
            <Time>2023-01-11T17:24:09.000Z</Time>
            <Position>
              <LatitudeDegrees>-49.2217005975544452667236328125</LatitudeDegrees>
              <LongitudeDegrees>-73.03998277522623538970947265625</LongitudeDegrees>
            </Position>
            <AltitudeMeters>631.79998779296875</AltitudeMeters>
            <DistanceMeters>6897.0335050692</DistanceMeters>
          </Trackpoint>
          <Trackpoint>
            <Time>2023-01-11T17:24:10.000Z</Time>
            <Position>
              <LatitudeDegrees>-49.22169439494609832763671875</LatitudeDegrees>
              <LongitudeDegrees>-73.03998160175979137420654296875</LongitudeDegrees>
            </Position>
            <AltitudeMeters>632.4000244140625</AltitudeMeters>
            <DistanceMeters>6897.7253099922</DistanceMeters>
          </Trackpoint>
          <Trackpoint>
            <Time>2023-01-11T17:24:11.000Z</Time>
            <Position>
              <LatitudeDegrees>-49.221686683595180511474609375</LatitudeDegrees>
              <LongitudeDegrees>-73.0399788357317447662353515625</LongitudeDegrees>
            </Position>
            <AltitudeMeters>632.4000244140625</AltitudeMeters>
            <DistanceMeters>6898.6065514882</DistanceMeters>
          </Trackpoint>
          <Trackpoint>
            <Time>2023-01-11T17:24:12.000Z</Time>
            <Position>
              <LatitudeDegrees>-49.22167696058750152587890625</LatitudeDegrees>
              <LongitudeDegrees>-73.03997606970369815826416015625</LongitudeDegrees>
            </Position>
            <AltitudeMeters>633.20001220703125</AltitudeMeters>
            <DistanceMeters>6899.7065652351</DistanceMeters>
          </Trackpoint>
          <Trackpoint>
            <Time>2023-01-11T17:24:14.000Z</Time>
            <Position>
              <LatitudeDegrees>-49.22165977768599987030029296875</LatitudeDegrees>
              <LongitudeDegrees>-73.03998537361621856689453125</LongitudeDegrees>
            </Position>
            <AltitudeMeters>634.4000244140625</AltitudeMeters>
            <DistanceMeters>6901.7357805659</DistanceMeters>
          </Trackpoint>
          <Trackpoint>
            <Time>2023-01-11T17:24:16.000Z</Time>
            <Position>
              <LatitudeDegrees>-49.2216452769935131072998046875</LatitudeDegrees>
              <LongitudeDegrees>-73.03999568335711956024169921875</LongitudeDegrees>
            </Position>
            <AltitudeMeters>634</AltitudeMeters>
            <DistanceMeters>6903.516105489</DistanceMeters>
          </Trackpoint>
          <Trackpoint>
            <Time>2023-01-11T17:24:17.000Z</Time>
            <Position>
              <LatitudeDegrees>-49.2216402478516101837158203125</LatitudeDegrees>
              <LongitudeDegrees>-73.0399996228516101837158203125</LongitudeDegrees>
            </Position>
            <AltitudeMeters>633.20001220703125</AltitudeMeters>
            <DistanceMeters>6904.1392373266</DistanceMeters>
          </Trackpoint>
          <Trackpoint>
            <Time>2023-01-11T17:24:18.000Z</Time>
            <Position>
              <LatitudeDegrees>-49.22163848765194416046142578125</LatitudeDegrees>
              <LongitudeDegrees>-73.0400012992322444915771484375</LongitudeDegrees>
            </Position>
            <AltitudeMeters>634.4000244140625</AltitudeMeters>
            <DistanceMeters>6904.3720042887</DistanceMeters>
          </Trackpoint>
          <Trackpoint>
            <Time>2023-01-11T17:24:21.000Z</Time>
            <Position>
              <LatitudeDegrees>-49.2216412536799907684326171875</LatitudeDegrees>
              <LongitudeDegrees>-73.03999878466129302978515625</LongitudeDegrees>
            </Position>
            <AltitudeMeters>632.5999755859375</AltitudeMeters>
            <DistanceMeters>6904.7275616965</DistanceMeters>
          </Trackpoint>
          <Trackpoint>
            <Time>2023-01-11T17:24:24.000Z</Time>
            <Position>
              <LatitudeDegrees>-49.2216368950903415679931640625</LatitudeDegrees>
              <LongitudeDegrees>-73.0399798415601253509521484375</LongitudeDegrees>
            </Position>
            <AltitudeMeters>631</AltitudeMeters>
            <DistanceMeters>6906.1873897825</DistanceMeters>
          </Trackpoint>
          <Trackpoint>
            <Time>2023-01-11T17:24:31.000Z</Time>
            <Position>
              <LatitudeDegrees>-49.22159691341221332550048828125</LatitudeDegrees>
              <LongitudeDegrees>-73.0399147979915142059326171875</LongitudeDegrees>
            </Position>
            <AltitudeMeters>631</AltitudeMeters>
            <DistanceMeters>6912.6798775061</DistanceMeters>
          </Trackpoint>
          <Trackpoint>
            <Time>2023-01-11T17:24:33.000Z</Time>
            <Position>
              <LatitudeDegrees>-49.22158216126263141632080078125</LatitudeDegrees>
              <LongitudeDegrees>-73.0399020574986934661865234375</LongitudeDegrees>
            </Position>
            <AltitudeMeters>631</AltitudeMeters>
            <DistanceMeters>6914.56370872</DistanceMeters>
          </Trackpoint>
          <Trackpoint>
            <Time>2023-01-11T17:24:42.000Z</Time>
            <Position>
              <LatitudeDegrees>-49.22154427506029605865478515625</LatitudeDegrees>
              <LongitudeDegrees>-73.03988252766430377960205078125</LongitudeDegrees>
            </Position>
            <AltitudeMeters>630.79998779296875</AltitudeMeters>
            <DistanceMeters>6919.0127454208</DistanceMeters>
          </Trackpoint>
          <Trackpoint>
            <Time>2023-01-11T17:24:47.000Z</Time>
            <Position>
              <LatitudeDegrees>-49.22151912935078144073486328125</LatitudeDegrees>
              <LongitudeDegrees>-73.03982988931238651275634765625</LongitudeDegrees>
            </Position>
            <AltitudeMeters>630.5999755859375</AltitudeMeters>
            <DistanceMeters>6923.7545689461</DistanceMeters>
          </Trackpoint>
          <Trackpoint>
            <Time>2023-01-11T17:24:49.000Z</Time>
            <Position>
              <LatitudeDegrees>-49.221507646143436431884765625</LatitudeDegrees>
              <LongitudeDegrees>-73.03980323486030101776123046875</LongitudeDegrees>
            </Position>
            <AltitudeMeters>629.79998779296875</AltitudeMeters>
            <DistanceMeters>6926.0783558799</DistanceMeters>
          </Trackpoint>
          <Trackpoint>
            <Time>2023-01-11T17:24:52.000Z</Time>
            <Position>
              <LatitudeDegrees>-49.22148576937615871429443359375</LatitudeDegrees>
              <LongitudeDegrees>-73.03979091346263885498046875</LongitudeDegrees>
            </Position>
            <AltitudeMeters>630</AltitudeMeters>
            <DistanceMeters>6928.6738205834</DistanceMeters>
          </Trackpoint>
          <Trackpoint>
            <Time>2023-01-11T17:24:53.000Z</Time>
            <Position>
              <LatitudeDegrees>-49.2214759625494480133056640625</LatitudeDegrees>
              <LongitudeDegrees>-73.03978764452040195465087890625</LongitudeDegrees>
            </Position>
            <AltitudeMeters>630.20001220703125</AltitudeMeters>
            <DistanceMeters>6929.790131718</DistanceMeters>
          </Trackpoint>
          <Trackpoint>
            <Time>2023-01-11T17:24:54.000Z</Time>
            <Position>
              <LatitudeDegrees>-49.22146514989435672760009765625</LatitudeDegrees>
              <LongitudeDegrees>-73.03978286683559417724609375</LongitudeDegrees>
            </Position>
            <AltitudeMeters>630.20001220703125</AltitudeMeters>
            <DistanceMeters>6931.0436201708</DistanceMeters>
          </Trackpoint>
          <Trackpoint>
            <Time>2023-01-11T17:24:56.000Z</Time>
            <Position>
              <LatitudeDegrees>-49.22144436277449131011962890625</LatitudeDegrees>
              <LongitudeDegrees>-73.03977037779986858367919921875</LongitudeDegrees>
            </Position>
            <AltitudeMeters>630.20001220703125</AltitudeMeters>
            <DistanceMeters>6933.5288912401</DistanceMeters>
          </Trackpoint>
          <Trackpoint>
            <Time>2023-01-11T17:24:57.000Z</Time>
            <Position>
              <LatitudeDegrees>-49.2214367352426052093505859375</LatitudeDegrees>
              <LongitudeDegrees>-73.03976048715412616729736328125</LongitudeDegrees>
            </Position>
            <AltitudeMeters>630.4000244140625</AltitudeMeters>
            <DistanceMeters>6934.6411504153</DistanceMeters>
          </Trackpoint>
          <Trackpoint>
            <Time>2023-01-11T17:25:01.000Z</Time>
            <Position>
              <LatitudeDegrees>-49.2214048840105533599853515625</LatitudeDegrees>
              <LongitudeDegrees>-73.03975830785930156707763671875</LongitudeDegrees>
            </Position>
            <AltitudeMeters>631</AltitudeMeters>
            <DistanceMeters>6938.1890972247</DistanceMeters>
          </Trackpoint>
          <Trackpoint>
            <Time>2023-01-11T17:25:03.000Z</Time>
            <Position>
              <LatitudeDegrees>-49.22140329144895076751708984375</LatitudeDegrees>
              <LongitudeDegrees>-73.0397531948983669281005859375</LongitudeDegrees>
            </Position>
            <AltitudeMeters>632.4000244140625</AltitudeMeters>
            <DistanceMeters>6938.6033090696</DistanceMeters>
          </Trackpoint>
          <Trackpoint>
            <Time>2023-01-11T17:25:04.000Z</Time>
            <Position>
              <LatitudeDegrees>-49.2213986814022064208984375</LatitudeDegrees>
              <LongitudeDegrees>-73.039751015603542327880859375</LongitudeDegrees>
            </Position>
            <AltitudeMeters>633.5999755859375</AltitudeMeters>
            <DistanceMeters>6939.1408613426</DistanceMeters>
          </Trackpoint>
          <Trackpoint>
            <Time>2023-01-11T17:25:06.000Z</Time>
            <Position>
              <LatitudeDegrees>-49.22138686291873455047607421875</LatitudeDegrees>
              <LongitudeDegrees>-73.039746992290019989013671875</LongitudeDegrees>
            </Position>
            <AltitudeMeters>628.79998779296875</AltitudeMeters>
            <DistanceMeters>6940.4914447135</DistanceMeters>
          </Trackpoint>
          <Trackpoint>
            <Time>2023-01-11T17:25:07.000Z</Time>
            <Position>
              <LatitudeDegrees>-49.22137965448200702667236328125</LatitudeDegrees>
              <LongitudeDegrees>-73.0397481657564640045166015625</LongitudeDegrees>
            </Position>
            <AltitudeMeters>627.5999755859375</AltitudeMeters>
            <DistanceMeters>6941.303353317</DistanceMeters>
          </Trackpoint>
          <Trackpoint>
            <Time>2023-01-11T17:25:10.000Z</Time>
            <Position>
              <LatitudeDegrees>-49.221384264528751373291015625</LatitudeDegrees>
              <LongitudeDegrees>-73.03975461982190608978271484375</LongitudeDegrees>
            </Position>
            <AltitudeMeters>635.20001220703125</AltitudeMeters>
            <DistanceMeters>6942.0016542034</DistanceMeters>
          </Trackpoint>
          <Trackpoint>
            <Time>2023-01-11T17:25:11.000Z</Time>
            <Position>
              <LatitudeDegrees>-49.22138652764260768890380859375</LatitudeDegrees>
              <LongitudeDegrees>-73.0397548712790012359619140625</LongitudeDegrees>
            </Position>
            <AltitudeMeters>635.20001220703125</AltitudeMeters>
            <DistanceMeters>6942.2704303399</DistanceMeters>
          </Trackpoint>
          <Trackpoint>
            <Time>2023-01-11T17:25:18.000Z</Time>
            <Position>
              <LatitudeDegrees>-49.221403039991855621337890625</LatitudeDegrees>
              <LongitudeDegrees>-73.03974841721355915069580078125</LongitudeDegrees>
            </Position>
            <AltitudeMeters>629</AltitudeMeters>
            <DistanceMeters>6944.1662073375</DistanceMeters>
          </Trackpoint>
          <Trackpoint>
            <Time>2023-01-11T17:25:19.000Z</Time>
            <Position>
              <LatitudeDegrees>-49.22140362672507762908935546875</LatitudeDegrees>
              <LongitudeDegrees>-73.03975059650838375091552734375</LongitudeDegrees>
            </Position>
            <AltitudeMeters>627.4000244140625</AltitudeMeters>
            <DistanceMeters>6944.3562607662</DistanceMeters>
          </Trackpoint>
          <Trackpoint>
            <Time>2023-01-11T17:25:20.000Z</Time>
            <Position>
              <LatitudeDegrees>-49.22140127979218959808349609375</LatitudeDegrees>
              <LongitudeDegrees>-73.03975109942257404327392578125</LongitudeDegrees>
            </Position>
            <AltitudeMeters>627.4000244140625</AltitudeMeters>
            <DistanceMeters>6944.6250369027</DistanceMeters>
          </Trackpoint>
          <Trackpoint>
            <Time>2023-01-11T17:25:22.000Z</Time>
            <Position>
              <LatitudeDegrees>-49.22138837166130542755126953125</LatitudeDegrees>
              <LongitudeDegrees>-73.03974154405295848846435546875</LongitudeDegrees>
            </Position>
            <AltitudeMeters>627.4000244140625</AltitudeMeters>
            <DistanceMeters>6946.2208067976</DistanceMeters>
          </Trackpoint>
          <Trackpoint>
            <Time>2023-01-11T17:25:23.000Z</Time>
            <Position>
              <LatitudeDegrees>-49.22138250432908535003662109375</LatitudeDegrees>
              <LongitudeDegrees>-73.0397337488830089569091796875</LongitudeDegrees>
            </Position>
            <AltitudeMeters>627.4000244140625</AltitudeMeters>
            <DistanceMeters>6947.0813102946</DistanceMeters>
          </Trackpoint>
          <Trackpoint>
            <Time>2023-01-11T17:25:27.000Z</Time>
            <Position>
              <LatitudeDegrees>-49.22137781046330928802490234375</LatitudeDegrees>
              <LongitudeDegrees>-73.03972461260855197906494140625</LongitudeDegrees>
            </Position>
            <AltitudeMeters>635</AltitudeMeters>
            <DistanceMeters>6947.9259262067</DistanceMeters>
          </Trackpoint>
          <Trackpoint>
            <Time>2023-01-11T17:25:28.000Z</Time>
            <Position>
              <LatitudeDegrees>-49.2213800735771656036376953125</LatitudeDegrees>
              <LongitudeDegrees>-73.039717487990856170654296875</LongitudeDegrees>
            </Position>
            <AltitudeMeters>635</AltitudeMeters>
            <DistanceMeters>6948.496086493</DistanceMeters>
          </Trackpoint>
          <Trackpoint>
            <Time>2023-01-11T17:25:29.000Z</Time>
            <Position>
              <LatitudeDegrees>-49.2213800735771656036376953125</LatitudeDegrees>
              <LongitudeDegrees>-73.039717487990856170654296875</LongitudeDegrees>
            </Position>
            <AltitudeMeters>636</AltitudeMeters>
            <DistanceMeters>6948.496086493</DistanceMeters>
          </Trackpoint>
          <Trackpoint>
            <Time>2023-01-11T17:25:45.000Z</Time>
            <Position>
              <LatitudeDegrees>-49.22137848101556301116943359375</LatitudeDegrees>
              <LongitudeDegrees>-73.039717487990856170654296875</LongitudeDegrees>
            </Position>
            <AltitudeMeters>626.4000244140625</AltitudeMeters>
            <DistanceMeters>6948.6304745612</DistanceMeters>
          </Trackpoint>
          <Trackpoint>
            <Time>2023-01-11T17:25:52.000Z</Time>
            <Position>
              <LatitudeDegrees>-49.221372865140438079833984375</LatitudeDegrees>
              <LongitudeDegrees>-73.0397109501063823699951171875</LongitudeDegrees>
            </Position>
            <AltitudeMeters>628.20001220703125</AltitudeMeters>
            <DistanceMeters>6949.4140849224</DistanceMeters>
          </Trackpoint>
          <Trackpoint>
            <Time>2023-01-11T17:25:56.000Z</Time>
            <Position>
              <LatitudeDegrees>-49.2213576100766658782958984375</LatitudeDegrees>
              <LongitudeDegrees>-73.0396821163594722747802734375</LongitudeDegrees>
            </Position>
            <AltitudeMeters>625</AltitudeMeters>
            <DistanceMeters>6952.1119065647</DistanceMeters>
          </Trackpoint>
          <Trackpoint>
            <Time>2023-01-11T17:25:58.000Z</Time>
            <Position>
              <LatitudeDegrees>-49.22135509550571441650390625</LatitudeDegrees>
              <LongitudeDegrees>-73.03966510109603404998779296875</LongitudeDegrees>
            </Position>
            <AltitudeMeters>623.20001220703125</AltitudeMeters>
            <DistanceMeters>6953.379721065</DistanceMeters>
          </Trackpoint>
          <Trackpoint>
            <Time>2023-01-11T17:26:03.000Z</Time>
            <Position>
              <LatitudeDegrees>-49.22134813852608203887939453125</LatitudeDegrees>
              <LongitudeDegrees>-73.0396345071494579315185546875</LongitudeDegrees>
            </Position>
            <AltitudeMeters>624.5999755859375</AltitudeMeters>
            <DistanceMeters>6955.7343902427</DistanceMeters>
          </Trackpoint>
          <Trackpoint>
            <Time>2023-01-11T17:26:06.000Z</Time>
            <Position>
              <LatitudeDegrees>-49.2213450372219085693359375</LatitudeDegrees>
              <LongitudeDegrees>-73.0396197549998760223388671875</LongitudeDegrees>
            </Position>
            <AltitudeMeters>627</AltitudeMeters>
            <DistanceMeters>6956.8587614902</DistanceMeters>
          </Trackpoint>
          <Trackpoint>
            <Time>2023-01-11T17:26:14.000Z</Time>
            <Position>
              <LatitudeDegrees>-49.22130203805863857269287109375</LatitudeDegrees>
              <LongitudeDegrees>-73.0395872332155704498291015625</LongitudeDegrees>
            </Position>
            <AltitudeMeters>633</AltitudeMeters>
            <DistanceMeters>6962.1963537546</DistanceMeters>
          </Trackpoint>
          <Trackpoint>
            <Time>2023-01-11T17:26:17.000Z</Time>
            <Position>
              <LatitudeDegrees>-49.2212887108325958251953125</LatitudeDegrees>
              <LongitudeDegrees>-73.03957323543727397918701171875</LongitudeDegrees>
            </Position>
            <AltitudeMeters>630.79998779296875</AltitudeMeters>
            <DistanceMeters>6963.9943435674</DistanceMeters>
          </Trackpoint>
          <Trackpoint>
            <Time>2023-01-11T17:26:18.000Z</Time>
            <Position>
              <LatitudeDegrees>-49.22128644771873950958251953125</LatitudeDegrees>
              <LongitudeDegrees>-73.03956686519086360931396484375</LongitudeDegrees>
            </Position>
            <AltitudeMeters>629.5999755859375</AltitudeMeters>
            <DistanceMeters>6964.5318958404</DistanceMeters>
          </Trackpoint>
          <Trackpoint>
            <Time>2023-01-11T17:26:19.000Z</Time>
            <Position>
              <LatitudeDegrees>-49.221280999481678009033203125</LatitudeDegrees>
              <LongitudeDegrees>-73.039561249315738677978515625</LongitudeDegrees>
            </Position>
            <AltitudeMeters>627.79998779296875</AltitudeMeters>
            <DistanceMeters>6965.2618098834</DistanceMeters>
          </Trackpoint>
          <Trackpoint>
            <Time>2023-01-11T17:26:25.000Z</Time>
            <Position>
              <LatitudeDegrees>-49.22127337194979190826416015625</LatitudeDegrees>
              <LongitudeDegrees>-73.03953367285430431365966796875</LongitudeDegrees>
            </Position>
            <AltitudeMeters>626.5999755859375</AltitudeMeters>
            <DistanceMeters>6967.4391454416</DistanceMeters>
          </Trackpoint>
          <Trackpoint>
            <Time>2023-01-11T17:26:27.000Z</Time>
            <Position>
              <LatitudeDegrees>-49.22128158621490001678466796875</LatitudeDegrees>
              <LongitudeDegrees>-73.039499223232269287109375</LongitudeDegrees>
            </Position>
            <AltitudeMeters>625.20001220703125</AltitudeMeters>
            <DistanceMeters>6970.1066724308</DistanceMeters>
          </Trackpoint>
          <Trackpoint>
            <Time>2023-01-11T17:26:30.000Z</Time>
            <Position>
              <LatitudeDegrees>-49.221289046108722686767578125</LatitudeDegrees>
              <LongitudeDegrees>-73.039439208805561065673828125</LongitudeDegrees>
            </Position>
            <AltitudeMeters>625</AltitudeMeters>
            <DistanceMeters>6974.549615949</DistanceMeters>
          </Trackpoint>
          <Trackpoint>
            <Time>2023-01-11T17:26:33.000Z</Time>
            <Position>
              <LatitudeDegrees>-49.22129147686064243316650390625</LatitudeDegrees>
              <LongitudeDegrees>-73.03937114775180816650390625</LongitudeDegrees>
            </Position>
            <AltitudeMeters>624</AltitudeMeters>
            <DistanceMeters>6979.5056030281</DistanceMeters>
          </Trackpoint>
          <Trackpoint>
            <Time>2023-01-11T17:26:34.000Z</Time>
            <Position>
              <LatitudeDegrees>-49.2212918959558010101318359375</LatitudeDegrees>
              <LongitudeDegrees>-73.03934742696583271026611328125</LongitudeDegrees>
            </Position>
            <AltitudeMeters>623.5999755859375</AltitudeMeters>
            <DistanceMeters>6981.2318490205</DistanceMeters>
          </Trackpoint>
          <Trackpoint>
            <Time>2023-01-11T17:26:36.000Z</Time>
            <Position>
              <LatitudeDegrees>-49.22129985876381397247314453125</LatitudeDegrees>
              <LongitudeDegrees>-73.03932127542793750762939453125</LongitudeDegrees>
            </Position>
            <AltitudeMeters>623.5999755859375</AltitudeMeters>
            <DistanceMeters>6983.3289058219</DistanceMeters>
          </Trackpoint>
          <Trackpoint>
            <Time>2023-01-11T17:26:37.000Z</Time>
            <Position>
              <LatitudeDegrees>-49.2213059775531291961669921875</LatitudeDegrees>
              <LongitudeDegrees>-73.03930987603962421417236328125</LongitudeDegrees>
            </Position>
            <AltitudeMeters>623.5999755859375</AltitudeMeters>
            <DistanceMeters>6984.4040103679</DistanceMeters>
          </Trackpoint>
          <Trackpoint>
            <Time>2023-01-11T17:26:48.000Z</Time>
            <Position>
              <LatitudeDegrees>-49.22133187763392925262451171875</LatitudeDegrees>
              <LongitudeDegrees>-73.03918850608170032501220703125</LongitudeDegrees>
            </Position>
            <AltitudeMeters>624.79998779296875</AltitudeMeters>
            <DistanceMeters>6993.6865202348</DistanceMeters>
          </Trackpoint>
          <Trackpoint>
            <Time>2023-01-11T17:26:50.000Z</Time>
            <Position>
              <LatitudeDegrees>-49.22132332809269428253173828125</LatitudeDegrees>
              <LongitudeDegrees>-73.0391614325344562530517578125</LongitudeDegrees>
            </Position>
            <AltitudeMeters>624.5999755859375</AltitudeMeters>
            <DistanceMeters>6995.874199488</DistanceMeters>
          </Trackpoint>
          <Trackpoint>
            <Time>2023-01-11T17:26:56.000Z</Time>
            <Position>
              <LatitudeDegrees>-49.22132165171205997467041015625</LatitudeDegrees>
              <LongitudeDegrees>-73.03906244225800037384033203125</LongitudeDegrees>
            </Position>
            <AltitudeMeters>623.79998779296875</AltitudeMeters>
            <DistanceMeters>7003.0730611142</DistanceMeters>
          </Trackpoint>
          <Trackpoint>
            <Time>2023-01-11T17:27:03.000Z</Time>
            <Position>
              <LatitudeDegrees>-49.221326597034931182861328125</LatitudeDegrees>
              <LongitudeDegrees>-73.038956411182880401611328125</LongitudeDegrees>
            </Position>
            <AltitudeMeters>622.5999755859375</AltitudeMeters>
            <DistanceMeters>7010.8012514327</DistanceMeters>
          </Trackpoint>
          <Trackpoint>
            <Time>2023-01-11T17:27:07.000Z</Time>
            <Position>
              <LatitudeDegrees>-49.22131796367466449737548828125</LatitudeDegrees>
              <LongitudeDegrees>-73.038914501667022705078125</LongitudeDegrees>
            </Position>
            <AltitudeMeters>623</AltitudeMeters>
            <DistanceMeters>7013.9956193486</DistanceMeters>
          </Trackpoint>
          <Trackpoint>
            <Time>2023-01-11T17:27:12.000Z</Time>
            <Position>
              <LatitudeDegrees>-49.22132282517850399017333984375</LatitudeDegrees>
              <LongitudeDegrees>-73.0388938821852207183837890625</LongitudeDegrees>
            </Position>
            <AltitudeMeters>623.5999755859375</AltitudeMeters>
            <DistanceMeters>7015.5857204159</DistanceMeters>
          </Trackpoint>
          <Trackpoint>
            <Time>2023-01-11T17:27:17.000Z</Time>
            <Position>
              <LatitudeDegrees>-49.2213291116058826446533203125</LatitudeDegrees>
              <LongitudeDegrees>-73.03881953470408916473388671875</LongitudeDegrees>
            </Position>
            <AltitudeMeters>624.5999755859375</AltitudeMeters>
            <DistanceMeters>7021.0346552978</DistanceMeters>
          </Trackpoint>
          <Trackpoint>
            <Time>2023-01-11T17:27:19.000Z</Time>
            <Position>
              <LatitudeDegrees>-49.22133573330938816070556640625</LatitudeDegrees>
              <LongitudeDegrees>-73.03879438899457454681396484375</LongitudeDegrees>
            </Position>
            <AltitudeMeters>626</AltitudeMeters>
            <DistanceMeters>7023.0051711874</DistanceMeters>
          </Trackpoint>
          <Trackpoint>
            <Time>2023-01-11T17:27:21.000Z</Time>
            <Position>
              <LatitudeDegrees>-49.2213411815464496612548828125</LatitudeDegrees>
              <LongitudeDegrees>-73.03877075202763080596923828125</LongitudeDegrees>
            </Position>
            <AltitudeMeters>626.5999755859375</AltitudeMeters>
            <DistanceMeters>7024.8280996367</DistanceMeters>
          </Trackpoint>
          <Trackpoint>
            <Time>2023-01-11T17:27:24.000Z</Time>
            <Position>
              <LatitudeDegrees>-49.221358112990856170654296875</LatitudeDegrees>
              <LongitudeDegrees>-73.0387406609952449798583984375</LongitudeDegrees>
            </Position>
            <AltitudeMeters>627.20001220703125</AltitudeMeters>
            <DistanceMeters>7027.7135338296</DistanceMeters>
          </Trackpoint>
          <Trackpoint>
            <Time>2023-01-11T17:27:28.000Z</Time>
            <Position>
              <LatitudeDegrees>-49.22136909328401088714599609375</LatitudeDegrees>
              <LongitudeDegrees>-73.03869212977588176727294921875</LongitudeDegrees>
            </Position>
            <AltitudeMeters>628</AltitudeMeters>
            <DistanceMeters>7031.4474912516</DistanceMeters>
          </Trackpoint>
          <Trackpoint>
            <Time>2023-01-11T17:27:29.000Z</Time>
            <Position>
              <LatitudeDegrees>-49.2213706858456134796142578125</LatitudeDegrees>
              <LongitudeDegrees>-73.03868106566369533538818359375</LongitudeDegrees>
            </Position>
            <AltitudeMeters>630.4000244140625</AltitudeMeters>
            <DistanceMeters>7032.2759149413</DistanceMeters>
          </Trackpoint>
          <Trackpoint>
            <Time>2023-01-11T17:27:37.000Z</Time>
            <Position>
              <LatitudeDegrees>-49.22137864865362644195556640625</LatitudeDegrees>
              <LongitudeDegrees>-73.0385760404169559478759765625</LongitudeDegrees>
            </Position>
            <AltitudeMeters>631</AltitudeMeters>
            <DistanceMeters>7039.9619256164</DistanceMeters>
          </Trackpoint>
          <Trackpoint>
            <Time>2023-01-11T17:27:39.000Z</Time>
            <Position>
              <LatitudeDegrees>-49.22139264643192291259765625</LatitudeDegrees>
              <LongitudeDegrees>-73.0385458655655384063720703125</LongitudeDegrees>
            </Position>
            <AltitudeMeters>631.79998779296875</AltitudeMeters>
            <DistanceMeters>7042.6530445859</DistanceMeters>
          </Trackpoint>
          <Trackpoint>
            <Time>2023-01-11T17:27:42.000Z</Time>
            <Position>
              <LatitudeDegrees>-49.22140832059085369110107421875</LatitudeDegrees>
              <LongitudeDegrees>-73.03850621916353702545166015625</LongitudeDegrees>
            </Position>
            <AltitudeMeters>635</AltitudeMeters>
            <DistanceMeters>7046.0207999234</DistanceMeters>
          </Trackpoint>
          <Trackpoint>
            <Time>2023-01-11T17:27:45.000Z</Time>
            <Position>
              <LatitudeDegrees>-49.22142776660621166229248046875</LatitudeDegrees>
              <LongitudeDegrees>-73.03846162743866443634033203125</LongitudeDegrees>
            </Position>
            <AltitudeMeters>637.20001220703125</AltitudeMeters>
            <DistanceMeters>7049.9180539027</DistanceMeters>
          </Trackpoint>
          <Trackpoint>
            <Time>2023-01-11T17:27:46.000Z</Time>
            <Position>
              <LatitudeDegrees>-49.22143178991973400115966796875</LatitudeDegrees>
              <LongitudeDegrees>-73.0384491384029388427734375</LongitudeDegrees>
            </Position>
            <AltitudeMeters>637.4000244140625</AltitudeMeters>
            <DistanceMeters>7050.932661568</DistanceMeters>
          </Trackpoint>
          <Trackpoint>
            <Time>2023-01-11T17:27:54.000Z</Time>
            <Position>
              <LatitudeDegrees>-49.22146514989435672760009765625</LatitudeDegrees>
              <LongitudeDegrees>-73.038336150348186492919921875</LongitudeDegrees>
            </Position>
            <AltitudeMeters>638.20001220703125</AltitudeMeters>
            <DistanceMeters>7059.946685522</DistanceMeters>
          </Trackpoint>
          <Trackpoint>
            <Time>2023-01-11T17:27:55.000Z</Time>
            <Position>
              <LatitudeDegrees>-49.22146917320787906646728515625</LatitudeDegrees>
              <LongitudeDegrees>-73.0383202247321605682373046875</LongitudeDegrees>
            </Position>
            <AltitudeMeters>638.4000244140625</AltitudeMeters>
            <DistanceMeters>7061.1856822917</DistanceMeters>
          </Trackpoint>
          <Trackpoint>
            <Time>2023-01-11T17:28:00.000Z</Time>
            <Position>
              <LatitudeDegrees>-49.22148224897682666778564453125</LatitudeDegrees>
              <LongitudeDegrees>-73.03830354474484920501708984375</LongitudeDegrees>
            </Position>
            <AltitudeMeters>638</AltitudeMeters>
            <DistanceMeters>7063.0790761621</DistanceMeters>
          </Trackpoint>
          <Trackpoint>
            <Time>2023-01-11T17:28:06.000Z</Time>
            <Position>
              <LatitudeDegrees>-49.2214806564152240753173828125</LatitudeDegrees>
              <LongitudeDegrees>-73.03824688307940959930419921875</LongitudeDegrees>
            </Position>
            <AltitudeMeters>638</AltitudeMeters>
            <DistanceMeters>7067.2015273586</DistanceMeters>
          </Trackpoint>
          <Trackpoint>
            <Time>2023-01-11T17:28:13.000Z</Time>
            <Position>
              <LatitudeDegrees>-49.22152332030236721038818359375</LatitudeDegrees>
              <LongitudeDegrees>-73.038148395717144012451171875</LongitudeDegrees>
            </Position>
            <AltitudeMeters>635.5999755859375</AltitudeMeters>
            <DistanceMeters>7075.7929093692</DistanceMeters>
          </Trackpoint>
          <Trackpoint>
            <Time>2023-01-11T17:28:16.000Z</Time>
            <Position>
              <LatitudeDegrees>-49.221536479890346527099609375</LatitudeDegrees>
              <LongitudeDegrees>-73.0381351523101329803466796875</LongitudeDegrees>
            </Position>
            <AltitudeMeters>634.20001220703125</AltitudeMeters>
            <DistanceMeters>7077.5476902864</DistanceMeters>
          </Trackpoint>
          <Trackpoint>
            <Time>2023-01-11T17:28:18.000Z</Time>
            <Position>
              <LatitudeDegrees>-49.221549220383167266845703125</LatitudeDegrees>
              <LongitudeDegrees>-73.0381267704069614410400390625</LongitudeDegrees>
            </Position>
            <AltitudeMeters>633</AltitudeMeters>
            <DistanceMeters>7079.0916916405</DistanceMeters>
          </Trackpoint>
          <Trackpoint>
            <Time>2023-01-11T17:28:19.000Z</Time>
            <Position>
              <LatitudeDegrees>-49.2215550877153873443603515625</LatitudeDegrees>
              <LongitudeDegrees>-73.03812366910278797149658203125</LongitudeDegrees>
            </Position>
            <AltitudeMeters>631.5999755859375</AltitudeMeters>
            <DistanceMeters>7079.7834965635</DistanceMeters>
          </Trackpoint>
          <Trackpoint>
            <Time>2023-01-11T17:28:20.000Z</Time>
            <Position>
              <LatitudeDegrees>-49.22155969776213169097900390625</LatitudeDegrees>
              <LongitudeDegrees>-73.03811721503734588623046875</LongitudeDegrees>
            </Position>
            <AltitudeMeters>630.4000244140625</AltitudeMeters>
            <DistanceMeters>7080.4817974499</DistanceMeters>
          </Trackpoint>
          <Trackpoint>
            <Time>2023-01-11T17:28:24.000Z</Time>
            <Position>
              <LatitudeDegrees>-49.2215701751410961151123046875</LatitudeDegrees>
              <LongitudeDegrees>-73.03808905184268951416015625</LongitudeDegrees>
            </Position>
            <AltitudeMeters>629</AltitudeMeters>
            <DistanceMeters>7082.8364666276</DistanceMeters>
          </Trackpoint>
          <Trackpoint>
            <Time>2023-01-11T17:28:27.000Z</Time>
            <Position>
              <LatitudeDegrees>-49.2215674929320812225341796875</LatitudeDegrees>
              <LongitudeDegrees>-73.038053847849369049072265625</LongitudeDegrees>
            </Position>
            <AltitudeMeters>628</AltitudeMeters>
            <DistanceMeters>7085.412724803</DistanceMeters>
          </Trackpoint>
          <Trackpoint>
            <Time>2023-01-11T17:28:28.000Z</Time>
            <Position>
              <LatitudeDegrees>-49.22156908549368381500244140625</LatitudeDegrees>
              <LongitudeDegrees>-73.03803331218659877777099609375</LongitudeDegrees>
            </Position>
            <AltitudeMeters>627.5999755859375</AltitudeMeters>
            <DistanceMeters>7086.9152290829</DistanceMeters>
          </Trackpoint>
          <Trackpoint>
            <Time>2023-01-11T17:28:31.000Z</Time>
            <Position>
              <LatitudeDegrees>-49.22158232890069484710693359375</LatitudeDegrees>
              <LongitudeDegrees>-73.03798754699528217315673828125</LongitudeDegrees>
            </Position>
            <AltitudeMeters>626.20001220703125</AltitudeMeters>
            <DistanceMeters>7090.5548887021</DistanceMeters>
          </Trackpoint>
          <Trackpoint>
            <Time>2023-01-11T17:28:34.000Z</Time>
            <Position>
              <LatitudeDegrees>-49.2215980030596256256103515625</LatitudeDegrees>
              <LongitudeDegrees>-73.03796022199094295501708984375</LongitudeDegrees>
            </Position>
            <AltitudeMeters>625.20001220703125</AltitudeMeters>
            <DistanceMeters>7093.1986131899</DistanceMeters>
          </Trackpoint>
          <Trackpoint>
            <Time>2023-01-11T17:28:35.000Z</Time>
            <Position>
              <LatitudeDegrees>-49.22160395421087741851806640625</LatitudeDegrees>
              <LongitudeDegrees>-73.03794689476490020751953125</LongitudeDegrees>
            </Position>
            <AltitudeMeters>624.79998779296875</AltitudeMeters>
            <DistanceMeters>7094.3701812073</DistanceMeters>
          </Trackpoint>
          <Trackpoint>
            <Time>2023-01-11T17:28:39.000Z</Time>
            <Position>
              <LatitudeDegrees>-49.2216164432466030120849609375</LatitudeDegrees>
              <LongitudeDegrees>-73.03788796998560428619384765625</LongitudeDegrees>
            </Position>
            <AltitudeMeters>623.20001220703125</AltitudeMeters>
            <DistanceMeters>7098.8736855865</DistanceMeters>
          </Trackpoint>
          <Trackpoint>
            <Time>2023-01-11T17:28:41.000Z</Time>
            <Position>
              <LatitudeDegrees>-49.22161669470369815826416015625</LatitudeDegrees>
              <LongitudeDegrees>-73.03786114789545536041259765625</LongitudeDegrees>
            </Position>
            <AltitudeMeters>623.20001220703125</AltitudeMeters>
            <DistanceMeters>7100.8257850356</DistanceMeters>
          </Trackpoint>
          <Trackpoint>
            <Time>2023-01-11T17:28:42.000Z</Time>
            <Position>
              <LatitudeDegrees>-49.22161334194242954254150390625</LatitudeDegrees>
              <LongitudeDegrees>-73.03784471936523914337158203125</LongitudeDegrees>
            </Position>
            <AltitudeMeters>623</AltitudeMeters>
            <DistanceMeters>7102.0792734884</DistanceMeters>
          </Trackpoint>
          <Trackpoint>
            <Time>2023-01-11T17:28:45.000Z</Time>
            <Position>
              <LatitudeDegrees>-49.221611581742763519287109375</LatitudeDegrees>
              <LongitudeDegrees>-73.03780280984938144683837890625</LongitudeDegrees>
            </Position>
            <AltitudeMeters>622</AltitudeMeters>
            <DistanceMeters>7105.1319835779</DistanceMeters>
          </Trackpoint>
          <Trackpoint>
            <Time>2023-01-11T17:28:46.000Z</Time>
            <Position>
              <LatitudeDegrees>-49.22161015681922435760498046875</LatitudeDegrees>
              <LongitudeDegrees>-73.03779224865138530731201171875</LongitudeDegrees>
            </Position>
            <AltitudeMeters>621.5999755859375</AltitudeMeters>
            <DistanceMeters>7105.9155939391</DistanceMeters>
          </Trackpoint>
          <Trackpoint>
            <Time>2023-01-11T17:28:49.000Z</Time>
            <Position>
              <LatitudeDegrees>-49.22160998918116092681884765625</LatitudeDegrees>
              <LongitudeDegrees>-73.03776542656123638153076171875</LongitudeDegrees>
            </Position>
            <AltitudeMeters>620.79998779296875</AltitudeMeters>
            <DistanceMeters>7107.8653791023</DistanceMeters>
          </Trackpoint>
          <Trackpoint>
            <Time>2023-01-11T17:28:56.000Z</Time>
            <Position>
              <LatitudeDegrees>-49.221621640026569366455078125</LatitudeDegrees>
              <LongitudeDegrees>-73.0377301387488842010498046875</LongitudeDegrees>
            </Position>
            <AltitudeMeters>620</AltitudeMeters>
            <DistanceMeters>7110.7398390422</DistanceMeters>
          </Trackpoint>
          <Trackpoint>
            <Time>2023-01-11T17:28:59.000Z</Time>
            <Position>
              <LatitudeDegrees>-49.2216258309781551361083984375</LatitudeDegrees>
              <LongitudeDegrees>-73.03770893253386020660400390625</LongitudeDegrees>
            </Position>
            <AltitudeMeters>619.5999755859375</AltitudeMeters>
            <DistanceMeters>7112.3524958612</DistanceMeters>
          </Trackpoint>
          <Trackpoint>
            <Time>2023-01-11T17:29:04.000Z</Time>
            <Position>
              <LatitudeDegrees>-49.22163806855678558349609375</LatitudeDegrees>
              <LongitudeDegrees>-73.03766031749546527862548828125</LongitudeDegrees>
            </Position>
            <AltitudeMeters>618.5999755859375</AltitudeMeters>
            <DistanceMeters>7116.1404757278</DistanceMeters>
          </Trackpoint>
          <Trackpoint>
            <Time>2023-01-11T17:29:05.000Z</Time>
            <Position>
              <LatitudeDegrees>-49.2216405831277370452880859375</LatitudeDegrees>
              <LongitudeDegrees>-73.037658222019672393798828125</LongitudeDegrees>
            </Position>
            <AltitudeMeters>618.20001220703125</AltitudeMeters>
            <DistanceMeters>7116.4696579225</DistanceMeters>
          </Trackpoint>
          <Trackpoint>
            <Time>2023-01-11T17:29:11.000Z</Time>
            <Position>
              <LatitudeDegrees>-49.22167436219751834869384765625</LatitudeDegrees>
              <LongitudeDegrees>-73.037655539810657501220703125</LongitudeDegrees>
            </Position>
            <AltitudeMeters>618.20001220703125</AltitudeMeters>
            <DistanceMeters>7120.2349228557</DistanceMeters>
          </Trackpoint>
          <Trackpoint>
            <Time>2023-01-11T17:29:14.000Z</Time>
            <Position>
              <LatitudeDegrees>-49.2216915450990200042724609375</LatitudeDegrees>
              <LongitudeDegrees>-73.0376319028437137603759765625</LongitudeDegrees>
            </Position>
            <AltitudeMeters>617.79998779296875</AltitudeMeters>
            <DistanceMeters>7122.8059179854</DistanceMeters>
          </Trackpoint>
          <Trackpoint>
            <Time>2023-01-11T17:29:16.000Z</Time>
            <Position>
              <LatitudeDegrees>-49.22169799916446208953857421875</LatitudeDegrees>
              <LongitudeDegrees>-73.0376124568283557891845703125</LongitudeDegrees>
            </Position>
            <AltitudeMeters>616.79998779296875</AltitudeMeters>
            <DistanceMeters>7124.390329943</DistanceMeters>
          </Trackpoint>
          <Trackpoint>
            <Time>2023-01-11T17:29:18.000Z</Time>
            <Position>
              <LatitudeDegrees>-49.22170168720185756683349609375</LatitudeDegrees>
              <LongitudeDegrees>-73.03760466165840625762939453125</LongitudeDegrees>
            </Position>
            <AltitudeMeters>616.5999755859375</AltitudeMeters>
            <DistanceMeters>7125.0886308294</DistanceMeters>
          </Trackpoint>
          <Trackpoint>
            <Time>2023-01-11T17:29:29.000Z</Time>
            <Position>
              <LatitudeDegrees>-49.22170571051537990570068359375</LatitudeDegrees>
              <LongitudeDegrees>-73.03755755536258220672607421875</LongitudeDegrees>
            </Position>
            <AltitudeMeters>617.4000244140625</AltitudeMeters>
            <DistanceMeters>7128.5411228144</DistanceMeters>
          </Trackpoint>
          <Trackpoint>
            <Time>2023-01-11T17:29:34.000Z</Time>
            <Position>
              <LatitudeDegrees>-49.2217218875885009765625</LatitudeDegrees>
              <LongitudeDegrees>-73.03751195780932903289794921875</LongitudeDegrees>
            </Position>
            <AltitudeMeters>618.5999755859375</AltitudeMeters>
            <DistanceMeters>7132.3123786263</DistanceMeters>
          </Trackpoint>
          <Trackpoint>
            <Time>2023-01-11T17:29:36.000Z</Time>
            <Position>
              <LatitudeDegrees>-49.22172389924526214599609375</LatitudeDegrees>
              <LongitudeDegrees>-73.03749619983136653900146484375</LongitudeDegrees>
            </Position>
            <AltitudeMeters>618.20001220703125</AltitudeMeters>
            <DistanceMeters>7133.476213437</DistanceMeters>
          </Trackpoint>
          <Trackpoint>
            <Time>2023-01-11T17:29:40.000Z</Time>
            <Position>
              <LatitudeDegrees>-49.2217173613607883453369140625</LatitudeDegrees>
              <LongitudeDegrees>-73.03746812045574188232421875</LongitudeDegrees>
            </Position>
            <AltitudeMeters>617.4000244140625</AltitudeMeters>
            <DistanceMeters>7135.6452385239</DistanceMeters>
          </Trackpoint>
          <Trackpoint>
            <Time>2023-01-11T17:29:41.000Z</Time>
            <Position>
              <LatitudeDegrees>-49.22170990146696567535400390625</LatitudeDegrees>
              <LongitudeDegrees>-73.03746837191283702850341796875</LongitudeDegrees>
            </Position>
            <AltitudeMeters>614.4000244140625</AltitudeMeters>
            <DistanceMeters>7136.4736622136</DistanceMeters>
          </Trackpoint>
          <Trackpoint>
            <Time>2023-01-11T17:29:43.000Z</Time>
            <Position>
              <LatitudeDegrees>-49.2216985858976840972900390625</LatitudeDegrees>
              <LongitudeDegrees>-73.037454374134540557861328125</LongitudeDegrees>
            </Position>
            <AltitudeMeters>614.20001220703125</AltitudeMeters>
            <DistanceMeters>7138.094696527</DistanceMeters>
          </Trackpoint>
          <Trackpoint>
            <Time>2023-01-11T17:29:46.000Z</Time>
            <Position>
              <LatitudeDegrees>-49.22168433666229248046875</LatitudeDegrees>
              <LongitudeDegrees>-73.0374210141599178314208984375</LongitudeDegrees>
            </Position>
            <AltitudeMeters>614.79998779296875</AltitudeMeters>
            <DistanceMeters>7140.9926218354</DistanceMeters>
          </Trackpoint>
          <Trackpoint>
            <Time>2023-01-11T17:29:47.000Z</Time>
            <Position>
              <LatitudeDegrees>-49.2216789722442626953125</LatitudeDegrees>
              <LongitudeDegrees>-73.0374072678387165069580078125</LongitudeDegrees>
            </Position>
            <AltitudeMeters>615.5999755859375</AltitudeMeters>
            <DistanceMeters>7142.1525707093</DistanceMeters>
          </Trackpoint>
          <Trackpoint>
            <Time>2023-01-11T17:29:51.000Z</Time>
            <Position>
              <LatitudeDegrees>-49.22167159616947174072265625</LatitudeDegrees>
              <LongitudeDegrees>-73.037364184856414794921875</LongitudeDegrees>
            </Position>
            <AltitudeMeters>615.79998779296875</AltitudeMeters>
            <DistanceMeters>7145.3890639775</DistanceMeters>
          </Trackpoint>
          <Trackpoint>
            <Time>2023-01-11T17:29:57.000Z</Time>
            <Position>
              <LatitudeDegrees>-49.2216720990836620330810546875</LatitudeDegrees>
              <LongitudeDegrees>-73.03733426146209239959716796875</LongitudeDegrees>
            </Position>
            <AltitudeMeters>615.4000244140625</AltitudeMeters>
            <DistanceMeters>7147.5643248944</DistanceMeters>
          </Trackpoint>
          <Trackpoint>
            <Time>2023-01-11T17:29:59.000Z</Time>
            <Position>
              <LatitudeDegrees>-49.22166966833174228668212890625</LatitudeDegrees>
              <LongitudeDegrees>-73.037322945892810821533203125</LongitudeDegrees>
            </Position>
            <AltitudeMeters>614.5999755859375</AltitudeMeters>
            <DistanceMeters>7148.4248283914</DistanceMeters>
          </Trackpoint>
          <Trackpoint>
            <Time>2023-01-11T17:30:04.000Z</Time>
            <Position>
              <LatitudeDegrees>-49.22166111879050731658935546875</LatitudeDegrees>
              <LongitudeDegrees>-73.03730324842035770416259765625</LongitudeDegrees>
            </Position>
            <AltitudeMeters>613.20001220703125</AltitudeMeters>
            <DistanceMeters>7150.14058039</DistanceMeters>
          </Trackpoint>
          <Trackpoint>
            <Time>2023-01-11T17:30:07.000Z</Time>
            <Position>
              <LatitudeDegrees>-49.22166111879050731658935546875</LatitudeDegrees>
              <LongitudeDegrees>-73.03730257786810398101806640625</LongitudeDegrees>
            </Position>
            <AltitudeMeters>613</AltitudeMeters>
            <DistanceMeters>7150.14058039</DistanceMeters>
          </Trackpoint>
          <Trackpoint>
            <Time>2023-01-11T17:30:08.000Z</Time>
            <Position>
              <LatitudeDegrees>-49.22166111879050731658935546875</LatitudeDegrees>
              <LongitudeDegrees>-73.03730257786810398101806640625</LongitudeDegrees>
            </Position>
            <AltitudeMeters>613</AltitudeMeters>
            <DistanceMeters>7150.14058039</DistanceMeters>
          </Trackpoint>
          <Trackpoint>
            <Time>2023-01-11T17:30:13.000Z</Time>
            <Position>
              <LatitudeDegrees>-49.22166111879050731658935546875</LatitudeDegrees>
              <LongitudeDegrees>-73.03730257786810398101806640625</LongitudeDegrees>
            </Position>
            <AltitudeMeters>611.4000244140625</AltitudeMeters>
            <DistanceMeters>7150.14058039</DistanceMeters>
          </Trackpoint>
          <Trackpoint>
            <Time>2023-01-11T17:30:16.000Z</Time>
            <Position>
              <LatitudeDegrees>-49.22166061587631702423095703125</LatitudeDegrees>
              <LongitudeDegrees>-73.03729654289782047271728515625</LongitudeDegrees>
            </Position>
            <AltitudeMeters>610.79998779296875</AltitudeMeters>
            <DistanceMeters>7150.5862951887</DistanceMeters>
          </Trackpoint>
          <Trackpoint>
            <Time>2023-01-11T17:30:19.000Z</Time>
            <Position>
              <LatitudeDegrees>-49.2216771282255649566650390625</LatitudeDegrees>
              <LongitudeDegrees>-73.03725547157227993011474609375</LongitudeDegrees>
            </Position>
            <AltitudeMeters>610.5999755859375</AltitudeMeters>
            <DistanceMeters>7154.0919954098</DistanceMeters>
          </Trackpoint>
          <Trackpoint>
            <Time>2023-01-11T17:30:25.000Z</Time>
            <Position>
              <LatitudeDegrees>-49.221675954759120941162109375</LatitudeDegrees>
              <LongitudeDegrees>-73.03714734502136707305908203125</LongitudeDegrees>
            </Position>
            <AltitudeMeters>610.5999755859375</AltitudeMeters>
            <DistanceMeters>7161.9534102432</DistanceMeters>
          </Trackpoint>
          <Trackpoint>
            <Time>2023-01-11T17:30:27.000Z</Time>
            <Position>
              <LatitudeDegrees>-49.2216808162629604339599609375</LatitudeDegrees>
              <LongitudeDegrees>-73.03711901418864727020263671875</LongitudeDegrees>
            </Position>
            <AltitudeMeters>610.4000244140625</AltitudeMeters>
            <DistanceMeters>7164.0825176559</DistanceMeters>
          </Trackpoint>
          <Trackpoint>
            <Time>2023-01-11T17:30:29.000Z</Time>
            <Position>
              <LatitudeDegrees>-49.2216885276138782501220703125</LatitudeDegrees>
              <LongitudeDegrees>-73.03710241802036762237548828125</LongitudeDegrees>
            </Position>
            <AltitudeMeters>609.79998779296875</AltitudeMeters>
            <DistanceMeters>7165.5607864067</DistanceMeters>
          </Trackpoint>
          <Trackpoint>
            <Time>2023-01-11T17:30:31.000Z</Time>
            <Position>
              <LatitudeDegrees>-49.221692383289337158203125</LatitudeDegrees>
              <LongitudeDegrees>-73.0370823852717876434326171875</LongitudeDegrees>
            </Position>
            <AltitudeMeters>608.79998779296875</AltitudeMeters>
            <DistanceMeters>7167.0782413461</DistanceMeters>
          </Trackpoint>
          <Trackpoint>
            <Time>2023-01-11T17:30:34.000Z</Time>
            <Position>
              <LatitudeDegrees>-49.22170235775411128997802734375</LatitudeDegrees>
              <LongitudeDegrees>-73.03705732338130474090576171875</LongitudeDegrees>
            </Position>
            <AltitudeMeters>608.20001220703125</AltitudeMeters>
            <DistanceMeters>7169.2115857927</DistanceMeters>
          </Trackpoint>
          <Trackpoint>
            <Time>2023-01-11T17:30:41.000Z</Time>
            <Position>
              <LatitudeDegrees>-49.22171694226562976837158203125</LatitudeDegrees>
              <LongitudeDegrees>-73.03704299032688140869140625</LongitudeDegrees>
            </Position>
            <AltitudeMeters>607.4000244140625</AltitudeMeters>
            <DistanceMeters>7171.1404174325</DistanceMeters>
          </Trackpoint>
          <Trackpoint>
            <Time>2023-01-11T17:30:48.000Z</Time>
            <Position>
              <LatitudeDegrees>-49.2217693291604518890380859375</LatitudeDegrees>
              <LongitudeDegrees>-73.03701390512287616729736328125</LongitudeDegrees>
            </Position>
            <AltitudeMeters>606.4000244140625</AltitudeMeters>
            <DistanceMeters>7177.3426852155</DistanceMeters>
          </Trackpoint>
          <Trackpoint>
            <Time>2023-01-11T17:30:50.000Z</Time>
            <Position>
              <LatitudeDegrees>-49.2217713408172130584716796875</LatitudeDegrees>
              <LongitudeDegrees>-73.037005104124546051025390625</LongitudeDegrees>
            </Position>
            <AltitudeMeters>606.20001220703125</AltitudeMeters>
            <DistanceMeters>7178.0146255567</DistanceMeters>
          </Trackpoint>
          <Trackpoint>
            <Time>2023-01-11T17:30:57.000Z</Time>
            <Position>
              <LatitudeDegrees>-49.221804030239582061767578125</LatitudeDegrees>
              <LongitudeDegrees>-73.0369653739035129547119140625</LongitudeDegrees>
            </Position>
            <AltitudeMeters>605.79998779296875</AltitudeMeters>
            <DistanceMeters>7182.6592840613</DistanceMeters>
          </Trackpoint>
          <Trackpoint>
            <Time>2023-01-11T17:31:03.000Z</Time>
            <Position>
              <LatitudeDegrees>-49.22183596529066562652587890625</LatitudeDegrees>
              <LongitudeDegrees>-73.0369583331048488616943359375</LongitudeDegrees>
            </Position>
            <AltitudeMeters>605.79998779296875</AltitudeMeters>
            <DistanceMeters>7186.2502378569</DistanceMeters>
          </Trackpoint>
          <Trackpoint>
            <Time>2023-01-11T17:31:09.000Z</Time>
            <Position>
              <LatitudeDegrees>-49.2218417488038539886474609375</LatitudeDegrees>
              <LongitudeDegrees>-73.03694467060267925262451171875</LongitudeDegrees>
            </Position>
            <AltitudeMeters>605.20001220703125</AltitudeMeters>
            <DistanceMeters>7187.437121139</DistanceMeters>
          </Trackpoint>
          <Trackpoint>
            <Time>2023-01-11T17:31:10.000Z</Time>
            <Position>
              <LatitudeDegrees>-49.22184451483190059661865234375</LatitudeDegrees>
              <LongitudeDegrees>-73.03694165311753749847412109375</LongitudeDegrees>
            </Position>
            <AltitudeMeters>605.20001220703125</AltitudeMeters>
            <DistanceMeters>7187.8172279965</DistanceMeters>
          </Trackpoint>
          <Trackpoint>
            <Time>2023-01-11T17:31:17.000Z</Time>
            <Position>
              <LatitudeDegrees>-49.2218627035617828369140625</LatitudeDegrees>
              <LongitudeDegrees>-73.03687761537730693817138671875</LongitudeDegrees>
            </Position>
            <AltitudeMeters>604.4000244140625</AltitudeMeters>
            <DistanceMeters>7192.8938251019</DistanceMeters>
          </Trackpoint>
          <Trackpoint>
            <Time>2023-01-11T17:31:22.000Z</Time>
            <Position>
              <LatitudeDegrees>-49.221852310001850128173828125</LatitudeDegrees>
              <LongitudeDegrees>-73.03683050908148288726806640625</LongitudeDegrees>
            </Position>
            <AltitudeMeters>604.79998779296875</AltitudeMeters>
            <DistanceMeters>7196.5073400857</DistanceMeters>
          </Trackpoint>
          <Trackpoint>
            <Time>2023-01-11T17:31:25.000Z</Time>
            <Position>
              <LatitudeDegrees>-49.22183923423290252685546875</LatitudeDegrees>
              <LongitudeDegrees>-73.0368091352283954620361328125</LongitudeDegrees>
            </Position>
            <AltitudeMeters>605.20001220703125</AltitudeMeters>
            <DistanceMeters>7198.6364474984</DistanceMeters>
          </Trackpoint>
          <Trackpoint>
            <Time>2023-01-11T17:31:29.000Z</Time>
            <Position>
              <LatitudeDegrees>-49.22182540409266948699951171875</LatitudeDegrees>
              <LongitudeDegrees>-73.03679731674492359161376953125</LongitudeDegrees>
            </Position>
            <AltitudeMeters>604</AltitudeMeters>
            <DistanceMeters>7200.3989304903</DistanceMeters>
          </Trackpoint>
          <Trackpoint>
            <Time>2023-01-11T17:31:31.000Z</Time>
            <Position>
              <LatitudeDegrees>-49.22182724811136722564697265625</LatitudeDegrees>
              <LongitudeDegrees>-73.0367682315409183502197265625</LongitudeDegrees>
            </Position>
            <AltitudeMeters>604</AltitudeMeters>
            <DistanceMeters>7202.5237924204</DistanceMeters>
          </Trackpoint>
          <Trackpoint>
            <Time>2023-01-11T17:31:36.000Z</Time>
            <Position>
              <LatitudeDegrees>-49.22184459865093231201171875</LatitudeDegrees>
              <LongitudeDegrees>-73.03671550936996936798095703125</LongitudeDegrees>
            </Position>
            <AltitudeMeters>602.4000244140625</AltitudeMeters>
            <DistanceMeters>7206.8158031317</DistanceMeters>
          </Trackpoint>
          <Trackpoint>
            <Time>2023-01-11T17:31:37.000Z</Time>
            <Position>
              <LatitudeDegrees>-49.2218481190502643585205078125</LatitudeDegrees>
              <LongitudeDegrees>-73.036700002849102020263671875</LongitudeDegrees>
            </Position>
            <AltitudeMeters>602.4000244140625</AltitudeMeters>
            <DistanceMeters>7208.0102704096</DistanceMeters>
          </Trackpoint>
          <Trackpoint>
            <Time>2023-01-11T17:31:39.000Z</Time>
            <Position>
              <LatitudeDegrees>-49.22185440547764301300048828125</LatitudeDegrees>
              <LongitudeDegrees>-73.0366780422627925872802734375</LongitudeDegrees>
            </Position>
            <AltitudeMeters>602.20001220703125</AltitudeMeters>
            <DistanceMeters>7209.7521388562</DistanceMeters>
          </Trackpoint>
          <Trackpoint>
            <Time>2023-01-11T17:31:40.000Z</Time>
            <Position>
              <LatitudeDegrees>-49.22185658477246761322021484375</LatitudeDegrees>
              <LongitudeDegrees>-73.0366706661880016326904296875</LongitudeDegrees>
            </Position>
            <AltitudeMeters>601.5999755859375</AltitudeMeters>
            <DistanceMeters>7210.3379228649</DistanceMeters>
          </Trackpoint>
          <Trackpoint>
            <Time>2023-01-11T17:31:41.000Z</Time>
            <Position>
              <LatitudeDegrees>-49.22185826115310192108154296875</LatitudeDegrees>
              <LongitudeDegrees>-73.03666287101805210113525390625</LongitudeDegrees>
            </Position>
            <AltitudeMeters>600.5999755859375</AltitudeMeters>
            <DistanceMeters>7210.9389245769</DistanceMeters>
          </Trackpoint>
          <Trackpoint>
            <Time>2023-01-11T17:31:46.000Z</Time>
            <Position>
              <LatitudeDegrees>-49.22187234275043010711669921875</LatitudeDegrees>
              <LongitudeDegrees>-73.036620207130908966064453125</LongitudeDegrees>
            </Position>
            <AltitudeMeters>600.4000244140625</AltitudeMeters>
            <DistanceMeters>7214.4135773949</DistanceMeters>
          </Trackpoint>
          <Trackpoint>
            <Time>2023-01-11T17:31:49.000Z</Time>
            <Position>
              <LatitudeDegrees>-49.22188843600451946258544921875</LatitudeDegrees>
              <LongitudeDegrees>-73.036590032279491424560546875</LongitudeDegrees>
            </Position>
            <AltitudeMeters>599.5999755859375</AltitudeMeters>
            <DistanceMeters>7217.2469037013</DistanceMeters>
          </Trackpoint>
          <Trackpoint>
            <Time>2023-01-11T17:31:53.000Z</Time>
            <Position>
              <LatitudeDegrees>-49.22191022895276546478271484375</LatitudeDegrees>
              <LongitudeDegrees>-73.03654938004910945892333984375</LongitudeDegrees>
            </Position>
            <AltitudeMeters>598.79998779296875</AltitudeMeters>
            <DistanceMeters>7221.0692934886</DistanceMeters>
          </Trackpoint>
          <Trackpoint>
            <Time>2023-01-11T17:31:54.000Z</Time>
            <Position>
              <LatitudeDegrees>-49.22191978432238101959228515625</LatitudeDegrees>
              <LongitudeDegrees>-73.03654518909752368927001953125</LongitudeDegrees>
            </Position>
            <AltitudeMeters>598.5999755859375</AltitudeMeters>
            <DistanceMeters>7222.1734041352</DistanceMeters>
          </Trackpoint>
          <Trackpoint>
            <Time>2023-01-11T17:32:01.000Z</Time>
            <Position>
              <LatitudeDegrees>-49.221964962780475616455078125</LatitudeDegrees>
              <LongitudeDegrees>-73.036488778889179229736328125</LongitudeDegrees>
            </Position>
            <AltitudeMeters>597.5999755859375</AltitudeMeters>
            <DistanceMeters>7228.6617179672</DistanceMeters>
          </Trackpoint>
          <Trackpoint>
            <Time>2023-01-11T17:32:02.000Z</Time>
            <Position>
              <LatitudeDegrees>-49.22196705825626850128173828125</LatitudeDegrees>
              <LongitudeDegrees>-73.03648240864276885986328125</LongitudeDegrees>
            </Position>
            <AltitudeMeters>597.5999755859375</AltitudeMeters>
            <DistanceMeters>7229.1822007174</DistanceMeters>
          </Trackpoint>
          <Trackpoint>
            <Time>2023-01-11T17:32:08.000Z</Time>
            <Position>
              <LatitudeDegrees>-49.22196856699883937835693359375</LatitudeDegrees>
              <LongitudeDegrees>-73.036439158022403717041015625</LongitudeDegrees>
            </Position>
            <AltitudeMeters>596.4000244140625</AltitudeMeters>
            <DistanceMeters>7232.3310138169</DistanceMeters>
          </Trackpoint>
          <Trackpoint>
            <Time>2023-01-11T17:32:16.000Z</Time>
            <Position>
              <LatitudeDegrees>-49.221981726586818695068359375</LatitudeDegrees>
              <LongitudeDegrees>-73.03640286438167095184326171875</LongitudeDegrees>
            </Position>
            <AltitudeMeters>595.79998779296875</AltitudeMeters>
            <DistanceMeters>7235.3480184665</DistanceMeters>
          </Trackpoint>
          <Trackpoint>
            <Time>2023-01-11T17:32:18.000Z</Time>
            <Position>
              <LatitudeDegrees>-49.2219872586429119110107421875</LatitudeDegrees>
              <LongitudeDegrees>-73.0363833345472812652587890625</LongitudeDegrees>
            </Position>
            <AltitudeMeters>594.79998779296875</AltitudeMeters>
            <DistanceMeters>7236.8920198205</DistanceMeters>
          </Trackpoint>
          <Trackpoint>
            <Time>2023-01-11T17:32:21.000Z</Time>
            <Position>
              <LatitudeDegrees>-49.22199404798448085784912109375</LatitudeDegrees>
              <LongitudeDegrees>-73.03635634481906890869140625</LongitudeDegrees>
            </Position>
            <AltitudeMeters>594.5999755859375</AltitudeMeters>
            <DistanceMeters>7238.9955258123</DistanceMeters>
          </Trackpoint>
          <Trackpoint>
            <Time>2023-01-11T17:32:28.000Z</Time>
            <Position>
              <LatitudeDegrees>-49.2220060341060161590576171875</LatitudeDegrees>
              <LongitudeDegrees>-73.03629825823009014129638671875</LongitudeDegrees>
            </Position>
            <AltitudeMeters>593.79998779296875</AltitudeMeters>
            <DistanceMeters>7243.4242193032</DistanceMeters>
          </Trackpoint>
          <Trackpoint>
            <Time>2023-01-11T17:32:29.000Z</Time>
            <Position>
              <LatitudeDegrees>-49.222011566162109375</LatitudeDegrees>
              <LongitudeDegrees>-73.03630144335329532623291015625</LongitudeDegrees>
            </Position>
            <AltitudeMeters>593.5999755859375</AltitudeMeters>
            <DistanceMeters>7244.0825836926</DistanceMeters>
          </Trackpoint>
          <Trackpoint>
            <Time>2023-01-11T17:32:33.000Z</Time>
            <Position>
              <LatitudeDegrees>-49.2220462672412395477294921875</LatitudeDegrees>
              <LongitudeDegrees>-73.03631099872291088104248046875</LongitudeDegrees>
            </Position>
            <AltitudeMeters>592.5999755859375</AltitudeMeters>
            <DistanceMeters>7248.0063931091</DistanceMeters>
          </Trackpoint>
          <Trackpoint>
            <Time>2023-01-11T17:32:37.000Z</Time>
            <Position>
              <LatitudeDegrees>-49.222067892551422119140625</LatitudeDegrees>
              <LongitudeDegrees>-73.0362985096871852874755859375</LongitudeDegrees>
            </Position>
            <AltitudeMeters>592.79998779296875</AltitudeMeters>
            <DistanceMeters>7250.5773882388</DistanceMeters>
          </Trackpoint>
          <Trackpoint>
            <Time>2023-01-11T17:32:41.000Z</Time>
            <Position>
              <LatitudeDegrees>-49.22209228388965129852294921875</LatitudeDegrees>
              <LongitudeDegrees>-73.0362683348357677459716796875</LongitudeDegrees>
            </Position>
            <AltitudeMeters>594</AltitudeMeters>
            <DistanceMeters>7254.0675992816</DistanceMeters>
          </Trackpoint>
          <Trackpoint>
            <Time>2023-01-11T17:32:44.000Z</Time>
            <Position>
              <LatitudeDegrees>-49.2221025936305522918701171875</LatitudeDegrees>
              <LongitudeDegrees>-73.03622852079570293426513671875</LongitudeDegrees>
            </Position>
            <AltitudeMeters>595</AltitudeMeters>
            <DistanceMeters>7257.1818089888</DistanceMeters>
          </Trackpoint>
          <Trackpoint>
            <Time>2023-01-11T17:32:46.000Z</Time>
            <Position>
              <LatitudeDegrees>-49.22210343182086944580078125</LatitudeDegrees>
              <LongitudeDegrees>-73.03620320744812488555908203125</LongitudeDegrees>
            </Position>
            <AltitudeMeters>594.5999755859375</AltitudeMeters>
            <DistanceMeters>7259.0244453455</DistanceMeters>
          </Trackpoint>
          <Trackpoint>
            <Time>2023-01-11T17:32:48.000Z</Time>
            <Position>
              <LatitudeDegrees>-49.222097061574459075927734375</LatitudeDegrees>
              <LongitudeDegrees>-73.03618594072759151458740234375</LongitudeDegrees>
            </Position>
            <AltitudeMeters>594</AltitudeMeters>
            <DistanceMeters>7260.4655968234</DistanceMeters>
          </Trackpoint>
          <Trackpoint>
            <Time>2023-01-11T17:32:50.000Z</Time>
            <Position>
              <LatitudeDegrees>-49.22209127806127071380615234375</LatitudeDegrees>
              <LongitudeDegrees>-73.03616867400705814361572265625</LongitudeDegrees>
            </Position>
            <AltitudeMeters>592.20001220703125</AltitudeMeters>
            <DistanceMeters>7261.8750707741</DistanceMeters>
          </Trackpoint>
          <Trackpoint>
            <Time>2023-01-11T17:32:54.000Z</Time>
            <Position>
              <LatitudeDegrees>-49.22208063304424285888671875</LatitudeDegrees>
              <LongitudeDegrees>-73.03616012446582317352294921875</LongitudeDegrees>
            </Position>
            <AltitudeMeters>592.20001220703125</AltitudeMeters>
            <DistanceMeters>7263.2122151701</DistanceMeters>
          </Trackpoint>
          <Trackpoint>
            <Time>2023-01-11T17:33:00.000Z</Time>
            <Position>
              <LatitudeDegrees>-49.2220640368759632110595703125</LatitudeDegrees>
              <LongitudeDegrees>-73.03613103926181793212890625</LongitudeDegrees>
            </Position>
            <AltitudeMeters>590.4000244140625</AltitudeMeters>
            <DistanceMeters>7266.021536585</DistanceMeters>
          </Trackpoint>
          <Trackpoint>
            <Time>2023-01-11T17:33:02.000Z</Time>
            <Position>
              <LatitudeDegrees>-49.22206462360918521881103515625</LatitudeDegrees>
              <LongitudeDegrees>-73.03612927906215190887451171875</LongitudeDegrees>
            </Position>
            <AltitudeMeters>592</AltitudeMeters>
            <DistanceMeters>7266.1559246532</DistanceMeters>
          </Trackpoint>
          <Trackpoint>
            <Time>2023-01-11T17:33:03.000Z</Time>
            <Position>
              <LatitudeDegrees>-49.22206462360918521881103515625</LatitudeDegrees>
              <LongitudeDegrees>-73.03612927906215190887451171875</LongitudeDegrees>
            </Position>
            <AltitudeMeters>593</AltitudeMeters>
            <DistanceMeters>7266.1559246532</DistanceMeters>
          </Trackpoint>
          <Trackpoint>
            <Time>2023-01-11T17:33:04.000Z</Time>
            <Position>
              <LatitudeDegrees>-49.22206462360918521881103515625</LatitudeDegrees>
              <LongitudeDegrees>-73.03612927906215190887451171875</LongitudeDegrees>
            </Position>
            <AltitudeMeters>593</AltitudeMeters>
            <DistanceMeters>7266.1559246532</DistanceMeters>
          </Trackpoint>
          <Trackpoint>
            <Time>2023-01-11T17:33:05.000Z</Time>
            <Position>
              <LatitudeDegrees>-49.22206462360918521881103515625</LatitudeDegrees>
              <LongitudeDegrees>-73.03612927906215190887451171875</LongitudeDegrees>
            </Position>
            <AltitudeMeters>593.20001220703125</AltitudeMeters>
            <DistanceMeters>7266.1559246532</DistanceMeters>
          </Trackpoint>
          <Trackpoint>
            <Time>2023-01-11T17:33:18.000Z</Time>
            <Position>
              <LatitudeDegrees>-49.22206462360918521881103515625</LatitudeDegrees>
              <LongitudeDegrees>-73.03612927906215190887451171875</LongitudeDegrees>
            </Position>
            <AltitudeMeters>591.79998779296875</AltitudeMeters>
            <DistanceMeters>7266.1559246532</DistanceMeters>
          </Trackpoint>
          <Trackpoint>
            <Time>2023-01-11T17:33:25.000Z</Time>
            <Position>
              <LatitudeDegrees>-49.2220657132565975189208984375</LatitudeDegrees>
              <LongitudeDegrees>-73.036117963492870330810546875</LongitudeDegrees>
            </Position>
            <AltitudeMeters>591.79998779296875</AltitudeMeters>
            <DistanceMeters>7266.9897806877</DistanceMeters>
          </Trackpoint>
          <Trackpoint>
            <Time>2023-01-11T17:33:26.000Z</Time>
            <Position>
              <LatitudeDegrees>-49.22207367606461048126220703125</LatitudeDegrees>
              <LongitudeDegrees>-73.03610966540873050689697265625</LongitudeDegrees>
            </Position>
            <AltitudeMeters>590.79998779296875</AltitudeMeters>
            <DistanceMeters>7268.0606773719</DistanceMeters>
          </Trackpoint>
          <Trackpoint>
            <Time>2023-01-11T17:33:28.000Z</Time>
            <Position>
              <LatitudeDegrees>-49.22208759002387523651123046875</LatitudeDegrees>
              <LongitudeDegrees>-73.03608141839504241943359375</LongitudeDegrees>
            </Position>
            <AltitudeMeters>589.5999755859375</AltitudeMeters>
            <DistanceMeters>7270.6316725016</DistanceMeters>
          </Trackpoint>
          <Trackpoint>
            <Time>2023-01-11T17:33:29.000Z</Time>
            <Position>
              <LatitudeDegrees>-49.2220898531377315521240234375</LatitudeDegrees>
              <LongitudeDegrees>-73.036067001521587371826171875</LongitudeDegrees>
            </Position>
            <AltitudeMeters>589</AltitudeMeters>
            <DistanceMeters>7271.7109685043</DistanceMeters>
          </Trackpoint>
          <Trackpoint>
            <Time>2023-01-11T17:33:32.000Z</Time>
            <Position>
              <LatitudeDegrees>-49.2220922000706195831298828125</LatitudeDegrees>
              <LongitudeDegrees>-73.03602701984345912933349609375</LongitudeDegrees>
            </Position>
            <AltitudeMeters>588.4000244140625</AltitudeMeters>
            <DistanceMeters>7274.6290778385</DistanceMeters>
          </Trackpoint>
          <Trackpoint>
            <Time>2023-01-11T17:33:33.000Z</Time>
            <Position>
              <LatitudeDegrees>-49.2220915295183658599853515625</LatitudeDegrees>
              <LongitudeDegrees>-73.0360110104084014892578125</LongitudeDegrees>
            </Position>
            <AltitudeMeters>587.20001220703125</AltitudeMeters>
            <DistanceMeters>7275.7967856543</DistanceMeters>
          </Trackpoint>
          <Trackpoint>
            <Time>2023-01-11T17:33:36.000Z</Time>
            <Position>
              <LatitudeDegrees>-49.22208893112838268280029296875</LatitudeDegrees>
              <LongitudeDegrees>-73.0359652452170848846435546875</LongitudeDegrees>
            </Position>
            <AltitudeMeters>586.79998779296875</AltitudeMeters>
            <DistanceMeters>7279.134916019</DistanceMeters>
          </Trackpoint>
          <Trackpoint>
            <Time>2023-01-11T17:33:41.000Z</Time>
            <Position>
              <LatitudeDegrees>-49.22210955061018466949462890625</LatitudeDegrees>
              <LongitudeDegrees>-73.03592660464346408843994140625</LongitudeDegrees>
            </Position>
            <AltitudeMeters>587.5999755859375</AltitudeMeters>
            <DistanceMeters>7282.7621493144</DistanceMeters>
          </Trackpoint>
          <Trackpoint>
            <Time>2023-01-11T17:33:45.000Z</Time>
            <Position>
              <LatitudeDegrees>-49.222136624157428741455078125</LatitudeDegrees>
              <LongitudeDegrees>-73.0358931608498096466064453125</LongitudeDegrees>
            </Position>
            <AltitudeMeters>587.5999755859375</AltitudeMeters>
            <DistanceMeters>7286.6338320102</DistanceMeters>
          </Trackpoint>
          <Trackpoint>
            <Time>2023-01-11T17:33:47.000Z</Time>
            <Position>
              <LatitudeDegrees>-49.22214257530868053436279296875</LatitudeDegrees>
              <LongitudeDegrees>-73.035863824188709259033203125</LongitudeDegrees>
            </Position>
            <AltitudeMeters>587.5999755859375</AltitudeMeters>
            <DistanceMeters>7288.8684756671</DistanceMeters>
          </Trackpoint>
          <Trackpoint>
            <Time>2023-01-11T17:33:48.000Z</Time>
            <Position>
              <LatitudeDegrees>-49.222147352993488311767578125</LatitudeDegrees>
              <LongitudeDegrees>-73.03585167042911052703857421875</LongitudeDegrees>
            </Position>
            <AltitudeMeters>587.5999755859375</AltitudeMeters>
            <DistanceMeters>7289.9007300061</DistanceMeters>
          </Trackpoint>
          <Trackpoint>
            <Time>2023-01-11T17:33:51.000Z</Time>
            <Position>
              <LatitudeDegrees>-49.22216889448463916778564453125</LatitudeDegrees>
              <LongitudeDegrees>-73.0358232557773590087890625</LongitudeDegrees>
            </Position>
            <AltitudeMeters>586.20001220703125</AltitudeMeters>
            <DistanceMeters>7293.0652765418</DistanceMeters>
          </Trackpoint>
          <Trackpoint>
            <Time>2023-01-11T17:33:57.000Z</Time>
            <Position>
              <LatitudeDegrees>-49.2222139053046703338623046875</LatitudeDegrees>
              <LongitudeDegrees>-73.03582099266350269317626953125</LongitudeDegrees>
            </Position>
            <AltitudeMeters>585.20001220703125</AltitudeMeters>
            <DistanceMeters>7298.0774290401</DistanceMeters>
          </Trackpoint>
          <Trackpoint>
            <Time>2023-01-11T17:34:04.000Z</Time>
            <Position>
              <LatitudeDegrees>-49.22225908376276493072509765625</LatitudeDegrees>
              <LongitudeDegrees>-73.0358391813933849334716796875</LongitudeDegrees>
            </Position>
            <AltitudeMeters>585.20001220703125</AltitudeMeters>
            <DistanceMeters>7303.2770491102</DistanceMeters>
          </Trackpoint>
          <Trackpoint>
            <Time>2023-01-11T17:34:07.000Z</Time>
            <Position>
              <LatitudeDegrees>-49.22227299772202968597412109375</LatitudeDegrees>
              <LongitudeDegrees>-73.03585602901875972747802734375</LongitudeDegrees>
            </Position>
            <AltitudeMeters>585</AltitudeMeters>
            <DistanceMeters>7305.2521422786</DistanceMeters>
          </Trackpoint>
          <Trackpoint>
            <Time>2023-01-11T17:34:10.000Z</Time>
            <Position>
              <LatitudeDegrees>-49.22228976152837276458740234375</LatitudeDegrees>
              <LongitudeDegrees>-73.03585636429488658905029296875</LongitudeDegrees>
            </Position>
            <AltitudeMeters>583.5999755859375</AltitudeMeters>
            <DistanceMeters>7307.1191209896</DistanceMeters>
          </Trackpoint>
          <Trackpoint>
            <Time>2023-01-11T17:34:12.000Z</Time>
            <Position>
              <LatitudeDegrees>-49.22229143790900707244873046875</LatitudeDegrees>
              <LongitudeDegrees>-73.0358596332371234893798828125</LongitudeDegrees>
            </Position>
            <AltitudeMeters>583.20001220703125</AltitudeMeters>
            <DistanceMeters>7307.4196218456</DistanceMeters>
          </Trackpoint>
          <Trackpoint>
            <Time>2023-01-11T17:34:15.000Z</Time>
            <Position>
              <LatitudeDegrees>-49.22229462303221225738525390625</LatitudeDegrees>
              <LongitudeDegrees>-73.035849072039127349853515625</LongitudeDegrees>
            </Position>
            <AltitudeMeters>582.4000244140625</AltitudeMeters>
            <DistanceMeters>7308.2695666176</DistanceMeters>
          </Trackpoint>
          <Trackpoint>
            <Time>2023-01-11T17:34:19.000Z</Time>
            <Position>
              <LatitudeDegrees>-49.22232043929398059844970703125</LatitudeDegrees>
              <LongitudeDegrees>-73.03582216612994670867919921875</LongitudeDegrees>
            </Position>
            <AltitudeMeters>581.5999755859375</AltitudeMeters>
            <DistanceMeters>7311.7455186141</DistanceMeters>
          </Trackpoint>
          <Trackpoint>
            <Time>2023-01-11T17:34:24.000Z</Time>
            <Position>
              <LatitudeDegrees>-49.22235815785825252532958984375</LatitudeDegrees>
              <LongitudeDegrees>-73.03581579588353633880615234375</LongitudeDegrees>
            </Position>
            <AltitudeMeters>581.20001220703125</AltitudeMeters>
            <DistanceMeters>7315.9696671737</DistanceMeters>
          </Trackpoint>
          <Trackpoint>
            <Time>2023-01-11T17:34:27.000Z</Time>
            <Position>
              <LatitudeDegrees>-49.2223785258829593658447265625</LatitudeDegrees>
              <LongitudeDegrees>-73.0358080007135868072509765625</LongitudeDegrees>
            </Position>
            <AltitudeMeters>580.4000244140625</AltitudeMeters>
            <DistanceMeters>7318.3070152968</DistanceMeters>
          </Trackpoint>
          <Trackpoint>
            <Time>2023-01-11T17:34:28.000Z</Time>
            <Position>
              <LatitudeDegrees>-49.2223859019577503204345703125</LatitudeDegrees>
              <LongitudeDegrees>-73.0358083359897136688232421875</LongitudeDegrees>
            </Position>
            <AltitudeMeters>580</AltitudeMeters>
            <DistanceMeters>7319.1299707836</DistanceMeters>
          </Trackpoint>
          <Trackpoint>
            <Time>2023-01-11T17:34:32.000Z</Time>
            <Position>
              <LatitudeDegrees>-49.22240040265023708343505859375</LatitudeDegrees>
              <LongitudeDegrees>-73.035814873874187469482421875</LongitudeDegrees>
            </Position>
            <AltitudeMeters>579.4000244140625</AltitudeMeters>
            <DistanceMeters>7320.8138484524</DistanceMeters>
          </Trackpoint>
          <Trackpoint>
            <Time>2023-01-11T17:34:34.000Z</Time>
            <Position>
              <LatitudeDegrees>-49.22240409068763256072998046875</LatitudeDegrees>
              <LongitudeDegrees>-73.03579978644847869873046875</LongitudeDegrees>
            </Position>
            <AltitudeMeters>579</AltitudeMeters>
            <DistanceMeters>7321.9854164698</DistanceMeters>
          </Trackpoint>
          <Trackpoint>
            <Time>2023-01-11T17:34:38.000Z</Time>
            <Position>
              <LatitudeDegrees>-49.222419597208499908447265625</LatitudeDegrees>
              <LongitudeDegrees>-73.03577757440507411956787109375</LongitudeDegrees>
            </Position>
            <AltitudeMeters>578.4000244140625</AltitudeMeters>
            <DistanceMeters>7324.3515625759</DistanceMeters>
          </Trackpoint>
          <Trackpoint>
            <Time>2023-01-11T17:34:40.000Z</Time>
            <Position>
              <LatitudeDegrees>-49.2224311642348766326904296875</LatitudeDegrees>
              <LongitudeDegrees>-73.03577321581542491912841796875</LongitudeDegrees>
            </Position>
            <AltitudeMeters>577.79998779296875</AltitudeMeters>
            <DistanceMeters>7325.6785384259</DistanceMeters>
          </Trackpoint>
          <Trackpoint>
            <Time>2023-01-11T17:34:45.000Z</Time>
            <Position>
              <LatitudeDegrees>-49.22247047536075115203857421875</LatitudeDegrees>
              <LongitudeDegrees>-73.0357748083770275115966796875</LongitudeDegrees>
            </Position>
            <AltitudeMeters>576.5999755859375</AltitudeMeters>
            <DistanceMeters>7330.0559602944</DistanceMeters>
          </Trackpoint>
          <Trackpoint>
            <Time>2023-01-11T17:34:47.000Z</Time>
            <Position>
              <LatitudeDegrees>-49.22248992137610912322998046875</LatitudeDegrees>
              <LongitudeDegrees>-73.03577237762510776519775390625</LongitudeDegrees>
            </Position>
            <AltitudeMeters>576.4000244140625</AltitudeMeters>
            <DistanceMeters>7332.2270659813</DistanceMeters>
          </Trackpoint>
          <Trackpoint>
            <Time>2023-01-11T17:34:48.000Z</Time>
            <Position>
              <LatitudeDegrees>-49.22249947674572467803955078125</LatitudeDegrees>
              <LongitudeDegrees>-73.03576835431158542633056640625</LongitudeDegrees>
            </Position>
            <AltitudeMeters>576.4000244140625</AltitudeMeters>
            <DistanceMeters>7333.3270797282</DistanceMeters>
          </Trackpoint>
          <Trackpoint>
            <Time>2023-01-11T17:34:55.000Z</Time>
            <Position>
              <LatitudeDegrees>-49.2225144803524017333984375</LatitudeDegrees>
              <LongitudeDegrees>-73.0356966890394687652587890625</LongitudeDegrees>
            </Position>
            <AltitudeMeters>576.4000244140625</AltitudeMeters>
            <DistanceMeters>7338.7975160303</DistanceMeters>
          </Trackpoint>
          <Trackpoint>
            <Time>2023-01-11T17:35:02.000Z</Time>
            <Position>
              <LatitudeDegrees>-49.22252244316041469573974609375</LatitudeDegrees>
              <LongitudeDegrees>-73.03567850030958652496337890625</LongitudeDegrees>
            </Position>
            <AltitudeMeters>575.79998779296875</AltitudeMeters>
            <DistanceMeters>7340.3876170976</DistanceMeters>
          </Trackpoint>
          <Trackpoint>
            <Time>2023-01-11T17:35:05.000Z</Time>
            <Position>
              <LatitudeDegrees>-49.22252529300749301910400390625</LatitudeDegrees>
              <LongitudeDegrees>-73.03565494716167449951171875</LongitudeDegrees>
            </Position>
            <AltitudeMeters>575.5999755859375</AltitudeMeters>
            <DistanceMeters>7342.1294855442</DistanceMeters>
          </Trackpoint>
          <Trackpoint>
            <Time>2023-01-11T17:35:06.000Z</Time>
            <Position>
              <LatitudeDegrees>-49.22252579592168331146240234375</LatitudeDegrees>
              <LongitudeDegrees>-73.0356420390307903289794921875</LongitudeDegrees>
            </Position>
            <AltitudeMeters>575.4000244140625</AltitudeMeters>
            <DistanceMeters>7343.070202022</DistanceMeters>
          </Trackpoint>
          <Trackpoint>
            <Time>2023-01-11T17:35:09.000Z</Time>
            <Position>
              <LatitudeDegrees>-49.2225280590355396270751953125</LatitudeDegrees>
              <LongitudeDegrees>-73.03560675121843814849853515625</LongitudeDegrees>
            </Position>
            <AltitudeMeters>575</AltitudeMeters>
            <DistanceMeters>7345.6482121582</DistanceMeters>
          </Trackpoint>
          <Trackpoint>
            <Time>2023-01-11T17:35:10.000Z</Time>
            <Position>
              <LatitudeDegrees>-49.2225290648639202117919921875</LatitudeDegrees>
              <LongitudeDegrees>-73.0355920828878879547119140625</LongitudeDegrees>
            </Position>
            <AltitudeMeters>574.4000244140625</AltitudeMeters>
            <DistanceMeters>7346.7233167042</DistanceMeters>
          </Trackpoint>
          <Trackpoint>
            <Time>2023-01-11T17:35:12.000Z</Time>
            <Position>
              <LatitudeDegrees>-49.22252546064555644989013671875</LatitudeDegrees>
              <LongitudeDegrees>-73.03556643426418304443359375</LongitudeDegrees>
            </Position>
            <AltitudeMeters>574.4000244140625</AltitudeMeters>
            <DistanceMeters>7348.6333300244</DistanceMeters>
          </Trackpoint>
          <Trackpoint>
            <Time>2023-01-11T17:35:16.000Z</Time>
            <Position>
              <LatitudeDegrees>-49.22252319753170013427734375</LatitudeDegrees>
              <LongitudeDegrees>-73.035515137016773223876953125</LongitudeDegrees>
            </Position>
            <AltitudeMeters>574</AltitudeMeters>
            <DistanceMeters>7352.3721210503</DistanceMeters>
          </Trackpoint>
          <Trackpoint>
            <Time>2023-01-11T17:35:20.000Z</Time>
            <Position>
              <LatitudeDegrees>-49.2225290648639202117919921875</LatitudeDegrees>
              <LongitudeDegrees>-73.03547347895801067352294921875</LongitudeDegrees>
            </Position>
            <AltitudeMeters>573</AltitudeMeters>
            <DistanceMeters>7355.4703417106</DistanceMeters>
          </Trackpoint>
          <Trackpoint>
            <Time>2023-01-11T17:35:23.000Z</Time>
            <Position>
              <LatitudeDegrees>-49.22254239208996295928955078125</LatitudeDegrees>
              <LongitudeDegrees>-73.035454787313938140869140625</LongitudeDegrees>
            </Position>
            <AltitudeMeters>571.79998779296875</AltitudeMeters>
            <DistanceMeters>7357.4816781437</DistanceMeters>
          </Trackpoint>
          <Trackpoint>
            <Time>2023-01-11T17:35:24.000Z</Time>
            <Position>
              <LatitudeDegrees>-49.22254440374672412872314453125</LatitudeDegrees>
              <LongitudeDegrees>-73.0354519374668598175048828125</LongitudeDegrees>
            </Position>
            <AltitudeMeters>571.4000244140625</AltitudeMeters>
            <DistanceMeters>7357.7821789997</DistanceMeters>
          </Trackpoint>
          <Trackpoint>
            <Time>2023-01-11T17:35:28.000Z</Time>
            <Position>
              <LatitudeDegrees>-49.22254155389964580535888671875</LatitudeDegrees>
              <LongitudeDegrees>-73.0354150570929050445556640625</LongitudeDegrees>
            </Position>
            <AltitudeMeters>570.20001220703125</AltitudeMeters>
            <DistanceMeters>7360.4833457414</DistanceMeters>
          </Trackpoint>
          <Trackpoint>
            <Time>2023-01-11T17:35:32.000Z</Time>
            <Position>
              <LatitudeDegrees>-49.222548343241214752197265625</LatitudeDegrees>
              <LongitudeDegrees>-73.0353687889873981475830078125</LongitudeDegrees>
            </Position>
            <AltitudeMeters>569.79998779296875</AltitudeMeters>
            <DistanceMeters>7363.9306027089</DistanceMeters>
          </Trackpoint>
          <Trackpoint>
            <Time>2023-01-11T17:35:38.000Z</Time>
            <Position>
              <LatitudeDegrees>-49.22256921418011188507080078125</LatitudeDegrees>
              <LongitudeDegrees>-73.0353181622922420501708984375</LongitudeDegrees>
            </Position>
            <AltitudeMeters>569</AltitudeMeters>
            <DistanceMeters>7368.2831996785</DistanceMeters>
          </Trackpoint>
          <Trackpoint>
            <Time>2023-01-11T17:35:39.000Z</Time>
            <Position>
              <LatitudeDegrees>-49.222575835883617401123046875</LatitudeDegrees>
              <LongitudeDegrees>-73.03531589917838573455810546875</LongitudeDegrees>
            </Position>
            <AltitudeMeters>569</AltitudeMeters>
            <DistanceMeters>7369.0314407757</DistanceMeters>
          </Trackpoint>
          <Trackpoint>
            <Time>2023-01-11T17:35:45.000Z</Time>
            <Position>
              <LatitudeDegrees>-49.222606010735034942626953125</LatitudeDegrees>
              <LongitudeDegrees>-73.03533199243247509002685546875</LongitudeDegrees>
            </Position>
            <AltitudeMeters>569.20001220703125</AltitudeMeters>
            <DistanceMeters>7372.5870148533</DistanceMeters>
          </Trackpoint>
          <Trackpoint>
            <Time>2023-01-11T17:35:49.000Z</Time>
            <Position>
              <LatitudeDegrees>-49.2226061783730983734130859375</LatitudeDegrees>
              <LongitudeDegrees>-73.0353285558521747589111328125</LongitudeDegrees>
            </Position>
            <AltitudeMeters>569.20001220703125</AltitudeMeters>
            <DistanceMeters>7372.8197818155</DistanceMeters>
          </Trackpoint>
          <Trackpoint>
            <Time>2023-01-11T17:35:51.000Z</Time>
            <Position>
              <LatitudeDegrees>-49.22261246480047702789306640625</LatitudeDegrees>
              <LongitudeDegrees>-73.03532344289124011993408203125</LongitudeDegrees>
            </Position>
            <AltitudeMeters>568.5999755859375</AltitudeMeters>
            <DistanceMeters>7373.6148323491</DistanceMeters>
          </Trackpoint>
          <Trackpoint>
            <Time>2023-01-11T17:35:56.000Z</Time>
            <Position>
              <LatitudeDegrees>-49.22262721695005893707275390625</LatitudeDegrees>
              <LongitudeDegrees>-73.03527801297605037689208984375</LongitudeDegrees>
            </Position>
            <AltitudeMeters>567.79998779296875</AltitudeMeters>
            <DistanceMeters>7377.3025545627</DistanceMeters>
          </Trackpoint>
          <Trackpoint>
            <Time>2023-01-11T17:35:59.000Z</Time>
            <Position>
              <LatitudeDegrees>-49.22263258136808872222900390625</LatitudeDegrees>
              <LongitudeDegrees>-73.03523518145084381103515625</LongitudeDegrees>
            </Position>
            <AltitudeMeters>566.5999755859375</AltitudeMeters>
            <DistanceMeters>7380.4742268596</DistanceMeters>
          </Trackpoint>
          <Trackpoint>
            <Time>2023-01-11T17:36:03.000Z</Time>
            <Position>
              <LatitudeDegrees>-49.22265420667827129364013671875</LatitudeDegrees>
              <LongitudeDegrees>-73.03520509041845798492431640625</LongitudeDegrees>
            </Position>
            <AltitudeMeters>566.4000244140625</AltitudeMeters>
            <DistanceMeters>7383.7274175383</DistanceMeters>
          </Trackpoint>
          <Trackpoint>
            <Time>2023-01-11T17:36:10.000Z</Time>
            <Position>
              <LatitudeDegrees>-49.2227022349834442138671875</LatitudeDegrees>
              <LongitudeDegrees>-73.03518279455602169036865234375</LongitudeDegrees>
            </Position>
            <AltitudeMeters>566.20001220703125</AltitudeMeters>
            <DistanceMeters>7389.3138246297</DistanceMeters>
          </Trackpoint>
          <Trackpoint>
            <Time>2023-01-11T17:36:16.000Z</Time>
            <Position>
              <LatitudeDegrees>-49.2226832918822765350341796875</LatitudeDegrees>
              <LongitudeDegrees>-73.0351374484598636627197265625</LongitudeDegrees>
            </Position>
            <AltitudeMeters>566.5999755859375</AltitudeMeters>
            <DistanceMeters>7393.2272642483</DistanceMeters>
          </Trackpoint>
          <Trackpoint>
            <Time>2023-01-11T17:36:24.000Z</Time>
            <Position>
              <LatitudeDegrees>-49.22264532186090946197509765625</LatitudeDegrees>
              <LongitudeDegrees>-73.0350777693092823028564453125</LongitudeDegrees>
            </Position>
            <AltitudeMeters>565.5999755859375</AltitudeMeters>
            <DistanceMeters>7399.2836798975</DistanceMeters>
          </Trackpoint>
          <Trackpoint>
            <Time>2023-01-11T17:36:31.000Z</Time>
            <Position>
              <LatitudeDegrees>-49.2226403765380382537841796875</LatitudeDegrees>
              <LongitudeDegrees>-73.0349778570234775543212890625</LongitudeDegrees>
            </Position>
            <AltitudeMeters>566.79998779296875</AltitudeMeters>
            <DistanceMeters>7406.5679594902</DistanceMeters>
          </Trackpoint>
          <Trackpoint>
            <Time>2023-01-11T17:36:32.000Z</Time>
            <Position>
              <LatitudeDegrees>-49.22264431603252887725830078125</LatitudeDegrees>
              <LongitudeDegrees>-73.03496251814067363739013671875</LongitudeDegrees>
            </Position>
            <AltitudeMeters>566.5999755859375</AltitudeMeters>
            <DistanceMeters>7407.7699629141</DistanceMeters>
          </Trackpoint>
          <Trackpoint>
            <Time>2023-01-11T17:36:40.000Z</Time>
            <Position>
              <LatitudeDegrees>-49.222661666572093963623046875</LatitudeDegrees>
              <LongitudeDegrees>-73.03485405631363391876220703125</LongitudeDegrees>
            </Position>
            <AltitudeMeters>566.20001220703125</AltitudeMeters>
            <DistanceMeters>7415.8879366691</DistanceMeters>
          </Trackpoint>
          <Trackpoint>
            <Time>2023-01-11T17:36:45.000Z</Time>
            <Position>
              <LatitudeDegrees>-49.22266912646591663360595703125</LatitudeDegrees>
              <LongitudeDegrees>-73.0347803793847560882568359375</LongitudeDegrees>
            </Position>
            <AltitudeMeters>565</AltitudeMeters>
            <DistanceMeters>7421.3086256243</DistanceMeters>
          </Trackpoint>
          <Trackpoint>
            <Time>2023-01-11T17:36:49.000Z</Time>
            <Position>
              <LatitudeDegrees>-49.22267281450331211090087890625</LatitudeDegrees>
              <LongitudeDegrees>-73.03471625782549381256103515625</LongitudeDegrees>
            </Position>
            <AltitudeMeters>564</AltitudeMeters>
            <DistanceMeters>7425.9881486103</DistanceMeters>
          </Trackpoint>
          <Trackpoint>
            <Time>2023-01-11T17:36:58.000Z</Time>
            <Position>
              <LatitudeDegrees>-49.22267340123653411865234375</LatitudeDegrees>
              <LongitudeDegrees>-73.03460461087524890899658203125</LongitudeDegrees>
            </Position>
            <AltitudeMeters>565</AltitudeMeters>
            <DistanceMeters>7434.1044536599</DistanceMeters>
          </Trackpoint>
          <Trackpoint>
            <Time>2023-01-11T17:37:04.000Z</Time>
            <Position>
              <LatitudeDegrees>-49.22268153168261051177978515625</LatitudeDegrees>
              <LongitudeDegrees>-73.03450989536941051483154296875</LongitudeDegrees>
            </Position>
            <AltitudeMeters>565.4000244140625</AltitudeMeters>
            <DistanceMeters>7441.0485596651</DistanceMeters>
          </Trackpoint>
          <Trackpoint>
            <Time>2023-01-11T17:37:10.000Z</Time>
            <Position>
              <LatitudeDegrees>-49.22269175760447978973388671875</LatitudeDegrees>
              <LongitudeDegrees>-73.03445390425622463226318359375</LongitudeDegrees>
            </Position>
            <AltitudeMeters>563.79998779296875</AltitudeMeters>
            <DistanceMeters>7445.274845411</DistanceMeters>
          </Trackpoint>
          <Trackpoint>
            <Time>2023-01-11T17:37:13.000Z</Time>
            <Position>
              <LatitudeDegrees>-49.2226997204124927520751953125</LatitudeDegrees>
              <LongitudeDegrees>-73.03443915210664272308349609375</LongitudeDegrees>
            </Position>
            <AltitudeMeters>563.79998779296875</AltitudeMeters>
            <DistanceMeters>7446.6682105589</DistanceMeters>
          </Trackpoint>
          <Trackpoint>
            <Time>2023-01-11T17:37:21.000Z</Time>
            <Position>
              <LatitudeDegrees>-49.2227158136665821075439453125</LatitudeDegrees>
              <LongitudeDegrees>-73.03440176881849765777587890625</LongitudeDegrees>
            </Position>
            <AltitudeMeters>564.5999755859375</AltitudeMeters>
            <DistanceMeters>7449.9227888217</DistanceMeters>
          </Trackpoint>
          <Trackpoint>
            <Time>2023-01-11T17:37:23.000Z</Time>
            <Position>
              <LatitudeDegrees>-49.22271070070564746856689453125</LatitudeDegrees>
              <LongitudeDegrees>-73.03438768722116947174072265625</LongitudeDegrees>
            </Position>
            <AltitudeMeters>564.79998779296875</AltitudeMeters>
            <DistanceMeters>7451.0943568392</DistanceMeters>
          </Trackpoint>
          <Trackpoint>
            <Time>2023-01-11T17:37:26.000Z</Time>
            <Position>
              <LatitudeDegrees>-49.22270818613469600677490234375</LatitudeDegrees>
              <LongitudeDegrees>-73.034399338066577911376953125</LongitudeDegrees>
            </Position>
            <AltitudeMeters>564.79998779296875</AltitudeMeters>
            <DistanceMeters>7451.9857864365</DistanceMeters>
          </Trackpoint>
          <Trackpoint>
            <Time>2023-01-11T17:37:31.000Z</Time>
            <Position>
              <LatitudeDegrees>-49.22270818613469600677490234375</LatitudeDegrees>
              <LongitudeDegrees>-73.034399338066577911376953125</LongitudeDegrees>
            </Position>
            <AltitudeMeters>564</AltitudeMeters>
            <DistanceMeters>7451.9857864365</DistanceMeters>
          </Trackpoint>
          <Trackpoint>
            <Time>2023-01-11T17:37:33.000Z</Time>
            <Position>
              <LatitudeDegrees>-49.22270818613469600677490234375</LatitudeDegrees>
              <LongitudeDegrees>-73.034399338066577911376953125</LongitudeDegrees>
            </Position>
            <AltitudeMeters>563.79998779296875</AltitudeMeters>
            <DistanceMeters>7451.9857864365</DistanceMeters>
          </Trackpoint>
          <Trackpoint>
            <Time>2023-01-11T17:37:36.000Z</Time>
            <Position>
              <LatitudeDegrees>-49.22270818613469600677490234375</LatitudeDegrees>
              <LongitudeDegrees>-73.0343981646001338958740234375</LongitudeDegrees>
            </Position>
            <AltitudeMeters>563.5999755859375</AltitudeMeters>
            <DistanceMeters>7452.1201745048</DistanceMeters>
          </Trackpoint>
          <Trackpoint>
            <Time>2023-01-11T17:38:05.000Z</Time>
            <Position>
              <LatitudeDegrees>-49.22270692884922027587890625</LatitudeDegrees>
              <LongitudeDegrees>-73.03438936360180377960205078125</LongitudeDegrees>
            </Position>
            <AltitudeMeters>563.20001220703125</AltitudeMeters>
            <DistanceMeters>7452.7785388943</DistanceMeters>
          </Trackpoint>
          <Trackpoint>
            <Time>2023-01-11T17:38:08.000Z</Time>
            <Position>
              <LatitudeDegrees>-49.2227070964872837066650390625</LatitudeDegrees>
              <LongitudeDegrees>-73.0343857593834400177001953125</LongitudeDegrees>
            </Position>
            <AltitudeMeters>563.20001220703125</AltitudeMeters>
            <DistanceMeters>7453.0473150308</DistanceMeters>
          </Trackpoint>
          <Trackpoint>
            <Time>2023-01-11T17:38:33.000Z</Time>
            <Position>
              <LatitudeDegrees>-49.22271992079913616180419921875</LatitudeDegrees>
              <LongitudeDegrees>-73.034347034990787506103515625</LongitudeDegrees>
            </Position>
            <AltitudeMeters>563</AltitudeMeters>
            <DistanceMeters>7456.2032894156</DistanceMeters>
          </Trackpoint>
          <Trackpoint>
            <Time>2023-01-11T17:38:35.000Z</Time>
            <Position>
              <LatitudeDegrees>-49.2227285541594028472900390625</LatitudeDegrees>
              <LongitudeDegrees>-73.0343042872846126556396484375</LongitudeDegrees>
            </Position>
            <AltitudeMeters>563.20001220703125</AltitudeMeters>
            <DistanceMeters>7459.4564800943</DistanceMeters>
          </Trackpoint>
          <Trackpoint>
            <Time>2023-01-11T17:38:43.000Z</Time>
            <Position>
              <LatitudeDegrees>-49.2227518558502197265625</LatitudeDegrees>
              <LongitudeDegrees>-73.03416724316775798797607421875</LongitudeDegrees>
            </Position>
            <AltitudeMeters>563.4000244140625</AltitudeMeters>
            <DistanceMeters>7469.750992086</DistanceMeters>
          </Trackpoint>
          <Trackpoint>
            <Time>2023-01-11T17:38:46.000Z</Time>
            <Position>
              <LatitudeDegrees>-49.2227553762495517730712890625</LatitudeDegrees>
              <LongitudeDegrees>-73.03417428396642208099365234375</LongitudeDegrees>
            </Position>
            <AltitudeMeters>563.5999755859375</AltitudeMeters>
            <DistanceMeters>7470.3954946201</DistanceMeters>
          </Trackpoint>
          <Trackpoint>
            <Time>2023-01-11T17:38:56.000Z</Time>
            <Position>
              <LatitudeDegrees>-49.2227617464959621429443359375</LatitudeDegrees>
              <LongitudeDegrees>-73.03409297950565814971923828125</LongitudeDegrees>
            </Position>
            <AltitudeMeters>563.20001220703125</AltitudeMeters>
            <DistanceMeters>7476.3473842267</DistanceMeters>
          </Trackpoint>
          <Trackpoint>
            <Time>2023-01-11T17:38:58.000Z</Time>
            <Position>
              <LatitudeDegrees>-49.22276585362851619720458984375</LatitudeDegrees>
              <LongitudeDegrees>-73.0340665765106678009033203125</LongitudeDegrees>
            </Position>
            <AltitudeMeters>562.79998779296875</AltitudeMeters>
            <DistanceMeters>7478.3179001162</DistanceMeters>
          </Trackpoint>
          <Trackpoint>
            <Time>2023-01-11T17:39:02.000Z</Time>
            <Position>
              <LatitudeDegrees>-49.222777672111988067626953125</LatitudeDegrees>
              <LongitudeDegrees>-73.03400672972202301025390625</LongitudeDegrees>
            </Position>
            <AltitudeMeters>562.20001220703125</AltitudeMeters>
            <DistanceMeters>7482.8633170282</DistanceMeters>
          </Trackpoint>
          <Trackpoint>
            <Time>2023-01-11T17:39:04.000Z</Time>
            <Position>
              <LatitudeDegrees>-49.22278597019612789154052734375</LatitudeDegrees>
              <LongitudeDegrees>-73.03398099727928638458251953125</LongitudeDegrees>
            </Position>
            <AltitudeMeters>562</AltitudeMeters>
            <DistanceMeters>7484.9495808768</DistanceMeters>
          </Trackpoint>
          <Trackpoint>
            <Time>2023-01-11T17:39:05.000Z</Time>
            <Position>
              <LatitudeDegrees>-49.22278873622417449951171875</LatitudeDegrees>
              <LongitudeDegrees>-73.03396892733871936798095703125</LongitudeDegrees>
            </Position>
            <AltitudeMeters>561.79998779296875</AltitudeMeters>
            <DistanceMeters>7485.8806487254</DistanceMeters>
          </Trackpoint>
          <Trackpoint>
            <Time>2023-01-11T17:39:09.000Z</Time>
            <Position>
              <LatitudeDegrees>-49.22278580255806446075439453125</LatitudeDegrees>
              <LongitudeDegrees>-73.0339240841567516326904296875</LongitudeDegrees>
            </Position>
            <AltitudeMeters>561.79998779296875</AltitudeMeters>
            <DistanceMeters>7489.1573484205</DistanceMeters>
          </Trackpoint>
          <Trackpoint>
            <Time>2023-01-11T17:39:10.000Z</Time>
            <Position>
              <LatitudeDegrees>-49.22278244979679584503173828125</LatitudeDegrees>
              <LongitudeDegrees>-73.03390606306493282318115234375</LongitudeDegrees>
            </Position>
            <AltitudeMeters>561.79998779296875</AltitudeMeters>
            <DistanceMeters>7490.5212383528</DistanceMeters>
          </Trackpoint>
          <Trackpoint>
            <Time>2023-01-11T17:39:15.000Z</Time>
            <Position>
              <LatitudeDegrees>-49.22276861965656280517578125</LatitudeDegrees>
              <LongitudeDegrees>-73.033848814666271209716796875</LongitudeDegrees>
            </Position>
            <AltitudeMeters>561.4000244140625</AltitudeMeters>
            <DistanceMeters>7494.9580803206</DistanceMeters>
          </Trackpoint>
          <Trackpoint>
            <Time>2023-01-11T17:39:16.000Z</Time>
            <Position>
              <LatitudeDegrees>-49.222762249410152435302734375</LatitudeDegrees>
              <LongitudeDegrees>-73.033829368650913238525390625</LongitudeDegrees>
            </Position>
            <AltitudeMeters>561.4000244140625</AltitudeMeters>
            <DistanceMeters>7496.536782667</DistanceMeters>
          </Trackpoint>
          <Trackpoint>
            <Time>2023-01-11T17:39:24.000Z</Time>
            <Position>
              <LatitudeDegrees>-49.22276191413402557373046875</LatitudeDegrees>
              <LongitudeDegrees>-73.03368352353572845458984375</LongitudeDegrees>
            </Position>
            <AltitudeMeters>561.4000244140625</AltitudeMeters>
            <DistanceMeters>7507.138970723</DistanceMeters>
          </Trackpoint>
          <Trackpoint>
            <Time>2023-01-11T17:39:25.000Z</Time>
            <Position>
              <LatitudeDegrees>-49.2227627523243427276611328125</LatitudeDegrees>
              <LongitudeDegrees>-73.033662736415863037109375</LongitudeDegrees>
            </Position>
            <AltitudeMeters>561.4000244140625</AltitudeMeters>
            <DistanceMeters>7508.6534473378</DistanceMeters>
          </Trackpoint>
          <Trackpoint>
            <Time>2023-01-11T17:39:27.000Z</Time>
            <Position>
              <LatitudeDegrees>-49.22276652418076992034912109375</LatitudeDegrees>
              <LongitudeDegrees>-73.033624179661273956298828125</LongitudeDegrees>
            </Position>
            <AltitudeMeters>563.20001220703125</AltitudeMeters>
            <DistanceMeters>7511.4883667432</DistanceMeters>
          </Trackpoint>
          <Trackpoint>
            <Time>2023-01-11T17:39:37.000Z</Time>
            <Position>
              <LatitudeDegrees>-49.222779683768749237060546875</LatitudeDegrees>
              <LongitudeDegrees>-73.0334365926682949066162109375</LongitudeDegrees>
            </Position>
            <AltitudeMeters>562.5999755859375</AltitudeMeters>
            <DistanceMeters>7525.2031942058</DistanceMeters>
          </Trackpoint>
          <Trackpoint>
            <Time>2023-01-11T17:39:47.000Z</Time>
            <Position>
              <LatitudeDegrees>-49.22282268293201923370361328125</LatitudeDegrees>
              <LongitudeDegrees>-73.03326736204326152801513671875</LongitudeDegrees>
            </Position>
            <AltitudeMeters>562.20001220703125</AltitudeMeters>
            <DistanceMeters>7538.4033591692</DistanceMeters>
          </Trackpoint>
          <Trackpoint>
            <Time>2023-01-11T17:39:50.000Z</Time>
            <Position>
              <LatitudeDegrees>-49.2228309810161590576171875</LatitudeDegrees>
              <LongitudeDegrees>-73.03322109393775463104248046875</LongitudeDegrees>
            </Position>
            <AltitudeMeters>561.5999755859375</AltitudeMeters>
            <DistanceMeters>7541.8922763432</DistanceMeters>
          </Trackpoint>
          <Trackpoint>
            <Time>2023-01-11T17:39:58.000Z</Time>
            <Position>
              <LatitudeDegrees>-49.222845397889614105224609375</LatitudeDegrees>
              <LongitudeDegrees>-73.03308539092540740966796875</LongitudeDegrees>
            </Position>
            <AltitudeMeters>562</AltitudeMeters>
            <DistanceMeters>7551.885906588</DistanceMeters>
          </Trackpoint>
          <Trackpoint>
            <Time>2023-01-11T17:40:05.000Z</Time>
            <Position>
              <LatitudeDegrees>-49.2228596471250057220458984375</LatitudeDegrees>
              <LongitudeDegrees>-73.0329692177474498748779296875</LongitudeDegrees>
            </Position>
            <AltitudeMeters>562</AltitudeMeters>
            <DistanceMeters>7560.4783395965</DistanceMeters>
          </Trackpoint>
          <Trackpoint>
            <Time>2023-01-11T17:40:10.000Z</Time>
            <Position>
              <LatitudeDegrees>-49.22286760993301868438720703125</LatitudeDegrees>
              <LongitudeDegrees>-73.032879866659641265869140625</LongitudeDegrees>
            </Position>
            <AltitudeMeters>562.5999755859375</AltitudeMeters>
            <DistanceMeters>7567.0331167644</DistanceMeters>
          </Trackpoint>
          <Trackpoint>
            <Time>2023-01-11T17:40:15.000Z</Time>
            <Position>
              <LatitudeDegrees>-49.22287146560847759246826171875</LatitudeDegrees>
              <LongitudeDegrees>-73.0327856540679931640625</LongitudeDegrees>
            </Position>
            <AltitudeMeters>562.20001220703125</AltitudeMeters>
            <DistanceMeters>7573.8948088719</DistanceMeters>
          </Trackpoint>
          <Trackpoint>
            <Time>2023-01-11T17:40:23.000Z</Time>
            <Position>
              <LatitudeDegrees>-49.22287456691265106201171875</LatitudeDegrees>
              <LongitudeDegrees>-73.0326636135578155517578125</LongitudeDegrees>
            </Position>
            <AltitudeMeters>562.5999755859375</AltitudeMeters>
            <DistanceMeters>7582.773070936</DistanceMeters>
          </Trackpoint>
          <Trackpoint>
            <Time>2023-01-11T17:40:26.000Z</Time>
            <Position>
              <LatitudeDegrees>-49.22287833876907825469970703125</LatitudeDegrees>
              <LongitudeDegrees>-73.0326151661574840545654296875</LongitudeDegrees>
            </Position>
            <AltitudeMeters>562.5999755859375</AltitudeMeters>
            <DistanceMeters>7586.3210177455</DistanceMeters>
          </Trackpoint>
          <Trackpoint>
            <Time>2023-01-11T17:40:36.000Z</Time>
            <Position>
              <LatitudeDegrees>-49.22288068570196628570556640625</LatitudeDegrees>
              <LongitudeDegrees>-73.03246487863361835479736328125</LongitudeDegrees>
            </Position>
            <AltitudeMeters>563.79998779296875</AltitudeMeters>
            <DistanceMeters>7597.2495030499</DistanceMeters>
          </Trackpoint>
          <Trackpoint>
            <Time>2023-01-11T17:40:37.000Z</Time>
            <Position>
              <LatitudeDegrees>-49.22288068570196628570556640625</LatitudeDegrees>
              <LongitudeDegrees>-73.0324498750269412994384765625</LongitudeDegrees>
            </Position>
            <AltitudeMeters>564.4000244140625</AltitudeMeters>
            <DistanceMeters>7598.3371335083</DistanceMeters>
          </Trackpoint>
          <Trackpoint>
            <Time>2023-01-11T17:40:39.000Z</Time>
            <Position>
              <LatitudeDegrees>-49.22288286499679088592529296875</LatitudeDegrees>
              <LongitudeDegrees>-73.03242020308971405029296875</LongitudeDegrees>
            </Position>
            <AltitudeMeters>565</AltitudeMeters>
            <DistanceMeters>7600.5082391952</DistanceMeters>
          </Trackpoint>
          <Trackpoint>
            <Time>2023-01-11T17:40:42.000Z</Time>
            <Position>
              <LatitudeDegrees>-49.22289510257542133331298828125</LatitudeDegrees>
              <LongitudeDegrees>-73.03236748091876506805419921875</LongitudeDegrees>
            </Position>
            <AltitudeMeters>565</AltitudeMeters>
            <DistanceMeters>7604.5755601864</DistanceMeters>
          </Trackpoint>
          <Trackpoint>
            <Time>2023-01-11T17:40:45.000Z</Time>
            <Position>
              <LatitudeDegrees>-49.22290918417274951934814453125</LatitudeDegrees>
              <LongitudeDegrees>-73.03231132216751575469970703125</LongitudeDegrees>
            </Position>
            <AltitudeMeters>563.79998779296875</AltitudeMeters>
            <DistanceMeters>7608.9488543577</DistanceMeters>
          </Trackpoint>
          <Trackpoint>
            <Time>2023-01-11T17:40:55.000Z</Time>
            <Position>
              <LatitudeDegrees>-49.2229169793426990509033203125</LatitudeDegrees>
              <LongitudeDegrees>-73.03214988671243190765380859375</LongitudeDegrees>
            </Position>
            <AltitudeMeters>563.5999755859375</AltitudeMeters>
            <DistanceMeters>7620.7168300691</DistanceMeters>
          </Trackpoint>
          <Trackpoint>
            <Time>2023-01-11T17:40:58.000Z</Time>
            <Position>
              <LatitudeDegrees>-49.22291035763919353485107421875</LatitudeDegrees>
              <LongitudeDegrees>-73.03210814483463764190673828125</LongitudeDegrees>
            </Position>
            <AltitudeMeters>565</AltitudeMeters>
            <DistanceMeters>7623.8397265707</DistanceMeters>
          </Trackpoint>
          <Trackpoint>
            <Time>2023-01-11T17:41:06.000Z</Time>
            <Position>
              <LatitudeDegrees>-49.22288822941482067108154296875</LatitudeDegrees>
              <LongitudeDegrees>-73.0319744534790515899658203125</LongitudeDegrees>
            </Position>
            <AltitudeMeters>564.4000244140625</AltitudeMeters>
            <DistanceMeters>7633.865833042</DistanceMeters>
          </Trackpoint>
          <Trackpoint>
            <Time>2023-01-11T17:41:14.000Z</Time>
            <Position>
              <LatitudeDegrees>-49.2228743992745876312255859375</LatitudeDegrees>
              <LongitudeDegrees>-73.03184193558990955352783203125</LongitudeDegrees>
            </Position>
            <AltitudeMeters>564.79998779296875</AltitudeMeters>
            <DistanceMeters>7643.6207777146</DistanceMeters>
          </Trackpoint>
          <Trackpoint>
            <Time>2023-01-11T17:41:17.000Z</Time>
            <Position>
              <LatitudeDegrees>-49.2228757403790950775146484375</LatitudeDegrees>
              <LongitudeDegrees>-73.03178250789642333984375</LongitudeDegrees>
            </Position>
            <AltitudeMeters>565</AltitudeMeters>
            <DistanceMeters>7647.9421430181</DistanceMeters>
          </Trackpoint>
          <Trackpoint>
            <Time>2023-01-11T17:41:26.000Z</Time>
            <Position>
              <LatitudeDegrees>-49.22290465794503688812255859375</LatitudeDegrees>
              <LongitudeDegrees>-73.0316269397735595703125</LongitudeDegrees>
            </Position>
            <AltitudeMeters>564</AltitudeMeters>
            <DistanceMeters>7659.6997550325</DistanceMeters>
          </Trackpoint>
          <Trackpoint>
            <Time>2023-01-11T17:41:28.000Z</Time>
            <Position>
              <LatitudeDegrees>-49.22291278839111328125</LatitudeDegrees>
              <LongitudeDegrees>-73.03159936331212520599365234375</LongitudeDegrees>
            </Position>
            <AltitudeMeters>566</AltitudeMeters>
            <DistanceMeters>7661.8977293038</DistanceMeters>
          </Trackpoint>
          <Trackpoint>
            <Time>2023-01-11T17:41:31.000Z</Time>
            <Position>
              <LatitudeDegrees>-49.2229350842535495758056640625</LatitudeDegrees>
              <LongitudeDegrees>-73.03155192174017429351806640625</LongitudeDegrees>
            </Position>
            <AltitudeMeters>563.5999755859375</AltitudeMeters>
            <DistanceMeters>7666.1453277706</DistanceMeters>
          </Trackpoint>
          <Trackpoint>
            <Time>2023-01-11T17:41:34.000Z</Time>
            <Position>
              <LatitudeDegrees>-49.2229632474482059478759765625</LatitudeDegrees>
              <LongitudeDegrees>-73.0315124429762363433837890625</LongitudeDegrees>
            </Position>
            <AltitudeMeters>563.20001220703125</AltitudeMeters>
            <DistanceMeters>7670.3950516308</DistanceMeters>
          </Trackpoint>
          <Trackpoint>
            <Time>2023-01-11T17:41:41.000Z</Time>
            <Position>
              <LatitudeDegrees>-49.22303910367190837860107421875</LatitudeDegrees>
              <LongitudeDegrees>-73.03143558092415332794189453125</LongitudeDegrees>
            </Position>
            <AltitudeMeters>563.79998779296875</AltitudeMeters>
            <DistanceMeters>7680.5192996382</DistanceMeters>
          </Trackpoint>
          <Trackpoint>
            <Time>2023-01-11T17:41:42.000Z</Time>
            <Position>
              <LatitudeDegrees>-49.22304832376539707183837890625</LatitudeDegrees>
              <LongitudeDegrees>-73.0314190685749053955078125</LongitudeDegrees>
            </Position>
            <AltitudeMeters>563.79998779296875</AltitudeMeters>
            <DistanceMeters>7682.0980019846</DistanceMeters>
          </Trackpoint>
          <Trackpoint>
            <Time>2023-01-11T17:41:43.000Z</Time>
            <Position>
              <LatitudeDegrees>-49.2230537720024585723876953125</LatitudeDegrees>
              <LongitudeDegrees>-73.03140792064368724822998046875</LongitudeDegrees>
            </Position>
            <AltitudeMeters>563.5999755859375</AltitudeMeters>
            <DistanceMeters>7683.1081498144</DistanceMeters>
          </Trackpoint>
          <Trackpoint>
            <Time>2023-01-11T17:41:46.000Z</Time>
            <Position>
              <LatitudeDegrees>-49.22307246364653110504150390625</LatitudeDegrees>
              <LongitudeDegrees>-73.0313689447939395904541015625</LongitudeDegrees>
            </Position>
            <AltitudeMeters>562.4000244140625</AltitudeMeters>
            <DistanceMeters>7686.6228538668</DistanceMeters>
          </Trackpoint>
          <Trackpoint>
            <Time>2023-01-11T17:41:50.000Z</Time>
            <Position>
              <LatitudeDegrees>-49.22310096211731433868408203125</LatitudeDegrees>
              <LongitudeDegrees>-73.0313142947852611541748046875</LongitudeDegrees>
            </Position>
            <AltitudeMeters>562.4000244140625</AltitudeMeters>
            <DistanceMeters>7691.7065610557</DistanceMeters>
          </Trackpoint>
          <Trackpoint>
            <Time>2023-01-11T17:41:51.000Z</Time>
            <Position>
              <LatitudeDegrees>-49.223106913268566131591796875</LatitudeDegrees>
              <LongitudeDegrees>-73.03130147047340869903564453125</LongitudeDegrees>
            </Position>
            <AltitudeMeters>563.5999755859375</AltitudeMeters>
            <DistanceMeters>7692.8547732141</DistanceMeters>
          </Trackpoint>
          <Trackpoint>
            <Time>2023-01-11T17:41:58.000Z</Time>
            <Position>
              <LatitudeDegrees>-49.2231416143476963043212890625</LatitudeDegrees>
              <LongitudeDegrees>-73.03120289929211139678955078125</LongitudeDegrees>
            </Position>
            <AltitudeMeters>563.5999755859375</AltitudeMeters>
            <DistanceMeters>7700.9949636877</DistanceMeters>
          </Trackpoint>
          <Trackpoint>
            <Time>2023-01-11T17:42:02.000Z</Time>
            <Position>
              <LatitudeDegrees>-49.2231447994709014892578125</LatitudeDegrees>
              <LongitudeDegrees>-73.03113567642867565155029296875</LongitudeDegrees>
            </Position>
            <AltitudeMeters>562.5999755859375</AltitudeMeters>
            <DistanceMeters>7705.894141495</DistanceMeters>
          </Trackpoint>
          <Trackpoint>
            <Time>2023-01-11T17:42:13.000Z</Time>
            <Position>
              <LatitudeDegrees>-49.22314287163317203521728515625</LatitudeDegrees>
              <LongitudeDegrees>-73.0309443175792694091796875</LongitudeDegrees>
            </Position>
            <AltitudeMeters>564.4000244140625</AltitudeMeters>
            <DistanceMeters>7719.8063900013</DistanceMeters>
          </Trackpoint>
          <Trackpoint>
            <Time>2023-01-11T17:42:19.000Z</Time>
            <Position>
              <LatitudeDegrees>-49.22314035706222057342529296875</LatitudeDegrees>
              <LongitudeDegrees>-73.0308462493121623992919921875</LongitudeDegrees>
            </Position>
            <AltitudeMeters>562.5999755859375</AltitudeMeters>
            <DistanceMeters>7726.940991666</DistanceMeters>
          </Trackpoint>
          <Trackpoint>
            <Time>2023-01-11T17:42:21.000Z</Time>
            <Position>
              <LatitudeDegrees>-49.2231419496238231658935546875</LatitudeDegrees>
              <LongitudeDegrees>-73.030819930136203765869140625</LongitudeDegrees>
            </Position>
            <AltitudeMeters>562.5999755859375</AltitudeMeters>
            <DistanceMeters>7728.8604372081</DistanceMeters>
          </Trackpoint>
          <Trackpoint>
            <Time>2023-01-11T17:42:22.000Z</Time>
            <Position>
              <LatitudeDegrees>-49.2231396026909351348876953125</LatitudeDegrees>
              <LongitudeDegrees>-73.030795119702816009521484375</LongitudeDegrees>
            </Position>
            <AltitudeMeters>562.4000244140625</AltitudeMeters>
            <DistanceMeters>7730.6833656575</DistanceMeters>
          </Trackpoint>
          <Trackpoint>
            <Time>2023-01-11T17:42:24.000Z</Time>
            <Position>
              <LatitudeDegrees>-49.22314085997641086578369140625</LatitudeDegrees>
              <LongitudeDegrees>-73.0307346023619174957275390625</LongitudeDegrees>
            </Position>
            <AltitudeMeters>561.79998779296875</AltitudeMeters>
            <DistanceMeters>7735.0834206453</DistanceMeters>
          </Trackpoint>
          <Trackpoint>
            <Time>2023-01-11T17:42:28.000Z</Time>
            <Position>
              <LatitudeDegrees>-49.22313130460679531097412109375</LatitudeDegrees>
              <LongitudeDegrees>-73.03066528402268886566162109375</LongitudeDegrees>
            </Position>
            <AltitudeMeters>561.79998779296875</AltitudeMeters>
            <DistanceMeters>7740.2333074902</DistanceMeters>
          </Trackpoint>
          <Trackpoint>
            <Time>2023-01-11T17:42:29.000Z</Time>
            <Position>
              <LatitudeDegrees>-49.22312577255070209503173828125</LatitudeDegrees>
              <LongitudeDegrees>-73.030653633177280426025390625</LongitudeDegrees>
            </Position>
            <AltitudeMeters>561.5999755859375</AltitudeMeters>
            <DistanceMeters>7741.2829118567</DistanceMeters>
          </Trackpoint>
          <Trackpoint>
            <Time>2023-01-11T17:42:37.000Z</Time>
            <Position>
              <LatitudeDegrees>-49.2231094278395175933837890625</LatitudeDegrees>
              <LongitudeDegrees>-73.03053838200867176055908203125</LongitudeDegrees>
            </Position>
            <AltitudeMeters>561.4000244140625</AltitudeMeters>
            <DistanceMeters>7749.8564071914</DistanceMeters>
          </Trackpoint>
          <Trackpoint>
            <Time>2023-01-11T17:42:38.000Z</Time>
            <Position>
              <LatitudeDegrees>-49.22310716472566127777099609375</LatitudeDegrees>
              <LongitudeDegrees>-73.03052128292620182037353515625</LongitudeDegrees>
            </Position>
            <AltitudeMeters>561.4000244140625</AltitudeMeters>
            <DistanceMeters>7751.1242216917</DistanceMeters>
          </Trackpoint>
          <Trackpoint>
            <Time>2023-01-11T17:42:47.000Z</Time>
            <Position>
              <LatitudeDegrees>-49.223105907440185546875</LatitudeDegrees>
              <LongitudeDegrees>-73.0303728394210338592529296875</LongitudeDegrees>
            </Position>
            <AltitudeMeters>560.5999755859375</AltitudeMeters>
            <DistanceMeters>7761.9163450219</DistanceMeters>
          </Trackpoint>
          <Trackpoint>
            <Time>2023-01-11T17:42:55.000Z</Time>
            <Position>
              <LatitudeDegrees>-49.223078079521656036376953125</LatitudeDegrees>
              <LongitudeDegrees>-73.03023680113255977630615234375</LongitudeDegrees>
            </Position>
            <AltitudeMeters>561.20001220703125</AltitudeMeters>
            <DistanceMeters>7772.2790507048</DistanceMeters>
          </Trackpoint>
          <Trackpoint>
            <Time>2023-01-11T17:42:57.000Z</Time>
            <Position>
              <LatitudeDegrees>-49.22306290827691555023193359375</LatitudeDegrees>
              <LongitudeDegrees>-73.03020444698631763458251953125</LongitudeDegrees>
            </Position>
            <AltitudeMeters>563.5999755859375</AltitudeMeters>
            <DistanceMeters>7775.1738582874</DistanceMeters>
          </Trackpoint>
          <Trackpoint>
            <Time>2023-01-11T17:42:58.000Z</Time>
            <Position>
              <LatitudeDegrees>-49.22305720858275890350341796875</LatitudeDegrees>
              <LongitudeDegrees>-73.03018751554191112518310546875</LongitudeDegrees>
            </Position>
            <AltitudeMeters>563.79998779296875</AltitudeMeters>
            <DistanceMeters>7776.5574681334</DistanceMeters>
          </Trackpoint>
          <Trackpoint>
            <Time>2023-01-11T17:43:04.000Z</Time>
            <Position>
              <LatitudeDegrees>-49.2230591364204883575439453125</LatitudeDegrees>
              <LongitudeDegrees>-73.03008777089416980743408203125</LongitudeDegrees>
            </Position>
            <AltitudeMeters>561.79998779296875</AltitudeMeters>
            <DistanceMeters>7783.8106898564</DistanceMeters>
          </Trackpoint>
          <Trackpoint>
            <Time>2023-01-11T17:43:06.000Z</Time>
            <Position>
              <LatitudeDegrees>-49.2230504192411899566650390625</LatitudeDegrees>
              <LongitudeDegrees>-73.03006212227046489715576171875</LongitudeDegrees>
            </Position>
            <AltitudeMeters>561.79998779296875</AltitudeMeters>
            <DistanceMeters>7785.9120483173</DistanceMeters>
          </Trackpoint>
          <Trackpoint>
            <Time>2023-01-11T17:43:17.000Z</Time>
            <Position>
              <LatitudeDegrees>-49.22301278449594974517822265625</LatitudeDegrees>
              <LongitudeDegrees>-73.0298722721636295318603515625</LongitudeDegrees>
            </Position>
            <AltitudeMeters>562.20001220703125</AltitudeMeters>
            <DistanceMeters>7800.3342111513</DistanceMeters>
          </Trackpoint>
          <Trackpoint>
            <Time>2023-01-11T17:43:27.000Z</Time>
            <Position>
              <LatitudeDegrees>-49.222991578280925750732421875</LatitudeDegrees>
              <LongitudeDegrees>-73.02969038486480712890625</LongitudeDegrees>
            </Position>
            <AltitudeMeters>563</AltitudeMeters>
            <DistanceMeters>7813.7649522717</DistanceMeters>
          </Trackpoint>
          <Trackpoint>
            <Time>2023-01-11T17:43:29.000Z</Time>
            <Position>
              <LatitudeDegrees>-49.222995936870574951171875</LatitudeDegrees>
              <LongitudeDegrees>-73.029660545289516448974609375</LongitudeDegrees>
            </Position>
            <AltitudeMeters>563.79998779296875</AltitudeMeters>
            <DistanceMeters>7815.9894706221</DistanceMeters>
          </Trackpoint>
          <Trackpoint>
            <Time>2023-01-11T17:43:35.000Z</Time>
            <Position>
              <LatitudeDegrees>-49.22301194630563259124755859375</LatitudeDegrees>
              <LongitudeDegrees>-73.02956474013626575469970703125</LongitudeDegrees>
            </Position>
            <AltitudeMeters>561.5999755859375</AltitudeMeters>
            <DistanceMeters>7823.1782902393</DistanceMeters>
          </Trackpoint>
          <Trackpoint>
            <Time>2023-01-11T17:43:37.000Z</Time>
            <Position>
              <LatitudeDegrees>-49.22302233986556529998779296875</LatitudeDegrees>
              <LongitudeDegrees>-73.02952718921005725860595703125</LongitudeDegrees>
            </Position>
            <AltitudeMeters>561.4000244140625</AltitudeMeters>
            <DistanceMeters>7826.1409299919</DistanceMeters>
          </Trackpoint>
          <Trackpoint>
            <Time>2023-01-11T17:43:46.000Z</Time>
            <Position>
              <LatitudeDegrees>-49.223041869699954986572265625</LatitudeDegrees>
              <LongitudeDegrees>-73.02936508320271968841552734375</LongitudeDegrees>
            </Position>
            <AltitudeMeters>562.20001220703125</AltitudeMeters>
            <DistanceMeters>7838.1240963352</DistanceMeters>
          </Trackpoint>
          <Trackpoint>
            <Time>2023-01-11T17:43:47.000Z</Time>
            <Position>
              <LatitudeDegrees>-49.22304161824285984039306640625</LatitudeDegrees>
              <LongitudeDegrees>-73.02935167215764522552490234375</LongitudeDegrees>
            </Position>
            <AltitudeMeters>562.79998779296875</AltitudeMeters>
            <DistanceMeters>7839.1024562399</DistanceMeters>
          </Trackpoint>
          <Trackpoint>
            <Time>2023-01-11T17:43:48.000Z</Time>
            <Position>
              <LatitudeDegrees>-49.2230403609573841094970703125</LatitudeDegrees>
              <LongitudeDegrees>-73.029339015483856201171875</LongitudeDegrees>
            </Position>
            <AltitudeMeters>563.79998779296875</AltitudeMeters>
            <DistanceMeters>7840.0383608371</DistanceMeters>
          </Trackpoint>
          <Trackpoint>
            <Time>2023-01-11T17:43:50.000Z</Time>
            <Position>
              <LatitudeDegrees>-49.22303893603384494781494140625</LatitudeDegrees>
              <LongitudeDegrees>-73.02931060083210468292236328125</LongitudeDegrees>
            </Position>
            <AltitudeMeters>564</AltitudeMeters>
            <DistanceMeters>7842.1115989776</DistanceMeters>
          </Trackpoint>
          <Trackpoint>
            <Time>2023-01-11T17:43:57.000Z</Time>
            <Position>
              <LatitudeDegrees>-49.22302368097007274627685546875</LatitudeDegrees>
              <LongitudeDegrees>-73.02920549176633358001708984375</LongitudeDegrees>
            </Position>
            <AltitudeMeters>563</AltitudeMeters>
            <DistanceMeters>7849.9390550568</DistanceMeters>
          </Trackpoint>
          <Trackpoint>
            <Time>2023-01-11T17:43:58.000Z</Time>
            <Position>
              <LatitudeDegrees>-49.223021082580089569091796875</LatitudeDegrees>
              <LongitudeDegrees>-73.02918721921741962432861328125</LongitudeDegrees>
            </Position>
            <AltitudeMeters>562.20001220703125</AltitudeMeters>
            <DistanceMeters>7851.3029449891</DistanceMeters>
          </Trackpoint>
          <Trackpoint>
            <Time>2023-01-11T17:44:03.000Z</Time>
            <Position>
              <LatitudeDegrees>-49.22300205565989017486572265625</LatitudeDegrees>
              <LongitudeDegrees>-73.02911438047885894775390625</LongitudeDegrees>
            </Position>
            <AltitudeMeters>562</AltitudeMeters>
            <DistanceMeters>7857.00613141</DistanceMeters>
          </Trackpoint>
          <Trackpoint>
            <Time>2023-01-11T17:44:04.000Z</Time>
            <Position>
              <LatitudeDegrees>-49.2229987867176532745361328125</LatitudeDegrees>
              <LongitudeDegrees>-73.02910096943378448486328125</LongitudeDegrees>
            </Position>
            <AltitudeMeters>562</AltitudeMeters>
            <DistanceMeters>7858.0470969105</DistanceMeters>
          </Trackpoint>
          <Trackpoint>
            <Time>2023-01-11T17:44:07.000Z</Time>
            <Position>
              <LatitudeDegrees>-49.2229917459189891815185546875</LatitudeDegrees>
              <LongitudeDegrees>-73.0290491692721843719482421875</LongitudeDegrees>
            </Position>
            <AltitudeMeters>561.20001220703125</AltitudeMeters>
            <DistanceMeters>7861.8930383057</DistanceMeters>
          </Trackpoint>
          <Trackpoint>
            <Time>2023-01-11T17:44:21.000Z</Time>
            <Position>
              <LatitudeDegrees>-49.2229679413139820098876953125</LatitudeDegrees>
              <LongitudeDegrees>-73.028790168464183807373046875</LongitudeDegrees>
            </Position>
            <AltitudeMeters>561.4000244140625</AltitudeMeters>
            <DistanceMeters>7880.9062192674</DistanceMeters>
          </Trackpoint>
          <Trackpoint>
            <Time>2023-01-11T17:44:24.000Z</Time>
            <Position>
              <LatitudeDegrees>-49.222955368459224700927734375</LatitudeDegrees>
              <LongitudeDegrees>-73.0287514440715312957763671875</LongitudeDegrees>
            </Position>
            <AltitudeMeters>563.20001220703125</AltitudeMeters>
            <DistanceMeters>7884.0507277673</DistanceMeters>
          </Trackpoint>
          <Trackpoint>
            <Time>2023-01-11T17:44:27.000Z</Time>
            <Position>
              <LatitudeDegrees>-49.22293449752032756805419921875</LatitudeDegrees>
              <LongitudeDegrees>-73.02870023064315319061279296875</LongitudeDegrees>
            </Position>
            <AltitudeMeters>564.20001220703125</AltitudeMeters>
            <DistanceMeters>7888.4384518902</DistanceMeters>
          </Trackpoint>
          <Trackpoint>
            <Time>2023-01-11T17:44:30.000Z</Time>
            <Position>
              <LatitudeDegrees>-49.22292477451264858245849609375</LatitudeDegrees>
              <LongitudeDegrees>-73.028640635311603546142578125</LongitudeDegrees>
            </Position>
            <AltitudeMeters>564.20001220703125</AltitudeMeters>
            <DistanceMeters>7892.9026851628</DistanceMeters>
          </Trackpoint>
          <Trackpoint>
            <Time>2023-01-11T17:44:38.000Z</Time>
            <Position>
              <LatitudeDegrees>-49.22292393632233142852783203125</LatitudeDegrees>
              <LongitudeDegrees>-73.02850023843348026275634765625</LongitudeDegrees>
            </Position>
            <AltitudeMeters>562.79998779296875</AltitudeMeters>
            <DistanceMeters>7903.1091028427</DistanceMeters>
          </Trackpoint>
          <Trackpoint>
            <Time>2023-01-11T17:44:47.000Z</Time>
            <Position>
              <LatitudeDegrees>-49.2229337431490421295166015625</LatitudeDegrees>
              <LongitudeDegrees>-73.0283497832715511322021484375</LongitudeDegrees>
            </Position>
            <AltitudeMeters>562</AltitudeMeters>
            <DistanceMeters>7914.1006174218</DistanceMeters>
          </Trackpoint>
          <Trackpoint>
            <Time>2023-01-11T17:44:49.000Z</Time>
            <Position>
              <LatitudeDegrees>-49.2229407839477062225341796875</LatitudeDegrees>
              <LongitudeDegrees>-73.02831063978374004364013671875</LongitudeDegrees>
            </Position>
            <AltitudeMeters>561.79998779296875</AltitudeMeters>
            <DistanceMeters>7917.0525699568</DistanceMeters>
          </Trackpoint>
          <Trackpoint>
            <Time>2023-01-11T17:44:56.000Z</Time>
            <Position>
              <LatitudeDegrees>-49.22296584583818912506103515625</LatitudeDegrees>
              <LongitudeDegrees>-73.02819974720478057861328125</LongitudeDegrees>
            </Position>
            <AltitudeMeters>560.5999755859375</AltitudeMeters>
            <DistanceMeters>7925.5827725326</DistanceMeters>
          </Trackpoint>
          <Trackpoint>
            <Time>2023-01-11T17:44:59.000Z</Time>
            <Position>
              <LatitudeDegrees>-49.22298763878643512725830078125</LatitudeDegrees>
              <LongitudeDegrees>-73.02814207971096038818359375</LongitudeDegrees>
            </Position>
            <AltitudeMeters>561.20001220703125</AltitudeMeters>
            <DistanceMeters>7930.4263392558</DistanceMeters>
          </Trackpoint>
          <Trackpoint>
            <Time>2023-01-11T17:45:04.000Z</Time>
            <Position>
              <LatitudeDegrees>-49.22300809063017368316650390625</LatitudeDegrees>
              <LongitudeDegrees>-73.02806697785854339599609375</LongitudeDegrees>
            </Position>
            <AltitudeMeters>562</AltitudeMeters>
            <DistanceMeters>7936.3409411987</DistanceMeters>
          </Trackpoint>
          <Trackpoint>
            <Time>2023-01-11T17:45:06.000Z</Time>
            <Position>
              <LatitudeDegrees>-49.22301596961915493011474609375</LatitudeDegrees>
              <LongitudeDegrees>-73.02803269587457180023193359375</LongitudeDegrees>
            </Position>
            <AltitudeMeters>560.79998779296875</AltitudeMeters>
            <DistanceMeters>7938.9812478125</DistanceMeters>
          </Trackpoint>
          <Trackpoint>
            <Time>2023-01-11T17:45:10.000Z</Time>
            <Position>
              <LatitudeDegrees>-49.22304488718509674072265625</LatitudeDegrees>
              <LongitudeDegrees>-73.02795340307056903839111328125</LongitudeDegrees>
            </Position>
            <AltitudeMeters>560.79998779296875</AltitudeMeters>
            <DistanceMeters>7945.5826983288</DistanceMeters>
          </Trackpoint>
          <Trackpoint>
            <Time>2023-01-11T17:45:20.000Z</Time>
            <Position>
              <LatitudeDegrees>-49.22309048473834991455078125</LatitudeDegrees>
              <LongitudeDegrees>-73.0277650617063045501708984375</LongitudeDegrees>
            </Position>
            <AltitudeMeters>560.79998779296875</AltitudeMeters>
            <DistanceMeters>7960.1840717177</DistanceMeters>
          </Trackpoint>
          <Trackpoint>
            <Time>2023-01-11T17:45:28.000Z</Time>
            <Position>
              <LatitudeDegrees>-49.223131723701953887939453125</LatitudeDegrees>
              <LongitudeDegrees>-73.0276416800916194915771484375</LongitudeDegrees>
            </Position>
            <AltitudeMeters>560</AltitudeMeters>
            <DistanceMeters>7970.2595925173</DistanceMeters>
          </Trackpoint>
          <Trackpoint>
            <Time>2023-01-11T17:45:29.000Z</Time>
            <Position>
              <LatitudeDegrees>-49.2231394350528717041015625</LatitudeDegrees>
              <LongitudeDegrees>-73.027631454169750213623046875</LongitudeDegrees>
            </Position>
            <AltitudeMeters>559.5999755859375</AltitudeMeters>
            <DistanceMeters>7971.3919665081</DistanceMeters>
          </Trackpoint>
          <Trackpoint>
            <Time>2023-01-11T17:45:34.000Z</Time>
            <Position>
              <LatitudeDegrees>-49.223169945180416107177734375</LatitudeDegrees>
              <LongitudeDegrees>-73.02757437340915203094482421875</LongitudeDegrees>
            </Position>
            <AltitudeMeters>561</AltitudeMeters>
            <DistanceMeters>7976.7531914913</DistanceMeters>
          </Trackpoint>
          <Trackpoint>
            <Time>2023-01-11T17:45:36.000Z</Time>
            <Position>
              <LatitudeDegrees>-49.223179332911968231201171875</LatitudeDegrees>
              <LongitudeDegrees>-73.0275441147387027740478515625</LongitudeDegrees>
            </Position>
            <AltitudeMeters>561</AltitudeMeters>
            <DistanceMeters>7979.1870629233</DistanceMeters>
          </Trackpoint>
          <Trackpoint>
            <Time>2023-01-11T17:45:40.000Z</Time>
            <Position>
              <LatitudeDegrees>-49.223196767270565032958984375</LatitudeDegrees>
              <LongitudeDegrees>-73.027485273778438568115234375</LongitudeDegrees>
            </Position>
            <AltitudeMeters>559.79998779296875</AltitudeMeters>
            <DistanceMeters>7983.8829597147</DistanceMeters>
          </Trackpoint>
          <Trackpoint>
            <Time>2023-01-11T17:45:42.000Z</Time>
            <Position>
              <LatitudeDegrees>-49.2232079990208148956298828125</LatitudeDegrees>
              <LongitudeDegrees>-73.02746222354471683502197265625</LongitudeDegrees>
            </Position>
            <AltitudeMeters>560</AltitudeMeters>
            <DistanceMeters>7985.9735474309</DistanceMeters>
          </Trackpoint>
          <Trackpoint>
            <Time>2023-01-11T17:45:47.000Z</Time>
            <Position>
              <LatitudeDegrees>-49.22324764542281627655029296875</LatitudeDegrees>
              <LongitudeDegrees>-73.02742266096174716949462890625</LongitudeDegrees>
            </Position>
            <AltitudeMeters>560.20001220703125</AltitudeMeters>
            <DistanceMeters>7991.2404625465</DistanceMeters>
          </Trackpoint>
          <Trackpoint>
            <Time>2023-01-11T17:45:56.000Z</Time>
            <Position>
              <LatitudeDegrees>-49.22328167594969272613525390625</LatitudeDegrees>
              <LongitudeDegrees>-73.027288131415843963623046875</LongitudeDegrees>
            </Position>
            <AltitudeMeters>560.5999755859375</AltitudeMeters>
            <DistanceMeters>8001.7274688406</DistanceMeters>
          </Trackpoint>
          <Trackpoint>
            <Time>2023-01-11T17:45:58.000Z</Time>
            <Position>
              <LatitudeDegrees>-49.2232810892164707183837890625</LatitudeDegrees>
              <LongitudeDegrees>-73.02726767957210540771484375</LongitudeDegrees>
            </Position>
            <AltitudeMeters>561</AltitudeMeters>
            <DistanceMeters>8003.2179046175</DistanceMeters>
          </Trackpoint>
          <Trackpoint>
            <Time>2023-01-11T17:46:02.000Z</Time>
            <Position>
              <LatitudeDegrees>-49.22328435815870761871337890625</LatitudeDegrees>
              <LongitudeDegrees>-73.02721193991601467132568359375</LongitudeDegrees>
            </Position>
            <AltitudeMeters>562.20001220703125</AltitudeMeters>
            <DistanceMeters>8007.286335534</DistanceMeters>
          </Trackpoint>
          <Trackpoint>
            <Time>2023-01-11T17:46:03.000Z</Time>
            <Position>
              <LatitudeDegrees>-49.2232864536345005035400390625</LatitudeDegrees>
              <LongitudeDegrees>-73.0272017978131771087646484375</LongitudeDegrees>
            </Position>
            <AltitudeMeters>562.5999755859375</AltitudeMeters>
            <DistanceMeters>8008.058336211</DistanceMeters>
          </Trackpoint>
          <Trackpoint>
            <Time>2023-01-11T17:46:05.000Z</Time>
            <Position>
              <LatitudeDegrees>-49.2232948355376720428466796875</LatitudeDegrees>
              <LongitudeDegrees>-73.02717648446559906005859375</LongitudeDegrees>
            </Position>
            <AltitudeMeters>563.20001220703125</AltitudeMeters>
            <DistanceMeters>8010.1206567498</DistanceMeters>
          </Trackpoint>
          <Trackpoint>
            <Time>2023-01-11T17:46:07.000Z</Time>
            <Position>
              <LatitudeDegrees>-49.22330380417406558990478515625</LatitudeDegrees>
              <LongitudeDegrees>-73.02715259604156017303466796875</LongitudeDegrees>
            </Position>
            <AltitudeMeters>564.4000244140625</AltitudeMeters>
            <DistanceMeters>8012.1229938696</DistanceMeters>
          </Trackpoint>
          <Trackpoint>
            <Time>2023-01-11T17:46:08.000Z</Time>
            <Position>
              <LatitudeDegrees>-49.2233095876872539520263671875</LatitudeDegrees>
              <LongitudeDegrees>-73.02714169956743717193603515625</LongitudeDegrees>
            </Position>
            <AltitudeMeters>565.5999755859375</AltitudeMeters>
            <DistanceMeters>8013.1464629055</DistanceMeters>
          </Trackpoint>
          <Trackpoint>
            <Time>2023-01-11T17:46:09.000Z</Time>
            <Position>
              <LatitudeDegrees>-49.2233159579336643218994140625</LatitudeDegrees>
              <LongitudeDegrees>-73.02713180892169475555419921875</LongitudeDegrees>
            </Position>
            <AltitudeMeters>566.5999755859375</AltitudeMeters>
            <DistanceMeters>8014.1566107354</DistanceMeters>
          </Trackpoint>
          <Trackpoint>
            <Time>2023-01-11T17:46:11.000Z</Time>
            <Position>
              <LatitudeDegrees>-49.2233209870755672454833984375</LatitudeDegrees>
              <LongitudeDegrees>-73.02711135707795619964599609375</LongitudeDegrees>
            </Position>
            <AltitudeMeters>566.5999755859375</AltitudeMeters>
            <DistanceMeters>8015.7438697967</DistanceMeters>
          </Trackpoint>
          <Trackpoint>
            <Time>2023-01-11T17:46:13.000Z</Time>
            <Position>
              <LatitudeDegrees>-49.223317801952362060546875</LatitudeDegrees>
              <LongitudeDegrees>-73.02709274925291538238525390625</LongitudeDegrees>
            </Position>
            <AltitudeMeters>564.20001220703125</AltitudeMeters>
            <DistanceMeters>8017.1404715696</DistanceMeters>
          </Trackpoint>
          <Trackpoint>
            <Time>2023-01-11T17:46:14.000Z</Time>
            <Position>
              <LatitudeDegrees>-49.2233126051723957061767578125</LatitudeDegrees>
              <LongitudeDegrees>-73.0270804278552532196044921875</LongitudeDegrees>
            </Position>
            <AltitudeMeters>562.4000244140625</AltitudeMeters>
            <DistanceMeters>8018.2071437929</DistanceMeters>
          </Trackpoint>
          <Trackpoint>
            <Time>2023-01-11T17:46:15.000Z</Time>
            <Position>
              <LatitudeDegrees>-49.22330908477306365966796875</LatitudeDegrees>
              <LongitudeDegrees>-73.02706391550600528717041015625</LongitudeDegrees>
            </Position>
            <AltitudeMeters>562</AltitudeMeters>
            <DistanceMeters>8019.4678156194</DistanceMeters>
          </Trackpoint>
          <Trackpoint>
            <Time>2023-01-11T17:46:16.000Z</Time>
            <Position>
              <LatitudeDegrees>-49.2233095876872539520263671875</LatitudeDegrees>
              <LongitudeDegrees>-73.0270470678806304931640625</LongitudeDegrees>
            </Position>
            <AltitudeMeters>561.20001220703125</AltitudeMeters>
            <DistanceMeters>8020.692149189</DistanceMeters>
          </Trackpoint>
          <Trackpoint>
            <Time>2023-01-11T17:46:19.000Z</Time>
            <Position>
              <LatitudeDegrees>-49.22331587411463260650634765625</LatitudeDegrees>
              <LongitudeDegrees>-73.02700708620250225067138671875</LongitudeDegrees>
            </Position>
            <AltitudeMeters>560.5999755859375</AltitudeMeters>
            <DistanceMeters>8023.6820949543</DistanceMeters>
          </Trackpoint>
          <Trackpoint>
            <Time>2023-01-11T17:46:24.000Z</Time>
            <Position>
              <LatitudeDegrees>-49.22331185080111026763916015625</LatitudeDegrees>
              <LongitudeDegrees>-73.02692913450300693511962890625</LongitudeDegrees>
            </Position>
            <AltitudeMeters>561</AltitudeMeters>
            <DistanceMeters>8029.3662495543</DistanceMeters>
          </Trackpoint>
          <Trackpoint>
            <Time>2023-01-11T17:46:26.000Z</Time>
            <Position>
              <LatitudeDegrees>-49.223308078944683074951171875</LatitudeDegrees>
              <LongitudeDegrees>-73.02690264768898487091064453125</LongitudeDegrees>
            </Position>
            <AltitudeMeters>561.4000244140625</AltitudeMeters>
            <DistanceMeters>8031.3367654438</DistanceMeters>
          </Trackpoint>
          <Trackpoint>
            <Time>2023-01-11T17:46:31.000Z</Time>
            <Position>
              <LatitudeDegrees>-49.22332408837974071502685546875</LatitudeDegrees>
              <LongitudeDegrees>-73.02682469598948955535888671875</LongitudeDegrees>
            </Position>
            <AltitudeMeters>560.20001220703125</AltitudeMeters>
            <DistanceMeters>8037.2765052249</DistanceMeters>
          </Trackpoint>
          <Trackpoint>
            <Time>2023-01-11T17:46:34.000Z</Time>
            <Position>
              <LatitudeDegrees>-49.22332375310361385345458984375</LatitudeDegrees>
              <LongitudeDegrees>-73.02679963409900665283203125</LongitudeDegrees>
            </Position>
            <AltitudeMeters>560.20001220703125</AltitudeMeters>
            <DistanceMeters>8039.0994336742</DistanceMeters>
          </Trackpoint>
          <Trackpoint>
            <Time>2023-01-11T17:46:35.000Z</Time>
            <Position>
              <LatitudeDegrees>-49.22332392074167728424072265625</LatitudeDegrees>
              <LongitudeDegrees>-73.02679183892905712127685546875</LongitudeDegrees>
            </Position>
            <AltitudeMeters>559.20001220703125</AltitudeMeters>
            <DistanceMeters>8039.6695939604</DistanceMeters>
          </Trackpoint>
          <Trackpoint>
            <Time>2023-01-11T17:46:38.000Z</Time>
            <Position>
              <LatitudeDegrees>-49.22331587411463260650634765625</LatitudeDegrees>
              <LongitudeDegrees>-73.02675680257380008697509765625</LongitudeDegrees>
            </Position>
            <AltitudeMeters>559.20001220703125</AltitudeMeters>
            <DistanceMeters>8042.3690886706</DistanceMeters>
          </Trackpoint>
          <Trackpoint>
            <Time>2023-01-11T17:46:41.000Z</Time>
            <Position>
              <LatitudeDegrees>-49.223289974033832550048828125</LatitudeDegrees>
              <LongitudeDegrees>-73.026713468134403228759765625</LongitudeDegrees>
            </Position>
            <AltitudeMeters>559</AltitudeMeters>
            <DistanceMeters>8046.6400082925</DistanceMeters>
          </Trackpoint>
          <Trackpoint>
            <Time>2023-01-11T17:46:47.000Z</Time>
            <Position>
              <LatitudeDegrees>-49.22327287495136260986328125</LatitudeDegrees>
              <LongitudeDegrees>-73.02661992609500885009765625</LongitudeDegrees>
            </Position>
            <AltitudeMeters>560.20001220703125</AltitudeMeters>
            <DistanceMeters>8053.7020980823</DistanceMeters>
          </Trackpoint>
          <Trackpoint>
            <Time>2023-01-11T17:46:48.000Z</Time>
            <Position>
              <LatitudeDegrees>-49.22327195294201374053955078125</LatitudeDegrees>
              <LongitudeDegrees>-73.02660006098449230194091796875</LongitudeDegrees>
            </Position>
            <AltitudeMeters>560.20001220703125</AltitudeMeters>
            <DistanceMeters>8055.1495018736</DistanceMeters>
          </Trackpoint>
          <Trackpoint>
            <Time>2023-01-11T17:46:58.000Z</Time>
            <Position>
              <LatitudeDegrees>-49.22328092157840728759765625</LatitudeDegrees>
              <LongitudeDegrees>-73.0264340154826641082763671875</LongitudeDegrees>
            </Position>
            <AltitudeMeters>560</AltitudeMeters>
            <DistanceMeters>8067.2608420866</DistanceMeters>
          </Trackpoint>
          <Trackpoint>
            <Time>2023-01-11T17:47:07.000Z</Time>
            <Position>
              <LatitudeDegrees>-49.223261810839176177978515625</LatitudeDegrees>
              <LongitudeDegrees>-73.02628372795879840850830078125</LongitudeDegrees>
            </Position>
            <AltitudeMeters>561.20001220703125</AltitudeMeters>
            <DistanceMeters>8078.3907382523</DistanceMeters>
          </Trackpoint>
          <Trackpoint>
            <Time>2023-01-11T17:47:16.000Z</Time>
            <Position>
              <LatitudeDegrees>-49.22328586690127849578857421875</LatitudeDegrees>
              <LongitudeDegrees>-73.0261356197297573089599609375</LongitudeDegrees>
            </Position>
            <AltitudeMeters>561</AltitudeMeters>
            <DistanceMeters>8089.4856921541</DistanceMeters>
          </Trackpoint>
          <Trackpoint>
            <Time>2023-01-11T17:47:20.000Z</Time>
            <Position>
              <LatitudeDegrees>-49.223308749496936798095703125</LatitudeDegrees>
              <LongitudeDegrees>-73.02607585676014423370361328125</LongitudeDegrees>
            </Position>
            <AltitudeMeters>560.5999755859375</AltitudeMeters>
            <DistanceMeters>8094.5212114575</DistanceMeters>
          </Trackpoint>
          <Trackpoint>
            <Time>2023-01-11T17:47:21.000Z</Time>
            <Position>
              <LatitudeDegrees>-49.2233139462769031524658203125</LatitudeDegrees>
              <LongitudeDegrees>-73.0260605178773403167724609375</LongitudeDegrees>
            </Position>
            <AltitudeMeters>560.20001220703125</AltitudeMeters>
            <DistanceMeters>8095.7746999103</DistanceMeters>
          </Trackpoint>
          <Trackpoint>
            <Time>2023-01-11T17:47:23.000Z</Time>
            <Position>
              <LatitudeDegrees>-49.2233213223516941070556640625</LatitudeDegrees>
              <LongitudeDegrees>-73.026031516492366790771484375</LongitudeDegrees>
            </Position>
            <AltitudeMeters>560.20001220703125</AltitudeMeters>
            <DistanceMeters>8098.0354571434</DistanceMeters>
          </Trackpoint>
          <Trackpoint>
            <Time>2023-01-11T17:47:26.000Z</Time>
            <Position>
              <LatitudeDegrees>-49.2233312129974365234375</LatitudeDegrees>
              <LongitudeDegrees>-73.0259849131107330322265625</LongitudeDegrees>
            </Position>
            <AltitudeMeters>559.5999755859375</AltitudeMeters>
            <DistanceMeters>8101.5973748016</DistanceMeters>
          </Trackpoint>
          <Trackpoint>
            <Time>2023-01-11T17:47:29.000Z</Time>
            <Position>
              <LatitudeDegrees>-49.22334261238574981689453125</LatitudeDegrees>
              <LongitudeDegrees>-73.02592481486499309539794921875</LongitudeDegrees>
            </Position>
            <AltitudeMeters>559.20001220703125</AltitudeMeters>
            <DistanceMeters>8106.1467632451</DistanceMeters>
          </Trackpoint>
          <Trackpoint>
            <Time>2023-01-11T17:47:38.000Z</Time>
            <Position>
              <LatitudeDegrees>-49.2233763076364994049072265625</LatitudeDegrees>
              <LongitudeDegrees>-73.0257976613938808441162109375</LongitudeDegrees>
            </Position>
            <AltitudeMeters>559.4000244140625</AltitudeMeters>
            <DistanceMeters>8116.1214001939</DistanceMeters>
          </Trackpoint>
          <Trackpoint>
            <Time>2023-01-11T17:47:43.000Z</Time>
            <Position>
              <LatitudeDegrees>-49.22338695265352725982666015625</LatitudeDegrees>
              <LongitudeDegrees>-73.0257306061685085296630859375</LongitudeDegrees>
            </Position>
            <AltitudeMeters>559.4000244140625</AltitudeMeters>
            <DistanceMeters>8121.1371546708</DistanceMeters>
          </Trackpoint>
          <Trackpoint>
            <Time>2023-01-11T17:47:48.000Z</Time>
            <Position>
              <LatitudeDegrees>-49.2234061472117900848388671875</LatitudeDegrees>
              <LongitudeDegrees>-73.02565156482160091400146484375</LongitudeDegrees>
            </Position>
            <AltitudeMeters>559.5999755859375</AltitudeMeters>
            <DistanceMeters>8127.2676667342</DistanceMeters>
          </Trackpoint>
          <Trackpoint>
            <Time>2023-01-11T17:47:51.000Z</Time>
            <Position>
              <LatitudeDegrees>-49.2234242521226406097412109375</LatitudeDegrees>
              <LongitudeDegrees>-73.02561015821993350982666015625</LongitudeDegrees>
            </Position>
            <AltitudeMeters>559.4000244140625</AltitudeMeters>
            <DistanceMeters>8130.8911638226</DistanceMeters>
          </Trackpoint>
          <Trackpoint>
            <Time>2023-01-11T17:48:00.000Z</Time>
            <Position>
              <LatitudeDegrees>-49.22343112528324127197265625</LatitudeDegrees>
              <LongitudeDegrees>-73.02545961923897266387939453125</LongitudeDegrees>
            </Position>
            <AltitudeMeters>558.79998779296875</AltitudeMeters>
            <DistanceMeters>8141.8608857285</DistanceMeters>
          </Trackpoint>
          <Trackpoint>
            <Time>2023-01-11T17:48:03.000Z</Time>
            <Position>
              <LatitudeDegrees>-49.22343037091195583343505859375</LatitudeDegrees>
              <LongitudeDegrees>-73.02541293203830718994140625</LongitudeDegrees>
            </Position>
            <AltitudeMeters>558.20001220703125</AltitudeMeters>
            <DistanceMeters>8145.2553485052</DistanceMeters>
          </Trackpoint>
          <Trackpoint>
            <Time>2023-01-11T17:48:08.000Z</Time>
            <Position>
              <LatitudeDegrees>-49.223425090312957763671875</LatitudeDegrees>
              <LongitudeDegrees>-73.0253249220550060272216796875</LongitudeDegrees>
            </Position>
            <AltitudeMeters>556.79998779296875</AltitudeMeters>
            <DistanceMeters>8151.6807286108</DistanceMeters>
          </Trackpoint>
          <Trackpoint>
            <Time>2023-01-11T17:48:10.000Z</Time>
            <Position>
              <LatitudeDegrees>-49.22341964207589626312255859375</LatitudeDegrees>
              <LongitudeDegrees>-73.025300614535808563232421875</LongitudeDegrees>
            </Position>
            <AltitudeMeters>556.5999755859375</AltitudeMeters>
            <DistanceMeters>8153.5525378052</DistanceMeters>
          </Trackpoint>
          <Trackpoint>
            <Time>2023-01-11T17:48:15.000Z</Time>
            <Position>
              <LatitudeDegrees>-49.22341947443783283233642578125</LatitudeDegrees>
              <LongitudeDegrees>-73.025220148265361785888671875</LongitudeDegrees>
            </Position>
            <AltitudeMeters>557.79998779296875</AltitudeMeters>
            <DistanceMeters>8159.4011213576</DistanceMeters>
          </Trackpoint>
          <Trackpoint>
            <Time>2023-01-11T17:48:19.000Z</Time>
            <Position>
              <LatitudeDegrees>-49.223441518843173980712890625</LatitudeDegrees>
              <LongitudeDegrees>-73.02516994066536426544189453125</LongitudeDegrees>
            </Position>
            <AltitudeMeters>558.20001220703125</AltitudeMeters>
            <DistanceMeters>8163.7980968712</DistanceMeters>
          </Trackpoint>
          <Trackpoint>
            <Time>2023-01-11T17:48:30.000Z</Time>
            <Position>
              <LatitudeDegrees>-49.2235278524458408355712890625</LatitudeDegrees>
              <LongitudeDegrees>-73.02505410276353359222412109375</LongitudeDegrees>
            </Position>
            <AltitudeMeters>558.20001220703125</AltitudeMeters>
            <DistanceMeters>8176.5748617964</DistanceMeters>
          </Trackpoint>
          <Trackpoint>
            <Time>2023-01-11T17:48:34.000Z</Time>
            <Position>
              <LatitudeDegrees>-49.22356246970593929290771484375</LatitudeDegrees>
              <LongitudeDegrees>-73.02501923404633998870849609375</LongitudeDegrees>
            </Position>
            <AltitudeMeters>557.4000244140625</AltitudeMeters>
            <DistanceMeters>8181.1863507127</DistanceMeters>
          </Trackpoint>
          <Trackpoint>
            <Time>2023-01-11T17:48:36.000Z</Time>
            <Position>
              <LatitudeDegrees>-49.2235821671783924102783203125</LatitudeDegrees>
              <LongitudeDegrees>-73.02500389516353607177734375</LongitudeDegrees>
            </Position>
            <AltitudeMeters>558</AltitudeMeters>
            <DistanceMeters>8183.6460562271</DistanceMeters>
          </Trackpoint>
          <Trackpoint>
            <Time>2023-01-11T17:48:38.000Z</Time>
            <Position>
              <LatitudeDegrees>-49.2235996015369892120361328125</LatitudeDegrees>
              <LongitudeDegrees>-73.02499006502330303192138671875</LongitudeDegrees>
            </Position>
            <AltitudeMeters>559</AltitudeMeters>
            <DistanceMeters>8185.8337354804</DistanceMeters>
          </Trackpoint>
          <Trackpoint>
            <Time>2023-01-11T17:48:41.000Z</Time>
            <Position>
              <LatitudeDegrees>-49.22362449578940868377685546875</LatitudeDegrees>
              <LongitudeDegrees>-73.02496307529509067535400390625</LongitudeDegrees>
            </Position>
            <AltitudeMeters>559.4000244140625</AltitudeMeters>
            <DistanceMeters>8189.2295281152</DistanceMeters>
          </Trackpoint>
          <Trackpoint>
            <Time>2023-01-11T17:48:50.000Z</Time>
            <Position>
              <LatitudeDegrees>-49.22370680607855319976806640625</LatitudeDegrees>
              <LongitudeDegrees>-73.0248763225972652435302734375</LongitudeDegrees>
            </Position>
            <AltitudeMeters>558.20001220703125</AltitudeMeters>
            <DistanceMeters>8200.3517139258</DistanceMeters>
          </Trackpoint>
          <Trackpoint>
            <Time>2023-01-11T17:48:51.000Z</Time>
            <Position>
              <LatitudeDegrees>-49.22371468506753444671630859375</LatitudeDegrees>
              <LongitudeDegrees>-73.02486752159893512725830078125</LongitudeDegrees>
            </Position>
            <AltitudeMeters>558</AltitudeMeters>
            <DistanceMeters>8201.4351851704</DistanceMeters>
          </Trackpoint>
          <Trackpoint>
            <Time>2023-01-11T17:49:00.000Z</Time>
            <Position>
              <LatitudeDegrees>-49.2237778007984161376953125</LatitudeDegrees>
              <LongitudeDegrees>-73.0247452296316623687744140625</LongitudeDegrees>
            </Position>
            <AltitudeMeters>558</AltitudeMeters>
            <DistanceMeters>8212.7657013459</DistanceMeters>
          </Trackpoint>
          <Trackpoint>
            <Time>2023-01-11T17:49:10.000Z</Time>
            <Position>
              <LatitudeDegrees>-49.22381157986819744110107421875</LatitudeDegrees>
              <LongitudeDegrees>-73.0245943553745746612548828125</LongitudeDegrees>
            </Position>
            <AltitudeMeters>558</AltitudeMeters>
            <DistanceMeters>8224.3597393804</DistanceMeters>
          </Trackpoint>
          <Trackpoint>
            <Time>2023-01-11T17:49:11.000Z</Time>
            <Position>
              <LatitudeDegrees>-49.22381660901010036468505859375</LatitudeDegrees>
              <LongitudeDegrees>-73.02457583136856555938720703125</LongitudeDegrees>
            </Position>
            <AltitudeMeters>557.4000244140625</AltitudeMeters>
            <DistanceMeters>8225.8195674664</DistanceMeters>
          </Trackpoint>
          <Trackpoint>
            <Time>2023-01-11T17:49:23.000Z</Time>
            <Position>
              <LatitudeDegrees>-49.22387427650392055511474609375</LatitudeDegrees>
              <LongitudeDegrees>-73.02439914084970951080322265625</LongitudeDegrees>
            </Position>
            <AltitudeMeters>557.5999755859375</AltitudeMeters>
            <DistanceMeters>8240.1777235185</DistanceMeters>
          </Trackpoint>
          <Trackpoint>
            <Time>2023-01-11T17:49:29.000Z</Time>
            <Position>
              <LatitudeDegrees>-49.2239333689212799072265625</LatitudeDegrees>
              <LongitudeDegrees>-73.02433929406106472015380859375</LongitudeDegrees>
            </Position>
            <AltitudeMeters>556.79998779296875</AltitudeMeters>
            <DistanceMeters>8248.0632232739</DistanceMeters>
          </Trackpoint>
          <Trackpoint>
            <Time>2023-01-11T17:49:30.000Z</Time>
            <Position>
              <LatitudeDegrees>-49.22393982298672199249267578125</LatitudeDegrees>
              <LongitudeDegrees>-73.024322278797626495361328125</LongitudeDegrees>
            </Position>
            <AltitudeMeters>555.79998779296875</AltitudeMeters>
            <DistanceMeters>8249.4949450879</DistanceMeters>
          </Trackpoint>
          <Trackpoint>
            <Time>2023-01-11T17:49:32.000Z</Time>
            <Position>
              <LatitudeDegrees>-49.22396044246852397918701171875</LatitudeDegrees>
              <LongitudeDegrees>-73.02428497932851314544677734375</LongitudeDegrees>
            </Position>
            <AltitudeMeters>555.5999755859375</AltitudeMeters>
            <DistanceMeters>8253.0479785621</DistanceMeters>
          </Trackpoint>
          <Trackpoint>
            <Time>2023-01-11T17:49:40.000Z</Time>
            <Position>
              <LatitudeDegrees>-49.22402297146618366241455078125</LatitudeDegrees>
              <LongitudeDegrees>-73.02417316474020481109619140625</LongitudeDegrees>
            </Position>
            <AltitudeMeters>554.79998779296875</AltitudeMeters>
            <DistanceMeters>8263.7485098251</DistanceMeters>
          </Trackpoint>
          <Trackpoint>
            <Time>2023-01-11T17:49:41.000Z</Time>
            <Position>
              <LatitudeDegrees>-49.22403453849256038665771484375</LatitudeDegrees>
              <LongitudeDegrees>-73.024162352085113525390625</LongitudeDegrees>
            </Position>
            <AltitudeMeters>554.20001220703125</AltitudeMeters>
            <DistanceMeters>8265.2570121498</DistanceMeters>
          </Trackpoint>
          <Trackpoint>
            <Time>2023-01-11T17:49:50.000Z</Time>
            <Position>
              <LatitudeDegrees>-49.22410427592694759368896484375</LatitudeDegrees>
              <LongitudeDegrees>-73.02407107315957546234130859375</LongitudeDegrees>
            </Position>
            <AltitudeMeters>555.5999755859375</AltitudeMeters>
            <DistanceMeters>8275.4687369197</DistanceMeters>
          </Trackpoint>
          <Trackpoint>
            <Time>2023-01-11T17:50:00.000Z</Time>
            <Position>
              <LatitudeDegrees>-49.224151633679866790771484375</LatitudeDegrees>
              <LongitudeDegrees>-73.02392967045307159423828125</LongitudeDegrees>
            </Position>
            <AltitudeMeters>556.79998779296875</AltitudeMeters>
            <DistanceMeters>8287.020249358</DistanceMeters>
          </Trackpoint>
          <Trackpoint>
            <Time>2023-01-11T17:50:01.000Z</Time>
            <Position>
              <LatitudeDegrees>-49.2241559922695159912109375</LatitudeDegrees>
              <LongitudeDegrees>-73.02391600795090198516845703125</LongitudeDegrees>
            </Position>
            <AltitudeMeters>556.79998779296875</AltitudeMeters>
            <DistanceMeters>8288.1243600046</DistanceMeters>
          </Trackpoint>
          <Trackpoint>
            <Time>2023-01-11T17:50:04.000Z</Time>
            <Position>
              <LatitudeDegrees>-49.22417233698070049285888671875</LatitudeDegrees>
              <LongitudeDegrees>-73.02387460134923458099365234375</LongitudeDegrees>
            </Position>
            <AltitudeMeters>558</AltitudeMeters>
            <DistanceMeters>8291.6416323466</DistanceMeters>
          </Trackpoint>
          <Trackpoint>
            <Time>2023-01-11T17:50:08.000Z</Time>
            <Position>
              <LatitudeDegrees>-49.22419513575732707977294921875</LatitudeDegrees>
              <LongitudeDegrees>-73.02383084781467914581298828125</LongitudeDegrees>
            </Position>
            <AltitudeMeters>559.5999755859375</AltitudeMeters>
            <DistanceMeters>8295.7100632631</DistanceMeters>
          </Trackpoint>
          <Trackpoint>
            <Time>2023-01-11T17:50:11.000Z</Time>
            <Position>
              <LatitudeDegrees>-49.22421407885849475860595703125</LatitudeDegrees>
              <LongitudeDegrees>-73.02380117587745189666748046875</LongitudeDegrees>
            </Position>
            <AltitudeMeters>559.5999755859375</AltitudeMeters>
            <DistanceMeters>8298.7270679126</DistanceMeters>
          </Trackpoint>
          <Trackpoint>
            <Time>2023-01-11T17:50:12.000Z</Time>
            <Position>
              <LatitudeDegrees>-49.2242205329239368438720703125</LatitudeDegrees>
              <LongitudeDegrees>-73.023790530860424041748046875</LongitudeDegrees>
            </Position>
            <AltitudeMeters>559.5999755859375</AltitudeMeters>
            <DistanceMeters>8299.7852406202</DistanceMeters>
          </Trackpoint>
          <Trackpoint>
            <Time>2023-01-11T17:50:13.000Z</Time>
            <Position>
              <LatitudeDegrees>-49.22422614879906177520751953125</LatitudeDegrees>
              <LongitudeDegrees>-73.0237776227295398712158203125</LongitudeDegrees>
            </Position>
            <AltitudeMeters>559.4000244140625</AltitudeMeters>
            <DistanceMeters>8300.913620334</DistanceMeters>
          </Trackpoint>
          <Trackpoint>
            <Time>2023-01-11T17:50:15.000Z</Time>
            <Position>
              <LatitudeDegrees>-49.22423503361642360687255859375</LatitudeDegrees>
              <LongitudeDegrees>-73.02375809289515018463134765625</LongitudeDegrees>
            </Position>
            <AltitudeMeters>558.4000244140625</AltitudeMeters>
            <DistanceMeters>8302.6450894731</DistanceMeters>
          </Trackpoint>
          <Trackpoint>
            <Time>2023-01-11T17:50:19.000Z</Time>
            <Position>
              <LatitudeDegrees>-49.2242631129920482635498046875</LatitudeDegrees>
              <LongitudeDegrees>-73.0237068794667720794677734375</LongitudeDegrees>
            </Position>
            <AltitudeMeters>558</AltitudeMeters>
            <DistanceMeters>8307.5054063328</DistanceMeters>
          </Trackpoint>
          <Trackpoint>
            <Time>2023-01-11T17:50:20.000Z</Time>
            <Position>
              <LatitudeDegrees>-49.2242691479623317718505859375</LatitudeDegrees>
              <LongitudeDegrees>-73.0236904509365558624267578125</LongitudeDegrees>
            </Position>
            <AltitudeMeters>558</AltitudeMeters>
            <DistanceMeters>8308.8759010976</DistanceMeters>
          </Trackpoint>
          <Trackpoint>
            <Time>2023-01-11T17:50:21.000Z</Time>
            <Position>
              <LatitudeDegrees>-49.2242745123803615570068359375</LatitudeDegrees>
              <LongitudeDegrees>-73.0236782133579254150390625</LongitudeDegrees>
            </Position>
            <AltitudeMeters>557.79998779296875</AltitudeMeters>
            <DistanceMeters>8309.9467977819</DistanceMeters>
          </Trackpoint>
          <Trackpoint>
            <Time>2023-01-11T17:50:22.000Z</Time>
            <Position>
              <LatitudeDegrees>-49.22428096644580364227294921875</LatitudeDegrees>
              <LongitudeDegrees>-73.02367142401635646820068359375</LongitudeDegrees>
            </Position>
            <AltitudeMeters>557.20001220703125</AltitudeMeters>
            <DistanceMeters>8310.8177320052</DistanceMeters>
          </Trackpoint>
          <Trackpoint>
            <Time>2023-01-11T17:50:27.000Z</Time>
            <Position>
              <LatitudeDegrees>-49.22430007718503475189208984375</LatitudeDegrees>
              <LongitudeDegrees>-73.023637644946575164794921875</LongitudeDegrees>
            </Position>
            <AltitudeMeters>556.4000244140625</AltitudeMeters>
            <DistanceMeters>8314.0653664191</DistanceMeters>
          </Trackpoint>
          <Trackpoint>
            <Time>2023-01-11T17:50:30.000Z</Time>
            <Position>
              <LatitudeDegrees>-49.2243184335529804229736328125</LatitudeDegrees>
              <LongitudeDegrees>-73.0235905386507511138916015625</LongitudeDegrees>
            </Position>
            <AltitudeMeters>556.20001220703125</AltitudeMeters>
            <DistanceMeters>8318.0530931673</DistanceMeters>
          </Trackpoint>
          <Trackpoint>
            <Time>2023-01-11T17:50:34.000Z</Time>
            <Position>
              <LatitudeDegrees>-49.2243301682174205780029296875</LatitudeDegrees>
              <LongitudeDegrees>-73.0235521495342254638671875</LongitudeDegrees>
            </Position>
            <AltitudeMeters>555.4000244140625</AltitudeMeters>
            <DistanceMeters>8321.1352418365</DistanceMeters>
          </Trackpoint>
          <Trackpoint>
            <Time>2023-01-11T17:50:41.000Z</Time>
            <Position>
              <LatitudeDegrees>-49.2243529669940471649169921875</LatitudeDegrees>
              <LongitudeDegrees>-73.02346120588481426239013671875</LongitudeDegrees>
            </Position>
            <AltitudeMeters>555.4000244140625</AltitudeMeters>
            <DistanceMeters>8328.2158480546</DistanceMeters>
          </Trackpoint>
          <Trackpoint>
            <Time>2023-01-11T17:50:45.000Z</Time>
            <Position>
              <LatitudeDegrees>-49.22435573302209377288818359375</LatitudeDegrees>
              <LongitudeDegrees>-73.0234530754387378692626953125</LongitudeDegrees>
            </Position>
            <AltitudeMeters>555.20001220703125</AltitudeMeters>
            <DistanceMeters>8328.8877883959</DistanceMeters>
          </Trackpoint>
          <Trackpoint>
            <Time>2023-01-11T17:50:46.000Z</Time>
            <Position>
              <LatitudeDegrees>-49.22435707412660121917724609375</LatitudeDegrees>
              <LongitudeDegrees>-73.0234497226774692535400390625</LongitudeDegrees>
            </Position>
            <AltitudeMeters>555.20001220703125</AltitudeMeters>
            <DistanceMeters>8329.1882892519</DistanceMeters>
          </Trackpoint>
          <Trackpoint>
            <Time>2023-01-11T17:50:54.000Z</Time>
            <Position>
              <LatitudeDegrees>-49.22436713241040706634521484375</LatitudeDegrees>
              <LongitudeDegrees>-73.02341963164508342742919921875</LongitudeDegrees>
            </Position>
            <AltitudeMeters>554.79998779296875</AltitudeMeters>
            <DistanceMeters>8331.6479947662</DistanceMeters>
          </Trackpoint>
          <Trackpoint>
            <Time>2023-01-11T17:51:03.000Z</Time>
            <Position>
              <LatitudeDegrees>-49.224364198744297027587890625</LatitudeDegrees>
              <LongitudeDegrees>-73.0234202183783054351806640625</LongitudeDegrees>
            </Position>
            <AltitudeMeters>554.4000244140625</AltitudeMeters>
            <DistanceMeters>8331.9906184574</DistanceMeters>
          </Trackpoint>
          <Trackpoint>
            <Time>2023-01-11T17:51:16.000Z</Time>
            <Position>
              <LatitudeDegrees>-49.22436109744012355804443359375</LatitudeDegrees>
              <LongitudeDegrees>-73.023419715464115142822265625</LongitudeDegrees>
            </Position>
            <AltitudeMeters>554.4000244140625</AltitudeMeters>
            <DistanceMeters>8332.3461758652</DistanceMeters>
          </Trackpoint>
          <Trackpoint>
            <Time>2023-01-11T17:51:24.000Z</Time>
            <Position>
              <LatitudeDegrees>-49.22436193563044071197509765625</LatitudeDegrees>
              <LongitudeDegrees>-73.0234155245125293731689453125</LongitudeDegrees>
            </Position>
            <AltitudeMeters>554.5999755859375</AltitudeMeters>
            <DistanceMeters>8332.6613438218</DistanceMeters>
          </Trackpoint>
          <Trackpoint>
            <Time>2023-01-11T17:51:37.000Z</Time>
            <Position>
              <LatitudeDegrees>-49.2243660427629947662353515625</LatitudeDegrees>
              <LongitudeDegrees>-73.02341024391353130340576171875</LongitudeDegrees>
            </Position>
            <AltitudeMeters>554.4000244140625</AltitudeMeters>
            <DistanceMeters>8333.2471278305</DistanceMeters>
          </Trackpoint>
          <Trackpoint>
            <Time>2023-01-11T17:51:42.000Z</Time>
            <Position>
              <LatitudeDegrees>-49.22436746768653392791748046875</LatitudeDegrees>
              <LongitudeDegrees>-73.0234099924564361572265625</LongitudeDegrees>
            </Position>
            <AltitudeMeters>554</AltitudeMeters>
            <DistanceMeters>8333.3815158988</DistanceMeters>
          </Trackpoint>
          <Trackpoint>
            <Time>2023-01-11T17:51:45.000Z</Time>
            <Position>
              <LatitudeDegrees>-49.2243680544197559356689453125</LatitudeDegrees>
              <LongitudeDegrees>-73.0234098248183727264404296875</LongitudeDegrees>
            </Position>
            <AltitudeMeters>554.5999755859375</AltitudeMeters>
            <DistanceMeters>8333.3815158988</DistanceMeters>
          </Trackpoint>
          <Trackpoint>
            <Time>2023-01-11T17:51:55.000Z</Time>
            <Position>
              <LatitudeDegrees>-49.22436998225748538970947265625</LatitudeDegrees>
              <LongitudeDegrees>-73.02341024391353130340576171875</LongitudeDegrees>
            </Position>
            <AltitudeMeters>554.4000244140625</AltitudeMeters>
            <DistanceMeters>8333.5715693275</DistanceMeters>
          </Trackpoint>
          <Trackpoint>
            <Time>2023-01-11T17:52:00.000Z</Time>
            <Position>
              <LatitudeDegrees>-49.22437048517167568206787109375</LatitudeDegrees>
              <LongitudeDegrees>-73.02341225557029247283935546875</LongitudeDegrees>
            </Position>
            <AltitudeMeters>554.20001220703125</AltitudeMeters>
            <DistanceMeters>8333.7059573958</DistanceMeters>
          </Trackpoint>
          <Trackpoint>
            <Time>2023-01-11T17:52:02.000Z</Time>
            <Position>
              <LatitudeDegrees>-49.22437065280973911285400390625</LatitudeDegrees>
              <LongitudeDegrees>-73.023412339389324188232421875</LongitudeDegrees>
            </Position>
            <AltitudeMeters>554.20001220703125</AltitudeMeters>
            <DistanceMeters>8333.7059573958</DistanceMeters>
          </Trackpoint>
          <Trackpoint>
            <Time>2023-01-11T17:52:23.000Z</Time>
            <Position>
              <LatitudeDegrees>-49.22439563088119029998779296875</LatitudeDegrees>
              <LongitudeDegrees>-73.02330580540001392364501953125</LongitudeDegrees>
            </Position>
            <AltitudeMeters>554.4000244140625</AltitudeMeters>
            <DistanceMeters>8341.9333174234</DistanceMeters>
          </Trackpoint>
          <Trackpoint>
            <Time>2023-01-11T17:52:25.000Z</Time>
            <Position>
              <LatitudeDegrees>-49.2244039289653301239013671875</LatitudeDegrees>
              <LongitudeDegrees>-73.02326238714158535003662109375</LongitudeDegrees>
            </Position>
            <AltitudeMeters>555.20001220703125</AltitudeMeters>
            <DistanceMeters>8345.2223950418</DistanceMeters>
          </Trackpoint>
          <Trackpoint>
            <Time>2023-01-11T17:52:29.000Z</Time>
            <Position>
              <LatitudeDegrees>-49.22443770803511142730712890625</LatitudeDegrees>
              <LongitudeDegrees>-73.023183345794677734375</LongitudeDegrees>
            </Position>
            <AltitudeMeters>556</AltitudeMeters>
            <DistanceMeters>8352.0893491839</DistanceMeters>
          </Trackpoint>
          <Trackpoint>
            <Time>2023-01-11T17:52:30.000Z</Time>
            <Position>
              <LatitudeDegrees>-49.2244465090334415435791015625</LatitudeDegrees>
              <LongitudeDegrees>-73.02316415123641490936279296875</LongitudeDegrees>
            </Position>
            <AltitudeMeters>556.20001220703125</AltitudeMeters>
            <DistanceMeters>8353.7918927336</DistanceMeters>
          </Trackpoint>
          <Trackpoint>
            <Time>2023-01-11T17:52:34.000Z</Time>
            <Position>
              <LatitudeDegrees>-49.22446737997233867645263671875</LatitudeDegrees>
              <LongitudeDegrees>-73.02312433719635009765625</LongitudeDegrees>
            </Position>
            <AltitudeMeters>556.79998779296875</AltitudeMeters>
            <DistanceMeters>8357.5028045592</DistanceMeters>
          </Trackpoint>
          <Trackpoint>
            <Time>2023-01-11T17:52:36.000Z</Time>
            <Position>
              <LatitudeDegrees>-49.224467463791370391845703125</LatitudeDegrees>
              <LongitudeDegrees>-73.02311503328382968902587890625</LongitudeDegrees>
            </Position>
            <AltitudeMeters>556.5999755859375</AltitudeMeters>
            <DistanceMeters>8358.1747449004</DistanceMeters>
          </Trackpoint>
          <Trackpoint>
            <Time>2023-01-11T17:52:43.000Z</Time>
            <Position>
              <LatitudeDegrees>-49.22447157092392444610595703125</LatitudeDegrees>
              <LongitudeDegrees>-73.0230852775275707244873046875</LongitudeDegrees>
            </Position>
            <AltitudeMeters>557.20001220703125</AltitudeMeters>
            <DistanceMeters>8360.3870517129</DistanceMeters>
          </Trackpoint>
          <Trackpoint>
            <Time>2023-01-11T17:52:44.000Z</Time>
            <Position>
              <LatitudeDegrees>-49.224473498761653900146484375</LatitudeDegrees>
              <LongitudeDegrees>-73.02308033220469951629638671875</LongitudeDegrees>
            </Position>
            <AltitudeMeters>557.20001220703125</AltitudeMeters>
            <DistanceMeters>8360.8120240989</DistanceMeters>
          </Trackpoint>
          <Trackpoint>
            <Time>2023-01-11T17:52:49.000Z</Time>
            <Position>
              <LatitudeDegrees>-49.2244778573513031005859375</LatitudeDegrees>
              <LongitudeDegrees>-73.02306599915027618408203125</LongitudeDegrees>
            </Position>
            <AltitudeMeters>557.4000244140625</AltitudeMeters>
            <DistanceMeters>8361.9641617805</DistanceMeters>
          </Trackpoint>
          <Trackpoint>
            <Time>2023-01-11T17:52:53.000Z</Time>
            <Position>
              <LatitudeDegrees>-49.22449956648051738739013671875</LatitudeDegrees>
              <LongitudeDegrees>-73.0230339802801609039306640625</LongitudeDegrees>
            </Position>
            <AltitudeMeters>557.20001220703125</AltitudeMeters>
            <DistanceMeters>8365.3184836567</DistanceMeters>
          </Trackpoint>
          <Trackpoint>
            <Time>2023-01-11T17:52:55.000Z</Time>
            <Position>
              <LatitudeDegrees>-49.22450761310756206512451171875</LatitudeDegrees>
              <LongitudeDegrees>-73.02301260642707347869873046875</LongitudeDegrees>
            </Position>
            <AltitudeMeters>555.20001220703125</AltitudeMeters>
            <DistanceMeters>8367.1114441175</DistanceMeters>
          </Trackpoint>
          <Trackpoint>
            <Time>2023-01-11T17:53:00.000Z</Time>
            <Position>
              <LatitudeDegrees>-49.2245289869606494903564453125</LatitudeDegrees>
              <LongitudeDegrees>-73.02294261753559112548828125</LongitudeDegrees>
            </Position>
            <AltitudeMeters>553.5999755859375</AltitudeMeters>
            <DistanceMeters>8372.7276756849</DistanceMeters>
          </Trackpoint>
          <Trackpoint>
            <Time>2023-01-11T17:53:03.000Z</Time>
            <Position>
              <LatitudeDegrees>-49.2245583236217498779296875</LatitudeDegrees>
              <LongitudeDegrees>-73.02291369996964931488037109375</LongitudeDegrees>
            </Position>
            <AltitudeMeters>552.20001220703125</AltitudeMeters>
            <DistanceMeters>8376.6110025655</DistanceMeters>
          </Trackpoint>
          <Trackpoint>
            <Time>2023-01-11T17:53:08.000Z</Time>
            <Position>
              <LatitudeDegrees>-49.22458757646381855010986328125</LatitudeDegrees>
              <LongitudeDegrees>-73.022861480712890625</LongitudeDegrees>
            </Position>
            <AltitudeMeters>551.5999755859375</AltitudeMeters>
            <DistanceMeters>8381.6123335633</DistanceMeters>
          </Trackpoint>
          <Trackpoint>
            <Time>2023-01-11T17:53:10.000Z</Time>
            <Position>
              <LatitudeDegrees>-49.22460182569921016693115234375</LatitudeDegrees>
              <LongitudeDegrees>-73.0228314734995365142822265625</LongitudeDegrees>
            </Position>
            <AltitudeMeters>551.20001220703125</AltitudeMeters>
            <DistanceMeters>8384.3101552056</DistanceMeters>
          </Trackpoint>
          <Trackpoint>
            <Time>2023-01-11T17:53:16.000Z</Time>
            <Position>
              <LatitudeDegrees>-49.22463384456932544708251953125</LatitudeDegrees>
              <LongitudeDegrees>-73.0227603949606418609619140625</LongitudeDegrees>
            </Position>
            <AltitudeMeters>550.20001220703125</AltitudeMeters>
            <DistanceMeters>8390.5862362638</DistanceMeters>
          </Trackpoint>
          <Trackpoint>
            <Time>2023-01-11T17:53:19.000Z</Time>
            <Position>
              <LatitudeDegrees>-49.2246557213366031646728515625</LatitudeDegrees>
              <LongitudeDegrees>-73.02271806634962558746337890625</LongitudeDegrees>
            </Position>
            <AltitudeMeters>550.79998779296875</AltitudeMeters>
            <DistanceMeters>8394.5088948343</DistanceMeters>
          </Trackpoint>
          <Trackpoint>
            <Time>2023-01-11T17:53:30.000Z</Time>
            <Position>
              <LatitudeDegrees>-49.22471213154494762420654296875</LatitudeDegrees>
              <LongitudeDegrees>-73.0225716345012187957763671875</LongitudeDegrees>
            </Position>
            <AltitudeMeters>551.20001220703125</AltitudeMeters>
            <DistanceMeters>8406.8667527724</DistanceMeters>
          </Trackpoint>
          <Trackpoint>
            <Time>2023-01-11T17:53:31.000Z</Time>
            <Position>
              <LatitudeDegrees>-49.22471716068685054779052734375</LatitudeDegrees>
              <LongitudeDegrees>-73.02255931310355663299560546875</LongitudeDegrees>
            </Position>
            <AltitudeMeters>551.20001220703125</AltitudeMeters>
            <DistanceMeters>8407.92492548</DistanceMeters>
          </Trackpoint>
          <Trackpoint>
            <Time>2023-01-11T17:53:33.000Z</Time>
            <Position>
              <LatitudeDegrees>-49.224728979170322418212890625</LatitudeDegrees>
              <LongitudeDegrees>-73.02253869362175464630126953125</LongitudeDegrees>
            </Position>
            <AltitudeMeters>551.5999755859375</AltitudeMeters>
            <DistanceMeters>8409.9182226569</DistanceMeters>
          </Trackpoint>
          <Trackpoint>
            <Time>2023-01-11T17:53:39.000Z</Time>
            <Position>
              <LatitudeDegrees>-49.22476409934461116790771484375</LatitudeDegrees>
              <LongitudeDegrees>-73.02246795035898685455322265625</LongitudeDegrees>
            </Position>
            <AltitudeMeters>552.4000244140625</AltitudeMeters>
            <DistanceMeters>8416.377243726</DistanceMeters>
          </Trackpoint>
          <Trackpoint>
            <Time>2023-01-11T17:53:42.000Z</Time>
            <Position>
              <LatitudeDegrees>-49.22477231360971927642822265625</LatitudeDegrees>
              <LongitudeDegrees>-73.02241732366383075714111328125</LongitudeDegrees>
            </Position>
            <AltitudeMeters>551.5999755859375</AltitudeMeters>
            <DistanceMeters>8420.1687977212</DistanceMeters>
          </Trackpoint>
          <Trackpoint>
            <Time>2023-01-11T17:53:52.000Z</Time>
            <Position>
              <LatitudeDegrees>-49.22479511238634586334228515625</LatitudeDegrees>
              <LongitudeDegrees>-73.0222578160464763641357421875</LongitudeDegrees>
            </Position>
            <AltitudeMeters>550.5999755859375</AltitudeMeters>
            <DistanceMeters>8432.0383913401</DistanceMeters>
          </Trackpoint>
          <Trackpoint>
            <Time>2023-01-11T17:53:53.000Z</Time>
            <Position>
              <LatitudeDegrees>-49.224796704947948455810546875</LatitudeDegrees>
              <LongitudeDegrees>-73.0222433991730213165283203125</LongitudeDegrees>
            </Position>
            <AltitudeMeters>550.4000244140625</AltitudeMeters>
            <DistanceMeters>8433.1050635634</DistanceMeters>
          </Trackpoint>
          <Trackpoint>
            <Time>2023-01-11T17:53:56.000Z</Time>
            <Position>
              <LatitudeDegrees>-49.22481221146881580352783203125</LatitudeDegrees>
              <LongitudeDegrees>-73.022196292877197265625</LongitudeDegrees>
            </Position>
            <AltitudeMeters>552.20001220703125</AltitudeMeters>
            <DistanceMeters>8436.9404246321</DistanceMeters>
          </Trackpoint>
          <Trackpoint>
            <Time>2023-01-11T17:54:01.000Z</Time>
            <Position>
              <LatitudeDegrees>-49.22483869828283786773681640625</LatitudeDegrees>
              <LongitudeDegrees>-73.0221278965473175048828125</LongitudeDegrees>
            </Position>
            <AltitudeMeters>552.5999755859375</AltitudeMeters>
            <DistanceMeters>8442.7206740076</DistanceMeters>
          </Trackpoint>
          <Trackpoint>
            <Time>2023-01-11T17:54:09.000Z</Time>
            <Position>
              <LatitudeDegrees>-49.224867112934589385986328125</LatitudeDegrees>
              <LongitudeDegrees>-73.02199956960976123809814453125</LongitudeDegrees>
            </Position>
            <AltitudeMeters>552</AltitudeMeters>
            <DistanceMeters>8452.5705035144</DistanceMeters>
          </Trackpoint>
          <Trackpoint>
            <Time>2023-01-11T17:54:11.000Z</Time>
            <Position>
              <LatitudeDegrees>-49.22487155534327030181884765625</LatitudeDegrees>
              <LongitudeDegrees>-73.02198632620275020599365234375</LongitudeDegrees>
            </Position>
            <AltitudeMeters>550.5999755859375</AltitudeMeters>
            <DistanceMeters>8453.653974759</DistanceMeters>
          </Trackpoint>
          <Trackpoint>
            <Time>2023-01-11T17:54:12.000Z</Time>
            <Position>
              <LatitudeDegrees>-49.22487390227615833282470703125</LatitudeDegrees>
              <LongitudeDegrees>-73.02198599092662334442138671875</LongitudeDegrees>
            </Position>
            <AltitudeMeters>550.5999755859375</AltitudeMeters>
            <DistanceMeters>8453.9227508955</DistanceMeters>
          </Trackpoint>
          <Trackpoint>
            <Time>2023-01-11T17:54:13.000Z</Time>
            <Position>
              <LatitudeDegrees>-49.2248753271996974945068359375</LatitudeDegrees>
              <LongitudeDegrees>-73.02198532037436962127685546875</LongitudeDegrees>
            </Position>
            <AltitudeMeters>550.5999755859375</AltitudeMeters>
            <DistanceMeters>8454.0873419928</DistanceMeters>
          </Trackpoint>
          <Trackpoint>
            <Time>2023-01-11T17:54:19.000Z</Time>
            <Position>
              <LatitudeDegrees>-49.2248880676925182342529296875</LatitudeDegrees>
              <LongitudeDegrees>-73.0219768546521663665771484375</LongitudeDegrees>
            </Position>
            <AltitudeMeters>546.4000244140625</AltitudeMeters>
            <DistanceMeters>8455.6313433468</DistanceMeters>
          </Trackpoint>
          <Trackpoint>
            <Time>2023-01-11T17:54:20.000Z</Time>
            <Position>
              <LatitudeDegrees>-49.22488756477832794189453125</LatitudeDegrees>
              <LongitudeDegrees>-73.02197610028088092803955078125</LongitudeDegrees>
            </Position>
            <AltitudeMeters>546.4000244140625</AltitudeMeters>
            <DistanceMeters>8455.7657314151</DistanceMeters>
          </Trackpoint>
          <Trackpoint>
            <Time>2023-01-11T17:54:30.000Z</Time>
            <Position>
              <LatitudeDegrees>-49.22488479875028133392333984375</LatitudeDegrees>
              <LongitudeDegrees>-73.021976016461849212646484375</LongitudeDegrees>
            </Position>
            <AltitudeMeters>547.79998779296875</AltitudeMeters>
            <DistanceMeters>8456.0662322711</DistanceMeters>
          </Trackpoint>
          <Trackpoint>
            <Time>2023-01-11T17:54:35.000Z</Time>
            <Position>
              <LatitudeDegrees>-49.22488479875028133392333984375</LatitudeDegrees>
              <LongitudeDegrees>-73.021976016461849212646484375</LongitudeDegrees>
            </Position>
            <AltitudeMeters>546.20001220703125</AltitudeMeters>
            <DistanceMeters>8456.0662322711</DistanceMeters>
          </Trackpoint>
          <Trackpoint>
            <Time>2023-01-11T17:54:36.000Z</Time>
            <Position>
              <LatitudeDegrees>-49.22488479875028133392333984375</LatitudeDegrees>
              <LongitudeDegrees>-73.021976016461849212646484375</LongitudeDegrees>
            </Position>
            <AltitudeMeters>547.79998779296875</AltitudeMeters>
            <DistanceMeters>8456.0662322711</DistanceMeters>
          </Trackpoint>
          <Trackpoint>
            <Time>2023-01-11T17:54:39.000Z</Time>
            <Position>
              <LatitudeDegrees>-49.224884212017059326171875</LatitudeDegrees>
              <LongitudeDegrees>-73.02197559736669063568115234375</LongitudeDegrees>
            </Position>
            <AltitudeMeters>548.20001220703125</AltitudeMeters>
            <DistanceMeters>8456.2006203393</DistanceMeters>
          </Trackpoint>
          <Trackpoint>
            <Time>2023-01-11T17:54:45.000Z</Time>
            <Position>
              <LatitudeDegrees>-49.2248833738267421722412109375</LatitudeDegrees>
              <LongitudeDegrees>-73.021971993148326873779296875</LongitudeDegrees>
            </Position>
            <AltitudeMeters>548.20001220703125</AltitudeMeters>
            <DistanceMeters>8456.5011211953</DistanceMeters>
          </Trackpoint>
          <Trackpoint>
            <Time>2023-01-11T17:54:49.000Z</Time>
            <Position>
              <LatitudeDegrees>-49.22488379292190074920654296875</LatitudeDegrees>
              <LongitudeDegrees>-73.02197190932929515838623046875</LongitudeDegrees>
            </Position>
            <AltitudeMeters>548.20001220703125</AltitudeMeters>
            <DistanceMeters>8456.5011211953</DistanceMeters>
          </Trackpoint>
          <Trackpoint>
            <Time>2023-01-11T17:54:52.000Z</Time>
            <Position>
              <LatitudeDegrees>-49.22488379292190074920654296875</LatitudeDegrees>
              <LongitudeDegrees>-73.02197190932929515838623046875</LongitudeDegrees>
            </Position>
            <AltitudeMeters>546.79998779296875</AltitudeMeters>
            <DistanceMeters>8456.5011211953</DistanceMeters>
          </Trackpoint>
          <Trackpoint>
            <Time>2023-01-11T17:55:06.000Z</Time>
            <Position>
              <LatitudeDegrees>-49.22488379292190074920654296875</LatitudeDegrees>
              <LongitudeDegrees>-73.0219768546521663665771484375</LongitudeDegrees>
            </Position>
            <AltitudeMeters>549</AltitudeMeters>
            <DistanceMeters>8456.856678603</DistanceMeters>
          </Trackpoint>
          <Trackpoint>
            <Time>2023-01-11T17:55:07.000Z</Time>
            <Position>
              <LatitudeDegrees>-49.22488379292190074920654296875</LatitudeDegrees>
              <LongitudeDegrees>-73.021978028118610382080078125</LongitudeDegrees>
            </Position>
            <AltitudeMeters>547.20001220703125</AltitudeMeters>
            <DistanceMeters>8456.856678603</DistanceMeters>
          </Trackpoint>
          <Trackpoint>
            <Time>2023-01-11T17:55:08.000Z</Time>
            <Position>
              <LatitudeDegrees>-49.22488379292190074920654296875</LatitudeDegrees>
              <LongitudeDegrees>-73.02197844721376895904541015625</LongitudeDegrees>
            </Position>
            <AltitudeMeters>545.4000244140625</AltitudeMeters>
            <DistanceMeters>8456.856678603</DistanceMeters>
          </Trackpoint>
          <Trackpoint>
            <Time>2023-01-11T17:55:09.000Z</Time>
            <Position>
              <LatitudeDegrees>-49.22488379292190074920654296875</LatitudeDegrees>
              <LongitudeDegrees>-73.021978698670864105224609375</LongitudeDegrees>
            </Position>
            <AltitudeMeters>546.5999755859375</AltitudeMeters>
            <DistanceMeters>8456.856678603</DistanceMeters>
          </Trackpoint>
          <Trackpoint>
            <Time>2023-01-11T17:55:19.000Z</Time>
            <Position>
              <LatitudeDegrees>-49.22487474046647548675537109375</LatitudeDegrees>
              <LongitudeDegrees>-73.0219802074134349822998046875</LongitudeDegrees>
            </Position>
            <AltitudeMeters>548</AltitudeMeters>
            <DistanceMeters>8457.8668264329</DistanceMeters>
          </Trackpoint>
          <Trackpoint>
            <Time>2023-01-11T17:55:26.000Z</Time>
            <Position>
              <LatitudeDegrees>-49.22487390227615833282470703125</LatitudeDegrees>
              <LongitudeDegrees>-73.02198096178472042083740234375</LongitudeDegrees>
            </Position>
            <AltitudeMeters>549</AltitudeMeters>
            <DistanceMeters>8457.9618531473</DistanceMeters>
          </Trackpoint>
          <Trackpoint>
            <Time>2023-01-11T17:55:27.000Z</Time>
            <Position>
              <LatitudeDegrees>-49.22487390227615833282470703125</LatitudeDegrees>
              <LongitudeDegrees>-73.02198096178472042083740234375</LongitudeDegrees>
            </Position>
            <AltitudeMeters>550.79998779296875</AltitudeMeters>
            <DistanceMeters>8457.9618531473</DistanceMeters>
          </Trackpoint>
          <Trackpoint>
            <Time>2023-01-11T17:55:30.000Z</Time>
            <Position>
              <LatitudeDegrees>-49.22487557865679264068603515625</LatitudeDegrees>
              <LongitudeDegrees>-73.0219741724431514739990234375</LongitudeDegrees>
            </Position>
            <AltitudeMeters>552</AltitudeMeters>
            <DistanceMeters>8458.4823358975</DistanceMeters>
          </Trackpoint>
          <Trackpoint>
            <Time>2023-01-11T17:55:34.000Z</Time>
            <Position>
              <LatitudeDegrees>-49.22490357421338558197021484375</LatitudeDegrees>
              <LongitudeDegrees>-73.02188909612596035003662109375</LongitudeDegrees>
            </Position>
            <AltitudeMeters>551.79998779296875</AltitudeMeters>
            <DistanceMeters>8465.4069085138</DistanceMeters>
          </Trackpoint>
          <Trackpoint>
            <Time>2023-01-11T17:55:39.000Z</Time>
            <Position>
              <LatitudeDegrees>-49.22493676654994487762451171875</LatitudeDegrees>
              <LongitudeDegrees>-73.02176780998706817626953125</LongitudeDegrees>
            </Position>
            <AltitudeMeters>550.79998779296875</AltitudeMeters>
            <DistanceMeters>8474.96642595</DistanceMeters>
          </Trackpoint>
          <Trackpoint>
            <Time>2023-01-11T17:55:46.000Z</Time>
            <Position>
              <LatitudeDegrees>-49.22497482039034366607666015625</LatitudeDegrees>
              <LongitudeDegrees>-73.021623976528644561767578125</LongitudeDegrees>
            </Position>
            <AltitudeMeters>550.79998779296875</AltitudeMeters>
            <DistanceMeters>8486.2470215569</DistanceMeters>
          </Trackpoint>
          <Trackpoint>
            <Time>2023-01-11T17:55:55.000Z</Time>
            <Position>
              <LatitudeDegrees>-49.2250144667923450469970703125</LatitudeDegrees>
              <LongitudeDegrees>-73.02146413363516330718994140625</LongitudeDegrees>
            </Position>
            <AltitudeMeters>550.79998779296875</AltitudeMeters>
            <DistanceMeters>8498.675920049</DistanceMeters>
          </Trackpoint>
          <Trackpoint>
            <Time>2023-01-11T17:56:05.000Z</Time>
            <Position>
              <LatitudeDegrees>-49.22505243681371212005615234375</LatitudeDegrees>
              <LongitudeDegrees>-73.02128526382148265838623046875</LongitudeDegrees>
            </Position>
            <AltitudeMeters>550.20001220703125</AltitudeMeters>
            <DistanceMeters>8512.3472229217</DistanceMeters>
          </Trackpoint>
          <Trackpoint>
            <Time>2023-01-11T17:56:17.000Z</Time>
            <Position>
              <LatitudeDegrees>-49.22510624863207340240478515625</LatitudeDegrees>
              <LongitudeDegrees>-73.0210776440799236297607421875</LongitudeDegrees>
            </Position>
            <AltitudeMeters>550.20001220703125</AltitudeMeters>
            <DistanceMeters>8528.5840046774</DistanceMeters>
          </Trackpoint>
          <Trackpoint>
            <Time>2023-01-11T17:56:21.000Z</Time>
            <Position>
              <LatitudeDegrees>-49.225127957761287689208984375</LatitudeDegrees>
              <LongitudeDegrees>-73.02100715227425098419189453125</LongitudeDegrees>
            </Position>
            <AltitudeMeters>551.4000244140625</AltitudeMeters>
            <DistanceMeters>8534.2490635193</DistanceMeters>
          </Trackpoint>
          <Trackpoint>
            <Time>2023-01-11T17:56:26.000Z</Time>
            <Position>
              <LatitudeDegrees>-49.225152768194675445556640625</LatitudeDegrees>
              <LongitudeDegrees>-73.0209019593894481658935546875</LongitudeDegrees>
            </Position>
            <AltitudeMeters>550.5999755859375</AltitudeMeters>
            <DistanceMeters>8542.3787086218</DistanceMeters>
          </Trackpoint>
          <Trackpoint>
            <Time>2023-01-11T17:56:28.000Z</Time>
            <Position>
              <LatitudeDegrees>-49.22515846788883209228515625</LatitudeDegrees>
              <LongitudeDegrees>-73.02086113952100276947021484375</LongitudeDegrees>
            </Position>
            <AltitudeMeters>551</AltitudeMeters>
            <DistanceMeters>8545.4136185007</DistanceMeters>
          </Trackpoint>
          <Trackpoint>
            <Time>2023-01-11T17:56:39.000Z</Time>
            <Position>
              <LatitudeDegrees>-49.225205741822719573974609375</LatitudeDegrees>
              <LongitudeDegrees>-73.020667098462581634521484375</LongitudeDegrees>
            </Position>
            <AltitudeMeters>549.4000244140625</AltitudeMeters>
            <DistanceMeters>8560.4680815795</DistanceMeters>
          </Trackpoint>
          <Trackpoint>
            <Time>2023-01-11T17:56:41.000Z</Time>
            <Position>
              <LatitudeDegrees>-49.2252194881439208984375</LatitudeDegrees>
              <LongitudeDegrees>-73.02062795497477054595947265625</LongitudeDegrees>
            </Position>
            <AltitudeMeters>549.20001220703125</AltitudeMeters>
            <DistanceMeters>8563.698989868</DistanceMeters>
          </Trackpoint>
          <Trackpoint>
            <Time>2023-01-11T17:56:52.000Z</Time>
            <Position>
              <LatitudeDegrees>-49.22528855502605438232421875</LatitudeDegrees>
              <LongitudeDegrees>-73.02044673822820186614990234375</LongitudeDegrees>
            </Position>
            <AltitudeMeters>549</AltitudeMeters>
            <DistanceMeters>8578.9507035159</DistanceMeters>
          </Trackpoint>
          <Trackpoint>
            <Time>2023-01-11T17:56:58.000Z</Time>
            <Position>
              <LatitudeDegrees>-49.2253172211349010467529296875</LatitudeDegrees>
              <LongitudeDegrees>-73.020362667739391326904296875</LongitudeDegrees>
            </Position>
            <AltitudeMeters>550.79998779296875</AltitudeMeters>
            <DistanceMeters>8585.8445625458</DistanceMeters>
          </Trackpoint>
          <Trackpoint>
            <Time>2023-01-11T17:57:02.000Z</Time>
            <Position>
              <LatitudeDegrees>-49.22533557750284671783447265625</LatitudeDegrees>
              <LongitudeDegrees>-73.0202863924205303192138671875</LongitudeDegrees>
            </Position>
            <AltitudeMeters>549.5999755859375</AltitudeMeters>
            <DistanceMeters>8591.7530543612</DistanceMeters>
          </Trackpoint>
          <Trackpoint>
            <Time>2023-01-11T17:57:03.000Z</Time>
            <Position>
              <LatitudeDegrees>-49.22534295357763767242431640625</LatitudeDegrees>
              <LongitudeDegrees>-73.0202649347484111785888671875</LongitudeDegrees>
            </Position>
            <AltitudeMeters>549.5999755859375</AltitudeMeters>
            <DistanceMeters>8593.5155373531</DistanceMeters>
          </Trackpoint>
          <Trackpoint>
            <Time>2023-01-11T17:57:12.000Z</Time>
            <Position>
              <LatitudeDegrees>-49.22538033686578273773193359375</LatitudeDegrees>
              <LongitudeDegrees>-73.02009838633239269256591796875</LongitudeDegrees>
            </Position>
            <AltitudeMeters>549.4000244140625</AltitudeMeters>
            <DistanceMeters>8606.3173675887</DistanceMeters>
          </Trackpoint>
          <Trackpoint>
            <Time>2023-01-11T17:57:17.000Z</Time>
            <Position>
              <LatitudeDegrees>-49.22541872598230838775634765625</LatitudeDegrees>
              <LongitudeDegrees>-73.020026050508022308349609375</LongitudeDegrees>
            </Position>
            <AltitudeMeters>548.4000244140625</AltitudeMeters>
            <DistanceMeters>8613.092312501</DistanceMeters>
          </Trackpoint>
          <Trackpoint>
            <Time>2023-01-11T17:57:20.000Z</Time>
            <Position>
              <LatitudeDegrees>-49.22544839791953563690185546875</LatitudeDegrees>
              <LongitudeDegrees>-73.0199821293354034423828125</LongitudeDegrees>
            </Position>
            <AltitudeMeters>548.20001220703125</AltitudeMeters>
            <DistanceMeters>8617.6851611348</DistanceMeters>
          </Trackpoint>
          <Trackpoint>
            <Time>2023-01-11T17:57:22.000Z</Time>
            <Position>
              <LatitudeDegrees>-49.2254600487649440765380859375</LatitudeDegrees>
              <LongitudeDegrees>-73.0199499428272247314453125</LongitudeDegrees>
            </Position>
            <AltitudeMeters>549.4000244140625</AltitudeMeters>
            <DistanceMeters>8620.361137708</DistanceMeters>
          </Trackpoint>
          <Trackpoint>
            <Time>2023-01-11T17:57:29.000Z</Time>
            <Position>
              <LatitudeDegrees>-49.22548569738864898681640625</LatitudeDegrees>
              <LongitudeDegrees>-73.0198330990970134735107421875</LongitudeDegrees>
            </Position>
            <AltitudeMeters>549.20001220703125</AltitudeMeters>
            <DistanceMeters>8629.3214061003</DistanceMeters>
          </Trackpoint>
          <Trackpoint>
            <Time>2023-01-11T17:57:31.000Z</Time>
            <Position>
              <LatitudeDegrees>-49.22549885697662830352783203125</LatitudeDegrees>
              <LongitudeDegrees>-73.0197908543050289154052734375</LongitudeDegrees>
            </Position>
            <AltitudeMeters>548</AltitudeMeters>
            <DistanceMeters>8632.7225129679</DistanceMeters>
          </Trackpoint>
          <Trackpoint>
            <Time>2023-01-11T17:57:38.000Z</Time>
            <Position>
              <LatitudeDegrees>-49.225526936352252960205078125</LatitudeDegrees>
              <LongitudeDegrees>-73.01966051571071147918701171875</LongitudeDegrees>
            </Position>
            <AltitudeMeters>549.20001220703125</AltitudeMeters>
            <DistanceMeters>8642.6989603599</DistanceMeters>
          </Trackpoint>
          <Trackpoint>
            <Time>2023-01-11T17:57:40.000Z</Time>
            <Position>
              <LatitudeDegrees>-49.22553255222737789154052734375</LatitudeDegrees>
              <LongitudeDegrees>-73.01963067613542079925537109375</LongitudeDegrees>
            </Position>
            <AltitudeMeters>550.4000244140625</AltitudeMeters>
            <DistanceMeters>8644.9577195748</DistanceMeters>
          </Trackpoint>
          <Trackpoint>
            <Time>2023-01-11T17:57:41.000Z</Time>
            <Position>
              <LatitudeDegrees>-49.2255364917218685150146484375</LatitudeDegrees>
              <LongitudeDegrees>-73.01961642690002918243408203125</LongitudeDegrees>
            </Position>
            <AltitudeMeters>549.79998779296875</AltitudeMeters>
            <DistanceMeters>8646.0900935656</DistanceMeters>
          </Trackpoint>
          <Trackpoint>
            <Time>2023-01-11T17:57:43.000Z</Time>
            <Position>
              <LatitudeDegrees>-49.22554395161569118499755859375</LatitudeDegrees>
              <LongitudeDegrees>-73.0195792950689792633056640625</LongitudeDegrees>
            </Position>
            <AltitudeMeters>549.79998779296875</AltitudeMeters>
            <DistanceMeters>8648.9138424036</DistanceMeters>
          </Trackpoint>
          <Trackpoint>
            <Time>2023-01-11T17:57:44.000Z</Time>
            <Position>
              <LatitudeDegrees>-49.225547723472118377685546875</LatitudeDegrees>
              <LongitudeDegrees>-73.0195583403110504150390625</LongitudeDegrees>
            </Position>
            <AltitudeMeters>549.4000244140625</AltitudeMeters>
            <DistanceMeters>8650.49254475</DistanceMeters>
          </Trackpoint>
          <Trackpoint>
            <Time>2023-01-11T17:57:45.000Z</Time>
            <Position>
              <LatitudeDegrees>-49.225551746785640716552734375</LatitudeDegrees>
              <LongitudeDegrees>-73.0195363797247409820556640625</LongitudeDegrees>
            </Position>
            <AltitudeMeters>548.79998779296875</AltitudeMeters>
            <DistanceMeters>8652.1493921295</DistanceMeters>
          </Trackpoint>
          <Trackpoint>
            <Time>2023-01-11T17:57:53.000Z</Time>
            <Position>
              <LatitudeDegrees>-49.22558762133121490478515625</LatitudeDegrees>
              <LongitudeDegrees>-73.01939564757049083709716796875</LongitudeDegrees>
            </Position>
            <AltitudeMeters>548.20001220703125</AltitudeMeters>
            <DistanceMeters>8663.1306325345</DistanceMeters>
          </Trackpoint>
          <Trackpoint>
            <Time>2023-01-11T17:57:58.000Z</Time>
            <Position>
              <LatitudeDegrees>-49.22561368905007839202880859375</LatitudeDegrees>
              <LongitudeDegrees>-73.01931132562458515167236328125</LongitudeDegrees>
            </Position>
            <AltitudeMeters>547.5999755859375</AltitudeMeters>
            <DistanceMeters>8669.9122384895</DistanceMeters>
          </Trackpoint>
          <Trackpoint>
            <Time>2023-01-11T17:58:03.000Z</Time>
            <Position>
              <LatitudeDegrees>-49.22562676481902599334716796875</LatitudeDegrees>
              <LongitudeDegrees>-73.01922616548836231231689453125</LongitudeDegrees>
            </Position>
            <AltitudeMeters>547.79998779296875</AltitudeMeters>
            <DistanceMeters>8676.2712228672</DistanceMeters>
          </Trackpoint>
          <Trackpoint>
            <Time>2023-01-11T17:58:06.000Z</Time>
            <Position>
              <LatitudeDegrees>-49.22563590109348297119140625</LatitudeDegrees>
              <LongitudeDegrees>-73.01917486824095249176025390625</LongitudeDegrees>
            </Position>
            <AltitudeMeters>549</AltitudeMeters>
            <DistanceMeters>8680.135902212</DistanceMeters>
          </Trackpoint>
          <Trackpoint>
            <Time>2023-01-11T17:58:14.000Z</Time>
            <Position>
              <LatitudeDegrees>-49.22566263936460018157958984375</LatitudeDegrees>
              <LongitudeDegrees>-73.01901443861424922943115234375</LongitudeDegrees>
            </Position>
            <AltitudeMeters>547.5999755859375</AltitudeMeters>
            <DistanceMeters>8692.1717024062</DistanceMeters>
          </Trackpoint>
          <Trackpoint>
            <Time>2023-01-11T17:58:15.000Z</Time>
            <Position>
              <LatitudeDegrees>-49.22566414810717105865478515625</LatitudeDegrees>
              <LongitudeDegrees>-73.01900102756917476654052734375</LongitudeDegrees>
            </Position>
            <AltitudeMeters>548.4000244140625</AltitudeMeters>
            <DistanceMeters>8693.1638104308</DistanceMeters>
          </Trackpoint>
          <Trackpoint>
            <Time>2023-01-11T17:58:17.000Z</Time>
            <Position>
              <LatitudeDegrees>-49.225667417049407958984375</LatitudeDegrees>
              <LongitudeDegrees>-73.01896565593779087066650390625</LongitudeDegrees>
            </Position>
            <AltitudeMeters>548.4000244140625</AltitudeMeters>
            <DistanceMeters>8695.7610141393</DistanceMeters>
          </Trackpoint>
          <Trackpoint>
            <Time>2023-01-11T17:58:22.000Z</Time>
            <Position>
              <LatitudeDegrees>-49.2256741225719451904296875</LatitudeDegrees>
              <LongitudeDegrees>-73.01887412555515766143798828125</LongitudeDegrees>
            </Position>
            <AltitudeMeters>549</AltitudeMeters>
            <DistanceMeters>8702.4561840003</DistanceMeters>
          </Trackpoint>
          <Trackpoint>
            <Time>2023-01-11T17:58:23.000Z</Time>
            <Position>
              <LatitudeDegrees>-49.2256722785532474517822265625</LatitudeDegrees>
              <LongitudeDegrees>-73.018853925168514251708984375</LongitudeDegrees>
            </Position>
            <AltitudeMeters>548</AltitudeMeters>
            <DistanceMeters>8703.9375038766</DistanceMeters>
          </Trackpoint>
          <Trackpoint>
            <Time>2023-01-11T17:58:24.000Z</Time>
            <Position>
              <LatitudeDegrees>-49.2256732843816280364990234375</LatitudeDegrees>
              <LongitudeDegrees>-73.018834479153156280517578125</LongitudeDegrees>
            </Position>
            <AltitudeMeters>548</AltitudeMeters>
            <DistanceMeters>8705.3533700322</DistanceMeters>
          </Trackpoint>
          <Trackpoint>
            <Time>2023-01-11T17:58:34.000Z</Time>
            <Position>
              <LatitudeDegrees>-49.22572039067745208740234375</LatitudeDegrees>
              <LongitudeDegrees>-73.01864647306501865386962890625</LongitudeDegrees>
            </Position>
            <AltitudeMeters>547</AltitudeMeters>
            <DistanceMeters>8719.9905690029</DistanceMeters>
          </Trackpoint>
          <Trackpoint>
            <Time>2023-01-11T17:58:35.000Z</Time>
            <Position>
              <LatitudeDegrees>-49.22573371790349483489990234375</LatitudeDegrees>
              <LongitudeDegrees>-73.01863339729607105255126953125</LongitudeDegrees>
            </Position>
            <AltitudeMeters>546.5999755859375</AltitudeMeters>
            <DistanceMeters>8721.7530519948</DistanceMeters>
          </Trackpoint>
          <Trackpoint>
            <Time>2023-01-11T17:58:39.000Z</Time>
            <Position>
              <LatitudeDegrees>-49.22578275203704833984375</LatitudeDegrees>
              <LongitudeDegrees>-73.01857589744031429290771484375</LongitudeDegrees>
            </Position>
            <AltitudeMeters>546.5999755859375</AltitudeMeters>
            <DistanceMeters>8728.6272348576</DistanceMeters>
          </Trackpoint>
          <Trackpoint>
            <Time>2023-01-11T17:58:41.000Z</Time>
            <Position>
              <LatitudeDegrees>-49.225801192224025726318359375</LatitudeDegrees>
              <LongitudeDegrees>-73.01853616721928119659423828125</LongitudeDegrees>
            </Position>
            <AltitudeMeters>546.5999755859375</AltitudeMeters>
            <DistanceMeters>8732.1700876992</DistanceMeters>
          </Trackpoint>
          <Trackpoint>
            <Time>2023-01-11T17:58:53.000Z</Time>
            <Position>
              <LatitudeDegrees>-49.225864224135875701904296875</LatitudeDegrees>
              <LongitudeDegrees>-73.0183236859738826751708984375</LongitudeDegrees>
            </Position>
            <AltitudeMeters>547.5999755859375</AltitudeMeters>
            <DistanceMeters>8749.1341528427</DistanceMeters>
          </Trackpoint>
          <Trackpoint>
            <Time>2023-01-11T17:58:54.000Z</Time>
            <Position>
              <LatitudeDegrees>-49.22586925327777862548828125</LatitudeDegrees>
              <LongitudeDegrees>-73.01830767653882503509521484375</LongitudeDegrees>
            </Position>
            <AltitudeMeters>548</AltitudeMeters>
            <DistanceMeters>8750.4266558958</DistanceMeters>
          </Trackpoint>
          <Trackpoint>
            <Time>2023-01-11T17:59:02.000Z</Time>
            <Position>
              <LatitudeDegrees>-49.22591376118361949920654296875</LatitudeDegrees>
              <LongitudeDegrees>-73.01814305596053600311279296875</LongitudeDegrees>
            </Position>
            <AltitudeMeters>546.5999755859375</AltitudeMeters>
            <DistanceMeters>8763.3778593127</DistanceMeters>
          </Trackpoint>
          <Trackpoint>
            <Time>2023-01-11T17:59:05.000Z</Time>
            <Position>
              <LatitudeDegrees>-49.22593002207577228546142578125</LatitudeDegrees>
              <LongitudeDegrees>-73.01808320917189121246337890625</LongitudeDegrees>
            </Position>
            <AltitudeMeters>546.5999755859375</AltitudeMeters>
            <DistanceMeters>8768.089114761</DistanceMeters>
          </Trackpoint>
          <Trackpoint>
            <Time>2023-01-11T17:59:09.000Z</Time>
            <Position>
              <LatitudeDegrees>-49.22593655996024608612060546875</LatitudeDegrees>
              <LongitudeDegrees>-73.0180160701274871826171875</LongitudeDegrees>
            </Position>
            <AltitudeMeters>546.79998779296875</AltitudeMeters>
            <DistanceMeters>8773.0231887463</DistanceMeters>
          </Trackpoint>
          <Trackpoint>
            <Time>2023-01-11T17:59:10.000Z</Time>
            <Position>
              <LatitudeDegrees>-49.22593723051249980926513671875</LatitudeDegrees>
              <LongitudeDegrees>-73.0180018208920955657958984375</LongitudeDegrees>
            </Position>
            <AltitudeMeters>547</AltitudeMeters>
            <DistanceMeters>8774.0641542469</DistanceMeters>
          </Trackpoint>
          <Trackpoint>
            <Time>2023-01-11T17:59:14.000Z</Time>
            <Position>
              <LatitudeDegrees>-49.22595064155757427215576171875</LatitudeDegrees>
              <LongitudeDegrees>-73.0179287306964397430419921875</LongitudeDegrees>
            </Position>
            <AltitudeMeters>547.20001220703125</AltitudeMeters>
            <DistanceMeters>8779.5822533552</DistanceMeters>
          </Trackpoint>
          <Trackpoint>
            <Time>2023-01-11T17:59:22.000Z</Time>
            <Position>
              <LatitudeDegrees>-49.22598752193152904510498046875</LatitudeDegrees>
              <LongitudeDegrees>-73.017777688801288604736328125</LongitudeDegrees>
            </Position>
            <AltitudeMeters>548.20001220703125</AltitudeMeters>
            <DistanceMeters>8791.3033276668</DistanceMeters>
          </Trackpoint>
          <Trackpoint>
            <Time>2023-01-11T17:59:24.000Z</Time>
            <Position>
              <LatitudeDegrees>-49.2259974963963031768798828125</LatitudeDegrees>
              <LongitudeDegrees>-73.017746172845363616943359375</LongitudeDegrees>
            </Position>
            <AltitudeMeters>548.4000244140625</AltitudeMeters>
            <DistanceMeters>8793.8496180836</DistanceMeters>
          </Trackpoint>
          <Trackpoint>
            <Time>2023-01-11T17:59:29.000Z</Time>
            <Position>
              <LatitudeDegrees>-49.2260384000837802886962890625</LatitudeDegrees>
              <LongitudeDegrees>-73.0176702328026294708251953125</LongitudeDegrees>
            </Position>
            <AltitudeMeters>546.20001220703125</AltitudeMeters>
            <DistanceMeters>8801.0050728865</DistanceMeters>
          </Trackpoint>
          <Trackpoint>
            <Time>2023-01-11T17:59:33.000Z</Time>
            <Position>
              <LatitudeDegrees>-49.2260729335248470306396484375</LatitudeDegrees>
              <LongitudeDegrees>-73.01762505434453487396240234375</LongitudeDegrees>
            </Position>
            <AltitudeMeters>546.79998779296875</AltitudeMeters>
            <DistanceMeters>8806.0611728077</DistanceMeters>
          </Trackpoint>
          <Trackpoint>
            <Time>2023-01-11T17:59:40.000Z</Time>
            <Position>
              <LatitudeDegrees>-49.22612749971449375152587890625</LatitudeDegrees>
              <LongitudeDegrees>-73.01755883730947971343994140625</LongitudeDegrees>
            </Position>
            <AltitudeMeters>546.20001220703125</AltitudeMeters>
            <DistanceMeters>8813.8103668531</DistanceMeters>
          </Trackpoint>
          <Trackpoint>
            <Time>2023-01-11T17:59:43.000Z</Time>
            <Position>
              <LatitudeDegrees>-49.22614376060664653778076171875</LatitudeDegrees>
              <LongitudeDegrees>-73.01752866245806217193603515625</LongitudeDegrees>
            </Position>
            <AltitudeMeters>546</AltitudeMeters>
            <DistanceMeters>8816.6516497219</DistanceMeters>
          </Trackpoint>
          <Trackpoint>
            <Time>2023-01-11T17:59:44.000Z</Time>
            <Position>
              <LatitudeDegrees>-49.22614912502467632293701171875</LatitudeDegrees>
              <LongitudeDegrees>-73.017522878944873809814453125</LongitudeDegrees>
            </Position>
            <AltitudeMeters>546</AltitudeMeters>
            <DistanceMeters>8817.3815637649</DistanceMeters>
          </Trackpoint>
          <Trackpoint>
            <Time>2023-01-11T17:59:49.000Z</Time>
            <Position>
              <LatitudeDegrees>-49.22617712058126926422119140625</LatitudeDegrees>
              <LongitudeDegrees>-73.01752078346908092498779296875</LongitudeDegrees>
            </Position>
            <AltitudeMeters>546.4000244140625</AltitudeMeters>
            <DistanceMeters>8820.5015673557</DistanceMeters>
          </Trackpoint>
          <Trackpoint>
            <Time>2023-01-11T17:59:56.000Z</Time>
            <Position>
              <LatitudeDegrees>-49.22622506506741046905517578125</LatitudeDegrees>
              <LongitudeDegrees>-73.01746814511716365814208984375</LongitudeDegrees>
            </Position>
            <AltitudeMeters>545.4000244140625</AltitudeMeters>
            <DistanceMeters>8827.0680439619</DistanceMeters>
          </Trackpoint>
          <Trackpoint>
            <Time>2023-01-11T18:00:03.000Z</Time>
            <Position>
              <LatitudeDegrees>-49.22625012695789337158203125</LatitudeDegrees>
              <LongitudeDegrees>-73.0174606852233409881591796875</LongitudeDegrees>
            </Position>
            <AltitudeMeters>545.79998779296875</AltitudeMeters>
            <DistanceMeters>8829.9093268308</DistanceMeters>
          </Trackpoint>
          <Trackpoint>
            <Time>2023-01-11T18:00:09.000Z</Time>
            <Position>
              <LatitudeDegrees>-49.22627753578126430511474609375</LatitudeDegrees>
              <LongitudeDegrees>-73.0174227990210056304931640625</LongitudeDegrees>
            </Position>
            <AltitudeMeters>545.79998779296875</AltitudeMeters>
            <DistanceMeters>8834.0197128256</DistanceMeters>
          </Trackpoint>
          <Trackpoint>
            <Time>2023-01-11T18:00:10.000Z</Time>
            <Position>
              <LatitudeDegrees>-49.22628725878894329071044921875</LatitudeDegrees>
              <LongitudeDegrees>-73.0174060352146625518798828125</LongitudeDegrees>
            </Position>
            <AltitudeMeters>545.79998779296875</AltitudeMeters>
            <DistanceMeters>8835.6518502436</DistanceMeters>
          </Trackpoint>
          <Trackpoint>
            <Time>2023-01-11T18:00:14.000Z</Time>
            <Position>
              <LatitudeDegrees>-49.22632279805839061737060546875</LatitudeDegrees>
              <LongitudeDegrees>-73.017346858978271484375</LongitudeDegrees>
            </Position>
            <AltitudeMeters>545.4000244140625</AltitudeMeters>
            <DistanceMeters>8841.4958000304</DistanceMeters>
          </Trackpoint>
          <Trackpoint>
            <Time>2023-01-11T18:00:18.000Z</Time>
            <Position>
              <LatitudeDegrees>-49.2263441719114780426025390625</LatitudeDegrees>
              <LongitudeDegrees>-73.01729598082602024078369140625</LongitudeDegrees>
            </Position>
            <AltitudeMeters>545.5999755859375</AltitudeMeters>
            <DistanceMeters>8845.8938022749</DistanceMeters>
          </Trackpoint>
          <Trackpoint>
            <Time>2023-01-11T18:00:25.000Z</Time>
            <Position>
              <LatitudeDegrees>-49.22636470757424831390380859375</LatitudeDegrees>
              <LongitudeDegrees>-73.01718793809413909912109375</LongitudeDegrees>
            </Position>
            <AltitudeMeters>547.4000244140625</AltitudeMeters>
            <DistanceMeters>8854.0727267945</DistanceMeters>
          </Trackpoint>
          <Trackpoint>
            <Time>2023-01-11T18:00:27.000Z</Time>
            <Position>
              <LatitudeDegrees>-49.226370491087436676025390625</LatitudeDegrees>
              <LongitudeDegrees>-73.01715868525207042694091796875</LongitudeDegrees>
            </Position>
            <AltitudeMeters>547.5999755859375</AltitudeMeters>
            <DistanceMeters>8856.2931820943</DistanceMeters>
          </Trackpoint>
          <Trackpoint>
            <Time>2023-01-11T18:00:30.000Z</Time>
            <Position>
              <LatitudeDegrees>-49.22638180665671825408935546875</LatitudeDegrees>
              <LongitudeDegrees>-73.0171183682978153228759765625</LongitudeDegrees>
            </Position>
            <AltitudeMeters>548.79998779296875</AltitudeMeters>
            <DistanceMeters>8859.4818912494</DistanceMeters>
          </Trackpoint>
          <Trackpoint>
            <Time>2023-01-11T18:00:33.000Z</Time>
            <Position>
              <LatitudeDegrees>-49.22638867981731891632080078125</LatitudeDegrees>
              <LongitudeDegrees>-73.01707268692553043365478515625</LongitudeDegrees>
            </Position>
            <AltitudeMeters>550</AltitudeMeters>
            <DistanceMeters>8862.8896292539</DistanceMeters>
          </Trackpoint>
          <Trackpoint>
            <Time>2023-01-11T18:00:37.000Z</Time>
            <Position>
              <LatitudeDegrees>-49.2264028452336788177490234375</LatitudeDegrees>
              <LongitudeDegrees>-73.01702474243938922882080078125</LongitudeDegrees>
            </Position>
            <AltitudeMeters>549.5999755859375</AltitudeMeters>
            <DistanceMeters>8866.714380728</DistanceMeters>
          </Trackpoint>
          <Trackpoint>
            <Time>2023-01-11T18:00:39.000Z</Time>
            <Position>
              <LatitudeDegrees>-49.2264159210026264190673828125</LatitudeDegrees>
              <LongitudeDegrees>-73.01698836497962474822998046875</LongitudeDegrees>
            </Position>
            <AltitudeMeters>548.79998779296875</AltitudeMeters>
            <DistanceMeters>8869.7313853776</DistanceMeters>
          </Trackpoint>
          <Trackpoint>
            <Time>2023-01-11T18:00:40.000Z</Time>
            <Position>
              <LatitudeDegrees>-49.226423799991607666015625</LatitudeDegrees>
              <LongitudeDegrees>-73.01697210408747196197509765625</LongitudeDegrees>
            </Position>
            <AltitudeMeters>547.79998779296875</AltitudeMeters>
            <DistanceMeters>8871.2035329064</DistanceMeters>
          </Trackpoint>
          <Trackpoint>
            <Time>2023-01-11T18:00:44.000Z</Time>
            <Position>
              <LatitudeDegrees>-49.22644458711147308349609375</LatitudeDegrees>
              <LongitudeDegrees>-73.0169115029275417327880859375</LongitudeDegrees>
            </Position>
            <AltitudeMeters>546.79998779296875</AltitudeMeters>
            <DistanceMeters>8876.179522216</DistanceMeters>
          </Trackpoint>
          <Trackpoint>
            <Time>2023-01-11T18:00:49.000Z</Time>
            <Position>
              <LatitudeDegrees>-49.22645791433751583099365234375</LatitudeDegrees>
              <LongitudeDegrees>-73.01684327423572540283203125</LongitudeDegrees>
            </Position>
            <AltitudeMeters>547</AltitudeMeters>
            <DistanceMeters>8881.3556440084</DistanceMeters>
          </Trackpoint>
          <Trackpoint>
            <Time>2023-01-11T18:00:50.000Z</Time>
            <Position>
              <LatitudeDegrees>-49.22645992599427700042724609375</LatitudeDegrees>
              <LongitudeDegrees>-73.01682961173355579376220703125</LongitudeDegrees>
            </Position>
            <AltitudeMeters>548</AltitudeMeters>
            <DistanceMeters>8882.3746919911</DistanceMeters>
          </Trackpoint>
          <Trackpoint>
            <Time>2023-01-11T18:00:55.000Z</Time>
            <Position>
              <LatitudeDegrees>-49.22647945582866668701171875</LatitudeDegrees>
              <LongitudeDegrees>-73.016751073300838470458984375</LongitudeDegrees>
            </Position>
            <AltitudeMeters>549</AltitudeMeters>
            <DistanceMeters>8888.4830695061</DistanceMeters>
          </Trackpoint>
          <Trackpoint>
            <Time>2023-01-11T18:01:00.000Z</Time>
            <Position>
              <LatitudeDegrees>-49.22648540697991847991943359375</LatitudeDegrees>
              <LongitudeDegrees>-73.016679324209690093994140625</LongitudeDegrees>
            </Position>
            <AltitudeMeters>549</AltitudeMeters>
            <DistanceMeters>8893.7405464671</DistanceMeters>
          </Trackpoint>
          <Trackpoint>
            <Time>2023-01-11T18:01:05.000Z</Time>
            <Position>
              <LatitudeDegrees>-49.22648624517023563385009765625</LatitudeDegrees>
              <LongitudeDegrees>-73.0166084133088588714599609375</LongitudeDegrees>
            </Position>
            <AltitudeMeters>548.20001220703125</AltitudeMeters>
            <DistanceMeters>8898.8965667396</DistanceMeters>
          </Trackpoint>
          <Trackpoint>
            <Time>2023-01-11T18:01:06.000Z</Time>
            <Position>
              <LatitudeDegrees>-49.22648758627474308013916015625</LatitudeDegrees>
              <LongitudeDegrees>-73.0165970139205455780029296875</LongitudeDegrees>
            </Position>
            <AltitudeMeters>548.20001220703125</AltitudeMeters>
            <DistanceMeters>8899.7358199568</DistanceMeters>
          </Trackpoint>
          <Trackpoint>
            <Time>2023-01-11T18:01:08.000Z</Time>
            <Position>
              <LatitudeDegrees>-49.2264895141124725341796875</LatitudeDegrees>
              <LongitudeDegrees>-73.01656977273523807525634765625</LongitudeDegrees>
            </Position>
            <AltitudeMeters>548</AltitudeMeters>
            <DistanceMeters>8901.7245817532</DistanceMeters>
          </Trackpoint>
          <Trackpoint>
            <Time>2023-01-11T18:01:10.000Z</Time>
            <Position>
              <LatitudeDegrees>-49.2264883406460285186767578125</LatitudeDegrees>
              <LongitudeDegrees>-73.0165359936654567718505859375</LongitudeDegrees>
            </Position>
            <AltitudeMeters>548</AltitudeMeters>
            <DistanceMeters>8904.1806133215</DistanceMeters>
          </Trackpoint>
          <Trackpoint>
            <Time>2023-01-11T18:01:11.000Z</Time>
            <Position>
              <LatitudeDegrees>-49.2264895141124725341796875</LatitudeDegrees>
              <LongitudeDegrees>-73.01652048714458942413330078125</LongitudeDegrees>
            </Position>
            <AltitudeMeters>547</AltitudeMeters>
            <DistanceMeters>8905.3129873123</DistanceMeters>
          </Trackpoint>
          <Trackpoint>
            <Time>2023-01-11T18:01:20.000Z</Time>
            <Position>
              <LatitudeDegrees>-49.2265010811388492584228515625</LatitudeDegrees>
              <LongitudeDegrees>-73.01638738252222537994384765625</LongitudeDegrees>
            </Position>
            <AltitudeMeters>545.79998779296875</AltitudeMeters>
            <DistanceMeters>8915.073484558</DistanceMeters>
          </Trackpoint>
          <Trackpoint>
            <Time>2023-01-11T18:01:21.000Z</Time>
            <Position>
              <LatitudeDegrees>-49.22649982385337352752685546875</LatitudeDegrees>
              <LongitudeDegrees>-73.016370199620723724365234375</LongitudeDegrees>
            </Position>
            <AltitudeMeters>545.79998779296875</AltitudeMeters>
            <DistanceMeters>8916.3305698286</DistanceMeters>
          </Trackpoint>
          <Trackpoint>
            <Time>2023-01-11T18:01:24.000Z</Time>
            <Position>
              <LatitudeDegrees>-49.22650082968175411224365234375</LatitudeDegrees>
              <LongitudeDegrees>-73.01631529815495014190673828125</LongitudeDegrees>
            </Position>
            <AltitudeMeters>544.5999755859375</AltitudeMeters>
            <DistanceMeters>8920.3239537321</DistanceMeters>
          </Trackpoint>
          <Trackpoint>
            <Time>2023-01-11T18:01:32.000Z</Time>
            <Position>
              <LatitudeDegrees>-49.22650133259594440460205078125</LatitudeDegrees>
              <LongitudeDegrees>-73.0162590555846691131591796875</LongitudeDegrees>
            </Position>
            <AltitudeMeters>544.20001220703125</AltitudeMeters>
            <DistanceMeters>8924.4134159918</DistanceMeters>
          </Trackpoint>
          <Trackpoint>
            <Time>2023-01-11T18:01:48.000Z</Time>
            <Position>
              <LatitudeDegrees>-49.22649848274886608123779296875</LatitudeDegrees>
              <LongitudeDegrees>-73.01626165397465229034423828125</LongitudeDegrees>
            </Position>
            <AltitudeMeters>543.5999755859375</AltitudeMeters>
            <DistanceMeters>8924.7935228493</DistanceMeters>
          </Trackpoint>
          <Trackpoint>
            <Time>2023-01-11T18:01:53.000Z</Time>
            <Position>
              <LatitudeDegrees>-49.22649848274886608123779296875</LatitudeDegrees>
              <LongitudeDegrees>-73.01626165397465229034423828125</LongitudeDegrees>
            </Position>
            <AltitudeMeters>543.79998779296875</AltitudeMeters>
            <DistanceMeters>8924.7935228493</DistanceMeters>
          </Trackpoint>
          <Trackpoint>
            <Time>2023-01-11T18:01:55.000Z</Time>
            <Position>
              <LatitudeDegrees>-49.226498566567897796630859375</LatitudeDegrees>
              <LongitudeDegrees>-73.01626165397465229034423828125</LongitudeDegrees>
            </Position>
            <AltitudeMeters>544</AltitudeMeters>
            <DistanceMeters>8924.7935228493</DistanceMeters>
          </Trackpoint>
          <Trackpoint>
            <Time>2023-01-11T18:01:56.000Z</Time>
            <Position>
              <LatitudeDegrees>-49.226498901844024658203125</LatitudeDegrees>
              <LongitudeDegrees>-73.01626165397465229034423828125</LongitudeDegrees>
            </Position>
            <AltitudeMeters>544.5999755859375</AltitudeMeters>
            <DistanceMeters>8924.7935228493</DistanceMeters>
          </Trackpoint>
          <Trackpoint>
            <Time>2023-01-11T18:02:00.000Z</Time>
            <Position>
              <LatitudeDegrees>-49.2265082895755767822265625</LatitudeDegrees>
              <LongitudeDegrees>-73.0161787569522857666015625</LongitudeDegrees>
            </Position>
            <AltitudeMeters>545.4000244140625</AltitudeMeters>
            <DistanceMeters>8930.9078107455</DistanceMeters>
          </Trackpoint>
          <Trackpoint>
            <Time>2023-01-11T18:02:01.000Z</Time>
            <Position>
              <LatitudeDegrees>-49.22651340253651142120361328125</LatitudeDegrees>
              <LongitudeDegrees>-73.01615721546113491058349609375</LongitudeDegrees>
            </Position>
            <AltitudeMeters>545.5999755859375</AltitudeMeters>
            <DistanceMeters>8932.5728132886</DistanceMeters>
          </Trackpoint>
          <Trackpoint>
            <Time>2023-01-11T18:02:06.000Z</Time>
            <Position>
              <LatitudeDegrees>-49.2265312559902667999267578125</LatitudeDegrees>
              <LongitudeDegrees>-73.0160553753376007080078125</LongitudeDegrees>
            </Position>
            <AltitudeMeters>545.79998779296875</AltitudeMeters>
            <DistanceMeters>8940.2376470992</DistanceMeters>
          </Trackpoint>
          <Trackpoint>
            <Time>2023-01-11T18:02:08.000Z</Time>
            <Position>
              <LatitudeDegrees>-49.22653955407440662384033203125</LatitudeDegrees>
              <LongitudeDegrees>-73.01603584550321102142333984375</LongitudeDegrees>
            </Position>
            <AltitudeMeters>545.20001220703125</AltitudeMeters>
            <DistanceMeters>8941.9322161622</DistanceMeters>
          </Trackpoint>
          <Trackpoint>
            <Time>2023-01-11T18:02:13.000Z</Time>
            <Position>
              <LatitudeDegrees>-49.226555563509464263916015625</LatitudeDegrees>
              <LongitudeDegrees>-73.01597164012491703033447265625</LongitudeDegrees>
            </Position>
            <AltitudeMeters>544.5999755859375</AltitudeMeters>
            <DistanceMeters>8946.9281276197</DistanceMeters>
          </Trackpoint>
          <Trackpoint>
            <Time>2023-01-11T18:02:14.000Z</Time>
            <Position>
              <LatitudeDegrees>-49.22655916772782802581787109375</LatitudeDegrees>
              <LongitudeDegrees>-73.01595487631857395172119140625</LongitudeDegrees>
            </Position>
            <AltitudeMeters>544.4000244140625</AltitudeMeters>
            <DistanceMeters>8948.2101080847</DistanceMeters>
          </Trackpoint>
          <Trackpoint>
            <Time>2023-01-11T18:02:18.000Z</Time>
            <Position>
              <LatitudeDegrees>-49.22657157294452190399169921875</LatitudeDegrees>
              <LongitudeDegrees>-73.01589083857834339141845703125</LongitudeDegrees>
            </Position>
            <AltitudeMeters>544.20001220703125</AltitudeMeters>
            <DistanceMeters>8953.064847987</DistanceMeters>
          </Trackpoint>
          <Trackpoint>
            <Time>2023-01-11T18:02:28.000Z</Time>
            <Position>
              <LatitudeDegrees>-49.2265869118273258209228515625</LatitudeDegrees>
              <LongitudeDegrees>-73.0157112143933773040771484375</LongitudeDegrees>
            </Position>
            <AltitudeMeters>543.5999755859375</AltitudeMeters>
            <DistanceMeters>8966.2321357762</DistanceMeters>
          </Trackpoint>
          <Trackpoint>
            <Time>2023-01-11T18:02:31.000Z</Time>
            <Position>
              <LatitudeDegrees>-49.2265859059989452362060546875</LatitudeDegrees>
              <LongitudeDegrees>-73.0156605876982212066650390625</LongitudeDegrees>
            </Position>
            <AltitudeMeters>543.5999755859375</AltitudeMeters>
            <DistanceMeters>8969.9137311834</DistanceMeters>
          </Trackpoint>
          <Trackpoint>
            <Time>2023-01-11T18:02:35.000Z</Time>
            <Position>
              <LatitudeDegrees>-49.22659520991146564483642578125</LatitudeDegrees>
              <LongitudeDegrees>-73.015615157783031463623046875</LongitudeDegrees>
            </Position>
            <AltitudeMeters>543.79998779296875</AltitudeMeters>
            <DistanceMeters>8973.3740608447</DistanceMeters>
          </Trackpoint>
          <Trackpoint>
            <Time>2023-01-11T18:02:41.000Z</Time>
            <Position>
              <LatitudeDegrees>-49.22661867924034595489501953125</LatitudeDegrees>
              <LongitudeDegrees>-73.0155496113002300262451171875</LongitudeDegrees>
            </Position>
            <AltitudeMeters>544.4000244140625</AltitudeMeters>
            <DistanceMeters>8978.80806029</DistanceMeters>
          </Trackpoint>
          <Trackpoint>
            <Time>2023-01-11T18:02:44.000Z</Time>
            <Position>
              <LatitudeDegrees>-49.22661197371780872344970703125</LatitudeDegrees>
              <LongitudeDegrees>-73.0155093781650066375732421875</LongitudeDegrees>
            </Position>
            <AltitudeMeters>544.79998779296875</AltitudeMeters>
            <DistanceMeters>8981.8265610987</DistanceMeters>
          </Trackpoint>
          <Trackpoint>
            <Time>2023-01-11T18:02:50.000Z</Time>
            <Position>
              <LatitudeDegrees>-49.22660660929977893829345703125</LatitudeDegrees>
              <LongitudeDegrees>-73.01541726104915142059326171875</LongitudeDegrees>
            </Position>
            <AltitudeMeters>545</AltitudeMeters>
            <DistanceMeters>8988.5486517352</DistanceMeters>
          </Trackpoint>
          <Trackpoint>
            <Time>2023-01-11T18:02:53.000Z</Time>
            <Position>
              <LatitudeDegrees>-49.226592443883419036865234375</LatitudeDegrees>
              <LongitudeDegrees>-73.01538289524614810943603515625</LongitudeDegrees>
            </Position>
            <AltitudeMeters>546.4000244140625</AltitudeMeters>
            <DistanceMeters>8991.5036617049</DistanceMeters>
          </Trackpoint>
          <Trackpoint>
            <Time>2023-01-11T18:03:00.000Z</Time>
            <Position>
              <LatitudeDegrees>-49.2265999875962734222412109375</LatitudeDegrees>
              <LongitudeDegrees>-73.015277199447154998779296875</LongitudeDegrees>
            </Position>
            <AltitudeMeters>546</AltitudeMeters>
            <DistanceMeters>8999.2318520235</DistanceMeters>
          </Trackpoint>
          <Trackpoint>
            <Time>2023-01-11T18:03:08.000Z</Time>
            <Position>
              <LatitudeDegrees>-49.22663502395153045654296875</LatitudeDegrees>
              <LongitudeDegrees>-73.01514904014766216278076171875</LongitudeDegrees>
            </Position>
            <AltitudeMeters>545.4000244140625</AltitudeMeters>
            <DistanceMeters>9009.3306481576</DistanceMeters>
          </Trackpoint>
          <Trackpoint>
            <Time>2023-01-11T18:03:09.000Z</Time>
            <Position>
              <LatitudeDegrees>-49.226639382541179656982421875</LatitudeDegrees>
              <LongitudeDegrees>-73.0151362158358097076416015625</LongitudeDegrees>
            </Position>
            <AltitudeMeters>545.20001220703125</AltitudeMeters>
            <DistanceMeters>9010.3802525241</DistanceMeters>
          </Trackpoint>
          <Trackpoint>
            <Time>2023-01-11T18:03:16.000Z</Time>
            <Position>
              <LatitudeDegrees>-49.226639382541179656982421875</LatitudeDegrees>
              <LongitudeDegrees>-73.0150242336094379425048828125</LongitudeDegrees>
            </Position>
            <AltitudeMeters>545</AltitudeMeters>
            <DistanceMeters>9018.5204429977</DistanceMeters>
          </Trackpoint>
          <Trackpoint>
            <Time>2023-01-11T18:03:25.000Z</Time>
            <Position>
              <LatitudeDegrees>-49.2266482673585414886474609375</LatitudeDegrees>
              <LongitudeDegrees>-73.0148985050618648529052734375</LongitudeDegrees>
            </Position>
            <AltitudeMeters>545.4000244140625</AltitudeMeters>
            <DistanceMeters>9027.7130190981</DistanceMeters>
          </Trackpoint>
          <Trackpoint>
            <Time>2023-01-11T18:03:29.000Z</Time>
            <Position>
              <LatitudeDegrees>-49.2266610078513622283935546875</LatitudeDegrees>
              <LongitudeDegrees>-73.01483572460711002349853515625</LongitudeDegrees>
            </Position>
            <AltitudeMeters>544.79998779296875</AltitudeMeters>
            <DistanceMeters>9032.49088821</DistanceMeters>
          </Trackpoint>
          <Trackpoint>
            <Time>2023-01-11T18:03:31.000Z</Time>
            <Position>
              <LatitudeDegrees>-49.2266646958887577056884765625</LatitudeDegrees>
              <LongitudeDegrees>-73.014809824526309967041015625</LongitudeDegrees>
            </Position>
            <AltitudeMeters>544.79998779296875</AltitudeMeters>
            <DistanceMeters>9034.4197198499</DistanceMeters>
          </Trackpoint>
          <Trackpoint>
            <Time>2023-01-11T18:03:38.000Z</Time>
            <Position>
              <LatitudeDegrees>-49.2266824655234813690185546875</LatitudeDegrees>
              <LongitudeDegrees>-73.0147255025804042816162109375</LongitudeDegrees>
            </Position>
            <AltitudeMeters>546.20001220703125</AltitudeMeters>
            <DistanceMeters>9040.8605405416</DistanceMeters>
          </Trackpoint>
          <Trackpoint>
            <Time>2023-01-11T18:03:40.000Z</Time>
            <Position>
              <LatitudeDegrees>-49.2266734130680561065673828125</LatitudeDegrees>
              <LongitudeDegrees>-73.0147020332515239715576171875</LongitudeDegrees>
            </Position>
            <AltitudeMeters>546.4000244140625</AltitudeMeters>
            <DistanceMeters>9042.8424798074</DistanceMeters>
          </Trackpoint>
          <Trackpoint>
            <Time>2023-01-11T18:03:43.000Z</Time>
            <Position>
              <LatitudeDegrees>-49.22667064704000949859619140625</LatitudeDegrees>
              <LongitudeDegrees>-73.01465601660311222076416015625</LongitudeDegrees>
            </Position>
            <AltitudeMeters>547.79998779296875</AltitudeMeters>
            <DistanceMeters>9046.2021815136</DistanceMeters>
          </Trackpoint>
          <Trackpoint>
            <Time>2023-01-11T18:03:44.000Z</Time>
            <Position>
              <LatitudeDegrees>-49.2266744188964366912841796875</LatitudeDegrees>
              <LongitudeDegrees>-73.01464059390127658843994140625</LongitudeDegrees>
            </Position>
            <AltitudeMeters>548</AltitudeMeters>
            <DistanceMeters>9047.3966487916</DistanceMeters>
          </Trackpoint>
          <Trackpoint>
            <Time>2023-01-11T18:03:48.000Z</Time>
            <Position>
              <LatitudeDegrees>-49.2266968823969364166259765625</LatitudeDegrees>
              <LongitudeDegrees>-73.01458979956805706024169921875</LongitudeDegrees>
            </Position>
            <AltitudeMeters>548.79998779296875</AltitudeMeters>
            <DistanceMeters>9051.8558222946</DistanceMeters>
          </Trackpoint>
          <Trackpoint>
            <Time>2023-01-11T18:03:54.000Z</Time>
            <Position>
              <LatitudeDegrees>-49.2267354391515254974365234375</LatitudeDegrees>
              <LongitudeDegrees>-73.01449122838675975799560546875</LongitudeDegrees>
            </Position>
            <AltitudeMeters>548.20001220703125</AltitudeMeters>
            <DistanceMeters>9060.2073676877</DistanceMeters>
          </Trackpoint>
          <Trackpoint>
            <Time>2023-01-11T18:03:55.000Z</Time>
            <Position>
              <LatitudeDegrees>-49.22674231231212615966796875</LatitudeDegrees>
              <LongitudeDegrees>-73.0144767276942729949951171875</LongitudeDegrees>
            </Position>
            <AltitudeMeters>548</AltitudeMeters>
            <DistanceMeters>9061.5103083507</DistanceMeters>
          </Trackpoint>
          <Trackpoint>
            <Time>2023-01-11T18:03:59.000Z</Time>
            <Position>
              <LatitudeDegrees>-49.22675999812781810760498046875</LatitudeDegrees>
              <LongitudeDegrees>-73.01444529555737972259521484375</LongitudeDegrees>
            </Position>
            <AltitudeMeters>546.79998779296875</AltitudeMeters>
            <DistanceMeters>9064.5273130003</DistanceMeters>
          </Trackpoint>
          <Trackpoint>
            <Time>2023-01-11T18:04:01.000Z</Time>
            <Position>
              <LatitudeDegrees>-49.2267662845551967620849609375</LatitudeDegrees>
              <LongitudeDegrees>-73.0144160427153110504150390625</LongitudeDegrees>
            </Position>
            <AltitudeMeters>546.4000244140625</AltitudeMeters>
            <DistanceMeters>9066.7639762181</DistanceMeters>
          </Trackpoint>
          <Trackpoint>
            <Time>2023-01-11T18:04:02.000Z</Time>
            <Position>
              <LatitudeDegrees>-49.2267733253538608551025390625</LatitudeDegrees>
              <LongitudeDegrees>-73.01439969800412654876708984375</LongitudeDegrees>
            </Position>
            <AltitudeMeters>546.20001220703125</AltitudeMeters>
            <DistanceMeters>9068.1862058492</DistanceMeters>
          </Trackpoint>
          <Trackpoint>
            <Time>2023-01-11T18:04:03.000Z</Time>
            <Position>
              <LatitudeDegrees>-49.2267818748950958251953125</LatitudeDegrees>
              <LongitudeDegrees>-73.014387376606464385986328125</LongitudeDegrees>
            </Position>
            <AltitudeMeters>545.79998779296875</AltitudeMeters>
            <DistanceMeters>9069.4891465122</DistanceMeters>
          </Trackpoint>
          <Trackpoint>
            <Time>2023-01-11T18:04:04.000Z</Time>
            <Position>
              <LatitudeDegrees>-49.2267914302647113800048828125</LatitudeDegrees>
              <LongitudeDegrees>-73.01438276655972003936767578125</LongitudeDegrees>
            </Position>
            <AltitudeMeters>545.79998779296875</AltitudeMeters>
            <DistanceMeters>9070.6014056874</DistanceMeters>
          </Trackpoint>
          <Trackpoint>
            <Time>2023-01-11T18:04:06.000Z</Time>
            <Position>
              <LatitudeDegrees>-49.2268071882426738739013671875</LatitudeDegrees>
              <LongitudeDegrees>-73.01437187008559703826904296875</LongitudeDegrees>
            </Position>
            <AltitudeMeters>545.5999755859375</AltitudeMeters>
            <DistanceMeters>9072.5255500017</DistanceMeters>
          </Trackpoint>
          <Trackpoint>
            <Time>2023-01-11T18:04:12.000Z</Time>
            <Position>
              <LatitudeDegrees>-49.22684331424534320831298828125</LatitudeDegrees>
              <LongitudeDegrees>-73.01434320397675037384033203125</LongitudeDegrees>
            </Position>
            <AltitudeMeters>545.4000244140625</AltitudeMeters>
            <DistanceMeters>9077.0530519098</DistanceMeters>
          </Trackpoint>
          <Trackpoint>
            <Time>2023-01-11T18:04:20.000Z</Time>
            <Position>
              <LatitudeDegrees>-49.226882793009281158447265625</LatitudeDegrees>
              <LongitudeDegrees>-73.0142722092568874359130859375</LongitudeDegrees>
            </Position>
            <AltitudeMeters>545.5999755859375</AltitudeMeters>
            <DistanceMeters>9083.8306620247</DistanceMeters>
          </Trackpoint>
          <Trackpoint>
            <Time>2023-01-11T18:04:22.000Z</Time>
            <Position>
              <LatitudeDegrees>-49.22689519822597503662109375</LatitudeDegrees>
              <LongitudeDegrees>-73.0142467282712459564208984375</LongitudeDegrees>
            </Position>
            <AltitudeMeters>545.5999755859375</AltitudeMeters>
            <DistanceMeters>9086.1408081626</DistanceMeters>
          </Trackpoint>
          <Trackpoint>
            <Time>2023-01-11T18:04:26.000Z</Time>
            <Position>
              <LatitudeDegrees>-49.226906597614288330078125</LatitudeDegrees>
              <LongitudeDegrees>-73.01419995725154876708984375</LongitudeDegrees>
            </Position>
            <AltitudeMeters>545.79998779296875</AltitudeMeters>
            <DistanceMeters>9089.7692860054</DistanceMeters>
          </Trackpoint>
          <Trackpoint>
            <Time>2023-01-11T18:04:32.000Z</Time>
            <Position>
              <LatitudeDegrees>-49.22692210413515567779541015625</LatitudeDegrees>
              <LongitudeDegrees>-73.01417648792266845703125</LongitudeDegrees>
            </Position>
            <AltitudeMeters>545.20001220703125</AltitudeMeters>
            <DistanceMeters>9092.1957257515</DistanceMeters>
          </Trackpoint>
          <Trackpoint>
            <Time>2023-01-11T18:04:40.000Z</Time>
            <Position>
              <LatitudeDegrees>-49.2269355989992618560791015625</LatitudeDegrees>
              <LongitudeDegrees>-73.01408973522484302520751953125</LongitudeDegrees>
            </Position>
            <AltitudeMeters>545.4000244140625</AltitudeMeters>
            <DistanceMeters>9098.6777737067</DistanceMeters>
          </Trackpoint>
          <Trackpoint>
            <Time>2023-01-11T18:04:47.000Z</Time>
            <Position>
              <LatitudeDegrees>-49.22695931978523731231689453125</LatitudeDegrees>
              <LongitudeDegrees>-73.0140009708702564239501953125</LongitudeDegrees>
            </Position>
            <AltitudeMeters>544.79998779296875</AltitudeMeters>
            <DistanceMeters>9105.6491345079</DistanceMeters>
          </Trackpoint>
          <Trackpoint>
            <Time>2023-01-11T18:04:52.000Z</Time>
            <Position>
              <LatitudeDegrees>-49.22698077745735645294189453125</LatitudeDegrees>
              <LongitudeDegrees>-73.0139483325183391571044921875</LongitudeDegrees>
            </Position>
            <AltitudeMeters>543.79998779296875</AltitudeMeters>
            <DistanceMeters>9110.1586502416</DistanceMeters>
          </Trackpoint>
          <Trackpoint>
            <Time>2023-01-11T18:04:53.000Z</Time>
            <Position>
              <LatitudeDegrees>-49.22698748297989368438720703125</LatitudeDegrees>
              <LongitudeDegrees>-73.01393869332969188690185546875</LongitudeDegrees>
            </Position>
            <AltitudeMeters>543.5999755859375</AltitudeMeters>
            <DistanceMeters>9111.1821192775</DistanceMeters>
          </Trackpoint>
          <Trackpoint>
            <Time>2023-01-11T18:05:00.000Z</Time>
            <Position>
              <LatitudeDegrees>-49.22704028896987438201904296875</LatitudeDegrees>
              <LongitudeDegrees>-73.01389016211032867431640625</LongitudeDegrees>
            </Position>
            <AltitudeMeters>542.79998779296875</AltitudeMeters>
            <DistanceMeters>9118.0372281617</DistanceMeters>
          </Trackpoint>
          <Trackpoint>
            <Time>2023-01-11T18:05:05.000Z</Time>
            <Position>
              <LatitudeDegrees>-49.22708102501928806304931640625</LatitudeDegrees>
              <LongitudeDegrees>-73.01386325620114803314208984375</LongitudeDegrees>
            </Position>
            <AltitudeMeters>543.79998779296875</AltitudeMeters>
            <DistanceMeters>9122.9749610827</DistanceMeters>
          </Trackpoint>
          <Trackpoint>
            <Time>2023-01-11T18:05:08.000Z</Time>
            <Position>
              <LatitudeDegrees>-49.227102063596248626708984375</LatitudeDegrees>
              <LongitudeDegrees>-73.013861663639545440673828125</LongitudeDegrees>
            </Position>
            <AltitudeMeters>543.79998779296875</AltitudeMeters>
            <DistanceMeters>9125.3180971175</DistanceMeters>
          </Trackpoint>
          <Trackpoint>
            <Time>2023-01-11T18:05:17.000Z</Time>
            <Position>
              <LatitudeDegrees>-49.22717339359223842620849609375</LatitudeDegrees>
              <LongitudeDegrees>-73.0138236097991466522216796875</LongitudeDegrees>
            </Position>
            <AltitudeMeters>544</AltitudeMeters>
            <DistanceMeters>9133.7256793148</DistanceMeters>
          </Trackpoint>
          <Trackpoint>
            <Time>2023-01-11T18:05:25.000Z</Time>
            <Position>
              <LatitudeDegrees>-49.2272313125431537628173828125</LatitudeDegrees>
              <LongitudeDegrees>-73.01379955373704433441162109375</LongitudeDegrees>
            </Position>
            <AltitudeMeters>543.20001220703125</AltitudeMeters>
            <DistanceMeters>9140.4053206008</DistanceMeters>
          </Trackpoint>
          <Trackpoint>
            <Time>2023-01-11T18:05:35.000Z</Time>
            <Position>
              <LatitudeDegrees>-49.2272450588643550872802734375</LatitudeDegrees>
              <LongitudeDegrees>-73.013749010860919952392578125</LongitudeDegrees>
            </Position>
            <AltitudeMeters>543.79998779296875</AltitudeMeters>
            <DistanceMeters>9144.3862481509</DistanceMeters>
          </Trackpoint>
          <Trackpoint>
            <Time>2023-01-11T18:05:38.000Z</Time>
            <Position>
              <LatitudeDegrees>-49.227227456867694854736328125</LatitudeDegrees>
              <LongitudeDegrees>-73.0137387849390506744384765625</LongitudeDegrees>
            </Position>
            <AltitudeMeters>544.20001220703125</AltitudeMeters>
            <DistanceMeters>9146.4811508101</DistanceMeters>
          </Trackpoint>
          <Trackpoint>
            <Time>2023-01-11T18:05:43.000Z</Time>
            <Position>
              <LatitudeDegrees>-49.22721329145133495330810546875</LatitudeDegrees>
              <LongitudeDegrees>-73.0137347616255283355712890625</LongitudeDegrees>
            </Position>
            <AltitudeMeters>544.20001220703125</AltitudeMeters>
            <DistanceMeters>9148.088198371</DistanceMeters>
          </Trackpoint>
          <Trackpoint>
            <Time>2023-01-11T18:05:49.000Z</Time>
            <Position>
              <LatitudeDegrees>-49.2272175662219524383544921875</LatitudeDegrees>
              <LongitudeDegrees>-73.013736270368099212646484375</LongitudeDegrees>
            </Position>
            <AltitudeMeters>544</AltitudeMeters>
            <DistanceMeters>9148.5819716631</DistanceMeters>
          </Trackpoint>
          <Trackpoint>
            <Time>2023-01-11T18:05:56.000Z</Time>
            <Position>
              <LatitudeDegrees>-49.2272175662219524383544921875</LatitudeDegrees>
              <LongitudeDegrees>-73.013736270368099212646484375</LongitudeDegrees>
            </Position>
            <AltitudeMeters>544</AltitudeMeters>
            <DistanceMeters>9148.5819716631</DistanceMeters>
          </Trackpoint>
          <Trackpoint>
            <Time>2023-01-11T18:06:25.000Z</Time>
            <Position>
              <LatitudeDegrees>-49.22720356844365596771240234375</LatitudeDegrees>
              <LongitudeDegrees>-73.0137501843273639678955078125</LongitudeDegrees>
            </Position>
            <AltitudeMeters>543.5999755859375</AltitudeMeters>
            <DistanceMeters>9150.4392517178</DistanceMeters>
          </Trackpoint>
          <Trackpoint>
            <Time>2023-01-11T18:06:32.000Z</Time>
            <Position>
              <LatitudeDegrees>-49.2272051610052585601806640625</LatitudeDegrees>
              <LongitudeDegrees>-73.0137501843273639678955078125</LongitudeDegrees>
            </Position>
            <AltitudeMeters>543.5999755859375</AltitudeMeters>
            <DistanceMeters>9150.6293051465</DistanceMeters>
          </Trackpoint>
          <Trackpoint>
            <Time>2023-01-11T18:06:43.000Z</Time>
            <Position>
              <LatitudeDegrees>-49.227250926196575164794921875</LatitudeDegrees>
              <LongitudeDegrees>-73.01370064727962017059326171875</LongitudeDegrees>
            </Position>
            <AltitudeMeters>543.5999755859375</AltitudeMeters>
            <DistanceMeters>9156.8664174047</DistanceMeters>
          </Trackpoint>
          <Trackpoint>
            <Time>2023-01-11T18:06:50.000Z</Time>
            <Position>
              <LatitudeDegrees>-49.22729484736919403076171875</LatitudeDegrees>
              <LongitudeDegrees>-73.0136586539447307586669921875</LongitudeDegrees>
            </Position>
            <AltitudeMeters>543.20001220703125</AltitudeMeters>
            <DistanceMeters>9162.6294566342</DistanceMeters>
          </Trackpoint>
          <Trackpoint>
            <Time>2023-01-11T18:06:51.000Z</Time>
            <Position>
              <LatitudeDegrees>-49.2273057438433170318603515625</LatitudeDegrees>
              <LongitudeDegrees>-73.013657815754413604736328125</LongitudeDegrees>
            </Position>
            <AltitudeMeters>543.20001220703125</AltitudeMeters>
            <DistanceMeters>9163.8426765072</DistanceMeters>
          </Trackpoint>
          <Trackpoint>
            <Time>2023-01-11T18:06:53.000Z</Time>
            <Position>
              <LatitudeDegrees>-49.22732979990541934967041015625</LatitudeDegrees>
              <LongitudeDegrees>-73.013663180172443389892578125</LongitudeDegrees>
            </Position>
            <AltitudeMeters>543.20001220703125</AltitudeMeters>
            <DistanceMeters>9166.547184211</DistanceMeters>
          </Trackpoint>
          <Trackpoint>
            <Time>2023-01-11T18:07:02.000Z</Time>
            <Position>
              <LatitudeDegrees>-49.2273949272930622100830078125</LatitudeDegrees>
              <LongitudeDegrees>-73.01370433531701564788818359375</LongitudeDegrees>
            </Position>
            <AltitudeMeters>543</AltitudeMeters>
            <DistanceMeters>9174.3890475472</DistanceMeters>
          </Trackpoint>
          <Trackpoint>
            <Time>2023-01-11T18:07:09.000Z</Time>
            <Position>
              <LatitudeDegrees>-49.227401129901409149169921875</LatitudeDegrees>
              <LongitudeDegrees>-73.01371305249631404876708984375</LongitudeDegrees>
            </Position>
            <AltitudeMeters>542.79998779296875</AltitudeMeters>
            <DistanceMeters>9175.3249521444</DistanceMeters>
          </Trackpoint>
          <Trackpoint>
            <Time>2023-01-11T18:07:12.000Z</Time>
            <Position>
              <LatitudeDegrees>-49.22740775160491466522216796875</LatitudeDegrees>
              <LongitudeDegrees>-73.013704754412174224853515625</LongitudeDegrees>
            </Position>
            <AltitudeMeters>543.79998779296875</AltitudeMeters>
            <DistanceMeters>9176.2752192881</DistanceMeters>
          </Trackpoint>
          <Trackpoint>
            <Time>2023-01-11T18:07:17.000Z</Time>
            <Position>
              <LatitudeDegrees>-49.22740775160491466522216796875</LatitudeDegrees>
              <LongitudeDegrees>-73.013704754412174224853515625</LongitudeDegrees>
            </Position>
            <AltitudeMeters>544</AltitudeMeters>
            <DistanceMeters>9176.2752192881</DistanceMeters>
          </Trackpoint>
          <Trackpoint>
            <Time>2023-01-11T18:07:23.000Z</Time>
            <Position>
              <LatitudeDegrees>-49.22740775160491466522216796875</LatitudeDegrees>
              <LongitudeDegrees>-73.01370467059314250946044921875</LongitudeDegrees>
            </Position>
            <AltitudeMeters>544.20001220703125</AltitudeMeters>
            <DistanceMeters>9176.2752192881</DistanceMeters>
          </Trackpoint>
          <Trackpoint>
            <Time>2023-01-11T18:07:28.000Z</Time>
            <Position>
              <LatitudeDegrees>-49.2274081707000732421875</LatitudeDegrees>
              <LongitudeDegrees>-73.01369913853704929351806640625</LongitudeDegrees>
            </Position>
            <AltitudeMeters>544.20001220703125</AltitudeMeters>
            <DistanceMeters>9176.6783834928</DistanceMeters>
          </Trackpoint>
          <Trackpoint>
            <Time>2023-01-11T18:07:33.000Z</Time>
            <Position>
              <LatitudeDegrees>-49.22741579823195934295654296875</LatitudeDegrees>
              <LongitudeDegrees>-73.01369226537644863128662109375</LongitudeDegrees>
            </Position>
            <AltitudeMeters>544.20001220703125</AltitudeMeters>
            <DistanceMeters>9177.665930077</DistanceMeters>
          </Trackpoint>
          <Trackpoint>
            <Time>2023-01-11T18:07:36.000Z</Time>
            <Position>
              <LatitudeDegrees>-49.22744848765432834625244140625</LatitudeDegrees>
              <LongitudeDegrees>-73.01364733837544918060302734375</LongitudeDegrees>
            </Position>
            <AltitudeMeters>544.4000244140625</AltitudeMeters>
            <DistanceMeters>9182.5549598731</DistanceMeters>
          </Trackpoint>
          <Trackpoint>
            <Time>2023-01-11T18:07:39.000Z</Time>
            <Position>
              <LatitudeDegrees>-49.22748587094247341156005859375</LatitudeDegrees>
              <LongitudeDegrees>-73.01360777579247951507568359375</LongitudeDegrees>
            </Position>
            <AltitudeMeters>544</AltitudeMeters>
            <DistanceMeters>9187.6119527038</DistanceMeters>
          </Trackpoint>
          <Trackpoint>
            <Time>2023-01-11T18:07:41.000Z</Time>
            <Position>
              <LatitudeDegrees>-49.22751319594681262969970703125</LatitudeDegrees>
              <LongitudeDegrees>-73.01357726566493511199951171875</LongitudeDegrees>
            </Position>
            <AltitudeMeters>543.79998779296875</AltitudeMeters>
            <DistanceMeters>9191.3748186148</DistanceMeters>
          </Trackpoint>
          <Trackpoint>
            <Time>2023-01-11T18:37:38.000Z</Time>
            <Position>
              <LatitudeDegrees>-49.227529205381870269775390625</LatitudeDegrees>
              <LongitudeDegrees>-73.01354415714740753173828125</LongitudeDegrees>
            </Position>
            <AltitudeMeters>544</AltitudeMeters>
            <DistanceMeters>9194.3707985855</DistanceMeters>
          </Trackpoint>
          <Trackpoint>
            <Time>2023-01-11T18:37:40.000Z</Time>
            <Position>
              <LatitudeDegrees>-49.2275377549231052398681640625</LatitudeDegrees>
              <LongitudeDegrees>-73.01351138390600681304931640625</LongitudeDegrees>
            </Position>
            <AltitudeMeters>544</AltitudeMeters>
            <DistanceMeters>9196.9347595157</DistanceMeters>
          </Trackpoint>
          <Trackpoint>
            <Time>2023-01-11T18:37:41.000Z</Time>
            <Position>
              <LatitudeDegrees>-49.2275370843708515167236328125</LatitudeDegrees>
              <LongitudeDegrees>-73.0134772695600986480712890625</LongitudeDegrees>
            </Position>
            <AltitudeMeters>544</AltitudeMeters>
            <DistanceMeters>9199.4145744399</DistanceMeters>
          </Trackpoint>
          <Trackpoint>
            <Time>2023-01-11T18:37:43.000Z</Time>
            <Position>
              <LatitudeDegrees>-49.227540604770183563232421875</LatitudeDegrees>
              <LongitudeDegrees>-73.01341583020985126495361328125</LongitudeDegrees>
            </Position>
            <AltitudeMeters>543.79998779296875</AltitudeMeters>
            <DistanceMeters>9203.8979827599</DistanceMeters>
          </Trackpoint>
          <Trackpoint>
            <Time>2023-01-11T18:37:44.000Z</Time>
            <Position>
              <LatitudeDegrees>-49.227547980844974517822265625</LatitudeDegrees>
              <LongitudeDegrees>-73.01339135505259037017822265625</LongitudeDegrees>
            </Position>
            <AltitudeMeters>543.79998779296875</AltitudeMeters>
            <DistanceMeters>9205.8593120451</DistanceMeters>
          </Trackpoint>
          <Trackpoint>
            <Time>2023-01-11T18:37:52.000Z</Time>
            <Position>
              <LatitudeDegrees>-49.2276098392903804779052734375</LatitudeDegrees>
              <LongitudeDegrees>-73.0132767744362354278564453125</LongitudeDegrees>
            </Position>
            <AltitudeMeters>543.79998779296875</AltitudeMeters>
            <DistanceMeters>9216.6648147368</DistanceMeters>
          </Trackpoint>
          <Trackpoint>
            <Time>2023-01-11T18:38:00.000Z</Time>
            <Position>
              <LatitudeDegrees>-49.22764814458787441253662109375</LatitudeDegrees>
              <LongitudeDegrees>-73.01316185854375362396240234375</LongitudeDegrees>
            </Position>
            <AltitudeMeters>543.20001220703125</AltitudeMeters>
            <DistanceMeters>9226.0426564122</DistanceMeters>
          </Trackpoint>
          <Trackpoint>
            <Time>2023-01-11T18:38:05.000Z</Time>
            <Position>
              <LatitudeDegrees>-49.227655269205570220947265625</LatitudeDegrees>
              <LongitudeDegrees>-73.0130759440362453460693359375</LongitudeDegrees>
            </Position>
            <AltitudeMeters>542.5999755859375</AltitudeMeters>
            <DistanceMeters>9232.3374141864</DistanceMeters>
          </Trackpoint>
          <Trackpoint>
            <Time>2023-01-11T18:38:10.000Z</Time>
            <Position>
              <LatitudeDegrees>-49.2276696860790252685546875</LatitudeDegrees>
              <LongitudeDegrees>-73.0129995010793209075927734375</LongitudeDegrees>
            </Position>
            <AltitudeMeters>542.5999755859375</AltitudeMeters>
            <DistanceMeters>9238.120787177</DistanceMeters>
          </Trackpoint>
          <Trackpoint>
            <Time>2023-01-11T18:38:17.000Z</Time>
            <Position>
              <LatitudeDegrees>-49.22771687619388103485107421875</LatitudeDegrees>
              <LongitudeDegrees>-73.01290017552673816680908203125</LongitudeDegrees>
            </Position>
            <AltitudeMeters>541.79998779296875</AltitudeMeters>
            <DistanceMeters>9247.0492537221</DistanceMeters>
          </Trackpoint>
          <Trackpoint>
            <Time>2023-01-11T18:38:21.000Z</Time>
            <Position>
              <LatitudeDegrees>-49.227738082408905029296875</LatitudeDegrees>
              <LongitudeDegrees>-73.01284502260386943817138671875</LongitudeDegrees>
            </Position>
            <AltitudeMeters>541.79998779296875</AltitudeMeters>
            <DistanceMeters>9251.7007118978</DistanceMeters>
          </Trackpoint>
          <Trackpoint>
            <Time>2023-01-11T18:38:22.000Z</Time>
            <Position>
              <LatitudeDegrees>-49.2277474701404571533203125</LatitudeDegrees>
              <LongitudeDegrees>-73.01283278502523899078369140625</LongitudeDegrees>
            </Position>
            <AltitudeMeters>541.79998779296875</AltitudeMeters>
            <DistanceMeters>9253.0712066626</DistanceMeters>
          </Trackpoint>
          <Trackpoint>
            <Time>2023-01-11T18:38:27.000Z</Time>
            <Position>
              <LatitudeDegrees>-49.22778191976249217987060546875</LatitudeDegrees>
              <LongitudeDegrees>-73.0127748660743236541748046875</LongitudeDegrees>
            </Position>
            <AltitudeMeters>543.5999755859375</AltitudeMeters>
            <DistanceMeters>9258.7656780612</DistanceMeters>
          </Trackpoint>
          <Trackpoint>
            <Time>2023-01-11T18:38:29.000Z</Time>
            <Position>
              <LatitudeDegrees>-49.2277855239808559417724609375</LatitudeDegrees>
              <LongitudeDegrees>-73.01277377642691135406494140625</LongitudeDegrees>
            </Position>
            <AltitudeMeters>543.5999755859375</AltitudeMeters>
            <DistanceMeters>9259.168842266</DistanceMeters>
          </Trackpoint>
          <Trackpoint>
            <Time>2023-01-11T18:38:44.000Z</Time>
            <Position>
              <LatitudeDegrees>-49.2277912236750125885009765625</LatitudeDegrees>
              <LongitudeDegrees>-73.012756593525409698486328125</LongitudeDegrees>
            </Position>
            <AltitudeMeters>543</AltitudeMeters>
            <DistanceMeters>9260.5654440388</DistanceMeters>
          </Trackpoint>
          <Trackpoint>
            <Time>2023-01-11T18:38:47.000Z</Time>
            <Position>
              <LatitudeDegrees>-49.2277949117124080657958984375</LatitudeDegrees>
              <LongitudeDegrees>-73.01275349222123622894287109375</LongitudeDegrees>
            </Position>
            <AltitudeMeters>543</AltitudeMeters>
            <DistanceMeters>9261.0309779631</DistanceMeters>
          </Trackpoint>
          <Trackpoint>
            <Time>2023-01-11T18:38:51.000Z</Time>
            <Position>
              <LatitudeDegrees>-49.2278599552810192108154296875</LatitudeDegrees>
              <LongitudeDegrees>-73.01270194351673126220703125</LongitudeDegrees>
            </Position>
            <AltitudeMeters>543</AltitudeMeters>
            <DistanceMeters>9269.1822540886</DistanceMeters>
          </Trackpoint>
          <Trackpoint>
            <Time>2023-01-11T18:38:54.000Z</Time>
            <Position>
              <LatitudeDegrees>-49.227897338569164276123046875</LatitudeDegrees>
              <LongitudeDegrees>-73.01266439259052276611328125</LongitudeDegrees>
            </Position>
            <AltitudeMeters>543.20001220703125</AltitudeMeters>
            <DistanceMeters>9274.1582433982</DistanceMeters>
          </Trackpoint>
          <Trackpoint>
            <Time>2023-01-11T18:38:59.000Z</Time>
            <Position>
              <LatitudeDegrees>-49.2279486358165740966796875</LatitudeDegrees>
              <LongitudeDegrees>-73.012596666812896728515625</LongitudeDegrees>
            </Position>
            <AltitudeMeters>542.5999755859375</AltitudeMeters>
            <DistanceMeters>9281.6965635733</DistanceMeters>
          </Trackpoint>
          <Trackpoint>
            <Time>2023-01-11T18:39:04.000Z</Time>
            <Position>
              <LatitudeDegrees>-49.22798174433410167694091796875</LatitudeDegrees>
              <LongitudeDegrees>-73.01252164877951145172119140625</LongitudeDegrees>
            </Position>
            <AltitudeMeters>542</AltitudeMeters>
            <DistanceMeters>9288.2788357325</DistanceMeters>
          </Trackpoint>
          <Trackpoint>
            <Time>2023-01-11T18:39:12.000Z</Time>
            <Position>
              <LatitudeDegrees>-49.22803203575313091278076171875</LatitudeDegrees>
              <LongitudeDegrees>-73.012407906353473663330078125</LongitudeDegrees>
            </Position>
            <AltitudeMeters>542</AltitudeMeters>
            <DistanceMeters>9298.2634260567</DistanceMeters>
          </Trackpoint>
          <Trackpoint>
            <Time>2023-01-11T18:39:18.000Z</Time>
            <Position>
              <LatitudeDegrees>-49.228075034916400909423828125</LatitudeDegrees>
              <LongitudeDegrees>-73.01233389414846897125244140625</LongitudeDegrees>
            </Position>
            <AltitudeMeters>541.5999755859375</AltitudeMeters>
            <DistanceMeters>9305.4641690004</DistanceMeters>
          </Trackpoint>
          <Trackpoint>
            <Time>2023-01-11T18:39:22.000Z</Time>
            <Position>
              <LatitudeDegrees>-49.228114597499370574951171875</LatitudeDegrees>
              <LongitudeDegrees>-73.0122930742800235748291015625</LongitudeDegrees>
            </Position>
            <AltitudeMeters>541.20001220703125</AltitudeMeters>
            <DistanceMeters>9310.773773379</DistanceMeters>
          </Trackpoint>
          <Trackpoint>
            <Time>2023-01-11T18:39:31.000Z</Time>
            <Position>
              <LatitudeDegrees>-49.228207133710384368896484375</LatitudeDegrees>
              <LongitudeDegrees>-73.0121958442032337188720703125</LongitudeDegrees>
            </Position>
            <AltitudeMeters>541.5999755859375</AltitudeMeters>
            <DistanceMeters>9323.2646364717</DistanceMeters>
          </Trackpoint>
          <Trackpoint>
            <Time>2023-01-11T18:39:36.000Z</Time>
            <Position>
              <LatitudeDegrees>-49.22822833992540836334228515625</LatitudeDegrees>
              <LongitudeDegrees>-73.01214328967034816741943359375</LongitudeDegrees>
            </Position>
            <AltitudeMeters>541.4000244140625</AltitudeMeters>
            <DistanceMeters>9327.7560940052</DistanceMeters>
          </Trackpoint>
          <Trackpoint>
            <Time>2023-01-11T18:39:37.000Z</Time>
            <Position>
              <LatitudeDegrees>-49.22823496162891387939453125</LatitudeDegrees>
              <LongitudeDegrees>-73.012137003242969512939453125</LongitudeDegrees>
            </Position>
            <AltitudeMeters>541.4000244140625</AltitudeMeters>
            <DistanceMeters>9328.6270282285</DistanceMeters>
          </Trackpoint>
          <Trackpoint>
            <Time>2023-01-11T18:39:44.000Z</Time>
            <Position>
              <LatitudeDegrees>-49.2283045314252376556396484375</LatitudeDegrees>
              <LongitudeDegrees>-73.01208646036684513092041015625</LongitudeDegrees>
            </Position>
            <AltitudeMeters>541.79998779296875</AltitudeMeters>
            <DistanceMeters>9337.1978900213</DistanceMeters>
          </Trackpoint>
          <Trackpoint>
            <Time>2023-01-11T18:39:46.000Z</Time>
            <Position>
              <LatitudeDegrees>-49.22830847091972827911376953125</LatitudeDegrees>
              <LongitudeDegrees>-73.01207388751208782196044921875</LongitudeDegrees>
            </Position>
            <AltitudeMeters>542</AltitudeMeters>
            <DistanceMeters>9338.2124976867</DistanceMeters>
          </Trackpoint>
          <Trackpoint>
            <Time>2023-01-11T18:39:57.000Z</Time>
            <Position>
              <LatitudeDegrees>-49.22838692553341388702392578125</LatitudeDegrees>
              <LongitudeDegrees>-73.0119608156383037567138671875</LongitudeDegrees>
            </Position>
            <AltitudeMeters>541.5999755859375</AltitudeMeters>
            <DistanceMeters>9350.2043268787</DistanceMeters>
          </Trackpoint>
          <Trackpoint>
            <Time>2023-01-11T18:40:05.000Z</Time>
            <Position>
              <LatitudeDegrees>-49.22844409011304378509521484375</LatitudeDegrees>
              <LongitudeDegrees>-73.0118756555020809173583984375</LongitudeDegrees>
            </Position>
            <AltitudeMeters>541.79998779296875</AltitudeMeters>
            <DistanceMeters>9359.0810631624</DistanceMeters>
          </Trackpoint>
          <Trackpoint>
            <Time>2023-01-11T18:40:13.000Z</Time>
            <Position>
              <LatitudeDegrees>-49.22850075177848339080810546875</LatitudeDegrees>
              <LongitudeDegrees>-73.0117894895374774932861328125</LongitudeDegrees>
            </Position>
            <AltitudeMeters>541.79998779296875</AltitudeMeters>
            <DistanceMeters>9367.9689824201</DistanceMeters>
          </Trackpoint>
          <Trackpoint>
            <Time>2023-01-11T18:40:22.000Z</Time>
            <Position>
              <LatitudeDegrees>-49.22857115976512432098388671875</LatitudeDegrees>
              <LongitudeDegrees>-73.0116902478039264678955078125</LongitudeDegrees>
            </Position>
            <AltitudeMeters>541.79998779296875</AltitudeMeters>
            <DistanceMeters>9378.6196077674</DistanceMeters>
          </Trackpoint>
          <Trackpoint>
            <Time>2023-01-11T18:40:29.000Z</Time>
            <Position>
              <LatitudeDegrees>-49.2286411486566066741943359375</LatitudeDegrees>
              <LongitudeDegrees>-73.01165848039090633392333984375</LongitudeDegrees>
            </Position>
            <AltitudeMeters>541.4000244140625</AltitudeMeters>
            <DistanceMeters>9386.7442529169</DistanceMeters>
          </Trackpoint>
          <Trackpoint>
            <Time>2023-01-11T18:40:35.000Z</Time>
            <Position>
              <LatitudeDegrees>-49.2286773584783077239990234375</LatitudeDegrees>
              <LongitudeDegrees>-73.011604584753513336181640625</LongitudeDegrees>
            </Position>
            <AltitudeMeters>541.4000244140625</AltitudeMeters>
            <DistanceMeters>9392.3645026801</DistanceMeters>
          </Trackpoint>
          <Trackpoint>
            <Time>2023-01-11T18:40:39.000Z</Time>
            <Position>
              <LatitudeDegrees>-49.22871365211904048919677734375</LatitudeDegrees>
              <LongitudeDegrees>-73.0115853063762187957763671875</LongitudeDegrees>
            </Position>
            <AltitudeMeters>541.4000244140625</AltitudeMeters>
            <DistanceMeters>9396.639648844</DistanceMeters>
          </Trackpoint>
          <Trackpoint>
            <Time>2023-01-11T18:40:40.000Z</Time>
            <Position>
              <LatitudeDegrees>-49.22871507704257965087890625</LatitudeDegrees>
              <LongitudeDegrees>-73.01156736910343170166015625</LongitudeDegrees>
            </Position>
            <AltitudeMeters>541.4000244140625</AltitudeMeters>
            <DistanceMeters>9397.9495017076</DistanceMeters>
          </Trackpoint>
          <Trackpoint>
            <Time>2023-01-11T18:40:41.000Z</Time>
            <Position>
              <LatitudeDegrees>-49.22871482558548450469970703125</LatitudeDegrees>
              <LongitudeDegrees>-73.011556304991245269775390625</LongitudeDegrees>
            </Position>
            <AltitudeMeters>541.5999755859375</AltitudeMeters>
            <DistanceMeters>9398.7558301171</DistanceMeters>
          </Trackpoint>
          <Trackpoint>
            <Time>2023-01-11T18:40:42.000Z</Time>
            <Position>
              <LatitudeDegrees>-49.22870510257780551910400390625</LatitudeDegrees>
              <LongitudeDegrees>-73.011541552841663360595703125</LongitudeDegrees>
            </Position>
            <AltitudeMeters>541.4000244140625</AltitudeMeters>
            <DistanceMeters>9400.2762575471</DistanceMeters>
          </Trackpoint>
          <Trackpoint>
            <Time>2023-01-11T18:40:44.000Z</Time>
            <Position>
              <LatitudeDegrees>-49.22870568931102752685546875</LatitudeDegrees>
              <LongitudeDegrees>-73.01152302883565425872802734375</LongitudeDegrees>
            </Position>
            <AltitudeMeters>541.4000244140625</AltitudeMeters>
            <DistanceMeters>9401.6268409179</DistanceMeters>
          </Trackpoint>
          <Trackpoint>
            <Time>2023-01-11T18:40:46.000Z</Time>
            <Position>
              <LatitudeDegrees>-49.22871935181319713592529296875</LatitudeDegrees>
              <LongitudeDegrees>-73.011493273079395294189453125</LongitudeDegrees>
            </Position>
            <AltitudeMeters>541.4000244140625</AltitudeMeters>
            <DistanceMeters>9404.2705654058</DistanceMeters>
          </Trackpoint>
          <Trackpoint>
            <Time>2023-01-11T18:40:48.000Z</Time>
            <Position>
              <LatitudeDegrees>-49.228736199438571929931640625</LatitudeDegrees>
              <LongitudeDegrees>-73.0114713124930858612060546875</LongitudeDegrees>
            </Position>
            <AltitudeMeters>541.20001220703125</AltitudeMeters>
            <DistanceMeters>9406.7339393868</DistanceMeters>
          </Trackpoint>
          <Trackpoint>
            <Time>2023-01-11T18:40:52.000Z</Time>
            <Position>
              <LatitudeDegrees>-49.22876830212771892547607421875</LatitudeDegrees>
              <LongitudeDegrees>-73.01144122146070003509521484375</LongitudeDegrees>
            </Position>
            <AltitudeMeters>541.20001220703125</AltitudeMeters>
            <DistanceMeters>9410.921588901</DistanceMeters>
          </Trackpoint>
          <Trackpoint>
            <Time>2023-01-11T18:40:57.000Z</Time>
            <Position>
              <LatitudeDegrees>-49.2287863232195377349853515625</LatitudeDegrees>
              <LongitudeDegrees>-73.01140249706804752349853515625</LongitudeDegrees>
            </Position>
            <AltitudeMeters>541</AltitudeMeters>
            <DistanceMeters>9414.3766954202</DistanceMeters>
          </Trackpoint>
          <Trackpoint>
            <Time>2023-01-11T18:41:02.000Z</Time>
            <Position>
              <LatitudeDegrees>-49.22883284278213977813720703125</LatitudeDegrees>
              <LongitudeDegrees>-73.01140685565769672393798828125</LongitudeDegrees>
            </Position>
            <AltitudeMeters>541</AltitudeMeters>
            <DistanceMeters>9419.5641444853</DistanceMeters>
          </Trackpoint>
          <Trackpoint>
            <Time>2023-01-11T18:41:05.000Z</Time>
            <Position>
              <LatitudeDegrees>-49.2288527078926563262939453125</LatitudeDegrees>
              <LongitudeDegrees>-73.01142244599759578704833984375</LongitudeDegrees>
            </Position>
            <AltitudeMeters>541</AltitudeMeters>
            <DistanceMeters>9422.0494155546</DistanceMeters>
          </Trackpoint>
          <Trackpoint>
            <Time>2023-01-11T18:41:09.000Z</Time>
            <Position>
              <LatitudeDegrees>-49.2288460023701190948486328125</LatitudeDegrees>
              <LongitudeDegrees>-73.0113770999014377593994140625</LongitudeDegrees>
            </Position>
            <AltitudeMeters>540.79998779296875</AltitudeMeters>
            <DistanceMeters>9425.4305509819</DistanceMeters>
          </Trackpoint>
          <Trackpoint>
            <Time>2023-01-11T18:41:10.000Z</Time>
            <Position>
              <LatitudeDegrees>-49.2288632690906524658203125</LatitudeDegrees>
              <LongitudeDegrees>-73.011357486248016357421875</LongitudeDegrees>
            </Position>
            <AltitudeMeters>540.79998779296875</AltitudeMeters>
            <DistanceMeters>9427.8232625118</DistanceMeters>
          </Trackpoint>
          <Trackpoint>
            <Time>2023-01-11T18:41:15.000Z</Time>
            <Position>
              <LatitudeDegrees>-49.22890827991068363189697265625</LatitudeDegrees>
              <LongitudeDegrees>-73.0112798698246479034423828125</LongitudeDegrees>
            </Position>
            <AltitudeMeters>541.4000244140625</AltitudeMeters>
            <DistanceMeters>9435.3681682039</DistanceMeters>
          </Trackpoint>
          <Trackpoint>
            <Time>2023-01-11T18:41:17.000Z</Time>
            <Position>
              <LatitudeDegrees>-49.2289221100509166717529296875</LatitudeDegrees>
              <LongitudeDegrees>-73.01125531084835529327392578125</LongitudeDegrees>
            </Position>
            <AltitudeMeters>541.4000244140625</AltitudeMeters>
            <DistanceMeters>9437.7247540846</DistanceMeters>
          </Trackpoint>
          <Trackpoint>
            <Time>2023-01-11T18:41:18.000Z</Time>
            <Position>
              <LatitudeDegrees>-49.22893233597278594970703125</LatitudeDegrees>
              <LongitudeDegrees>-73.011252544820308685302734375</LongitudeDegrees>
            </Position>
            <AltitudeMeters>541.4000244140625</AltitudeMeters>
            <DistanceMeters>9438.8847029586</DistanceMeters>
          </Trackpoint>
          <Trackpoint>
            <Time>2023-01-11T18:41:22.000Z</Time>
            <Position>
              <LatitudeDegrees>-49.22893057577311992645263671875</LatitudeDegrees>
              <LongitudeDegrees>-73.01126587204635143280029296875</LongitudeDegrees>
            </Position>
            <AltitudeMeters>541.20001220703125</AltitudeMeters>
            <DistanceMeters>9439.8768109831</DistanceMeters>
          </Trackpoint>
          <Trackpoint>
            <Time>2023-01-11T18:41:26.000Z</Time>
            <Position>
              <LatitudeDegrees>-49.228956811130046844482421875</LatitudeDegrees>
              <LongitudeDegrees>-73.0112453363835811614990234375</LongitudeDegrees>
            </Position>
            <AltitudeMeters>541.4000244140625</AltitudeMeters>
            <DistanceMeters>9443.1576418415</DistanceMeters>
          </Trackpoint>
          <Trackpoint>
            <Time>2023-01-11T18:41:28.000Z</Time>
            <Position>
              <LatitudeDegrees>-49.22898623161017894744873046875</LatitudeDegrees>
              <LongitudeDegrees>-73.01123033277690410614013671875</LongitudeDegrees>
            </Position>
            <AltitudeMeters>541.5999755859375</AltitudeMeters>
            <DistanceMeters>9446.6101338264</DistanceMeters>
          </Trackpoint>
          <Trackpoint>
            <Time>2023-01-11T18:41:33.000Z</Time>
            <Position>
              <LatitudeDegrees>-49.22902562655508518218994140625</LatitudeDegrees>
              <LongitudeDegrees>-73.01121206022799015045166015625</LongitudeDegrees>
            </Position>
            <AltitudeMeters>541.79998779296875</AltitudeMeters>
            <DistanceMeters>9451.1911705711</DistanceMeters>
          </Trackpoint>
          <Trackpoint>
            <Time>2023-01-11T18:41:34.000Z</Time>
            <Position>
              <LatitudeDegrees>-49.229034595191478729248046875</LatitudeDegrees>
              <LongitudeDegrees>-73.01119722425937652587890625</LongitudeDegrees>
            </Position>
            <AltitudeMeters>541.79998779296875</AltitudeMeters>
            <DistanceMeters>9452.6633180999</DistanceMeters>
          </Trackpoint>
          <Trackpoint>
            <Time>2023-01-11T18:41:36.000Z</Time>
            <Position>
              <LatitudeDegrees>-49.22904641367495059967041015625</LatitudeDegrees>
              <LongitudeDegrees>-73.01117484457790851593017578125</LongitudeDegrees>
            </Position>
            <AltitudeMeters>541.79998779296875</AltitudeMeters>
            <DistanceMeters>9454.7560643997</DistanceMeters>
          </Trackpoint>
          <Trackpoint>
            <Time>2023-01-11T18:41:42.000Z</Time>
            <Position>
              <LatitudeDegrees>-49.22908849082887172698974609375</LatitudeDegrees>
              <LongitudeDegrees>-73.01110334694385528564453125</LongitudeDegrees>
            </Position>
            <AltitudeMeters>541.20001220703125</AltitudeMeters>
            <DistanceMeters>9461.7519928103</DistanceMeters>
          </Trackpoint>
          <Trackpoint>
            <Time>2023-01-11T18:41:50.000Z</Time>
            <Position>
              <LatitudeDegrees>-49.2291480861604213714599609375</LatitudeDegrees>
              <LongitudeDegrees>-73.0110039375722408294677734375</LongitudeDegrees>
            </Position>
            <AltitudeMeters>541.4000244140625</AltitudeMeters>
            <DistanceMeters>9471.5604806873</DistanceMeters>
          </Trackpoint>
          <Trackpoint>
            <Time>2023-01-11T18:41:58.000Z</Time>
            <Position>
              <LatitudeDegrees>-49.22919259406626224517822265625</LatitudeDegrees>
              <LongitudeDegrees>-73.0108778737485408782958984375</LongitudeDegrees>
            </Position>
            <AltitudeMeters>541.20001220703125</AltitudeMeters>
            <DistanceMeters>9481.9770731508</DistanceMeters>
          </Trackpoint>
          <Trackpoint>
            <Time>2023-01-11T18:41:59.000Z</Time>
            <Position>
              <LatitudeDegrees>-49.22919879667460918426513671875</LatitudeDegrees>
              <LongitudeDegrees>-73.0108688212931156158447265625</LongitudeDegrees>
            </Position>
            <AltitudeMeters>541.20001220703125</AltitudeMeters>
            <DistanceMeters>9482.9367959218</DistanceMeters>
          </Trackpoint>
          <Trackpoint>
            <Time>2023-01-11T18:42:06.000Z</Time>
            <Position>
              <LatitudeDegrees>-49.22925260849297046661376953125</LatitudeDegrees>
              <LongitudeDegrees>-73.0108124949038028717041015625</LongitudeDegrees>
            </Position>
            <AltitudeMeters>541.20001220703125</AltitudeMeters>
            <DistanceMeters>9490.1918848663</DistanceMeters>
          </Trackpoint>
          <Trackpoint>
            <Time>2023-01-11T18:42:10.000Z</Time>
            <Position>
              <LatitudeDegrees>-49.2292697913944721221923828125</LatitudeDegrees>
              <LongitudeDegrees>-73.01077737472951412200927734375</LongitudeDegrees>
            </Position>
            <AltitudeMeters>540</AltitudeMeters>
            <DistanceMeters>9493.3820096526</DistanceMeters>
          </Trackpoint>
          <Trackpoint>
            <Time>2023-01-11T18:42:13.000Z</Time>
            <Position>
              <LatitudeDegrees>-49.22928479500114917755126953125</LatitudeDegrees>
              <LongitudeDegrees>-73.01074116490781307220458984375</LongitudeDegrees>
            </Position>
            <AltitudeMeters>539.79998779296875</AltitudeMeters>
            <DistanceMeters>9496.4991176478</DistanceMeters>
          </Trackpoint>
          <Trackpoint>
            <Time>2023-01-11T18:42:20.000Z</Time>
            <Position>
              <LatitudeDegrees>-49.2292731441557407379150390625</LatitudeDegrees>
              <LongitudeDegrees>-73.01065784879028797149658203125</LongitudeDegrees>
            </Position>
            <AltitudeMeters>541</AltitudeMeters>
            <DistanceMeters>9502.6911855238</DistanceMeters>
          </Trackpoint>
          <Trackpoint>
            <Time>2023-01-11T18:42:21.000Z</Time>
            <Position>
              <LatitudeDegrees>-49.2292734794318675994873046875</LatitudeDegrees>
              <LongitudeDegrees>-73.0106455273926258087158203125</LongitudeDegrees>
            </Position>
            <AltitudeMeters>541</AltitudeMeters>
            <DistanceMeters>9503.5826151212</DistanceMeters>
          </Trackpoint>
          <Trackpoint>
            <Time>2023-01-11T18:42:27.000Z</Time>
            <Position>
              <LatitudeDegrees>-49.2292754910886287689208984375</LatitudeDegrees>
              <LongitudeDegrees>-73.01055089570581912994384765625</LongitudeDegrees>
            </Position>
            <AltitudeMeters>541</AltitudeMeters>
            <DistanceMeters>9510.4646752015</DistanceMeters>
          </Trackpoint>
          <Trackpoint>
            <Time>2023-01-11T18:42:28.000Z</Time>
            <Position>
              <LatitudeDegrees>-49.22927976585924625396728515625</LatitudeDegrees>
              <LongitudeDegrees>-73.01053681410849094390869140625</LongitudeDegrees>
            </Position>
            <AltitudeMeters>541</AltitudeMeters>
            <DistanceMeters>9511.5970491923</DistanceMeters>
          </Trackpoint>
          <Trackpoint>
            <Time>2023-01-11T18:42:32.000Z</Time>
            <Position>
              <LatitudeDegrees>-49.2292962782084941864013671875</LatitudeDegrees>
              <LongitudeDegrees>-73.01048853434622287750244140625</LongitudeDegrees>
            </Position>
            <AltitudeMeters>541.4000244140625</AltitudeMeters>
            <DistanceMeters>9515.5586489776</DistanceMeters>
          </Trackpoint>
          <Trackpoint>
            <Time>2023-01-11T18:42:40.000Z</Time>
            <Position>
              <LatitudeDegrees>-49.2292825318872928619384765625</LatitudeDegrees>
              <LongitudeDegrees>-73.0103555135428905487060546875</LongitudeDegrees>
            </Position>
            <AltitudeMeters>541.4000244140625</AltitudeMeters>
            <DistanceMeters>9525.3468618416</DistanceMeters>
          </Trackpoint>
          <Trackpoint>
            <Time>2023-01-11T18:42:43.000Z</Time>
            <Position>
              <LatitudeDegrees>-49.229277670383453369140625</LatitudeDegrees>
              <LongitudeDegrees>-73.01029759459197521209716796875</LongitudeDegrees>
            </Position>
            <AltitudeMeters>541</AltitudeMeters>
            <DistanceMeters>9529.5902063279</DistanceMeters>
          </Trackpoint>
          <Trackpoint>
            <Time>2023-01-11T18:42:52.000Z</Time>
            <Position>
              <LatitudeDegrees>-49.22927222214639186859130859375</LatitudeDegrees>
              <LongitudeDegrees>-73.01015384495258331298828125</LongitudeDegrees>
            </Position>
            <AltitudeMeters>540.20001220703125</AltitudeMeters>
            <DistanceMeters>9540.0560950749</DistanceMeters>
          </Trackpoint>
          <Trackpoint>
            <Time>2023-01-11T18:43:01.000Z</Time>
            <Position>
              <LatitudeDegrees>-49.22926962375640869140625</LatitudeDegrees>
              <LongitudeDegrees>-73.01002451218664646148681640625</LongitudeDegrees>
            </Position>
            <AltitudeMeters>541.4000244140625</AltitudeMeters>
            <DistanceMeters>9549.4613398269</DistanceMeters>
          </Trackpoint>
          <Trackpoint>
            <Time>2023-01-11T18:43:03.000Z</Time>
            <Position>
              <LatitudeDegrees>-49.22926970757544040679931640625</LatitudeDegrees>
              <LongitudeDegrees>-73.00999735482037067413330078125</LongitudeDegrees>
            </Position>
            <AltitudeMeters>541.4000244140625</AltitudeMeters>
            <DistanceMeters>9551.4364329953</DistanceMeters>
          </Trackpoint>
          <Trackpoint>
            <Time>2023-01-11T18:43:05.000Z</Time>
            <Position>
              <LatitudeDegrees>-49.22926819883286952972412109375</LatitudeDegrees>
              <LongitudeDegrees>-73.009961731731891632080078125</LongitudeDegrees>
            </Position>
            <AltitudeMeters>541.5999755859375</AltitudeMeters>
            <DistanceMeters>9554.0318976988</DistanceMeters>
          </Trackpoint>
          <Trackpoint>
            <Time>2023-01-11T18:43:08.000Z</Time>
            <Position>
              <LatitudeDegrees>-49.22926853410899639129638671875</LatitudeDegrees>
              <LongitudeDegrees>-73.00991822965443134307861328125</LongitudeDegrees>
            </Position>
            <AltitudeMeters>541.79998779296875</AltitudeMeters>
            <DistanceMeters>9557.1935894332</DistanceMeters>
          </Trackpoint>
          <Trackpoint>
            <Time>2023-01-11T18:43:11.000Z</Time>
            <Position>
              <LatitudeDegrees>-49.22926635481417179107666015625</LatitudeDegrees>
              <LongitudeDegrees>-73.0099050700664520263671875</LongitudeDegrees>
            </Position>
            <AltitudeMeters>542.20001220703125</AltitudeMeters>
            <DistanceMeters>9558.1765534099</DistanceMeters>
          </Trackpoint>
          <Trackpoint>
            <Time>2023-01-11T18:43:14.000Z</Time>
            <Position>
              <LatitudeDegrees>-49.22926316969096660614013671875</LatitudeDegrees>
              <LongitudeDegrees>-73.00988252274692058563232421875</LongitudeDegrees>
            </Position>
            <AltitudeMeters>542.4000244140625</AltitudeMeters>
            <DistanceMeters>9559.8496713668</DistanceMeters>
          </Trackpoint>
          <Trackpoint>
            <Time>2023-01-11T18:43:16.000Z</Time>
            <Position>
              <LatitudeDegrees>-49.2292516864836215972900390625</LatitudeDegrees>
              <LongitudeDegrees>-73.009860813617706298828125</LongitudeDegrees>
            </Position>
            <AltitudeMeters>542.4000244140625</AltitudeMeters>
            <DistanceMeters>9561.8788866975</DistanceMeters>
          </Trackpoint>
          <Trackpoint>
            <Time>2023-01-11T18:43:19.000Z</Time>
            <Position>
              <LatitudeDegrees>-49.2292500101029872894287109375</LatitudeDegrees>
              <LongitudeDegrees>-73.0098220892250537872314453125</LongitudeDegrees>
            </Position>
            <AltitudeMeters>542.4000244140625</AltitudeMeters>
            <DistanceMeters>9564.6994358191</DistanceMeters>
          </Trackpoint>
          <Trackpoint>
            <Time>2023-01-11T18:43:28.000Z</Time>
            <Position>
              <LatitudeDegrees>-49.22923617996275424957275390625</LatitudeDegrees>
              <LongitudeDegrees>-73.009698875248432159423828125</LongitudeDegrees>
            </Position>
            <AltitudeMeters>542.4000244140625</AltitudeMeters>
            <DistanceMeters>9573.7862955079</DistanceMeters>
          </Trackpoint>
          <Trackpoint>
            <Time>2023-01-11T18:43:35.000Z</Time>
            <Position>
              <LatitudeDegrees>-49.22919846139848232269287109375</LatitudeDegrees>
              <LongitudeDegrees>-73.00963173620402812957763671875</LongitudeDegrees>
            </Position>
            <AltitudeMeters>542.5999755859375</AltitudeMeters>
            <DistanceMeters>9580.2229088041</DistanceMeters>
          </Trackpoint>
          <Trackpoint>
            <Time>2023-01-11T18:43:42.000Z</Time>
            <Position>
              <LatitudeDegrees>-49.22917700372636318206787109375</LatitudeDegrees>
              <LongitudeDegrees>-73.00954909063875675201416015625</LongitudeDegrees>
            </Position>
            <AltitudeMeters>542.20001220703125</AltitudeMeters>
            <DistanceMeters>9586.6875196804</DistanceMeters>
          </Trackpoint>
          <Trackpoint>
            <Time>2023-01-11T18:43:46.000Z</Time>
            <Position>
              <LatitudeDegrees>-49.2291628383100032806396484375</LatitudeDegrees>
              <LongitudeDegrees>-73.0094812810420989990234375</LongitudeDegrees>
            </Position>
            <AltitudeMeters>541.4000244140625</AltitudeMeters>
            <DistanceMeters>9591.8627691172</DistanceMeters>
          </Trackpoint>
          <Trackpoint>
            <Time>2023-01-11T18:43:49.000Z</Time>
            <Position>
              <LatitudeDegrees>-49.2291403748095035552978515625</LatitudeDegrees>
              <LongitudeDegrees>-73.009427972137928009033203125</LongitudeDegrees>
            </Position>
            <AltitudeMeters>541.20001220703125</AltitudeMeters>
            <DistanceMeters>9596.4742580335</DistanceMeters>
          </Trackpoint>
          <Trackpoint>
            <Time>2023-01-11T18:43:50.000Z</Time>
            <Position>
              <LatitudeDegrees>-49.2291373573243618011474609375</LatitudeDegrees>
              <LongitudeDegrees>-73.0094169080257415771484375</LongitudeDegrees>
            </Position>
            <AltitudeMeters>541</AltitudeMeters>
            <DistanceMeters>9597.3451922568</DistanceMeters>
          </Trackpoint>
          <Trackpoint>
            <Time>2023-01-11T18:43:56.000Z</Time>
            <Position>
              <LatitudeDegrees>-49.22909989021718502044677734375</LatitudeDegrees>
              <LongitudeDegrees>-73.00933820195496082305908203125</LongitudeDegrees>
            </Position>
            <AltitudeMeters>540.79998779296875</AltitudeMeters>
            <DistanceMeters>9604.4245230348</DistanceMeters>
          </Trackpoint>
          <Trackpoint>
            <Time>2023-01-11T18:44:01.000Z</Time>
            <Position>
              <LatitudeDegrees>-49.22905513085424900054931640625</LatitudeDegrees>
              <LongitudeDegrees>-73.0092846415936946868896484375</LongitudeDegrees>
            </Position>
            <AltitudeMeters>540.79998779296875</AltitudeMeters>
            <DistanceMeters>9610.7479065036</DistanceMeters>
          </Trackpoint>
          <Trackpoint>
            <Time>2023-01-11T18:44:04.000Z</Time>
            <Position>
              <LatitudeDegrees>-49.22903903760015964508056640625</LatitudeDegrees>
              <LongitudeDegrees>-73.00926326774060726165771484375</LongitudeDegrees>
            </Position>
            <AltitudeMeters>540.79998779296875</AltitudeMeters>
            <DistanceMeters>9613.1178659016</DistanceMeters>
          </Trackpoint>
          <Trackpoint>
            <Time>2023-01-11T18:44:11.000Z</Time>
            <Position>
              <LatitudeDegrees>-49.22903199680149555206298828125</LatitudeDegrees>
              <LongitudeDegrees>-73.00924046896398067474365234375</LongitudeDegrees>
            </Position>
            <AltitudeMeters>541.5999755859375</AltitudeMeters>
            <DistanceMeters>9614.9506747943</DistanceMeters>
          </Trackpoint>
          <Trackpoint>
            <Time>2023-01-11T18:44:18.000Z</Time>
            <Position>
              <LatitudeDegrees>-49.22899813391268253326416015625</LatitudeDegrees>
              <LongitudeDegrees>-73.0091978050768375396728515625</LongitudeDegrees>
            </Position>
            <AltitudeMeters>542</AltitudeMeters>
            <DistanceMeters>9619.8332357834</DistanceMeters>
          </Trackpoint>
          <Trackpoint>
            <Time>2023-01-11T18:44:20.000Z</Time>
            <Position>
              <LatitudeDegrees>-49.22897391021251678466796875</LatitudeDegrees>
              <LongitudeDegrees>-73.00917810760438442230224609375</LongitudeDegrees>
            </Position>
            <AltitudeMeters>542.20001220703125</AltitudeMeters>
            <DistanceMeters>9622.8874245409</DistanceMeters>
          </Trackpoint>
          <Trackpoint>
            <Time>2023-01-11T18:44:26.000Z</Time>
            <Position>
              <LatitudeDegrees>-49.2289284802973270416259765625</LatitudeDegrees>
              <LongitudeDegrees>-73.00910778343677520751953125</LongitudeDegrees>
            </Position>
            <AltitudeMeters>542.79998779296875</AltitudeMeters>
            <DistanceMeters>9630.0775001762</DistanceMeters>
          </Trackpoint>
          <Trackpoint>
            <Time>2023-01-11T18:44:34.000Z</Time>
            <Position>
              <LatitudeDegrees>-49.2288847267627716064453125</LatitudeDegrees>
              <LongitudeDegrees>-73.0090167559683322906494140625</LongitudeDegrees>
            </Position>
            <AltitudeMeters>542</AltitudeMeters>
            <DistanceMeters>9638.2916788442</DistanceMeters>
          </Trackpoint>
          <Trackpoint>
            <Time>2023-01-11T18:44:40.000Z</Time>
            <Position>
              <LatitudeDegrees>-49.22883971594274044036865234375</LatitudeDegrees>
              <LongitudeDegrees>-73.00894710235297679901123046875</LongitudeDegrees>
            </Position>
            <AltitudeMeters>542.4000244140625</AltitudeMeters>
            <DistanceMeters>9645.4136125272</DistanceMeters>
          </Trackpoint>
          <Trackpoint>
            <Time>2023-01-11T18:44:42.000Z</Time>
            <Position>
              <LatitudeDegrees>-49.2288339324295520782470703125</LatitudeDegrees>
              <LongitudeDegrees>-73.00891910679638385772705078125</LongitudeDegrees>
            </Position>
            <AltitudeMeters>542.4000244140625</AltitudeMeters>
            <DistanceMeters>9647.5469569738</DistanceMeters>
          </Trackpoint>
          <Trackpoint>
            <Time>2023-01-11T18:44:50.000Z</Time>
            <Position>
              <LatitudeDegrees>-49.22878959216177463531494140625</LatitudeDegrees>
              <LongitudeDegrees>-73.00883176736533641815185546875</LongitudeDegrees>
            </Position>
            <AltitudeMeters>541.5999755859375</AltitudeMeters>
            <DistanceMeters>9655.5878118624</DistanceMeters>
          </Trackpoint>
          <Trackpoint>
            <Time>2023-01-11T18:44:51.000Z</Time>
            <Position>
              <LatitudeDegrees>-49.22878221608698368072509765625</LatitudeDegrees>
              <LongitudeDegrees>-73.0088214576244354248046875</LongitudeDegrees>
            </Position>
            <AltitudeMeters>541.5999755859375</AltitudeMeters>
            <DistanceMeters>9656.6960042628</DistanceMeters>
          </Trackpoint>
          <Trackpoint>
            <Time>2023-01-11T18:44:56.000Z</Time>
            <Position>
              <LatitudeDegrees>-49.22875463962554931640625</LatitudeDegrees>
              <LongitudeDegrees>-73.0087606050074100494384765625</LongitudeDegrees>
            </Position>
            <AltitudeMeters>541.5999755859375</AltitudeMeters>
            <DistanceMeters>9662.0799196954</DistanceMeters>
          </Trackpoint>
          <Trackpoint>
            <Time>2023-01-11T18:44:58.000Z</Time>
            <Position>
              <LatitudeDegrees>-49.228748939931392669677734375</LatitudeDegrees>
              <LongitudeDegrees>-73.00873554311692714691162109375</LongitudeDegrees>
            </Position>
            <AltitudeMeters>541.5999755859375</AltitudeMeters>
            <DistanceMeters>9664.0087513352</DistanceMeters>
          </Trackpoint>
          <Trackpoint>
            <Time>2023-01-11T18:45:05.000Z</Time>
            <Position>
              <LatitudeDegrees>-49.2287031747400760650634765625</LatitudeDegrees>
              <LongitudeDegrees>-73.0086258240044116973876953125</LongitudeDegrees>
            </Position>
            <AltitudeMeters>541.5999755859375</AltitudeMeters>
            <DistanceMeters>9673.4719045145</DistanceMeters>
          </Trackpoint>
          <Trackpoint>
            <Time>2023-01-11T18:45:15.000Z</Time>
            <Position>
              <LatitudeDegrees>-49.228665791451930999755859375</LatitudeDegrees>
              <LongitudeDegrees>-73.00847654230892658233642578125</LongitudeDegrees>
            </Position>
            <AltitudeMeters>541.5999755859375</AltitudeMeters>
            <DistanceMeters>9685.0931705082</DistanceMeters>
          </Trackpoint>
          <Trackpoint>
            <Time>2023-01-11T18:45:26.000Z</Time>
            <Position>
              <LatitudeDegrees>-49.22864173538982868194580078125</LatitudeDegrees>
              <LongitudeDegrees>-73.0083002708852291107177734375</LongitudeDegrees>
            </Position>
            <AltitudeMeters>541.5999755859375</AltitudeMeters>
            <DistanceMeters>9698.1820440386</DistanceMeters>
          </Trackpoint>
          <Trackpoint>
            <Time>2023-01-11T18:45:33.000Z</Time>
            <Position>
              <LatitudeDegrees>-49.22867752611637115478515625</LatitudeDegrees>
              <LongitudeDegrees>-73.008211590349674224853515625</LongitudeDegrees>
            </Position>
            <AltitudeMeters>541.5999755859375</AltitudeMeters>
            <DistanceMeters>9705.7591956163</DistanceMeters>
          </Trackpoint>
          <Trackpoint>
            <Time>2023-01-11T18:45:36.000Z</Time>
            <Position>
              <LatitudeDegrees>-49.228697977960109710693359375</LatitudeDegrees>
              <LongitudeDegrees>-73.008182086050510406494140625</LongitudeDegrees>
            </Position>
            <AltitudeMeters>541.5999755859375</AltitudeMeters>
            <DistanceMeters>9708.8864264662</DistanceMeters>
          </Trackpoint>
          <Trackpoint>
            <Time>2023-01-11T18:45:41.000Z</Time>
            <Position>
              <LatitudeDegrees>-49.22870744951069355010986328125</LatitudeDegrees>
              <LongitudeDegrees>-73.00812751986086368560791015625</LongitudeDegrees>
            </Position>
            <AltitudeMeters>541.5999755859375</AltitudeMeters>
            <DistanceMeters>9712.990216491</DistanceMeters>
          </Trackpoint>
          <Trackpoint>
            <Time>2023-01-11T18:45:49.000Z</Time>
            <Position>
              <LatitudeDegrees>-49.2287048511207103729248046875</LatitudeDegrees>
              <LongitudeDegrees>-73.008044622838497161865234375</LongitudeDegrees>
            </Position>
            <AltitudeMeters>541.5999755859375</AltitudeMeters>
            <DistanceMeters>9719.0227290745</DistanceMeters>
          </Trackpoint>
          <Trackpoint>
            <Time>2023-01-11T18:45:56.000Z</Time>
            <Position>
              <LatitudeDegrees>-49.22871080227196216583251953125</LatitudeDegrees>
              <LongitudeDegrees>-73.0079666711390018463134765625</LongitudeDegrees>
            </Position>
            <AltitudeMeters>541.5999755859375</AltitudeMeters>
            <DistanceMeters>9724.7274986144</DistanceMeters>
          </Trackpoint>
          <Trackpoint>
            <Time>2023-01-11T18:45:58.000Z</Time>
            <Position>
              <LatitudeDegrees>-49.2287135683000087738037109375</LatitudeDegrees>
              <LongitudeDegrees>-73.00794512964785099029541015625</LongitudeDegrees>
            </Position>
            <AltitudeMeters>541.5999755859375</AltitudeMeters>
            <DistanceMeters>9726.3232685092</DistanceMeters>
          </Trackpoint>
          <Trackpoint>
            <Time>2023-01-11T18:46:04.000Z</Time>
            <Position>
              <LatitudeDegrees>-49.228733517229557037353515625</LatitudeDegrees>
              <LongitudeDegrees>-73.007918894290924072265625</LongitudeDegrees>
            </Position>
            <AltitudeMeters>541.5999755859375</AltitudeMeters>
            <DistanceMeters>9729.2506466101</DistanceMeters>
          </Trackpoint>
          <Trackpoint>
            <Time>2023-01-11T18:46:13.000Z</Time>
            <Position>
              <LatitudeDegrees>-49.2287578247487545013427734375</LatitudeDegrees>
              <LongitudeDegrees>-73.0078841932117938995361328125</LongitudeDegrees>
            </Position>
            <AltitudeMeters>541.5999755859375</AltitudeMeters>
            <DistanceMeters>9732.9505920001</DistanceMeters>
          </Trackpoint>
          <Trackpoint>
            <Time>2023-01-11T18:46:20.000Z</Time>
            <Position>
              <LatitudeDegrees>-49.22880987636744976043701171875</LatitudeDegrees>
              <LongitudeDegrees>-73.00784572027623653411865234375</LongitudeDegrees>
            </Position>
            <AltitudeMeters>541.5999755859375</AltitudeMeters>
            <DistanceMeters>9739.3836970313</DistanceMeters>
          </Trackpoint>
          <Trackpoint>
            <Time>2023-01-11T18:46:29.000Z</Time>
            <Position>
              <LatitudeDegrees>-49.2288922704756259918212890625</LatitudeDegrees>
              <LongitudeDegrees>-73.0078218318521976470947265625</LongitudeDegrees>
            </Position>
            <AltitudeMeters>541.5999755859375</AltitudeMeters>
            <DistanceMeters>9748.7171394538</DistanceMeters>
          </Trackpoint>
          <Trackpoint>
            <Time>2023-01-11T18:46:39.000Z</Time>
            <Position>
              <LatitudeDegrees>-49.22893158160150051116943359375</LatitudeDegrees>
              <LongitudeDegrees>-73.00769166089594364166259765625</LongitudeDegrees>
            </Position>
            <AltitudeMeters>541.5999755859375</AltitudeMeters>
            <DistanceMeters>9759.1415310393</DistanceMeters>
          </Trackpoint>
          <Trackpoint>
            <Time>2023-01-11T18:46:44.000Z</Time>
            <Position>
              <LatitudeDegrees>-49.22894448973238468170166015625</LatitudeDegrees>
              <LongitudeDegrees>-73.00765536725521087646484375</LongitudeDegrees>
            </Position>
            <AltitudeMeters>541.5999755859375</AltitudeMeters>
            <DistanceMeters>9762.1435330864</DistanceMeters>
          </Trackpoint>
          <Trackpoint>
            <Time>2023-01-11T18:46:45.000Z</Time>
            <Position>
              <LatitudeDegrees>-49.22894214279949665069580078125</LatitudeDegrees>
              <LongitudeDegrees>-73.0076374299824237823486328125</LongitudeDegrees>
            </Position>
            <AltitudeMeters>541.5999755859375</AltitudeMeters>
            <DistanceMeters>9763.4739070876</DistanceMeters>
          </Trackpoint>
          <Trackpoint>
            <Time>2023-01-11T18:46:46.000Z</Time>
            <Position>
              <LatitudeDegrees>-49.22894398681819438934326171875</LatitudeDegrees>
              <LongitudeDegrees>-73.00762854516506195068359375</LongitudeDegrees>
            </Position>
            <AltitudeMeters>541.5999755859375</AltitudeMeters>
            <DistanceMeters>9764.1525335671</DistanceMeters>
          </Trackpoint>
          <Trackpoint>
            <Time>2023-01-11T18:46:53.000Z</Time>
            <Position>
              <LatitudeDegrees>-49.2289425618946552276611328125</LatitudeDegrees>
              <LongitudeDegrees>-73.00752486102283000946044921875</LongitudeDegrees>
            </Position>
            <AltitudeMeters>541.5999755859375</AltitudeMeters>
            <DistanceMeters>9771.6902547735</DistanceMeters>
          </Trackpoint>
          <Trackpoint>
            <Time>2023-01-11T18:46:59.000Z</Time>
            <Position>
              <LatitudeDegrees>-49.22895404510200023651123046875</LatitudeDegrees>
              <LongitudeDegrees>-73.00748261623084545135498046875</LongitudeDegrees>
            </Position>
            <AltitudeMeters>541.5999755859375</AltitudeMeters>
            <DistanceMeters>9775.0148319748</DistanceMeters>
          </Trackpoint>
          <Trackpoint>
            <Time>2023-01-11T18:47:01.000Z</Time>
            <Position>
              <LatitudeDegrees>-49.228950776159763336181640625</LatitudeDegrees>
              <LongitudeDegrees>-73.00745688378810882568359375</LongitudeDegrees>
            </Position>
            <AltitudeMeters>541.5999755859375</AltitudeMeters>
            <DistanceMeters>9776.9153662622</DistanceMeters>
          </Trackpoint>
          <Trackpoint>
            <Time>2023-01-11T18:47:09.000Z</Time>
            <Position>
              <LatitudeDegrees>-49.228945076465606689453125</LatitudeDegrees>
              <LongitudeDegrees>-73.00735319964587688446044921875</LongitudeDegrees>
            </Position>
            <AltitudeMeters>541.5999755859375</AltitudeMeters>
            <DistanceMeters>9784.4782033089</DistanceMeters>
          </Trackpoint>
          <Trackpoint>
            <Time>2023-01-11T18:47:14.000Z</Time>
            <Position>
              <LatitudeDegrees>-49.2289556376636028289794921875</LatitudeDegrees>
              <LongitudeDegrees>-73.007284887135028839111328125</LongitudeDegrees>
            </Position>
            <AltitudeMeters>541.5999755859375</AltitudeMeters>
            <DistanceMeters>9789.5805273273</DistanceMeters>
          </Trackpoint>
          <Trackpoint>
            <Time>2023-01-11T18:47:21.000Z</Time>
            <Position>
              <LatitudeDegrees>-49.22898807562887668609619140625</LatitudeDegrees>
              <LongitudeDegrees>-73.0071901716291904449462890625</LongitudeDegrees>
            </Position>
            <AltitudeMeters>541.5999755859375</AltitudeMeters>
            <DistanceMeters>9797.3541539946</DistanceMeters>
          </Trackpoint>
          <Trackpoint>
            <Time>2023-01-11T18:47:22.000Z</Time>
            <Position>
              <LatitudeDegrees>-49.2289965413510799407958984375</LatitudeDegrees>
              <LongitudeDegrees>-73.00717432983219623565673828125</LongitudeDegrees>
            </Position>
            <AltitudeMeters>541.5999755859375</AltitudeMeters>
            <DistanceMeters>9798.8445897715</DistanceMeters>
          </Trackpoint>
          <Trackpoint>
            <Time>2023-01-11T18:47:29.000Z</Time>
            <Position>
              <LatitudeDegrees>-49.2290143109858036041259765625</LatitudeDegrees>
              <LongitudeDegrees>-73.00705396570265293121337890625</LongitudeDegrees>
            </Position>
            <AltitudeMeters>541.5999755859375</AltitudeMeters>
            <DistanceMeters>9807.8139236955</DistanceMeters>
          </Trackpoint>
          <Trackpoint>
            <Time>2023-01-11T18:47:32.000Z</Time>
            <Position>
              <LatitudeDegrees>-49.22900743782520294189453125</LatitudeDegrees>
              <LongitudeDegrees>-73.0069921910762786865234375</LongitudeDegrees>
            </Position>
            <AltitudeMeters>541.5999755859375</AltitudeMeters>
            <DistanceMeters>9812.368271683</DistanceMeters>
          </Trackpoint>
          <Trackpoint>
            <Time>2023-01-11T18:47:35.000Z</Time>
            <Position>
              <LatitudeDegrees>-49.228993356227874755859375</LatitudeDegrees>
              <LongitudeDegrees>-73.006937205791473388671875</LongitudeDegrees>
            </Position>
            <AltitudeMeters>541.5999755859375</AltitudeMeters>
            <DistanceMeters>9816.6602823943</DistanceMeters>
          </Trackpoint>
          <Trackpoint>
            <Time>2023-01-11T18:47:42.000Z</Time>
            <Position>
              <LatitudeDegrees>-49.22901087440550327301025390625</LatitudeDegrees>
              <LongitudeDegrees>-73.0068419873714447021484375</LongitudeDegrees>
            </Position>
            <AltitudeMeters>541.5999755859375</AltitudeMeters>
            <DistanceMeters>9823.8509859564</DistanceMeters>
          </Trackpoint>
          <Trackpoint>
            <Time>2023-01-11T18:47:43.000Z</Time>
            <Position>
              <LatitudeDegrees>-49.22902428545057773590087890625</LatitudeDegrees>
              <LongitudeDegrees>-73.006834276020526885986328125</LongitudeDegrees>
            </Position>
            <AltitudeMeters>541.5999755859375</AltitudeMeters>
            <DistanceMeters>9825.4467558512</DistanceMeters>
          </Trackpoint>
          <Trackpoint>
            <Time>2023-01-11T18:47:47.000Z</Time>
            <Position>
              <LatitudeDegrees>-49.2290324158966541290283203125</LatitudeDegrees>
              <LongitudeDegrees>-73.006718270480632781982421875</LongitudeDegrees>
            </Position>
            <AltitudeMeters>544.79998779296875</AltitudeMeters>
            <DistanceMeters>9833.9270582515</DistanceMeters>
          </Trackpoint>
          <Trackpoint>
            <Time>2023-01-11T18:47:51.000Z</Time>
            <Position>
              <LatitudeDegrees>-49.2290364392101764678955078125</LatitudeDegrees>
              <LongitudeDegrees>-73.0066500417888164520263671875</LongitudeDegrees>
            </Position>
            <AltitudeMeters>545</AltitudeMeters>
            <DistanceMeters>9838.9066756981</DistanceMeters>
          </Trackpoint>
          <Trackpoint>
            <Time>2023-01-11T18:47:52.000Z</Time>
            <Position>
              <LatitudeDegrees>-49.22903669066727161407470703125</LatitudeDegrees>
              <LongitudeDegrees>-73.00663654692471027374267578125</LongitudeDegrees>
            </Position>
            <AltitudeMeters>545.4000244140625</AltitudeMeters>
            <DistanceMeters>9839.8896396748</DistanceMeters>
          </Trackpoint>
          <Trackpoint>
            <Time>2023-01-11T18:47:58.000Z</Time>
            <Position>
              <LatitudeDegrees>-49.22902797348797321319580078125</LatitudeDegrees>
              <LongitudeDegrees>-73.00655842758715152740478515625</LongitudeDegrees>
            </Position>
            <AltitudeMeters>546</AltitudeMeters>
            <DistanceMeters>9845.6495442622</DistanceMeters>
          </Trackpoint>
          <Trackpoint>
            <Time>2023-01-11T18:48:00.000Z</Time>
            <Position>
              <LatitudeDegrees>-49.22902478836476802825927734375</LatitudeDegrees>
              <LongitudeDegrees>-73.006529845297336578369140625</LongitudeDegrees>
            </Position>
            <AltitudeMeters>546</AltitudeMeters>
            <DistanceMeters>9847.7573387518</DistanceMeters>
          </Trackpoint>
          <Trackpoint>
            <Time>2023-01-11T18:48:06.000Z</Time>
            <Position>
              <LatitudeDegrees>-49.22900685109198093414306640625</LatitudeDegrees>
              <LongitudeDegrees>-73.00646941177546977996826171875</LongitudeDegrees>
            </Position>
            <AltitudeMeters>545.79998779296875</AltitudeMeters>
            <DistanceMeters>9852.5822260119</DistanceMeters>
          </Trackpoint>
          <Trackpoint>
            <Time>2023-01-11T18:48:13.000Z</Time>
            <Position>
              <LatitudeDegrees>-49.228996373713016510009765625</LatitudeDegrees>
              <LongitudeDegrees>-73.0063288472592830657958984375</LongitudeDegrees>
            </Position>
            <AltitudeMeters>545.5999755859375</AltitudeMeters>
            <DistanceMeters>9862.8653284211</DistanceMeters>
          </Trackpoint>
          <Trackpoint>
            <Time>2023-01-11T18:48:18.000Z</Time>
            <Position>
              <LatitudeDegrees>-49.2290156520903110504150390625</LatitudeDegrees>
              <LongitudeDegrees>-73.00625617615878582000732421875</LongitudeDegrees>
            </Position>
            <AltitudeMeters>545.5999755859375</AltitudeMeters>
            <DistanceMeters>9868.566139339</DistanceMeters>
          </Trackpoint>
          <Trackpoint>
            <Time>2023-01-11T18:48:20.000Z</Time>
            <Position>
              <LatitudeDegrees>-49.22901489771902561187744140625</LatitudeDegrees>
              <LongitudeDegrees>-73.00621694885194301605224609375</LongitudeDegrees>
            </Position>
            <AltitudeMeters>545.5999755859375</AltitudeMeters>
            <DistanceMeters>9871.418524109</DistanceMeters>
          </Trackpoint>
          <Trackpoint>
            <Time>2023-01-11T18:48:22.000Z</Time>
            <Position>
              <LatitudeDegrees>-49.22900785692036151885986328125</LatitudeDegrees>
              <LongitudeDegrees>-73.00617872737348079681396484375</LongitudeDegrees>
            </Position>
            <AltitudeMeters>545.4000244140625</AltitudeMeters>
            <DistanceMeters>9874.3055226469</DistanceMeters>
          </Trackpoint>
          <Trackpoint>
            <Time>2023-01-11T18:48:27.000Z</Time>
            <Position>
              <LatitudeDegrees>-49.22897365875542163848876953125</LatitudeDegrees>
              <LongitudeDegrees>-73.006073534488677978515625</LongitudeDegrees>
            </Position>
            <AltitudeMeters>545.4000244140625</AltitudeMeters>
            <DistanceMeters>9882.8463046669</DistanceMeters>
          </Trackpoint>
          <Trackpoint>
            <Time>2023-01-11T18:48:34.000Z</Time>
            <Position>
              <LatitudeDegrees>-49.22889017499983310699462890625</LatitudeDegrees>
              <LongitudeDegrees>-73.00600086338818073272705078125</LongitudeDegrees>
            </Position>
            <AltitudeMeters>545.4000244140625</AltitudeMeters>
            <DistanceMeters>9893.5341700766</DistanceMeters>
          </Trackpoint>
          <Trackpoint>
            <Time>2023-01-11T18:48:41.000Z</Time>
            <Position>
              <LatitudeDegrees>-49.22884893603622913360595703125</LatitudeDegrees>
              <LongitudeDegrees>-73.00590388476848602294921875</LongitudeDegrees>
            </Position>
            <AltitudeMeters>545.4000244140625</AltitudeMeters>
            <DistanceMeters>9901.9449737756</DistanceMeters>
          </Trackpoint>
          <Trackpoint>
            <Time>2023-01-11T18:48:43.000Z</Time>
            <Position>
              <LatitudeDegrees>-49.2288305796682834625244140625</LatitudeDegrees>
              <LongitudeDegrees>-73.00586993806064128875732421875</LongitudeDegrees>
            </Position>
            <AltitudeMeters>545</AltitudeMeters>
            <DistanceMeters>9905.1478110865</DistanceMeters>
          </Trackpoint>
          <Trackpoint>
            <Time>2023-01-11T18:48:49.000Z</Time>
            <Position>
              <LatitudeDegrees>-49.22880828380584716796875</LatitudeDegrees>
              <LongitudeDegrees>-73.00573431886732578277587890625</LongitudeDegrees>
            </Position>
            <AltitudeMeters>545</AltitudeMeters>
            <DistanceMeters>9915.3125606984</DistanceMeters>
          </Trackpoint>
          <Trackpoint>
            <Time>2023-01-11T18:48:59.000Z</Time>
            <Position>
              <LatitudeDegrees>-49.22876201570034027099609375</LatitudeDegrees>
              <LongitudeDegrees>-73.00557774491608142852783203125</LongitudeDegrees>
            </Position>
            <AltitudeMeters>545</AltitudeMeters>
            <DistanceMeters>9927.8041467046</DistanceMeters>
          </Trackpoint>
          <Trackpoint>
            <Time>2023-01-11T18:49:10.000Z</Time>
            <Position>
              <LatitudeDegrees>-49.22870560549199581146240234375</LatitudeDegrees>
              <LongitudeDegrees>-73.0054122023284435272216796875</LongitudeDegrees>
            </Position>
            <AltitudeMeters>545</AltitudeMeters>
            <DistanceMeters>9941.3760109577</DistanceMeters>
          </Trackpoint>
          <Trackpoint>
            <Time>2023-01-11T18:49:12.000Z</Time>
            <Position>
              <LatitudeDegrees>-49.2286884225904941558837890625</LatitudeDegrees>
              <LongitudeDegrees>-73.00537641160190105438232421875</LongitudeDegrees>
            </Position>
            <AltitudeMeters>545</AltitudeMeters>
            <DistanceMeters>9944.604123133</DistanceMeters>
          </Trackpoint>
          <Trackpoint>
            <Time>2023-01-11T18:49:16.000Z</Time>
            <Position>
              <LatitudeDegrees>-49.22866621054708957672119140625</LatitudeDegrees>
              <LongitudeDegrees>-73.0053029023110866546630859375</LongitudeDegrees>
            </Position>
            <AltitudeMeters>545</AltitudeMeters>
            <DistanceMeters>9950.4911795615</DistanceMeters>
          </Trackpoint>
          <Trackpoint>
            <Time>2023-01-11T18:49:24.000Z</Time>
            <Position>
              <LatitudeDegrees>-49.22866889275610446929931640625</LatitudeDegrees>
              <LongitudeDegrees>-73.00518010742962360382080078125</LongitudeDegrees>
            </Position>
            <AltitudeMeters>545</AltitudeMeters>
            <DistanceMeters>9959.4211630484</DistanceMeters>
          </Trackpoint>
          <Trackpoint>
            <Time>2023-01-11T18:49:31.000Z</Time>
            <Position>
              <LatitudeDegrees>-49.22865849919617176055908203125</LatitudeDegrees>
              <LongitudeDegrees>-73.005068711936473846435546875</LongitudeDegrees>
            </Position>
            <AltitudeMeters>545</AltitudeMeters>
            <DistanceMeters>9967.6000875679</DistanceMeters>
          </Trackpoint>
          <Trackpoint>
            <Time>2023-01-11T18:49:37.000Z</Time>
            <Position>
              <LatitudeDegrees>-49.2286277376115322113037109375</LatitudeDegrees>
              <LongitudeDegrees>-73.005015067756175994873046875</LongitudeDegrees>
            </Position>
            <AltitudeMeters>545</AltitudeMeters>
            <DistanceMeters>9972.7892770958</DistanceMeters>
          </Trackpoint>
          <Trackpoint>
            <Time>2023-01-11T18:49:38.000Z</Time>
            <Position>
              <LatitudeDegrees>-49.22862228937447071075439453125</LatitudeDegrees>
              <LongitudeDegrees>-73.00500039942562580108642578125</LongitudeDegrees>
            </Position>
            <AltitudeMeters>545</AltitudeMeters>
            <DistanceMeters>9974.0136106654</DistanceMeters>
          </Trackpoint>
          <Trackpoint>
            <Time>2023-01-11T18:49:39.000Z</Time>
            <Position>
              <LatitudeDegrees>-49.22860912978649139404296875</LatitudeDegrees>
              <LongitudeDegrees>-73.004982881247997283935546875</LongitudeDegrees>
            </Position>
            <AltitudeMeters>545</AltitudeMeters>
            <DistanceMeters>9975.9564364305</DistanceMeters>
          </Trackpoint>
          <Trackpoint>
            <Time>2023-01-11T18:49:40.000Z</Time>
            <Position>
              <LatitudeDegrees>-49.22860200516879558563232421875</LatitudeDegrees>
              <LongitudeDegrees>-73.00496938638389110565185546875</LongitudeDegrees>
            </Position>
            <AltitudeMeters>545</AltitudeMeters>
            <DistanceMeters>9977.2206846382</DistanceMeters>
          </Trackpoint>
          <Trackpoint>
            <Time>2023-01-11T18:49:49.000Z</Time>
            <Position>
              <LatitudeDegrees>-49.22856043092906475067138671875</LatitudeDegrees>
              <LongitudeDegrees>-73.00483527593314647674560546875</LongitudeDegrees>
            </Position>
            <AltitudeMeters>540.5999755859375</AltitudeMeters>
            <DistanceMeters>9988.0111343817</DistanceMeters>
          </Trackpoint>
          <Trackpoint>
            <Time>2023-01-11T18:49:50.000Z</Time>
            <Position>
              <LatitudeDegrees>-49.22855724580585956573486328125</LatitudeDegrees>
              <LongitudeDegrees>-73.0048221163451671600341796875</LongitudeDegrees>
            </Position>
            <AltitudeMeters>540.5999755859375</AltitudeMeters>
            <DistanceMeters>9989.0257420471</DistanceMeters>
          </Trackpoint>
          <Trackpoint>
            <Time>2023-01-11T18:49:53.000Z</Time>
            <Position>
              <LatitudeDegrees>-49.2285536415874958038330078125</LatitudeDegrees>
              <LongitudeDegrees>-73.0047740042209625244140625</LongitudeDegrees>
            </Position>
            <AltitudeMeters>540.5999755859375</AltitudeMeters>
            <DistanceMeters>9992.5455808049</DistanceMeters>
          </Trackpoint>
          <Trackpoint>
            <Time>2023-01-11T18:49:58.000Z</Time>
            <Position>
              <LatitudeDegrees>-49.22854031436145305633544921875</LatitudeDegrees>
              <LongitudeDegrees>-73.0046854913234710693359375</LongitudeDegrees>
            </Position>
            <AltitudeMeters>540</AltitudeMeters>
            <DistanceMeters>9999.1470313212</DistanceMeters>
          </Trackpoint>
          <Trackpoint>
            <Time>2023-01-11T18:50:02.000Z</Time>
            <Position>
              <LatitudeDegrees>-49.22853629104793071746826171875</LatitudeDegrees>
              <LongitudeDegrees>-73.004618771374225616455078125</LongitudeDegrees>
            </Position>
            <AltitudeMeters>540</AltitudeMeters>
            <DistanceMeters>10004.016628917</DistanceMeters>
          </Trackpoint>
          <Trackpoint>
            <Time>2023-01-11T18:50:05.000Z</Time>
            <Position>
              <LatitudeDegrees>-49.228548444807529449462890625</LatitudeDegrees>
              <LongitudeDegrees>-73.00456454046070575714111328125</LongitudeDegrees>
            </Position>
            <AltitudeMeters>540</AltitudeMeters>
            <DistanceMeters>10008.184826018</DistanceMeters>
          </Trackpoint>
          <Trackpoint>
            <Time>2023-01-11T18:50:09.000Z</Time>
            <Position>
              <LatitudeDegrees>-49.228569567203521728515625</LatitudeDegrees>
              <LongitudeDegrees>-73.004510812461376190185546875</LongitudeDegrees>
            </Position>
            <AltitudeMeters>540.5999755859375</AltitudeMeters>
            <DistanceMeters>10012.743137756</DistanceMeters>
          </Trackpoint>
          <Trackpoint>
            <Time>2023-01-11T18:50:13.000Z</Time>
            <Position>
              <LatitudeDegrees>-49.228581301867961883544921875</LatitudeDegrees>
              <LongitudeDegrees>-73.00446043722331523895263671875</LongitudeDegrees>
            </Position>
            <AltitudeMeters>541.4000244140625</AltitudeMeters>
            <DistanceMeters>10016.631112546</DistanceMeters>
          </Trackpoint>
          <Trackpoint>
            <Time>2023-01-11T18:50:14.000Z</Time>
            <Position>
              <LatitudeDegrees>-49.228584654629230499267578125</LatitudeDegrees>
              <LongitudeDegrees>-73.004451133310794830322265625</LongitudeDegrees>
            </Position>
            <AltitudeMeters>541.5999755859375</AltitudeMeters>
            <DistanceMeters>10017.403113223</DistanceMeters>
          </Trackpoint>
          <Trackpoint>
            <Time>2023-01-11T18:50:15.000Z</Time>
            <Position>
              <LatitudeDegrees>-49.228590019047260284423828125</LatitudeDegrees>
              <LongitudeDegrees>-73.00444610416889190673828125</LongitudeDegrees>
            </Position>
            <AltitudeMeters>541.79998779296875</AltitudeMeters>
            <DistanceMeters>10018.101414109</DistanceMeters>
          </Trackpoint>
          <Trackpoint>
            <Time>2023-01-11T18:50:19.000Z</Time>
            <Position>
              <LatitudeDegrees>-49.22863184474408626556396484375</LatitudeDegrees>
              <LongitudeDegrees>-73.0044110678136348724365234375</LongitudeDegrees>
            </Position>
            <AltitudeMeters>542.79998779296875</AltitudeMeters>
            <DistanceMeters>10023.407615986</DistanceMeters>
          </Trackpoint>
          <Trackpoint>
            <Time>2023-01-11T18:50:21.000Z</Time>
            <Position>
              <LatitudeDegrees>-49.2286461777985095977783203125</LatitudeDegrees>
              <LongitudeDegrees>-73.00439916551113128662109375</LongitudeDegrees>
            </Position>
            <AltitudeMeters>543</AltitudeMeters>
            <DistanceMeters>10025.223098815</DistanceMeters>
          </Trackpoint>
          <Trackpoint>
            <Time>2023-01-11T18:50:22.000Z</Time>
            <Position>
              <LatitudeDegrees>-49.2286485247313976287841796875</LatitudeDegrees>
              <LongitudeDegrees>-73.004384748637676239013671875</LongitudeDegrees>
            </Position>
            <AltitudeMeters>543.20001220703125</AltitudeMeters>
            <DistanceMeters>10026.306570059</DistanceMeters>
          </Trackpoint>
          <Trackpoint>
            <Time>2023-01-11T18:50:25.000Z</Time>
            <Position>
              <LatitudeDegrees>-49.2286621034145355224609375</LatitudeDegrees>
              <LongitudeDegrees>-73.004357926547527313232421875</LongitudeDegrees>
            </Position>
            <AltitudeMeters>543.5999755859375</AltitudeMeters>
            <DistanceMeters>10028.773607052</DistanceMeters>
          </Trackpoint>
          <Trackpoint>
            <Time>2023-01-11T18:50:26.000Z</Time>
            <Position>
              <LatitudeDegrees>-49.22866738401353359222412109375</LatitudeDegrees>
              <LongitudeDegrees>-73.00435088574886322021484375</LongitudeDegrees>
            </Position>
            <AltitudeMeters>543.79998779296875</AltitudeMeters>
            <DistanceMeters>10029.545607729</DistanceMeters>
          </Trackpoint>
          <Trackpoint>
            <Time>2023-01-11T18:50:29.000Z</Time>
            <Position>
              <LatitudeDegrees>-49.228680543601512908935546875</LatitudeDegrees>
              <LongitudeDegrees>-73.00428139977157115936279296875</LongitudeDegrees>
            </Position>
            <AltitudeMeters>544</AltitudeMeters>
            <DistanceMeters>10034.80308469</DistanceMeters>
          </Trackpoint>
          <Trackpoint>
            <Time>2023-01-11T18:50:35.000Z</Time>
            <Position>
              <LatitudeDegrees>-49.228707365691661834716796875</LatitudeDegrees>
              <LongitudeDegrees>-73.00430939532816410064697265625</LongitudeDegrees>
            </Position>
            <AltitudeMeters>543.79998779296875</AltitudeMeters>
            <DistanceMeters>10038.415349971</DistanceMeters>
          </Trackpoint>
          <Trackpoint>
            <Time>2023-01-11T18:50:36.000Z</Time>
            <Position>
              <LatitudeDegrees>-49.22870711423456668853759765625</LatitudeDegrees>
              <LongitudeDegrees>-73.00430939532816410064697265625</LongitudeDegrees>
            </Position>
            <AltitudeMeters>543.79998779296875</AltitudeMeters>
            <DistanceMeters>10038.510376685</DistanceMeters>
          </Trackpoint>
          <Trackpoint>
            <Time>2023-01-11T18:50:42.000Z</Time>
            <Position>
              <LatitudeDegrees>-49.228736869990825653076171875</LatitudeDegrees>
              <LongitudeDegrees>-73.00435566343367099761962890625</LongitudeDegrees>
            </Position>
            <AltitudeMeters>543.5999755859375</AltitudeMeters>
            <DistanceMeters>10043.23120592</DistanceMeters>
          </Trackpoint>
          <Trackpoint>
            <Time>2023-01-11T18:50:51.000Z</Time>
            <Position>
              <LatitudeDegrees>-49.22873645089566707611083984375</LatitudeDegrees>
              <LongitudeDegrees>-73.00435918383300304412841796875</LongitudeDegrees>
            </Position>
            <AltitudeMeters>543.79998779296875</AltitudeMeters>
            <DistanceMeters>10043.463972882</DistanceMeters>
          </Trackpoint>
          <Trackpoint>
            <Time>2023-01-11T18:51:16.000Z</Time>
            <Position>
              <LatitudeDegrees>-49.22873108647763729095458984375</LatitudeDegrees>
              <LongitudeDegrees>-73.00434258766472339630126953125</LongitudeDegrees>
            </Position>
            <AltitudeMeters>543.79998779296875</AltitudeMeters>
            <DistanceMeters>10044.807853565</DistanceMeters>
          </Trackpoint>
          <Trackpoint>
            <Time>2023-01-11T18:51:38.000Z</Time>
            <Position>
              <LatitudeDegrees>-49.22876511700451374053955078125</LatitudeDegrees>
              <LongitudeDegrees>-73.00437259487807750701904296875</LongitudeDegrees>
            </Position>
            <AltitudeMeters>543</AltitudeMeters>
            <DistanceMeters>10049.179082426</DistanceMeters>
          </Trackpoint>
          <Trackpoint>
            <Time>2023-01-11T18:51:45.000Z</Time>
            <Position>
              <LatitudeDegrees>-49.22876981087028980255126953125</LatitudeDegrees>
              <LongitudeDegrees>-73.004378713667392730712890625</LongitudeDegrees>
            </Position>
            <AltitudeMeters>543.5999755859375</AltitudeMeters>
            <DistanceMeters>10049.864329808</DistanceMeters>
          </Trackpoint>
          <Trackpoint>
            <Time>2023-01-11T18:51:48.000Z</Time>
            <Position>
              <LatitudeDegrees>-49.2287698946893215179443359375</LatitudeDegrees>
              <LongitudeDegrees>-73.0043792165815830230712890625</LongitudeDegrees>
            </Position>
            <AltitudeMeters>543.79998779296875</AltitudeMeters>
            <DistanceMeters>10049.864329808</DistanceMeters>
          </Trackpoint>
          <Trackpoint>
            <Time>2023-01-11T18:51:50.000Z</Time>
            <Position>
              <LatitudeDegrees>-49.2287698946893215179443359375</LatitudeDegrees>
              <LongitudeDegrees>-73.00437997095286846160888671875</LongitudeDegrees>
            </Position>
            <AltitudeMeters>543.79998779296875</AltitudeMeters>
            <DistanceMeters>10049.864329808</DistanceMeters>
          </Trackpoint>
          <Trackpoint>
            <Time>2023-01-11T18:51:58.000Z</Time>
            <Position>
              <LatitudeDegrees>-49.2287675477564334869384765625</LatitudeDegrees>
              <LongitudeDegrees>-73.0043822340667247772216796875</LongitudeDegrees>
            </Position>
            <AltitudeMeters>543.5999755859375</AltitudeMeters>
            <DistanceMeters>10050.179497765</DistanceMeters>
          </Trackpoint>
          <Trackpoint>
            <Time>2023-01-11T18:52:01.000Z</Time>
            <Position>
              <LatitudeDegrees>-49.2287601716816425323486328125</LatitudeDegrees>
              <LongitudeDegrees>-73.00438181497156620025634765625</LongitudeDegrees>
            </Position>
            <AltitudeMeters>543.5999755859375</AltitudeMeters>
            <DistanceMeters>10050.996948471</DistanceMeters>
          </Trackpoint>
          <Trackpoint>
            <Time>2023-01-11T18:52:07.000Z</Time>
            <Position>
              <LatitudeDegrees>-49.2287420667707920074462890625</LatitudeDegrees>
              <LongitudeDegrees>-73.00438215024769306182861328125</LongitudeDegrees>
            </Position>
            <AltitudeMeters>543.5999755859375</AltitudeMeters>
            <DistanceMeters>10053.010528448</DistanceMeters>
          </Trackpoint>
          <Trackpoint>
            <Time>2023-01-11T18:52:29.000Z</Time>
            <Position>
              <LatitudeDegrees>-49.22876880504190921783447265625</LatitudeDegrees>
              <LongitudeDegrees>-73.00434828735888004302978515625</LongitudeDegrees>
            </Position>
            <AltitudeMeters>543.5999755859375</AltitudeMeters>
            <DistanceMeters>10056.87287052</DistanceMeters>
          </Trackpoint>
          <Trackpoint>
            <Time>2023-01-11T18:52:31.000Z</Time>
            <Position>
              <LatitudeDegrees>-49.2287973873317241668701171875</LatitudeDegrees>
              <LongitudeDegrees>-73.004323057830333709716796875</LongitudeDegrees>
            </Position>
            <AltitudeMeters>543.5999755859375</AltitudeMeters>
            <DistanceMeters>10060.545871229</DistanceMeters>
          </Trackpoint>
          <Trackpoint>
            <Time>2023-01-11T18:52:32.000Z</Time>
            <Position>
              <LatitudeDegrees>-49.22881272621452808380126953125</LatitudeDegrees>
              <LongitudeDegrees>-73.004310987889766693115234375</LongitudeDegrees>
            </Position>
            <AltitudeMeters>543.5999755859375</AltitudeMeters>
            <DistanceMeters>10062.467667593</DistanceMeters>
          </Trackpoint>
          <Trackpoint>
            <Time>2023-01-11T18:52:39.000Z</Time>
            <Position>
              <LatitudeDegrees>-49.22884784638881683349609375</LatitudeDegrees>
              <LongitudeDegrees>-73.00420981831848621368408203125</LongitudeDegrees>
            </Position>
            <AltitudeMeters>543.5999755859375</AltitudeMeters>
            <DistanceMeters>10070.795391597</DistanceMeters>
          </Trackpoint>
          <Trackpoint>
            <Time>2023-01-11T18:52:40.000Z</Time>
            <Position>
              <LatitudeDegrees>-49.2288513667881488800048828125</LatitudeDegrees>
              <LongitudeDegrees>-73.004188947379589080810546875</LongitudeDegrees>
            </Position>
            <AltitudeMeters>543.5999755859375</AltitudeMeters>
            <DistanceMeters>10072.359728747</DistanceMeters>
          </Trackpoint>
          <Trackpoint>
            <Time>2023-01-11T18:52:42.000Z</Time>
            <Position>
              <LatitudeDegrees>-49.22884784638881683349609375</LatitudeDegrees>
              <LongitudeDegrees>-73.00414226017892360687255859375</LongitudeDegrees>
            </Position>
            <AltitudeMeters>543.5999755859375</AltitudeMeters>
            <DistanceMeters>10075.774085009</DistanceMeters>
          </Trackpoint>
          <Trackpoint>
            <Time>2023-01-11T18:52:50.000Z</Time>
            <Position>
              <LatitudeDegrees>-49.22890023328363895416259765625</LatitudeDegrees>
              <LongitudeDegrees>-73.00403413362801074981689453125</LongitudeDegrees>
            </Position>
            <AltitudeMeters>543.5999755859375</AltitudeMeters>
            <DistanceMeters>10085.559529844</DistanceMeters>
          </Trackpoint>
          <Trackpoint>
            <Time>2023-01-11T18:52:59.000Z</Time>
            <Position>
              <LatitudeDegrees>-49.2289013229310512542724609375</LatitudeDegrees>
              <LongitudeDegrees>-73.00393355078995227813720703125</LongitudeDegrees>
            </Position>
            <AltitudeMeters>543.5999755859375</AltitudeMeters>
            <DistanceMeters>10092.871031232</DistanceMeters>
          </Trackpoint>
          <Trackpoint>
            <Time>2023-01-11T18:53:03.000Z</Time>
            <Position>
              <LatitudeDegrees>-49.22892889939248561859130859375</LatitudeDegrees>
              <LongitudeDegrees>-73.00389759242534637451171875</LongitudeDegrees>
            </Position>
            <AltitudeMeters>543.5999755859375</AltitudeMeters>
            <DistanceMeters>10096.90267328</DistanceMeters>
          </Trackpoint>
          <Trackpoint>
            <Time>2023-01-11T18:53:04.000Z</Time>
            <Position>
              <LatitudeDegrees>-49.22893778420984745025634765625</LatitudeDegrees>
              <LongitudeDegrees>-73.003881163895130157470703125</LongitudeDegrees>
            </Position>
            <AltitudeMeters>543.5999755859375</AltitudeMeters>
            <DistanceMeters>10098.455422587</DistanceMeters>
          </Trackpoint>
          <Trackpoint>
            <Time>2023-01-11T18:53:09.000Z</Time>
            <Position>
              <LatitudeDegrees>-49.22898656688630580902099609375</LatitudeDegrees>
              <LongitudeDegrees>-73.00386800430715084075927734375</LongitudeDegrees>
            </Position>
            <AltitudeMeters>543.5999755859375</AltitudeMeters>
            <DistanceMeters>10103.968610168</DistanceMeters>
          </Trackpoint>
          <Trackpoint>
            <Time>2023-01-11T18:53:10.000Z</Time>
            <Position>
              <LatitudeDegrees>-49.2289945296943187713623046875</LatitudeDegrees>
              <LongitudeDegrees>-73.0038618855178356170654296875</LongitudeDegrees>
            </Position>
            <AltitudeMeters>543.5999755859375</AltitudeMeters>
            <DistanceMeters>10104.956156752</DistanceMeters>
          </Trackpoint>
          <Trackpoint>
            <Time>2023-01-11T18:53:18.000Z</Time>
            <Position>
              <LatitudeDegrees>-49.2290555499494075775146484375</LatitudeDegrees>
              <LongitudeDegrees>-73.00380237400531768798828125</LongitudeDegrees>
            </Position>
            <AltitudeMeters>543.5999755859375</AltitudeMeters>
            <DistanceMeters>10113.008234054</DistanceMeters>
          </Trackpoint>
          <Trackpoint>
            <Time>2023-01-11T18:53:26.000Z</Time>
            <Position>
              <LatitudeDegrees>-49.2290991358458995819091796875</LatitudeDegrees>
              <LongitudeDegrees>-73.00375635735690593719482421875</LongitudeDegrees>
            </Position>
            <AltitudeMeters>543.5999755859375</AltitudeMeters>
            <DistanceMeters>10118.901422834</DistanceMeters>
          </Trackpoint>
          <Trackpoint>
            <Time>2023-01-11T18:53:34.000Z</Time>
            <Position>
              <LatitudeDegrees>-49.22914163209497928619384765625</LatitudeDegrees>
              <LongitudeDegrees>-73.0036798305809497833251953125</LongitudeDegrees>
            </Position>
            <AltitudeMeters>543.5999755859375</AltitudeMeters>
            <DistanceMeters>10126.20303713</DistanceMeters>
          </Trackpoint>
          <Trackpoint>
            <Time>2023-01-11T18:53:39.000Z</Time>
            <Position>
              <LatitudeDegrees>-49.22914020717144012451171875</LatitudeDegrees>
              <LongitudeDegrees>-73.0036077462136745452880859375</LongitudeDegrees>
            </Position>
            <AltitudeMeters>543.5999755859375</AltitudeMeters>
            <DistanceMeters>10131.445894433</DistanceMeters>
          </Trackpoint>
          <Trackpoint>
            <Time>2023-01-11T18:53:41.000Z</Time>
            <Position>
              <LatitudeDegrees>-49.22913241200149059295654296875</LatitudeDegrees>
              <LongitudeDegrees>-73.0035836063325405120849609375</LongitudeDegrees>
            </Position>
            <AltitudeMeters>543.5999755859375</AltitudeMeters>
            <DistanceMeters>10133.402614242</DistanceMeters>
          </Trackpoint>
          <Trackpoint>
            <Time>2023-01-11T18:53:48.000Z</Time>
            <Position>
              <LatitudeDegrees>-49.229105673730373382568359375</LatitudeDegrees>
              <LongitudeDegrees>-73.0035292915999889373779296875</LongitudeDegrees>
            </Position>
            <AltitudeMeters>543.5999755859375</AltitudeMeters>
            <DistanceMeters>10138.347656912</DistanceMeters>
          </Trackpoint>
          <Trackpoint>
            <Time>2023-01-11T18:53:51.000Z</Time>
            <Position>
              <LatitudeDegrees>-49.22908027656376361846923828125</LatitudeDegrees>
              <LongitudeDegrees>-73.00349350087344646453857421875</LongitudeDegrees>
            </Position>
            <AltitudeMeters>543.5999755859375</AltitudeMeters>
            <DistanceMeters>10142.188899538</DistanceMeters>
          </Trackpoint>
          <Trackpoint>
            <Time>2023-01-11T18:53:53.000Z</Time>
            <Position>
              <LatitudeDegrees>-49.22906577587127685546875</LatitudeDegrees>
              <LongitudeDegrees>-73.00347380340099334716796875</LongitudeDegrees>
            </Position>
            <AltitudeMeters>547.20001220703125</AltitudeMeters>
            <DistanceMeters>10144.347491543</DistanceMeters>
          </Trackpoint>
          <Trackpoint>
            <Time>2023-01-11T18:53:56.000Z</Time>
            <Position>
              <LatitudeDegrees>-49.229058735072612762451171875</LatitudeDegrees>
              <LongitudeDegrees>-73.00343667156994342803955078125</LongitudeDegrees>
            </Position>
            <AltitudeMeters>547.20001220703125</AltitudeMeters>
            <DistanceMeters>10147.158419662</DistanceMeters>
          </Trackpoint>
          <Trackpoint>
            <Time>2023-01-11T18:53:58.000Z</Time>
            <Position>
              <LatitudeDegrees>-49.22905077226459980010986328125</LatitudeDegrees>
              <LongitudeDegrees>-73.003409095108509063720703125</LongitudeDegrees>
            </Position>
            <AltitudeMeters>547</AltitudeMeters>
            <DistanceMeters>10149.350222725</DistanceMeters>
          </Trackpoint>
          <Trackpoint>
            <Time>2023-01-11T18:54:04.000Z</Time>
            <Position>
              <LatitudeDegrees>-49.22906736843287944793701171875</LatitudeDegrees>
              <LongitudeDegrees>-73.00332686863839626312255859375</LongitudeDegrees>
            </Position>
            <AltitudeMeters>546.5999755859375</AltitudeMeters>
            <DistanceMeters>10155.60612804</DistanceMeters>
          </Trackpoint>
          <Trackpoint>
            <Time>2023-01-11T18:54:12.000Z</Time>
            <Position>
              <LatitudeDegrees>-49.22913140617311000823974609375</LatitudeDegrees>
              <LongitudeDegrees>-73.00322704017162322998046875</LongitudeDegrees>
            </Position>
            <AltitudeMeters>547</AltitudeMeters>
            <DistanceMeters>10165.777094353</DistanceMeters>
          </Trackpoint>
          <Trackpoint>
            <Time>2023-01-11T18:54:19.000Z</Time>
            <Position>
              <LatitudeDegrees>-49.22913693822920322418212890625</LatitudeDegrees>
              <LongitudeDegrees>-73.0031185783445835113525390625</LongitudeDegrees>
            </Position>
            <AltitudeMeters>547.20001220703125</AltitudeMeters>
            <DistanceMeters>10173.684322015</DistanceMeters>
          </Trackpoint>
          <Trackpoint>
            <Time>2023-01-11T18:54:26.000Z</Time>
            <Position>
              <LatitudeDegrees>-49.22916837036609649658203125</LatitudeDegrees>
              <LongitudeDegrees>-73.00300844013690948486328125</LongitudeDegrees>
            </Position>
            <AltitudeMeters>547.4000244140625</AltitudeMeters>
            <DistanceMeters>10182.420580145</DistanceMeters>
          </Trackpoint>
          <Trackpoint>
            <Time>2023-01-11T18:54:35.000Z</Time>
            <Position>
              <LatitudeDegrees>-49.22916795127093791961669921875</LatitudeDegrees>
              <LongitudeDegrees>-73.0028617568314075469970703125</LongitudeDegrees>
            </Position>
            <AltitudeMeters>546.5999755859375</AltitudeMeters>
            <DistanceMeters>10193.082221776</DistanceMeters>
          </Trackpoint>
          <Trackpoint>
            <Time>2023-01-11T18:54:36.000Z</Time>
            <Position>
              <LatitudeDegrees>-49.22915856353938579559326171875</LatitudeDegrees>
              <LongitudeDegrees>-73.00284792669117450714111328125</LongitudeDegrees>
            </Position>
            <AltitudeMeters>546.4000244140625</AltitudeMeters>
            <DistanceMeters>10194.529625567</DistanceMeters>
          </Trackpoint>
          <Trackpoint>
            <Time>2023-01-11T18:54:40.000Z</Time>
            <Position>
              <LatitudeDegrees>-49.229186140000820159912109375</LatitudeDegrees>
              <LongitudeDegrees>-73.00279109738767147064208984375</LongitudeDegrees>
            </Position>
            <AltitudeMeters>546</AltitudeMeters>
            <DistanceMeters>10199.675126916</DistanceMeters>
          </Trackpoint>
          <Trackpoint>
            <Time>2023-01-11T18:54:43.000Z</Time>
            <Position>
              <LatitudeDegrees>-49.22918907366693019866943359375</LatitudeDegrees>
              <LongitudeDegrees>-73.00273024477064609527587890625</LongitudeDegrees>
            </Position>
            <AltitudeMeters>545.79998779296875</AltitudeMeters>
            <DistanceMeters>10204.109933169</DistanceMeters>
          </Trackpoint>
          <Trackpoint>
            <Time>2023-01-11T18:54:48.000Z</Time>
            <Position>
              <LatitudeDegrees>-49.22918580472469329833984375</LatitudeDegrees>
              <LongitudeDegrees>-73.002668134868144989013671875</LongitudeDegrees>
            </Position>
            <AltitudeMeters>545.79998779296875</AltitudeMeters>
            <DistanceMeters>10208.639429132</DistanceMeters>
          </Trackpoint>
          <Trackpoint>
            <Time>2023-01-11T18:54:51.000Z</Time>
            <Position>
              <LatitudeDegrees>-49.22917918302118778228759765625</LatitudeDegrees>
              <LongitudeDegrees>-73.0026163347065448760986328125</LongitudeDegrees>
            </Position>
            <AltitudeMeters>545.79998779296875</AltitudeMeters>
            <DistanceMeters>10212.475967233</DistanceMeters>
          </Trackpoint>
          <Trackpoint>
            <Time>2023-01-11T18:54:58.000Z</Time>
            <Position>
              <LatitudeDegrees>-49.2291725613176822662353515625</LatitudeDegrees>
              <LongitudeDegrees>-73.00250510685145854949951171875</LongitudeDegrees>
            </Position>
            <AltitudeMeters>544.5999755859375</AltitudeMeters>
            <DistanceMeters>10220.593940988</DistanceMeters>
          </Trackpoint>
          <Trackpoint>
            <Time>2023-01-11T18:55:02.000Z</Time>
            <Position>
              <LatitudeDegrees>-49.2291524447500705718994140625</LatitudeDegrees>
              <LongitudeDegrees>-73.0024537257850170135498046875</LongitudeDegrees>
            </Position>
            <AltitudeMeters>544</AltitudeMeters>
            <DistanceMeters>10224.948612105</DistanceMeters>
          </Trackpoint>
          <Trackpoint>
            <Time>2023-01-11T18:55:06.000Z</Time>
            <Position>
              <LatitudeDegrees>-49.229154624044895172119140625</LatitudeDegrees>
              <LongitudeDegrees>-73.00237200222909450531005859375</LongitudeDegrees>
            </Position>
            <AltitudeMeters>543.5999755859375</AltitudeMeters>
            <DistanceMeters>10230.89367049</DistanceMeters>
          </Trackpoint>
          <Trackpoint>
            <Time>2023-01-11T18:55:07.000Z</Time>
            <Position>
              <LatitudeDegrees>-49.22915537841618061065673828125</LatitudeDegrees>
              <LongitudeDegrees>-73.00235171802341938018798828125</LongitudeDegrees>
            </Position>
            <AltitudeMeters>543.5999755859375</AltitudeMeters>
            <DistanceMeters>10232.368881805</DistanceMeters>
          </Trackpoint>
          <Trackpoint>
            <Time>2023-01-11T18:55:08.000Z</Time>
            <Position>
              <LatitudeDegrees>-49.22915889881551265716552734375</LatitudeDegrees>
              <LongitudeDegrees>-73.00233009271323680877685546875</LongitudeDegrees>
            </Position>
            <AltitudeMeters>543.4000244140625</AltitudeMeters>
            <DistanceMeters>10233.989916118</DistanceMeters>
          </Trackpoint>
          <Trackpoint>
            <Time>2023-01-11T18:55:11.000Z</Time>
            <Position>
              <LatitudeDegrees>-49.22916023992002010345458984375</LatitudeDegrees>
              <LongitudeDegrees>-73.00228181295096874237060546875</LongitudeDegrees>
            </Position>
            <AltitudeMeters>543.4000244140625</AltitudeMeters>
            <DistanceMeters>10237.502050002</DistanceMeters>
          </Trackpoint>
          <Trackpoint>
            <Time>2023-01-11T18:55:18.000Z</Time>
            <Position>
              <LatitudeDegrees>-49.22920516692101955413818359375</LatitudeDegrees>
              <LongitudeDegrees>-73.00219665281474590301513671875</LongitudeDegrees>
            </Position>
            <AltitudeMeters>543</AltitudeMeters>
            <DistanceMeters>10245.45936714</DistanceMeters>
          </Trackpoint>
          <Trackpoint>
            <Time>2023-01-11T18:55:23.000Z</Time>
            <Position>
              <LatitudeDegrees>-49.2292436398565769195556640625</LatitudeDegrees>
              <LongitudeDegrees>-73.002120293676853179931640625</LongitudeDegrees>
            </Position>
            <AltitudeMeters>542.79998779296875</AltitudeMeters>
            <DistanceMeters>10252.468835446</DistanceMeters>
          </Trackpoint>
          <Trackpoint>
            <Time>2023-01-11T18:55:25.000Z</Time>
            <Position>
              <LatitudeDegrees>-49.2292691208422183990478515625</LatitudeDegrees>
              <LongitudeDegrees>-73.00207679159939289093017578125</LongitudeDegrees>
            </Position>
            <AltitudeMeters>542.79998779296875</AltitudeMeters>
            <DistanceMeters>10256.715370817</DistanceMeters>
          </Trackpoint>
          <Trackpoint>
            <Time>2023-01-11T18:55:34.000Z</Time>
            <Position>
              <LatitudeDegrees>-49.2293589748442173004150390625</LatitudeDegrees>
              <LongitudeDegrees>-73.00194988958537578582763671875</LongitudeDegrees>
            </Position>
            <AltitudeMeters>542.5999755859375</AltitudeMeters>
            <DistanceMeters>10270.320462031</DistanceMeters>
          </Trackpoint>
          <Trackpoint>
            <Time>2023-01-11T18:55:39.000Z</Time>
            <Position>
              <LatitudeDegrees>-49.229401051998138427734375</LatitudeDegrees>
              <LongitudeDegrees>-73.00190999172627925872802734375</LongitudeDegrees>
            </Position>
            <AltitudeMeters>542.5999755859375</AltitudeMeters>
            <DistanceMeters>10275.828733707</DistanceMeters>
          </Trackpoint>
          <Trackpoint>
            <Time>2023-01-11T18:55:40.000Z</Time>
            <Position>
              <LatitudeDegrees>-49.22940633259713649749755859375</LatitudeDegrees>
              <LongitudeDegrees>-73.00189624540507793426513671875</LongitudeDegrees>
            </Position>
            <AltitudeMeters>542.4000244140625</AltitudeMeters>
            <DistanceMeters>10276.984783582</DistanceMeters>
          </Trackpoint>
          <Trackpoint>
            <Time>2023-01-11T18:55:42.000Z</Time>
            <Position>
              <LatitudeDegrees>-49.22943298704922199249267578125</LatitudeDegrees>
              <LongitudeDegrees>-73.0018850974738597869873046875</LongitudeDegrees>
            </Position>
            <AltitudeMeters>542</AltitudeMeters>
            <DistanceMeters>10280.061067072</DistanceMeters>
          </Trackpoint>
          <Trackpoint>
            <Time>2023-01-11T18:55:49.000Z</Time>
            <Position>
              <LatitudeDegrees>-49.22945025376975536346435546875</LatitudeDegrees>
              <LongitudeDegrees>-73.0018039606511592864990234375</LongitudeDegrees>
            </Position>
            <AltitudeMeters>541.4000244140625</AltitudeMeters>
            <DistanceMeters>10286.263334855</DistanceMeters>
          </Trackpoint>
          <Trackpoint>
            <Time>2023-01-11T18:55:50.000Z</Time>
            <Position>
              <LatitudeDegrees>-49.22944472171366214752197265625</LatitudeDegrees>
              <LongitudeDegrees>-73.00179230980575084686279296875</LongitudeDegrees>
            </Position>
            <AltitudeMeters>541.4000244140625</AltitudeMeters>
            <DistanceMeters>10287.308628713</DistanceMeters>
          </Trackpoint>
          <Trackpoint>
            <Time>2023-01-11T18:55:58.000Z</Time>
            <Position>
              <LatitudeDegrees>-49.22941739670932292938232421875</LatitudeDegrees>
              <LongitudeDegrees>-73.0016668327152729034423828125</LongitudeDegrees>
            </Position>
            <AltitudeMeters>540.79998779296875</AltitudeMeters>
            <DistanceMeters>10296.922308155</DistanceMeters>
          </Trackpoint>
          <Trackpoint>
            <Time>2023-01-11T18:55:59.000Z</Time>
            <Position>
              <LatitudeDegrees>-49.22941111028194427490234375</LatitudeDegrees>
              <LongitudeDegrees>-73.001654930412769317626953125</LongitudeDegrees>
            </Position>
            <AltitudeMeters>540.4000244140625</AltitudeMeters>
            <DistanceMeters>10298.030500555</DistanceMeters>
          </Trackpoint>
          <Trackpoint>
            <Time>2023-01-11T18:56:04.000Z</Time>
            <Position>
              <LatitudeDegrees>-49.22937632538378238677978515625</LatitudeDegrees>
              <LongitudeDegrees>-73.00158393569290637969970703125</LongitudeDegrees>
            </Position>
            <AltitudeMeters>540.4000244140625</AltitudeMeters>
            <DistanceMeters>10304.481827731</DistanceMeters>
          </Trackpoint>
          <Trackpoint>
            <Time>2023-01-11T18:56:05.000Z</Time>
            <Position>
              <LatitudeDegrees>-49.22937221825122833251953125</LatitudeDegrees>
              <LongitudeDegrees>-73.00157655961811542510986328125</LongitudeDegrees>
            </Position>
            <AltitudeMeters>540</AltitudeMeters>
            <DistanceMeters>10305.186564706</DistanceMeters>
          </Trackpoint>
          <Trackpoint>
            <Time>2023-01-11T18:56:13.000Z</Time>
            <Position>
              <LatitudeDegrees>-49.229351095855236053466796875</LatitudeDegrees>
              <LongitudeDegrees>-73.0014435388147830963134765625</LongitudeDegrees>
            </Position>
            <AltitudeMeters>539.5999755859375</AltitudeMeters>
            <DistanceMeters>10315.136274655</DistanceMeters>
          </Trackpoint>
          <Trackpoint>
            <Time>2023-01-11T18:56:15.000Z</Time>
            <Position>
              <LatitudeDegrees>-49.2293378524482250213623046875</LatitudeDegrees>
              <LongitudeDegrees>-73.0014039762318134307861328125</LongitudeDegrees>
            </Position>
            <AltitudeMeters>539.4000244140625</AltitudeMeters>
            <DistanceMeters>10318.367182943</DistanceMeters>
          </Trackpoint>
          <Trackpoint>
            <Time>2023-01-11T18:56:20.000Z</Time>
            <Position>
              <LatitudeDegrees>-49.22931589186191558837890625</LatitudeDegrees>
              <LongitudeDegrees>-73.00131336785852909088134765625</LongitudeDegrees>
            </Position>
            <AltitudeMeters>539.20001220703125</AltitudeMeters>
            <DistanceMeters>10325.391450712</DistanceMeters>
          </Trackpoint>
          <Trackpoint>
            <Time>2023-01-11T18:56:28.000Z</Time>
            <Position>
              <LatitudeDegrees>-49.2292838729918003082275390625</LatitudeDegrees>
              <LongitudeDegrees>-73.0011867173016071319580078125</LongitudeDegrees>
            </Position>
            <AltitudeMeters>538.4000244140625</AltitudeMeters>
            <DistanceMeters>10335.26234352</DistanceMeters>
          </Trackpoint>
          <Trackpoint>
            <Time>2023-01-11T18:56:31.000Z</Time>
            <Position>
              <LatitudeDegrees>-49.22926249913871288299560546875</LatitudeDegrees>
              <LongitudeDegrees>-73.00113349221646785736083984375</LongitudeDegrees>
            </Position>
            <AltitudeMeters>538.4000244140625</AltitudeMeters>
            <DistanceMeters>10339.803785428</DistanceMeters>
          </Trackpoint>
          <Trackpoint>
            <Time>2023-01-11T18:56:36.000Z</Time>
            <Position>
              <LatitudeDegrees>-49.22925462014973163604736328125</LatitudeDegrees>
              <LongitudeDegrees>-73.001023940742015838623046875</LongitudeDegrees>
            </Position>
            <AltitudeMeters>538.5999755859375</AltitudeMeters>
            <DistanceMeters>10347.814261269</DistanceMeters>
          </Trackpoint>
          <Trackpoint>
            <Time>2023-01-11T18:56:39.000Z</Time>
            <Position>
              <LatitudeDegrees>-49.22925746999680995941162109375</LatitudeDegrees>
              <LongitudeDegrees>-73.00097574479877948760986328125</LongitudeDegrees>
            </Position>
            <AltitudeMeters>538.5999755859375</AltitudeMeters>
            <DistanceMeters>10351.330249701</DistanceMeters>
          </Trackpoint>
          <Trackpoint>
            <Time>2023-01-11T18:56:46.000Z</Time>
            <Position>
              <LatitudeDegrees>-49.2292667739093303680419921875</LatitudeDegrees>
              <LongitudeDegrees>-73.00081414170563220977783203125</LongitudeDegrees>
            </Position>
            <AltitudeMeters>537.79998779296875</AltitudeMeters>
            <DistanceMeters>10363.121606154</DistanceMeters>
          </Trackpoint>
          <Trackpoint>
            <Time>2023-01-11T18:56:51.000Z</Time>
            <Position>
              <LatitudeDegrees>-49.22931647859513759613037109375</LatitudeDegrees>
              <LongitudeDegrees>-73.0007240362465381622314453125</LongitudeDegrees>
            </Position>
            <AltitudeMeters>538.20001220703125</AltitudeMeters>
            <DistanceMeters>10371.694574845</DistanceMeters>
          </Trackpoint>
          <Trackpoint>
            <Time>2023-01-11T18:56:53.000Z</Time>
            <Position>
              <LatitudeDegrees>-49.22933089546859264373779296875</LatitudeDegrees>
              <LongitudeDegrees>-73.00071246922016143798828125</LongitudeDegrees>
            </Position>
            <AltitudeMeters>538.20001220703125</AltitudeMeters>
            <DistanceMeters>10373.507569006</DistanceMeters>
          </Trackpoint>
          <Trackpoint>
            <Time>2023-01-11T18:56:55.000Z</Time>
            <Position>
              <LatitudeDegrees>-49.22934128902852535247802734375</LatitudeDegrees>
              <LongitudeDegrees>-73.0006916821002960205078125</LongitudeDegrees>
            </Position>
            <AltitudeMeters>538.20001220703125</AltitudeMeters>
            <DistanceMeters>10375.410477478</DistanceMeters>
          </Trackpoint>
          <Trackpoint>
            <Time>2023-01-11T18:57:00.000Z</Time>
            <Position>
              <LatitudeDegrees>-49.2293063364923000335693359375</LatitudeDegrees>
              <LongitudeDegrees>-73.00064298324286937713623046875</LongitudeDegrees>
            </Position>
            <AltitudeMeters>537.4000244140625</AltitudeMeters>
            <DistanceMeters>10380.669671727</DistanceMeters>
          </Trackpoint>
          <Trackpoint>
            <Time>2023-01-11T18:57:01.000Z</Time>
            <Position>
              <LatitudeDegrees>-49.22930289991199970245361328125</LatitudeDegrees>
              <LongitudeDegrees>-73.0006335116922855377197265625</LongitudeDegrees>
            </Position>
            <AltitudeMeters>537</AltitudeMeters>
            <DistanceMeters>10381.453282088</DistanceMeters>
          </Trackpoint>
          <Trackpoint>
            <Time>2023-01-11T18:57:04.000Z</Time>
            <Position>
              <LatitudeDegrees>-49.229288399219512939453125</LatitudeDegrees>
              <LongitudeDegrees>-73.000584058463573455810546875</LongitudeDegrees>
            </Position>
            <AltitudeMeters>536.79998779296875</AltitudeMeters>
            <DistanceMeters>10385.393168052</DistanceMeters>
          </Trackpoint>
          <Trackpoint>
            <Time>2023-01-11T18:57:07.000Z</Time>
            <Position>
              <LatitudeDegrees>-49.2292697913944721221923828125</LatitudeDegrees>
              <LongitudeDegrees>-73.00056369043886661529541015625</LongitudeDegrees>
            </Position>
            <AltitudeMeters>536.79998779296875</AltitudeMeters>
            <DistanceMeters>10387.939458469</DistanceMeters>
          </Trackpoint>
          <Trackpoint>
            <Time>2023-01-11T18:57:15.000Z</Time>
            <Position>
              <LatitudeDegrees>-49.22921002842485904693603515625</LatitudeDegrees>
              <LongitudeDegrees>-73.00042815506458282470703125</LongitudeDegrees>
            </Position>
            <AltitudeMeters>536</AltitudeMeters>
            <DistanceMeters>10399.826157174</DistanceMeters>
          </Trackpoint>
          <Trackpoint>
            <Time>2023-01-11T18:57:16.000Z</Time>
            <Position>
              <LatitudeDegrees>-49.22920315526425838470458984375</LatitudeDegrees>
              <LongitudeDegrees>-73.00041248090565204620361328125</LongitudeDegrees>
            </Position>
            <AltitudeMeters>536</AltitudeMeters>
            <DistanceMeters>10401.196651939</DistanceMeters>
          </Trackpoint>
          <Trackpoint>
            <Time>2023-01-11T18:57:18.000Z</Time>
            <Position>
              <LatitudeDegrees>-49.22918957658112049102783203125</LatitudeDegrees>
              <LongitudeDegrees>-73.00039068795740604400634765625</LongitudeDegrees>
            </Position>
            <AltitudeMeters>536</AltitudeMeters>
            <DistanceMeters>10403.386394068</DistanceMeters>
          </Trackpoint>
          <Trackpoint>
            <Time>2023-01-11T18:57:23.000Z</Time>
            <Position>
              <LatitudeDegrees>-49.2291668616235256195068359375</LatitudeDegrees>
              <LongitudeDegrees>-73.000342659652233123779296875</LongitudeDegrees>
            </Position>
            <AltitudeMeters>535.5999755859375</AltitudeMeters>
            <DistanceMeters>10407.696251055</DistanceMeters>
          </Trackpoint>
          <Trackpoint>
            <Time>2023-01-11T18:57:24.000Z</Time>
            <Position>
              <LatitudeDegrees>-49.22915873117744922637939453125</LatitudeDegrees>
              <LongitudeDegrees>-73.000332601368427276611328125</LongitudeDegrees>
            </Position>
            <AltitudeMeters>535.4000244140625</AltitudeMeters>
            <DistanceMeters>10408.860085866</DistanceMeters>
          </Trackpoint>
          <Trackpoint>
            <Time>2023-01-11T18:57:30.000Z</Time>
            <Position>
              <LatitudeDegrees>-49.22914934344589710235595703125</LatitudeDegrees>
              <LongitudeDegrees>-73.00023763440549373626708984375</LongitudeDegrees>
            </Position>
            <AltitudeMeters>535</AltitudeMeters>
            <DistanceMeters>10415.841154736</DistanceMeters>
          </Trackpoint>
          <Trackpoint>
            <Time>2023-01-11T18:57:40.000Z</Time>
            <Position>
              <LatitudeDegrees>-49.229145906865596771240234375</LatitudeDegrees>
              <LongitudeDegrees>-73.0002714134752750396728515625</LongitudeDegrees>
            </Position>
            <AltitudeMeters>535.79998779296875</AltitudeMeters>
            <DistanceMeters>10418.326425805</DistanceMeters>
          </Trackpoint>
          <Trackpoint>
            <Time>2023-01-11T18:57:49.000Z</Time>
            <Position>
              <LatitudeDegrees>-49.229145906865596771240234375</LatitudeDegrees>
              <LongitudeDegrees>-73.0002714134752750396728515625</LongitudeDegrees>
            </Position>
            <AltitudeMeters>535.4000244140625</AltitudeMeters>
            <DistanceMeters>10418.421452519</DistanceMeters>
          </Trackpoint>
          <Trackpoint>
            <Time>2023-01-11T18:57:54.000Z</Time>
            <Position>
              <LatitudeDegrees>-49.22914498485624790191650390625</LatitudeDegrees>
              <LongitudeDegrees>-73.0002633668482303619384765625</LongitudeDegrees>
            </Position>
            <AltitudeMeters>535.20001220703125</AltitudeMeters>
            <DistanceMeters>10419.01489416</DistanceMeters>
          </Trackpoint>
          <Trackpoint>
            <Time>2023-01-11T18:57:56.000Z</Time>
            <Position>
              <LatitudeDegrees>-49.22914682887494564056396484375</LatitudeDegrees>
              <LongitudeDegrees>-73.000215925276279449462890625</LongitudeDegrees>
            </Position>
            <AltitudeMeters>535.4000244140625</AltitudeMeters>
            <DistanceMeters>10422.470000679</DistanceMeters>
          </Trackpoint>
          <Trackpoint>
            <Time>2023-01-11T18:57:57.000Z</Time>
            <Position>
              <LatitudeDegrees>-49.22915336675941944122314453125</LatitudeDegrees>
              <LongitudeDegrees>-73.00019170157611370086669921875</LongitudeDegrees>
            </Position>
            <AltitudeMeters>535.4000244140625</AltitudeMeters>
            <DistanceMeters>10424.377648657</DistanceMeters>
          </Trackpoint>
          <Trackpoint>
            <Time>2023-01-11T18:58:03.000Z</Time>
            <Position>
              <LatitudeDegrees>-49.22915764153003692626953125</LatitudeDegrees>
              <LongitudeDegrees>-73.0000739358365535736083984375</LongitudeDegrees>
            </Position>
            <AltitudeMeters>535.5999755859375</AltitudeMeters>
            <DistanceMeters>10432.950090672</DistanceMeters>
          </Trackpoint>
          <Trackpoint>
            <Time>2023-01-11T18:58:08.000Z</Time>
            <Position>
              <LatitudeDegrees>-49.229175746440887451171875</LatitudeDegrees>
              <LongitudeDegrees>-72.99999631941318511962890625</LongitudeDegrees>
            </Position>
            <AltitudeMeters>535.5999755859375</AltitudeMeters>
            <DistanceMeters>10438.940543392</DistanceMeters>
          </Trackpoint>
          <Trackpoint>
            <Time>2023-01-11T18:58:10.000Z</Time>
            <Position>
              <LatitudeDegrees>-49.2291886545717716217041015625</LatitudeDegrees>
              <LongitudeDegrees>-72.9999659769237041473388671875</LongitudeDegrees>
            </Position>
            <AltitudeMeters>535.4000244140625</AltitudeMeters>
            <DistanceMeters>10441.572285901</DistanceMeters>
          </Trackpoint>
          <Trackpoint>
            <Time>2023-01-11T18:58:16.000Z</Time>
            <Position>
              <LatitudeDegrees>-49.22923165373504161834716796875</LatitudeDegrees>
              <LongitudeDegrees>-72.99988500773906707763671875</LongitudeDegrees>
            </Position>
            <AltitudeMeters>535.4000244140625</AltitudeMeters>
            <DistanceMeters>10449.157775147</DistanceMeters>
          </Trackpoint>
          <Trackpoint>
            <Time>2023-01-11T18:58:18.000Z</Time>
            <Position>
              <LatitudeDegrees>-49.22924540005624294281005859375</LatitudeDegrees>
              <LongitudeDegrees>-72.999851144850254058837890625</LongitudeDegrees>
            </Position>
            <AltitudeMeters>535.4000244140625</AltitudeMeters>
            <DistanceMeters>10452.055700455</DistanceMeters>
          </Trackpoint>
          <Trackpoint>
            <Time>2023-01-11T18:58:27.000Z</Time>
            <Position>
              <LatitudeDegrees>-49.22929041087627410888671875</LatitudeDegrees>
              <LongitudeDegrees>-72.9997074790298938751220703125</LongitudeDegrees>
            </Position>
            <AltitudeMeters>535.79998779296875</AltitudeMeters>
            <DistanceMeters>10463.637270103</DistanceMeters>
          </Trackpoint>
          <Trackpoint>
            <Time>2023-01-11T18:58:28.000Z</Time>
            <Position>
              <LatitudeDegrees>-49.2292996309697628021240234375</LatitudeDegrees>
              <LongitudeDegrees>-72.99968250095844268798828125</LongitudeDegrees>
            </Position>
            <AltitudeMeters>535.79998779296875</AltitudeMeters>
            <DistanceMeters>10465.723533951</DistanceMeters>
          </Trackpoint>
          <Trackpoint>
            <Time>2023-01-11T18:58:37.000Z</Time>
            <Position>
              <LatitudeDegrees>-49.22937230207026004791259765625</LatitudeDegrees>
              <LongitudeDegrees>-72.99959407187998294830322265625</LongitudeDegrees>
            </Position>
            <AltitudeMeters>535.79998779296875</AltitudeMeters>
            <DistanceMeters>10476.054821556</DistanceMeters>
          </Trackpoint>
          <Trackpoint>
            <Time>2023-01-11T18:58:38.000Z</Time>
            <Position>
              <LatitudeDegrees>-49.22937800176441669464111328125</LatitudeDegrees>
              <LongitudeDegrees>-72.9995773918926715850830078125</LongitudeDegrees>
            </Position>
            <AltitudeMeters>535.79998779296875</AltitudeMeters>
            <DistanceMeters>10477.42531632</DistanceMeters>
          </Trackpoint>
          <Trackpoint>
            <Time>2023-01-11T18:58:40.000Z</Time>
            <Position>
              <LatitudeDegrees>-49.22939836978912353515625</LatitudeDegrees>
              <LongitudeDegrees>-72.9995535872876644134521484375</LongitudeDegrees>
            </Position>
            <AltitudeMeters>535.4000244140625</AltitudeMeters>
            <DistanceMeters>10480.276117752</DistanceMeters>
          </Trackpoint>
          <Trackpoint>
            <Time>2023-01-11T18:58:43.000Z</Time>
            <Position>
              <LatitudeDegrees>-49.2294136248528957366943359375</LatitudeDegrees>
              <LongitudeDegrees>-72.999522574245929718017578125</LongitudeDegrees>
            </Position>
            <AltitudeMeters>535</AltitudeMeters>
            <DistanceMeters>10483.098267185</DistanceMeters>
          </Trackpoint>
          <Trackpoint>
            <Time>2023-01-11T18:58:47.000Z</Time>
            <Position>
              <LatitudeDegrees>-49.22942795790731906890869140625</LatitudeDegrees>
              <LongitudeDegrees>-72.99947873689234256744384765625</LongitudeDegrees>
            </Position>
            <AltitudeMeters>535</AltitudeMeters>
            <DistanceMeters>10486.661452204</DistanceMeters>
          </Trackpoint>
          <Trackpoint>
            <Time>2023-01-11T18:58:48.000Z</Time>
            <Position>
              <LatitudeDegrees>-49.22943147830665111541748046875</LatitudeDegrees>
              <LongitudeDegrees>-72.9994610510766506195068359375</LongitudeDegrees>
            </Position>
            <AltitudeMeters>534.79998779296875</AltitudeMeters>
            <DistanceMeters>10488.005332886</DistanceMeters>
          </Trackpoint>
          <Trackpoint>
            <Time>2023-01-11T18:58:50.000Z</Time>
            <Position>
              <LatitudeDegrees>-49.22943516634404659271240234375</LatitudeDegrees>
              <LongitudeDegrees>-72.99942140467464923858642578125</LongitudeDegrees>
            </Position>
            <AltitudeMeters>535</AltitudeMeters>
            <DistanceMeters>10490.9156957</DistanceMeters>
          </Trackpoint>
          <Trackpoint>
            <Time>2023-01-11T18:58:51.000Z</Time>
            <Position>
              <LatitudeDegrees>-49.22943449579179286956787109375</LatitudeDegrees>
              <LongitudeDegrees>-72.99939676187932491302490234375</LongitudeDegrees>
            </Position>
            <AltitudeMeters>535</AltitudeMeters>
            <DistanceMeters>10492.70865616</DistanceMeters>
          </Trackpoint>
          <Trackpoint>
            <Time>2023-01-11T18:58:56.000Z</Time>
            <Position>
              <LatitudeDegrees>-49.22946265898644924163818359375</LatitudeDegrees>
              <LongitudeDegrees>-72.99931914545595645904541015625</LongitudeDegrees>
            </Position>
            <AltitudeMeters>535.5999755859375</AltitudeMeters>
            <DistanceMeters>10499.162782177</DistanceMeters>
          </Trackpoint>
          <Trackpoint>
            <Time>2023-01-11T18:58:58.000Z</Time>
            <Position>
              <LatitudeDegrees>-49.2294749803841114044189453125</LatitudeDegrees>
              <LongitudeDegrees>-72.99929760396480560302734375</LongitudeDegrees>
            </Position>
            <AltitudeMeters>534.79998779296875</AltitudeMeters>
            <DistanceMeters>10501.244713178</DistanceMeters>
          </Trackpoint>
          <Trackpoint>
            <Time>2023-01-11T18:59:04.000Z</Time>
            <Position>
              <LatitudeDegrees>-49.2294608987867832183837890625</LatitudeDegrees>
              <LongitudeDegrees>-72.99921051599085330963134765625</LongitudeDegrees>
            </Position>
            <AltitudeMeters>534.20001220703125</AltitudeMeters>
            <DistanceMeters>10507.764958564</DistanceMeters>
          </Trackpoint>
          <Trackpoint>
            <Time>2023-01-11T18:59:05.000Z</Time>
            <Position>
              <LatitudeDegrees>-49.229464419186115264892578125</LatitudeDegrees>
              <LongitudeDegrees>-72.999185957014560699462890625</LongitudeDegrees>
            </Position>
            <AltitudeMeters>534.20001220703125</AltitudeMeters>
            <DistanceMeters>10509.592833911</DistanceMeters>
          </Trackpoint>
          <Trackpoint>
            <Time>2023-01-11T18:59:10.000Z</Time>
            <Position>
              <LatitudeDegrees>-49.22946047969162464141845703125</LatitudeDegrees>
              <LongitudeDegrees>-72.999084033071994781494140625</LongitudeDegrees>
            </Position>
            <AltitudeMeters>533.4000244140625</AltitudeMeters>
            <DistanceMeters>10517.014657562</DistanceMeters>
          </Trackpoint>
          <Trackpoint>
            <Time>2023-01-11T18:59:11.000Z</Time>
            <Position>
              <LatitudeDegrees>-49.22946073114871978759765625</LatitudeDegrees>
              <LongitudeDegrees>-72.99907305277884006500244140625</LongitudeDegrees>
            </Position>
            <AltitudeMeters>533.4000244140625</AltitudeMeters>
            <DistanceMeters>10517.809708096</DistanceMeters>
          </Trackpoint>
          <Trackpoint>
            <Time>2023-01-11T18:59:13.000Z</Time>
            <Position>
              <LatitudeDegrees>-49.2294721305370330810546875</LatitudeDegrees>
              <LongitudeDegrees>-72.99906383268535137176513671875</LongitudeDegrees>
            </Position>
            <AltitudeMeters>533.20001220703125</AltitudeMeters>
            <DistanceMeters>10519.244580017</DistanceMeters>
          </Trackpoint>
          <Trackpoint>
            <Time>2023-01-11T18:59:15.000Z</Time>
            <Position>
              <LatitudeDegrees>-49.2294773273169994354248046875</LatitudeDegrees>
              <LongitudeDegrees>-72.99905511550605297088623046875</LongitudeDegrees>
            </Position>
            <AltitudeMeters>533.20001220703125</AltitudeMeters>
            <DistanceMeters>10520.105083514</DistanceMeters>
          </Trackpoint>
          <Trackpoint>
            <Time>2023-01-11T18:59:17.000Z</Time>
            <Position>
              <LatitudeDegrees>-49.2294635809957981109619140625</LatitudeDegrees>
              <LongitudeDegrees>-72.9990340769290924072265625</LongitudeDegrees>
            </Position>
            <AltitudeMeters>533</AltitudeMeters>
            <DistanceMeters>10522.267854791</DistanceMeters>
          </Trackpoint>
          <Trackpoint>
            <Time>2023-01-11T18:59:21.000Z</Time>
            <Position>
              <LatitudeDegrees>-49.229467771947383880615234375</LatitudeDegrees>
              <LongitudeDegrees>-72.99900767393410205841064453125</LongitudeDegrees>
            </Position>
            <AltitudeMeters>532.5999755859375</AltitudeMeters>
            <DistanceMeters>10524.238370681</DistanceMeters>
          </Trackpoint>
          <Trackpoint>
            <Time>2023-01-11T18:59:24.000Z</Time>
            <Position>
              <LatitudeDegrees>-49.229457378387451171875</LatitudeDegrees>
              <LongitudeDegrees>-72.99897699616849422454833984375</LongitudeDegrees>
            </Position>
            <AltitudeMeters>532.5999755859375</AltitudeMeters>
            <DistanceMeters>10526.750744744</DistanceMeters>
          </Trackpoint>
          <Trackpoint>
            <Time>2023-01-11T18:59:26.000Z</Time>
            <Position>
              <LatitudeDegrees>-49.2294560372829437255859375</LatitudeDegrees>
              <LongitudeDegrees>-72.99895562231540679931640625</LongitudeDegrees>
            </Position>
            <AltitudeMeters>532.4000244140625</AltitudeMeters>
            <DistanceMeters>10528.312192995</DistanceMeters>
          </Trackpoint>
          <Trackpoint>
            <Time>2023-01-11T18:59:29.000Z</Time>
            <Position>
              <LatitudeDegrees>-49.22943818382918834686279296875</LatitudeDegrees>
              <LongitudeDegrees>-72.99890960566699504852294921875</LongitudeDegrees>
            </Position>
            <AltitudeMeters>532.4000244140625</AltitudeMeters>
            <DistanceMeters>10532.201328894</DistanceMeters>
          </Trackpoint>
          <Trackpoint>
            <Time>2023-01-11T18:59:33.000Z</Time>
            <Position>
              <LatitudeDegrees>-49.22943835146725177764892578125</LatitudeDegrees>
              <LongitudeDegrees>-72.99881673417985439300537109375</LongitudeDegrees>
            </Position>
            <AltitudeMeters>532.4000244140625</AltitudeMeters>
            <DistanceMeters>10538.951570796</DistanceMeters>
          </Trackpoint>
          <Trackpoint>
            <Time>2023-01-11T18:59:41.000Z</Time>
            <Position>
              <LatitudeDegrees>-49.22944237478077411651611328125</LatitudeDegrees>
              <LongitudeDegrees>-72.9986754991114139556884765625</LongitudeDegrees>
            </Position>
            <AltitudeMeters>532.5999755859375</AltitudeMeters>
            <DistanceMeters>10549.226766842</DistanceMeters>
          </Trackpoint>
          <Trackpoint>
            <Time>2023-01-11T18:59:44.000Z</Time>
            <Position>
              <LatitudeDegrees>-49.229448996484279632568359375</LatitudeDegrees>
              <LongitudeDegrees>-72.99861632287502288818359375</LongitudeDegrees>
            </Position>
            <AltitudeMeters>532.5999755859375</AltitudeMeters>
            <DistanceMeters>10553.589724686</DistanceMeters>
          </Trackpoint>
          <Trackpoint>
            <Time>2023-01-11T18:59:49.000Z</Time>
            <Position>
              <LatitudeDegrees>-49.22945695929229259490966796875</LatitudeDegrees>
              <LongitudeDegrees>-72.99852923490107059478759765625</LongitudeDegrees>
            </Position>
            <AltitudeMeters>532.20001220703125</AltitudeMeters>
            <DistanceMeters>10559.981286766</DistanceMeters>
          </Trackpoint>
          <Trackpoint>
            <Time>2023-01-11T18:59:57.000Z</Time>
            <Position>
              <LatitudeDegrees>-49.229485206305980682373046875</LatitudeDegrees>
              <LongitudeDegrees>-72.9983791150152683258056640625</LongitudeDegrees>
            </Position>
            <AltitudeMeters>531.79998779296875</AltitudeMeters>
            <DistanceMeters>10571.336084495</DistanceMeters>
          </Trackpoint>
          <Trackpoint>
            <Time>2023-01-11T19:00:01.000Z</Time>
            <Position>
              <LatitudeDegrees>-49.2294788360595703125</LatitudeDegrees>
              <LongitudeDegrees>-72.99830853939056396484375</LongitudeDegrees>
            </Position>
            <AltitudeMeters>531.4000244140625</AltitudeMeters>
            <DistanceMeters>10576.514822473</DistanceMeters>
          </Trackpoint>
          <Trackpoint>
            <Time>2023-01-11T19:00:04.000Z</Time>
            <Position>
              <LatitudeDegrees>-49.22948755323886871337890625</LatitudeDegrees>
              <LongitudeDegrees>-72.9982661269605159759521484375</LongitudeDegrees>
            </Position>
            <AltitudeMeters>531</AltitudeMeters>
            <DistanceMeters>10579.748524457</DistanceMeters>
          </Trackpoint>
          <Trackpoint>
            <Time>2023-01-11T19:00:05.000Z</Time>
            <Position>
              <LatitudeDegrees>-49.229486547410488128662109375</LatitudeDegrees>
              <LongitudeDegrees>-72.99824626184999942779541015625</LongitudeDegrees>
            </Position>
            <AltitudeMeters>530.79998779296875</AltitudeMeters>
            <DistanceMeters>10581.195928248</DistanceMeters>
          </Trackpoint>
          <Trackpoint>
            <Time>2023-01-11T19:00:06.000Z</Time>
            <Position>
              <LatitudeDegrees>-49.22948277555406093597412109375</LatitudeDegrees>
              <LongitudeDegrees>-72.998219691216945648193359375</LongitudeDegrees>
            </Position>
            <AltitudeMeters>530.79998779296875</AltitudeMeters>
            <DistanceMeters>10583.171021417</DistanceMeters>
          </Trackpoint>
          <Trackpoint>
            <Time>2023-01-11T19:00:15.000Z</Time>
            <Position>
              <LatitudeDegrees>-49.22945662401616573333740234375</LatitudeDegrees>
              <LongitudeDegrees>-72.9980792105197906494140625</LongitudeDegrees>
            </Position>
            <AltitudeMeters>531</AltitudeMeters>
            <DistanceMeters>10593.788529332</DistanceMeters>
          </Trackpoint>
          <Trackpoint>
            <Time>2023-01-11T19:00:25.000Z</Time>
            <Position>
              <LatitudeDegrees>-49.22944120131433010101318359375</LatitudeDegrees>
              <LongitudeDegrees>-72.99794518388807773590087890625</LongitudeDegrees>
            </Position>
            <AltitudeMeters>530.4000244140625</AltitudeMeters>
            <DistanceMeters>10603.679984142</DistanceMeters>
          </Trackpoint>
          <Trackpoint>
            <Time>2023-01-11T19:00:26.000Z</Time>
            <Position>
              <LatitudeDegrees>-49.22944053076207637786865234375</LatitudeDegrees>
              <LongitudeDegrees>-72.99793378449976444244384765625</LongitudeDegrees>
            </Position>
            <AltitudeMeters>530.20001220703125</AltitudeMeters>
            <DistanceMeters>10604.508407832</DistanceMeters>
          </Trackpoint>
          <Trackpoint>
            <Time>2023-01-11T19:00:32.000Z</Time>
            <Position>
              <LatitudeDegrees>-49.22944187186658382415771484375</LatitudeDegrees>
              <LongitudeDegrees>-72.99784409813582897186279296875</LongitudeDegrees>
            </Position>
            <AltitudeMeters>529.5999755859375</AltitudeMeters>
            <DistanceMeters>10611.028653218</DistanceMeters>
          </Trackpoint>
          <Trackpoint>
            <Time>2023-01-11T19:00:36.000Z</Time>
            <Position>
              <LatitudeDegrees>-49.229438602924346923828125</LatitudeDegrees>
              <LongitudeDegrees>-72.99777469597756862640380859375</LongitudeDegrees>
            </Position>
            <AltitudeMeters>529.79998779296875</AltitudeMeters>
            <DistanceMeters>10616.086538801</DistanceMeters>
          </Trackpoint>
          <Trackpoint>
            <Time>2023-01-11T19:00:40.000Z</Time>
            <Position>
              <LatitudeDegrees>-49.22943701036274433135986328125</LatitudeDegrees>
              <LongitudeDegrees>-72.9977105744183063507080078125</LongitudeDegrees>
            </Position>
            <AltitudeMeters>529.20001220703125</AltitudeMeters>
            <DistanceMeters>10620.751566585</DistanceMeters>
          </Trackpoint>
          <Trackpoint>
            <Time>2023-01-11T19:00:46.000Z</Time>
            <Position>
              <LatitudeDegrees>-49.22944723628461360931396484375</LatitudeDegrees>
              <LongitudeDegrees>-72.997597418725490570068359375</LongitudeDegrees>
            </Position>
            <AltitudeMeters>529.5999755859375</AltitudeMeters>
            <DistanceMeters>10629.055400864</DistanceMeters>
          </Trackpoint>
          <Trackpoint>
            <Time>2023-01-11T19:00:50.000Z</Time>
            <Position>
              <LatitudeDegrees>-49.22944606281816959381103515625</LatitudeDegrees>
              <LongitudeDegrees>-72.9975318722426891326904296875</LongitudeDegrees>
            </Position>
            <AltitudeMeters>529</AltitudeMeters>
            <DistanceMeters>10633.821916607</DistanceMeters>
          </Trackpoint>
          <Trackpoint>
            <Time>2023-01-11T19:00:58.000Z</Time>
            <Position>
              <LatitudeDegrees>-49.22947070561349391937255859375</LatitudeDegrees>
              <LongitudeDegrees>-72.997385524213314056396484375</LongitudeDegrees>
            </Position>
            <AltitudeMeters>528.5999755859375</AltitudeMeters>
            <DistanceMeters>10644.807267835</DistanceMeters>
          </Trackpoint>
          <Trackpoint>
            <Time>2023-01-11T19:01:01.000Z</Time>
            <Position>
              <LatitudeDegrees>-49.229487217962741851806640625</LatitudeDegrees>
              <LongitudeDegrees>-72.99733548425137996673583984375</LongitudeDegrees>
            </Position>
            <AltitudeMeters>528.5999755859375</AltitudeMeters>
            <DistanceMeters>10648.883459766</DistanceMeters>
          </Trackpoint>
          <Trackpoint>
            <Time>2023-01-11T19:01:06.000Z</Time>
            <Position>
              <LatitudeDegrees>-49.22948076389729976654052734375</LatitudeDegrees>
              <LongitudeDegrees>-72.99723154865205287933349609375</LongitudeDegrees>
            </Position>
            <AltitudeMeters>528.20001220703125</AltitudeMeters>
            <DistanceMeters>10656.472519494</DistanceMeters>
          </Trackpoint>
          <Trackpoint>
            <Time>2023-01-11T19:01:09.000Z</Time>
            <Position>
              <LatitudeDegrees>-49.2294836975634098052978515625</LatitudeDegrees>
              <LongitudeDegrees>-72.99718611873686313629150390625</LongitudeDegrees>
            </Position>
            <AltitudeMeters>528</AltitudeMeters>
            <DistanceMeters>10659.791659935</DistanceMeters>
          </Trackpoint>
          <Trackpoint>
            <Time>2023-01-11T19:01:10.000Z</Time>
            <Position>
              <LatitudeDegrees>-49.22948461957275867462158203125</LatitudeDegrees>
              <LongitudeDegrees>-72.997168935835361480712890625</LongitudeDegrees>
            </Position>
            <AltitudeMeters>527.5999755859375</AltitudeMeters>
            <DistanceMeters>10661.045148387</DistanceMeters>
          </Trackpoint>
          <Trackpoint>
            <Time>2023-01-11T19:01:12.000Z</Time>
            <Position>
              <LatitudeDegrees>-49.2294699512422084808349609375</LatitudeDegrees>
              <LongitudeDegrees>-72.99712928943336009979248046875</LongitudeDegrees>
            </Position>
            <AltitudeMeters>527</AltitudeMeters>
            <DistanceMeters>10664.356116947</DistanceMeters>
          </Trackpoint>
          <Trackpoint>
            <Time>2023-01-11T19:01:13.000Z</Time>
            <Position>
              <LatitudeDegrees>-49.22946701757609844207763671875</LatitudeDegrees>
              <LongitudeDegrees>-72.9971171356737613677978515625</LongitudeDegrees>
            </Position>
            <AltitudeMeters>526.79998779296875</AltitudeMeters>
            <DistanceMeters>10665.296833425</DistanceMeters>
          </Trackpoint>
          <Trackpoint>
            <Time>2023-01-11T19:01:22.000Z</Time>
            <Position>
              <LatitudeDegrees>-49.2294431291520595550537109375</LatitudeDegrees>
              <LongitudeDegrees>-72.996950335800647735595703125</LongitudeDegrees>
            </Position>
            <AltitudeMeters>526.4000244140625</AltitudeMeters>
            <DistanceMeters>10677.708646513</DistanceMeters>
          </Trackpoint>
          <Trackpoint>
            <Time>2023-01-11T19:01:28.000Z</Time>
            <Position>
              <LatitudeDegrees>-49.229477830231189727783203125</LatitudeDegrees>
              <LongitudeDegrees>-72.996862828731536865234375</LongitudeDegrees>
            </Position>
            <AltitudeMeters>527</AltitudeMeters>
            <DistanceMeters>10685.149911778</DistanceMeters>
          </Trackpoint>
          <Trackpoint>
            <Time>2023-01-11T19:01:31.000Z</Time>
            <Position>
              <LatitudeDegrees>-49.22951412387192249298095703125</LatitudeDegrees>
              <LongitudeDegrees>-72.996809184551239013671875</LongitudeDegrees>
            </Position>
            <AltitudeMeters>527.20001220703125</AltitudeMeters>
            <DistanceMeters>10690.763731048</DistanceMeters>
          </Trackpoint>
          <Trackpoint>
            <Time>2023-01-11T19:01:37.000Z</Time>
            <Position>
              <LatitudeDegrees>-49.22954916022717952728271484375</LatitudeDegrees>
              <LongitudeDegrees>-72.99673047848045825958251953125</LongitudeDegrees>
            </Position>
            <AltitudeMeters>528</AltitudeMeters>
            <DistanceMeters>10697.686999479</DistanceMeters>
          </Trackpoint>
          <Trackpoint>
            <Time>2023-01-11T19:01:39.000Z</Time>
            <Position>
              <LatitudeDegrees>-49.22955184243619441986083984375</LatitudeDegrees>
              <LongitudeDegrees>-72.99669577740132808685302734375</LongitudeDegrees>
            </Position>
            <AltitudeMeters>528.4000244140625</AltitudeMeters>
            <DistanceMeters>10700.227964779</DistanceMeters>
          </Trackpoint>
          <Trackpoint>
            <Time>2023-01-11T19:01:45.000Z</Time>
            <Position>
              <LatitudeDegrees>-49.229570366442203521728515625</LatitudeDegrees>
              <LongitudeDegrees>-72.996651269495487213134765625</LongitudeDegrees>
            </Position>
            <AltitudeMeters>528.5999755859375</AltitudeMeters>
            <DistanceMeters>10704.065679552</DistanceMeters>
          </Trackpoint>
          <Trackpoint>
            <Time>2023-01-11T19:01:47.000Z</Time>
            <Position>
              <LatitudeDegrees>-49.2295668460428714752197265625</LatitudeDegrees>
              <LongitudeDegrees>-72.9966252855956554412841796875</LongitudeDegrees>
            </Position>
            <AltitudeMeters>528.4000244140625</AltitudeMeters>
            <DistanceMeters>10705.994511192</DistanceMeters>
          </Trackpoint>
          <Trackpoint>
            <Time>2023-01-11T19:01:56.000Z</Time>
            <Position>
              <LatitudeDegrees>-49.2295517586171627044677734375</LatitudeDegrees>
              <LongitudeDegrees>-72.99644767306745052337646484375</LongitudeDegrees>
            </Position>
            <AltitudeMeters>527</AltitudeMeters>
            <DistanceMeters>10719.012824243</DistanceMeters>
          </Trackpoint>
          <Trackpoint>
            <Time>2023-01-11T19:01:58.000Z</Time>
            <Position>
              <LatitudeDegrees>-49.22954530455172061920166015625</LatitudeDegrees>
              <LongitudeDegrees>-72.9964237846434116363525390625</LongitudeDegrees>
            </Position>
            <AltitudeMeters>527</AltitudeMeters>
            <DistanceMeters>10720.894257199</DistanceMeters>
          </Trackpoint>
          <Trackpoint>
            <Time>2023-01-11T19:01:59.000Z</Time>
            <Position>
              <LatitudeDegrees>-49.2295440472662448883056640625</LatitudeDegrees>
              <LongitudeDegrees>-72.99641012214124202728271484375</LongitudeDegrees>
            </Position>
            <AltitudeMeters>526.5999755859375</AltitudeMeters>
            <DistanceMeters>10721.899925415</DistanceMeters>
          </Trackpoint>
          <Trackpoint>
            <Time>2023-01-11T19:02:00.000Z</Time>
            <Position>
              <LatitudeDegrees>-49.22954111360013484954833984375</LatitudeDegrees>
              <LongitudeDegrees>-72.9963922686874866485595703125</LongitudeDegrees>
            </Position>
            <AltitudeMeters>526.4000244140625</AltitudeMeters>
            <DistanceMeters>10723.237069811</DistanceMeters>
          </Trackpoint>
          <Trackpoint>
            <Time>2023-01-11T19:02:06.000Z</Time>
            <Position>
              <LatitudeDegrees>-49.22952384687960147857666015625</LatitudeDegrees>
              <LongitudeDegrees>-72.99626008607447147369384765625</LongitudeDegrees>
            </Position>
            <AltitudeMeters>526</AltitudeMeters>
            <DistanceMeters>10733.03496462</DistanceMeters>
          </Trackpoint>
          <Trackpoint>
            <Time>2023-01-11T19:02:11.000Z</Time>
            <Position>
              <LatitudeDegrees>-49.22952912747859954833984375</LatitudeDegrees>
              <LongitudeDegrees>-72.99615933559834957122802734375</LongitudeDegrees>
            </Position>
            <AltitudeMeters>527.4000244140625</AltitudeMeters>
            <DistanceMeters>10740.381580637</DistanceMeters>
          </Trackpoint>
          <Trackpoint>
            <Time>2023-01-11T19:02:14.000Z</Time>
            <Position>
              <LatitudeDegrees>-49.229524768888950347900390625</LatitudeDegrees>
              <LongitudeDegrees>-72.9960885085165500640869140625</LongitudeDegrees>
            </Position>
            <AltitudeMeters>526.5999755859375</AltitudeMeters>
            <DistanceMeters>10745.552466088</DistanceMeters>
          </Trackpoint>
          <Trackpoint>
            <Time>2023-01-11T19:02:16.000Z</Time>
            <Position>
              <LatitudeDegrees>-49.22952669672667980194091796875</LatitudeDegrees>
              <LongitudeDegrees>-72.996051125228404998779296875</LongitudeDegrees>
            </Position>
            <AltitudeMeters>526.4000244140625</AltitudeMeters>
            <DistanceMeters>10748.278590244</DistanceMeters>
          </Trackpoint>
          <Trackpoint>
            <Time>2023-01-11T19:02:19.000Z</Time>
            <Position>
              <LatitudeDegrees>-49.22952200286090373992919921875</LatitudeDegrees>
              <LongitudeDegrees>-72.99600183963775634765625</LongitudeDegrees>
            </Position>
            <AltitudeMeters>525.79998779296875</AltitudeMeters>
            <DistanceMeters>10751.899594386</DistanceMeters>
          </Trackpoint>
          <Trackpoint>
            <Time>2023-01-11T19:02:24.000Z</Time>
            <Position>
              <LatitudeDegrees>-49.22950725071132183074951171875</LatitudeDegrees>
              <LongitudeDegrees>-72.99588910304009914398193359375</LongitudeDegrees>
            </Position>
            <AltitudeMeters>525.79998779296875</AltitudeMeters>
            <DistanceMeters>10760.256544261</DistanceMeters>
          </Trackpoint>
          <Trackpoint>
            <Time>2023-01-11T19:02:32.000Z</Time>
            <Position>
              <LatitudeDegrees>-49.229516722261905670166015625</LatitudeDegrees>
              <LongitudeDegrees>-72.99578248523175716400146484375</LongitudeDegrees>
            </Position>
            <AltitudeMeters>526</AltitudeMeters>
            <DistanceMeters>10768.07765274</DistanceMeters>
          </Trackpoint>
          <Trackpoint>
            <Time>2023-01-11T19:02:42.000Z</Time>
            <Position>
              <LatitudeDegrees>-49.229567684233188629150390625</LatitudeDegrees>
              <LongitudeDegrees>-72.99556204117834568023681640625</LongitudeDegrees>
            </Position>
            <AltitudeMeters>525</AltitudeMeters>
            <DistanceMeters>10785.074423186</DistanceMeters>
          </Trackpoint>
          <Trackpoint>
            <Time>2023-01-11T19:02:48.000Z</Time>
            <Position>
              <LatitudeDegrees>-49.22959006391465663909912109375</LatitudeDegrees>
              <LongitudeDegrees>-72.9954229854047298431396484375</LongitudeDegrees>
            </Position>
            <AltitudeMeters>524.5999755859375</AltitudeMeters>
            <DistanceMeters>10795.484078191</DistanceMeters>
          </Trackpoint>
          <Trackpoint>
            <Time>2023-01-11T19:02:52.000Z</Time>
            <Position>
              <LatitudeDegrees>-49.2295815981924533843994140625</LatitudeDegrees>
              <LongitudeDegrees>-72.99538836814463138580322265625</LongitudeDegrees>
            </Position>
            <AltitudeMeters>524.4000244140625</AltitudeMeters>
            <DistanceMeters>10798.17015918</DistanceMeters>
          </Trackpoint>
          <Trackpoint>
            <Time>2023-01-11T19:02:56.000Z</Time>
            <Position>
              <LatitudeDegrees>-49.22956961207091808319091796875</LatitudeDegrees>
              <LongitudeDegrees>-72.9953173734247684478759765625</LongitudeDegrees>
            </Position>
            <AltitudeMeters>524.79998779296875</AltitudeMeters>
            <DistanceMeters>10803.50013296</DistanceMeters>
          </Trackpoint>
          <Trackpoint>
            <Time>2023-01-11T19:03:01.000Z</Time>
            <Position>
              <LatitudeDegrees>-49.22959425486624240875244140625</LatitudeDegrees>
              <LongitudeDegrees>-72.995221652090549468994140625</LongitudeDegrees>
            </Position>
            <AltitudeMeters>524.5999755859375</AltitudeMeters>
            <DistanceMeters>10810.978922534</DistanceMeters>
          </Trackpoint>
          <Trackpoint>
            <Time>2023-01-11T19:03:06.000Z</Time>
            <Position>
              <LatitudeDegrees>-49.2296228371560573577880859375</LatitudeDegrees>
              <LongitudeDegrees>-72.99513959325850009918212890625</LongitudeDegrees>
            </Position>
            <AltitudeMeters>524.4000244140625</AltitudeMeters>
            <DistanceMeters>10817.738522138</DistanceMeters>
          </Trackpoint>
          <Trackpoint>
            <Time>2023-01-11T19:03:08.000Z</Time>
            <Position>
              <LatitudeDegrees>-49.22963532619178295135498046875</LatitudeDegrees>
              <LongitudeDegrees>-72.9951011203229427337646484375</LongitudeDegrees>
            </Position>
            <AltitudeMeters>524.4000244140625</AltitudeMeters>
            <DistanceMeters>10820.861418639</DistanceMeters>
          </Trackpoint>
          <Trackpoint>
            <Time>2023-01-11T19:03:11.000Z</Time>
            <Position>
              <LatitudeDegrees>-49.22966399230062961578369140625</LatitudeDegrees>
              <LongitudeDegrees>-72.995071448385715484619140625</LongitudeDegrees>
            </Position>
            <AltitudeMeters>524.4000244140625</AltitudeMeters>
            <DistanceMeters>10824.71205307</DistanceMeters>
          </Trackpoint>
          <Trackpoint>
            <Time>2023-01-11T19:03:13.000Z</Time>
            <Position>
              <LatitudeDegrees>-49.22967472113668918609619140625</LatitudeDegrees>
              <LongitudeDegrees>-72.99504940398037433624267578125</LongitudeDegrees>
            </Position>
            <AltitudeMeters>524.5999755859375</AltitudeMeters>
            <DistanceMeters>10826.712134035</DistanceMeters>
          </Trackpoint>
          <Trackpoint>
            <Time>2023-01-11T19:03:14.000Z</Time>
            <Position>
              <LatitudeDegrees>-49.22968209721148014068603515625</LatitudeDegrees>
              <LongitudeDegrees>-72.99504018388688564300537109375</LongitudeDegrees>
            </Position>
            <AltitudeMeters>524.79998779296875</AltitudeMeters>
            <DistanceMeters>10827.770306742</DistanceMeters>
          </Trackpoint>
          <Trackpoint>
            <Time>2023-01-11T19:03:20.000Z</Time>
            <Position>
              <LatitudeDegrees>-49.22967958264052867889404296875</LatitudeDegrees>
              <LongitudeDegrees>-72.99497815780341625213623046875</LongitudeDegrees>
            </Position>
            <AltitudeMeters>525</AltitudeMeters>
            <DistanceMeters>10832.287825172</DistanceMeters>
          </Trackpoint>
          <Trackpoint>
            <Time>2023-01-11T19:03:26.000Z</Time>
            <Position>
              <LatitudeDegrees>-49.2296556942164897918701171875</LatitudeDegrees>
              <LongitudeDegrees>-72.994911186397075653076171875</LongitudeDegrees>
            </Position>
            <AltitudeMeters>524.79998779296875</AltitudeMeters>
            <DistanceMeters>10837.835302123</DistanceMeters>
          </Trackpoint>
          <Trackpoint>
            <Time>2023-01-11T19:03:31.000Z</Time>
            <Position>
              <LatitudeDegrees>-49.22963297925889492034912109375</LatitudeDegrees>
              <LongitudeDegrees>-72.99482024274766445159912109375</LongitudeDegrees>
            </Position>
            <AltitudeMeters>524.4000244140625</AltitudeMeters>
            <DistanceMeters>10844.912081331</DistanceMeters>
          </Trackpoint>
          <Trackpoint>
            <Time>2023-01-11T19:03:33.000Z</Time>
            <Position>
              <LatitudeDegrees>-49.22964085824787616729736328125</LatitudeDegrees>
              <LongitudeDegrees>-72.99479174427688121795654296875</LongitudeDegrees>
            </Position>
            <AltitudeMeters>524.4000244140625</AltitudeMeters>
            <DistanceMeters>10847.162830736</DistanceMeters>
          </Trackpoint>
          <Trackpoint>
            <Time>2023-01-11T19:03:43.000Z</Time>
            <Position>
              <LatitudeDegrees>-49.22960800118744373321533203125</LatitudeDegrees>
              <LongitudeDegrees>-72.99463684670627117156982421875</LongitudeDegrees>
            </Position>
            <AltitudeMeters>524.20001220703125</AltitudeMeters>
            <DistanceMeters>10859.000810139</DistanceMeters>
          </Trackpoint>
          <Trackpoint>
            <Time>2023-01-11T19:03:52.000Z</Time>
            <Position>
              <LatitudeDegrees>-49.22961822710931301116943359375</LatitudeDegrees>
              <LongitudeDegrees>-72.9944677837193012237548828125</LongitudeDegrees>
            </Position>
            <AltitudeMeters>523.79998779296875</AltitudeMeters>
            <DistanceMeters>10871.341118447</DistanceMeters>
          </Trackpoint>
          <Trackpoint>
            <Time>2023-01-11T19:04:01.000Z</Time>
            <Position>
              <LatitudeDegrees>-49.22964253462851047515869140625</LatitudeDegrees>
              <LongitudeDegrees>-72.9943051747977733612060546875</LongitudeDegrees>
            </Position>
            <AltitudeMeters>524.4000244140625</AltitudeMeters>
            <DistanceMeters>10883.465871827</DistanceMeters>
          </Trackpoint>
          <Trackpoint>
            <Time>2023-01-11T19:04:08.000Z</Time>
            <Position>
              <LatitudeDegrees>-49.22961940057575702667236328125</LatitudeDegrees>
              <LongitudeDegrees>-72.9942478425800800323486328125</LongitudeDegrees>
            </Position>
            <AltitudeMeters>524.5999755859375</AltitudeMeters>
            <DistanceMeters>10888.363206105</DistanceMeters>
          </Trackpoint>
          <Trackpoint>
            <Time>2023-01-11T19:04:09.000Z</Time>
            <Position>
              <LatitudeDegrees>-49.22961504198610782623291015625</LatitudeDegrees>
              <LongitudeDegrees>-72.99423267133533954620361328125</LongitudeDegrees>
            </Position>
            <AltitudeMeters>524.5999755859375</AltitudeMeters>
            <DistanceMeters>10889.565209529</DistanceMeters>
          </Trackpoint>
          <Trackpoint>
            <Time>2023-01-11T19:04:16.000Z</Time>
            <Position>
              <LatitudeDegrees>-49.229598529636859893798828125</LatitudeDegrees>
              <LongitudeDegrees>-72.99414130859076976776123046875</LongitudeDegrees>
            </Position>
            <AltitudeMeters>524.5999755859375</AltitudeMeters>
            <DistanceMeters>10896.45448248</DistanceMeters>
          </Trackpoint>
          <Trackpoint>
            <Time>2023-01-11T19:04:19.000Z</Time>
            <Position>
              <LatitudeDegrees>-49.22958687879145145416259765625</LatitudeDegrees>
              <LongitudeDegrees>-72.9940711520612239837646484375</LongitudeDegrees>
            </Position>
            <AltitudeMeters>524.5999755859375</AltitudeMeters>
            <DistanceMeters>10901.715393456</DistanceMeters>
          </Trackpoint>
          <Trackpoint>
            <Time>2023-01-11T19:04:20.000Z</Time>
            <Position>
              <LatitudeDegrees>-49.2295909859240055084228515625</LatitudeDegrees>
              <LongitudeDegrees>-72.99403586424887180328369140625</LongitudeDegrees>
            </Position>
            <AltitudeMeters>524.5999755859375</AltitudeMeters>
            <DistanceMeters>10904.321274782</DistanceMeters>
          </Trackpoint>
          <Trackpoint>
            <Time>2023-01-11T19:04:22.000Z</Time>
            <Position>
              <LatitudeDegrees>-49.22959157265722751617431640625</LatitudeDegrees>
              <LongitudeDegrees>-72.9939920268952846527099609375</LongitudeDegrees>
            </Position>
            <AltitudeMeters>524.5999755859375</AltitudeMeters>
            <DistanceMeters>10907.508567677</DistanceMeters>
          </Trackpoint>
          <Trackpoint>
            <Time>2023-01-11T19:04:25.000Z</Time>
            <Position>
              <LatitudeDegrees>-49.2296020500361919403076171875</LatitudeDegrees>
              <LongitudeDegrees>-72.99394098110496997833251953125</LongitudeDegrees>
            </Position>
            <AltitudeMeters>524.5999755859375</AltitudeMeters>
            <DistanceMeters>10911.39886434</DistanceMeters>
          </Trackpoint>
          <Trackpoint>
            <Time>2023-01-11T19:04:34.000Z</Time>
            <Position>
              <LatitudeDegrees>-49.22952719964087009429931640625</LatitudeDegrees>
              <LongitudeDegrees>-72.99376227892935276031494140625</LongitudeDegrees>
            </Position>
            <AltitudeMeters>524.5999755859375</AltitudeMeters>
            <DistanceMeters>10926.829517458</DistanceMeters>
          </Trackpoint>
          <Trackpoint>
            <Time>2023-01-11T19:04:40.000Z</Time>
            <Position>
              <LatitudeDegrees>-49.229542873799800872802734375</LatitudeDegrees>
              <LongitudeDegrees>-72.99370746128261089324951171875</LongitudeDegrees>
            </Position>
            <AltitudeMeters>524.5999755859375</AltitudeMeters>
            <DistanceMeters>10931.180039292</DistanceMeters>
          </Trackpoint>
          <Trackpoint>
            <Time>2023-01-11T19:04:44.000Z</Time>
            <Position>
              <LatitudeDegrees>-49.22952921129763126373291015625</LatitudeDegrees>
              <LongitudeDegrees>-72.99364225007593631744384765625</LongitudeDegrees>
            </Position>
            <AltitudeMeters>524.5999755859375</AltitudeMeters>
            <DistanceMeters>10936.158749952</DistanceMeters>
          </Trackpoint>
          <Trackpoint>
            <Time>2023-01-11T19:04:46.000Z</Time>
            <Position>
              <LatitudeDegrees>-49.22952518798410892486572265625</LatitudeDegrees>
              <LongitudeDegrees>-72.99361676909029483795166015625</LongitudeDegrees>
            </Position>
            <AltitudeMeters>524.5999755859375</AltitudeMeters>
            <DistanceMeters>10938.06639793</DistanceMeters>
          </Trackpoint>
          <Trackpoint>
            <Time>2023-01-11T19:04:51.000Z</Time>
            <Position>
              <LatitudeDegrees>-49.22952317632734775543212890625</LatitudeDegrees>
              <LongitudeDegrees>-72.9935119114816188812255859375</LongitudeDegrees>
            </Position>
            <AltitudeMeters>524.5999755859375</AltitudeMeters>
            <DistanceMeters>10945.691662662</DistanceMeters>
          </Trackpoint>
          <Trackpoint>
            <Time>2023-01-11T19:04:53.000Z</Time>
            <Position>
              <LatitudeDegrees>-49.22952787019312381744384765625</LatitudeDegrees>
              <LongitudeDegrees>-72.993494980037212371826171875</LongitudeDegrees>
            </Position>
            <AltitudeMeters>524.5999755859375</AltitudeMeters>
            <DistanceMeters>10947.028807058</DistanceMeters>
          </Trackpoint>
          <Trackpoint>
            <Time>2023-01-11T19:04:55.000Z</Time>
            <Position>
              <LatitudeDegrees>-49.22951831482350826263427734375</LatitudeDegrees>
              <LongitudeDegrees>-72.9934751987457275390625</LongitudeDegrees>
            </Position>
            <AltitudeMeters>524.5999755859375</AltitudeMeters>
            <DistanceMeters>10948.816724019</DistanceMeters>
          </Trackpoint>
          <Trackpoint>
            <Time>2023-01-11T19:04:57.000Z</Time>
            <Position>
              <LatitudeDegrees>-49.2295115254819393157958984375</LatitudeDegrees>
              <LongitudeDegrees>-72.99343991093337535858154296875</LongitudeDegrees>
            </Position>
            <AltitudeMeters>524.5999755859375</AltitudeMeters>
            <DistanceMeters>10951.489323964</DistanceMeters>
          </Trackpoint>
          <Trackpoint>
            <Time>2023-01-11T19:05:04.000Z</Time>
            <Position>
              <LatitudeDegrees>-49.22947623766958713531494140625</LatitudeDegrees>
              <LongitudeDegrees>-72.99332507885992527008056640625</LongitudeDegrees>
            </Position>
            <AltitudeMeters>524.5999755859375</AltitudeMeters>
            <DistanceMeters>10960.71328083</DistanceMeters>
          </Trackpoint>
          <Trackpoint>
            <Time>2023-01-11T19:05:05.000Z</Time>
            <Position>
              <LatitudeDegrees>-49.229470789432525634765625</LatitudeDegrees>
              <LongitudeDegrees>-72.99331351183354854583740234375</LongitudeDegrees>
            </Position>
            <AltitudeMeters>524.5999755859375</AltitudeMeters>
            <DistanceMeters>10961.75424633</DistanceMeters>
          </Trackpoint>
          <Trackpoint>
            <Time>2023-01-11T19:05:12.000Z</Time>
            <Position>
              <LatitudeDegrees>-49.22945612110197544097900390625</LatitudeDegrees>
              <LongitudeDegrees>-72.99323187209665775299072265625</LongitudeDegrees>
            </Position>
            <AltitudeMeters>524.5999755859375</AltitudeMeters>
            <DistanceMeters>10967.908280828</DistanceMeters>
          </Trackpoint>
          <Trackpoint>
            <Time>2023-01-11T19:05:19.000Z</Time>
            <Position>
              <LatitudeDegrees>-49.2294079251587390899658203125</LatitudeDegrees>
              <LongitudeDegrees>-72.99315090291202068328857421875</LongitudeDegrees>
            </Position>
            <AltitudeMeters>524.5999755859375</AltitudeMeters>
            <DistanceMeters>10975.871270015</DistanceMeters>
          </Trackpoint>
          <Trackpoint>
            <Time>2023-01-11T19:05:20.000Z</Time>
            <Position>
              <LatitudeDegrees>-49.229391328990459442138671875</LatitudeDegrees>
              <LongitudeDegrees>-72.99313564784824848175048828125</LongitudeDegrees>
            </Position>
            <AltitudeMeters>524.5999755859375</AltitudeMeters>
            <DistanceMeters>10978.025674641</DistanceMeters>
          </Trackpoint>
          <Trackpoint>
            <Time>2023-01-11T19:05:26.000Z</Time>
            <Position>
              <LatitudeDegrees>-49.2293569631874561309814453125</LatitudeDegrees>
              <LongitudeDegrees>-72.9930485598742961883544921875</LongitudeDegrees>
            </Position>
            <AltitudeMeters>524.5999755859375</AltitudeMeters>
            <DistanceMeters>10985.421903619</DistanceMeters>
          </Trackpoint>
          <Trackpoint>
            <Time>2023-01-11T19:05:36.000Z</Time>
            <Position>
              <LatitudeDegrees>-49.22933056019246578216552734375</LatitudeDegrees>
              <LongitudeDegrees>-72.99286927096545696258544921875</LongitudeDegrees>
            </Position>
            <AltitudeMeters>524.5999755859375</AltitudeMeters>
            <DistanceMeters>10998.780510234</DistanceMeters>
          </Trackpoint>
          <Trackpoint>
            <Time>2023-01-11T19:05:43.000Z</Time>
            <Position>
              <LatitudeDegrees>-49.2293371818959712982177734375</LatitudeDegrees>
              <LongitudeDegrees>-72.9927518405020236968994140625</LongitudeDegrees>
            </Position>
            <AltitudeMeters>524.5999755859375</AltitudeMeters>
            <DistanceMeters>11007.347683708</DistanceMeters>
          </Trackpoint>
          <Trackpoint>
            <Time>2023-01-11T19:05:44.000Z</Time>
            <Position>
              <LatitudeDegrees>-49.22933609224855899810791015625</LatitudeDegrees>
              <LongitudeDegrees>-72.9927354119718074798583984375</LongitudeDegrees>
            </Position>
            <AltitudeMeters>524.5999755859375</AltitudeMeters>
            <DistanceMeters>11008.549687132</DistanceMeters>
          </Trackpoint>
          <Trackpoint>
            <Time>2023-01-11T19:05:47.000Z</Time>
            <Position>
              <LatitudeDegrees>-49.229336343705654144287109375</LatitudeDegrees>
              <LongitudeDegrees>-72.99269174225628376007080078125</LongitudeDegrees>
            </Position>
            <AltitudeMeters>524.5999755859375</AltitudeMeters>
            <DistanceMeters>11011.724205255</DistanceMeters>
          </Trackpoint>
          <Trackpoint>
            <Time>2023-01-11T19:05:49.000Z</Time>
            <Position>
              <LatitudeDegrees>-49.2293408699333667755126953125</LatitudeDegrees>
              <LongitudeDegrees>-72.99264036118984222412109375</LongitudeDegrees>
            </Position>
            <AltitudeMeters>524.5999755859375</AltitudeMeters>
            <DistanceMeters>11015.491867683</DistanceMeters>
          </Trackpoint>
          <Trackpoint>
            <Time>2023-01-11T19:05:53.000Z</Time>
            <Position>
              <LatitudeDegrees>-49.229363836348056793212890625</LatitudeDegrees>
              <LongitudeDegrees>-72.992546819150447845458984375</LongitudeDegrees>
            </Position>
            <AltitudeMeters>524.5999755859375</AltitudeMeters>
            <DistanceMeters>11022.755042373</DistanceMeters>
          </Trackpoint>
          <Trackpoint>
            <Time>2023-01-11T19:05:56.000Z</Time>
            <Position>
              <LatitudeDegrees>-49.22940230928361415863037109375</LatitudeDegrees>
              <LongitudeDegrees>-72.99253575503826141357421875</LongitudeDegrees>
            </Position>
            <AltitudeMeters>524.5999755859375</AltitudeMeters>
            <DistanceMeters>11027.111786649</DistanceMeters>
          </Trackpoint>
          <Trackpoint>
            <Time>2023-01-11T19:06:01.000Z</Time>
            <Position>
              <LatitudeDegrees>-49.22943097539246082305908203125</LatitudeDegrees>
              <LongitudeDegrees>-72.99249828793108463287353515625</LongitudeDegrees>
            </Position>
            <AltitudeMeters>524.5999755859375</AltitudeMeters>
            <DistanceMeters>11031.305900252</DistanceMeters>
          </Trackpoint>
          <Trackpoint>
            <Time>2023-01-11T19:06:06.000Z</Time>
            <Position>
              <LatitudeDegrees>-49.22946299426257610321044921875</LatitudeDegrees>
              <LongitudeDegrees>-72.9924618266522884368896484375</LongitudeDegrees>
            </Position>
            <AltitudeMeters>524.5999755859375</AltitudeMeters>
            <DistanceMeters>11035.746810851</DistanceMeters>
          </Trackpoint>
          <Trackpoint>
            <Time>2023-01-11T19:06:13.000Z</Time>
            <Position>
              <LatitudeDegrees>-49.22954362817108631134033203125</LatitudeDegrees>
              <LongitudeDegrees>-72.99242268316447734832763671875</LongitudeDegrees>
            </Position>
            <AltitudeMeters>524.5999755859375</AltitudeMeters>
            <DistanceMeters>11045.161651815</DistanceMeters>
          </Trackpoint>
          <Trackpoint>
            <Time>2023-01-11T19:06:15.000Z</Time>
            <Position>
              <LatitudeDegrees>-49.22956106252968311309814453125</LatitudeDegrees>
              <LongitudeDegrees>-72.9923890717327594757080078125</LongitudeDegrees>
            </Position>
            <AltitudeMeters>524.5999755859375</AltitudeMeters>
            <DistanceMeters>11048.281655406</DistanceMeters>
          </Trackpoint>
          <Trackpoint>
            <Time>2023-01-11T19:06:20.000Z</Time>
            <Position>
              <LatitudeDegrees>-49.22959542833268642425537109375</LatitudeDegrees>
              <LongitudeDegrees>-72.99231581389904022216796875</LongitudeDegrees>
            </Position>
            <AltitudeMeters>524.5999755859375</AltitudeMeters>
            <DistanceMeters>11054.837810062</DistanceMeters>
          </Trackpoint>
          <Trackpoint>
            <Time>2023-01-11T19:06:27.000Z</Time>
            <Position>
              <LatitudeDegrees>-49.22961286269128322601318359375</LatitudeDegrees>
              <LongitudeDegrees>-72.9922140575945377349853515625</LongitudeDegrees>
            </Position>
            <AltitudeMeters>524.5999755859375</AltitudeMeters>
            <DistanceMeters>11062.483770754</DistanceMeters>
          </Trackpoint>
          <Trackpoint>
            <Time>2023-01-11T19:06:29.000Z</Time>
            <Position>
              <LatitudeDegrees>-49.22962929122149944305419921875</LatitudeDegrees>
              <LongitudeDegrees>-72.9921662807464599609375</LongitudeDegrees>
            </Position>
            <AltitudeMeters>524.5999755859375</AltitudeMeters>
            <DistanceMeters>11066.406429324</DistanceMeters>
          </Trackpoint>
          <Trackpoint>
            <Time>2023-01-11T19:06:31.000Z</Time>
            <Position>
              <LatitudeDegrees>-49.2296397686004638671875</LatitudeDegrees>
              <LongitudeDegrees>-72.9921225272119045257568359375</LongitudeDegrees>
            </Position>
            <AltitudeMeters>524.5999755859375</AltitudeMeters>
            <DistanceMeters>11069.792901985</DistanceMeters>
          </Trackpoint>
          <Trackpoint>
            <Time>2023-01-11T19:06:35.000Z</Time>
            <Position>
              <LatitudeDegrees>-49.22970238141715526580810546875</LatitudeDegrees>
              <LongitudeDegrees>-72.99210635013878345489501953125</LongitudeDegrees>
            </Position>
            <AltitudeMeters>524.5999755859375</AltitudeMeters>
            <DistanceMeters>11076.8594657</DistanceMeters>
          </Trackpoint>
          <Trackpoint>
            <Time>2023-01-11T19:06:40.000Z</Time>
            <Position>
              <LatitudeDegrees>-49.22975937835872173309326171875</LatitudeDegrees>
              <LongitudeDegrees>-72.99209377728402614593505859375</LongitudeDegrees>
            </Position>
            <AltitudeMeters>524.5999755859375</AltitudeMeters>
            <DistanceMeters>11083.268663602</DistanceMeters>
          </Trackpoint>
          <Trackpoint>
            <Time>2023-01-11T19:06:43.000Z</Time>
            <Position>
              <LatitudeDegrees>-49.22978435643017292022705078125</LatitudeDegrees>
              <LongitudeDegrees>-72.9920832999050617218017578125</LongitudeDegrees>
            </Position>
            <AltitudeMeters>524.5999755859375</AltitudeMeters>
            <DistanceMeters>11086.150966557</DistanceMeters>
          </Trackpoint>
          <Trackpoint>
            <Time>2023-01-11T19:06:51.000Z</Time>
            <Position>
              <LatitudeDegrees>-49.229871444404125213623046875</LatitudeDegrees>
              <LongitudeDegrees>-72.9920742474496364593505859375</LongitudeDegrees>
            </Position>
            <AltitudeMeters>524.5999755859375</AltitudeMeters>
            <DistanceMeters>11095.86602492</DistanceMeters>
          </Trackpoint>
          <Trackpoint>
            <Time>2023-01-11T19:06:57.000Z</Time>
            <Position>
              <LatitudeDegrees>-49.2299101687967777252197265625</LatitudeDegrees>
              <LongitudeDegrees>-72.99206226132810115814208984375</LongitudeDegrees>
            </Position>
            <AltitudeMeters>524.5999755859375</AltitudeMeters>
            <DistanceMeters>11100.263000434</DistanceMeters>
          </Trackpoint>
          <Trackpoint>
            <Time>2023-01-11T19:07:02.000Z</Time>
            <Position>
              <LatitudeDegrees>-49.22994109801948070526123046875</LatitudeDegrees>
              <LongitudeDegrees>-72.99199151806533336639404296875</LongitudeDegrees>
            </Position>
            <AltitudeMeters>524.5999755859375</AltitudeMeters>
            <DistanceMeters>11106.450691774</DistanceMeters>
          </Trackpoint>
          <Trackpoint>
            <Time>2023-01-11T19:07:03.000Z</Time>
            <Position>
              <LatitudeDegrees>-49.22994889318943023681640625</LatitudeDegrees>
              <LongitudeDegrees>-72.9919897578656673431396484375</LongitudeDegrees>
            </Position>
            <AltitudeMeters>524.5999755859375</AltitudeMeters>
            <DistanceMeters>11107.321625997</DistanceMeters>
          </Trackpoint>
          <Trackpoint>
            <Time>2023-01-11T19:07:09.000Z</Time>
            <Position>
              <LatitudeDegrees>-49.230012595653533935546875</LatitudeDegrees>
              <LongitudeDegrees>-72.9919334314763545989990234375</LongitudeDegrees>
            </Position>
            <AltitudeMeters>524.5999755859375</AltitudeMeters>
            <DistanceMeters>11115.509378285</DistanceMeters>
          </Trackpoint>
          <Trackpoint>
            <Time>2023-01-11T19:07:10.000Z</Time>
            <Position>
              <LatitudeDegrees>-49.23003044910728931427001953125</LatitudeDegrees>
              <LongitudeDegrees>-72.99192178063094615936279296875</LongitudeDegrees>
            </Position>
            <AltitudeMeters>524.5999755859375</AltitudeMeters>
            <DistanceMeters>11117.66797029</DistanceMeters>
          </Trackpoint>
          <Trackpoint>
            <Time>2023-01-11T19:07:12.000Z</Time>
            <Position>
              <LatitudeDegrees>-49.23003581352531909942626953125</LatitudeDegrees>
              <LongitudeDegrees>-72.99186930991709232330322265625</LongitudeDegrees>
            </Position>
            <AltitudeMeters>524.5999755859375</AltitudeMeters>
            <DistanceMeters>11121.527973675</DistanceMeters>
          </Trackpoint>
          <Trackpoint>
            <Time>2023-01-11T19:07:15.000Z</Time>
            <Position>
              <LatitudeDegrees>-49.23005525954067707061767578125</LatitudeDegrees>
              <LongitudeDegrees>-72.99183527939021587371826171875</LongitudeDegrees>
            </Position>
            <AltitudeMeters>524.5999755859375</AltitudeMeters>
            <DistanceMeters>11124.814304673</DistanceMeters>
          </Trackpoint>
          <Trackpoint>
            <Time>2023-01-11T19:07:16.000Z</Time>
            <Position>
              <LatitudeDegrees>-49.230076968669891357421875</LatitudeDegrees>
              <LongitudeDegrees>-72.9918278194963932037353515625</LongitudeDegrees>
            </Position>
            <AltitudeMeters>524.5999755859375</AltitudeMeters>
            <DistanceMeters>11127.288651421</DistanceMeters>
          </Trackpoint>
          <Trackpoint>
            <Time>2023-01-11T19:07:21.000Z</Time>
            <Position>
              <LatitudeDegrees>-49.23011116683483123779296875</LatitudeDegrees>
              <LongitudeDegrees>-72.99171776510775089263916015625</LongitudeDegrees>
            </Position>
            <AltitudeMeters>524.5999755859375</AltitudeMeters>
            <DistanceMeters>11136.14705784</DistanceMeters>
          </Trackpoint>
          <Trackpoint>
            <Time>2023-01-11T19:07:27.000Z</Time>
            <Position>
              <LatitudeDegrees>-49.23012516461312770843505859375</LatitudeDegrees>
              <LongitudeDegrees>-72.9916434176266193389892578125</LongitudeDegrees>
            </Position>
            <AltitudeMeters>524.5999755859375</AltitudeMeters>
            <DistanceMeters>11141.770520093</DistanceMeters>
          </Trackpoint>
          <Trackpoint>
            <Time>2023-01-11T19:07:33.000Z</Time>
            <Position>
              <LatitudeDegrees>-49.2301391623914241790771484375</LatitudeDegrees>
              <LongitudeDegrees>-72.99150151200592517852783203125</LongitudeDegrees>
            </Position>
            <AltitudeMeters>524.5999755859375</AltitudeMeters>
            <DistanceMeters>11152.201839336</DistanceMeters>
          </Trackpoint>
          <Trackpoint>
            <Time>2023-01-11T19:07:43.000Z</Time>
            <Position>
              <LatitudeDegrees>-49.2302124202251434326171875</LatitudeDegrees>
              <LongitudeDegrees>-72.9914409108459949493408203125</LongitudeDegrees>
            </Position>
            <AltitudeMeters>524.5999755859375</AltitudeMeters>
            <DistanceMeters>11161.469258451</DistanceMeters>
          </Trackpoint>
          <Trackpoint>
            <Time>2023-01-11T19:07:45.000Z</Time>
            <Position>
              <LatitudeDegrees>-49.2302001826465129852294921875</LatitudeDegrees>
              <LongitudeDegrees>-72.99142439849674701690673828125</LongitudeDegrees>
            </Position>
            <AltitudeMeters>524.5999755859375</AltitudeMeters>
            <DistanceMeters>11163.287226542</DistanceMeters>
          </Trackpoint>
          <Trackpoint>
            <Time>2023-01-11T19:07:49.000Z</Time>
            <Position>
              <LatitudeDegrees>-49.23019029200077056884765625</LatitudeDegrees>
              <LongitudeDegrees>-72.9913683235645294189453125</LongitudeDegrees>
            </Position>
            <AltitudeMeters>524.5999755859375</AltitudeMeters>
            <DistanceMeters>11167.509236833</DistanceMeters>
          </Trackpoint>
          <Trackpoint>
            <Time>2023-01-11T19:07:54.000Z</Time>
            <Position>
              <LatitudeDegrees>-49.23016958869993686676025390625</LatitudeDegrees>
              <LongitudeDegrees>-72.9912910424172878265380859375</LongitudeDegrees>
            </Position>
            <AltitudeMeters>524.5999755859375</AltitudeMeters>
            <DistanceMeters>11173.58054411</DistanceMeters>
          </Trackpoint>
          <Trackpoint>
            <Time>2023-01-11T19:07:56.000Z</Time>
            <Position>
              <LatitudeDegrees>-49.2301807366311550140380859375</LatitudeDegrees>
              <LongitudeDegrees>-72.99124770797789096832275390625</LongitudeDegrees>
            </Position>
            <AltitudeMeters>524.5999755859375</AltitudeMeters>
            <DistanceMeters>11176.965683251</DistanceMeters>
          </Trackpoint>
          <Trackpoint>
            <Time>2023-01-11T19:08:01.000Z</Time>
            <Position>
              <LatitudeDegrees>-49.23013187013566493988037109375</LatitudeDegrees>
              <LongitudeDegrees>-72.99122272990643978118896484375</LongitudeDegrees>
            </Position>
            <AltitudeMeters>524.5999755859375</AltitudeMeters>
            <DistanceMeters>11182.698874183</DistanceMeters>
          </Trackpoint>
          <Trackpoint>
            <Time>2023-01-11T19:08:07.000Z</Time>
            <Position>
              <LatitudeDegrees>-49.23009105026721954345703125</LatitudeDegrees>
              <LongitudeDegrees>-72.9911549203097820281982421875</LongitudeDegrees>
            </Position>
            <AltitudeMeters>520.5999755859375</AltitudeMeters>
            <DistanceMeters>11189.402131628</DistanceMeters>
          </Trackpoint>
          <Trackpoint>
            <Time>2023-01-11T19:08:08.000Z</Time>
            <Position>
              <LatitudeDegrees>-49.230083338916301727294921875</LatitudeDegrees>
              <LongitudeDegrees>-72.99114100635051727294921875</LongitudeDegrees>
            </Position>
            <AltitudeMeters>520.5999755859375</AltitudeMeters>
            <DistanceMeters>11190.725700603</DistanceMeters>
          </Trackpoint>
          <Trackpoint>
            <Time>2023-01-11T19:08:14.000Z</Time>
            <Position>
              <LatitudeDegrees>-49.23003011383116245269775390625</LatitudeDegrees>
              <LongitudeDegrees>-72.99103732220828533172607421875</LongitudeDegrees>
            </Position>
            <AltitudeMeters>520.4000244140625</AltitudeMeters>
            <DistanceMeters>11200.311159789</DistanceMeters>
          </Trackpoint>
          <Trackpoint>
            <Time>2023-01-11T19:08:16.000Z</Time>
            <Position>
              <LatitudeDegrees>-49.2300100810825824737548828125</LatitudeDegrees>
              <LongitudeDegrees>-72.991004548966884613037109375</LongitudeDegrees>
            </Position>
            <AltitudeMeters>520.20001220703125</AltitudeMeters>
            <DistanceMeters>11203.574051165</DistanceMeters>
          </Trackpoint>
          <Trackpoint>
            <Time>2023-01-11T19:08:24.000Z</Time>
            <Position>
              <LatitudeDegrees>-49.23003740608692169189453125</LatitudeDegrees>
              <LongitudeDegrees>-72.99077077768743038177490234375</LongitudeDegrees>
            </Position>
            <AltitudeMeters>520.20001220703125</AltitudeMeters>
            <DistanceMeters>11220.834941704</DistanceMeters>
          </Trackpoint>
          <Trackpoint>
            <Time>2023-01-11T19:08:28.000Z</Time>
            <Position>
              <LatitudeDegrees>-49.2300583608448505401611328125</LatitudeDegrees>
              <LongitudeDegrees>-72.9907180555164813995361328125</LongitudeDegrees>
            </Position>
            <AltitudeMeters>520</AltitudeMeters>
            <DistanceMeters>11225.320363681</DistanceMeters>
          </Trackpoint>
          <Trackpoint>
            <Time>2023-01-11T19:08:31.000Z</Time>
            <Position>
              <LatitudeDegrees>-49.23006682656705379486083984375</LatitudeDegrees>
              <LongitudeDegrees>-72.99069701693952083587646484375</LongitudeDegrees>
            </Position>
            <AltitudeMeters>520</AltitudeMeters>
            <DistanceMeters>11227.118353494</DistanceMeters>
          </Trackpoint>
          <Trackpoint>
            <Time>2023-01-11T19:08:33.000Z</Time>
            <Position>
              <LatitudeDegrees>-49.23006012104451656341552734375</LatitudeDegrees>
              <LongitudeDegrees>-72.99064873717725276947021484375</LongitudeDegrees>
            </Position>
            <AltitudeMeters>520</AltitudeMeters>
            <DistanceMeters>11230.706791735</DistanceMeters>
          </Trackpoint>
          <Trackpoint>
            <Time>2023-01-11T19:08:40.000Z</Time>
            <Position>
              <LatitudeDegrees>-49.23004989512264728546142578125</LatitudeDegrees>
              <LongitudeDegrees>-72.990505993366241455078125</LongitudeDegrees>
            </Position>
            <AltitudeMeters>520</AltitudeMeters>
            <DistanceMeters>11241.144168906</DistanceMeters>
          </Trackpoint>
          <Trackpoint>
            <Time>2023-01-11T19:08:48.000Z</Time>
            <Position>
              <LatitudeDegrees>-49.23010722734034061431884765625</LatitudeDegrees>
              <LongitudeDegrees>-72.99028144218027591705322265625</LongitudeDegrees>
            </Position>
            <AltitudeMeters>520.20001220703125</AltitudeMeters>
            <DistanceMeters>11258.668290559</DistanceMeters>
          </Trackpoint>
          <Trackpoint>
            <Time>2023-01-11T19:08:55.000Z</Time>
            <Position>
              <LatitudeDegrees>-49.23010052181780338287353515625</LatitudeDegrees>
              <LongitudeDegrees>-72.9902805201709270477294921875</LongitudeDegrees>
            </Position>
            <AltitudeMeters>519.79998779296875</AltitudeMeters>
            <DistanceMeters>11259.416531656</DistanceMeters>
          </Trackpoint>
          <Trackpoint>
            <Time>2023-01-11T19:09:05.000Z</Time>
            <Position>
              <LatitudeDegrees>-49.2301116697490215301513671875</LatitudeDegrees>
              <LongitudeDegrees>-72.9901769198477268218994140625</LongitudeDegrees>
            </Position>
            <AltitudeMeters>519.79998779296875</AltitudeMeters>
            <DistanceMeters>11267.04830688</DistanceMeters>
          </Trackpoint>
          <Trackpoint>
            <Time>2023-01-11T19:09:10.000Z</Time>
            <Position>
              <LatitudeDegrees>-49.230130612850189208984375</LatitudeDegrees>
              <LongitudeDegrees>-72.99010156653821468353271484375</LongitudeDegrees>
            </Position>
            <AltitudeMeters>519.5999755859375</AltitudeMeters>
            <DistanceMeters>11272.916927805</DistanceMeters>
          </Trackpoint>
          <Trackpoint>
            <Time>2023-01-11T19:09:11.000Z</Time>
            <Position>
              <LatitudeDegrees>-49.2301294393837451934814453125</LatitudeDegrees>
              <LongitudeDegrees>-72.99008983187377452850341796875</LongitudeDegrees>
            </Position>
            <AltitudeMeters>519.5999755859375</AltitudeMeters>
            <DistanceMeters>11273.782662374</DistanceMeters>
          </Trackpoint>
          <Trackpoint>
            <Time>2023-01-11T19:09:12.000Z</Time>
            <Position>
              <LatitudeDegrees>-49.230124242603778839111328125</LatitudeDegrees>
              <LongitudeDegrees>-72.99005982466042041778564453125</LongitudeDegrees>
            </Position>
            <AltitudeMeters>519.5999755859375</AltitudeMeters>
            <DistanceMeters>11276.039421802</DistanceMeters>
          </Trackpoint>
          <Trackpoint>
            <Time>2023-01-11T19:09:14.000Z</Time>
            <Position>
              <LatitudeDegrees>-49.23013371415436267852783203125</LatitudeDegrees>
              <LongitudeDegrees>-72.9900364391505718231201171875</LongitudeDegrees>
            </Position>
            <AltitudeMeters>519.5999755859375</AltitudeMeters>
            <DistanceMeters>11278.037244063</DistanceMeters>
          </Trackpoint>
          <Trackpoint>
            <Time>2023-01-11T19:09:21.000Z</Time>
            <Position>
              <LatitudeDegrees>-49.2301757074892520904541015625</LatitudeDegrees>
              <LongitudeDegrees>-72.99000903032720088958740234375</LongitudeDegrees>
            </Position>
            <AltitudeMeters>520</AltitudeMeters>
            <DistanceMeters>11283.117397454</DistanceMeters>
          </Trackpoint>
          <Trackpoint>
            <Time>2023-01-11T19:09:26.000Z</Time>
            <Position>
              <LatitudeDegrees>-49.23019641079008579254150390625</LatitudeDegrees>
              <LongitudeDegrees>-72.98995505087077617645263671875</LongitudeDegrees>
            </Position>
            <AltitudeMeters>520.5999755859375</AltitudeMeters>
            <DistanceMeters>11287.666785898</DistanceMeters>
          </Trackpoint>
          <Trackpoint>
            <Time>2023-01-11T19:09:28.000Z</Time>
            <Position>
              <LatitudeDegrees>-49.2301988415420055389404296875</LatitudeDegrees>
              <LongitudeDegrees>-72.9899137280881404876708984375</LongitudeDegrees>
            </Position>
            <AltitudeMeters>520.5999755859375</AltitudeMeters>
            <DistanceMeters>11290.680796001</DistanceMeters>
          </Trackpoint>
          <Trackpoint>
            <Time>2023-01-11T19:09:36.000Z</Time>
            <Position>
              <LatitudeDegrees>-49.23024234361946582794189453125</LatitudeDegrees>
              <LongitudeDegrees>-72.98978690989315509796142578125</LongitudeDegrees>
            </Position>
            <AltitudeMeters>520.79998779296875</AltitudeMeters>
            <DistanceMeters>11301.092185804</DistanceMeters>
          </Trackpoint>
          <Trackpoint>
            <Time>2023-01-11T19:09:43.000Z</Time>
            <Position>
              <LatitudeDegrees>-49.23017176799476146697998046875</LatitudeDegrees>
              <LongitudeDegrees>-72.98965263180434703826904296875</LongitudeDegrees>
            </Position>
            <AltitudeMeters>519.79998779296875</AltitudeMeters>
            <DistanceMeters>11313.620224704</DistanceMeters>
          </Trackpoint>
          <Trackpoint>
            <Time>2023-01-11T19:09:51.000Z</Time>
            <Position>
              <LatitudeDegrees>-49.2301995120942592620849609375</LatitudeDegrees>
              <LongitudeDegrees>-72.9894993267953395843505859375</LongitudeDegrees>
            </Position>
            <AltitudeMeters>519.79998779296875</AltitudeMeters>
            <DistanceMeters>11325.182676077</DistanceMeters>
          </Trackpoint>
          <Trackpoint>
            <Time>2023-01-11T19:09:54.000Z</Time>
            <Position>
              <LatitudeDegrees>-49.23021770082414150238037109375</LatitudeDegrees>
              <LongitudeDegrees>-72.98949890770018100738525390625</LongitudeDegrees>
            </Position>
            <AltitudeMeters>519.5999755859375</AltitudeMeters>
            <DistanceMeters>11327.207436484</DistanceMeters>
          </Trackpoint>
          <Trackpoint>
            <Time>2023-01-11T19:09:57.000Z</Time>
            <Position>
              <LatitudeDegrees>-49.2302410863339900970458984375</LatitudeDegrees>
              <LongitudeDegrees>-72.98944341950118541717529296875</LongitudeDegrees>
            </Position>
            <AltitudeMeters>519.5999755859375</AltitudeMeters>
            <DistanceMeters>11332.00793178</DistanceMeters>
          </Trackpoint>
          <Trackpoint>
            <Time>2023-01-11T19:10:06.000Z</Time>
            <Position>
              <LatitudeDegrees>-49.23026405274868011474609375</LatitudeDegrees>
              <LongitudeDegrees>-72.98926287330687046051025390625</LongitudeDegrees>
            </Position>
            <AltitudeMeters>519.20001220703125</AltitudeMeters>
            <DistanceMeters>11345.37734961</DistanceMeters>
          </Trackpoint>
          <Trackpoint>
            <Time>2023-01-11T19:10:11.000Z</Time>
            <Position>
              <LatitudeDegrees>-49.230291210114955902099609375</LatitudeDegrees>
              <LongitudeDegrees>-72.9891731031239032745361328125</LongitudeDegrees>
            </Position>
            <AltitudeMeters>519.20001220703125</AltitudeMeters>
            <DistanceMeters>11352.568053173</DistanceMeters>
          </Trackpoint>
          <Trackpoint>
            <Time>2023-01-11T19:10:13.000Z</Time>
            <Position>
              <LatitudeDegrees>-49.230315349996089935302734375</LatitudeDegrees>
              <LongitudeDegrees>-72.9891608655452728271484375</LongitudeDegrees>
            </Position>
            <AltitudeMeters>519.20001220703125</AltitudeMeters>
            <DistanceMeters>11355.396594798</DistanceMeters>
          </Trackpoint>
          <Trackpoint>
            <Time>2023-01-11T19:10:21.000Z</Time>
            <Position>
              <LatitudeDegrees>-49.23039925284683704376220703125</LatitudeDegrees>
              <LongitudeDegrees>-72.989051230251789093017578125</LongitudeDegrees>
            </Position>
            <AltitudeMeters>519.4000244140625</AltitudeMeters>
            <DistanceMeters>11367.673075395</DistanceMeters>
          </Trackpoint>
          <Trackpoint>
            <Time>2023-01-11T19:10:29.000Z</Time>
            <Position>
              <LatitudeDegrees>-49.2304269969463348388671875</LatitudeDegrees>
              <LongitudeDegrees>-72.98893011175096035003662109375</LongitudeDegrees>
            </Position>
            <AltitudeMeters>519.4000244140625</AltitudeMeters>
            <DistanceMeters>11377.002163066</DistanceMeters>
          </Trackpoint>
          <Trackpoint>
            <Time>2023-01-11T19:10:37.000Z</Time>
            <Position>
              <LatitudeDegrees>-49.23048843629658222198486328125</LatitudeDegrees>
              <LongitudeDegrees>-72.9888509027659893035888671875</LongitudeDegrees>
            </Position>
            <AltitudeMeters>519.79998779296875</AltitudeMeters>
            <DistanceMeters>11385.940737694</DistanceMeters>
          </Trackpoint>
          <Trackpoint>
            <Time>2023-01-11T19:10:47.000Z</Time>
            <Position>
              <LatitudeDegrees>-49.23057979904115200042724609375</LatitudeDegrees>
              <LongitudeDegrees>-72.9887721128761768341064453125</LongitudeDegrees>
            </Position>
            <AltitudeMeters>520.20001220703125</AltitudeMeters>
            <DistanceMeters>11397.610853928</DistanceMeters>
          </Trackpoint>
          <Trackpoint>
            <Time>2023-01-11T19:10:52.000Z</Time>
            <Position>
              <LatitudeDegrees>-49.23061366192996501922607421875</LatitudeDegrees>
              <LongitudeDegrees>-72.988693155348300933837890625</LongitudeDegrees>
            </Position>
            <AltitudeMeters>520</AltitudeMeters>
            <DistanceMeters>11404.477808071</DistanceMeters>
          </Trackpoint>
          <Trackpoint>
            <Time>2023-01-11T19:10:54.000Z</Time>
            <Position>
              <LatitudeDegrees>-49.2306206189095973968505859375</LatitudeDegrees>
              <LongitudeDegrees>-72.9886608012020587921142578125</LongitudeDegrees>
            </Position>
            <AltitudeMeters>520.20001220703125</AltitudeMeters>
            <DistanceMeters>11406.953978886</DistanceMeters>
          </Trackpoint>
          <Trackpoint>
            <Time>2023-01-11T19:11:01.000Z</Time>
            <Position>
              <LatitudeDegrees>-49.2306923680007457733154296875</LatitudeDegrees>
              <LongitudeDegrees>-72.98855979926884174346923828125</LongitudeDegrees>
            </Position>
            <AltitudeMeters>520.4000244140625</AltitudeMeters>
            <DistanceMeters>11417.801185718</DistanceMeters>
          </Trackpoint>
          <Trackpoint>
            <Time>2023-01-11T19:11:03.000Z</Time>
            <Position>
              <LatitudeDegrees>-49.23073251731693744659423828125</LatitudeDegrees>
              <LongitudeDegrees>-72.98854974098503589630126953125</LongitudeDegrees>
            </Position>
            <AltitudeMeters>520.5999755859375</AltitudeMeters>
            <DistanceMeters>11422.328687626</DistanceMeters>
          </Trackpoint>
          <Trackpoint>
            <Time>2023-01-11T19:11:10.000Z</Time>
            <Position>
              <LatitudeDegrees>-49.2307483591139316558837890625</LatitudeDegrees>
              <LongitudeDegrees>-72.9884817637503147125244140625</LongitudeDegrees>
            </Position>
            <AltitudeMeters>520.20001220703125</AltitudeMeters>
            <DistanceMeters>11427.574988514</DistanceMeters>
          </Trackpoint>
          <Trackpoint>
            <Time>2023-01-11T19:11:18.000Z</Time>
            <Position>
              <LatitudeDegrees>-49.23072732053697109222412109375</LatitudeDegrees>
              <LongitudeDegrees>-72.988362573087215423583984375</LongitudeDegrees>
            </Position>
            <AltitudeMeters>519.4000244140625</AltitudeMeters>
            <DistanceMeters>11436.548851769</DistanceMeters>
          </Trackpoint>
          <Trackpoint>
            <Time>2023-01-11T19:11:21.000Z</Time>
            <Position>
              <LatitudeDegrees>-49.23073503188788890838623046875</LatitudeDegrees>
              <LongitudeDegrees>-72.98830331303179264068603515625</LongitudeDegrees>
            </Position>
            <AltitudeMeters>519.4000244140625</AltitudeMeters>
            <DistanceMeters>11440.940690027</DistanceMeters>
          </Trackpoint>
          <Trackpoint>
            <Time>2023-01-11T19:11:28.000Z</Time>
            <Position>
              <LatitudeDegrees>-49.23076973296701908111572265625</LatitudeDegrees>
              <LongitudeDegrees>-72.9881528578698635101318359375</LongitudeDegrees>
            </Position>
            <AltitudeMeters>518.79998779296875</AltitudeMeters>
            <DistanceMeters>11452.537843064</DistanceMeters>
          </Trackpoint>
          <Trackpoint>
            <Time>2023-01-11T19:11:34.000Z</Time>
            <Position>
              <LatitudeDegrees>-49.230816252529621124267578125</LatitudeDegrees>
              <LongitudeDegrees>-72.98807884566485881805419921875</LongitudeDegrees>
            </Position>
            <AltitudeMeters>518.4000244140625</AltitudeMeters>
            <DistanceMeters>11460.004548627</DistanceMeters>
          </Trackpoint>
          <Trackpoint>
            <Time>2023-01-11T19:11:35.000Z</Time>
            <Position>
              <LatitudeDegrees>-49.23082061111927032470703125</LatitudeDegrees>
              <LongitudeDegrees>-72.98806317150592803955078125</LongitudeDegrees>
            </Position>
            <AltitudeMeters>518.4000244140625</AltitudeMeters>
            <DistanceMeters>11461.243545396</DistanceMeters>
          </Trackpoint>
          <Trackpoint>
            <Time>2023-01-11T19:11:36.000Z</Time>
            <Position>
              <LatitudeDegrees>-49.23082505352795124053955078125</LatitudeDegrees>
              <LongitudeDegrees>-72.9880495928227901458740234375</LongitudeDegrees>
            </Position>
            <AltitudeMeters>518.4000244140625</AltitudeMeters>
            <DistanceMeters>11462.343559143</DistanceMeters>
          </Trackpoint>
          <Trackpoint>
            <Time>2023-01-11T19:11:44.000Z</Time>
            <Position>
              <LatitudeDegrees>-49.23091826029121875762939453125</LatitudeDegrees>
              <LongitudeDegrees>-72.9879245348274707794189453125</LongitudeDegrees>
            </Position>
            <AltitudeMeters>518.20001220703125</AltitudeMeters>
            <DistanceMeters>11476.136188351</DistanceMeters>
          </Trackpoint>
          <Trackpoint>
            <Time>2023-01-11T19:11:52.000Z</Time>
            <Position>
              <LatitudeDegrees>-49.23098464496433734893798828125</LatitudeDegrees>
              <LongitudeDegrees>-72.9878205992281436920166015625</LongitudeDegrees>
            </Position>
            <AltitudeMeters>518.20001220703125</AltitudeMeters>
            <DistanceMeters>11486.703398262</DistanceMeters>
          </Trackpoint>
          <Trackpoint>
            <Time>2023-01-11T19:11:54.000Z</Time>
            <Position>
              <LatitudeDegrees>-49.23099587671458721160888671875</LatitudeDegrees>
              <LongitudeDegrees>-72.987767793238162994384765625</LongitudeDegrees>
            </Position>
            <AltitudeMeters>518.20001220703125</AltitudeMeters>
            <DistanceMeters>11490.739517426</DistanceMeters>
          </Trackpoint>
          <Trackpoint>
            <Time>2023-01-11T19:12:00.000Z</Time>
            <Position>
              <LatitudeDegrees>-49.2310236208140850067138671875</LatitudeDegrees>
              <LongitudeDegrees>-72.98766762949526309967041015625</LongitudeDegrees>
            </Position>
            <AltitudeMeters>518.20001220703125</AltitudeMeters>
            <DistanceMeters>11498.647316068</DistanceMeters>
          </Trackpoint>
          <Trackpoint>
            <Time>2023-01-11T19:12:02.000Z</Time>
            <Position>
              <LatitudeDegrees>-49.23105572350323200225830078125</LatitudeDegrees>
              <LongitudeDegrees>-72.98765757121145725250244140625</LongitudeDegrees>
            </Position>
            <AltitudeMeters>518.4000244140625</AltitudeMeters>
            <DistanceMeters>11502.295648931</DistanceMeters>
          </Trackpoint>
          <Trackpoint>
            <Time>2023-01-11T19:12:10.000Z</Time>
            <Position>
              <LatitudeDegrees>-49.231122024357318878173828125</LatitudeDegrees>
              <LongitudeDegrees>-72.98755547963082790374755859375</LongitudeDegrees>
            </Position>
            <AltitudeMeters>518.79998779296875</AltitudeMeters>
            <DistanceMeters>11512.760674832</DistanceMeters>
          </Trackpoint>
          <Trackpoint>
            <Time>2023-01-11T19:12:12.000Z</Time>
            <Position>
              <LatitudeDegrees>-49.23114390112459659576416015625</LatitudeDegrees>
              <LongitudeDegrees>-72.98753838054835796356201171875</LongitudeDegrees>
            </Position>
            <AltitudeMeters>518.79998779296875</AltitudeMeters>
            <DistanceMeters>11515.495067506</DistanceMeters>
          </Trackpoint>
          <Trackpoint>
            <Time>2023-01-11T19:12:14.000Z</Time>
            <Position>
              <LatitudeDegrees>-49.23116401769220829010009765625</LatitudeDegrees>
              <LongitudeDegrees>-72.987530417740345001220703125</LongitudeDegrees>
            </Position>
            <AltitudeMeters>519.4000244140625</AltitudeMeters>
            <DistanceMeters>11517.807167257</DistanceMeters>
          </Trackpoint>
          <Trackpoint>
            <Time>2023-01-11T19:12:15.000Z</Time>
            <Position>
              <LatitudeDegrees>-49.2311805300414562225341796875</LatitudeDegrees>
              <LongitudeDegrees>-72.98752999864518642425537109375</LongitudeDegrees>
            </Position>
            <AltitudeMeters>519.4000244140625</AltitudeMeters>
            <DistanceMeters>11519.64489645</DistanceMeters>
          </Trackpoint>
          <Trackpoint>
            <Time>2023-01-11T19:12:22.000Z</Time>
            <Position>
              <LatitudeDegrees>-49.231230653822422027587890625</LatitudeDegrees>
              <LongitudeDegrees>-72.987494878470897674560546875</LongitudeDegrees>
            </Position>
            <AltitudeMeters>519.20001220703125</AltitudeMeters>
            <DistanceMeters>11525.77982584</DistanceMeters>
          </Trackpoint>
          <Trackpoint>
            <Time>2023-01-11T19:12:31.000Z</Time>
            <Position>
              <LatitudeDegrees>-49.231299050152301788330078125</LatitudeDegrees>
              <LongitudeDegrees>-72.9875741712749004364013671875</LongitudeDegrees>
            </Position>
            <AltitudeMeters>519</AltitudeMeters>
            <DistanceMeters>11535.328001152</DistanceMeters>
          </Trackpoint>
          <Trackpoint>
            <Time>2023-01-11T19:12:35.000Z</Time>
            <Position>
              <LatitudeDegrees>-49.23130634240806102752685546875</LatitudeDegrees>
              <LongitudeDegrees>-72.98755045048892498016357421875</LongitudeDegrees>
            </Position>
            <AltitudeMeters>518.79998779296875</AltitudeMeters>
            <DistanceMeters>11537.23328085</DistanceMeters>
          </Trackpoint>
          <Trackpoint>
            <Time>2023-01-11T19:12:38.000Z</Time>
            <Position>
              <LatitudeDegrees>-49.23131757415831089019775390625</LatitudeDegrees>
              <LongitudeDegrees>-72.9875181801617145538330078125</LongitudeDegrees>
            </Position>
            <AltitudeMeters>518.5999755859375</AltitudeMeters>
            <DistanceMeters>11539.890632874</DistanceMeters>
          </Trackpoint>
          <Trackpoint>
            <Time>2023-01-11T19:12:39.000Z</Time>
            <Position>
              <LatitudeDegrees>-49.23132629133760929107666015625</LatitudeDegrees>
              <LongitudeDegrees>-72.98750937916338443756103515625</LongitudeDegrees>
            </Position>
            <AltitudeMeters>518.4000244140625</AltitudeMeters>
            <DistanceMeters>11541.054467685</DistanceMeters>
          </Trackpoint>
          <Trackpoint>
            <Time>2023-01-11T19:12:46.000Z</Time>
            <Position>
              <LatitudeDegrees>-49.23135814256966114044189453125</LatitudeDegrees>
              <LongitudeDegrees>-72.98739840276539325714111328125</LongitudeDegrees>
            </Position>
            <AltitudeMeters>517.79998779296875</AltitudeMeters>
            <DistanceMeters>11549.864833007</DistanceMeters>
          </Trackpoint>
          <Trackpoint>
            <Time>2023-01-11T19:12:51.000Z</Time>
            <Position>
              <LatitudeDegrees>-49.2313689552247524261474609375</LatitudeDegrees>
              <LongitudeDegrees>-72.98732849769294261932373046875</LongitudeDegrees>
            </Position>
            <AltitudeMeters>518</AltitudeMeters>
            <DistanceMeters>11555.085251641</DistanceMeters>
          </Trackpoint>
          <Trackpoint>
            <Time>2023-01-11T19:12:55.000Z</Time>
            <Position>
              <LatitudeDegrees>-49.23135646618902683258056640625</LatitudeDegrees>
              <LongitudeDegrees>-72.98732263036072254180908203125</LongitudeDegrees>
            </Position>
            <AltitudeMeters>518</AltitudeMeters>
            <DistanceMeters>11556.538880853</DistanceMeters>
          </Trackpoint>
          <Trackpoint>
            <Time>2023-01-11T19:12:59.000Z</Time>
            <Position>
              <LatitudeDegrees>-49.23137591220438480377197265625</LatitudeDegrees>
              <LongitudeDegrees>-72.98731341026723384857177734375</LongitudeDegrees>
            </Position>
            <AltitudeMeters>517.20001220703125</AltitudeMeters>
            <DistanceMeters>11558.803628835</DistanceMeters>
          </Trackpoint>
          <Trackpoint>
            <Time>2023-01-11T19:13:01.000Z</Time>
            <Position>
              <LatitudeDegrees>-49.2313873954117298126220703125</LatitudeDegrees>
              <LongitudeDegrees>-72.987314164638519287109375</LongitudeDegrees>
            </Position>
            <AltitudeMeters>517.20001220703125</AltitudeMeters>
            <DistanceMeters>11560.082082525</DistanceMeters>
          </Trackpoint>
          <Trackpoint>
            <Time>2023-01-11T19:13:16.000Z</Time>
            <Position>
              <LatitudeDegrees>-49.23139686696231365203857421875</LatitudeDegrees>
              <LongitudeDegrees>-72.98732263036072254180908203125</LongitudeDegrees>
            </Position>
            <AltitudeMeters>517.5999755859375</AltitudeMeters>
            <DistanceMeters>11561.302722772</DistanceMeters>
          </Trackpoint>
          <Trackpoint>
            <Time>2023-01-11T19:13:17.000Z</Time>
            <Position>
              <LatitudeDegrees>-49.231396950781345367431640625</LatitudeDegrees>
              <LongitudeDegrees>-72.98731751739978790283203125</LongitudeDegrees>
            </Position>
            <AltitudeMeters>517.79998779296875</AltitudeMeters>
            <DistanceMeters>11561.682829629</DistanceMeters>
          </Trackpoint>
          <Trackpoint>
            <Time>2023-01-11T19:13:20.000Z</Time>
            <Position>
              <LatitudeDegrees>-49.23138462938368320465087890625</LatitudeDegrees>
              <LongitudeDegrees>-72.987258844077587127685546875</LongitudeDegrees>
            </Position>
            <AltitudeMeters>518</AltitudeMeters>
            <DistanceMeters>11566.162207919</DistanceMeters>
          </Trackpoint>
          <Trackpoint>
            <Time>2023-01-11T19:13:27.000Z</Time>
            <Position>
              <LatitudeDegrees>-49.2313696257770061492919921875</LatitudeDegrees>
              <LongitudeDegrees>-72.98712632618844509124755859375</LongitudeDegrees>
            </Position>
            <AltitudeMeters>517</AltitudeMeters>
            <DistanceMeters>11575.937034713</DistanceMeters>
          </Trackpoint>
          <Trackpoint>
            <Time>2023-01-11T19:13:28.000Z</Time>
            <Position>
              <LatitudeDegrees>-49.2313615791499614715576171875</LatitudeDegrees>
              <LongitudeDegrees>-72.98711291514337062835693359375</LongitudeDegrees>
            </Position>
            <AltitudeMeters>517</AltitudeMeters>
            <DistanceMeters>11577.260603687</DistanceMeters>
          </Trackpoint>
          <Trackpoint>
            <Time>2023-01-11T19:13:33.000Z</Time>
            <Position>
              <LatitudeDegrees>-49.23132595606148242950439453125</LatitudeDegrees>
              <LongitudeDegrees>-72.987066395580768585205078125</LongitudeDegrees>
            </Position>
            <AltitudeMeters>516.20001220703125</AltitudeMeters>
            <DistanceMeters>11582.470633417</DistanceMeters>
          </Trackpoint>
          <Trackpoint>
            <Time>2023-01-11T19:13:34.000Z</Time>
            <Position>
              <LatitudeDegrees>-49.23132243566215038299560546875</LatitudeDegrees>
              <LongitudeDegrees>-72.98705357126891613006591796875</LongitudeDegrees>
            </Position>
            <AltitudeMeters>516.20001220703125</AltitudeMeters>
            <DistanceMeters>11583.485241083</DistanceMeters>
          </Trackpoint>
          <Trackpoint>
            <Time>2023-01-11T19:13:37.000Z</Time>
            <Position>
              <LatitudeDegrees>-49.23130609095096588134765625</LatitudeDegrees>
              <LongitudeDegrees>-72.9869911260902881622314453125</LongitudeDegrees>
            </Position>
            <AltitudeMeters>515.20001220703125</AltitudeMeters>
            <DistanceMeters>11588.375194296</DistanceMeters>
          </Trackpoint>
          <Trackpoint>
            <Time>2023-01-11T19:13:41.000Z</Time>
            <Position>
              <LatitudeDegrees>-49.23132813535630702972412109375</LatitudeDegrees>
              <LongitudeDegrees>-72.98691962845623493194580078125</LongitudeDegrees>
            </Position>
            <AltitudeMeters>515.4000244140625</AltitudeMeters>
            <DistanceMeters>11594.121757578</DistanceMeters>
          </Trackpoint>
          <Trackpoint>
            <Time>2023-01-11T19:13:46.000Z</Time>
            <Position>
              <LatitudeDegrees>-49.231335259974002838134765625</LatitudeDegrees>
              <LongitudeDegrees>-72.9867996834218502044677734375</LongitudeDegrees>
            </Position>
            <AltitudeMeters>515</AltitudeMeters>
            <DistanceMeters>11602.875569816</DistanceMeters>
          </Trackpoint>
          <Trackpoint>
            <Time>2023-01-11T19:13:49.000Z</Time>
            <Position>
              <LatitudeDegrees>-49.23135646618902683258056640625</LatitudeDegrees>
              <LongitudeDegrees>-72.9867638088762760162353515625</LongitudeDegrees>
            </Position>
            <AltitudeMeters>514.79998779296875</AltitudeMeters>
            <DistanceMeters>11606.392842158</DistanceMeters>
          </Trackpoint>
          <Trackpoint>
            <Time>2023-01-11T19:13:56.000Z</Time>
            <Position>
              <LatitudeDegrees>-49.23138094134628772735595703125</LatitudeDegrees>
              <LongitudeDegrees>-72.98665526323020458221435546875</LongitudeDegrees>
            </Position>
            <AltitudeMeters>514.4000244140625</AltitudeMeters>
            <DistanceMeters>11614.738979569</DistanceMeters>
          </Trackpoint>
          <Trackpoint>
            <Time>2023-01-11T19:14:03.000Z</Time>
            <Position>
              <LatitudeDegrees>-49.23140340484678745269775390625</LatitudeDegrees>
              <LongitudeDegrees>-72.986510507762432098388671875</LongitudeDegrees>
            </Position>
            <AltitudeMeters>514.20001220703125</AltitudeMeters>
            <DistanceMeters>11625.552835956</DistanceMeters>
          </Trackpoint>
          <Trackpoint>
            <Time>2023-01-11T19:14:06.000Z</Time>
            <Position>
              <LatitudeDegrees>-49.23142586834728717803955078125</LatitudeDegrees>
              <LongitudeDegrees>-72.98649919219315052032470703125</LongitudeDegrees>
            </Position>
            <AltitudeMeters>514</AltitudeMeters>
            <DistanceMeters>11628.186293514</DistanceMeters>
          </Trackpoint>
          <Trackpoint>
            <Time>2023-01-11T19:14:07.000Z</Time>
            <Position>
              <LatitudeDegrees>-49.2314229346811771392822265625</LatitudeDegrees>
              <LongitudeDegrees>-72.9864786565303802490234375</LongitudeDegrees>
            </Position>
            <AltitudeMeters>514</AltitudeMeters>
            <DistanceMeters>11629.718553242</DistanceMeters>
          </Trackpoint>
          <Trackpoint>
            <Time>2023-01-11T19:14:08.000Z</Time>
            <Position>
              <LatitudeDegrees>-49.231413714587688446044921875</LatitudeDegrees>
              <LongitudeDegrees>-72.986458204686641693115234375</LongitudeDegrees>
            </Position>
            <AltitudeMeters>513.79998779296875</AltitudeMeters>
            <DistanceMeters>11631.526559789</DistanceMeters>
          </Trackpoint>
          <Trackpoint>
            <Time>2023-01-11T19:14:16.000Z</Time>
            <Position>
              <LatitudeDegrees>-49.23140533268451690673828125</LatitudeDegrees>
              <LongitudeDegrees>-72.9863054864108562469482421875</LongitudeDegrees>
            </Position>
            <AltitudeMeters>513.4000244140625</AltitudeMeters>
            <DistanceMeters>11642.665377066</DistanceMeters>
          </Trackpoint>
          <Trackpoint>
            <Time>2023-01-11T19:14:19.000Z</Time>
            <Position>
              <LatitudeDegrees>-49.23139619641005992889404296875</LatitudeDegrees>
              <LongitudeDegrees>-72.986297272145748138427734375</LongitudeDegrees>
            </Position>
            <AltitudeMeters>513</AltitudeMeters>
            <DistanceMeters>11643.844627579</DistanceMeters>
          </Trackpoint>
          <Trackpoint>
            <Time>2023-01-11T19:14:23.000Z</Time>
            <Position>
              <LatitudeDegrees>-49.23136300407350063323974609375</LatitudeDegrees>
              <LongitudeDegrees>-72.9862330667674541473388671875</LongitudeDegrees>
            </Position>
            <AltitudeMeters>513</AltitudeMeters>
            <DistanceMeters>11649.797275727</DistanceMeters>
          </Trackpoint>
          <Trackpoint>
            <Time>2023-01-11T19:14:25.000Z</Time>
            <Position>
              <LatitudeDegrees>-49.231354035437107086181640625</LatitudeDegrees>
              <LongitudeDegrees>-72.98620532266795635223388671875</LongitudeDegrees>
            </Position>
            <AltitudeMeters>512.79998779296875</AltitudeMeters>
            <DistanceMeters>11652.046018222</DistanceMeters>
          </Trackpoint>
          <Trackpoint>
            <Time>2023-01-11T19:14:32.000Z</Time>
            <Position>
              <LatitudeDegrees>-49.23128773458302021026611328125</LatitudeDegrees>
              <LongitudeDegrees>-72.98607137985527515411376953125</LongitudeDegrees>
            </Position>
            <AltitudeMeters>512</AltitudeMeters>
            <DistanceMeters>11664.261294852</DistanceMeters>
          </Trackpoint>
          <Trackpoint>
            <Time>2023-01-11T19:14:36.000Z</Time>
            <Position>
              <LatitudeDegrees>-49.231287650763988494873046875</LatitudeDegrees>
              <LongitudeDegrees>-72.98598471097648143768310546875</LongitudeDegrees>
            </Position>
            <AltitudeMeters>511.79998779296875</AltitudeMeters>
            <DistanceMeters>11670.560354774</DistanceMeters>
          </Trackpoint>
          <Trackpoint>
            <Time>2023-01-11T19:14:39.000Z</Time>
            <Position>
              <LatitudeDegrees>-49.2313381098210811614990234375</LatitudeDegrees>
              <LongitudeDegrees>-72.98594213090837001800537109375</LongitudeDegrees>
            </Position>
            <AltitudeMeters>511.79998779296875</AltitudeMeters>
            <DistanceMeters>11676.973074019</DistanceMeters>
          </Trackpoint>
          <Trackpoint>
            <Time>2023-01-11T19:14:40.000Z</Time>
            <Position>
              <LatitudeDegrees>-49.23135478980839252471923828125</LatitudeDegrees>
              <LongitudeDegrees>-72.98590667545795440673828125</LongitudeDegrees>
            </Position>
            <AltitudeMeters>511.79998779296875</AltitudeMeters>
            <DistanceMeters>11680.149014099</DistanceMeters>
          </Trackpoint>
          <Trackpoint>
            <Time>2023-01-11T19:14:47.000Z</Time>
            <Position>
              <LatitudeDegrees>-49.23133182339370250701904296875</LatitudeDegrees>
              <LongitudeDegrees>-72.985756807029247283935546875</LongitudeDegrees>
            </Position>
            <AltitudeMeters>511.20001220703125</AltitudeMeters>
            <DistanceMeters>11691.337577445</DistanceMeters>
          </Trackpoint>
          <Trackpoint>
            <Time>2023-01-11T19:14:51.000Z</Time>
            <Position>
              <LatitudeDegrees>-49.23134154640138149261474609375</LatitudeDegrees>
              <LongitudeDegrees>-72.98569687642157077789306640625</LongitudeDegrees>
            </Position>
            <AltitudeMeters>511</AltitudeMeters>
            <DistanceMeters>11695.825012176</DistanceMeters>
          </Trackpoint>
          <Trackpoint>
            <Time>2023-01-11T19:14:53.000Z</Time>
            <Position>
              <LatitudeDegrees>-49.231343977153301239013671875</LatitudeDegrees>
              <LongitudeDegrees>-72.98566770739853382110595703125</LongitudeDegrees>
            </Position>
            <AltitudeMeters>511</AltitudeMeters>
            <DistanceMeters>11697.962585258</DistanceMeters>
          </Trackpoint>
          <Trackpoint>
            <Time>2023-01-11T19:14:58.000Z</Time>
            <Position>
              <LatitudeDegrees>-49.23129410482943058013916015625</LatitudeDegrees>
              <LongitudeDegrees>-72.98557517118752002716064453125</LongitudeDegrees>
            </Position>
            <AltitudeMeters>511</AltitudeMeters>
            <DistanceMeters>11706.682807373</DistanceMeters>
          </Trackpoint>
          <Trackpoint>
            <Time>2023-01-11T19:15:01.000Z</Time>
            <Position>
              <LatitudeDegrees>-49.23130768351256847381591796875</LatitudeDegrees>
              <LongitudeDegrees>-72.98552638851106166839599609375</LongitudeDegrees>
            </Position>
            <AltitudeMeters>511</AltitudeMeters>
            <DistanceMeters>11710.538129127</DistanceMeters>
          </Trackpoint>
          <Trackpoint>
            <Time>2023-01-11T19:15:02.000Z</Time>
            <Position>
              <LatitudeDegrees>-49.231329895555973052978515625</LatitudeDegrees>
              <LongitudeDegrees>-72.985510714352130889892578125</LongitudeDegrees>
            </Position>
            <AltitudeMeters>511</AltitudeMeters>
            <DistanceMeters>11713.259280112</DistanceMeters>
          </Trackpoint>
          <Trackpoint>
            <Time>2023-01-11T19:15:03.000Z</Time>
            <Position>
              <LatitudeDegrees>-49.23132059164345264434814453125</LatitudeDegrees>
              <LongitudeDegrees>-72.9855041764676570892333984375</LongitudeDegrees>
            </Position>
            <AltitudeMeters>510.79998779296875</AltitudeMeters>
            <DistanceMeters>11714.39563434</DistanceMeters>
          </Trackpoint>
          <Trackpoint>
            <Time>2023-01-11T19:15:05.000Z</Time>
            <Position>
              <LatitudeDegrees>-49.23132360912859439849853515625</LatitudeDegrees>
              <LongitudeDegrees>-72.985490262508392333984375</LongitudeDegrees>
            </Position>
            <AltitudeMeters>510.79998779296875</AltitudeMeters>
            <DistanceMeters>11715.462306564</DistanceMeters>
          </Trackpoint>
          <Trackpoint>
            <Time>2023-01-11T19:15:06.000Z</Time>
            <Position>
              <LatitudeDegrees>-49.231325872242450714111328125</LatitudeDegrees>
              <LongitudeDegrees>-72.98548146151006221771240234375</LongitudeDegrees>
            </Position>
            <AltitudeMeters>510.79998779296875</AltitudeMeters>
            <DistanceMeters>11716.147553946</DistanceMeters>
          </Trackpoint>
          <Trackpoint>
            <Time>2023-01-11T19:15:07.000Z</Time>
            <Position>
              <LatitudeDegrees>-49.23131975345313549041748046875</LatitudeDegrees>
              <LongitudeDegrees>-72.9854652844369411468505859375</LongitudeDegrees>
            </Position>
            <AltitudeMeters>510.600006103515625</AltitudeMeters>
            <DistanceMeters>11717.501476218</DistanceMeters>
          </Trackpoint>
          <Trackpoint>
            <Time>2023-01-11T19:15:10.000Z</Time>
            <Position>
              <LatitudeDegrees>-49.2313250340521335601806640625</LatitudeDegrees>
              <LongitudeDegrees>-72.98541490919888019561767578125</LongitudeDegrees>
            </Position>
            <AltitudeMeters>510.600006103515625</AltitudeMeters>
            <DistanceMeters>11721.208736169</DistanceMeters>
          </Trackpoint>
          <Trackpoint>
            <Time>2023-01-11T19:15:12.000Z</Time>
            <Position>
              <LatitudeDegrees>-49.23132545314729213714599609375</LatitudeDegrees>
              <LongitudeDegrees>-72.98536646179854869842529296875</LongitudeDegrees>
            </Position>
            <AltitudeMeters>510.600006103515625</AltitudeMeters>
            <DistanceMeters>11724.729857433</DistanceMeters>
          </Trackpoint>
          <Trackpoint>
            <Time>2023-01-11T19:15:20.000Z</Time>
            <Position>
              <LatitudeDegrees>-49.231346659362316131591796875</LatitudeDegrees>
              <LongitudeDegrees>-72.98523587174713611602783203125</LongitudeDegrees>
            </Position>
            <AltitudeMeters>510.79998779296875</AltitudeMeters>
            <DistanceMeters>11734.510687145</DistanceMeters>
          </Trackpoint>
          <Trackpoint>
            <Time>2023-01-11T19:15:27.000Z</Time>
            <Position>
              <LatitudeDegrees>-49.231349341571331024169921875</LatitudeDegrees>
              <LongitudeDegrees>-72.98512288369238376617431640625</LongitudeDegrees>
            </Position>
            <AltitudeMeters>510.79998779296875</AltitudeMeters>
            <DistanceMeters>11742.729261949</DistanceMeters>
          </Trackpoint>
          <Trackpoint>
            <Time>2023-01-11T19:15:31.000Z</Time>
            <Position>
              <LatitudeDegrees>-49.2313806898891925811767578125</LatitudeDegrees>
              <LongitudeDegrees>-72.98506043851375579833984375</LongitudeDegrees>
            </Position>
            <AltitudeMeters>511</AltitudeMeters>
            <DistanceMeters>11748.454572201</DistanceMeters>
          </Trackpoint>
          <Trackpoint>
            <Time>2023-01-11T19:15:33.000Z</Time>
            <Position>
              <LatitudeDegrees>-49.2314018122851848602294921875</LatitudeDegrees>
              <LongitudeDegrees>-72.9850264079868793487548828125</LongitudeDegrees>
            </Position>
            <AltitudeMeters>511</AltitudeMeters>
            <DistanceMeters>11751.867605839</DistanceMeters>
          </Trackpoint>
          <Trackpoint>
            <Time>2023-01-11T19:15:40.000Z</Time>
            <Position>
              <LatitudeDegrees>-49.2314179055392742156982421875</LatitudeDegrees>
              <LongitudeDegrees>-72.98490981571376323699951171875</LongitudeDegrees>
            </Position>
            <AltitudeMeters>511.20001220703125</AltitudeMeters>
            <DistanceMeters>11760.528601453</DistanceMeters>
          </Trackpoint>
          <Trackpoint>
            <Time>2023-01-11T19:15:41.000Z</Time>
            <Position>
              <LatitudeDegrees>-49.23140910454094409942626953125</LatitudeDegrees>
              <LongitudeDegrees>-72.984892465174198150634765625</LongitudeDegrees>
            </Position>
            <AltitudeMeters>511.20001220703125</AltitudeMeters>
            <DistanceMeters>11762.124371348</DistanceMeters>
          </Trackpoint>
          <Trackpoint>
            <Time>2023-01-11T19:15:44.000Z</Time>
            <Position>
              <LatitudeDegrees>-49.23141203820705413818359375</LatitudeDegrees>
              <LongitudeDegrees>-72.98483253456652164459228515625</LongitudeDegrees>
            </Position>
            <AltitudeMeters>511</AltitudeMeters>
            <DistanceMeters>11766.491466658</DistanceMeters>
          </Trackpoint>
          <Trackpoint>
            <Time>2023-01-11T19:15:47.000Z</Time>
            <Position>
              <LatitudeDegrees>-49.2313979566097259521484375</LatitudeDegrees>
              <LongitudeDegrees>-72.9847648926079273223876953125</LongitudeDegrees>
            </Position>
            <AltitudeMeters>510.79998779296875</AltitudeMeters>
            <DistanceMeters>11771.651863487</DistanceMeters>
          </Trackpoint>
          <Trackpoint>
            <Time>2023-01-11T19:15:48.000Z</Time>
            <Position>
              <LatitudeDegrees>-49.23141463659703731536865234375</LatitudeDegrees>
              <LongitudeDegrees>-72.98474838025867938995361328125</LongitudeDegrees>
            </Position>
            <AltitudeMeters>510.79998779296875</AltitudeMeters>
            <DistanceMeters>11773.8641703</DistanceMeters>
          </Trackpoint>
          <Trackpoint>
            <Time>2023-01-11T19:15:52.000Z</Time>
            <Position>
              <LatitudeDegrees>-49.23142855055630207061767578125</LatitudeDegrees>
              <LongitudeDegrees>-72.98468149267137050628662109375</LongitudeDegrees>
            </Position>
            <AltitudeMeters>510.79998779296875</AltitudeMeters>
            <DistanceMeters>11778.96737914</DistanceMeters>
          </Trackpoint>
          <Trackpoint>
            <Time>2023-01-11T19:15:54.000Z</Time>
            <Position>
              <LatitudeDegrees>-49.23142938874661922454833984375</LatitudeDegrees>
              <LongitudeDegrees>-72.9846628010272979736328125</LongitudeDegrees>
            </Position>
            <AltitudeMeters>510.600006103515625</AltitudeMeters>
            <DistanceMeters>11780.327954632</DistanceMeters>
          </Trackpoint>
          <Trackpoint>
            <Time>2023-01-11T19:15:55.000Z</Time>
            <Position>
              <LatitudeDegrees>-49.231419079005718231201171875</LatitudeDegrees>
              <LongitudeDegrees>-72.98465249128639698028564453125</LongitudeDegrees>
            </Position>
            <AltitudeMeters>510.600006103515625</AltitudeMeters>
            <DistanceMeters>11781.698449397</DistanceMeters>
          </Trackpoint>
          <Trackpoint>
            <Time>2023-01-11T19:15:57.000Z</Time>
            <Position>
              <LatitudeDegrees>-49.2314346693456172943115234375</LatitudeDegrees>
              <LongitudeDegrees>-72.9846421815454959869384765625</LongitudeDegrees>
            </Position>
            <AltitudeMeters>510.399993896484375</AltitudeMeters>
            <DistanceMeters>11783.589457137</DistanceMeters>
          </Trackpoint>
          <Trackpoint>
            <Time>2023-01-11T19:15:59.000Z</Time>
            <Position>
              <LatitudeDegrees>-49.23141933046281337738037109375</LatitudeDegrees>
              <LongitudeDegrees>-72.9846279323101043701171875</LongitudeDegrees>
            </Position>
            <AltitudeMeters>510</AltitudeMeters>
            <DistanceMeters>11785.587279398</DistanceMeters>
          </Trackpoint>
          <Trackpoint>
            <Time>2023-01-11T19:16:00.000Z</Time>
            <Position>
              <LatitudeDegrees>-49.2314259521663188934326171875</LatitudeDegrees>
              <LongitudeDegrees>-72.9846118390560150146484375</LongitudeDegrees>
            </Position>
            <AltitudeMeters>509.79998779296875</AltitudeMeters>
            <DistanceMeters>11786.967622156</DistanceMeters>
          </Trackpoint>
          <Trackpoint>
            <Time>2023-01-11T19:16:02.000Z</Time>
            <Position>
              <LatitudeDegrees>-49.23142201267182826995849609375</LatitudeDegrees>
              <LongitudeDegrees>-72.9845818318426609039306640625</LongitudeDegrees>
            </Position>
            <AltitudeMeters>509.600006103515625</AltitudeMeters>
            <DistanceMeters>11789.192140507</DistanceMeters>
          </Trackpoint>
          <Trackpoint>
            <Time>2023-01-11T19:16:03.000Z</Time>
            <Position>
              <LatitudeDegrees>-49.231424443423748016357421875</LatitudeDegrees>
              <LongitudeDegrees>-72.9845603741705417633056640625</LongitudeDegrees>
            </Position>
            <AltitudeMeters>509.399993896484375</AltitudeMeters>
            <DistanceMeters>11790.776552464</DistanceMeters>
          </Trackpoint>
          <Trackpoint>
            <Time>2023-01-11T19:16:05.000Z</Time>
            <Position>
              <LatitudeDegrees>-49.2314313165843486785888671875</LatitudeDegrees>
              <LongitudeDegrees>-72.98452592454850673675537109375</LongitudeDegrees>
            </Position>
            <AltitudeMeters>509.20001220703125</AltitudeMeters>
            <DistanceMeters>11793.396258191</DistanceMeters>
          </Trackpoint>
          <Trackpoint>
            <Time>2023-01-11T19:16:15.000Z</Time>
            <Position>
              <LatitudeDegrees>-49.2315000481903553009033203125</LatitudeDegrees>
              <LongitudeDegrees>-72.98436029814183712005615234375</LongitudeDegrees>
            </Position>
            <AltitudeMeters>509.20001220703125</AltitudeMeters>
            <DistanceMeters>11807.659131749</DistanceMeters>
          </Trackpoint>
          <Trackpoint>
            <Time>2023-01-11T19:16:22.000Z</Time>
            <Position>
              <LatitudeDegrees>-49.2314909957349300384521484375</LatitudeDegrees>
              <LongitudeDegrees>-72.984240688383579254150390625</LongitudeDegrees>
            </Position>
            <AltitudeMeters>509.600006103515625</AltitudeMeters>
            <DistanceMeters>11816.410880626</DistanceMeters>
          </Trackpoint>
          <Trackpoint>
            <Time>2023-01-11T19:16:29.000Z</Time>
            <Position>
              <LatitudeDegrees>-49.23150801099836826324462890625</LatitudeDegrees>
              <LongitudeDegrees>-72.98411521129310131072998046875</LongitudeDegrees>
            </Position>
            <AltitudeMeters>509.399993896484375</AltitudeMeters>
            <DistanceMeters>11825.724953011</DistanceMeters>
          </Trackpoint>
          <Trackpoint>
            <Time>2023-01-11T19:16:34.000Z</Time>
            <Position>
              <LatitudeDegrees>-49.231519997119903564453125</LatitudeDegrees>
              <LongitudeDegrees>-72.984018735587596893310546875</LongitudeDegrees>
            </Position>
            <AltitudeMeters>509.600006103515625</AltitudeMeters>
            <DistanceMeters>11832.862718158</DistanceMeters>
          </Trackpoint>
          <Trackpoint>
            <Time>2023-01-11T19:16:37.000Z</Time>
            <Position>
              <LatitudeDegrees>-49.23152226023375988006591796875</LatitudeDegrees>
              <LongitudeDegrees>-72.98393483273684978485107421875</LongitudeDegrees>
            </Position>
            <AltitudeMeters>510</AltitudeMeters>
            <DistanceMeters>11838.965179568</DistanceMeters>
          </Trackpoint>
          <Trackpoint>
            <Time>2023-01-11T19:16:40.000Z</Time>
            <Position>
              <LatitudeDegrees>-49.23154153861105442047119140625</LatitudeDegrees>
              <LongitudeDegrees>-72.98390750773251056671142578125</LongitudeDegrees>
            </Position>
            <AltitudeMeters>510.79998779296875</AltitudeMeters>
            <DistanceMeters>11841.886381759</DistanceMeters>
          </Trackpoint>
          <Trackpoint>
            <Time>2023-01-11T19:16:43.000Z</Time>
            <Position>
              <LatitudeDegrees>-49.2315704561769962310791015625</LatitudeDegrees>
              <LongitudeDegrees>-72.9838623292744159698486328125</LongitudeDegrees>
            </Position>
            <AltitudeMeters>511.20001220703125</AltitudeMeters>
            <DistanceMeters>11846.484143057</DistanceMeters>
          </Trackpoint>
          <Trackpoint>
            <Time>2023-01-11T19:16:49.000Z</Time>
            <Position>
              <LatitudeDegrees>-49.23159166239202022552490234375</LatitudeDegrees>
              <LongitudeDegrees>-72.98375629819929599761962890625</LongitudeDegrees>
            </Position>
            <AltitudeMeters>511.20001220703125</AltitudeMeters>
            <DistanceMeters>11854.54406675</DistanceMeters>
          </Trackpoint>
          <Trackpoint>
            <Time>2023-01-11T19:16:55.000Z</Time>
            <Position>
              <LatitudeDegrees>-49.2316338233649730682373046875</LatitudeDegrees>
              <LongitudeDegrees>-72.9836343415081501007080078125</LongitudeDegrees>
            </Position>
            <AltitudeMeters>511.79998779296875</AltitudeMeters>
            <DistanceMeters>11864.5737752</DistanceMeters>
          </Trackpoint>
          <Trackpoint>
            <Time>2023-01-11T19:16:57.000Z</Time>
            <Position>
              <LatitudeDegrees>-49.23163742758333683013916015625</LatitudeDegrees>
              <LongitudeDegrees>-72.98361145891249179840087890625</LongitudeDegrees>
            </Position>
            <AltitudeMeters>511.79998779296875</AltitudeMeters>
            <DistanceMeters>11866.281614387</DistanceMeters>
          </Trackpoint>
          <Trackpoint>
            <Time>2023-01-11T19:16:58.000Z</Time>
            <Position>
              <LatitudeDegrees>-49.2316401936113834381103515625</LatitudeDegrees>
              <LongitudeDegrees>-72.98359620384871959686279296875</LongitudeDegrees>
            </Position>
            <AltitudeMeters>512.20001220703125</AltitudeMeters>
            <DistanceMeters>11867.429826546</DistanceMeters>
          </Trackpoint>
          <Trackpoint>
            <Time>2023-01-11T19:17:00.000Z</Time>
            <Position>
              <LatitudeDegrees>-49.2316448874771595001220703125</LatitudeDegrees>
              <LongitudeDegrees>-72.98356401734054088592529296875</LongitudeDegrees>
            </Position>
            <AltitudeMeters>512.20001220703125</AltitudeMeters>
            <DistanceMeters>11869.826309097</DistanceMeters>
          </Trackpoint>
          <Trackpoint>
            <Time>2023-01-11T19:17:02.000Z</Time>
            <Position>
              <LatitudeDegrees>-49.23164329491555690765380859375</LatitudeDegrees>
              <LongitudeDegrees>-72.98353300429880619049072265625</LongitudeDegrees>
            </Position>
            <AltitudeMeters>512.79998779296875</AltitudeMeters>
            <DistanceMeters>11872.08706633</DistanceMeters>
          </Trackpoint>
          <Trackpoint>
            <Time>2023-01-11T19:17:03.000Z</Time>
            <Position>
              <LatitudeDegrees>-49.23164748586714267730712890625</LatitudeDegrees>
              <LongitudeDegrees>-72.983523197472095489501953125</LongitudeDegrees>
            </Position>
            <AltitudeMeters>512.79998779296875</AltitudeMeters>
            <DistanceMeters>11872.937011102</DistanceMeters>
          </Trackpoint>
          <Trackpoint>
            <Time>2023-01-11T19:17:05.000Z</Time>
            <Position>
              <LatitudeDegrees>-49.23165343701839447021484375</LatitudeDegrees>
              <LongitudeDegrees>-72.98348598182201385498046875</LongitudeDegrees>
            </Position>
            <AltitudeMeters>513</AltitudeMeters>
            <DistanceMeters>11875.720499128</DistanceMeters>
          </Trackpoint>
          <Trackpoint>
            <Time>2023-01-11T19:17:07.000Z</Time>
            <Position>
              <LatitudeDegrees>-49.23166089691221714019775390625</LatitudeDegrees>
              <LongitudeDegrees>-72.98345924355089664459228515625</LongitudeDegrees>
            </Position>
            <AltitudeMeters>513</AltitudeMeters>
            <DistanceMeters>11877.836844543</DistanceMeters>
          </Trackpoint>
          <Trackpoint>
            <Time>2023-01-11T19:17:11.000Z</Time>
            <Position>
              <LatitudeDegrees>-49.2316666804254055023193359375</LatitudeDegrees>
              <LongitudeDegrees>-72.9833875782787799835205078125</LongitudeDegrees>
            </Position>
            <AltitudeMeters>512.79998779296875</AltitudeMeters>
            <DistanceMeters>11883.084866376</DistanceMeters>
          </Trackpoint>
          <Trackpoint>
            <Time>2023-01-11T19:17:14.000Z</Time>
            <Position>
              <LatitudeDegrees>-49.23167355358600616455078125</LatitudeDegrees>
              <LongitudeDegrees>-72.9833351075649261474609375</LongitudeDegrees>
            </Position>
            <AltitudeMeters>512.79998779296875</AltitudeMeters>
            <DistanceMeters>11886.975163038</DistanceMeters>
          </Trackpoint>
          <Trackpoint>
            <Time>2023-01-11T19:17:23.000Z</Time>
            <Position>
              <LatitudeDegrees>-49.23170708119869232177734375</LatitudeDegrees>
              <LongitudeDegrees>-72.9831968061625957489013671875</LongitudeDegrees>
            </Position>
            <AltitudeMeters>513</AltitudeMeters>
            <DistanceMeters>11897.697613004</DistanceMeters>
          </Trackpoint>
          <Trackpoint>
            <Time>2023-01-11T19:17:27.000Z</Time>
            <Position>
              <LatitudeDegrees>-49.231724180281162261962890625</LatitudeDegrees>
              <LongitudeDegrees>-72.98313721083104610443115234375</LongitudeDegrees>
            </Position>
            <AltitudeMeters>512.79998779296875</AltitudeMeters>
            <DistanceMeters>11902.427996649</DistanceMeters>
          </Trackpoint>
          <Trackpoint>
            <Time>2023-01-11T19:17:31.000Z</Time>
            <Position>
              <LatitudeDegrees>-49.23174069263041019439697265625</LatitudeDegrees>
              <LongitudeDegrees>-72.9830740951001644134521484375</LongitudeDegrees>
            </Position>
            <AltitudeMeters>512.5999755859375</AltitudeMeters>
            <DistanceMeters>11907.369385796</DistanceMeters>
          </Trackpoint>
          <Trackpoint>
            <Time>2023-01-11T19:17:37.000Z</Time>
            <Position>
              <LatitudeDegrees>-49.2317585460841655731201171875</LatitudeDegrees>
              <LongitudeDegrees>-72.98302690498530864715576171875</LongitudeDegrees>
            </Position>
            <AltitudeMeters>512.5999755859375</AltitudeMeters>
            <DistanceMeters>11911.333264328</DistanceMeters>
          </Trackpoint>
          <Trackpoint>
            <Time>2023-01-11T19:17:45.000Z</Time>
            <Position>
              <LatitudeDegrees>-49.23175510950386524200439453125</LatitudeDegrees>
              <LongitudeDegrees>-72.98293001018464565277099609375</LongitudeDegrees>
            </Position>
            <AltitudeMeters>513</AltitudeMeters>
            <DistanceMeters>11918.385757579</DistanceMeters>
          </Trackpoint>
          <Trackpoint>
            <Time>2023-01-11T19:17:46.000Z</Time>
            <Position>
              <LatitudeDegrees>-49.23175779171288013458251953125</LatitudeDegrees>
              <LongitudeDegrees>-72.9829161800444126129150390625</LongitudeDegrees>
            </Position>
            <AltitudeMeters>513</AltitudeMeters>
            <DistanceMeters>11919.435361945</DistanceMeters>
          </Trackpoint>
          <Trackpoint>
            <Time>2023-01-11T19:17:49.000Z</Time>
            <Position>
              <LatitudeDegrees>-49.23177153803408145904541015625</LatitudeDegrees>
              <LongitudeDegrees>-72.9829349555075168609619140625</LongitudeDegrees>
            </Position>
            <AltitudeMeters>513</AltitudeMeters>
            <DistanceMeters>11921.484504582</DistanceMeters>
          </Trackpoint>
          <Trackpoint>
            <Time>2023-01-11T19:17:58.000Z</Time>
            <Position>
              <LatitudeDegrees>-49.2317981086671352386474609375</LatitudeDegrees>
              <LongitudeDegrees>-72.98301718197762966156005859375</LongitudeDegrees>
            </Position>
            <AltitudeMeters>512.4000244140625</AltitudeMeters>
            <DistanceMeters>11928.152644983</DistanceMeters>
          </Trackpoint>
          <Trackpoint>
            <Time>2023-01-11T19:18:10.000Z</Time>
            <Position>
              <LatitudeDegrees>-49.23180188052356243133544921875</LatitudeDegrees>
              <LongitudeDegrees>-72.98302254639565944671630859375</LongitudeDegrees>
            </Position>
            <AltitudeMeters>512.5999755859375</AltitudeMeters>
            <DistanceMeters>11928.730669921</DistanceMeters>
          </Trackpoint>
          <Trackpoint>
            <Time>2023-01-11T19:18:17.000Z</Time>
            <Position>
              <LatitudeDegrees>-49.231799952685832977294921875</LatitudeDegrees>
              <LongitudeDegrees>-72.983020953834056854248046875</LongitudeDegrees>
            </Position>
            <AltitudeMeters>512.4000244140625</AltitudeMeters>
            <DistanceMeters>11928.982086975</DistanceMeters>
          </Trackpoint>
          <Trackpoint>
            <Time>2023-01-11T19:18:25.000Z</Time>
            <Position>
              <LatitudeDegrees>-49.23179919831454753875732421875</LatitudeDegrees>
              <LongitudeDegrees>-72.9830211214721202850341796875</LongitudeDegrees>
            </Position>
            <AltitudeMeters>512.4000244140625</AltitudeMeters>
            <DistanceMeters>11929.077113689</DistanceMeters>
          </Trackpoint>
          <Trackpoint>
            <Time>2023-01-11T19:18:32.000Z</Time>
            <Position>
              <LatitudeDegrees>-49.2317997850477695465087890625</LatitudeDegrees>
              <LongitudeDegrees>-72.98302464187145233154296875</LongitudeDegrees>
            </Position>
            <AltitudeMeters>512.4000244140625</AltitudeMeters>
            <DistanceMeters>11929.345889826</DistanceMeters>
          </Trackpoint>
          <Trackpoint>
            <Time>2023-01-11T19:19:02.000Z</Time>
            <Position>
              <LatitudeDegrees>-49.2318359948694705963134765625</LatitudeDegrees>
              <LongitudeDegrees>-72.98304735682904720306396484375</LongitudeDegrees>
            </Position>
            <AltitudeMeters>512.4000244140625</AltitudeMeters>
            <DistanceMeters>11933.701597645</DistanceMeters>
          </Trackpoint>
          <Trackpoint>
            <Time>2023-01-11T19:19:12.000Z</Time>
            <Position>
              <LatitudeDegrees>-49.23184144310653209686279296875</LatitudeDegrees>
              <LongitudeDegrees>-72.98304752446711063385009765625</LongitudeDegrees>
            </Position>
            <AltitudeMeters>512.4000244140625</AltitudeMeters>
            <DistanceMeters>11934.317441141</DistanceMeters>
          </Trackpoint>
          <Trackpoint>
            <Time>2023-01-11T19:19:25.000Z</Time>
            <Position>
              <LatitudeDegrees>-49.2318393476307392120361328125</LatitudeDegrees>
              <LongitudeDegrees>-72.98301517032086849212646484375</LongitudeDegrees>
            </Position>
            <AltitudeMeters>512.4000244140625</AltitudeMeters>
            <DistanceMeters>11936.679767799</DistanceMeters>
          </Trackpoint>
          <Trackpoint>
            <Time>2023-01-11T19:19:29.000Z</Time>
            <Position>
              <LatitudeDegrees>-49.23183892853558063507080078125</LatitudeDegrees>
              <LongitudeDegrees>-72.9829416610300540924072265625</LongitudeDegrees>
            </Position>
            <AltitudeMeters>512.4000244140625</AltitudeMeters>
            <DistanceMeters>11942.022433018</DistanceMeters>
          </Trackpoint>
          <Trackpoint>
            <Time>2023-01-11T19:19:32.000Z</Time>
            <Position>
              <LatitudeDegrees>-49.23184663988649845123291015625</LatitudeDegrees>
              <LongitudeDegrees>-72.98288139514625072479248046875</LongitudeDegrees>
            </Position>
            <AltitudeMeters>512.4000244140625</AltitudeMeters>
            <DistanceMeters>11946.487677557</DistanceMeters>
          </Trackpoint>
          <Trackpoint>
            <Time>2023-01-11T19:19:35.000Z</Time>
            <Position>
              <LatitudeDegrees>-49.23186440952122211456298828125</LatitudeDegrees>
              <LongitudeDegrees>-72.98285423777997493743896484375</LongitudeDegrees>
            </Position>
            <AltitudeMeters>512.4000244140625</AltitudeMeters>
            <DistanceMeters>11949.282497072</DistanceMeters>
          </Trackpoint>
          <Trackpoint>
            <Time>2023-01-11T19:19:41.000Z</Time>
            <Position>
              <LatitudeDegrees>-49.23190330155193805694580078125</LatitudeDegrees>
              <LongitudeDegrees>-72.9828093945980072021484375</LongitudeDegrees>
            </Position>
            <AltitudeMeters>512.4000244140625</AltitudeMeters>
            <DistanceMeters>11954.701519917</DistanceMeters>
          </Trackpoint>
          <Trackpoint>
            <Time>2023-01-11T19:19:44.000Z</Time>
            <Position>
              <LatitudeDegrees>-49.23191805370151996612548828125</LatitudeDegrees>
              <LongitudeDegrees>-72.9827785491943359375</LongitudeDegrees>
            </Position>
            <AltitudeMeters>512.4000244140625</AltitudeMeters>
            <DistanceMeters>11957.481761891</DistanceMeters>
          </Trackpoint>
          <Trackpoint>
            <Time>2023-01-11T19:19:51.000Z</Time>
            <Position>
              <LatitudeDegrees>-49.231968931853771209716796875</LatitudeDegrees>
              <LongitudeDegrees>-72.982674948871135711669921875</LongitudeDegrees>
            </Position>
            <AltitudeMeters>512.4000244140625</AltitudeMeters>
            <DistanceMeters>11966.9037936</DistanceMeters>
          </Trackpoint>
          <Trackpoint>
            <Time>2023-01-11T19:19:56.000Z</Time>
            <Position>
              <LatitudeDegrees>-49.23200271092355251312255859375</LatitudeDegrees>
              <LongitudeDegrees>-72.9825718514621257781982421875</LongitudeDegrees>
            </Position>
            <AltitudeMeters>512.4000244140625</AltitudeMeters>
            <DistanceMeters>11975.287713628</DistanceMeters>
          </Trackpoint>
          <Trackpoint>
            <Time>2023-01-11T19:19:57.000Z</Time>
            <Position>
              <LatitudeDegrees>-49.23201343975961208343505859375</LatitudeDegrees>
              <LongitudeDegrees>-72.98256506212055683135986328125</LongitudeDegrees>
            </Position>
            <AltitudeMeters>512.4000244140625</AltitudeMeters>
            <DistanceMeters>11976.580216681</DistanceMeters>
          </Trackpoint>
          <Trackpoint>
            <Time>2023-01-11T19:19:59.000Z</Time>
            <Position>
              <LatitudeDegrees>-49.23202550970017910003662109375</LatitudeDegrees>
              <LongitudeDegrees>-72.9825369827449321746826171875</LongitudeDegrees>
            </Position>
            <AltitudeMeters>512.4000244140625</AltitudeMeters>
            <DistanceMeters>11979.025193288</DistanceMeters>
          </Trackpoint>
          <Trackpoint>
            <Time>2023-01-11T19:20:03.000Z</Time>
            <Position>
              <LatitudeDegrees>-49.2320193909108638763427734375</LatitudeDegrees>
              <LongitudeDegrees>-72.98248643986880779266357421875</LongitudeDegrees>
            </Position>
            <AltitudeMeters>512.4000244140625</AltitudeMeters>
            <DistanceMeters>11982.761568293</DistanceMeters>
          </Trackpoint>
          <Trackpoint>
            <Time>2023-01-11T19:20:08.000Z</Time>
            <Position>
              <LatitudeDegrees>-49.23204193823039531707763671875</LatitudeDegrees>
              <LongitudeDegrees>-72.9824052192270755767822265625</LongitudeDegrees>
            </Position>
            <AltitudeMeters>512.4000244140625</AltitudeMeters>
            <DistanceMeters>11989.176399418</DistanceMeters>
          </Trackpoint>
          <Trackpoint>
            <Time>2023-01-11T19:20:09.000Z</Time>
            <Position>
              <LatitudeDegrees>-49.23206071369349956512451171875</LatitudeDegrees>
              <LongitudeDegrees>-72.9823988489806652069091796875</LongitudeDegrees>
            </Position>
            <AltitudeMeters>512.4000244140625</AltitudeMeters>
            <DistanceMeters>11991.318192786</DistanceMeters>
          </Trackpoint>
          <Trackpoint>
            <Time>2023-01-11T19:20:16.000Z</Time>
            <Position>
              <LatitudeDegrees>-49.232110418379306793212890625</LatitudeDegrees>
              <LongitudeDegrees>-72.9822821728885173797607421875</LongitudeDegrees>
            </Position>
            <AltitudeMeters>512.4000244140625</AltitudeMeters>
            <DistanceMeters>12001.442886747</DistanceMeters>
          </Trackpoint>
          <Trackpoint>
            <Time>2023-01-11T19:20:21.000Z</Time>
            <Position>
              <LatitudeDegrees>-49.23214495182037353515625</LatitudeDegrees>
              <LongitudeDegrees>-72.9822112619876861572265625</LongitudeDegrees>
            </Position>
            <AltitudeMeters>512.4000244140625</AltitudeMeters>
            <DistanceMeters>12007.872481599</DistanceMeters>
          </Trackpoint>
          <Trackpoint>
            <Time>2023-01-11T19:20:23.000Z</Time>
            <Position>
              <LatitudeDegrees>-49.23215928487479686737060546875</LatitudeDegrees>
              <LongitudeDegrees>-72.9821889661252498626708984375</LongitudeDegrees>
            </Position>
            <AltitudeMeters>512.4000244140625</AltitudeMeters>
            <DistanceMeters>12010.145190055</DistanceMeters>
          </Trackpoint>
          <Trackpoint>
            <Time>2023-01-11T19:20:26.000Z</Time>
            <Position>
              <LatitudeDegrees>-49.23218459822237491607666015625</LatitudeDegrees>
              <LongitudeDegrees>-72.9821473918855190277099609375</LongitudeDegrees>
            </Position>
            <AltitudeMeters>512.4000244140625</AltitudeMeters>
            <DistanceMeters>12014.276393811</DistanceMeters>
          </Trackpoint>
          <Trackpoint>
            <Time>2023-01-11T19:20:28.000Z</Time>
            <Position>
              <LatitudeDegrees>-49.23220270313322544097900390625</LatitudeDegrees>
              <LongitudeDegrees>-72.982114367187023162841796875</LongitudeDegrees>
            </Position>
            <AltitudeMeters>512.4000244140625</AltitudeMeters>
            <DistanceMeters>12017.410835256</DistanceMeters>
          </Trackpoint>
          <Trackpoint>
            <Time>2023-01-11T19:20:33.000Z</Time>
            <Position>
              <LatitudeDegrees>-49.232243187725543975830078125</LatitudeDegrees>
              <LongitudeDegrees>-72.98206432722508907318115234375</LongitudeDegrees>
            </Position>
            <AltitudeMeters>512.4000244140625</AltitudeMeters>
            <DistanceMeters>12023.20123022</DistanceMeters>
          </Trackpoint>
          <Trackpoint>
            <Time>2023-01-11T19:20:36.000Z</Time>
            <Position>
              <LatitudeDegrees>-49.23226254992187023162841796875</LatitudeDegrees>
              <LongitudeDegrees>-72.98203800804913043975830078125</LongitudeDegrees>
            </Position>
            <AltitudeMeters>512.4000244140625</AltitudeMeters>
            <DistanceMeters>12026.081966281</DistanceMeters>
          </Trackpoint>
          <Trackpoint>
            <Time>2023-01-11T19:20:40.000Z</Time>
            <Position>
              <LatitudeDegrees>-49.23227579332888126373291015625</LatitudeDegrees>
              <LongitudeDegrees>-72.98200028948485851287841796875</LongitudeDegrees>
            </Position>
            <AltitudeMeters>512.4000244140625</AltitudeMeters>
            <DistanceMeters>12029.193275</DistanceMeters>
          </Trackpoint>
          <Trackpoint>
            <Time>2023-01-11T19:20:42.000Z</Time>
            <Position>
              <LatitudeDegrees>-49.232276380062103271484375</LatitudeDegrees>
              <LongitudeDegrees>-72.98196374438703060150146484375</LongitudeDegrees>
            </Position>
            <AltitudeMeters>512.4000244140625</AltitudeMeters>
            <DistanceMeters>12031.850627024</DistanceMeters>
          </Trackpoint>
          <Trackpoint>
            <Time>2023-01-11T19:20:45.000Z</Time>
            <Position>
              <LatitudeDegrees>-49.23228853382170200347900390625</LatitudeDegrees>
              <LongitudeDegrees>-72.9819009639322757720947265625</LongitudeDegrees>
            </Position>
            <AltitudeMeters>512.4000244140625</AltitudeMeters>
            <DistanceMeters>12036.610507464</DistanceMeters>
          </Trackpoint>
          <Trackpoint>
            <Time>2023-01-11T19:20:46.000Z</Time>
            <Position>
              <LatitudeDegrees>-49.2322980053722858428955078125</LatitudeDegrees>
              <LongitudeDegrees>-72.98186986707150936126708984375</LongitudeDegrees>
            </Position>
            <AltitudeMeters>512.4000244140625</AltitudeMeters>
            <DistanceMeters>12039.106655045</DistanceMeters>
          </Trackpoint>
          <Trackpoint>
            <Time>2023-01-11T19:20:49.000Z</Time>
            <Position>
              <LatitudeDegrees>-49.23231921158730983734130859375</LatitudeDegrees>
              <LongitudeDegrees>-72.981814630329608917236328125</LongitudeDegrees>
            </Position>
            <AltitudeMeters>512.4000244140625</AltitudeMeters>
            <DistanceMeters>12043.763933608</DistanceMeters>
          </Trackpoint>
          <Trackpoint>
            <Time>2023-01-11T19:20:55.000Z</Time>
            <Position>
              <LatitudeDegrees>-49.23236045055091381072998046875</LatitudeDegrees>
              <LongitudeDegrees>-72.981707341969013214111328125</LongitudeDegrees>
            </Position>
            <AltitudeMeters>512.4000244140625</AltitudeMeters>
            <DistanceMeters>12052.812452996</DistanceMeters>
          </Trackpoint>
          <Trackpoint>
            <Time>2023-01-11T19:20:58.000Z</Time>
            <Position>
              <LatitudeDegrees>-49.2323794774711132049560546875</LatitudeDegrees>
              <LongitudeDegrees>-72.9816806875169277191162109375</LongitudeDegrees>
            </Position>
            <AltitudeMeters>512.4000244140625</AltitudeMeters>
            <DistanceMeters>12055.682196838</DistanceMeters>
          </Trackpoint>
          <Trackpoint>
            <Time>2023-01-11T19:21:02.000Z</Time>
            <Position>
              <LatitudeDegrees>-49.232378639280796051025390625</LatitudeDegrees>
              <LongitudeDegrees>-72.9816260375082492828369140625</LongitudeDegrees>
            </Position>
            <AltitudeMeters>512.4000244140625</AltitudeMeters>
            <DistanceMeters>12059.655177284</DistanceMeters>
          </Trackpoint>
          <Trackpoint>
            <Time>2023-01-11T19:21:09.000Z</Time>
            <Position>
              <LatitudeDegrees>-49.23236246220767498016357421875</LatitudeDegrees>
              <LongitudeDegrees>-72.9815033264458179473876953125</LongitudeDegrees>
            </Position>
            <AltitudeMeters>512.4000244140625</AltitudeMeters>
            <DistanceMeters>12068.753457933</DistanceMeters>
          </Trackpoint>
          <Trackpoint>
            <Time>2023-01-11T19:21:13.000Z</Time>
            <Position>
              <LatitudeDegrees>-49.23236564733088016510009765625</LatitudeDegrees>
              <LongitudeDegrees>-72.98144322820007801055908203125</LongitudeDegrees>
            </Position>
            <AltitudeMeters>512.4000244140625</AltitudeMeters>
            <DistanceMeters>12073.136033956</DistanceMeters>
          </Trackpoint>
          <Trackpoint>
            <Time>2023-01-11T19:21:16.000Z</Time>
            <Position>
              <LatitudeDegrees>-49.23235977999866008758544921875</LatitudeDegrees>
              <LongitudeDegrees>-72.9814074374735355377197265625</LongitudeDegrees>
            </Position>
            <AltitudeMeters>512.4000244140625</AltitudeMeters>
            <DistanceMeters>12075.817067497</DistanceMeters>
          </Trackpoint>
          <Trackpoint>
            <Time>2023-01-11T19:21:23.000Z</Time>
            <Position>
              <LatitudeDegrees>-49.23231284134089946746826171875</LatitudeDegrees>
              <LongitudeDegrees>-72.98127911053597927093505859375</LongitudeDegrees>
            </Position>
            <AltitudeMeters>512.4000244140625</AltitudeMeters>
            <DistanceMeters>12086.507044924</DistanceMeters>
          </Trackpoint>
          <Trackpoint>
            <Time>2023-01-11T19:21:30.000Z</Time>
            <Position>
              <LatitudeDegrees>-49.23230613581836223602294921875</LatitudeDegrees>
              <LongitudeDegrees>-72.981142736971378326416015625</LongitudeDegrees>
            </Position>
            <AltitudeMeters>512.4000244140625</AltitudeMeters>
            <DistanceMeters>12096.446766569</DistanceMeters>
          </Trackpoint>
          <Trackpoint>
            <Time>2023-01-11T19:21:40.000Z</Time>
            <Position>
              <LatitudeDegrees>-49.2323704250156879425048828125</LatitudeDegrees>
              <LongitudeDegrees>-72.98095204867422580718994140625</LongitudeDegrees>
            </Position>
            <AltitudeMeters>512.4000244140625</AltitudeMeters>
            <DistanceMeters>12112.043890002</DistanceMeters>
          </Trackpoint>
          <Trackpoint>
            <Time>2023-01-11T19:21:41.000Z</Time>
            <Position>
              <LatitudeDegrees>-49.23237184993922710418701171875</LatitudeDegrees>
              <LongitudeDegrees>-72.98094651661813259124755859375</LongitudeDegrees>
            </Position>
            <AltitudeMeters>512.4000244140625</AltitudeMeters>
            <DistanceMeters>12112.468862389</DistanceMeters>
          </Trackpoint>
          <Trackpoint>
            <Time>2023-01-11T19:21:49.000Z</Time>
            <Position>
              <LatitudeDegrees>-49.23236128874123096466064453125</LatitudeDegrees>
              <LongitudeDegrees>-72.98079715110361576080322265625</LongitudeDegrees>
            </Position>
            <AltitudeMeters>512.4000244140625</AltitudeMeters>
            <DistanceMeters>12123.388254742</DistanceMeters>
          </Trackpoint>
          <Trackpoint>
            <Time>2023-01-11T19:21:54.000Z</Time>
            <Position>
              <LatitudeDegrees>-49.232352487742900848388671875</LatitudeDegrees>
              <LongitudeDegrees>-72.98072271980345249176025390625</LongitudeDegrees>
            </Position>
            <AltitudeMeters>512.4000244140625</AltitudeMeters>
            <DistanceMeters>12128.885038873</DistanceMeters>
          </Trackpoint>
          <Trackpoint>
            <Time>2023-01-11T19:21:57.000Z</Time>
            <Position>
              <LatitudeDegrees>-49.2323715984821319580078125</LatitudeDegrees>
              <LongitudeDegrees>-72.9806648008525371551513671875</LongitudeDegrees>
            </Position>
            <AltitudeMeters>512.4000244140625</AltitudeMeters>
            <DistanceMeters>12133.600126168</DistanceMeters>
          </Trackpoint>
          <Trackpoint>
            <Time>2023-01-11T19:22:02.000Z</Time>
            <Position>
              <LatitudeDegrees>-49.23237704671919345855712890625</LatitudeDegrees>
              <LongitudeDegrees>-72.9805786348879337310791015625</LongitudeDegrees>
            </Position>
            <AltitudeMeters>512.4000244140625</AltitudeMeters>
            <DistanceMeters>12139.89201421</DistanceMeters>
          </Trackpoint>
          <Trackpoint>
            <Time>2023-01-11T19:22:05.000Z</Time>
            <Position>
              <LatitudeDegrees>-49.23240470699965953826904296875</LatitudeDegrees>
              <LongitudeDegrees>-72.9805330373346805572509765625</LongitudeDegrees>
            </Position>
            <AltitudeMeters>512.4000244140625</AltitudeMeters>
            <DistanceMeters>12144.416523388</DistanceMeters>
          </Trackpoint>
          <Trackpoint>
            <Time>2023-01-11T19:22:09.000Z</Time>
            <Position>
              <LatitudeDegrees>-49.2324381507933139801025390625</LatitudeDegrees>
              <LongitudeDegrees>-72.98048534430563449859619140625</LongitudeDegrees>
            </Position>
            <AltitudeMeters>512.4000244140625</AltitudeMeters>
            <DistanceMeters>12149.503781892</DistanceMeters>
          </Trackpoint>
          <Trackpoint>
            <Time>2023-01-11T19:22:13.000Z</Time>
            <Position>
              <LatitudeDegrees>-49.23243152908980846405029296875</LatitudeDegrees>
              <LongitudeDegrees>-72.98040906898677349090576171875</LongitudeDegrees>
            </Position>
            <AltitudeMeters>512.4000244140625</AltitudeMeters>
            <DistanceMeters>12155.095843652</DistanceMeters>
          </Trackpoint>
          <Trackpoint>
            <Time>2023-01-11T19:22:19.000Z</Time>
            <Position>
              <LatitudeDegrees>-49.23246220685541629791259765625</LatitudeDegrees>
              <LongitudeDegrees>-72.98024226911365985870361328125</LongitudeDegrees>
            </Position>
            <AltitudeMeters>512.4000244140625</AltitudeMeters>
            <DistanceMeters>12167.690379086</DistanceMeters>
          </Trackpoint>
          <Trackpoint>
            <Time>2023-01-11T19:22:21.000Z</Time>
            <Position>
              <LatitudeDegrees>-49.23246891237795352935791015625</LatitudeDegrees>
              <LongitudeDegrees>-72.98020698130130767822265625</LongitudeDegrees>
            </Position>
            <AltitudeMeters>512.4000244140625</AltitudeMeters>
            <DistanceMeters>12170.361289117</DistanceMeters>
          </Trackpoint>
          <Trackpoint>
            <Time>2023-01-11T19:22:29.000Z</Time>
            <Position>
              <LatitudeDegrees>-49.232442341744899749755859375</LatitudeDegrees>
              <LongitudeDegrees>-72.98010732047259807586669921875</LongitudeDegrees>
            </Position>
            <AltitudeMeters>512.4000244140625</AltitudeMeters>
            <DistanceMeters>12178.18470641</DistanceMeters>
          </Trackpoint>
          <Trackpoint>
            <Time>2023-01-11T19:22:36.000Z</Time>
            <Position>
              <LatitudeDegrees>-49.23243395984172821044921875</LatitudeDegrees>
              <LongitudeDegrees>-72.97996482811868190765380859375</LongitudeDegrees>
            </Position>
            <AltitudeMeters>512.4000244140625</AltitudeMeters>
            <DistanceMeters>12188.583078173</DistanceMeters>
          </Trackpoint>
          <Trackpoint>
            <Time>2023-01-11T19:22:38.000Z</Time>
            <Position>
              <LatitudeDegrees>-49.23244678415358066558837890625</LatitudeDegrees>
              <LongitudeDegrees>-72.97995795495808124542236328125</LongitudeDegrees>
            </Position>
            <AltitudeMeters>512.4000244140625</AltitudeMeters>
            <DistanceMeters>12190.097554788</DistanceMeters>
          </Trackpoint>
          <Trackpoint>
            <Time>2023-01-11T19:22:47.000Z</Time>
            <Position>
              <LatitudeDegrees>-49.23245281912386417388916015625</LatitudeDegrees>
              <LongitudeDegrees>-72.9798970185220241546630859375</LongitudeDegrees>
            </Position>
            <AltitudeMeters>512.4000244140625</AltitudeMeters>
            <DistanceMeters>12194.576933078</DistanceMeters>
          </Trackpoint>
          <Trackpoint>
            <Time>2023-01-11T19:22:56.000Z</Time>
            <Position>
              <LatitudeDegrees>-49.232431948184967041015625</LatitudeDegrees>
              <LongitudeDegrees>-72.9798712022602558135986328125</LongitudeDegrees>
            </Position>
            <AltitudeMeters>512.4000244140625</AltitudeMeters>
            <DistanceMeters>12197.563857169</DistanceMeters>
          </Trackpoint>
          <Trackpoint>
            <Time>2023-01-11T19:23:03.000Z</Time>
            <Position>
              <LatitudeDegrees>-49.23243856988847255706787109375</LatitudeDegrees>
              <LongitudeDegrees>-72.97982216812670230865478515625</LongitudeDegrees>
            </Position>
            <AltitudeMeters>512.4000244140625</AltitudeMeters>
            <DistanceMeters>12201.203516788</DistanceMeters>
          </Trackpoint>
          <Trackpoint>
            <Time>2023-01-11T19:23:13.000Z</Time>
            <Position>
              <LatitudeDegrees>-49.23246690072119235992431640625</LatitudeDegrees>
              <LongitudeDegrees>-72.97968688420951366424560546875</LongitudeDegrees>
            </Position>
            <AltitudeMeters>512.4000244140625</AltitudeMeters>
            <DistanceMeters>12211.529121495</DistanceMeters>
          </Trackpoint>
          <Trackpoint>
            <Time>2023-01-11T19:23:21.000Z</Time>
            <Position>
              <LatitudeDegrees>-49.23246748745441436767578125</LatitudeDegrees>
              <LongitudeDegrees>-72.979515977203845977783203125</LongitudeDegrees>
            </Position>
            <AltitudeMeters>512.4000244140625</AltitudeMeters>
            <DistanceMeters>12223.950752475</DistanceMeters>
          </Trackpoint>
          <Trackpoint>
            <Time>2023-01-11T19:23:27.000Z</Time>
            <Position>
              <LatitudeDegrees>-49.232478551566600799560546875</LatitudeDegrees>
              <LongitudeDegrees>-72.97941380180418491363525390625</LongitudeDegrees>
            </Position>
            <AltitudeMeters>512.4000244140625</AltitudeMeters>
            <DistanceMeters>12231.477684095</DistanceMeters>
          </Trackpoint>
          <Trackpoint>
            <Time>2023-01-11T19:23:32.000Z</Time>
            <Position>
              <LatitudeDegrees>-49.23250327818095684051513671875</LatitudeDegrees>
              <LongitudeDegrees>-72.97932595945894718170166015625</LongitudeDegrees>
            </Position>
            <AltitudeMeters>512.4000244140625</AltitudeMeters>
            <DistanceMeters>12238.429588088</DistanceMeters>
          </Trackpoint>
          <Trackpoint>
            <Time>2023-01-11T19:23:36.000Z</Time>
            <Position>
              <LatitudeDegrees>-49.23253412358462810516357421875</LatitudeDegrees>
              <LongitudeDegrees>-72.97925747931003570556640625</LongitudeDegrees>
            </Position>
            <AltitudeMeters>512.4000244140625</AltitudeMeters>
            <DistanceMeters>12244.475557774</DistanceMeters>
          </Trackpoint>
          <Trackpoint>
            <Time>2023-01-11T19:23:37.000Z</Time>
            <Position>
              <LatitudeDegrees>-49.2325373925268650054931640625</LatitudeDegrees>
              <LongitudeDegrees>-72.97923744656145572662353515625</LongitudeDegrees>
            </Position>
            <AltitudeMeters>512.4000244140625</AltitudeMeters>
            <DistanceMeters>12245.978062054</DistanceMeters>
          </Trackpoint>
          <Trackpoint>
            <Time>2023-01-11T19:23:42.000Z</Time>
            <Position>
              <LatitudeDegrees>-49.23254049383103847503662109375</LatitudeDegrees>
              <LongitudeDegrees>-72.97912546433508396148681640625</LongitudeDegrees>
            </Position>
            <AltitudeMeters>512.4000244140625</AltitudeMeters>
            <DistanceMeters>12254.123797239</DistanceMeters>
          </Trackpoint>
          <Trackpoint>
            <Time>2023-01-11T19:23:45.000Z</Time>
            <Position>
              <LatitudeDegrees>-49.23253563232719898223876953125</LatitudeDegrees>
              <LongitudeDegrees>-72.97906511463224887847900390625</LongitudeDegrees>
            </Position>
            <AltitudeMeters>512.4000244140625</AltitudeMeters>
            <DistanceMeters>12258.543305735</DistanceMeters>
          </Trackpoint>
          <Trackpoint>
            <Time>2023-01-11T19:23:53.000Z</Time>
            <Position>
              <LatitudeDegrees>-49.2325749434530735015869140625</LatitudeDegrees>
              <LongitudeDegrees>-72.97887794673442840576171875</LongitudeDegrees>
            </Position>
            <AltitudeMeters>512.4000244140625</AltitudeMeters>
            <DistanceMeters>12272.832745492</DistanceMeters>
          </Trackpoint>
          <Trackpoint>
            <Time>2023-01-11T19:23:56.000Z</Time>
            <Position>
              <LatitudeDegrees>-49.232583157718181610107421875</LatitudeDegrees>
              <LongitudeDegrees>-72.9788325168192386627197265625</LongitudeDegrees>
            </Position>
            <AltitudeMeters>512.4000244140625</AltitudeMeters>
            <DistanceMeters>12276.258982404</DistanceMeters>
          </Trackpoint>
          <Trackpoint>
            <Time>2023-01-11T19:23:59.000Z</Time>
            <Position>
              <LatitudeDegrees>-49.2325870133936405181884765625</LatitudeDegrees>
              <LongitudeDegrees>-72.978777028620243072509765625</LongitudeDegrees>
            </Position>
            <AltitudeMeters>512.4000244140625</AltitudeMeters>
            <DistanceMeters>12280.315187438</DistanceMeters>
          </Trackpoint>
          <Trackpoint>
            <Time>2023-01-11T19:24:01.000Z</Time>
            <Position>
              <LatitudeDegrees>-49.23257536254823207855224609375</LatitudeDegrees>
              <LongitudeDegrees>-72.97875816933810710906982421875</LongitudeDegrees>
            </Position>
            <AltitudeMeters>512.4000244140625</AltitudeMeters>
            <DistanceMeters>12282.201413861</DistanceMeters>
          </Trackpoint>
          <Trackpoint>
            <Time>2023-01-11T19:24:07.000Z</Time>
            <Position>
              <LatitudeDegrees>-49.2325861752033233642578125</LatitudeDegrees>
              <LongitudeDegrees>-72.97858156263828277587890625</LongitudeDegrees>
            </Position>
            <AltitudeMeters>512.4000244140625</AltitudeMeters>
            <DistanceMeters>12295.09356601</DistanceMeters>
          </Trackpoint>
          <Trackpoint>
            <Time>2023-01-11T19:24:08.000Z</Time>
            <Position>
              <LatitudeDegrees>-49.23258726485073566436767578125</LatitudeDegrees>
              <LongitudeDegrees>-72.97854795120656490325927734375</LongitudeDegrees>
            </Position>
            <AltitudeMeters>512.4000244140625</AltitudeMeters>
            <DistanceMeters>12297.540388579</DistanceMeters>
          </Trackpoint>
          <Trackpoint>
            <Time>2023-01-11T19:24:16.000Z</Time>
            <Position>
              <LatitudeDegrees>-49.2325967364013195037841796875</LatitudeDegrees>
              <LongitudeDegrees>-72.9784110747277736663818359375</LongitudeDegrees>
            </Position>
            <AltitudeMeters>512.4000244140625</AltitudeMeters>
            <DistanceMeters>12307.543953301</DistanceMeters>
          </Trackpoint>
          <Trackpoint>
            <Time>2023-01-11T19:24:23.000Z</Time>
            <Position>
              <LatitudeDegrees>-49.2325752787292003631591796875</LatitudeDegrees>
              <LongitudeDegrees>-72.97834284603595733642578125</LongitudeDegrees>
            </Position>
            <AltitudeMeters>508.600006103515625</AltitudeMeters>
            <DistanceMeters>12313.047304679</DistanceMeters>
          </Trackpoint>
          <Trackpoint>
            <Time>2023-01-11T19:24:24.000Z</Time>
            <Position>
              <LatitudeDegrees>-49.23257117159664630889892578125</LatitudeDegrees>
              <LongitudeDegrees>-72.97833186574280261993408203125</LongitudeDegrees>
            </Position>
            <AltitudeMeters>508.600006103515625</AltitudeMeters>
            <DistanceMeters>12313.963709126</DistanceMeters>
          </Trackpoint>
          <Trackpoint>
            <Time>2023-01-11T19:24:27.000Z</Time>
            <Position>
              <LatitudeDegrees>-49.232553653419017791748046875</LatitudeDegrees>
              <LongitudeDegrees>-72.9782876931130886077880859375</LongitudeDegrees>
            </Position>
            <AltitudeMeters>508.600006103515625</AltitudeMeters>
            <DistanceMeters>12317.719368775</DistanceMeters>
          </Trackpoint>
          <Trackpoint>
            <Time>2023-01-11T19:24:30.000Z</Time>
            <Position>
              <LatitudeDegrees>-49.2325223051011562347412109375</LatitudeDegrees>
              <LongitudeDegrees>-72.9782387427985668182373046875</LongitudeDegrees>
            </Position>
            <AltitudeMeters>507.79998779296875</AltitudeMeters>
            <DistanceMeters>12322.702611718</DistanceMeters>
          </Trackpoint>
          <Trackpoint>
            <Time>2023-01-11T19:24:36.000Z</Time>
            <Position>
              <LatitudeDegrees>-49.23248349688947200775146484375</LatitudeDegrees>
              <LongitudeDegrees>-72.97812961041927337646484375</LongitudeDegrees>
            </Position>
            <AltitudeMeters>507.79998779296875</AltitudeMeters>
            <DistanceMeters>12331.734149821</DistanceMeters>
          </Trackpoint>
          <Trackpoint>
            <Time>2023-01-11T19:24:39.000Z</Time>
            <Position>
              <LatitudeDegrees>-49.23248316161334514617919921875</LatitudeDegrees>
              <LongitudeDegrees>-72.97806716524064540863037109375</LongitudeDegrees>
            </Position>
            <AltitudeMeters>508</AltitudeMeters>
            <DistanceMeters>12336.27260819</DistanceMeters>
          </Trackpoint>
          <Trackpoint>
            <Time>2023-01-11T19:24:41.000Z</Time>
            <Position>
              <LatitudeDegrees>-49.23249028623104095458984375</LatitudeDegrees>
              <LongitudeDegrees>-72.97803933732211589813232421875</LongitudeDegrees>
            </Position>
            <AltitudeMeters>507.79998779296875</AltitudeMeters>
            <DistanceMeters>12338.443713877</DistanceMeters>
          </Trackpoint>
          <Trackpoint>
            <Time>2023-01-11T19:24:46.000Z</Time>
            <Position>
              <LatitudeDegrees>-49.232499338686466217041015625</LatitudeDegrees>
              <LongitudeDegrees>-72.97792232595384120941162109375</LongitudeDegrees>
            </Position>
            <AltitudeMeters>507.79998779296875</AltitudeMeters>
            <DistanceMeters>12347.007724671</DistanceMeters>
          </Trackpoint>
          <Trackpoint>
            <Time>2023-01-11T19:24:49.000Z</Time>
            <Position>
              <LatitudeDegrees>-49.23250579275190830230712890625</LatitudeDegrees>
              <LongitudeDegrees>-72.977869100868701934814453125</LongitudeDegrees>
            </Position>
            <AltitudeMeters>507.600006103515625</AltitudeMeters>
            <DistanceMeters>12350.941876552</DistanceMeters>
          </Trackpoint>
          <Trackpoint>
            <Time>2023-01-11T19:24:53.000Z</Time>
            <Position>
              <LatitudeDegrees>-49.2325011827051639556884765625</LatitudeDegrees>
              <LongitudeDegrees>-72.97779173590242862701416015625</LongitudeDegrees>
            </Position>
            <AltitudeMeters>507.600006103515625</AltitudeMeters>
            <DistanceMeters>12356.58777505</DistanceMeters>
          </Trackpoint>
          <Trackpoint>
            <Time>2023-01-11T19:24:56.000Z</Time>
            <Position>
              <LatitudeDegrees>-49.2324964888393878936767578125</LatitudeDegrees>
              <LongitudeDegrees>-72.97774580307304859161376953125</LongitudeDegrees>
            </Position>
            <AltitudeMeters>507.600006103515625</AltitudeMeters>
            <DistanceMeters>12359.966238699</DistanceMeters>
          </Trackpoint>
          <Trackpoint>
            <Time>2023-01-11T19:24:59.000Z</Time>
            <Position>
              <LatitudeDegrees>-49.2325182817876338958740234375</LatitudeDegrees>
              <LongitudeDegrees>-72.977696098387241363525390625</LongitudeDegrees>
            </Position>
            <AltitudeMeters>507.600006103515625</AltitudeMeters>
            <DistanceMeters>12364.316760533</DistanceMeters>
          </Trackpoint>
          <Trackpoint>
            <Time>2023-01-11T19:25:01.000Z</Time>
            <Position>
              <LatitudeDegrees>-49.23251098953187465667724609375</LatitudeDegrees>
              <LongitudeDegrees>-72.97765796072781085968017578125</LongitudeDegrees>
            </Position>
            <AltitudeMeters>507.600006103515625</AltitudeMeters>
            <DistanceMeters>12367.202194726</DistanceMeters>
          </Trackpoint>
          <Trackpoint>
            <Time>2023-01-11T19:25:10.000Z</Time>
            <Position>
              <LatitudeDegrees>-49.23252959735691547393798828125</LatitudeDegrees>
              <LongitudeDegrees>-72.97745780088007450103759765625</LongitudeDegrees>
            </Position>
            <AltitudeMeters>506.79998779296875</AltitudeMeters>
            <DistanceMeters>12381.896041321</DistanceMeters>
          </Trackpoint>
          <Trackpoint>
            <Time>2023-01-11T19:25:11.000Z</Time>
            <Position>
              <LatitudeDegrees>-49.2325337044894695281982421875</LatitudeDegrees>
              <LongitudeDegrees>-72.97744120471179485321044921875</LongitudeDegrees>
            </Position>
            <AltitudeMeters>507</AltitudeMeters>
            <DistanceMeters>12383.185046389</DistanceMeters>
          </Trackpoint>
          <Trackpoint>
            <Time>2023-01-11T19:25:14.000Z</Time>
            <Position>
              <LatitudeDegrees>-49.23254585824906826019287109375</LatitudeDegrees>
              <LongitudeDegrees>-72.9773824475705623626708984375</LongitudeDegrees>
            </Position>
            <AltitudeMeters>507.399993896484375</AltitudeMeters>
            <DistanceMeters>12387.664424679</DistanceMeters>
          </Trackpoint>
          <Trackpoint>
            <Time>2023-01-11T19:25:17.000Z</Time>
            <Position>
              <LatitudeDegrees>-49.23256262205541133880615234375</LatitudeDegrees>
              <LongitudeDegrees>-72.97732788138091564178466796875</LongitudeDegrees>
            </Position>
            <AltitudeMeters>507.399993896484375</AltitudeMeters>
            <DistanceMeters>12392.048030805</DistanceMeters>
          </Trackpoint>
          <Trackpoint>
            <Time>2023-01-11T19:25:25.000Z</Time>
            <Position>
              <LatitudeDegrees>-49.232632108032703399658203125</LatitudeDegrees>
              <LongitudeDegrees>-72.97717231325805187225341796875</LongitudeDegrees>
            </Position>
            <AltitudeMeters>507.399993896484375</AltitudeMeters>
            <DistanceMeters>12405.746387951</DistanceMeters>
          </Trackpoint>
          <Trackpoint>
            <Time>2023-01-11T19:25:31.000Z</Time>
            <Position>
              <LatitudeDegrees>-49.23266085796058177947998046875</LatitudeDegrees>
              <LongitudeDegrees>-72.97709436155855655670166015625</LongitudeDegrees>
            </Position>
            <AltitudeMeters>507.399993896484375</AltitudeMeters>
            <DistanceMeters>12412.252769309</DistanceMeters>
          </Trackpoint>
          <Trackpoint>
            <Time>2023-01-11T19:25:34.000Z</Time>
            <Position>
              <LatitudeDegrees>-49.23264509998261928558349609375</LatitudeDegrees>
              <LongitudeDegrees>-72.9770290665328502655029296875</LongitudeDegrees>
            </Position>
            <AltitudeMeters>507.20001220703125</AltitudeMeters>
            <DistanceMeters>12417.311547486</DistanceMeters>
          </Trackpoint>
          <Trackpoint>
            <Time>2023-01-11T19:25:37.000Z</Time>
            <Position>
              <LatitudeDegrees>-49.2326344549655914306640625</LatitudeDegrees>
              <LongitudeDegrees>-72.9769563116133213043212890625</LongitudeDegrees>
            </Position>
            <AltitudeMeters>507.20001220703125</AltitudeMeters>
            <DistanceMeters>12422.730570331</DistanceMeters>
          </Trackpoint>
          <Trackpoint>
            <Time>2023-01-11T19:25:38.000Z</Time>
            <Position>
              <LatitudeDegrees>-49.23263403587043285369873046875</LatitudeDegrees>
              <LongitudeDegrees>-72.976933680474758148193359375</LongitudeDegrees>
            </Position>
            <AltitudeMeters>507.20001220703125</AltitudeMeters>
            <DistanceMeters>12424.381958561</DistanceMeters>
          </Trackpoint>
          <Trackpoint>
            <Time>2023-01-11T19:25:41.000Z</Time>
            <Position>
              <LatitudeDegrees>-49.23266069032251834869384765625</LatitudeDegrees>
              <LongitudeDegrees>-72.97687240876257419586181640625</LongitudeDegrees>
            </Position>
            <AltitudeMeters>507.399993896484375</AltitudeMeters>
            <DistanceMeters>12429.733068016</DistanceMeters>
          </Trackpoint>
          <Trackpoint>
            <Time>2023-01-11T19:25:44.000Z</Time>
            <Position>
              <LatitudeDegrees>-49.23271785490214824676513671875</LatitudeDegrees>
              <LongitudeDegrees>-72.9768540523946285247802734375</LongitudeDegrees>
            </Position>
            <AltitudeMeters>507.20001220703125</AltitudeMeters>
            <DistanceMeters>12436.233895483</DistanceMeters>
          </Trackpoint>
          <Trackpoint>
            <Time>2023-01-11T19:25:51.000Z</Time>
            <Position>
              <LatitudeDegrees>-49.232748448848724365234375</LatitudeDegrees>
              <LongitudeDegrees>-72.97673913650214672088623046875</LongitudeDegrees>
            </Position>
            <AltitudeMeters>506.399993896484375</AltitudeMeters>
            <DistanceMeters>12445.253427549</DistanceMeters>
          </Trackpoint>
          <Trackpoint>
            <Time>2023-01-11T19:25:55.000Z</Time>
            <Position>
              <LatitudeDegrees>-49.23274098895490169525146484375</LatitudeDegrees>
              <LongitudeDegrees>-72.97664710320532321929931640625</LongitudeDegrees>
            </Position>
            <AltitudeMeters>506</AltitudeMeters>
            <DistanceMeters>12451.992959025</DistanceMeters>
          </Trackpoint>
          <Trackpoint>
            <Time>2023-01-11T19:25:58.000Z</Time>
            <Position>
              <LatitudeDegrees>-49.23274107277393341064453125</LatitudeDegrees>
              <LongitudeDegrees>-72.97657049261033535003662109375</LongitudeDegrees>
            </Position>
            <AltitudeMeters>506</AltitudeMeters>
            <DistanceMeters>12457.561556919</DistanceMeters>
          </Trackpoint>
          <Trackpoint>
            <Time>2023-01-11T19:26:01.000Z</Time>
            <Position>
              <LatitudeDegrees>-49.232746101915836334228515625</LatitudeDegrees>
              <LongitudeDegrees>-72.9765033535659313201904296875</LongitudeDegrees>
            </Position>
            <AltitudeMeters>505.79998779296875</AltitudeMeters>
            <DistanceMeters>12462.473620056</DistanceMeters>
          </Trackpoint>
          <Trackpoint>
            <Time>2023-01-11T19:26:03.000Z</Time>
            <Position>
              <LatitudeDegrees>-49.23275523819029331207275390625</LatitudeDegrees>
              <LongitudeDegrees>-72.97647829167544841766357421875</LongitudeDegrees>
            </Position>
            <AltitudeMeters>505.79998779296875</AltitudeMeters>
            <DistanceMeters>12464.559883904</DistanceMeters>
          </Trackpoint>
          <Trackpoint>
            <Time>2023-01-11T19:26:04.000Z</Time>
            <Position>
              <LatitudeDegrees>-49.2327623628079891204833984375</LatitudeDegrees>
              <LongitudeDegrees>-72.97646253369748592376708984375</LongitudeDegrees>
            </Position>
            <AltitudeMeters>505.79998779296875</AltitudeMeters>
            <DistanceMeters>12465.956485677</DistanceMeters>
          </Trackpoint>
          <Trackpoint>
            <Time>2023-01-11T19:26:10.000Z</Time>
            <Position>
              <LatitudeDegrees>-49.23284836113452911376953125</LatitudeDegrees>
              <LongitudeDegrees>-72.97638692893087863922119140625</LongitudeDegrees>
            </Position>
            <AltitudeMeters>506.20001220703125</AltitudeMeters>
            <DistanceMeters>12476.993911161</DistanceMeters>
          </Trackpoint>
          <Trackpoint>
            <Time>2023-01-11T19:26:13.000Z</Time>
            <Position>
              <LatitudeDegrees>-49.23286847770214080810546875</LatitudeDegrees>
              <LongitudeDegrees>-72.97631434164941310882568359375</LongitudeDegrees>
            </Position>
            <AltitudeMeters>506.600006103515625</AltitudeMeters>
            <DistanceMeters>12482.725526823</DistanceMeters>
          </Trackpoint>
          <Trackpoint>
            <Time>2023-01-11T19:26:21.000Z</Time>
            <Position>
              <LatitudeDegrees>-49.23292790539562702178955078125</LatitudeDegrees>
              <LongitudeDegrees>-72.97619012184441089630126953125</LongitudeDegrees>
            </Position>
            <AltitudeMeters>506.600006103515625</AltitudeMeters>
            <DistanceMeters>12493.917721444</DistanceMeters>
          </Trackpoint>
          <Trackpoint>
            <Time>2023-01-11T19:26:22.000Z</Time>
            <Position>
              <LatitudeDegrees>-49.23294148407876491546630859375</LatitudeDegrees>
              <LongitudeDegrees>-72.97618911601603031158447265625</LongitudeDegrees>
            </Position>
            <AltitudeMeters>506.600006103515625</AltitudeMeters>
            <DistanceMeters>12495.432198059</DistanceMeters>
          </Trackpoint>
          <Trackpoint>
            <Time>2023-01-11T19:26:26.000Z</Time>
            <Position>
              <LatitudeDegrees>-49.23294064588844776153564453125</LatitudeDegrees>
              <LongitudeDegrees>-72.97614687122404575347900390625</LongitudeDegrees>
            </Position>
            <AltitudeMeters>507</AltitudeMeters>
            <DistanceMeters>12498.502605167</DistanceMeters>
          </Trackpoint>
          <Trackpoint>
            <Time>2023-01-11T19:26:30.000Z</Time>
            <Position>
              <LatitudeDegrees>-49.23296998254954814910888671875</LatitudeDegrees>
              <LongitudeDegrees>-72.9760892875492572784423828125</LongitudeDegrees>
            </Position>
            <AltitudeMeters>507.20001220703125</AltitudeMeters>
            <DistanceMeters>12503.809657873</DistanceMeters>
          </Trackpoint>
          <Trackpoint>
            <Time>2023-01-11T19:26:33.000Z</Time>
            <Position>
              <LatitudeDegrees>-49.2329792864620685577392578125</LatitudeDegrees>
              <LongitudeDegrees>-72.97605282627046108245849609375</LongitudeDegrees>
            </Position>
            <AltitudeMeters>507.399993896484375</AltitudeMeters>
            <DistanceMeters>12506.654117135</DistanceMeters>
          </Trackpoint>
          <Trackpoint>
            <Time>2023-01-11T19:26:37.000Z</Time>
            <Position>
              <LatitudeDegrees>-49.23295690678060054779052734375</LatitudeDegrees>
              <LongitudeDegrees>-72.9759885370731353759765625</LongitudeDegrees>
            </Position>
            <AltitudeMeters>507.20001220703125</AltitudeMeters>
            <DistanceMeters>12511.949245779</DistanceMeters>
          </Trackpoint>
          <Trackpoint>
            <Time>2023-01-11T19:26:39.000Z</Time>
            <Position>
              <LatitudeDegrees>-49.23293821513652801513671875</LatitudeDegrees>
              <LongitudeDegrees>-72.97596615739166736602783203125</LongitudeDegrees>
            </Position>
            <AltitudeMeters>507.20001220703125</AltitudeMeters>
            <DistanceMeters>12514.591261883</DistanceMeters>
          </Trackpoint>
          <Trackpoint>
            <Time>2023-01-11T19:26:45.000Z</Time>
            <Position>
              <LatitudeDegrees>-49.23291734419763088226318359375</LatitudeDegrees>
              <LongitudeDegrees>-72.975844703614711761474609375</LongitudeDegrees>
            </Position>
            <AltitudeMeters>507</AltitudeMeters>
            <DistanceMeters>12523.718774429</DistanceMeters>
          </Trackpoint>
          <Trackpoint>
            <Time>2023-01-11T19:26:52.000Z</Time>
            <Position>
              <LatitudeDegrees>-49.2329563200473785400390625</LatitudeDegrees>
              <LongitudeDegrees>-72.975706569850444793701171875</LongitudeDegrees>
            </Position>
            <AltitudeMeters>507.399993896484375</AltitudeMeters>
            <DistanceMeters>12534.655519492</DistanceMeters>
          </Trackpoint>
          <Trackpoint>
            <Time>2023-01-11T19:26:54.000Z</Time>
            <Position>
              <LatitudeDegrees>-49.232963360846042633056640625</LatitudeDegrees>
              <LongitudeDegrees>-72.97567094676196575164794921875</LongitudeDegrees>
            </Position>
            <AltitudeMeters>507.399993896484375</AltitudeMeters>
            <DistanceMeters>12537.360027195</DistanceMeters>
          </Trackpoint>
          <Trackpoint>
            <Time>2023-01-11T19:27:00.000Z</Time>
            <Position>
              <LatitudeDegrees>-49.23297844827175140380859375</LatitudeDegrees>
              <LongitudeDegrees>-72.97552543692290782928466796875</LongitudeDegrees>
            </Position>
            <AltitudeMeters>507.79998779296875</AltitudeMeters>
            <DistanceMeters>12548.068150779</DistanceMeters>
          </Trackpoint>
          <Trackpoint>
            <Time>2023-01-11T19:27:06.000Z</Time>
            <Position>
              <LatitudeDegrees>-49.23300920985639095306396484375</LatitudeDegrees>
              <LongitudeDegrees>-72.9753945954144001007080078125</LongitudeDegrees>
            </Position>
            <AltitudeMeters>507.20001220703125</AltitudeMeters>
            <DistanceMeters>12558.175437992</DistanceMeters>
          </Trackpoint>
          <Trackpoint>
            <Time>2023-01-11T19:27:07.000Z</Time>
            <Position>
              <LatitudeDegrees>-49.23301407136023044586181640625</LatitudeDegrees>
              <LongitudeDegrees>-72.97537959180772304534912109375</LongitudeDegrees>
            </Position>
            <AltitudeMeters>507.20001220703125</AltitudeMeters>
            <DistanceMeters>12559.392373708</DistanceMeters>
          </Trackpoint>
          <Trackpoint>
            <Time>2023-01-11T19:27:16.000Z</Time>
            <Position>
              <LatitudeDegrees>-49.23297316767275333404541015625</LatitudeDegrees>
              <LongitudeDegrees>-72.97522821463644504547119140625</LongitudeDegrees>
            </Position>
            <AltitudeMeters>506.600006103515625</AltitudeMeters>
            <DistanceMeters>12571.299186891</DistanceMeters>
          </Trackpoint>
          <Trackpoint>
            <Time>2023-01-11T19:27:17.000Z</Time>
            <Position>
              <LatitudeDegrees>-49.2329749278724193572998046875</LatitudeDegrees>
              <LongitudeDegrees>-72.975205667316913604736328125</LongitudeDegrees>
            </Position>
            <AltitudeMeters>506.600006103515625</AltitudeMeters>
            <DistanceMeters>12572.947838768</DistanceMeters>
          </Trackpoint>
          <Trackpoint>
            <Time>2023-01-11T19:27:20.000Z</Time>
            <Position>
              <LatitudeDegrees>-49.23297551460564136505126953125</LatitudeDegrees>
              <LongitudeDegrees>-72.975151352584362030029296875</LongitudeDegrees>
            </Position>
            <AltitudeMeters>506.399993896484375</AltitudeMeters>
            <DistanceMeters>12576.895738455</DistanceMeters>
          </Trackpoint>
          <Trackpoint>
            <Time>2023-01-11T19:27:23.000Z</Time>
            <Position>
              <LatitudeDegrees>-49.232976436614990234375</LatitudeDegrees>
              <LongitudeDegrees>-72.9751002229750156402587890625</LongitudeDegrees>
            </Position>
            <AltitudeMeters>506.399993896484375</AltitudeMeters>
            <DistanceMeters>12580.612728764</DistanceMeters>
          </Trackpoint>
          <Trackpoint>
            <Time>2023-01-11T19:27:25.000Z</Time>
            <Position>
              <LatitudeDegrees>-49.23297551460564136505126953125</LatitudeDegrees>
              <LongitudeDegrees>-72.97507985495030879974365234375</LongitudeDegrees>
            </Position>
            <AltitudeMeters>506.20001220703125</AltitudeMeters>
            <DistanceMeters>12582.094048641</DistanceMeters>
          </Trackpoint>
          <Trackpoint>
            <Time>2023-01-11T19:27:29.000Z</Time>
            <Position>
              <LatitudeDegrees>-49.23296428285539150238037109375</LatitudeDegrees>
              <LongitudeDegrees>-72.97499972395598888397216796875</LongitudeDegrees>
            </Position>
            <AltitudeMeters>505.79998779296875</AltitudeMeters>
            <DistanceMeters>12588.051246004</DistanceMeters>
          </Trackpoint>
          <Trackpoint>
            <Time>2023-01-11T19:27:36.000Z</Time>
            <Position>
              <LatitudeDegrees>-49.2329320125281810760498046875</LatitudeDegrees>
              <LongitudeDegrees>-72.97491095960140228271484375</LongitudeDegrees>
            </Position>
            <AltitudeMeters>505.399993896484375</AltitudeMeters>
            <DistanceMeters>12595.434644374</DistanceMeters>
          </Trackpoint>
          <Trackpoint>
            <Time>2023-01-11T19:27:37.000Z</Time>
            <Position>
              <LatitudeDegrees>-49.23292706720530986785888671875</LatitudeDegrees>
              <LongitudeDegrees>-72.9748946987092494964599609375</LongitudeDegrees>
            </Position>
            <AltitudeMeters>505</AltitudeMeters>
            <DistanceMeters>12596.737585037</DistanceMeters>
          </Trackpoint>
          <Trackpoint>
            <Time>2023-01-11T19:27:40.000Z</Time>
            <Position>
              <LatitudeDegrees>-49.2329256422817707061767578125</LatitudeDegrees>
              <LongitudeDegrees>-72.9748454131186008453369140625</LongitudeDegrees>
            </Position>
            <AltitudeMeters>504.79998779296875</AltitudeMeters>
            <DistanceMeters>12600.323505959</DistanceMeters>
          </Trackpoint>
          <Trackpoint>
            <Time>2023-01-11T19:27:45.000Z</Time>
            <Position>
              <LatitudeDegrees>-49.2329420708119869232177734375</LatitudeDegrees>
              <LongitudeDegrees>-72.97474508173763751983642578125</LongitudeDegrees>
            </Position>
            <AltitudeMeters>504.79998779296875</AltitudeMeters>
            <DistanceMeters>12607.842034973</DistanceMeters>
          </Trackpoint>
          <Trackpoint>
            <Time>2023-01-11T19:27:52.000Z</Time>
            <Position>
              <LatitudeDegrees>-49.232918433845043182373046875</LatitudeDegrees>
              <LongitudeDegrees>-72.9745879210531711578369140625</LongitudeDegrees>
            </Position>
            <AltitudeMeters>504.399993896484375</AltitudeMeters>
            <DistanceMeters>12619.563494485</DistanceMeters>
          </Trackpoint>
          <Trackpoint>
            <Time>2023-01-11T19:27:53.000Z</Time>
            <Position>
              <LatitudeDegrees>-49.2329092137515544891357421875</LatitudeDegrees>
              <LongitudeDegrees>-72.9745610989630222320556640625</LongitudeDegrees>
            </Position>
            <AltitudeMeters>504</AltitudeMeters>
            <DistanceMeters>12621.767622686</DistanceMeters>
          </Trackpoint>
          <Trackpoint>
            <Time>2023-01-11T19:28:00.000Z</Time>
            <Position>
              <LatitudeDegrees>-49.23293360508978366851806640625</LatitudeDegrees>
              <LongitudeDegrees>-72.97440343536436557769775390625</LongitudeDegrees>
            </Position>
            <AltitudeMeters>504.20001220703125</AltitudeMeters>
            <DistanceMeters>12633.544036148</DistanceMeters>
          </Trackpoint>
          <Trackpoint>
            <Time>2023-01-11T19:28:01.000Z</Time>
            <Position>
              <LatitudeDegrees>-49.23294802196323871612548828125</LatitudeDegrees>
              <LongitudeDegrees>-72.97439170069992542266845703125</LongitudeDegrees>
            </Position>
            <AltitudeMeters>504.20001220703125</AltitudeMeters>
            <DistanceMeters>12635.362004239</DistanceMeters>
          </Trackpoint>
          <Trackpoint>
            <Time>2023-01-11T19:28:02.000Z</Time>
            <Position>
              <LatitudeDegrees>-49.2329564876854419708251953125</LatitudeDegrees>
              <LongitudeDegrees>-72.97436974011361598968505859375</LongitudeDegrees>
            </Position>
            <AltitudeMeters>504.20001220703125</AltitudeMeters>
            <DistanceMeters>12637.219284294</DistanceMeters>
          </Trackpoint>
          <Trackpoint>
            <Time>2023-01-11T19:28:07.000Z</Time>
            <Position>
              <LatitudeDegrees>-49.23301574774086475372314453125</LatitudeDegrees>
              <LongitudeDegrees>-72.97431156970560550689697265625</LongitudeDegrees>
            </Position>
            <AltitudeMeters>503.79998779296875</AltitudeMeters>
            <DistanceMeters>12645.053659163</DistanceMeters>
          </Trackpoint>
          <Trackpoint>
            <Time>2023-01-11T19:28:13.000Z</Time>
            <Position>
              <LatitudeDegrees>-49.2330770194530487060546875</LatitudeDegrees>
              <LongitudeDegrees>-72.97416823916137218475341796875</LongitudeDegrees>
            </Position>
            <AltitudeMeters>503.79998779296875</AltitudeMeters>
            <DistanceMeters>12657.504334739</DistanceMeters>
          </Trackpoint>
          <Trackpoint>
            <Time>2023-01-11T19:28:19.000Z</Time>
            <Position>
              <LatitudeDegrees>-49.2331750877201557159423828125</LatitudeDegrees>
              <LongitudeDegrees>-72.97413756139576435089111328125</LongitudeDegrees>
            </Position>
            <AltitudeMeters>504.20001220703125</AltitudeMeters>
            <DistanceMeters>12668.645178546</DistanceMeters>
          </Trackpoint>
          <Trackpoint>
            <Time>2023-01-11T19:28:21.000Z</Time>
            <Position>
              <LatitudeDegrees>-49.2331905104219913482666015625</LatitudeDegrees>
              <LongitudeDegrees>-72.9741181991994380950927734375</LongitudeDegrees>
            </Position>
            <AltitudeMeters>504.600006103515625</AltitudeMeters>
            <DistanceMeters>12670.865633846</DistanceMeters>
          </Trackpoint>
          <Trackpoint>
            <Time>2023-01-11T19:28:29.000Z</Time>
            <Position>
              <LatitudeDegrees>-49.23328480683267116546630859375</LatitudeDegrees>
              <LongitudeDegrees>-72.97409900464117527008056640625</LongitudeDegrees>
            </Position>
            <AltitudeMeters>504.79998779296875</AltitudeMeters>
            <DistanceMeters>12681.453332792</DistanceMeters>
          </Trackpoint>
          <Trackpoint>
            <Time>2023-01-11T19:28:36.000Z</Time>
            <Position>
              <LatitudeDegrees>-49.23334951512515544891357421875</LatitudeDegrees>
              <LongitudeDegrees>-72.97405323944985866546630859375</LongitudeDegrees>
            </Position>
            <AltitudeMeters>504.79998779296875</AltitudeMeters>
            <DistanceMeters>12689.385644729</DistanceMeters>
          </Trackpoint>
          <Trackpoint>
            <Time>2023-01-11T19:28:41.000Z</Time>
            <Position>
              <LatitudeDegrees>-49.23334783874452114105224609375</LatitudeDegrees>
              <LongitudeDegrees>-72.97398551367223262786865234375</LongitudeDegrees>
            </Position>
            <AltitudeMeters>504.20001220703125</AltitudeMeters>
            <DistanceMeters>12694.310559482</DistanceMeters>
          </Trackpoint>
          <Trackpoint>
            <Time>2023-01-11T19:28:43.000Z</Time>
            <Position>
              <LatitudeDegrees>-49.2333527840673923492431640625</LatitudeDegrees>
              <LongitudeDegrees>-72.9739468730986118316650390625</LongitudeDegrees>
            </Position>
            <AltitudeMeters>504.20001220703125</AltitudeMeters>
            <DistanceMeters>12697.170847799</DistanceMeters>
          </Trackpoint>
          <Trackpoint>
            <Time>2023-01-11T19:28:48.000Z</Time>
            <Position>
              <LatitudeDegrees>-49.23340986482799053192138671875</LatitudeDegrees>
              <LongitudeDegrees>-72.97383564524352550506591796875</LongitudeDegrees>
            </Position>
            <AltitudeMeters>503.79998779296875</AltitudeMeters>
            <DistanceMeters>12707.452193764</DistanceMeters>
          </Trackpoint>
          <Trackpoint>
            <Time>2023-01-11T19:28:50.000Z</Time>
            <Position>
              <LatitudeDegrees>-49.23343769274652004241943359375</LatitudeDegrees>
              <LongitudeDegrees>-72.97381686978042125701904296875</LongitudeDegrees>
            </Position>
            <AltitudeMeters>503.79998779296875</AltitudeMeters>
            <DistanceMeters>12710.835998861</DistanceMeters>
          </Trackpoint>
          <Trackpoint>
            <Time>2023-01-11T19:28:54.000Z</Time>
            <Position>
              <LatitudeDegrees>-49.233452193439006805419921875</LatitudeDegrees>
              <LongitudeDegrees>-72.9737554304301738739013671875</LongitudeDegrees>
            </Position>
            <AltitudeMeters>503.600006103515625</AltitudeMeters>
            <DistanceMeters>12715.583531989</DistanceMeters>
          </Trackpoint>
          <Trackpoint>
            <Time>2023-01-11T19:28:56.000Z</Time>
            <Position>
              <LatitudeDegrees>-49.23345428891479969024658203125</LatitudeDegrees>
              <LongitudeDegrees>-72.97373841516673564910888671875</LongitudeDegrees>
            </Position>
            <AltitudeMeters>503.600006103515625</AltitudeMeters>
            <DistanceMeters>12716.844203816</DistanceMeters>
          </Trackpoint>
          <Trackpoint>
            <Time>2023-01-11T19:28:57.000Z</Time>
            <Position>
              <LatitudeDegrees>-49.23345319926738739013671875</LatitudeDegrees>
              <LongitudeDegrees>-72.97373103909194469451904296875</LongitudeDegrees>
            </Position>
            <AltitudeMeters>503.600006103515625</AltitudeMeters>
            <DistanceMeters>12717.381756089</DistanceMeters>
          </Trackpoint>
          <Trackpoint>
            <Time>2023-01-11T19:29:00.000Z</Time>
            <Position>
              <LatitudeDegrees>-49.23344456590712070465087890625</LatitudeDegrees>
              <LongitudeDegrees>-72.973666749894618988037109375</LongitudeDegrees>
            </Position>
            <AltitudeMeters>503.20001220703125</AltitudeMeters>
            <DistanceMeters>12722.152059291</DistanceMeters>
          </Trackpoint>
          <Trackpoint>
            <Time>2023-01-11T19:29:01.000Z</Time>
            <Position>
              <LatitudeDegrees>-49.23343819566071033477783203125</LatitudeDegrees>
              <LongitudeDegrees>-72.97363665886223316192626953125</LongitudeDegrees>
            </Position>
            <AltitudeMeters>503.20001220703125</AltitudeMeters>
            <DistanceMeters>12724.450448883</DistanceMeters>
          </Trackpoint>
          <Trackpoint>
            <Time>2023-01-11T19:29:09.000Z</Time>
            <Position>
              <LatitudeDegrees>-49.23349955119192600250244140625</LatitudeDegrees>
              <LongitudeDegrees>-72.97348980791866779327392578125</LongitudeDegrees>
            </Position>
            <AltitudeMeters>502.79998779296875</AltitudeMeters>
            <DistanceMeters>12737.12146933</DistanceMeters>
          </Trackpoint>
          <Trackpoint>
            <Time>2023-01-11T19:29:18.000Z</Time>
            <Position>
              <LatitudeDegrees>-49.23352620564401149749755859375</LatitudeDegrees>
              <LongitudeDegrees>-72.9733624868094921112060546875</LongitudeDegrees>
            </Position>
            <AltitudeMeters>503.20001220703125</AltitudeMeters>
            <DistanceMeters>12746.838851147</DistanceMeters>
          </Trackpoint>
          <Trackpoint>
            <Time>2023-01-11T19:29:24.000Z</Time>
            <Position>
              <LatitudeDegrees>-49.233554787933826446533203125</LatitudeDegrees>
              <LongitudeDegrees>-72.973279170691967010498046875</LongitudeDegrees>
            </Position>
            <AltitudeMeters>503</AltitudeMeters>
            <DistanceMeters>12753.678134442</DistanceMeters>
          </Trackpoint>
          <Trackpoint>
            <Time>2023-01-11T19:29:26.000Z</Time>
            <Position>
              <LatitudeDegrees>-49.23357800580561161041259765625</LatitudeDegrees>
              <LongitudeDegrees>-72.9732526838779449462890625</LongitudeDegrees>
            </Position>
            <AltitudeMeters>502.79998779296875</AltitudeMeters>
            <DistanceMeters>12756.900647112</DistanceMeters>
          </Trackpoint>
          <Trackpoint>
            <Time>2023-01-11T19:29:31.000Z</Time>
            <Position>
              <LatitudeDegrees>-49.2336360923945903778076171875</LatitudeDegrees>
              <LongitudeDegrees>-72.97318504191935062408447265625</LongitudeDegrees>
            </Position>
            <AltitudeMeters>502.600006103515625</AltitudeMeters>
            <DistanceMeters>12765.02251318</DistanceMeters>
          </Trackpoint>
          <Trackpoint>
            <Time>2023-01-11T19:29:34.000Z</Time>
            <Position>
              <LatitudeDegrees>-49.23365838825702667236328125</LatitudeDegrees>
              <LongitudeDegrees>-72.97315889038145542144775390625</LongitudeDegrees>
            </Position>
            <AltitudeMeters>502.399993896484375</AltitudeMeters>
            <DistanceMeters>12768.148299915</DistanceMeters>
          </Trackpoint>
          <Trackpoint>
            <Time>2023-01-11T19:29:38.000Z</Time>
            <Position>
              <LatitudeDegrees>-49.23367179930210113525390625</LatitudeDegrees>
              <LongitudeDegrees>-72.97308705747127532958984375</LongitudeDegrees>
            </Position>
            <AltitudeMeters>502.399993896484375</AltitudeMeters>
            <DistanceMeters>12773.578974796</DistanceMeters>
          </Trackpoint>
          <Trackpoint>
            <Time>2023-01-11T19:29:40.000Z</Time>
            <Position>
              <LatitudeDegrees>-49.23368546180427074432373046875</LatitudeDegrees>
              <LongitudeDegrees>-72.973050177097320556640625</LongitudeDegrees>
            </Position>
            <AltitudeMeters>502.20001220703125</AltitudeMeters>
            <DistanceMeters>12776.661123465</DistanceMeters>
          </Trackpoint>
          <Trackpoint>
            <Time>2023-01-11T19:29:43.000Z</Time>
            <Position>
              <LatitudeDegrees>-49.23371178098022937774658203125</LatitudeDegrees>
              <LongitudeDegrees>-72.9729831218719482421875</LongitudeDegrees>
            </Position>
            <AltitudeMeters>502</AltitudeMeters>
            <DistanceMeters>12782.348454458</DistanceMeters>
          </Trackpoint>
          <Trackpoint>
            <Time>2023-01-11T19:29:46.000Z</Time>
            <Position>
              <LatitudeDegrees>-49.23377632163465023040771484375</LatitudeDegrees>
              <LongitudeDegrees>-72.97295889817178249359130859375</LongitudeDegrees>
            </Position>
            <AltitudeMeters>502</AltitudeMeters>
            <DistanceMeters>12789.744683436</DistanceMeters>
          </Trackpoint>
          <Trackpoint>
            <Time>2023-01-11T19:29:54.000Z</Time>
            <Position>
              <LatitudeDegrees>-49.23383868299424648284912109375</LatitudeDegrees>
              <LongitudeDegrees>-72.97282830812036991119384765625</LongitudeDegrees>
            </Position>
            <AltitudeMeters>501.600006103515625</AltitudeMeters>
            <DistanceMeters>12801.503447423</DistanceMeters>
          </Trackpoint>
          <Trackpoint>
            <Time>2023-01-11T19:30:00.000Z</Time>
            <Position>
              <LatitudeDegrees>-49.23390246927738189697265625</LatitudeDegrees>
              <LongitudeDegrees>-72.972749769687652587890625</LongitudeDegrees>
            </Position>
            <AltitudeMeters>501.600006103515625</AltitudeMeters>
            <DistanceMeters>12810.613134713</DistanceMeters>
          </Trackpoint>
          <Trackpoint>
            <Time>2023-01-11T19:30:03.000Z</Time>
            <Position>
              <LatitudeDegrees>-49.23392501659691333770751953125</LatitudeDegrees>
              <LongitudeDegrees>-72.97272537834942340850830078125</LongitudeDegrees>
            </Position>
            <AltitudeMeters>501.399993896484375</AltitudeMeters>
            <DistanceMeters>12813.686481417</DistanceMeters>
          </Trackpoint>
          <Trackpoint>
            <Time>2023-01-11T19:30:04.000Z</Time>
            <Position>
              <LatitudeDegrees>-49.2339304648339748382568359375</LatitudeDegrees>
              <LongitudeDegrees>-72.972715236246585845947265625</LongitudeDegrees>
            </Position>
            <AltitudeMeters>501.20001220703125</AltitudeMeters>
            <DistanceMeters>12814.641488077</DistanceMeters>
          </Trackpoint>
          <Trackpoint>
            <Time>2023-01-11T19:30:12.000Z</Time>
            <Position>
              <LatitudeDegrees>-49.23398368991911411285400390625</LatitudeDegrees>
              <LongitudeDegrees>-72.97263619489967823028564453125</LongitudeDegrees>
            </Position>
            <AltitudeMeters>500.399993896484375</AltitudeMeters>
            <DistanceMeters>12822.894053529</DistanceMeters>
          </Trackpoint>
          <Trackpoint>
            <Time>2023-01-11T19:30:15.000Z</Time>
            <Position>
              <LatitudeDegrees>-49.2340313829481601715087890625</LatitudeDegrees>
              <LongitudeDegrees>-72.97256411053240299224853515625</LongitudeDegrees>
            </Position>
            <AltitudeMeters>500.600006103515625</AltitudeMeters>
            <DistanceMeters>12830.352288635</DistanceMeters>
          </Trackpoint>
          <Trackpoint>
            <Time>2023-01-11T19:30:19.000Z</Time>
            <Position>
              <LatitudeDegrees>-49.234066419303417205810546875</LatitudeDegrees>
              <LongitudeDegrees>-72.9724813811480998992919921875</LongitudeDegrees>
            </Position>
            <AltitudeMeters>500.600006103515625</AltitudeMeters>
            <DistanceMeters>12837.518462282</DistanceMeters>
          </Trackpoint>
          <Trackpoint>
            <Time>2023-01-11T19:30:26.000Z</Time>
            <Position>
              <LatitudeDegrees>-49.234116710722446441650390625</LatitudeDegrees>
              <LongitudeDegrees>-72.97234081663191318511962890625</LongitudeDegrees>
            </Position>
            <AltitudeMeters>500.20001220703125</AltitudeMeters>
            <DistanceMeters>12849.167280193</DistanceMeters>
          </Trackpoint>
          <Trackpoint>
            <Time>2023-01-11T19:30:27.000Z</Time>
            <Position>
              <LatitudeDegrees>-49.2341235838830471038818359375</LatitudeDegrees>
              <LongitudeDegrees>-72.9723170958459377288818359375</LongitudeDegrees>
            </Position>
            <AltitudeMeters>500.20001220703125</AltitudeMeters>
            <DistanceMeters>12851.051111407</DistanceMeters>
          </Trackpoint>
          <Trackpoint>
            <Time>2023-01-11T19:30:28.000Z</Time>
            <Position>
              <LatitudeDegrees>-49.23413313925266265869140625</LatitudeDegrees>
              <LongitudeDegrees>-72.97230360098183155059814453125</LongitudeDegrees>
            </Position>
            <AltitudeMeters>500</AltitudeMeters>
            <DistanceMeters>12852.495392425</DistanceMeters>
          </Trackpoint>
          <Trackpoint>
            <Time>2023-01-11T19:30:36.000Z</Time>
            <Position>
              <LatitudeDegrees>-49.2342223227024078369140625</LatitudeDegrees>
              <LongitudeDegrees>-72.97219178639352321624755859375</LongitudeDegrees>
            </Position>
            <AltitudeMeters>499.399993896484375</AltitudeMeters>
            <DistanceMeters>12865.323646909</DistanceMeters>
          </Trackpoint>
          <Trackpoint>
            <Time>2023-01-11T19:30:44.000Z</Time>
            <Position>
              <LatitudeDegrees>-49.2343036271631717681884765625</LatitudeDegrees>
              <LongitudeDegrees>-72.97210109420120716094970703125</LongitudeDegrees>
            </Position>
            <AltitudeMeters>500</AltitudeMeters>
            <DistanceMeters>12876.519068341</DistanceMeters>
          </Trackpoint>
          <Trackpoint>
            <Time>2023-01-11T19:30:49.000Z</Time>
            <Position>
              <LatitudeDegrees>-49.23432265408337116241455078125</LatitudeDegrees>
              <LongitudeDegrees>-72.972031272947788238525390625</LongitudeDegrees>
            </Position>
            <AltitudeMeters>500</AltitudeMeters>
            <DistanceMeters>12882.018316109</DistanceMeters>
          </Trackpoint>
          <Trackpoint>
            <Time>2023-01-11T19:30:56.000Z</Time>
            <Position>
              <LatitudeDegrees>-49.2343683354556560516357421875</LatitudeDegrees>
              <LongitudeDegrees>-72.9719224758446216583251953125</LongitudeDegrees>
            </Position>
            <AltitudeMeters>500.20001220703125</AltitudeMeters>
            <DistanceMeters>12891.41923937</DistanceMeters>
          </Trackpoint>
          <Trackpoint>
            <Time>2023-01-11T19:30:57.000Z</Time>
            <Position>
              <LatitudeDegrees>-49.23437428660690784454345703125</LatitudeDegrees>
              <LongitudeDegrees>-72.971908561885356903076171875</LongitudeDegrees>
            </Position>
            <AltitudeMeters>500</AltitudeMeters>
            <DistanceMeters>12892.628731984</DistanceMeters>
          </Trackpoint>
          <Trackpoint>
            <Time>2023-01-11T19:31:03.000Z</Time>
            <Position>
              <LatitudeDegrees>-49.234412424266338348388671875</LatitudeDegrees>
              <LongitudeDegrees>-72.971837818622589111328125</LongitudeDegrees>
            </Position>
            <AltitudeMeters>500</AltitudeMeters>
            <DistanceMeters>12899.296195245</DistanceMeters>
          </Trackpoint>
          <Trackpoint>
            <Time>2023-01-11T19:31:12.000Z</Time>
            <Position>
              <LatitudeDegrees>-49.2344702593982219696044921875</LatitudeDegrees>
              <LongitudeDegrees>-72.9717008583247661590576171875</LongitudeDegrees>
            </Position>
            <AltitudeMeters>500.20001220703125</AltitudeMeters>
            <DistanceMeters>12911.150563622</DistanceMeters>
          </Trackpoint>
          <Trackpoint>
            <Time>2023-01-11T19:31:13.000Z</Time>
            <Position>
              <LatitudeDegrees>-49.234475456178188323974609375</LatitudeDegrees>
              <LongitudeDegrees>-72.9716874472796916961669921875</LongitudeDegrees>
            </Position>
            <AltitudeMeters>500.20001220703125</AltitudeMeters>
            <DistanceMeters>12912.282937613</DistanceMeters>
          </Trackpoint>
          <Trackpoint>
            <Time>2023-01-11T19:31:21.000Z</Time>
            <Position>
              <LatitudeDegrees>-49.23453052528202533721923828125</LatitudeDegrees>
              <LongitudeDegrees>-72.9715466313064098358154296875</LongitudeDegrees>
            </Position>
            <AltitudeMeters>500.20001220703125</AltitudeMeters>
            <DistanceMeters>12924.211723997</DistanceMeters>
          </Trackpoint>
          <Trackpoint>
            <Time>2023-01-11T19:31:30.000Z</Time>
            <Position>
              <LatitudeDegrees>-49.23459422774612903594970703125</LatitudeDegrees>
              <LongitudeDegrees>-72.97142048366367816925048828125</LongitudeDegrees>
            </Position>
            <AltitudeMeters>501.20001220703125</AltitudeMeters>
            <DistanceMeters>12935.801087958</DistanceMeters>
          </Trackpoint>
          <Trackpoint>
            <Time>2023-01-11T19:31:32.000Z</Time>
            <Position>
              <LatitudeDegrees>-49.2346026934683322906494140625</LatitudeDegrees>
              <LongitudeDegrees>-72.97138695605099201202392578125</LongitudeDegrees>
            </Position>
            <AltitudeMeters>502.20001220703125</AltitudeMeters>
            <DistanceMeters>12938.413890628</DistanceMeters>
          </Trackpoint>
          <Trackpoint>
            <Time>2023-01-11T19:31:33.000Z</Time>
            <Position>
              <LatitudeDegrees>-49.2346124164760112762451171875</LatitudeDegrees>
              <LongitudeDegrees>-72.97137471847236156463623046875</LongitudeDegrees>
            </Position>
            <AltitudeMeters>502.20001220703125</AltitudeMeters>
            <DistanceMeters>12939.810492401</DistanceMeters>
          </Trackpoint>
          <Trackpoint>
            <Time>2023-01-11T19:31:38.000Z</Time>
            <Position>
              <LatitudeDegrees>-49.23465482890605926513671875</LatitudeDegrees>
              <LongitudeDegrees>-72.97132962383329868316650390625</LongitudeDegrees>
            </Position>
            <AltitudeMeters>502.79998779296875</AltitudeMeters>
            <DistanceMeters>12945.557055683</DistanceMeters>
          </Trackpoint>
          <Trackpoint>
            <Time>2023-01-11T19:31:46.000Z</Time>
            <Position>
              <LatitudeDegrees>-49.2347364686429500579833984375</LatitudeDegrees>
              <LongitudeDegrees>-72.97125108540058135986328125</LongitudeDegrees>
            </Position>
            <AltitudeMeters>502.20001220703125</AltitudeMeters>
            <DistanceMeters>12956.287923999</DistanceMeters>
          </Trackpoint>
          <Trackpoint>
            <Time>2023-01-11T19:31:50.000Z</Time>
            <Position>
              <LatitudeDegrees>-49.2347827367484569549560546875</LatitudeDegrees>
              <LongitudeDegrees>-72.97122015617787837982177734375</LongitudeDegrees>
            </Position>
            <AltitudeMeters>502.600006103515625</AltitudeMeters>
            <DistanceMeters>12961.907370353</DistanceMeters>
          </Trackpoint>
          <Trackpoint>
            <Time>2023-01-11T19:31:55.000Z</Time>
            <Position>
              <LatitudeDegrees>-49.234828837215900421142578125</LatitudeDegrees>
              <LongitudeDegrees>-72.9711453057825565338134765625</LongitudeDegrees>
            </Position>
            <AltitudeMeters>503</AltitudeMeters>
            <DistanceMeters>12969.38555619</DistanceMeters>
          </Trackpoint>
          <Trackpoint>
            <Time>2023-01-11T19:31:56.000Z</Time>
            <Position>
              <LatitudeDegrees>-49.23484032042324542999267578125</LatitudeDegrees>
              <LongitudeDegrees>-72.9711364209651947021484375</LongitudeDegrees>
            </Position>
            <AltitudeMeters>503</AltitudeMeters>
            <DistanceMeters>12970.820428111</DistanceMeters>
          </Trackpoint>
          <Trackpoint>
            <Time>2023-01-11T19:32:02.000Z</Time>
            <Position>
              <LatitudeDegrees>-49.23486295156180858612060546875</LatitudeDegrees>
              <LongitudeDegrees>-72.971113622188568115234375</LongitudeDegrees>
            </Position>
            <AltitudeMeters>502.600006103515625</AltitudeMeters>
            <DistanceMeters>12973.835935859</DistanceMeters>
          </Trackpoint>
          <Trackpoint>
            <Time>2023-01-11T19:32:10.000Z</Time>
            <Position>
              <LatitudeDegrees>-49.23490419052541255950927734375</LatitudeDegrees>
              <LongitudeDegrees>-72.9711630754172801971435546875</LongitudeDegrees>
            </Position>
            <AltitudeMeters>502</AltitudeMeters>
            <DistanceMeters>12979.665962251</DistanceMeters>
          </Trackpoint>
          <Trackpoint>
            <Time>2023-01-11T19:32:16.000Z</Time>
            <Position>
              <LatitudeDegrees>-49.2349111475050449371337890625</LatitudeDegrees>
              <LongitudeDegrees>-72.97114002518355846405029296875</LongitudeDegrees>
            </Position>
            <AltitudeMeters>502.600006103515625</AltitudeMeters>
            <DistanceMeters>12981.511047295</DistanceMeters>
          </Trackpoint>
          <Trackpoint>
            <Time>2023-01-11T19:32:18.000Z</Time>
            <Position>
              <LatitudeDegrees>-49.23492196016013622283935546875</LatitudeDegrees>
              <LongitudeDegrees>-72.9711215011775493621826171875</LongitudeDegrees>
            </Position>
            <AltitudeMeters>502.399993896484375</AltitudeMeters>
            <DistanceMeters>12983.319053842</DistanceMeters>
          </Trackpoint>
          <Trackpoint>
            <Time>2023-01-11T19:32:21.000Z</Time>
            <Position>
              <LatitudeDegrees>-49.234953224658966064453125</LatitudeDegrees>
              <LongitudeDegrees>-72.971086464822292327880859375</LongitudeDegrees>
            </Position>
            <AltitudeMeters>501.20001220703125</AltitudeMeters>
            <DistanceMeters>12987.631005535</DistanceMeters>
          </Trackpoint>
          <Trackpoint>
            <Time>2023-01-11T19:32:22.000Z</Time>
            <Position>
              <LatitudeDegrees>-49.23496252857148647308349609375</LatitudeDegrees>
              <LongitudeDegrees>-72.97107598744332790374755859375</LongitudeDegrees>
            </Position>
            <AltitudeMeters>501.20001220703125</AltitudeMeters>
            <DistanceMeters>12988.920010603</DistanceMeters>
          </Trackpoint>
          <Trackpoint>
            <Time>2023-01-11T19:32:30.000Z</Time>
            <Position>
              <LatitudeDegrees>-49.234964959323406219482421875</LatitudeDegrees>
              <LongitudeDegrees>-72.9709417931735515594482421875</LongitudeDegrees>
            </Position>
            <AltitudeMeters>500.399993896484375</AltitudeMeters>
            <DistanceMeters>12998.676343715</DistanceMeters>
          </Trackpoint>
          <Trackpoint>
            <Time>2023-01-11T19:32:34.000Z</Time>
            <Position>
              <LatitudeDegrees>-49.23495984636247158050537109375</LatitudeDegrees>
              <LongitudeDegrees>-72.97088622115552425384521484375</LongitudeDegrees>
            </Position>
            <AltitudeMeters>500.399993896484375</AltitudeMeters>
            <DistanceMeters>13002.754750366</DistanceMeters>
          </Trackpoint>
          <Trackpoint>
            <Time>2023-01-11T19:32:36.000Z</Time>
            <Position>
              <LatitudeDegrees>-49.23497132956981658935546875</LatitudeDegrees>
              <LongitudeDegrees>-72.970851100981235504150390625</LongitudeDegrees>
            </Position>
            <AltitudeMeters>500.20001220703125</AltitudeMeters>
            <DistanceMeters>13005.608717596</DistanceMeters>
          </Trackpoint>
          <Trackpoint>
            <Time>2023-01-11T19:32:38.000Z</Time>
            <Position>
              <LatitudeDegrees>-49.23497325740754604339599609375</LatitudeDegrees>
              <LongitudeDegrees>-72.9708214290440082550048828125</LongitudeDegrees>
            </Position>
            <AltitudeMeters>500.20001220703125</AltitudeMeters>
            <DistanceMeters>13007.775660085</DistanceMeters>
          </Trackpoint>
          <Trackpoint>
            <Time>2023-01-11T19:32:48.000Z</Time>
            <Position>
              <LatitudeDegrees>-49.235046766698360443115234375</LatitudeDegrees>
              <LongitudeDegrees>-72.97069578431546688079833984375</LongitudeDegrees>
            </Position>
            <AltitudeMeters>501</AltitudeMeters>
            <DistanceMeters>13020.035947704</DistanceMeters>
          </Trackpoint>
          <Trackpoint>
            <Time>2023-01-11T19:32:52.000Z</Time>
            <Position>
              <LatitudeDegrees>-49.2350422404706478118896484375</LatitudeDegrees>
              <LongitudeDegrees>-72.97062722034752368927001953125</LongitudeDegrees>
            </Position>
            <AltitudeMeters>501</AltitudeMeters>
            <DistanceMeters>13025.044495633</DistanceMeters>
          </Trackpoint>
          <Trackpoint>
            <Time>2023-01-11T19:32:54.000Z</Time>
            <Position>
              <LatitudeDegrees>-49.2350388877093791961669921875</LatitudeDegrees>
              <LongitudeDegrees>-72.97058648429811000823974609375</LongitudeDegrees>
            </Position>
            <AltitudeMeters>500</AltitudeMeters>
            <DistanceMeters>13028.02839499</DistanceMeters>
          </Trackpoint>
          <Trackpoint>
            <Time>2023-01-11T19:32:57.000Z</Time>
            <Position>
              <LatitudeDegrees>-49.23505690880119800567626953125</LatitudeDegrees>
              <LongitudeDegrees>-72.97056050039827823638916015625</LongitudeDegrees>
            </Position>
            <AltitudeMeters>500</AltitudeMeters>
            <DistanceMeters>13030.782530828</DistanceMeters>
          </Trackpoint>
          <Trackpoint>
            <Time>2023-01-11T19:33:07.000Z</Time>
            <Position>
              <LatitudeDegrees>-49.23511759378015995025634765625</LatitudeDegrees>
              <LongitudeDegrees>-72.97036235220730304718017578125</LongitudeDegrees>
            </Position>
            <AltitudeMeters>500.20001220703125</AltitudeMeters>
            <DistanceMeters>13046.688651719</DistanceMeters>
          </Trackpoint>
          <Trackpoint>
            <Time>2023-01-11T19:33:15.000Z</Time>
            <Position>
              <LatitudeDegrees>-49.23516671173274517059326171875</LatitudeDegrees>
              <LongitudeDegrees>-72.97023117542266845703125</LongitudeDegrees>
            </Position>
            <AltitudeMeters>500.399993896484375</AltitudeMeters>
            <DistanceMeters>13057.678523076</DistanceMeters>
          </Trackpoint>
          <Trackpoint>
            <Time>2023-01-11T19:33:17.000Z</Time>
            <Position>
              <LatitudeDegrees>-49.235189259052276611328125</LatitudeDegrees>
              <LongitudeDegrees>-72.9702018387615680694580078125</LongitudeDegrees>
            </Position>
            <AltitudeMeters>500.600006103515625</AltitudeMeters>
            <DistanceMeters>13060.973087066</DistanceMeters>
          </Trackpoint>
          <Trackpoint>
            <Time>2023-01-11T19:33:22.000Z</Time>
            <Position>
              <LatitudeDegrees>-49.2352206073701381683349609375</LatitudeDegrees>
              <LongitudeDegrees>-72.97012765891849994659423828125</LongitudeDegrees>
            </Position>
            <AltitudeMeters>500.600006103515625</AltitudeMeters>
            <DistanceMeters>13067.394249659</DistanceMeters>
          </Trackpoint>
          <Trackpoint>
            <Time>2023-01-11T19:33:29.000Z</Time>
            <Position>
              <LatitudeDegrees>-49.23524248413741588592529296875</LatitudeDegrees>
              <LongitudeDegrees>-72.9700295068323612213134765625</LongitudeDegrees>
            </Position>
            <AltitudeMeters>501</AltitudeMeters>
            <DistanceMeters>13074.930772785</DistanceMeters>
          </Trackpoint>
          <Trackpoint>
            <Time>2023-01-11T19:33:33.000Z</Time>
            <Position>
              <LatitudeDegrees>-49.2352487705647945404052734375</LatitudeDegrees>
              <LongitudeDegrees>-72.96994057483971118927001953125</LongitudeDegrees>
            </Position>
            <AltitudeMeters>501</AltitudeMeters>
            <DistanceMeters>13081.431600252</DistanceMeters>
          </Trackpoint>
          <Trackpoint>
            <Time>2023-01-11T19:33:38.000Z</Time>
            <Position>
              <LatitudeDegrees>-49.23524885438382625579833984375</LatitudeDegrees>
              <LongitudeDegrees>-72.9698685742914676666259765625</LongitudeDegrees>
            </Position>
            <AltitudeMeters>500.79998779296875</AltitudeMeters>
            <DistanceMeters>13086.66325025</DistanceMeters>
          </Trackpoint>
          <Trackpoint>
            <Time>2023-01-11T19:33:45.000Z</Time>
            <Position>
              <LatitudeDegrees>-49.23526377417147159576416015625</LatitudeDegrees>
              <LongitudeDegrees>-72.9697659797966480255126953125</LongitudeDegrees>
            </Position>
            <AltitudeMeters>500.20001220703125</AltitudeMeters>
            <DistanceMeters>13094.302121501</DistanceMeters>
          </Trackpoint>
          <Trackpoint>
            <Time>2023-01-11T19:33:48.000Z</Time>
            <Position>
              <LatitudeDegrees>-49.2352817952632904052734375</LatitudeDegrees>
              <LongitudeDegrees>-72.9697344638407230377197265625</LongitudeDegrees>
            </Position>
            <AltitudeMeters>500.20001220703125</AltitudeMeters>
            <DistanceMeters>13097.34742748</DistanceMeters>
          </Trackpoint>
          <Trackpoint>
            <Time>2023-01-11T19:33:53.000Z</Time>
            <Position>
              <LatitudeDegrees>-49.235280789434909820556640625</LatitudeDegrees>
              <LongitudeDegrees>-72.96967537142336368560791015625</LongitudeDegrees>
            </Position>
            <AltitudeMeters>500.20001220703125</AltitudeMeters>
            <DistanceMeters>13101.643643984</DistanceMeters>
          </Trackpoint>
          <Trackpoint>
            <Time>2023-01-11T19:33:55.000Z</Time>
            <Position>
              <LatitudeDegrees>-49.2352836392819881439208984375</LatitudeDegrees>
              <LongitudeDegrees>-72.96964972279965877532958984375</LongitudeDegrees>
            </Position>
            <AltitudeMeters>500</AltitudeMeters>
            <DistanceMeters>13103.534651724</DistanceMeters>
          </Trackpoint>
          <Trackpoint>
            <Time>2023-01-11T19:34:03.000Z</Time>
            <Position>
              <LatitudeDegrees>-49.23529495485126972198486328125</LatitudeDegrees>
              <LongitudeDegrees>-72.969562299549579620361328125</LongitudeDegrees>
            </Position>
            <AltitudeMeters>499.79998779296875</AltitudeMeters>
            <DistanceMeters>13110.011822029</DistanceMeters>
          </Trackpoint>
          <Trackpoint>
            <Time>2023-01-11T19:34:09.000Z</Time>
            <Position>
              <LatitudeDegrees>-49.23532404005527496337890625</LatitudeDegrees>
              <LongitudeDegrees>-72.969461381435394287109375</LongitudeDegrees>
            </Position>
            <AltitudeMeters>499.399993896484375</AltitudeMeters>
            <DistanceMeters>13118.029058718</DistanceMeters>
          </Trackpoint>
          <Trackpoint>
            <Time>2023-01-11T19:34:17.000Z</Time>
            <Position>
              <LatitudeDegrees>-49.2353711463510990142822265625</LatitudeDegrees>
              <LongitudeDegrees>-72.9693820886313915252685546875</LongitudeDegrees>
            </Position>
            <AltitudeMeters>499</AltitudeMeters>
            <DistanceMeters>13125.820090348</DistanceMeters>
          </Trackpoint>
          <Trackpoint>
            <Time>2023-01-11T19:34:18.000Z</Time>
            <Position>
              <LatitudeDegrees>-49.23536804504692554473876953125</LatitudeDegrees>
              <LongitudeDegrees>-72.96935635618865489959716796875</LongitudeDegrees>
            </Position>
            <AltitudeMeters>498.79998779296875</AltitudeMeters>
            <DistanceMeters>13127.720624635</DistanceMeters>
          </Trackpoint>
          <Trackpoint>
            <Time>2023-01-11T19:34:22.000Z</Time>
            <Position>
              <LatitudeDegrees>-49.235378019511699676513671875</LatitudeDegrees>
              <LongitudeDegrees>-72.969282008707523345947265625</LongitudeDegrees>
            </Position>
            <AltitudeMeters>498.79998779296875</AltitudeMeters>
            <DistanceMeters>13133.237087054</DistanceMeters>
          </Trackpoint>
          <Trackpoint>
            <Time>2023-01-11T19:34:24.000Z</Time>
            <Position>
              <LatitudeDegrees>-49.2353751696646213531494140625</LatitudeDegrees>
              <LongitudeDegrees>-72.9692508280277252197265625</LongitudeDegrees>
            </Position>
            <AltitudeMeters>498.79998779296875</AltitudeMeters>
            <DistanceMeters>13135.525633391</DistanceMeters>
          </Trackpoint>
          <Trackpoint>
            <Time>2023-01-11T19:34:25.000Z</Time>
            <Position>
              <LatitudeDegrees>-49.2353810369968414306640625</LatitudeDegrees>
              <LongitudeDegrees>-72.96924068592488765716552734375</LongitudeDegrees>
            </Position>
            <AltitudeMeters>498.79998779296875</AltitudeMeters>
            <DistanceMeters>13136.513179975</DistanceMeters>
          </Trackpoint>
          <Trackpoint>
            <Time>2023-01-11T19:34:28.000Z</Time>
            <Position>
              <LatitudeDegrees>-49.23539252020418643951416015625</LatitudeDegrees>
              <LongitudeDegrees>-72.9691882990300655364990234375</LongitudeDegrees>
            </Position>
            <AltitudeMeters>498.399993896484375</AltitudeMeters>
            <DistanceMeters>13140.52911281</DistanceMeters>
          </Trackpoint>
          <Trackpoint>
            <Time>2023-01-11T19:34:33.000Z</Time>
            <Position>
              <LatitudeDegrees>-49.23540341667830944061279296875</LatitudeDegrees>
              <LongitudeDegrees>-72.96910607255995273590087890625</LongitudeDegrees>
            </Position>
            <AltitudeMeters>498.399993896484375</AltitudeMeters>
            <DistanceMeters>13146.627133373</DistanceMeters>
          </Trackpoint>
          <Trackpoint>
            <Time>2023-01-11T19:34:41.000Z</Time>
            <Position>
              <LatitudeDegrees>-49.23546125181019306182861328125</LatitudeDegrees>
              <LongitudeDegrees>-72.968975566327571868896484375</LongitudeDegrees>
            </Position>
            <AltitudeMeters>498.399993896484375</AltitudeMeters>
            <DistanceMeters>13158.089576929</DistanceMeters>
          </Trackpoint>
          <Trackpoint>
            <Time>2023-01-11T19:34:43.000Z</Time>
            <Position>
              <LatitudeDegrees>-49.2354871518909931182861328125</LatitudeDegrees>
              <LongitudeDegrees>-72.968953438103199005126953125</LongitudeDegrees>
            </Position>
            <AltitudeMeters>498.399993896484375</AltitudeMeters>
            <DistanceMeters>13161.38961817</DistanceMeters>
          </Trackpoint>
          <Trackpoint>
            <Time>2023-01-11T19:34:47.000Z</Time>
            <Position>
              <LatitudeDegrees>-49.2355243675410747528076171875</LatitudeDegrees>
              <LongitudeDegrees>-72.968911863863468170166015625</LongitudeDegrees>
            </Position>
            <AltitudeMeters>499</AltitudeMeters>
            <DistanceMeters>13166.515778765</DistanceMeters>
          </Trackpoint>
          <Trackpoint>
            <Time>2023-01-11T19:34:53.000Z</Time>
            <Position>
              <LatitudeDegrees>-49.2356031574308872222900390625</LatitudeDegrees>
              <LongitudeDegrees>-72.96882024966180324554443359375</LongitudeDegrees>
            </Position>
            <AltitudeMeters>499.399993896484375</AltitudeMeters>
            <DistanceMeters>13177.525762697</DistanceMeters>
          </Trackpoint>
          <Trackpoint>
            <Time>2023-01-11T19:34:57.000Z</Time>
            <Position>
              <LatitudeDegrees>-49.23566794954240322113037109375</LatitudeDegrees>
              <LongitudeDegrees>-72.968763671815395355224609375</LongitudeDegrees>
            </Position>
            <AltitudeMeters>499.79998779296875</AltitudeMeters>
            <DistanceMeters>13185.827421774</DistanceMeters>
          </Trackpoint>
          <Trackpoint>
            <Time>2023-01-11T19:35:02.000Z</Time>
            <Position>
              <LatitudeDegrees>-49.2357251979410648345947265625</LatitudeDegrees>
              <LongitudeDegrees>-72.968729473650455474853515625</LongitudeDegrees>
            </Position>
            <AltitudeMeters>500.399993896484375</AltitudeMeters>
            <DistanceMeters>13192.666705068</DistanceMeters>
          </Trackpoint>
          <Trackpoint>
            <Time>2023-01-11T19:35:05.000Z</Time>
            <Position>
              <LatitudeDegrees>-49.23576056957244873046875</LatitudeDegrees>
              <LongitudeDegrees>-72.96871094964444637298583984375</LongitudeDegrees>
            </Position>
            <AltitudeMeters>500.399993896484375</AltitudeMeters>
            <DistanceMeters>13196.827312781</DistanceMeters>
          </Trackpoint>
          <Trackpoint>
            <Time>2023-01-11T19:35:12.000Z</Time>
            <Position>
              <LatitudeDegrees>-49.2357731424272060394287109375</LatitudeDegrees>
              <LongitudeDegrees>-72.9686029069125652313232421875</LongitudeDegrees>
            </Position>
            <AltitudeMeters>499.79998779296875</AltitudeMeters>
            <DistanceMeters>13204.802766277</DistanceMeters>
          </Trackpoint>
          <Trackpoint>
            <Time>2023-01-11T19:35:19.000Z</Time>
            <Position>
              <LatitudeDegrees>-49.23577104695141315460205078125</LatitudeDegrees>
              <LongitudeDegrees>-72.96848849393427371978759765625</LongitudeDegrees>
            </Position>
            <AltitudeMeters>499</AltitudeMeters>
            <DistanceMeters>13213.120725505</DistanceMeters>
          </Trackpoint>
          <Trackpoint>
            <Time>2023-01-11T19:35:20.000Z</Time>
            <Position>
              <LatitudeDegrees>-49.23577624373137950897216796875</LatitudeDegrees>
              <LongitudeDegrees>-72.968476004898548126220703125</LongitudeDegrees>
            </Position>
            <AltitudeMeters>498.79998779296875</AltitudeMeters>
            <DistanceMeters>13214.195830051</DistanceMeters>
          </Trackpoint>
          <Trackpoint>
            <Time>2023-01-11T19:35:24.000Z</Time>
            <Position>
              <LatitudeDegrees>-49.2357940971851348876953125</LatitudeDegrees>
              <LongitudeDegrees>-72.96841087751090526580810546875</LongitudeDegrees>
            </Position>
            <AltitudeMeters>498.79998779296875</AltitudeMeters>
            <DistanceMeters>13219.329032079</DistanceMeters>
          </Trackpoint>
          <Trackpoint>
            <Time>2023-01-11T19:35:31.000Z</Time>
            <Position>
              <LatitudeDegrees>-49.23587917350232601165771484375</LatitudeDegrees>
              <LongitudeDegrees>-72.96834365464746952056884765625</LongitudeDegrees>
            </Position>
            <AltitudeMeters>497.79998779296875</AltitudeMeters>
            <DistanceMeters>13229.983895807</DistanceMeters>
          </Trackpoint>
          <Trackpoint>
            <Time>2023-01-11T19:35:33.000Z</Time>
            <Position>
              <LatitudeDegrees>-49.23589828424155712127685546875</LatitudeDegrees>
              <LongitudeDegrees>-72.96833527274429798126220703125</LongitudeDegrees>
            </Position>
            <AltitudeMeters>497.79998779296875</AltitudeMeters>
            <DistanceMeters>13232.198242552</DistanceMeters>
          </Trackpoint>
          <Trackpoint>
            <Time>2023-01-11T19:35:40.000Z</Time>
            <Position>
              <LatitudeDegrees>-49.235985539853572845458984375</LatitudeDegrees>
              <LongitudeDegrees>-72.96831029467284679412841796875</LongitudeDegrees>
            </Position>
            <AltitudeMeters>498.600006103515625</AltitudeMeters>
            <DistanceMeters>13242.078279311</DistanceMeters>
          </Trackpoint>
          <Trackpoint>
            <Time>2023-01-11T19:35:42.000Z</Time>
            <Position>
              <LatitudeDegrees>-49.23600808717310428619384765625</LatitudeDegrees>
              <LongitudeDegrees>-72.96828716062009334564208984375</LongitudeDegrees>
            </Position>
            <AltitudeMeters>498.600006103515625</AltitudeMeters>
            <DistanceMeters>13245.098275538</DistanceMeters>
          </Trackpoint>
          <Trackpoint>
            <Time>2023-01-11T19:35:48.000Z</Time>
            <Position>
              <LatitudeDegrees>-49.236067347228527069091796875</LatitudeDegrees>
              <LongitudeDegrees>-72.96819881536066532135009765625</LongitudeDegrees>
            </Position>
            <AltitudeMeters>498.600006103515625</AltitudeMeters>
            <DistanceMeters>13254.302631963</DistanceMeters>
          </Trackpoint>
          <Trackpoint>
            <Time>2023-01-11T19:35:50.000Z</Time>
            <Position>
              <LatitudeDegrees>-49.23609559424221515655517578125</LatitudeDegrees>
              <LongitudeDegrees>-72.96818129718303680419921875</LongitudeDegrees>
            </Position>
            <AltitudeMeters>498.600006103515625</AltitudeMeters>
            <DistanceMeters>13257.694433459</DistanceMeters>
          </Trackpoint>
          <Trackpoint>
            <Time>2023-01-11T19:35:51.000Z</Time>
            <Position>
              <LatitudeDegrees>-49.23610053956508636474609375</LatitudeDegrees>
              <LongitudeDegrees>-72.96815807931125164031982421875</LongitudeDegrees>
            </Position>
            <AltitudeMeters>498.600006103515625</AltitudeMeters>
            <DistanceMeters>13259.469678985</DistanceMeters>
          </Trackpoint>
          <Trackpoint>
            <Time>2023-01-11T19:35:53.000Z</Time>
            <Position>
              <LatitudeDegrees>-49.236111603677272796630859375</LatitudeDegrees>
              <LongitudeDegrees>-72.96813310123980045318603515625</LongitudeDegrees>
            </Position>
            <AltitudeMeters>498.600006103515625</AltitudeMeters>
            <DistanceMeters>13261.665598114</DistanceMeters>
          </Trackpoint>
          <Trackpoint>
            <Time>2023-01-11T19:35:54.000Z</Time>
            <Position>
              <LatitudeDegrees>-49.2361198179423809051513671875</LatitudeDegrees>
              <LongitudeDegrees>-72.96812404878437519073486328125</LongitudeDegrees>
            </Position>
            <AltitudeMeters>498.600006103515625</AltitudeMeters>
            <DistanceMeters>13262.789969362</DistanceMeters>
          </Trackpoint>
          <Trackpoint>
            <Time>2023-01-11T19:35:57.000Z</Time>
            <Position>
              <LatitudeDegrees>-49.23614001832902431488037109375</LatitudeDegrees>
              <LongitudeDegrees>-72.96810896135866641998291015625</LongitudeDegrees>
            </Position>
            <AltitudeMeters>498.600006103515625</AltitudeMeters>
            <DistanceMeters>13265.291537465</DistanceMeters>
          </Trackpoint>
          <Trackpoint>
            <Time>2023-01-11T19:36:04.000Z</Time>
            <Position>
              <LatitudeDegrees>-49.23619014210999011993408203125</LatitudeDegrees>
              <LongitudeDegrees>-72.968033440411090850830078125</LongitudeDegrees>
            </Position>
            <AltitudeMeters>498.600006103515625</AltitudeMeters>
            <DistanceMeters>13273.117262891</DistanceMeters>
          </Trackpoint>
          <Trackpoint>
            <Time>2023-01-11T19:36:09.000Z</Time>
            <Position>
              <LatitudeDegrees>-49.23619969747960567474365234375</LatitudeDegrees>
              <LongitudeDegrees>-72.967954315245151519775390625</LongitudeDegrees>
            </Position>
            <AltitudeMeters>498.600006103515625</AltitudeMeters>
            <DistanceMeters>13278.965074404</DistanceMeters>
          </Trackpoint>
          <Trackpoint>
            <Time>2023-01-11T19:36:12.000Z</Time>
            <Position>
              <LatitudeDegrees>-49.2362133599817752838134765625</LatitudeDegrees>
              <LongitudeDegrees>-72.96790310181677341461181640625</LongitudeDegrees>
            </Position>
            <AltitudeMeters>498.600006103515625</AltitudeMeters>
            <DistanceMeters>13282.985501849</DistanceMeters>
          </Trackpoint>
          <Trackpoint>
            <Time>2023-01-11T19:36:16.000Z</Time>
            <Position>
              <LatitudeDegrees>-49.2362152040004730224609375</LatitudeDegrees>
              <LongitudeDegrees>-72.96782724559307098388671875</LongitudeDegrees>
            </Position>
            <AltitudeMeters>498.600006103515625</AltitudeMeters>
            <DistanceMeters>13288.501964267</DistanceMeters>
          </Trackpoint>
          <Trackpoint>
            <Time>2023-01-11T19:36:19.000Z</Time>
            <Position>
              <LatitudeDegrees>-49.23624403774738311767578125</LatitudeDegrees>
              <LongitudeDegrees>-72.96778541989624500274658203125</LongitudeDegrees>
            </Position>
            <AltitudeMeters>498.600006103515625</AltitudeMeters>
            <DistanceMeters>13292.922494261</DistanceMeters>
          </Trackpoint>
          <Trackpoint>
            <Time>2023-01-11T19:36:21.000Z</Time>
            <Position>
              <LatitudeDegrees>-49.2362532578408718109130859375</LatitudeDegrees>
              <LongitudeDegrees>-72.9677730984985828399658203125</LongitudeDegrees>
            </Position>
            <AltitudeMeters>498.600006103515625</AltitudeMeters>
            <DistanceMeters>13294.27974722</DistanceMeters>
          </Trackpoint>
          <Trackpoint>
            <Time>2023-01-11T19:36:26.000Z</Time>
            <Position>
              <LatitudeDegrees>-49.23630044795572757720947265625</LatitudeDegrees>
              <LongitudeDegrees>-72.96769573353230953216552734375</LongitudeDegrees>
            </Position>
            <AltitudeMeters>498.600006103515625</AltitudeMeters>
            <DistanceMeters>13301.973977602</DistanceMeters>
          </Trackpoint>
          <Trackpoint>
            <Time>2023-01-11T19:36:33.000Z</Time>
            <Position>
              <LatitudeDegrees>-49.23635174520313739776611328125</LatitudeDegrees>
              <LongitudeDegrees>-72.96759062446653842926025390625</LongitudeDegrees>
            </Position>
            <AltitudeMeters>498.600006103515625</AltitudeMeters>
            <DistanceMeters>13311.510323855</DistanceMeters>
          </Trackpoint>
          <Trackpoint>
            <Time>2023-01-11T19:36:40.000Z</Time>
            <Position>
              <LatitudeDegrees>-49.2363766394555568695068359375</LatitudeDegrees>
              <LongitudeDegrees>-72.9675052128732204437255859375</LongitudeDegrees>
            </Position>
            <AltitudeMeters>498.600006103515625</AltitudeMeters>
            <DistanceMeters>13318.307889681</DistanceMeters>
          </Trackpoint>
          <Trackpoint>
            <Time>2023-01-11T19:36:48.000Z</Time>
            <Position>
              <LatitudeDegrees>-49.23638678155839443206787109375</LatitudeDegrees>
              <LongitudeDegrees>-72.96735626645386219024658203125</LongitudeDegrees>
            </Position>
            <AltitudeMeters>498.600006103515625</AltitudeMeters>
            <DistanceMeters>13329.191663971</DistanceMeters>
          </Trackpoint>
          <Trackpoint>
            <Time>2023-01-11T19:36:55.000Z</Time>
            <Position>
              <LatitudeDegrees>-49.23639700748026371002197265625</LatitudeDegrees>
              <LongitudeDegrees>-72.96724042855203151702880859375</LongitudeDegrees>
            </Position>
            <AltitudeMeters>498.600006103515625</AltitudeMeters>
            <DistanceMeters>13337.686860905</DistanceMeters>
          </Trackpoint>
          <Trackpoint>
            <Time>2023-01-11T19:37:03.000Z</Time>
            <Position>
              <LatitudeDegrees>-49.23641578294336795806884765625</LatitudeDegrees>
              <LongitudeDegrees>-72.96710816211998462677001953125</LongitudeDegrees>
            </Position>
            <AltitudeMeters>498.600006103515625</AltitudeMeters>
            <DistanceMeters>13347.52384719</DistanceMeters>
          </Trackpoint>
          <Trackpoint>
            <Time>2023-01-11T19:37:07.000Z</Time>
            <Position>
              <LatitudeDegrees>-49.23641779460012912750244140625</LatitudeDegrees>
              <LongitudeDegrees>-72.96704395674169063568115234375</LongitudeDegrees>
            </Position>
            <AltitudeMeters>498.600006103515625</AltitudeMeters>
            <DistanceMeters>13352.195644999</DistanceMeters>
          </Trackpoint>
          <Trackpoint>
            <Time>2023-01-11T19:37:10.000Z</Time>
            <Position>
              <LatitudeDegrees>-49.236398600041866302490234375</LatitudeDegrees>
              <LongitudeDegrees>-72.96700439415872097015380859375</LongitudeDegrees>
            </Position>
            <AltitudeMeters>498.600006103515625</AltitudeMeters>
            <DistanceMeters>13355.776525973</DistanceMeters>
          </Trackpoint>
          <Trackpoint>
            <Time>2023-01-11T19:37:14.000Z</Time>
            <Position>
              <LatitudeDegrees>-49.23638158477842807769775390625</LatitudeDegrees>
              <LongitudeDegrees>-72.9669178090989589691162109375</LongitudeDegrees>
            </Position>
            <AltitudeMeters>498.600006103515625</AltitudeMeters>
            <DistanceMeters>13362.34781394</DistanceMeters>
          </Trackpoint>
          <Trackpoint>
            <Time>2023-01-11T19:37:19.000Z</Time>
            <Position>
              <LatitudeDegrees>-49.2364175431430339813232421875</LatitudeDegrees>
              <LongitudeDegrees>-72.96682267449796199798583984375</LongitudeDegrees>
            </Position>
            <AltitudeMeters>498.600006103515625</AltitudeMeters>
            <DistanceMeters>13370.336277512</DistanceMeters>
          </Trackpoint>
          <Trackpoint>
            <Time>2023-01-11T19:37:22.000Z</Time>
            <Position>
              <LatitudeDegrees>-49.23642885871231555938720703125</LatitudeDegrees>
              <LongitudeDegrees>-72.96677623875439167022705078125</LongitudeDegrees>
            </Position>
            <AltitudeMeters>498.600006103515625</AltitudeMeters>
            <DistanceMeters>13373.937275953</DistanceMeters>
          </Trackpoint>
          <Trackpoint>
            <Time>2023-01-11T19:37:28.000Z</Time>
            <Position>
              <LatitudeDegrees>-49.2364493943750858306884765625</LatitudeDegrees>
              <LongitudeDegrees>-72.9666499234735965728759765625</LongitudeDegrees>
            </Position>
            <AltitudeMeters>498.600006103515625</AltitudeMeters>
            <DistanceMeters>13383.397565993</DistanceMeters>
          </Trackpoint>
          <Trackpoint>
            <Time>2023-01-11T19:37:36.000Z</Time>
            <Position>
              <LatitudeDegrees>-49.236514270305633544921875</LatitudeDegrees>
              <LongitudeDegrees>-72.9665590636432170867919921875</LongitudeDegrees>
            </Position>
            <AltitudeMeters>493.399993896484375</AltitudeMeters>
            <DistanceMeters>13393.182549413</DistanceMeters>
          </Trackpoint>
          <Trackpoint>
            <Time>2023-01-11T19:37:37.000Z</Time>
            <Position>
              <LatitudeDegrees>-49.2365184612572193145751953125</LatitudeDegrees>
              <LongitudeDegrees>-72.9665506817400455474853515625</LongitudeDegrees>
            </Position>
            <AltitudeMeters>493.399993896484375</AltitudeMeters>
            <DistanceMeters>13393.948679277</DistanceMeters>
          </Trackpoint>
          <Trackpoint>
            <Time>2023-01-11T19:37:40.000Z</Time>
            <Position>
              <LatitudeDegrees>-49.23654184676706790924072265625</LatitudeDegrees>
              <LongitudeDegrees>-72.96648086048662662506103515625</LongitudeDegrees>
            </Position>
            <AltitudeMeters>493.20001220703125</AltitudeMeters>
            <DistanceMeters>13399.651865698</DistanceMeters>
          </Trackpoint>
          <Trackpoint>
            <Time>2023-01-11T19:37:43.000Z</Time>
            <Position>
              <LatitudeDegrees>-49.2365650646388530731201171875</LatitudeDegrees>
              <LongitudeDegrees>-72.96645018272101879119873046875</LongitudeDegrees>
            </Position>
            <AltitudeMeters>493.20001220703125</AltitudeMeters>
            <DistanceMeters>13403.064899336</DistanceMeters>
          </Trackpoint>
          <Trackpoint>
            <Time>2023-01-11T19:37:50.000Z</Time>
            <Position>
              <LatitudeDegrees>-49.23663488589227199554443359375</LatitudeDegrees>
              <LongitudeDegrees>-72.9663515277206897735595703125</LongitudeDegrees>
            </Position>
            <AltitudeMeters>492.79998779296875</AltitudeMeters>
            <DistanceMeters>13413.638089317</DistanceMeters>
          </Trackpoint>
          <Trackpoint>
            <Time>2023-01-11T19:37:57.000Z</Time>
            <Position>
              <LatitudeDegrees>-49.23666556365787982940673828125</LatitudeDegrees>
              <LongitudeDegrees>-72.96623879112303256988525390625</LongitudeDegrees>
            </Position>
            <AltitudeMeters>492</AltitudeMeters>
            <DistanceMeters>13422.513808268</DistanceMeters>
          </Trackpoint>
          <Trackpoint>
            <Time>2023-01-11T19:38:00.000Z</Time>
            <Position>
              <LatitudeDegrees>-49.23666874878108501434326171875</LatitudeDegrees>
              <LongitudeDegrees>-72.966204173862934112548828125</LongitudeDegrees>
            </Position>
            <AltitudeMeters>491.600006103515625</AltitudeMeters>
            <DistanceMeters>13425.052996048</DistanceMeters>
          </Trackpoint>
          <Trackpoint>
            <Time>2023-01-11T19:38:04.000Z</Time>
            <Position>
              <LatitudeDegrees>-49.2366746999323368072509765625</LatitudeDegrees>
              <LongitudeDegrees>-72.9661460034549236297607421875</LongitudeDegrees>
            </Position>
            <AltitudeMeters>491.600006103515625</AltitudeMeters>
            <DistanceMeters>13429.331309378</DistanceMeters>
          </Trackpoint>
          <Trackpoint>
            <Time>2023-01-11T19:38:11.000Z</Time>
            <Position>
              <LatitudeDegrees>-49.236685931682586669921875</LatitudeDegrees>
              <LongitudeDegrees>-72.9660402238368988037109375</LongitudeDegrees>
            </Position>
            <AltitudeMeters>490.79998779296875</AltitudeMeters>
            <DistanceMeters>13437.118863127</DistanceMeters>
          </Trackpoint>
          <Trackpoint>
            <Time>2023-01-11T19:38:12.000Z</Time>
            <Position>
              <LatitudeDegrees>-49.23669540323317050933837890625</LatitudeDegrees>
              <LongitudeDegrees>-72.96602555550634860992431640625</LongitudeDegrees>
            </Position>
            <AltitudeMeters>490.20001220703125</AltitudeMeters>
            <DistanceMeters>13438.618359387</DistanceMeters>
          </Trackpoint>
          <Trackpoint>
            <Time>2023-01-11T19:38:20.000Z</Time>
            <Position>
              <LatitudeDegrees>-49.23676396720111370086669921875</LatitudeDegrees>
              <LongitudeDegrees>-72.96591206453740596771240234375</LongitudeDegrees>
            </Position>
            <AltitudeMeters>491.399993896484375</AltitudeMeters>
            <DistanceMeters>13449.854841437</DistanceMeters>
          </Trackpoint>
          <Trackpoint>
            <Time>2023-01-11T19:38:26.000Z</Time>
            <Position>
              <LatitudeDegrees>-49.236823059618473052978515625</LatitudeDegrees>
              <LongitudeDegrees>-72.9657658003270626068115234375</LongitudeDegrees>
            </Position>
            <AltitudeMeters>491</AltitudeMeters>
            <DistanceMeters>13462.354376733</DistanceMeters>
          </Trackpoint>
          <Trackpoint>
            <Time>2023-01-11T19:38:31.000Z</Time>
            <Position>
              <LatitudeDegrees>-49.23685960471630096435546875</LatitudeDegrees>
              <LongitudeDegrees>-72.9656967334449291229248046875</LongitudeDegrees>
            </Position>
            <AltitudeMeters>490.20001220703125</AltitudeMeters>
            <DistanceMeters>13468.814795708</DistanceMeters>
          </Trackpoint>
          <Trackpoint>
            <Time>2023-01-11T19:38:39.000Z</Time>
            <Position>
              <LatitudeDegrees>-49.2368735186755657196044921875</LatitudeDegrees>
              <LongitudeDegrees>-72.965595312416553497314453125</LongitudeDegrees>
            </Position>
            <AltitudeMeters>489.79998779296875</AltitudeMeters>
            <DistanceMeters>13476.345325574</DistanceMeters>
          </Trackpoint>
          <Trackpoint>
            <Time>2023-01-11T19:38:43.000Z</Time>
            <Position>
              <LatitudeDegrees>-49.2368909530341625213623046875</LatitudeDegrees>
              <LongitudeDegrees>-72.9655440151691436767578125</LongitudeDegrees>
            </Position>
            <AltitudeMeters>489.79998779296875</AltitudeMeters>
            <DistanceMeters>13480.548042496</DistanceMeters>
          </Trackpoint>
          <Trackpoint>
            <Time>2023-01-11T19:38:44.000Z</Time>
            <Position>
              <LatitudeDegrees>-49.23689472489058971405029296875</LatitudeDegrees>
              <LongitudeDegrees>-72.96552867628633975982666015625</LongitudeDegrees>
            </Position>
            <AltitudeMeters>489.600006103515625</AltitudeMeters>
            <DistanceMeters>13481.734925778</DistanceMeters>
          </Trackpoint>
          <Trackpoint>
            <Time>2023-01-11T19:38:46.000Z</Time>
            <Position>
              <LatitudeDegrees>-49.23690210096538066864013671875</LatitudeDegrees>
              <LongitudeDegrees>-72.9655037820339202880859375</LongitudeDegrees>
            </Position>
            <AltitudeMeters>489.20001220703125</AltitudeMeters>
            <DistanceMeters>13483.719141827</DistanceMeters>
          </Trackpoint>
          <Trackpoint>
            <Time>2023-01-11T19:38:50.000Z</Time>
            <Position>
              <LatitudeDegrees>-49.23691031523048877716064453125</LatitudeDegrees>
              <LongitudeDegrees>-72.9654533229768276214599609375</LongitudeDegrees>
            </Position>
            <AltitudeMeters>489.20001220703125</AltitudeMeters>
            <DistanceMeters>13487.498768916</DistanceMeters>
          </Trackpoint>
          <Trackpoint>
            <Time>2023-01-11T19:38:54.000Z</Time>
            <Position>
              <LatitudeDegrees>-49.23692129552364349365234375</LatitudeDegrees>
              <LongitudeDegrees>-72.965395152568817138671875</LongitudeDegrees>
            </Position>
            <AltitudeMeters>489.20001220703125</AltitudeMeters>
            <DistanceMeters>13491.90087569</DistanceMeters>
          </Trackpoint>
          <Trackpoint>
            <Time>2023-01-11T19:39:02.000Z</Time>
            <Position>
              <LatitudeDegrees>-49.2369742691516876220703125</LatitudeDegrees>
              <LongitudeDegrees>-72.96528409235179424285888671875</LongitudeDegrees>
            </Position>
            <AltitudeMeters>488.600006103515625</AltitudeMeters>
            <DistanceMeters>13501.896312938</DistanceMeters>
          </Trackpoint>
          <Trackpoint>
            <Time>2023-01-11T19:39:03.000Z</Time>
            <Position>
              <LatitudeDegrees>-49.23698432743549346923828125</LatitudeDegrees>
              <LongitudeDegrees>-72.9652692563831806182861328125</LongitudeDegrees>
            </Position>
            <AltitudeMeters>488.600006103515625</AltitudeMeters>
            <DistanceMeters>13503.449062245</DistanceMeters>
          </Trackpoint>
          <Trackpoint>
            <Time>2023-01-11T19:39:06.000Z</Time>
            <Position>
              <LatitudeDegrees>-49.236995391547679901123046875</LatitudeDegrees>
              <LongitudeDegrees>-72.9652221500873565673828125</LongitudeDegrees>
            </Position>
            <AltitudeMeters>488.79998779296875</AltitudeMeters>
            <DistanceMeters>13507.087481142</DistanceMeters>
          </Trackpoint>
          <Trackpoint>
            <Time>2023-01-11T19:39:11.000Z</Time>
            <Position>
              <LatitudeDegrees>-49.23702724277973175048828125</LatitudeDegrees>
              <LongitudeDegrees>-72.9651408456265926361083984375</LongitudeDegrees>
            </Position>
            <AltitudeMeters>488.79998779296875</AltitudeMeters>
            <DistanceMeters>13513.978064712</DistanceMeters>
          </Trackpoint>
          <Trackpoint>
            <Time>2023-01-11T19:39:13.000Z</Time>
            <Position>
              <LatitudeDegrees>-49.23703956417739391326904296875</LatitudeDegrees>
              <LongitudeDegrees>-72.96511326916515827178955078125</LongitudeDegrees>
            </Position>
            <AltitudeMeters>488.79998779296875</AltitudeMeters>
            <DistanceMeters>13516.406364512</DistanceMeters>
          </Trackpoint>
          <Trackpoint>
            <Time>2023-01-11T19:39:15.000Z</Time>
            <Position>
              <LatitudeDegrees>-49.237053059041500091552734375</LatitudeDegrees>
              <LongitudeDegrees>-72.96508736908435821533203125</LongitudeDegrees>
            </Position>
            <AltitudeMeters>488.79998779296875</AltitudeMeters>
            <DistanceMeters>13518.81412469</DistanceMeters>
          </Trackpoint>
          <Trackpoint>
            <Time>2023-01-11T19:39:17.000Z</Time>
            <Position>
              <LatitudeDegrees>-49.2370575852692127227783203125</LatitudeDegrees>
              <LongitudeDegrees>-72.96505359001457691192626953125</LongitudeDegrees>
            </Position>
            <AltitudeMeters>489</AltitudeMeters>
            <DistanceMeters>13521.319299959</DistanceMeters>
          </Trackpoint>
          <Trackpoint>
            <Time>2023-01-11T19:39:24.000Z</Time>
            <Position>
              <LatitudeDegrees>-49.2370844073593616485595703125</LatitudeDegrees>
              <LongitudeDegrees>-72.96492216177284717559814453125</LongitudeDegrees>
            </Position>
            <AltitudeMeters>489.20001220703125</AltitudeMeters>
            <DistanceMeters>13531.326474774</DistanceMeters>
          </Trackpoint>
          <Trackpoint>
            <Time>2023-01-11T19:39:29.000Z</Time>
            <Position>
              <LatitudeDegrees>-49.2371075414121150970458984375</LatitudeDegrees>
              <LongitudeDegrees>-72.964863069355487823486328125</LongitudeDegrees>
            </Position>
            <AltitudeMeters>489.20001220703125</AltitudeMeters>
            <DistanceMeters>13536.333219445</DistanceMeters>
          </Trackpoint>
          <Trackpoint>
            <Time>2023-01-11T19:39:30.000Z</Time>
            <Position>
              <LatitudeDegrees>-49.23711986280977725982666015625</LatitudeDegrees>
              <LongitudeDegrees>-72.96485125087201595306396484375</LongitudeDegrees>
            </Position>
            <AltitudeMeters>489.20001220703125</AltitudeMeters>
            <DistanceMeters>13537.95146608</DistanceMeters>
          </Trackpoint>
          <Trackpoint>
            <Time>2023-01-11T19:39:34.000Z</Time>
            <Position>
              <LatitudeDegrees>-49.23716948367655277252197265625</LatitudeDegrees>
              <LongitudeDegrees>-72.9647988639771938323974609375</LongitudeDegrees>
            </Position>
            <AltitudeMeters>489.600006103515625</AltitudeMeters>
            <DistanceMeters>13544.65943678</DistanceMeters>
          </Trackpoint>
          <Trackpoint>
            <Time>2023-01-11T19:39:37.000Z</Time>
            <Position>
              <LatitudeDegrees>-49.2371990717947483062744140625</LatitudeDegrees>
              <LongitudeDegrees>-72.964767180383205413818359375</LongitudeDegrees>
            </Position>
            <AltitudeMeters>489.600006103515625</AltitudeMeters>
            <DistanceMeters>13548.677617548</DistanceMeters>
          </Trackpoint>
          <Trackpoint>
            <Time>2023-01-11T19:39:41.000Z</Time>
            <Position>
              <LatitudeDegrees>-49.23723184503614902496337890625</LatitudeDegrees>
              <LongitudeDegrees>-72.96471362002193927764892578125</LongitudeDegrees>
            </Position>
            <AltitudeMeters>489.600006103515625</AltitudeMeters>
            <DistanceMeters>13554.012671526</DistanceMeters>
          </Trackpoint>
          <Trackpoint>
            <Time>2023-01-11T19:39:45.000Z</Time>
            <Position>
              <LatitudeDegrees>-49.237261600792407989501953125</LatitudeDegrees>
              <LongitudeDegrees>-72.96465687453746795654296875</LongitudeDegrees>
            </Position>
            <AltitudeMeters>489.399993896484375</AltitudeMeters>
            <DistanceMeters>13559.301828058</DistanceMeters>
          </Trackpoint>
          <Trackpoint>
            <Time>2023-01-11T19:39:48.000Z</Time>
            <Position>
              <LatitudeDegrees>-49.23729219473898410797119140625</LatitudeDegrees>
              <LongitudeDegrees>-72.9646268673241138458251953125</LongitudeDegrees>
            </Position>
            <AltitudeMeters>489.399993896484375</AltitudeMeters>
            <DistanceMeters>13563.3446536</DistanceMeters>
          </Trackpoint>
          <Trackpoint>
            <Time>2023-01-11T19:39:50.000Z</Time>
            <Position>
              <LatitudeDegrees>-49.2373060248792171478271484375</LatitudeDegrees>
              <LongitudeDegrees>-72.964602224528789520263671875</LongitudeDegrees>
            </Position>
            <AltitudeMeters>489.399993896484375</AltitudeMeters>
            <DistanceMeters>13565.705068218</DistanceMeters>
          </Trackpoint>
          <Trackpoint>
            <Time>2023-01-11T19:39:52.000Z</Time>
            <Position>
              <LatitudeDegrees>-49.2373395524919033050537109375</LatitudeDegrees>
              <LongitudeDegrees>-72.964577414095401763916015625</LongitudeDegrees>
            </Position>
            <AltitudeMeters>489.399993896484375</AltitudeMeters>
            <DistanceMeters>13569.849366156</DistanceMeters>
          </Trackpoint>
          <Trackpoint>
            <Time>2023-01-11T19:39:58.000Z</Time>
            <Position>
              <LatitudeDegrees>-49.2373291589319705963134765625</LatitudeDegrees>
              <LongitudeDegrees>-72.964563667774200439453125</LongitudeDegrees>
            </Position>
            <AltitudeMeters>488.600006103515625</AltitudeMeters>
            <DistanceMeters>13571.378676392</DistanceMeters>
          </Trackpoint>
          <Trackpoint>
            <Time>2023-01-11T19:40:03.000Z</Time>
            <Position>
              <LatitudeDegrees>-49.23737802542746067047119140625</LatitudeDegrees>
              <LongitudeDegrees>-72.9645041562616825103759765625</LongitudeDegrees>
            </Position>
            <AltitudeMeters>488.600006103515625</AltitudeMeters>
            <DistanceMeters>13578.327982028</DistanceMeters>
          </Trackpoint>
          <Trackpoint>
            <Time>2023-01-11T19:40:05.000Z</Time>
            <Position>
              <LatitudeDegrees>-49.237400405108928680419921875</LatitudeDegrees>
              <LongitudeDegrees>-72.96448177658021450042724609375</LongitudeDegrees>
            </Position>
            <AltitudeMeters>488.79998779296875</AltitudeMeters>
            <DistanceMeters>13581.30278873</DistanceMeters>
          </Trackpoint>
          <Trackpoint>
            <Time>2023-01-11T19:40:11.000Z</Time>
            <Position>
              <LatitudeDegrees>-49.23743200488388538360595703125</LatitudeDegrees>
              <LongitudeDegrees>-72.96444824896752834320068359375</LongitudeDegrees>
            </Position>
            <AltitudeMeters>488.79998779296875</AltitudeMeters>
            <DistanceMeters>13585.580046599</DistanceMeters>
          </Trackpoint>
          <Trackpoint>
            <Time>2023-01-11T19:40:19.000Z</Time>
            <Position>
              <LatitudeDegrees>-49.23750869929790496826171875</LatitudeDegrees>
              <LongitudeDegrees>-72.96436677686870098114013671875</LongitudeDegrees>
            </Position>
            <AltitudeMeters>489</AltitudeMeters>
            <DistanceMeters>13595.968426818</DistanceMeters>
          </Trackpoint>
          <Trackpoint>
            <Time>2023-01-11T19:40:25.000Z</Time>
            <Position>
              <LatitudeDegrees>-49.2375765927135944366455078125</LatitudeDegrees>
              <LongitudeDegrees>-72.96431464143097400665283203125</LongitudeDegrees>
            </Position>
            <AltitudeMeters>489.399993896484375</AltitudeMeters>
            <DistanceMeters>13604.422066565</DistanceMeters>
          </Trackpoint>
          <Trackpoint>
            <Time>2023-01-11T19:40:26.000Z</Time>
            <Position>
              <LatitudeDegrees>-49.23758204095065593719482421875</LatitudeDegrees>
              <LongitudeDegrees>-72.96430944465100765228271484375</LongitudeDegrees>
            </Position>
            <AltitudeMeters>489.399993896484375</AltitudeMeters>
            <DistanceMeters>13605.145768461</DistanceMeters>
          </Trackpoint>
          <Trackpoint>
            <Time>2023-01-11T19:40:27.000Z</Time>
            <Position>
              <LatitudeDegrees>-49.237590841948986053466796875</LatitudeDegrees>
              <LongitudeDegrees>-72.96430441550910472869873046875</LongitudeDegrees>
            </Position>
            <AltitudeMeters>489.399993896484375</AltitudeMeters>
            <DistanceMeters>13606.195372828</DistanceMeters>
          </Trackpoint>
          <Trackpoint>
            <Time>2023-01-11T19:40:30.000Z</Time>
            <Position>
              <LatitudeDegrees>-49.2376114614307880401611328125</LatitudeDegrees>
              <LongitudeDegrees>-72.96427524648606777191162109375</LongitudeDegrees>
            </Position>
            <AltitudeMeters>489.600006103515625</AltitudeMeters>
            <DistanceMeters>13609.31971478</DistanceMeters>
          </Trackpoint>
          <Trackpoint>
            <Time>2023-01-11T19:40:31.000Z</Time>
            <Position>
              <LatitudeDegrees>-49.23762881197035312652587890625</LatitudeDegrees>
              <LongitudeDegrees>-72.964260913431644439697265625</LongitudeDegrees>
            </Position>
            <AltitudeMeters>489.600006103515625</AltitudeMeters>
            <DistanceMeters>13611.513576841</DistanceMeters>
          </Trackpoint>
          <Trackpoint>
            <Time>2023-01-11T19:40:32.000Z</Time>
            <Position>
              <LatitudeDegrees>-49.237645156681537628173828125</LatitudeDegrees>
              <LongitudeDegrees>-72.964257895946502685546875</LongitudeDegrees>
            </Position>
            <AltitudeMeters>489.600006103515625</AltitudeMeters>
            <DistanceMeters>13613.343920624</DistanceMeters>
          </Trackpoint>
          <Trackpoint>
            <Time>2023-01-11T19:40:39.000Z</Time>
            <Position>
              <LatitudeDegrees>-49.23772721551358699798583984375</LatitudeDegrees>
              <LongitudeDegrees>-72.9642064310610294342041015625</LongitudeDegrees>
            </Position>
            <AltitudeMeters>490.20001220703125</AltitudeMeters>
            <DistanceMeters>13623.213441108</DistanceMeters>
          </Trackpoint>
          <Trackpoint>
            <Time>2023-01-11T19:40:40.000Z</Time>
            <Position>
              <LatitudeDegrees>-49.23773693852126598358154296875</LatitudeDegrees>
              <LongitudeDegrees>-72.9641953669488430023193359375</LongitudeDegrees>
            </Position>
            <AltitudeMeters>490.20001220703125</AltitudeMeters>
            <DistanceMeters>13624.560677303</DistanceMeters>
          </Trackpoint>
          <Trackpoint>
            <Time>2023-01-11T19:40:48.000Z</Time>
            <Position>
              <LatitudeDegrees>-49.2378143034875392913818359375</LatitudeDegrees>
              <LongitudeDegrees>-72.96409470029175281524658203125</LongitudeDegrees>
            </Position>
            <AltitudeMeters>490.20001220703125</AltitudeMeters>
            <DistanceMeters>13635.859669328</DistanceMeters>
          </Trackpoint>
          <Trackpoint>
            <Time>2023-01-11T19:40:57.000Z</Time>
            <Position>
              <LatitudeDegrees>-49.23787674866616725921630859375</LatitudeDegrees>
              <LongitudeDegrees>-72.96400367282330989837646484375</LongitudeDegrees>
            </Position>
            <AltitudeMeters>490</AltitudeMeters>
            <DistanceMeters>13645.455015044</DistanceMeters>
          </Trackpoint>
          <Trackpoint>
            <Time>2023-01-11T19:41:07.000Z</Time>
            <Position>
              <LatitudeDegrees>-49.2379457317292690277099609375</LatitudeDegrees>
              <LongitudeDegrees>-72.96388045884668827056884765625</LongitudeDegrees>
            </Position>
            <AltitudeMeters>490.600006103515625</AltitudeMeters>
            <DistanceMeters>13657.250199985</DistanceMeters>
          </Trackpoint>
          <Trackpoint>
            <Time>2023-01-11T19:41:08.000Z</Time>
            <Position>
              <LatitudeDegrees>-49.23793911002576351165771484375</LatitudeDegrees>
              <LongitudeDegrees>-72.9638735018670558929443359375</LongitudeDegrees>
            </Position>
            <AltitudeMeters>490.600006103515625</AltitudeMeters>
            <DistanceMeters>13658.141629582</DistanceMeters>
          </Trackpoint>
          <Trackpoint>
            <Time>2023-01-11T19:41:13.000Z</Time>
            <Position>
              <LatitudeDegrees>-49.2379795946180820465087890625</LatitudeDegrees>
              <LongitudeDegrees>-72.96380518935620784759521484375</LongitudeDegrees>
            </Position>
            <AltitudeMeters>491</AltitudeMeters>
            <DistanceMeters>13664.845560553</DistanceMeters>
          </Trackpoint>
          <Trackpoint>
            <Time>2023-01-11T19:41:24.000Z</Time>
            <Position>
              <LatitudeDegrees>-49.2380540259182453155517578125</LatitudeDegrees>
              <LongitudeDegrees>-72.96370334923267364501953125</LongitudeDegrees>
            </Position>
            <AltitudeMeters>490.20001220703125</AltitudeMeters>
            <DistanceMeters>13675.954341975</DistanceMeters>
          </Trackpoint>
          <Trackpoint>
            <Time>2023-01-11T19:41:31.000Z</Time>
            <Position>
              <LatitudeDegrees>-49.2381214164197444915771484375</LatitudeDegrees>
              <LongitudeDegrees>-72.96359279192984104156494140625</LongitudeDegrees>
            </Position>
            <AltitudeMeters>490.20001220703125</AltitudeMeters>
            <DistanceMeters>13686.945445771</DistanceMeters>
          </Trackpoint>
          <Trackpoint>
            <Time>2023-01-11T19:41:38.000Z</Time>
            <Position>
              <LatitudeDegrees>-49.2381955124437808990478515625</LatitudeDegrees>
              <LongitudeDegrees>-72.9635606892406940460205078125</LongitudeDegrees>
            </Position>
            <AltitudeMeters>491.20001220703125</AltitudeMeters>
            <DistanceMeters>13695.515780759</DistanceMeters>
          </Trackpoint>
          <Trackpoint>
            <Time>2023-01-11T19:41:40.000Z</Time>
            <Position>
              <LatitudeDegrees>-49.23821269534528255462646484375</LatitudeDegrees>
              <LongitudeDegrees>-72.9635496251285076141357421875</LongitudeDegrees>
            </Position>
            <AltitudeMeters>491.600006103515625</AltitudeMeters>
            <DistanceMeters>13697.589018899</DistanceMeters>
          </Trackpoint>
          <Trackpoint>
            <Time>2023-01-11T19:41:41.000Z</Time>
            <Position>
              <LatitudeDegrees>-49.23821873031556606292724609375</LatitudeDegrees>
              <LongitudeDegrees>-72.9635442607104778289794921875</LongitudeDegrees>
            </Position>
            <AltitudeMeters>491.79998779296875</AltitudeMeters>
            <DistanceMeters>13698.361019576</DistanceMeters>
          </Trackpoint>
          <Trackpoint>
            <Time>2023-01-11T19:41:46.000Z</Time>
            <Position>
              <LatitudeDegrees>-49.23825192265212535858154296875</LatitudeDegrees>
              <LongitudeDegrees>-72.963521294295787811279296875</LongitudeDegrees>
            </Position>
            <AltitudeMeters>492.20001220703125</AltitudeMeters>
            <DistanceMeters>13702.414997762</DistanceMeters>
          </Trackpoint>
          <Trackpoint>
            <Time>2023-01-11T19:41:50.000Z</Time>
            <Position>
              <LatitudeDegrees>-49.2382900603115558624267578125</LatitudeDegrees>
              <LongitudeDegrees>-72.963496483862400054931640625</LongitudeDegrees>
            </Position>
            <AltitudeMeters>492.79998779296875</AltitudeMeters>
            <DistanceMeters>13707.027465659</DistanceMeters>
          </Trackpoint>
          <Trackpoint>
            <Time>2023-01-11T19:41:53.000Z</Time>
            <Position>
              <LatitudeDegrees>-49.238296933472156524658203125</LatitudeDegrees>
              <LongitudeDegrees>-72.96344258822500705718994140625</LongitudeDegrees>
            </Position>
            <AltitudeMeters>492.79998779296875</AltitudeMeters>
            <DistanceMeters>13711.018587662</DistanceMeters>
          </Trackpoint>
          <Trackpoint>
            <Time>2023-01-11T19:41:54.000Z</Time>
            <Position>
              <LatitudeDegrees>-49.23829483799636363983154296875</LatitudeDegrees>
              <LongitudeDegrees>-72.96342163346707820892333984375</LongitudeDegrees>
            </Position>
            <AltitudeMeters>492.79998779296875</AltitudeMeters>
            <DistanceMeters>13712.559661997</DistanceMeters>
          </Trackpoint>
          <Trackpoint>
            <Time>2023-01-11T19:41:59.000Z</Time>
            <Position>
              <LatitudeDegrees>-49.23832501284778118133544921875</LatitudeDegrees>
              <LongitudeDegrees>-72.9633390717208385467529296875</LongitudeDegrees>
            </Position>
            <AltitudeMeters>492.600006103515625</AltitudeMeters>
            <DistanceMeters>13719.43581501</DistanceMeters>
          </Trackpoint>
          <Trackpoint>
            <Time>2023-01-11T19:42:08.000Z</Time>
            <Position>
              <LatitudeDegrees>-49.2384012043476104736328125</LatitudeDegrees>
              <LongitudeDegrees>-72.9631992615759372711181640625</LongitudeDegrees>
            </Position>
            <AltitudeMeters>492.399993896484375</AltitudeMeters>
            <DistanceMeters>13732.67014018</DistanceMeters>
          </Trackpoint>
          <Trackpoint>
            <Time>2023-01-11T19:42:10.000Z</Time>
            <Position>
              <LatitudeDegrees>-49.23842291347682476043701171875</LatitudeDegrees>
              <LongitudeDegrees>-72.96318107284605503082275390625</LongitudeDegrees>
            </Position>
            <AltitudeMeters>492.20001220703125</AltitudeMeters>
            <DistanceMeters>13735.424276018</DistanceMeters>
          </Trackpoint>
          <Trackpoint>
            <Time>2023-01-11T19:42:14.000Z</Time>
            <Position>
              <LatitudeDegrees>-49.23846079967916011810302734375</LatitudeDegrees>
              <LongitudeDegrees>-72.963131703436374664306640625</LongitudeDegrees>
            </Position>
            <AltitudeMeters>491.79998779296875</AltitudeMeters>
            <DistanceMeters>13740.960346777</DistanceMeters>
          </Trackpoint>
          <Trackpoint>
            <Time>2023-01-11T19:42:15.000Z</Time>
            <Position>
              <LatitudeDegrees>-49.238472282886505126953125</LatitudeDegrees>
              <LongitudeDegrees>-72.9631234891712665557861328125</LongitudeDegrees>
            </Position>
            <AltitudeMeters>491.79998779296875</AltitudeMeters>
            <DistanceMeters>13742.369820728</DistanceMeters>
          </Trackpoint>
          <Trackpoint>
            <Time>2023-01-11T19:42:22.000Z</Time>
            <Position>
              <LatitudeDegrees>-49.23853062093257904052734375</LatitudeDegrees>
              <LongitudeDegrees>-72.96304796822369098663330078125</LongitudeDegrees>
            </Position>
            <AltitudeMeters>491.79998779296875</AltitudeMeters>
            <DistanceMeters>13750.871393045</DistanceMeters>
          </Trackpoint>
          <Trackpoint>
            <Time>2023-01-11T19:42:24.000Z</Time>
            <Position>
              <LatitudeDegrees>-49.23855878412723541259765625</LatitudeDegrees>
              <LongitudeDegrees>-72.96302382834255695343017578125</LongitudeDegrees>
            </Position>
            <AltitudeMeters>492.20001220703125</AltitudeMeters>
            <DistanceMeters>13754.463603957</DistanceMeters>
          </Trackpoint>
          <Trackpoint>
            <Time>2023-01-11T19:42:26.000Z</Time>
            <Position>
              <LatitudeDegrees>-49.2385763861238956451416015625</LatitudeDegrees>
              <LongitudeDegrees>-72.96299985609948635101318359375</LongitudeDegrees>
            </Position>
            <AltitudeMeters>492.20001220703125</AltitudeMeters>
            <DistanceMeters>13757.085032608</DistanceMeters>
          </Trackpoint>
          <Trackpoint>
            <Time>2023-01-11T19:42:27.000Z</Time>
            <Position>
              <LatitudeDegrees>-49.2385924793779850006103515625</LatitudeDegrees>
              <LongitudeDegrees>-72.96299348585307598114013671875</LongitudeDegrees>
            </Position>
            <AltitudeMeters>492.20001220703125</AltitudeMeters>
            <DistanceMeters>13758.932563094</DistanceMeters>
          </Trackpoint>
          <Trackpoint>
            <Time>2023-01-11T19:42:29.000Z</Time>
            <Position>
              <LatitudeDegrees>-49.2386149428784847259521484375</LatitudeDegrees>
              <LongitudeDegrees>-72.9629672504961490631103515625</LongitudeDegrees>
            </Position>
            <AltitudeMeters>492.20001220703125</AltitudeMeters>
            <DistanceMeters>13762.075635417</DistanceMeters>
          </Trackpoint>
          <Trackpoint>
            <Time>2023-01-11T19:42:36.000Z</Time>
            <Position>
              <LatitudeDegrees>-49.23872147686779499053955078125</LatitudeDegrees>
              <LongitudeDegrees>-72.96289005316793918609619140625</LongitudeDegrees>
            </Position>
            <AltitudeMeters>492.79998779296875</AltitudeMeters>
            <DistanceMeters>13775.193452946</DistanceMeters>
          </Trackpoint>
          <Trackpoint>
            <Time>2023-01-11T19:42:38.000Z</Time>
            <Position>
              <LatitudeDegrees>-49.23873639665544033050537109375</LatitudeDegrees>
              <LongitudeDegrees>-72.96287965960800647735595703125</LongitudeDegrees>
            </Position>
            <AltitudeMeters>493.600006103515625</AltitudeMeters>
            <DistanceMeters>13777.016381395</DistanceMeters>
          </Trackpoint>
          <Trackpoint>
            <Time>2023-01-11T19:42:45.000Z</Time>
            <Position>
              <LatitudeDegrees>-49.238830022513866424560546875</LatitudeDegrees>
              <LongitudeDegrees>-72.9628415219485759735107421875</LongitudeDegrees>
            </Position>
            <AltitudeMeters>493.79998779296875</AltitudeMeters>
            <DistanceMeters>13787.799296785</DistanceMeters>
          </Trackpoint>
          <Trackpoint>
            <Time>2023-01-11T19:42:46.000Z</Time>
            <Position>
              <LatitudeDegrees>-49.2388399131596088409423828125</LatitudeDegrees>
              <LongitudeDegrees>-72.96283029019832611083984375</LongitudeDegrees>
            </Position>
            <AltitudeMeters>494.20001220703125</AltitudeMeters>
            <DistanceMeters>13789.169791549</DistanceMeters>
          </Trackpoint>
          <Trackpoint>
            <Time>2023-01-11T19:42:53.000Z</Time>
            <Position>
              <LatitudeDegrees>-49.23889297060668468475341796875</LatitudeDegrees>
              <LongitudeDegrees>-72.9627385921776294708251953125</LongitudeDegrees>
            </Position>
            <AltitudeMeters>494.20001220703125</AltitudeMeters>
            <DistanceMeters>13798.073951879</DistanceMeters>
          </Trackpoint>
          <Trackpoint>
            <Time>2023-01-11T19:43:04.000Z</Time>
            <Position>
              <LatitudeDegrees>-49.23895306885242462158203125</LatitudeDegrees>
              <LongitudeDegrees>-72.96254639513790607452392578125</LongitudeDegrees>
            </Position>
            <AltitudeMeters>494.399993896484375</AltitudeMeters>
            <DistanceMeters>13813.560099567</DistanceMeters>
          </Trackpoint>
          <Trackpoint>
            <Time>2023-01-11T19:43:07.000Z</Time>
            <Position>
              <LatitudeDegrees>-49.2389629594981670379638671875</LatitudeDegrees>
              <LongitudeDegrees>-72.96250029467046260833740234375</LongitudeDegrees>
            </Position>
            <AltitudeMeters>494.600006103515625</AltitudeMeters>
            <DistanceMeters>13817.086346192</DistanceMeters>
          </Trackpoint>
          <Trackpoint>
            <Time>2023-01-11T19:43:12.000Z</Time>
            <Position>
              <LatitudeDegrees>-49.238955415785312652587890625</LatitudeDegrees>
              <LongitudeDegrees>-72.9624247737228870391845703125</LongitudeDegrees>
            </Position>
            <AltitudeMeters>494.399993896484375</AltitudeMeters>
            <DistanceMeters>13822.638704338</DistanceMeters>
          </Trackpoint>
          <Trackpoint>
            <Time>2023-01-11T19:43:21.000Z</Time>
            <Position>
              <LatitudeDegrees>-49.23891996033489704132080078125</LatitudeDegrees>
              <LongitudeDegrees>-72.96228303574025630950927734375</LongitudeDegrees>
            </Position>
            <AltitudeMeters>493.79998779296875</AltitudeMeters>
            <DistanceMeters>13833.669173503</DistanceMeters>
          </Trackpoint>
          <Trackpoint>
            <Time>2023-01-11T19:43:22.000Z</Time>
            <Position>
              <LatitudeDegrees>-49.238921888172626495361328125</LatitudeDegrees>
              <LongitudeDegrees>-72.9622668586671352386474609375</LongitudeDegrees>
            </Position>
            <AltitudeMeters>493.600006103515625</AltitudeMeters>
            <DistanceMeters>13834.867414779</DistanceMeters>
          </Trackpoint>
          <Trackpoint>
            <Time>2023-01-11T19:43:25.000Z</Time>
            <Position>
              <LatitudeDegrees>-49.23893588595092296600341796875</LatitudeDegrees>
              <LongitudeDegrees>-72.96220608986914157867431640625</LongitudeDegrees>
            </Position>
            <AltitudeMeters>493.600006103515625</AltitudeMeters>
            <DistanceMeters>13839.551759531</DistanceMeters>
          </Trackpoint>
          <Trackpoint>
            <Time>2023-01-11T19:43:31.000Z</Time>
            <Position>
              <LatitudeDegrees>-49.2389683239161968231201171875</LatitudeDegrees>
              <LongitudeDegrees>-72.9621176607906818389892578125</LongitudeDegrees>
            </Position>
            <AltitudeMeters>494</AltitudeMeters>
            <DistanceMeters>13846.922917511</DistanceMeters>
          </Trackpoint>
          <Trackpoint>
            <Time>2023-01-11T19:43:37.000Z</Time>
            <Position>
              <LatitudeDegrees>-49.23899539746344089508056640625</LatitudeDegrees>
              <LongitudeDegrees>-72.962031327188014984130859375</LongitudeDegrees>
            </Position>
            <AltitudeMeters>494.79998779296875</AltitudeMeters>
            <DistanceMeters>13853.882610755</DistanceMeters>
          </Trackpoint>
          <Trackpoint>
            <Time>2023-01-11T19:43:39.000Z</Time>
            <Position>
              <LatitudeDegrees>-49.2390052042901515960693359375</LatitudeDegrees>
              <LongitudeDegrees>-72.9620036669075489044189453125</LongitudeDegrees>
            </Position>
            <AltitudeMeters>494.79998779296875</AltitudeMeters>
            <DistanceMeters>13856.171157092</DistanceMeters>
          </Trackpoint>
          <Trackpoint>
            <Time>2023-01-11T19:43:45.000Z</Time>
            <Position>
              <LatitudeDegrees>-49.23907603137195110321044921875</LatitudeDegrees>
              <LongitudeDegrees>-72.961938790977001190185546875</LongitudeDegrees>
            </Position>
            <AltitudeMeters>495.20001220703125</AltitudeMeters>
            <DistanceMeters>13865.356854359</DistanceMeters>
          </Trackpoint>
          <Trackpoint>
            <Time>2023-01-11T19:43:48.000Z</Time>
            <Position>
              <LatitudeDegrees>-49.23910000361502170562744140625</LatitudeDegrees>
              <LongitudeDegrees>-72.96190937049686908721923828125</LongitudeDegrees>
            </Position>
            <AltitudeMeters>495.399993896484375</AltitudeMeters>
            <DistanceMeters>13868.775175427</DistanceMeters>
          </Trackpoint>
          <Trackpoint>
            <Time>2023-01-11T19:43:50.000Z</Time>
            <Position>
              <LatitudeDegrees>-49.23910452984273433685302734375</LatitudeDegrees>
              <LongitudeDegrees>-72.96188523061573505401611328125</LongitudeDegrees>
            </Position>
            <AltitudeMeters>496</AltitudeMeters>
            <DistanceMeters>13870.598103876</DistanceMeters>
          </Trackpoint>
          <Trackpoint>
            <Time>2023-01-11T19:43:55.000Z</Time>
            <Position>
              <LatitudeDegrees>-49.23907988704741001129150390625</LatitudeDegrees>
              <LongitudeDegrees>-72.961804009974002838134765625</LongitudeDegrees>
            </Position>
            <AltitudeMeters>495</AltitudeMeters>
            <DistanceMeters>13877.105872965</DistanceMeters>
          </Trackpoint>
          <Trackpoint>
            <Time>2023-01-11T19:44:03.000Z</Time>
            <Position>
              <LatitudeDegrees>-49.23907234333455562591552734375</LatitudeDegrees>
              <LongitudeDegrees>-72.96169160865247249603271484375</LongitudeDegrees>
            </Position>
            <AltitudeMeters>495</AltitudeMeters>
            <DistanceMeters>13885.316752987</DistanceMeters>
          </Trackpoint>
          <Trackpoint>
            <Time>2023-01-11T19:44:11.000Z</Time>
            <Position>
              <LatitudeDegrees>-49.2391242273151874542236328125</LatitudeDegrees>
              <LongitudeDegrees>-72.9615470208227634429931640625</LongitudeDegrees>
            </Position>
            <AltitudeMeters>495.600006103515625</AltitudeMeters>
            <DistanceMeters>13897.306322909</DistanceMeters>
          </Trackpoint>
          <Trackpoint>
            <Time>2023-01-11T19:44:17.000Z</Time>
            <Position>
              <LatitudeDegrees>-49.23915364779531955718994140625</LatitudeDegrees>
              <LongitudeDegrees>-72.96146077103912830352783203125</LongitudeDegrees>
            </Position>
            <AltitudeMeters>495.600006103515625</AltitudeMeters>
            <DistanceMeters>13904.377357718</DistanceMeters>
          </Trackpoint>
          <Trackpoint>
            <Time>2023-01-11T19:44:20.000Z</Time>
            <Position>
              <LatitudeDegrees>-49.239180050790309906005859375</LatitudeDegrees>
              <LongitudeDegrees>-72.96143746934831142425537109375</LongitudeDegrees>
            </Position>
            <AltitudeMeters>496</AltitudeMeters>
            <DistanceMeters>13907.769159214</DistanceMeters>
          </Trackpoint>
          <Trackpoint>
            <Time>2023-01-11T19:44:21.000Z</Time>
            <Position>
              <LatitudeDegrees>-49.239184074103832244873046875</LatitudeDegrees>
              <LongitudeDegrees>-72.96142489649355411529541015625</LongitudeDegrees>
            </Position>
            <AltitudeMeters>496.399993896484375</AltitudeMeters>
            <DistanceMeters>13908.788207197</DistanceMeters>
          </Trackpoint>
          <Trackpoint>
            <Time>2023-01-11T19:44:26.000Z</Time>
            <Position>
              <LatitudeDegrees>-49.239187426865100860595703125</LatitudeDegrees>
              <LongitudeDegrees>-72.96137896366417407989501953125</LongitudeDegrees>
            </Position>
            <AltitudeMeters>497</AltitudeMeters>
            <DistanceMeters>13912.146564754</DistanceMeters>
          </Trackpoint>
          <Trackpoint>
            <Time>2023-01-11T19:44:31.000Z</Time>
            <Position>
              <LatitudeDegrees>-49.23921433277428150177001953125</LatitudeDegrees>
              <LongitudeDegrees>-72.96138432808220386505126953125</LongitudeDegrees>
            </Position>
            <AltitudeMeters>497</AltitudeMeters>
            <DistanceMeters>13915.16656098</DistanceMeters>
          </Trackpoint>
          <Trackpoint>
            <Time>2023-01-11T19:44:41.000Z</Time>
            <Position>
              <LatitudeDegrees>-49.2392214573919773101806640625</LatitudeDegrees>
              <LongitudeDegrees>-72.9614702425897121429443359375</LongitudeDegrees>
            </Position>
            <AltitudeMeters>495.79998779296875</AltitudeMeters>
            <DistanceMeters>13921.459884052</DistanceMeters>
          </Trackpoint>
          <Trackpoint>
            <Time>2023-01-11T19:44:47.000Z</Time>
            <Position>
              <LatitudeDegrees>-49.23923193477094173431396484375</LatitudeDegrees>
              <LongitudeDegrees>-72.96143579296767711639404296875</LongitudeDegrees>
            </Position>
            <AltitudeMeters>495.600006103515625</AltitudeMeters>
            <DistanceMeters>13924.222204561</DistanceMeters>
          </Trackpoint>
          <Trackpoint>
            <Time>2023-01-11T19:45:36.000Z</Time>
            <Position>
              <LatitudeDegrees>-49.23923780210316181182861328125</LatitudeDegrees>
              <LongitudeDegrees>-72.96136689372360706329345703125</LongitudeDegrees>
            </Position>
            <AltitudeMeters>495.600006103515625</AltitudeMeters>
            <DistanceMeters>13929.271155521</DistanceMeters>
          </Trackpoint>
          <Trackpoint>
            <Time>2023-01-11T19:45:41.000Z</Time>
            <Position>
              <LatitudeDegrees>-49.23923780210316181182861328125</LatitudeDegrees>
              <LongitudeDegrees>-72.961376868188381195068359375</LongitudeDegrees>
            </Position>
            <AltitudeMeters>495.600006103515625</AltitudeMeters>
            <DistanceMeters>13929.994857417</DistanceMeters>
          </Trackpoint>
          <Trackpoint>
            <Time>2023-01-11T19:45:53.000Z</Time>
            <Position>
              <LatitudeDegrees>-49.2392647080123424530029296875</LatitudeDegrees>
              <LongitudeDegrees>-72.9612566716969013214111328125</LongitudeDegrees>
            </Position>
            <AltitudeMeters>495.600006103515625</AltitudeMeters>
            <DistanceMeters>13939.2285989</DistanceMeters>
          </Trackpoint>
          <Trackpoint>
            <Time>2023-01-11T19:46:02.000Z</Time>
            <Position>
              <LatitudeDegrees>-49.239303767681121826171875</LatitudeDegrees>
              <LongitudeDegrees>-72.96108325012028217315673828125</LongitudeDegrees>
            </Position>
            <AltitudeMeters>495.600006103515625</AltitudeMeters>
            <DistanceMeters>13952.560139118</DistanceMeters>
          </Trackpoint>
          <Trackpoint>
            <Time>2023-01-11T19:46:04.000Z</Time>
            <Position>
              <LatitudeDegrees>-49.2393170110881328582763671875</LatitudeDegrees>
              <LongitudeDegrees>-72.961061038076877593994140625</LongitudeDegrees>
            </Position>
            <AltitudeMeters>495.600006103515625</AltitudeMeters>
            <DistanceMeters>13954.747818371</DistanceMeters>
          </Trackpoint>
          <Trackpoint>
            <Time>2023-01-11T19:46:13.000Z</Time>
            <Position>
              <LatitudeDegrees>-49.23937174491584300994873046875</LatitudeDegrees>
              <LongitudeDegrees>-72.9609133489429950714111328125</LongitudeDegrees>
            </Position>
            <AltitudeMeters>495.600006103515625</AltitudeMeters>
            <DistanceMeters>13967.088492552</DistanceMeters>
          </Trackpoint>
          <Trackpoint>
            <Time>2023-01-11T19:46:14.000Z</Time>
            <Position>
              <LatitudeDegrees>-49.239381887018680572509765625</LatitudeDegrees>
              <LongitudeDegrees>-72.96089247800409793853759765625</LongitudeDegrees>
            </Position>
            <AltitudeMeters>495.600006103515625</AltitudeMeters>
            <DistanceMeters>13968.979500291</DistanceMeters>
          </Trackpoint>
          <Trackpoint>
            <Time>2023-01-11T19:46:21.000Z</Time>
            <Position>
              <LatitudeDegrees>-49.2394202761352062225341796875</LatitudeDegrees>
              <LongitudeDegrees>-72.96079172752797603607177734375</LongitudeDegrees>
            </Position>
            <AltitudeMeters>495.600006103515625</AltitudeMeters>
            <DistanceMeters>13977.456074969</DistanceMeters>
          </Trackpoint>
          <Trackpoint>
            <Time>2023-01-11T19:46:29.000Z</Time>
            <Position>
              <LatitudeDegrees>-49.2394767701625823974609375</LatitudeDegrees>
              <LongitudeDegrees>-72.96065392903983592987060546875</LongitudeDegrees>
            </Position>
            <AltitudeMeters>495.600006103515625</AltitudeMeters>
            <DistanceMeters>13989.280315899</DistanceMeters>
          </Trackpoint>
          <Trackpoint>
            <Time>2023-01-11T19:46:37.000Z</Time>
            <Position>
              <LatitudeDegrees>-49.2395701445639133453369140625</LatitudeDegrees>
              <LongitudeDegrees>-72.96057044528424739837646484375</LongitudeDegrees>
            </Position>
            <AltitudeMeters>495.600006103515625</AltitudeMeters>
            <DistanceMeters>14001.314615464</DistanceMeters>
          </Trackpoint>
          <Trackpoint>
            <Time>2023-01-11T19:46:43.000Z</Time>
            <Position>
              <LatitudeDegrees>-49.23961649648845195770263671875</LatitudeDegrees>
              <LongitudeDegrees>-72.9605328105390071868896484375</LongitudeDegrees>
            </Position>
            <AltitudeMeters>495.600006103515625</AltitudeMeters>
            <DistanceMeters>14007.153927808</DistanceMeters>
          </Trackpoint>
          <Trackpoint>
            <Time>2023-01-11T19:46:45.000Z</Time>
            <Position>
              <LatitudeDegrees>-49.23963141627609729766845703125</LatitudeDegrees>
              <LongitudeDegrees>-72.96052769757807254791259765625</LongitudeDegrees>
            </Position>
            <AltitudeMeters>498.600006103515625</AltitudeMeters>
            <DistanceMeters>14008.856471358</DistanceMeters>
          </Trackpoint>
          <Trackpoint>
            <Time>2023-01-11T19:46:52.000Z</Time>
            <Position>
              <LatitudeDegrees>-49.239717833697795867919921875</LatitudeDegrees>
              <LongitudeDegrees>-72.960577569901943206787109375</LongitudeDegrees>
            </Position>
            <AltitudeMeters>499.399993896484375</AltitudeMeters>
            <DistanceMeters>14019.135182094</DistanceMeters>
          </Trackpoint>
          <Trackpoint>
            <Time>2023-01-11T19:46:55.000Z</Time>
            <Position>
              <LatitudeDegrees>-49.2397237010300159454345703125</LatitudeDegrees>
              <LongitudeDegrees>-72.9605304636061191558837890625</LongitudeDegrees>
            </Position>
            <AltitudeMeters>499.79998779296875</AltitudeMeters>
            <DistanceMeters>14022.618918987</DistanceMeters>
          </Trackpoint>
          <Trackpoint>
            <Time>2023-01-11T19:47:00.000Z</Time>
            <Position>
              <LatitudeDegrees>-49.23974574543535709381103515625</LatitudeDegrees>
              <LongitudeDegrees>-72.9604506678879261016845703125</LongitudeDegrees>
            </Position>
            <AltitudeMeters>500.600006103515625</AltitudeMeters>
            <DistanceMeters>14028.915828202</DistanceMeters>
          </Trackpoint>
          <Trackpoint>
            <Time>2023-01-11T19:47:08.000Z</Time>
            <Position>
              <LatitudeDegrees>-49.23976183868944644927978515625</LatitudeDegrees>
              <LongitudeDegrees>-72.960362993180751800537109375</LongitudeDegrees>
            </Position>
            <AltitudeMeters>500.600006103515625</AltitudeMeters>
            <DistanceMeters>14035.534355291</DistanceMeters>
          </Trackpoint>
          <Trackpoint>
            <Time>2023-01-11T19:47:13.000Z</Time>
            <Position>
              <LatitudeDegrees>-49.2397770099341869354248046875</LatitudeDegrees>
              <LongitudeDegrees>-72.96030205674469470977783203125</LongitudeDegrees>
            </Position>
            <AltitudeMeters>500.79998779296875</AltitudeMeters>
            <DistanceMeters>14040.274274087</DistanceMeters>
          </Trackpoint>
          <Trackpoint>
            <Time>2023-01-11T19:47:18.000Z</Time>
            <Position>
              <LatitudeDegrees>-49.23979419283568859100341796875</LatitudeDegrees>
              <LongitudeDegrees>-72.960220165550708770751953125</LongitudeDegrees>
            </Position>
            <AltitudeMeters>500.600006103515625</AltitudeMeters>
            <DistanceMeters>14046.525125291</DistanceMeters>
          </Trackpoint>
          <Trackpoint>
            <Time>2023-01-11T19:47:24.000Z</Time>
            <Position>
              <LatitudeDegrees>-49.239766784012317657470703125</LatitudeDegrees>
              <LongitudeDegrees>-72.96013425104320049285888671875</LongitudeDegrees>
            </Position>
            <AltitudeMeters>500.399993896484375</AltitudeMeters>
            <DistanceMeters>14053.473781186</DistanceMeters>
          </Trackpoint>
          <Trackpoint>
            <Time>2023-01-11T19:47:31.000Z</Time>
            <Position>
              <LatitudeDegrees>-49.2397468350827693939208984375</LatitudeDegrees>
              <LongitudeDegrees>-72.960052192211151123046875</LongitudeDegrees>
            </Position>
            <AltitudeMeters>500.20001220703125</AltitudeMeters>
            <DistanceMeters>14059.837024288</DistanceMeters>
          </Trackpoint>
          <Trackpoint>
            <Time>2023-01-11T19:47:35.000Z</Time>
            <Position>
              <LatitudeDegrees>-49.23970802687108516693115234375</LatitudeDegrees>
              <LongitudeDegrees>-72.96004238538444042205810546875</LongitudeDegrees>
            </Position>
            <AltitudeMeters>500.79998779296875</AltitudeMeters>
            <DistanceMeters>14064.215477473</DistanceMeters>
          </Trackpoint>
          <Trackpoint>
            <Time>2023-01-11T19:47:37.000Z</Time>
            <Position>
              <LatitudeDegrees>-49.2396938614547252655029296875</LatitudeDegrees>
              <LongitudeDegrees>-72.96003802679479122161865234375</LongitudeDegrees>
            </Position>
            <AltitudeMeters>500.600006103515625</AltitudeMeters>
            <DistanceMeters>14065.822525034</DistanceMeters>
          </Trackpoint>
          <Trackpoint>
            <Time>2023-01-11T19:47:43.000Z</Time>
            <Position>
              <LatitudeDegrees>-49.2396395467221736907958984375</LatitudeDegrees>
              <LongitudeDegrees>-72.95995890162885189056396484375</LongitudeDegrees>
            </Position>
            <AltitudeMeters>500</AltitudeMeters>
            <DistanceMeters>14074.165415973</DistanceMeters>
          </Trackpoint>
          <Trackpoint>
            <Time>2023-01-11T19:47:46.000Z</Time>
            <Position>
              <LatitudeDegrees>-49.23962496221065521240234375</LatitudeDegrees>
              <LongitudeDegrees>-72.95992738567292690277099609375</LongitudeDegrees>
            </Position>
            <AltitudeMeters>500</AltitudeMeters>
            <DistanceMeters>14076.973129765</DistanceMeters>
          </Trackpoint>
          <Trackpoint>
            <Time>2023-01-11T19:47:50.000Z</Time>
            <Position>
              <LatitudeDegrees>-49.239613898098468780517578125</LatitudeDegrees>
              <LongitudeDegrees>-72.9598604142665863037109375</LongitudeDegrees>
            </Position>
            <AltitudeMeters>500.20001220703125</AltitudeMeters>
            <DistanceMeters>14081.993383081</DistanceMeters>
          </Trackpoint>
          <Trackpoint>
            <Time>2023-01-11T19:47:54.000Z</Time>
            <Position>
              <LatitudeDegrees>-49.23958313651382923126220703125</LatitudeDegrees>
              <LongitudeDegrees>-72.9598012380301952362060546875</LongitudeDegrees>
            </Position>
            <AltitudeMeters>501</AltitudeMeters>
            <DistanceMeters>14087.490167211</DistanceMeters>
          </Trackpoint>
          <Trackpoint>
            <Time>2023-01-11T19:48:02.000Z</Time>
            <Position>
              <LatitudeDegrees>-49.239509291946887969970703125</LatitudeDegrees>
              <LongitudeDegrees>-72.9596833884716033935546875</LongitudeDegrees>
            </Position>
            <AltitudeMeters>500.20001220703125</AltitudeMeters>
            <DistanceMeters>14099.36052158</DistanceMeters>
          </Trackpoint>
          <Trackpoint>
            <Time>2023-01-11T19:48:04.000Z</Time>
            <Position>
              <LatitudeDegrees>-49.23949613235890865325927734375</LatitudeDegrees>
              <LongitudeDegrees>-72.95966486446559429168701171875</LongitudeDegrees>
            </Position>
            <AltitudeMeters>500.20001220703125</AltitudeMeters>
            <DistanceMeters>14101.351552358</DistanceMeters>
          </Trackpoint>
          <Trackpoint>
            <Time>2023-01-11T19:48:07.000Z</Time>
            <Position>
              <LatitudeDegrees>-49.23947115428745746612548828125</LatitudeDegrees>
              <LongitudeDegrees>-72.95964223332703113555908203125</LongitudeDegrees>
            </Position>
            <AltitudeMeters>499.79998779296875</AltitudeMeters>
            <DistanceMeters>14104.582460646</DistanceMeters>
          </Trackpoint>
          <Trackpoint>
            <Time>2023-01-11T19:48:10.000Z</Time>
            <Position>
              <LatitudeDegrees>-49.23945204354822635650634765625</LatitudeDegrees>
              <LongitudeDegrees>-72.95961440540850162506103515625</LongitudeDegrees>
            </Position>
            <AltitudeMeters>499.20001220703125</AltitudeMeters>
            <DistanceMeters>14107.51754036</DistanceMeters>
          </Trackpoint>
          <Trackpoint>
            <Time>2023-01-11T19:48:11.000Z</Time>
            <Position>
              <LatitudeDegrees>-49.2394491098821163177490234375</LatitudeDegrees>
              <LongitudeDegrees>-72.95959286391735076904296875</LongitudeDegrees>
            </Position>
            <AltitudeMeters>499</AltitudeMeters>
            <DistanceMeters>14109.118959016</DistanceMeters>
          </Trackpoint>
          <Trackpoint>
            <Time>2023-01-11T19:48:14.000Z</Time>
            <Position>
              <LatitudeDegrees>-49.23944282345473766326904296875</LatitudeDegrees>
              <LongitudeDegrees>-72.95951130799949169158935546875</LongitudeDegrees>
            </Position>
            <AltitudeMeters>498.600006103515625</AltitudeMeters>
            <DistanceMeters>14115.087514249</DistanceMeters>
          </Trackpoint>
          <Trackpoint>
            <Time>2023-01-11T19:48:16.000Z</Time>
            <Position>
              <LatitudeDegrees>-49.23943997360765933990478515625</LatitudeDegrees>
              <LongitudeDegrees>-72.9594753496348857879638671875</LongitudeDegrees>
            </Position>
            <AltitudeMeters>498.600006103515625</AltitudeMeters>
            <DistanceMeters>14117.720971807</DistanceMeters>
          </Trackpoint>
          <Trackpoint>
            <Time>2023-01-11T19:48:19.000Z</Time>
            <Position>
              <LatitudeDegrees>-49.2394256405532360076904296875</LatitudeDegrees>
              <LongitudeDegrees>-72.95941223390400409698486328125</LongitudeDegrees>
            </Position>
            <AltitudeMeters>498.600006103515625</AltitudeMeters>
            <DistanceMeters>14122.577571407</DistanceMeters>
          </Trackpoint>
          <Trackpoint>
            <Time>2023-01-11T19:48:23.000Z</Time>
            <Position>
              <LatitudeDegrees>-49.23942756839096546173095703125</LatitudeDegrees>
              <LongitudeDegrees>-72.959370911121368408203125</LongitudeDegrees>
            </Position>
            <AltitudeMeters>498.79998779296875</AltitudeMeters>
            <DistanceMeters>14125.588583985</DistanceMeters>
          </Trackpoint>
          <Trackpoint>
            <Time>2023-01-11T19:48:29.000Z</Time>
            <Position>
              <LatitudeDegrees>-49.2394142411649227142333984375</LatitudeDegrees>
              <LongitudeDegrees>-72.95931550674140453338623046875</LongitudeDegrees>
            </Position>
            <AltitudeMeters>498.20001220703125</AltitudeMeters>
            <DistanceMeters>14129.878490254</DistanceMeters>
          </Trackpoint>
          <Trackpoint>
            <Time>2023-01-11T19:48:32.000Z</Time>
            <Position>
              <LatitudeDegrees>-49.23940091393887996673583984375</LatitudeDegrees>
              <LongitudeDegrees>-72.95926672406494617462158203125</LongitudeDegrees>
            </Position>
            <AltitudeMeters>497.600006103515625</AltitudeMeters>
            <DistanceMeters>14133.722082982</DistanceMeters>
          </Trackpoint>
          <Trackpoint>
            <Time>2023-01-11T19:48:38.000Z</Time>
            <Position>
              <LatitudeDegrees>-49.2393709905445575714111328125</LatitudeDegrees>
              <LongitudeDegrees>-72.95918055810034275054931640625</LongitudeDegrees>
            </Position>
            <AltitudeMeters>497.20001220703125</AltitudeMeters>
            <DistanceMeters>14140.814794443</DistanceMeters>
          </Trackpoint>
          <Trackpoint>
            <Time>2023-01-11T19:48:45.000Z</Time>
            <Position>
              <LatitudeDegrees>-49.2393346130847930908203125</LatitudeDegrees>
              <LongitudeDegrees>-72.9590790532529354095458984375</LongitudeDegrees>
            </Position>
            <AltitudeMeters>497.600006103515625</AltitudeMeters>
            <DistanceMeters>14149.229355002</DistanceMeters>
          </Trackpoint>
          <Trackpoint>
            <Time>2023-01-11T19:48:52.000Z</Time>
            <Position>
              <LatitudeDegrees>-49.23929278738796710968017578125</LatitudeDegrees>
              <LongitudeDegrees>-72.9589727707207202911376953125</LongitudeDegrees>
            </Position>
            <AltitudeMeters>498.20001220703125</AltitudeMeters>
            <DistanceMeters>14158.247385189</DistanceMeters>
          </Trackpoint>
          <Trackpoint>
            <Time>2023-01-11T19:48:53.000Z</Time>
            <Position>
              <LatitudeDegrees>-49.23929044045507907867431640625</LatitudeDegrees>
              <LongitudeDegrees>-72.9589657299220561981201171875</LongitudeDegrees>
            </Position>
            <AltitudeMeters>498.399993896484375</AltitudeMeters>
            <DistanceMeters>14158.817545475</DistanceMeters>
          </Trackpoint>
          <Trackpoint>
            <Time>2023-01-11T19:48:58.000Z</Time>
            <Position>
              <LatitudeDegrees>-49.23927225172519683837890625</LatitudeDegrees>
              <LongitudeDegrees>-72.9588980041444301605224609375</LongitudeDegrees>
            </Position>
            <AltitudeMeters>498.79998779296875</AltitudeMeters>
            <DistanceMeters>14164.13904148</DistanceMeters>
          </Trackpoint>
          <Trackpoint>
            <Time>2023-01-11T19:49:02.000Z</Time>
            <Position>
              <LatitudeDegrees>-49.2392496205866336822509765625</LatitudeDegrees>
              <LongitudeDegrees>-72.9588507302105426788330078125</LongitudeDegrees>
            </Position>
            <AltitudeMeters>499.399993896484375</AltitudeMeters>
            <DistanceMeters>14168.399376403</DistanceMeters>
          </Trackpoint>
          <Trackpoint>
            <Time>2023-01-11T19:49:05.000Z</Time>
            <Position>
              <LatitudeDegrees>-49.23922657035291194915771484375</LatitudeDegrees>
              <LongitudeDegrees>-72.95883824117481708526611328125</LongitudeDegrees>
            </Position>
            <AltitudeMeters>500</AltitudeMeters>
            <DistanceMeters>14171.120527388</DistanceMeters>
          </Trackpoint>
          <Trackpoint>
            <Time>2023-01-11T19:49:07.000Z</Time>
            <Position>
              <LatitudeDegrees>-49.2392204515635967254638671875</LatitudeDegrees>
              <LongitudeDegrees>-72.95881728641688823699951171875</LongitudeDegrees>
            </Position>
            <AltitudeMeters>500.20001220703125</AltitudeMeters>
            <DistanceMeters>14172.788239457</DistanceMeters>
          </Trackpoint>
          <Trackpoint>
            <Time>2023-01-11T19:49:09.000Z</Time>
            <Position>
              <LatitudeDegrees>-49.239224307239055633544921875</LatitudeDegrees>
              <LongitudeDegrees>-72.958777807652950286865234375</LongitudeDegrees>
            </Position>
            <AltitudeMeters>500.20001220703125</AltitudeMeters>
            <DistanceMeters>14175.68927914</DistanceMeters>
          </Trackpoint>
          <Trackpoint>
            <Time>2023-01-11T19:49:16.000Z</Time>
            <Position>
              <LatitudeDegrees>-49.2391795478761196136474609375</LatitudeDegrees>
              <LongitudeDegrees>-72.95869289897382259368896484375</LongitudeDegrees>
            </Position>
            <AltitudeMeters>499</AltitudeMeters>
            <DistanceMeters>14183.619313967</DistanceMeters>
          </Trackpoint>
          <Trackpoint>
            <Time>2023-01-11T19:49:17.000Z</Time>
            <Position>
              <LatitudeDegrees>-49.2391701601445674896240234375</LatitudeDegrees>
              <LongitudeDegrees>-72.95868217013776302337646484375</LongitudeDegrees>
            </Position>
            <AltitudeMeters>499</AltitudeMeters>
            <DistanceMeters>14184.92225463</DistanceMeters>
          </Trackpoint>
          <Trackpoint>
            <Time>2023-01-11T19:49:21.000Z</Time>
            <Position>
              <LatitudeDegrees>-49.2391255684196949005126953125</LatitudeDegrees>
              <LongitudeDegrees>-72.9586445353925228118896484375</LongitudeDegrees>
            </Position>
            <AltitudeMeters>497.79998779296875</AltitudeMeters>
            <DistanceMeters>14190.588907243</DistanceMeters>
          </Trackpoint>
          <Trackpoint>
            <Time>2023-01-11T19:49:28.000Z</Time>
            <Position>
              <LatitudeDegrees>-49.23903160728514194488525390625</LatitudeDegrees>
              <LongitudeDegrees>-72.95856230892241001129150390625</LongitudeDegrees>
            </Position>
            <AltitudeMeters>498.600006103515625</AltitudeMeters>
            <DistanceMeters>14202.63333243</DistanceMeters>
          </Trackpoint>
          <Trackpoint>
            <Time>2023-01-11T19:49:35.000Z</Time>
            <Position>
              <LatitudeDegrees>-49.23899305053055286407470703125</LatitudeDegrees>
              <LongitudeDegrees>-72.958524338901042938232421875</LongitudeDegrees>
            </Position>
            <AltitudeMeters>498.20001220703125</AltitudeMeters>
            <DistanceMeters>14207.734771473</DistanceMeters>
          </Trackpoint>
          <Trackpoint>
            <Time>2023-01-11T19:49:40.000Z</Time>
            <Position>
              <LatitudeDegrees>-49.238992966711521148681640625</LatitudeDegrees>
              <LongitudeDegrees>-72.95849793590605258941650390625</LongitudeDegrees>
            </Position>
            <AltitudeMeters>498.79998779296875</AltitudeMeters>
            <DistanceMeters>14209.654217015</DistanceMeters>
          </Trackpoint>
          <Trackpoint>
            <Time>2023-01-11T19:49:42.000Z</Time>
            <Position>
              <LatitudeDegrees>-49.2389938049018383026123046875</LatitudeDegrees>
              <LongitudeDegrees>-72.958466000854969024658203125</LongitudeDegrees>
            </Position>
            <AltitudeMeters>499.399993896484375</AltitudeMeters>
            <DistanceMeters>14211.97606017</DistanceMeters>
          </Trackpoint>
          <Trackpoint>
            <Time>2023-01-11T19:49:45.000Z</Time>
            <Position>
              <LatitudeDegrees>-49.2389679886400699615478515625</LatitudeDegrees>
              <LongitudeDegrees>-72.95843414962291717529296875</LongitudeDegrees>
            </Position>
            <AltitudeMeters>499.79998779296875</AltitudeMeters>
            <DistanceMeters>14215.666230258</DistanceMeters>
          </Trackpoint>
          <Trackpoint>
            <Time>2023-01-11T19:49:50.000Z</Time>
            <Position>
              <LatitudeDegrees>-49.23894728533923625946044921875</LatitudeDegrees>
              <LongitudeDegrees>-72.9583789967000484466552734375</LongitudeDegrees>
            </Position>
            <AltitudeMeters>500.600006103515625</AltitudeMeters>
            <DistanceMeters>14220.288476559</DistanceMeters>
          </Trackpoint>
          <Trackpoint>
            <Time>2023-01-11T19:49:53.000Z</Time>
            <Position>
              <LatitudeDegrees>-49.23893337137997150421142578125</LatitudeDegrees>
              <LongitudeDegrees>-72.9583422839641571044921875</LongitudeDegrees>
            </Position>
            <AltitudeMeters>501</AltitudeMeters>
            <DistanceMeters>14223.373553636</DistanceMeters>
          </Trackpoint>
          <Trackpoint>
            <Time>2023-01-11T19:50:00.000Z</Time>
            <Position>
              <LatitudeDegrees>-49.23890219070017337799072265625</LatitudeDegrees>
              <LongitudeDegrees>-72.9582603089511394500732421875</LongitudeDegrees>
            </Position>
            <AltitudeMeters>501.600006103515625</AltitudeMeters>
            <DistanceMeters>14230.268067571</DistanceMeters>
          </Trackpoint>
          <Trackpoint>
            <Time>2023-01-11T19:50:09.000Z</Time>
            <Position>
              <LatitudeDegrees>-49.2388278432190418243408203125</LatitudeDegrees>
              <LongitudeDegrees>-72.9581567086279392242431640625</LongitudeDegrees>
            </Position>
            <AltitudeMeters>502</AltitudeMeters>
            <DistanceMeters>14241.45542023</DistanceMeters>
          </Trackpoint>
          <Trackpoint>
            <Time>2023-01-11T19:50:10.000Z</Time>
            <Position>
              <LatitudeDegrees>-49.23881552182137966156005859375</LatitudeDegrees>
              <LongitudeDegrees>-72.95814991928637027740478515625</LongitudeDegrees>
            </Position>
            <AltitudeMeters>501.79998779296875</AltitudeMeters>
            <DistanceMeters>14242.915248316</DistanceMeters>
          </Trackpoint>
          <Trackpoint>
            <Time>2023-01-11T19:50:13.000Z</Time>
            <Position>
              <LatitudeDegrees>-49.23878400586545467376708984375</LatitudeDegrees>
              <LongitudeDegrees>-72.9581384360790252685546875</LongitudeDegrees>
            </Position>
            <AltitudeMeters>502</AltitudeMeters>
            <DistanceMeters>14246.521258588</DistanceMeters>
          </Trackpoint>
          <Trackpoint>
            <Time>2023-01-11T19:50:18.000Z</Time>
            <Position>
              <LatitudeDegrees>-49.23872147686779499053955078125</LatitudeDegrees>
              <LongitudeDegrees>-72.95810197480022907257080078125</LongitudeDegrees>
            </Position>
            <AltitudeMeters>502.399993896484375</AltitudeMeters>
            <DistanceMeters>14253.967982662</DistanceMeters>
          </Trackpoint>
          <Trackpoint>
            <Time>2023-01-11T19:50:26.000Z</Time>
            <Position>
              <LatitudeDegrees>-49.238642938435077667236328125</LatitudeDegrees>
              <LongitudeDegrees>-72.95803408138453960418701171875</LongitudeDegrees>
            </Position>
            <AltitudeMeters>502.399993896484375</AltitudeMeters>
            <DistanceMeters>14264.005790837</DistanceMeters>
          </Trackpoint>
          <Trackpoint>
            <Time>2023-01-11T19:50:27.000Z</Time>
            <Position>
              <LatitudeDegrees>-49.23863883130252361297607421875</LatitudeDegrees>
              <LongitudeDegrees>-72.958020083606243133544921875</LongitudeDegrees>
            </Position>
            <AltitudeMeters>502.399993896484375</AltitudeMeters>
            <DistanceMeters>14265.122101972</DistanceMeters>
          </Trackpoint>
          <Trackpoint>
            <Time>2023-01-11T19:50:36.000Z</Time>
            <Position>
              <LatitudeDegrees>-49.23860815353691577911376953125</LatitudeDegrees>
              <LongitudeDegrees>-72.95787499286234378814697265625</LongitudeDegrees>
            </Position>
            <AltitudeMeters>503.399993896484375</AltitudeMeters>
            <DistanceMeters>14276.20524818</DistanceMeters>
          </Trackpoint>
          <Trackpoint>
            <Time>2023-01-11T19:50:38.000Z</Time>
            <Position>
              <LatitudeDegrees>-49.2385944910347461700439453125</LatitudeDegrees>
              <LongitudeDegrees>-72.95784632675349712371826171875</LongitudeDegrees>
            </Position>
            <AltitudeMeters>503.600006103515625</AltitudeMeters>
            <DistanceMeters>14278.785009087</DistanceMeters>
          </Trackpoint>
          <Trackpoint>
            <Time>2023-01-11T19:50:49.000Z</Time>
            <Position>
              <LatitudeDegrees>-49.23855702392756938934326171875</LatitudeDegrees>
              <LongitudeDegrees>-72.957692854106426239013671875</LongitudeDegrees>
            </Position>
            <AltitudeMeters>503.79998779296875</AltitudeMeters>
            <DistanceMeters>14290.692201462</DistanceMeters>
          </Trackpoint>
          <Trackpoint>
            <Time>2023-01-11T19:50:57.000Z</Time>
            <Position>
              <LatitudeDegrees>-49.23854629509150981903076171875</LatitudeDegrees>
              <LongitudeDegrees>-72.95755438506603240966796875</LongitudeDegrees>
            </Position>
            <AltitudeMeters>503.20001220703125</AltitudeMeters>
            <DistanceMeters>14300.8253648</DistanceMeters>
          </Trackpoint>
          <Trackpoint>
            <Time>2023-01-11T19:51:01.000Z</Time>
            <Position>
              <LatitudeDegrees>-49.238510839641094207763671875</LatitudeDegrees>
              <LongitudeDegrees>-72.95747115276753902435302734375</LongitudeDegrees>
            </Position>
            <AltitudeMeters>502.79998779296875</AltitudeMeters>
            <DistanceMeters>14308.047395092</DistanceMeters>
          </Trackpoint>
          <Trackpoint>
            <Time>2023-01-11T19:51:05.000Z</Time>
            <Position>
              <LatitudeDegrees>-49.23850254155695438385009765625</LatitudeDegrees>
              <LongitudeDegrees>-72.9574358649551868438720703125</LongitudeDegrees>
            </Position>
            <AltitudeMeters>502.399993896484375</AltitudeMeters>
            <DistanceMeters>14310.773519248</DistanceMeters>
          </Trackpoint>
          <Trackpoint>
            <Time>2023-01-11T19:51:06.000Z</Time>
            <Position>
              <LatitudeDegrees>-49.23850715160369873046875</LatitudeDegrees>
              <LongitudeDegrees>-72.95741759240627288818359375</LongitudeDegrees>
            </Position>
            <AltitudeMeters>502.399993896484375</AltitudeMeters>
            <DistanceMeters>14312.198919964</DistanceMeters>
          </Trackpoint>
          <Trackpoint>
            <Time>2023-01-11T19:51:07.000Z</Time>
            <Position>
              <LatitudeDegrees>-49.23851829953491687774658203125</LatitudeDegrees>
              <LongitudeDegrees>-72.95740862376987934112548828125</LongitudeDegrees>
            </Position>
            <AltitudeMeters>502.399993896484375</AltitudeMeters>
            <DistanceMeters>14313.601972588</DistanceMeters>
          </Trackpoint>
          <Trackpoint>
            <Time>2023-01-11T19:51:10.000Z</Time>
            <Position>
              <LatitudeDegrees>-49.23854000866413116455078125</LatitudeDegrees>
              <LongitudeDegrees>-72.95735514722764492034912109375</LongitudeDegrees>
            </Position>
            <AltitudeMeters>502.20001220703125</AltitudeMeters>
            <DistanceMeters>14318.178078713</DistanceMeters>
          </Trackpoint>
          <Trackpoint>
            <Time>2023-01-11T19:51:12.000Z</Time>
            <Position>
              <LatitudeDegrees>-49.23853422515094280242919921875</LatitudeDegrees>
              <LongitudeDegrees>-72.957311980426311492919921875</LongitudeDegrees>
            </Position>
            <AltitudeMeters>502.399993896484375</AltitudeMeters>
            <DistanceMeters>14321.379506014</DistanceMeters>
          </Trackpoint>
          <Trackpoint>
            <Time>2023-01-11T19:51:13.000Z</Time>
            <Position>
              <LatitudeDegrees>-49.23853405751287937164306640625</LatitudeDegrees>
              <LongitudeDegrees>-72.95729731209576129913330078125</LongitudeDegrees>
            </Position>
            <AltitudeMeters>502.399993896484375</AltitudeMeters>
            <DistanceMeters>14322.441936979</DistanceMeters>
          </Trackpoint>
          <Trackpoint>
            <Time>2023-01-11T19:51:15.000Z</Time>
            <Position>
              <LatitudeDegrees>-49.23853372223675251007080078125</LatitudeDegrees>
              <LongitudeDegrees>-72.95726831071078777313232421875</LongitudeDegrees>
            </Position>
            <AltitudeMeters>502</AltitudeMeters>
            <DistanceMeters>14324.549731469</DistanceMeters>
          </Trackpoint>
          <Trackpoint>
            <Time>2023-01-11T19:51:19.000Z</Time>
            <Position>
              <LatitudeDegrees>-49.23853908665478229522705078125</LatitudeDegrees>
              <LongitudeDegrees>-72.9572068713605403900146484375</LongitudeDegrees>
            </Position>
            <AltitudeMeters>501.79998779296875</AltitudeMeters>
            <DistanceMeters>14329.054238298</DistanceMeters>
          </Trackpoint>
          <Trackpoint>
            <Time>2023-01-11T19:51:23.000Z</Time>
            <Position>
              <LatitudeDegrees>-49.23850019462406635284423828125</LatitudeDegrees>
              <LongitudeDegrees>-72.95715716667473316192626953125</LongitudeDegrees>
            </Position>
            <AltitudeMeters>501.20001220703125</AltitudeMeters>
            <DistanceMeters>14334.691333206</DistanceMeters>
          </Trackpoint>
          <Trackpoint>
            <Time>2023-01-11T19:51:25.000Z</Time>
            <Position>
              <LatitudeDegrees>-49.2384895496070384979248046875</LatitudeDegrees>
              <LongitudeDegrees>-72.9571448452770709991455078125</LongitudeDegrees>
            </Position>
            <AltitudeMeters>501.20001220703125</AltitudeMeters>
            <DistanceMeters>14336.175697936</DistanceMeters>
          </Trackpoint>
          <Trackpoint>
            <Time>2023-01-11T19:51:27.000Z</Time>
            <Position>
              <LatitudeDegrees>-49.23847253434360027313232421875</LatitudeDegrees>
              <LongitudeDegrees>-72.95711894519627094268798828125</LongitudeDegrees>
            </Position>
            <AltitudeMeters>501</AltitudeMeters>
            <DistanceMeters>14338.846607967</DistanceMeters>
          </Trackpoint>
          <Trackpoint>
            <Time>2023-01-11T19:51:32.000Z</Time>
            <Position>
              <LatitudeDegrees>-49.238443784415721893310546875</LatitudeDegrees>
              <LongitudeDegrees>-72.9570144228637218475341796875</LongitudeDegrees>
            </Position>
            <AltitudeMeters>501</AltitudeMeters>
            <DistanceMeters>14347.08822401</DistanceMeters>
          </Trackpoint>
          <Trackpoint>
            <Time>2023-01-11T19:51:38.000Z</Time>
            <Position>
              <LatitudeDegrees>-49.23842442221939563751220703125</LatitudeDegrees>
              <LongitudeDegrees>-72.9568907059729099273681640625</LongitudeDegrees>
            </Position>
            <AltitudeMeters>501.20001220703125</AltitudeMeters>
            <DistanceMeters>14356.333205002</DistanceMeters>
          </Trackpoint>
          <Trackpoint>
            <Time>2023-01-11T19:51:44.000Z</Time>
            <Position>
              <LatitudeDegrees>-49.2384496517479419708251953125</LatitudeDegrees>
              <LongitudeDegrees>-72.95679925940930843353271484375</LongitudeDegrees>
            </Position>
            <AltitudeMeters>501.79998779296875</AltitudeMeters>
            <DistanceMeters>14363.547729285</DistanceMeters>
          </Trackpoint>
          <Trackpoint>
            <Time>2023-01-11T19:51:52.000Z</Time>
            <Position>
              <LatitudeDegrees>-49.2384573630988597869873046875</LatitudeDegrees>
              <LongitudeDegrees>-72.9567130096256732940673828125</LongitudeDegrees>
            </Position>
            <AltitudeMeters>502</AltitudeMeters>
            <DistanceMeters>14369.874681859</DistanceMeters>
          </Trackpoint>
          <Trackpoint>
            <Time>2023-01-11T19:52:00.000Z</Time>
            <Position>
              <LatitudeDegrees>-49.23845627345144748687744140625</LatitudeDegrees>
              <LongitudeDegrees>-72.9566315375268459320068359375</LongitudeDegrees>
            </Position>
            <AltitudeMeters>500.79998779296875</AltitudeMeters>
            <DistanceMeters>14375.796912597</DistanceMeters>
          </Trackpoint>
          <Trackpoint>
            <Time>2023-01-11T19:52:02.000Z</Time>
            <Position>
              <LatitudeDegrees>-49.23844638280570507049560546875</LatitudeDegrees>
              <LongitudeDegrees>-72.95660597272217273712158203125</LongitudeDegrees>
            </Position>
            <AltitudeMeters>500</AltitudeMeters>
            <DistanceMeters>14377.957595248</DistanceMeters>
          </Trackpoint>
          <Trackpoint>
            <Time>2023-01-11T19:52:04.000Z</Time>
            <Position>
              <LatitudeDegrees>-49.2384281940758228302001953125</LatitudeDegrees>
              <LongitudeDegrees>-72.95658719725906848907470703125</LongitudeDegrees>
            </Position>
            <AltitudeMeters>499.600006103515625</AltitudeMeters>
            <DistanceMeters>14380.400724498</DistanceMeters>
          </Trackpoint>
          <Trackpoint>
            <Time>2023-01-11T19:52:06.000Z</Time>
            <Position>
              <LatitudeDegrees>-49.23840053379535675048828125</LatitudeDegrees>
              <LongitudeDegrees>-72.95658702962100505828857421875</LongitudeDegrees>
            </Position>
            <AltitudeMeters>499.399993896484375</AltitudeMeters>
            <DistanceMeters>14383.479941974</DistanceMeters>
          </Trackpoint>
          <Trackpoint>
            <Time>2023-01-11T19:52:09.000Z</Time>
            <Position>
              <LatitudeDegrees>-49.2383701913058757781982421875</LatitudeDegrees>
              <LongitudeDegrees>-72.9565881192684173583984375</LongitudeDegrees>
            </Position>
            <AltitudeMeters>498.79998779296875</AltitudeMeters>
            <DistanceMeters>14386.858405623</DistanceMeters>
          </Trackpoint>
          <Trackpoint>
            <Time>2023-01-11T19:52:12.000Z</Time>
            <Position>
              <LatitudeDegrees>-49.2383341491222381591796875</LatitudeDegrees>
              <LongitudeDegrees>-72.95656288973987102508544921875</LongitudeDegrees>
            </Position>
            <AltitudeMeters>498.20001220703125</AltitudeMeters>
            <DistanceMeters>14391.268709995</DistanceMeters>
          </Trackpoint>
          <Trackpoint>
            <Time>2023-01-11T19:52:16.000Z</Time>
            <Position>
              <LatitudeDegrees>-49.2382880486547946929931640625</LatitudeDegrees>
              <LongitudeDegrees>-72.95652852393686771392822265625</LongitudeDegrees>
            </Position>
            <AltitudeMeters>497.79998779296875</AltitudeMeters>
            <DistanceMeters>14396.975062215</DistanceMeters>
          </Trackpoint>
          <Trackpoint>
            <Time>2023-01-11T19:52:21.000Z</Time>
            <Position>
              <LatitudeDegrees>-49.23824454657733440399169921875</LatitudeDegrees>
              <LongitudeDegrees>-72.95646540820598602294921875</LongitudeDegrees>
            </Position>
            <AltitudeMeters>496.79998779296875</AltitudeMeters>
            <DistanceMeters>14403.643879688</DistanceMeters>
          </Trackpoint>
          <Trackpoint>
            <Time>2023-01-11T19:52:23.000Z</Time>
            <Position>
              <LatitudeDegrees>-49.23823314718902111053466796875</LatitudeDegrees>
              <LongitudeDegrees>-72.9564307071268558502197265625</LongitudeDegrees>
            </Position>
            <AltitudeMeters>496.600006103515625</AltitudeMeters>
            <DistanceMeters>14406.466029121</DistanceMeters>
          </Trackpoint>
          <Trackpoint>
            <Time>2023-01-11T19:52:30.000Z</Time>
            <Position>
              <LatitudeDegrees>-49.23817791044712066650390625</LatitudeDegrees>
              <LongitudeDegrees>-72.95630724169313907623291015625</LongitudeDegrees>
            </Position>
            <AltitudeMeters>495.399993896484375</AltitudeMeters>
            <DistanceMeters>14417.343163927</DistanceMeters>
          </Trackpoint>
          <Trackpoint>
            <Time>2023-01-11T19:52:31.000Z</Time>
            <Position>
              <LatitudeDegrees>-49.2381753958761692047119140625</LatitudeDegrees>
              <LongitudeDegrees>-72.95628913678228855133056640625</LongitudeDegrees>
            </Position>
            <AltitudeMeters>495.399993896484375</AltitudeMeters>
            <DistanceMeters>14418.687044609</DistanceMeters>
          </Trackpoint>
          <Trackpoint>
            <Time>2023-01-11T19:52:38.000Z</Time>
            <Position>
              <LatitudeDegrees>-49.23811680637300014495849609375</LatitudeDegrees>
              <LongitudeDegrees>-72.956238090991973876953125</LongitudeDegrees>
            </Position>
            <AltitudeMeters>494.79998779296875</AltitudeMeters>
            <DistanceMeters>14426.189342022</DistanceMeters>
          </Trackpoint>
          <Trackpoint>
            <Time>2023-01-11T19:52:40.000Z</Time>
            <Position>
              <LatitudeDegrees>-49.238097779452800750732421875</LatitudeDegrees>
              <LongitudeDegrees>-72.9562308825552463531494140625</LongitudeDegrees>
            </Position>
            <AltitudeMeters>494.399993896484375</AltitudeMeters>
            <DistanceMeters>14428.368750247</DistanceMeters>
          </Trackpoint>
          <Trackpoint>
            <Time>2023-01-11T19:52:46.000Z</Time>
            <Position>
              <LatitudeDegrees>-49.238053523004055023193359375</LatitudeDegrees>
              <LongitudeDegrees>-72.95615821145474910736083984375</LongitudeDegrees>
            </Position>
            <AltitudeMeters>493.79998779296875</AltitudeMeters>
            <DistanceMeters>14435.590780539</DistanceMeters>
          </Trackpoint>
          <Trackpoint>
            <Time>2023-01-11T19:52:53.000Z</Time>
            <Position>
              <LatitudeDegrees>-49.23800348304212093353271484375</LatitudeDegrees>
              <LongitudeDegrees>-72.95603097416460514068603515625</LongitudeDegrees>
            </Position>
            <AltitudeMeters>493.399993896484375</AltitudeMeters>
            <DistanceMeters>14446.384995487</DistanceMeters>
          </Trackpoint>
          <Trackpoint>
            <Time>2023-01-11T19:52:58.000Z</Time>
            <Position>
              <LatitudeDegrees>-49.23798286356031894683837890625</LatitudeDegrees>
              <LongitudeDegrees>-72.955944724380970001220703125</LongitudeDegrees>
            </Position>
            <AltitudeMeters>493.79998779296875</AltitudeMeters>
            <DistanceMeters>14453.059903515</DistanceMeters>
          </Trackpoint>
          <Trackpoint>
            <Time>2023-01-11T19:53:00.000Z</Time>
            <Position>
              <LatitudeDegrees>-49.23797531984746456146240234375</LatitudeDegrees>
              <LongitudeDegrees>-72.95591890811920166015625</LongitudeDegrees>
            </Position>
            <AltitudeMeters>493.79998779296875</AltitudeMeters>
            <DistanceMeters>14455.113448182</DistanceMeters>
          </Trackpoint>
          <Trackpoint>
            <Time>2023-01-11T19:53:09.000Z</Time>
            <Position>
              <LatitudeDegrees>-49.23795319162309169769287109375</LatitudeDegrees>
              <LongitudeDegrees>-72.9558278806507587432861328125</LongitudeDegrees>
            </Position>
            <AltitudeMeters>494.399993896484375</AltitudeMeters>
            <DistanceMeters>14462.172340575</DistanceMeters>
          </Trackpoint>
          <Trackpoint>
            <Time>2023-01-11T19:53:16.000Z</Time>
            <Position>
              <LatitudeDegrees>-49.23793961293995380401611328125</LatitudeDegrees>
              <LongitudeDegrees>-72.9557289741933345794677734375</LongitudeDegrees>
            </Position>
            <AltitudeMeters>495.399993896484375</AltitudeMeters>
            <DistanceMeters>14469.517112639</DistanceMeters>
          </Trackpoint>
          <Trackpoint>
            <Time>2023-01-11T19:53:17.000Z</Time>
            <Position>
              <LatitudeDegrees>-49.23793592490255832672119140625</LatitudeDegrees>
              <LongitudeDegrees>-72.95571975409984588623046875</LongitudeDegrees>
            </Position>
            <AltitudeMeters>495.399993896484375</AltitudeMeters>
            <DistanceMeters>14470.300723</DistanceMeters>
          </Trackpoint>
          <Trackpoint>
            <Time>2023-01-11T19:53:18.000Z</Time>
            <Position>
              <LatitudeDegrees>-49.237926788628101348876953125</LatitudeDegrees>
              <LongitudeDegrees>-72.955706678330898284912109375</LongitudeDegrees>
            </Position>
            <AltitudeMeters>495.399993896484375</AltitudeMeters>
            <DistanceMeters>14471.690843988</DistanceMeters>
          </Trackpoint>
          <Trackpoint>
            <Time>2023-01-11T19:53:20.000Z</Time>
            <Position>
              <LatitudeDegrees>-49.2379199154675006866455078125</LatitudeDegrees>
              <LongitudeDegrees>-72.955671809613704681396484375</LongitudeDegrees>
            </Position>
            <AltitudeMeters>495.399993896484375</AltitudeMeters>
            <DistanceMeters>14474.337981937</DistanceMeters>
          </Trackpoint>
          <Trackpoint>
            <Time>2023-01-11T19:53:25.000Z</Time>
            <Position>
              <LatitudeDegrees>-49.2378954403102397918701171875</LatitudeDegrees>
              <LongitudeDegrees>-72.95560886152088642120361328125</LongitudeDegrees>
            </Position>
            <AltitudeMeters>495.399993896484375</AltitudeMeters>
            <DistanceMeters>14479.662022691</DistanceMeters>
          </Trackpoint>
          <Trackpoint>
            <Time>2023-01-11T19:53:31.000Z</Time>
            <Position>
              <LatitudeDegrees>-49.23785336315631866455078125</LatitudeDegrees>
              <LongitudeDegrees>-72.9555527865886688232421875</LongitudeDegrees>
            </Position>
            <AltitudeMeters>495.600006103515625</AltitudeMeters>
            <DistanceMeters>14485.870838709</DistanceMeters>
          </Trackpoint>
          <Trackpoint>
            <Time>2023-01-11T19:53:35.000Z</Time>
            <Position>
              <LatitudeDegrees>-49.2378272116184234619140625</LatitudeDegrees>
              <LongitudeDegrees>-72.9555103741586208343505859375</LongitudeDegrees>
            </Position>
            <AltitudeMeters>495.600006103515625</AltitudeMeters>
            <DistanceMeters>14490.110989909</DistanceMeters>
          </Trackpoint>
          <Trackpoint>
            <Time>2023-01-11T19:53:36.000Z</Time>
            <Position>
              <LatitudeDegrees>-49.23781757242977619171142578125</LatitudeDegrees>
              <LongitudeDegrees>-72.95549771748483180999755859375</LongitudeDegrees>
            </Position>
            <AltitudeMeters>496</AltitudeMeters>
            <DistanceMeters>14491.526856064</DistanceMeters>
          </Trackpoint>
          <Trackpoint>
            <Time>2023-01-11T19:53:37.000Z</Time>
            <Position>
              <LatitudeDegrees>-49.237806089222431182861328125</LatitudeDegrees>
              <LongitudeDegrees>-72.95549000613391399383544921875</LongitudeDegrees>
            </Position>
            <AltitudeMeters>496.399993896484375</AltitudeMeters>
            <DistanceMeters>14492.923457837</DistanceMeters>
          </Trackpoint>
          <Trackpoint>
            <Time>2023-01-11T19:53:38.000Z</Time>
            <Position>
              <LatitudeDegrees>-49.23779594711959362030029296875</LatitudeDegrees>
              <LongitudeDegrees>-72.95548162423074245452880859375</LongitudeDegrees>
            </Position>
            <AltitudeMeters>496.399993896484375</AltitudeMeters>
            <DistanceMeters>14494.205438302</DistanceMeters>
          </Trackpoint>
          <Trackpoint>
            <Time>2023-01-11T19:53:43.000Z</Time>
            <Position>
              <LatitudeDegrees>-49.2377475835382938385009765625</LatitudeDegrees>
              <LongitudeDegrees>-72.95546737499535083770751953125</LongitudeDegrees>
            </Position>
            <AltitudeMeters>496.600006103515625</AltitudeMeters>
            <DistanceMeters>14499.687417362</DistanceMeters>
          </Trackpoint>
          <Trackpoint>
            <Time>2023-01-11T19:53:51.000Z</Time>
            <Position>
              <LatitudeDegrees>-49.23766803927719593048095703125</LatitudeDegrees>
              <LongitudeDegrees>-72.9554292373359203338623046875</LongitudeDegrees>
            </Position>
            <AltitudeMeters>496.600006103515625</AltitudeMeters>
            <DistanceMeters>14508.964088559</DistanceMeters>
          </Trackpoint>
          <Trackpoint>
            <Time>2023-01-11T19:53:56.000Z</Time>
            <Position>
              <LatitudeDegrees>-49.23762730322778224945068359375</LatitudeDegrees>
              <LongitudeDegrees>-72.95540400780737400054931640625</LongitudeDegrees>
            </Position>
            <AltitudeMeters>496.20001220703125</AltitudeMeters>
            <DistanceMeters>14513.854041772</DistanceMeters>
          </Trackpoint>
          <Trackpoint>
            <Time>2023-01-11T19:53:57.000Z</Time>
            <Position>
              <LatitudeDegrees>-49.23761908896267414093017578125</LatitudeDegrees>
              <LongitudeDegrees>-72.95539964921772480010986328125</LongitudeDegrees>
            </Position>
            <AltitudeMeters>496.20001220703125</AltitudeMeters>
            <DistanceMeters>14514.823127914</DistanceMeters>
          </Trackpoint>
          <Trackpoint>
            <Time>2023-01-11T19:54:01.000Z</Time>
            <Position>
              <LatitudeDegrees>-49.23757114447653293609619140625</LatitudeDegrees>
              <LongitudeDegrees>-72.95538690872490406036376953125</LongitudeDegrees>
            </Position>
            <AltitudeMeters>495.20001220703125</AltitudeMeters>
            <DistanceMeters>14520.238817001</DistanceMeters>
          </Trackpoint>
          <Trackpoint>
            <Time>2023-01-11T19:54:05.000Z</Time>
            <Position>
              <LatitudeDegrees>-49.23752420581877231597900390625</LatitudeDegrees>
              <LongitudeDegrees>-72.955402247607707977294921875</LongitudeDegrees>
            </Position>
            <AltitudeMeters>495</AltitudeMeters>
            <DistanceMeters>14525.580637062</DistanceMeters>
          </Trackpoint>
          <Trackpoint>
            <Time>2023-01-11T19:54:08.000Z</Time>
            <Position>
              <LatitudeDegrees>-49.23748984001576900482177734375</LatitudeDegrees>
              <LongitudeDegrees>-72.95538892038166522979736328125</LongitudeDegrees>
            </Position>
            <AltitudeMeters>494.79998779296875</AltitudeMeters>
            <DistanceMeters>14529.527392928</DistanceMeters>
          </Trackpoint>
          <Trackpoint>
            <Time>2023-01-11T19:54:10.000Z</Time>
            <Position>
              <LatitudeDegrees>-49.23746620304882526397705078125</LatitudeDegrees>
              <LongitudeDegrees>-72.955392189323902130126953125</LongitudeDegrees>
            </Position>
            <AltitudeMeters>494.600006103515625</AltitudeMeters>
            <DistanceMeters>14532.171117416</DistanceMeters>
          </Trackpoint>
          <Trackpoint>
            <Time>2023-01-11T19:54:12.000Z</Time>
            <Position>
              <LatitudeDegrees>-49.23744306899607181549072265625</LatitudeDegrees>
              <LongitudeDegrees>-72.95538506470620632171630859375</LongitudeDegrees>
            </Position>
            <AltitudeMeters>494.399993896484375</AltitudeMeters>
            <DistanceMeters>14534.797708058</DistanceMeters>
          </Trackpoint>
          <Trackpoint>
            <Time>2023-01-11T19:54:14.000Z</Time>
            <Position>
              <LatitudeDegrees>-49.23741708509624004364013671875</LatitudeDegrees>
              <LongitudeDegrees>-72.9553702287375926971435546875</LongitudeDegrees>
            </Position>
            <AltitudeMeters>494</AltitudeMeters>
            <DistanceMeters>14537.882785136</DistanceMeters>
          </Trackpoint>
          <Trackpoint>
            <Time>2023-01-11T19:54:21.000Z</Time>
            <Position>
              <LatitudeDegrees>-49.23734701238572597503662109375</LatitudeDegrees>
              <LongitudeDegrees>-72.955321781337261199951171875</LongitudeDegrees>
            </Position>
            <AltitudeMeters>493.399993896484375</AltitudeMeters>
            <DistanceMeters>14546.439939445</DistanceMeters>
          </Trackpoint>
          <Trackpoint>
            <Time>2023-01-11T19:54:28.000Z</Time>
            <Position>
              <LatitudeDegrees>-49.2372942902147769927978515625</LatitudeDegrees>
              <LongitudeDegrees>-72.9552310891449451446533203125</LongitudeDegrees>
            </Position>
            <AltitudeMeters>493</AltitudeMeters>
            <DistanceMeters>14555.264642231</DistanceMeters>
          </Trackpoint>
          <Trackpoint>
            <Time>2023-01-11T19:54:29.000Z</Time>
            <Position>
              <LatitudeDegrees>-49.23728867433965206146240234375</LatitudeDegrees>
              <LongitudeDegrees>-72.9552160017192363739013671875</LongitudeDegrees>
            </Position>
            <AltitudeMeters>492.600006103515625</AltitudeMeters>
            <DistanceMeters>14556.525314057</DistanceMeters>
          </Trackpoint>
          <Trackpoint>
            <Time>2023-01-11T19:54:34.000Z</Time>
            <Position>
              <LatitudeDegrees>-49.23726000823080539703369140625</LatitudeDegrees>
              <LongitudeDegrees>-72.95513528399169445037841796875</LongitudeDegrees>
            </Position>
            <AltitudeMeters>492.20001220703125</AltitudeMeters>
            <DistanceMeters>14563.202927215</DistanceMeters>
          </Trackpoint>
          <Trackpoint>
            <Time>2023-01-11T19:54:37.000Z</Time>
            <Position>
              <LatitudeDegrees>-49.23725749365985393524169921875</LatitudeDegrees>
              <LongitudeDegrees>-72.95508943498134613037109375</LongitudeDegrees>
            </Position>
            <AltitudeMeters>492.20001220703125</AltitudeMeters>
            <DistanceMeters>14566.547813568</DistanceMeters>
          </Trackpoint>
          <Trackpoint>
            <Time>2023-01-11T19:54:43.000Z</Time>
            <Position>
              <LatitudeDegrees>-49.23723352141678333282470703125</LatitudeDegrees>
              <LongitudeDegrees>-72.9550061188638210296630859375</LongitudeDegrees>
            </Position>
            <AltitudeMeters>492.20001220703125</AltitudeMeters>
            <DistanceMeters>14573.164976153</DistanceMeters>
          </Trackpoint>
          <Trackpoint>
            <Time>2023-01-11T19:54:50.000Z</Time>
            <Position>
              <LatitudeDegrees>-49.23715305514633655548095703125</LatitudeDegrees>
              <LongitudeDegrees>-72.95499446801841259002685546875</LongitudeDegrees>
            </Position>
            <AltitudeMeters>492.20001220703125</AltitudeMeters>
            <DistanceMeters>14582.16094998</DistanceMeters>
          </Trackpoint>
          <Trackpoint>
            <Time>2023-01-11T19:54:53.000Z</Time>
            <Position>
              <LatitudeDegrees>-49.23712371848523616790771484375</LatitudeDegrees>
              <LongitudeDegrees>-72.95501776970922946929931640625</LongitudeDegrees>
            </Position>
            <AltitudeMeters>491.399993896484375</AltitudeMeters>
            <DistanceMeters>14585.838864404</DistanceMeters>
          </Trackpoint>
          <Trackpoint>
            <Time>2023-01-11T19:54:55.000Z</Time>
            <Position>
              <LatitudeDegrees>-49.237104021012783050537109375</LatitudeDegrees>
              <LongitudeDegrees>-72.9550324380397796630859375</LongitudeDegrees>
            </Position>
            <AltitudeMeters>491.20001220703125</AltitudeMeters>
            <DistanceMeters>14588.276443182</DistanceMeters>
          </Trackpoint>
          <Trackpoint>
            <Time>2023-01-11T19:55:02.000Z</Time>
            <Position>
              <LatitudeDegrees>-49.237022213637828826904296875</LatitudeDegrees>
              <LongitudeDegrees>-72.95509052462875843048095703125</LongitudeDegrees>
            </Position>
            <AltitudeMeters>491</AltitudeMeters>
            <DistanceMeters>14598.312451983</DistanceMeters>
          </Trackpoint>
          <Trackpoint>
            <Time>2023-01-11T19:55:13.000Z</Time>
            <Position>
              <LatitudeDegrees>-49.23688734881579875946044921875</LatitudeDegrees>
              <LongitudeDegrees>-72.95508281327784061431884765625</LongitudeDegrees>
            </Position>
            <AltitudeMeters>490.20001220703125</AltitudeMeters>
            <DistanceMeters>14613.333287181</DistanceMeters>
          </Trackpoint>
          <Trackpoint>
            <Time>2023-01-11T19:55:24.000Z</Time>
            <Position>
              <LatitudeDegrees>-49.23675768077373504638671875</LatitudeDegrees>
              <LongitudeDegrees>-72.9550191946327686309814453125</LongitudeDegrees>
            </Position>
            <AltitudeMeters>489.399993896484375</AltitudeMeters>
            <DistanceMeters>14628.487590336</DistanceMeters>
          </Trackpoint>
          <Trackpoint>
            <Time>2023-01-11T19:55:34.000Z</Time>
            <Position>
              <LatitudeDegrees>-49.23664259724318981170654296875</LatitudeDegrees>
              <LongitudeDegrees>-72.95498943887650966644287109375</LongitudeDegrees>
            </Position>
            <AltitudeMeters>489.20001220703125</AltitudeMeters>
            <DistanceMeters>14641.478127992</DistanceMeters>
          </Trackpoint>
          <Trackpoint>
            <Time>2023-01-11T19:55:38.000Z</Time>
            <Position>
              <LatitudeDegrees>-49.23660353757441043853759765625</LatitudeDegrees>
              <LongitudeDegrees>-72.95493177138268947601318359375</LongitudeDegrees>
            </Position>
            <AltitudeMeters>488.79998779296875</AltitudeMeters>
            <DistanceMeters>14647.516625212</DistanceMeters>
          </Trackpoint>
          <Trackpoint>
            <Time>2023-01-11T19:55:41.000Z</Time>
            <Position>
              <LatitudeDegrees>-49.2365848459303379058837890625</LatitudeDegrees>
              <LongitudeDegrees>-72.95487863011658191680908203125</LongitudeDegrees>
            </Position>
            <AltitudeMeters>489</AltitudeMeters>
            <DistanceMeters>14651.90229082</DistanceMeters>
          </Trackpoint>
          <Trackpoint>
            <Time>2023-01-11T19:55:47.000Z</Time>
            <Position>
              <LatitudeDegrees>-49.2365369014441967010498046875</LatitudeDegrees>
              <LongitudeDegrees>-72.95481383800506591796875</LongitudeDegrees>
            </Position>
            <AltitudeMeters>489</AltitudeMeters>
            <DistanceMeters>14659.018516554</DistanceMeters>
          </Trackpoint>
          <Trackpoint>
            <Time>2023-01-11T19:55:48.000Z</Time>
            <Position>
              <LatitudeDegrees>-49.2365362308919429779052734375</LatitudeDegrees>
              <LongitudeDegrees>-72.95479841530323028564453125</LongitudeDegrees>
            </Position>
            <AltitudeMeters>489</AltitudeMeters>
            <DistanceMeters>14660.138864994</DistanceMeters>
          </Trackpoint>
          <Trackpoint>
            <Time>2023-01-11T19:55:58.000Z</Time>
            <Position>
              <LatitudeDegrees>-49.23646842129528522491455078125</LatitudeDegrees>
              <LongitudeDegrees>-72.95465801842510700225830078125</LongitudeDegrees>
            </Position>
            <AltitudeMeters>488.600006103515625</AltitudeMeters>
            <DistanceMeters>14672.829824116</DistanceMeters>
          </Trackpoint>
          <Trackpoint>
            <Time>2023-01-11T19:56:01.000Z</Time>
            <Position>
              <LatitudeDegrees>-49.23644796945154666900634765625</LatitudeDegrees>
              <LongitudeDegrees>-72.9546275921165943145751953125</LongitudeDegrees>
            </Position>
            <AltitudeMeters>488.79998779296875</AltitudeMeters>
            <DistanceMeters>14676.002919645</DistanceMeters>
          </Trackpoint>
          <Trackpoint>
            <Time>2023-01-11T19:56:06.000Z</Time>
            <Position>
              <LatitudeDegrees>-49.23640354536473751068115234375</LatitudeDegrees>
              <LongitudeDegrees>-72.95456833206117153167724609375</LongitudeDegrees>
            </Position>
            <AltitudeMeters>488.79998779296875</AltitudeMeters>
            <DistanceMeters>14682.5604515</DistanceMeters>
          </Trackpoint>
          <Trackpoint>
            <Time>2023-01-11T19:56:08.000Z</Time>
            <Position>
              <LatitudeDegrees>-49.236390553414821624755859375</LatitudeDegrees>
              <LongitudeDegrees>-72.95454628765583038330078125</LongitudeDegrees>
            </Position>
            <AltitudeMeters>489</AltitudeMeters>
            <DistanceMeters>14684.721134152</DistanceMeters>
          </Trackpoint>
          <Trackpoint>
            <Time>2023-01-11T19:56:10.000Z</Time>
            <Position>
              <LatitudeDegrees>-49.2363752983510494232177734375</LatitudeDegrees>
              <LongitudeDegrees>-72.95452407561242580413818359375</LongitudeDegrees>
            </Position>
            <AltitudeMeters>489.20001220703125</AltitudeMeters>
            <DistanceMeters>14687.064270187</DistanceMeters>
          </Trackpoint>
          <Trackpoint>
            <Time>2023-01-11T19:56:11.000Z</Time>
            <Position>
              <LatitudeDegrees>-49.2363679222762584686279296875</LatitudeDegrees>
              <LongitudeDegrees>-72.954517118632793426513671875</LongitudeDegrees>
            </Position>
            <AltitudeMeters>489.399993896484375</AltitudeMeters>
            <DistanceMeters>14688.028686007</DistanceMeters>
          </Trackpoint>
          <Trackpoint>
            <Time>2023-01-11T19:56:17.000Z</Time>
            <Position>
              <LatitudeDegrees>-49.2363548465073108673095703125</LatitudeDegrees>
              <LongitudeDegrees>-72.95444360934197902679443359375</LongitudeDegrees>
            </Position>
            <AltitudeMeters>490.399993896484375</AltitudeMeters>
            <DistanceMeters>14693.565572273</DistanceMeters>
          </Trackpoint>
          <Trackpoint>
            <Time>2023-01-11T19:56:18.000Z</Time>
            <Position>
              <LatitudeDegrees>-49.23635040409862995147705078125</LatitudeDegrees>
              <LongitudeDegrees>-72.95442366041243076324462890625</LongitudeDegrees>
            </Position>
            <AltitudeMeters>490.399993896484375</AltitudeMeters>
            <DistanceMeters>14695.097832001</DistanceMeters>
          </Trackpoint>
          <Trackpoint>
            <Time>2023-01-11T19:56:24.000Z</Time>
            <Position>
              <LatitudeDegrees>-49.23636985011398792266845703125</LatitudeDegrees>
              <LongitudeDegrees>-72.95434780418872833251953125</LongitudeDegrees>
            </Position>
            <AltitudeMeters>489.399993896484375</AltitudeMeters>
            <DistanceMeters>14701.020062739</DistanceMeters>
          </Trackpoint>
          <Trackpoint>
            <Time>2023-01-11T19:56:25.000Z</Time>
            <Position>
              <LatitudeDegrees>-49.23636733554303646087646484375</LatitudeDegrees>
              <LongitudeDegrees>-72.9543221555650234222412109375</LongitudeDegrees>
            </Position>
            <AltitudeMeters>489.20001220703125</AltitudeMeters>
            <DistanceMeters>14702.901495694</DistanceMeters>
          </Trackpoint>
          <Trackpoint>
            <Time>2023-01-11T19:56:35.000Z</Time>
            <Position>
              <LatitudeDegrees>-49.236337244510650634765625</LatitudeDegrees>
              <LongitudeDegrees>-72.95415929518640041351318359375</LongitudeDegrees>
            </Position>
            <AltitudeMeters>489.600006103515625</AltitudeMeters>
            <DistanceMeters>14715.20185873</DistanceMeters>
          </Trackpoint>
          <Trackpoint>
            <Time>2023-01-11T19:56:38.000Z</Time>
            <Position>
              <LatitudeDegrees>-49.23633330501616001129150390625</LatitudeDegrees>
              <LongitudeDegrees>-72.954097688198089599609375</LongitudeDegrees>
            </Position>
            <AltitudeMeters>490.20001220703125</AltitudeMeters>
            <DistanceMeters>14719.701351078</DistanceMeters>
          </Trackpoint>
          <Trackpoint>
            <Time>2023-01-11T19:56:41.000Z</Time>
            <Position>
              <LatitudeDegrees>-49.2363090813159942626953125</LatitudeDegrees>
              <LongitudeDegrees>-72.9540633223950862884521484375</LongitudeDegrees>
            </Position>
            <AltitudeMeters>490.399993896484375</AltitudeMeters>
            <DistanceMeters>14723.376809466</DistanceMeters>
          </Trackpoint>
          <Trackpoint>
            <Time>2023-01-11T19:56:42.000Z</Time>
            <Position>
              <LatitudeDegrees>-49.23630497418344020843505859375</LatitudeDegrees>
              <LongitudeDegrees>-72.9540468938648700714111328125</LongitudeDegrees>
            </Position>
            <AltitudeMeters>490.79998779296875</AltitudeMeters>
            <DistanceMeters>14724.651726624</DistanceMeters>
          </Trackpoint>
          <Trackpoint>
            <Time>2023-01-11T19:56:47.000Z</Time>
            <Position>
              <LatitudeDegrees>-49.23628485761582851409912109375</LatitudeDegrees>
              <LongitudeDegrees>-72.9539855383336544036865234375</LongitudeDegrees>
            </Position>
            <AltitudeMeters>490.79998779296875</AltitudeMeters>
            <DistanceMeters>14729.640402869</DistanceMeters>
          </Trackpoint>
          <Trackpoint>
            <Time>2023-01-11T19:56:53.000Z</Time>
            <Position>
              <LatitudeDegrees>-49.23624412156641483306884765625</LatitudeDegrees>
              <LongitudeDegrees>-72.9539255239069461822509765625</LongitudeDegrees>
            </Position>
            <AltitudeMeters>491</AltitudeMeters>
            <DistanceMeters>14735.931573273</DistanceMeters>
          </Trackpoint>
          <Trackpoint>
            <Time>2023-01-11T19:56:54.000Z</Time>
            <Position>
              <LatitudeDegrees>-49.23623473383486270904541015625</LatitudeDegrees>
              <LongitudeDegrees>-72.953925691545009613037109375</LongitudeDegrees>
            </Position>
            <AltitudeMeters>491</AltitudeMeters>
            <DistanceMeters>14736.98117764</DistanceMeters>
          </Trackpoint>
          <Trackpoint>
            <Time>2023-01-11T19:56:57.000Z</Time>
            <Position>
              <LatitudeDegrees>-49.23621830530464649200439453125</LatitudeDegrees>
              <LongitudeDegrees>-72.953918315470218658447265625</LongitudeDegrees>
            </Position>
            <AltitudeMeters>491.600006103515625</AltitudeMeters>
            <DistanceMeters>14738.886457339</DistanceMeters>
          </Trackpoint>
          <Trackpoint>
            <Time>2023-01-11T19:57:00.000Z</Time>
            <Position>
              <LatitudeDegrees>-49.2361949197947978973388671875</LatitudeDegrees>
              <LongitudeDegrees>-72.9538856260478496551513671875</LongitudeDegrees>
            </Position>
            <AltitudeMeters>491.600006103515625</AltitudeMeters>
            <DistanceMeters>14742.411423322</DistanceMeters>
          </Trackpoint>
          <Trackpoint>
            <Time>2023-01-11T19:57:06.000Z</Time>
            <Position>
              <LatitudeDegrees>-49.2361469753086566925048828125</LatitudeDegrees>
              <LongitudeDegrees>-72.95381982810795307159423828125</LongitudeDegrees>
            </Position>
            <AltitudeMeters>491.20001220703125</AltitudeMeters>
            <DistanceMeters>14749.576966893</DistanceMeters>
          </Trackpoint>
          <Trackpoint>
            <Time>2023-01-11T19:57:14.000Z</Time>
            <Position>
              <LatitudeDegrees>-49.2360950075089931488037109375</LatitudeDegrees>
              <LongitudeDegrees>-72.95370331965386867523193359375</LongitudeDegrees>
            </Position>
            <AltitudeMeters>490.600006103515625</AltitudeMeters>
            <DistanceMeters>14759.8310495</DistanceMeters>
          </Trackpoint>
          <Trackpoint>
            <Time>2023-01-11T19:57:15.000Z</Time>
            <Position>
              <LatitudeDegrees>-49.23608855344355106353759765625</LatitudeDegrees>
              <LongitudeDegrees>-72.953684628009796142578125</LongitudeDegrees>
            </Position>
            <AltitudeMeters>490.600006103515625</AltitudeMeters>
            <DistanceMeters>14761.369191245</DistanceMeters>
          </Trackpoint>
          <Trackpoint>
            <Time>2023-01-11T19:57:18.000Z</Time>
            <Position>
              <LatitudeDegrees>-49.2360577918589115142822265625</LatitudeDegrees>
              <LongitudeDegrees>-72.95363743789494037628173828125</LongitudeDegrees>
            </Position>
            <AltitudeMeters>490</AltitudeMeters>
            <DistanceMeters>14766.215553678</DistanceMeters>
          </Trackpoint>
          <Trackpoint>
            <Time>2023-01-11T19:57:21.000Z</Time>
            <Position>
              <LatitudeDegrees>-49.23603482544422149658203125</LatitudeDegrees>
              <LongitudeDegrees>-72.95360089279711246490478515625</LongitudeDegrees>
            </Position>
            <AltitudeMeters>490</AltitudeMeters>
            <DistanceMeters>14769.900826391</DistanceMeters>
          </Trackpoint>
          <Trackpoint>
            <Time>2023-01-11T19:57:27.000Z</Time>
            <Position>
              <LatitudeDegrees>-49.2359977774322032928466796875</LatitudeDegrees>
              <LongitudeDegrees>-72.953572310507297515869140625</LongitudeDegrees>
            </Position>
            <AltitudeMeters>490</AltitudeMeters>
            <DistanceMeters>14774.517208135</DistanceMeters>
          </Trackpoint>
          <Trackpoint>
            <Time>2023-01-11T19:57:28.000Z</Time>
            <Position>
              <LatitudeDegrees>-49.2359863780438899993896484375</LatitudeDegrees>
              <LongitudeDegrees>-72.953564263880252838134765625</LongitudeDegrees>
            </Position>
            <AltitudeMeters>489.79998779296875</AltitudeMeters>
            <DistanceMeters>14775.91703905</DistanceMeters>
          </Trackpoint>
          <Trackpoint>
            <Time>2023-01-11T19:57:31.000Z</Time>
            <Position>
              <LatitudeDegrees>-49.2359595559537410736083984375</LatitudeDegrees>
              <LongitudeDegrees>-72.9535423032939434051513671875</LongitudeDegrees>
            </Position>
            <AltitudeMeters>489.600006103515625</AltitudeMeters>
            <DistanceMeters>14779.302178191</DistanceMeters>
          </Trackpoint>
          <Trackpoint>
            <Time>2023-01-11T19:57:34.000Z</Time>
            <Position>
              <LatitudeDegrees>-49.2359290458261966705322265625</LatitudeDegrees>
              <LongitudeDegrees>-72.95354305766522884368896484375</LongitudeDegrees>
            </Position>
            <AltitudeMeters>488.79998779296875</AltitudeMeters>
            <DistanceMeters>14782.699300164</DistanceMeters>
          </Trackpoint>
          <Trackpoint>
            <Time>2023-01-11T19:57:35.000Z</Time>
            <Position>
              <LatitudeDegrees>-49.235916472971439361572265625</LatitudeDegrees>
              <LongitudeDegrees>-72.95354858972132205963134765625</LongitudeDegrees>
            </Position>
            <AltitudeMeters>488.20001220703125</AltitudeMeters>
            <DistanceMeters>14784.15912825</DistanceMeters>
          </Trackpoint>
          <Trackpoint>
            <Time>2023-01-11T19:57:41.000Z</Time>
            <Position>
              <LatitudeDegrees>-49.2358504235744476318359375</LatitudeDegrees>
              <LongitudeDegrees>-72.953552193939685821533203125</LongitudeDegrees>
            </Position>
            <AltitudeMeters>487.79998779296875</AltitudeMeters>
            <DistanceMeters>14791.514957098</DistanceMeters>
          </Trackpoint>
          <Trackpoint>
            <Time>2023-01-11T19:57:46.000Z</Time>
            <Position>
              <LatitudeDegrees>-49.2358039878308773040771484375</LatitudeDegrees>
              <LongitudeDegrees>-72.9535292275249958038330078125</LongitudeDegrees>
            </Position>
            <AltitudeMeters>487</AltitudeMeters>
            <DistanceMeters>14796.94563198</DistanceMeters>
          </Trackpoint>
          <Trackpoint>
            <Time>2023-01-11T19:57:47.000Z</Time>
            <Position>
              <LatitudeDegrees>-49.23578999005258083343505859375</LatitudeDegrees>
              <LongitudeDegrees>-72.9535376094281673431396484375</LongitudeDegrees>
            </Position>
            <AltitudeMeters>487</AltitudeMeters>
            <DistanceMeters>14798.618749937</DistanceMeters>
          </Trackpoint>
          <Trackpoint>
            <Time>2023-01-11T19:57:49.000Z</Time>
            <Position>
              <LatitudeDegrees>-49.23576115630567073822021484375</LatitudeDegrees>
              <LongitudeDegrees>-72.95353216119110584259033203125</LongitudeDegrees>
            </Position>
            <AltitudeMeters>487</AltitudeMeters>
            <DistanceMeters>14801.852451921</DistanceMeters>
          </Trackpoint>
          <Trackpoint>
            <Time>2023-01-11T19:57:50.000Z</Time>
            <Position>
              <LatitudeDegrees>-49.235749505460262298583984375</LatitudeDegrees>
              <LongitudeDegrees>-72.95352059416472911834716796875</LongitudeDegrees>
            </Position>
            <AltitudeMeters>487</AltitudeMeters>
            <DistanceMeters>14803.399374756</DistanceMeters>
          </Trackpoint>
          <Trackpoint>
            <Time>2023-01-11T19:57:52.000Z</Time>
            <Position>
              <LatitudeDegrees>-49.235727377235889434814453125</LatitudeDegrees>
              <LongitudeDegrees>-72.95350148342549800872802734375</LongitudeDegrees>
            </Position>
            <AltitudeMeters>487</AltitudeMeters>
            <DistanceMeters>14806.227916382</DistanceMeters>
          </Trackpoint>
          <Trackpoint>
            <Time>2023-01-11T19:57:53.000Z</Time>
            <Position>
              <LatitudeDegrees>-49.23571673221886157989501953125</LatitudeDegrees>
              <LongitudeDegrees>-72.953491508960723876953125</LongitudeDegrees>
            </Position>
            <AltitudeMeters>486.79998779296875</AltitudeMeters>
            <DistanceMeters>14807.618037369</DistanceMeters>
          </Trackpoint>
          <Trackpoint>
            <Time>2023-01-11T19:57:58.000Z</Time>
            <Position>
              <LatitudeDegrees>-49.23570533283054828643798828125</LatitudeDegrees>
              <LongitudeDegrees>-72.95344549231231212615966796875</LongitudeDegrees>
            </Position>
            <AltitudeMeters>486.399993896484375</AltitudeMeters>
            <DistanceMeters>14811.195133722</DistanceMeters>
          </Trackpoint>
          <Trackpoint>
            <Time>2023-01-11T19:58:06.000Z</Time>
            <Position>
              <LatitudeDegrees>-49.235669039189815521240234375</LatitudeDegrees>
              <LongitudeDegrees>-72.9534162394702434539794921875</LongitudeDegrees>
            </Position>
            <AltitudeMeters>486.20001220703125</AltitudeMeters>
            <DistanceMeters>14815.760373741</DistanceMeters>
          </Trackpoint>
          <Trackpoint>
            <Time>2023-01-11T19:58:07.000Z</Time>
            <Position>
              <LatitudeDegrees>-49.2356626689434051513671875</LatitudeDegrees>
              <LongitudeDegrees>-72.953410707414150238037109375</LongitudeDegrees>
            </Position>
            <AltitudeMeters>486</AltitudeMeters>
            <DistanceMeters>14816.577824447</DistanceMeters>
          </Trackpoint>
          <Trackpoint>
            <Time>2023-01-11T19:58:14.000Z</Time>
            <Position>
              <LatitudeDegrees>-49.2355894111096858978271484375</LatitudeDegrees>
              <LongitudeDegrees>-72.95341280288994312286376953125</LongitudeDegrees>
            </Position>
            <AltitudeMeters>485.600006103515625</AltitudeMeters>
            <DistanceMeters>14824.732976991</DistanceMeters>
          </Trackpoint>
          <Trackpoint>
            <Time>2023-01-11T19:58:21.000Z</Time>
            <Position>
              <LatitudeDegrees>-49.23554590903222560882568359375</LatitudeDegrees>
              <LongitudeDegrees>-72.95340760610997676849365234375</LongitudeDegrees>
            </Position>
            <AltitudeMeters>485</AltitudeMeters>
            <DistanceMeters>14829.589576591</DistanceMeters>
          </Trackpoint>
          <Trackpoint>
            <Time>2023-01-11T19:58:28.000Z</Time>
            <Position>
              <LatitudeDegrees>-49.2354588210582733154296875</LatitudeDegrees>
              <LongitudeDegrees>-72.95337282121181488037109375</LongitudeDegrees>
            </Position>
            <AltitudeMeters>484.79998779296875</AltitudeMeters>
            <DistanceMeters>14839.60667245</DistanceMeters>
          </Trackpoint>
          <Trackpoint>
            <Time>2023-01-11T19:58:35.000Z</Time>
            <Position>
              <LatitudeDegrees>-49.23537123017013072967529296875</LatitudeDegrees>
              <LongitudeDegrees>-72.95337407849729061126708984375</LongitudeDegrees>
            </Position>
            <AltitudeMeters>484.399993896484375</AltitudeMeters>
            <DistanceMeters>14849.356061387</DistanceMeters>
          </Trackpoint>
          <Trackpoint>
            <Time>2023-01-11T19:58:41.000Z</Time>
            <Position>
              <LatitudeDegrees>-49.23529210500419139862060546875</LatitudeDegrees>
              <LongitudeDegrees>-72.95336519367992877960205078125</LongitudeDegrees>
            </Position>
            <AltitudeMeters>484.600006103515625</AltitudeMeters>
            <DistanceMeters>14858.185879053</DistanceMeters>
          </Trackpoint>
          <Trackpoint>
            <Time>2023-01-11T19:58:46.000Z</Time>
            <Position>
              <LatitudeDegrees>-49.2352377064526081085205078125</LatitudeDegrees>
              <LongitudeDegrees>-72.95333434827625751495361328125</LongitudeDegrees>
            </Position>
            <AltitudeMeters>484.20001220703125</AltitudeMeters>
            <DistanceMeters>14864.642103403</DistanceMeters>
          </Trackpoint>
          <Trackpoint>
            <Time>2023-01-11T19:58:48.000Z</Time>
            <Position>
              <LatitudeDegrees>-49.235224463045597076416015625</LatitudeDegrees>
              <LongitudeDegrees>-72.95330710709095001220703125</LongitudeDegrees>
            </Position>
            <AltitudeMeters>484.399993896484375</AltitudeMeters>
            <DistanceMeters>14867.110969864</DistanceMeters>
          </Trackpoint>
          <Trackpoint>
            <Time>2023-01-11T19:58:53.000Z</Time>
            <Position>
              <LatitudeDegrees>-49.23516771756112575531005859375</LatitudeDegrees>
              <LongitudeDegrees>-72.953273244202136993408203125</LongitudeDegrees>
            </Position>
            <AltitudeMeters>484</AltitudeMeters>
            <DistanceMeters>14873.889246116</DistanceMeters>
          </Trackpoint>
          <Trackpoint>
            <Time>2023-01-11T19:58:54.000Z</Time>
            <Position>
              <LatitudeDegrees>-49.2351557314395904541015625</LatitudeDegrees>
              <LongitudeDegrees>-72.95327081345021724700927734375</LongitudeDegrees>
            </Position>
            <AltitudeMeters>483.600006103515625</AltitudeMeters>
            <DistanceMeters>14875.233126798</DistanceMeters>
          </Trackpoint>
          <Trackpoint>
            <Time>2023-01-11T19:58:56.000Z</Time>
            <Position>
              <LatitudeDegrees>-49.2351354472339153289794921875</LatitudeDegrees>
              <LongitudeDegrees>-72.95326511375606060028076171875</LongitudeDegrees>
            </Position>
            <AltitudeMeters>483.600006103515625</AltitudeMeters>
            <DistanceMeters>14877.529551115</DistanceMeters>
          </Trackpoint>
          <Trackpoint>
            <Time>2023-01-11T19:59:00.000Z</Time>
            <Position>
              <LatitudeDegrees>-49.2350888438522815704345703125</LatitudeDegrees>
              <LongitudeDegrees>-72.9532559774816036224365234375</LongitudeDegrees>
            </Position>
            <AltitudeMeters>482.600006103515625</AltitudeMeters>
            <DistanceMeters>14882.759474781</DistanceMeters>
          </Trackpoint>
          <Trackpoint>
            <Time>2023-01-11T19:59:05.000Z</Time>
            <Position>
              <LatitudeDegrees>-49.2350502870976924896240234375</LatitudeDegrees>
              <LongitudeDegrees>-72.953196801245212554931640625</LongitudeDegrees>
            </Position>
            <AltitudeMeters>482.399993896484375</AltitudeMeters>
            <DistanceMeters>14888.835242428</DistanceMeters>
          </Trackpoint>
          <Trackpoint>
            <Time>2023-01-11T19:59:06.000Z</Time>
            <Position>
              <LatitudeDegrees>-49.23504450358450412750244140625</LatitudeDegrees>
              <LongitudeDegrees>-72.95318179763853549957275390625</LongitudeDegrees>
            </Position>
            <AltitudeMeters>482.20001220703125</AltitudeMeters>
            <DistanceMeters>14890.103056928</DistanceMeters>
          </Trackpoint>
          <Trackpoint>
            <Time>2023-01-11T19:59:08.000Z</Time>
            <Position>
              <LatitudeDegrees>-49.23503813333809375762939453125</LatitudeDegrees>
              <LongitudeDegrees>-72.95315564610064029693603515625</LongitudeDegrees>
            </Position>
            <AltitudeMeters>482.20001220703125</AltitudeMeters>
            <DistanceMeters>14892.132272259</DistanceMeters>
          </Trackpoint>
          <Trackpoint>
            <Time>2023-01-11T19:59:10.000Z</Time>
            <Position>
              <LatitudeDegrees>-49.23503578640520572662353515625</LatitudeDegrees>
              <LongitudeDegrees>-72.9531262256205081939697265625</LongitudeDegrees>
            </Position>
            <AltitudeMeters>482.20001220703125</AltitudeMeters>
            <DistanceMeters>14894.286676885</DistanceMeters>
          </Trackpoint>
          <Trackpoint>
            <Time>2023-01-11T19:59:17.000Z</Time>
            <Position>
              <LatitudeDegrees>-49.23499588854610919952392578125</LatitudeDegrees>
              <LongitudeDegrees>-72.95303578488528728485107421875</LongitudeDegrees>
            </Position>
            <AltitudeMeters>481.600006103515625</AltitudeMeters>
            <DistanceMeters>14902.218419606</DistanceMeters>
          </Trackpoint>
          <Trackpoint>
            <Time>2023-01-11T19:59:18.000Z</Time>
            <Position>
              <LatitudeDegrees>-49.2349885962903499603271484375</LatitudeDegrees>
              <LongitudeDegrees>-72.9530274868011474609375</LongitudeDegrees>
            </Position>
            <AltitudeMeters>481.600006103515625</AltitudeMeters>
            <DistanceMeters>14903.224087822</DistanceMeters>
          </Trackpoint>
          <Trackpoint>
            <Time>2023-01-11T19:59:19.000Z</Time>
            <Position>
              <LatitudeDegrees>-49.23497828654944896697998046875</LatitudeDegrees>
              <LongitudeDegrees>-72.95301767997443675994873046875</LongitudeDegrees>
            </Position>
            <AltitudeMeters>481.399993896484375</AltitudeMeters>
            <DistanceMeters>14904.574671193</DistanceMeters>
          </Trackpoint>
          <Trackpoint>
            <Time>2023-01-11T19:59:26.000Z</Time>
            <Position>
              <LatitudeDegrees>-49.23491072840988636016845703125</LatitudeDegrees>
              <LongitudeDegrees>-72.9529408179223537445068359375</LongitudeDegrees>
            </Position>
            <AltitudeMeters>481</AltitudeMeters>
            <DistanceMeters>14913.941432785</DistanceMeters>
          </Trackpoint>
          <Trackpoint>
            <Time>2023-01-11T19:59:34.000Z</Time>
            <Position>
              <LatitudeDegrees>-49.234842918813228607177734375</LatitudeDegrees>
              <LongitudeDegrees>-72.95283780433237552642822265625</LongitudeDegrees>
            </Position>
            <AltitudeMeters>480.79998779296875</AltitudeMeters>
            <DistanceMeters>14924.57253982</DistanceMeters>
          </Trackpoint>
          <Trackpoint>
            <Time>2023-01-11T19:59:41.000Z</Time>
            <Position>
              <LatitudeDegrees>-49.23482892103493213653564453125</LatitudeDegrees>
              <LongitudeDegrees>-72.9527225531637668609619140625</LongitudeDegrees>
            </Position>
            <AltitudeMeters>480.600006103515625</AltitudeMeters>
            <DistanceMeters>14933.092149814</DistanceMeters>
          </Trackpoint>
          <Trackpoint>
            <Time>2023-01-11T19:59:45.000Z</Time>
            <Position>
              <LatitudeDegrees>-49.234853647649288177490234375</LatitudeDegrees>
              <LongitudeDegrees>-72.95264803804457187652587890625</LongitudeDegrees>
            </Position>
            <AltitudeMeters>480.399993896484375</AltitudeMeters>
            <DistanceMeters>14939.167174293</DistanceMeters>
          </Trackpoint>
          <Trackpoint>
            <Time>2023-01-11T19:59:51.000Z</Time>
            <Position>
              <LatitudeDegrees>-49.234879128634929656982421875</LatitudeDegrees>
              <LongitudeDegrees>-72.95255147852003574371337890625</LongitudeDegrees>
            </Position>
            <AltitudeMeters>481</AltitudeMeters>
            <DistanceMeters>14946.735979018</DistanceMeters>
          </Trackpoint>
          <Trackpoint>
            <Time>2023-01-11T19:59:58.000Z</Time>
            <Position>
              <LatitudeDegrees>-49.23487669788300991058349609375</LatitudeDegrees>
              <LongitudeDegrees>-72.95244720764458179473876953125</LongitudeDegrees>
            </Position>
            <AltitudeMeters>480.600006103515625</AltitudeMeters>
            <DistanceMeters>14954.319087009</DistanceMeters>
          </Trackpoint>
          <Trackpoint>
            <Time>2023-01-11T19:59:59.000Z</Time>
            <Position>
              <LatitudeDegrees>-49.2348702438175678253173828125</LatitudeDegrees>
              <LongitudeDegrees>-72.95243346132338047027587890625</LongitudeDegrees>
            </Position>
            <AltitudeMeters>480.600006103515625</AltitudeMeters>
            <DistanceMeters>14955.550773999</DistanceMeters>
          </Trackpoint>
          <Trackpoint>
            <Time>2023-01-11T20:00:07.000Z</Time>
            <Position>
              <LatitudeDegrees>-49.234808720648288726806640625</LatitudeDegrees>
              <LongitudeDegrees>-72.95231561176478862762451171875</LongitudeDegrees>
            </Position>
            <AltitudeMeters>480.600006103515625</AltitudeMeters>
            <DistanceMeters>14966.516379223</DistanceMeters>
          </Trackpoint>
          <Trackpoint>
            <Time>2023-01-11T20:00:15.000Z</Time>
            <Position>
              <LatitudeDegrees>-49.234727919101715087890625</LatitudeDegrees>
              <LongitudeDegrees>-72.95226037502288818359375</LongitudeDegrees>
            </Position>
            <AltitudeMeters>479.600006103515625</AltitudeMeters>
            <DistanceMeters>14976.365291912</DistanceMeters>
          </Trackpoint>
          <Trackpoint>
            <Time>2023-01-11T20:00:18.000Z</Time>
            <Position>
              <LatitudeDegrees>-49.23469732515513896942138671875</LatitudeDegrees>
              <LongitudeDegrees>-72.95224118046462535858154296875</LongitudeDegrees>
            </Position>
            <AltitudeMeters>479.399993896484375</AltitudeMeters>
            <DistanceMeters>14980.045660734</DistanceMeters>
          </Trackpoint>
          <Trackpoint>
            <Time>2023-01-11T20:00:25.000Z</Time>
            <Position>
              <LatitudeDegrees>-49.234639741480350494384765625</LatitudeDegrees>
              <LongitudeDegrees>-72.95217194594442844390869140625</LongitudeDegrees>
            </Position>
            <AltitudeMeters>478.399993896484375</AltitudeMeters>
            <DistanceMeters>14988.194166861</DistanceMeters>
          </Trackpoint>
          <Trackpoint>
            <Time>2023-01-11T20:00:26.000Z</Time>
            <Position>
              <LatitudeDegrees>-49.23463203012943267822265625</LatitudeDegrees>
              <LongitudeDegrees>-72.95216574333608150482177734375</LongitudeDegrees>
            </Position>
            <AltitudeMeters>478</AltitudeMeters>
            <DistanceMeters>14989.167900924</DistanceMeters>
          </Trackpoint>
          <Trackpoint>
            <Time>2023-01-11T20:00:31.000Z</Time>
            <Position>
              <LatitudeDegrees>-49.23458199016749858856201171875</LatitudeDegrees>
              <LongitudeDegrees>-72.95209877192974090576171875</LongitudeDegrees>
            </Position>
            <AltitudeMeters>477.79998779296875</AltitudeMeters>
            <DistanceMeters>14996.564740329</DistanceMeters>
          </Trackpoint>
          <Trackpoint>
            <Time>2023-01-11T20:00:32.000Z</Time>
            <Position>
              <LatitudeDegrees>-49.2345755361020565032958984375</LatitudeDegrees>
              <LongitudeDegrees>-72.952089048922061920166015625</LongitudeDegrees>
            </Position>
            <AltitudeMeters>477.79998779296875</AltitudeMeters>
            <DistanceMeters>14997.570408545</DistanceMeters>
          </Trackpoint>
          <Trackpoint>
            <Time>2023-01-11T20:00:38.000Z</Time>
            <Position>
              <LatitudeDegrees>-49.23453949391841888427734375</LatitudeDegrees>
              <LongitudeDegrees>-72.95199953019618988037109375</LongitudeDegrees>
            </Position>
            <AltitudeMeters>477.79998779296875</AltitudeMeters>
            <DistanceMeters>15005.212825338</DistanceMeters>
          </Trackpoint>
          <Trackpoint>
            <Time>2023-01-11T20:00:45.000Z</Time>
            <Position>
              <LatitudeDegrees>-49.2345093190670013427734375</LatitudeDegrees>
              <LongitudeDegrees>-72.95189282856881618499755859375</LongitudeDegrees>
            </Position>
            <AltitudeMeters>478.600006103515625</AltitudeMeters>
            <DistanceMeters>15013.663259914</DistanceMeters>
          </Trackpoint>
          <Trackpoint>
            <Time>2023-01-11T20:00:47.000Z</Time>
            <Position>
              <LatitudeDegrees>-49.23448861576616764068603515625</LatitudeDegrees>
              <LongitudeDegrees>-72.95187958516180515289306640625</LongitudeDegrees>
            </Position>
            <AltitudeMeters>479</AltitudeMeters>
            <DistanceMeters>15016.163022483</DistanceMeters>
          </Trackpoint>
          <Trackpoint>
            <Time>2023-01-11T20:00:55.000Z</Time>
            <Position>
              <LatitudeDegrees>-49.23439599573612213134765625</LatitudeDegrees>
              <LongitudeDegrees>-72.951868437230587005615234375</LongitudeDegrees>
            </Position>
            <AltitudeMeters>477.399993896484375</AltitudeMeters>
            <DistanceMeters>15026.503483554</DistanceMeters>
          </Trackpoint>
          <Trackpoint>
            <Time>2023-01-11T20:00:56.000Z</Time>
            <Position>
              <LatitudeDegrees>-49.23438660800457000732421875</LatitudeDegrees>
              <LongitudeDegrees>-72.95185469090938568115234375</LongitudeDegrees>
            </Position>
            <AltitudeMeters>477.399993896484375</AltitudeMeters>
            <DistanceMeters>15027.947764572</DistanceMeters>
          </Trackpoint>
          <Trackpoint>
            <Time>2023-01-11T20:00:59.000Z</Time>
            <Position>
              <LatitudeDegrees>-49.2343683354556560516357421875</LatitudeDegrees>
              <LongitudeDegrees>-72.95181185938417911529541015625</LongitudeDegrees>
            </Position>
            <AltitudeMeters>476.600006103515625</AltitudeMeters>
            <DistanceMeters>15031.667183493</DistanceMeters>
          </Trackpoint>
          <Trackpoint>
            <Time>2023-01-11T20:01:02.000Z</Time>
            <Position>
              <LatitudeDegrees>-49.23435752280056476593017578125</LatitudeDegrees>
              <LongitudeDegrees>-72.95175989158451557159423828125</LongitudeDegrees>
            </Position>
            <AltitudeMeters>475.600006103515625</AltitudeMeters>
            <DistanceMeters>15035.632200907</DistanceMeters>
          </Trackpoint>
          <Trackpoint>
            <Time>2023-01-11T20:01:04.000Z</Time>
            <Position>
              <LatitudeDegrees>-49.2343592830002307891845703125</LatitudeDegrees>
              <LongitudeDegrees>-72.951723597943782806396484375</LongitudeDegrees>
            </Position>
            <AltitudeMeters>475.600006103515625</AltitudeMeters>
            <DistanceMeters>15038.277632676</DistanceMeters>
          </Trackpoint>
          <Trackpoint>
            <Time>2023-01-11T20:01:08.000Z</Time>
            <Position>
              <LatitudeDegrees>-49.2343666590750217437744140625</LatitudeDegrees>
              <LongitudeDegrees>-72.95166249386966228485107421875</LongitudeDegrees>
            </Position>
            <AltitudeMeters>475.399993896484375</AltitudeMeters>
            <DistanceMeters>15042.795151106</DistanceMeters>
          </Trackpoint>
          <Trackpoint>
            <Time>2023-01-11T20:01:10.000Z</Time>
            <Position>
              <LatitudeDegrees>-49.23436724580824375152587890625</LatitudeDegrees>
              <LongitudeDegrees>-72.95165394432842731475830078125</LongitudeDegrees>
            </Position>
            <AltitudeMeters>475.399993896484375</AltitudeMeters>
            <DistanceMeters>15043.425487019</DistanceMeters>
          </Trackpoint>
          <Trackpoint>
            <Time>2023-01-11T20:01:16.000Z</Time>
            <Position>
              <LatitudeDegrees>-49.2343753762543201446533203125</LatitudeDegrees>
              <LongitudeDegrees>-72.9516406171023845672607421875</LongitudeDegrees>
            </Position>
            <AltitudeMeters>475.399993896484375</AltitudeMeters>
            <DistanceMeters>15044.749055993</DistanceMeters>
          </Trackpoint>
          <Trackpoint>
            <Time>2023-01-11T20:01:23.000Z</Time>
            <Position>
              <LatitudeDegrees>-49.23437294550240039825439453125</LatitudeDegrees>
              <LongitudeDegrees>-72.9516117833554744720458984375</LongitudeDegrees>
            </Position>
            <AltitudeMeters>475</AltitudeMeters>
            <DistanceMeters>15046.863266919</DistanceMeters>
          </Trackpoint>
          <Trackpoint>
            <Time>2023-01-11T20:01:35.000Z</Time>
            <Position>
              <LatitudeDegrees>-49.23437311314046382904052734375</LatitudeDegrees>
              <LongitudeDegrees>-72.9516137950122356414794921875</LongitudeDegrees>
            </Position>
            <AltitudeMeters>475.399993896484375</AltitudeMeters>
            <DistanceMeters>15046.997654988</DistanceMeters>
          </Trackpoint>
          <Trackpoint>
            <Time>2023-01-11T20:01:41.000Z</Time>
            <Position>
              <LatitudeDegrees>-49.23437311314046382904052734375</LatitudeDegrees>
              <LongitudeDegrees>-72.9516137950122356414794921875</LongitudeDegrees>
            </Position>
            <AltitudeMeters>475</AltitudeMeters>
            <DistanceMeters>15046.997654988</DistanceMeters>
          </Trackpoint>
          <Trackpoint>
            <Time>2023-01-11T20:01:50.000Z</Time>
            <Position>
              <LatitudeDegrees>-49.23437210731208324432373046875</LatitudeDegrees>
              <LongitudeDegrees>-72.95161069370806217193603515625</LongitudeDegrees>
            </Position>
            <AltitudeMeters>474.600006103515625</AltitudeMeters>
            <DistanceMeters>15047.249072042</DistanceMeters>
          </Trackpoint>
          <Trackpoint>
            <Time>2023-01-11T20:02:01.000Z</Time>
            <Position>
              <LatitudeDegrees>-49.23435249365866184234619140625</LatitudeDegrees>
              <LongitudeDegrees>-72.951572053134441375732421875</LongitudeDegrees>
            </Position>
            <AltitudeMeters>474.20001220703125</AltitudeMeters>
            <DistanceMeters>15050.805915741</DistanceMeters>
          </Trackpoint>
          <Trackpoint>
            <Time>2023-01-11T20:02:18.000Z</Time>
            <Position>
              <LatitudeDegrees>-49.23433774150907993316650390625</LatitudeDegrees>
              <LongitudeDegrees>-72.95156375505030155181884765625</LongitudeDegrees>
            </Position>
            <AltitudeMeters>474.399993896484375</AltitudeMeters>
            <DistanceMeters>15052.552960628</DistanceMeters>
          </Trackpoint>
          <Trackpoint>
            <Time>2023-01-11T20:02:22.000Z</Time>
            <Position>
              <LatitudeDegrees>-49.2343389987945556640625</LatitudeDegrees>
              <LongitudeDegrees>-72.951511703431606292724609375</LongitudeDegrees>
            </Position>
            <AltitudeMeters>474</AltitudeMeters>
            <DistanceMeters>15056.33736299</DistanceMeters>
          </Trackpoint>
          <Trackpoint>
            <Time>2023-01-11T20:02:26.000Z</Time>
            <Position>
              <LatitudeDegrees>-49.23432986252009868621826171875</LatitudeDegrees>
              <LongitudeDegrees>-72.95144774951040744781494140625</LongitudeDegrees>
            </Position>
            <AltitudeMeters>474.20001220703125</AltitudeMeters>
            <DistanceMeters>15061.096294774</DistanceMeters>
          </Trackpoint>
          <Trackpoint>
            <Time>2023-01-11T20:02:29.000Z</Time>
            <Position>
              <LatitudeDegrees>-49.23430974595248699188232421875</LatitudeDegrees>
              <LongitudeDegrees>-72.95140097849071025848388671875</LongitudeDegrees>
            </Position>
            <AltitudeMeters>474.20001220703125</AltitudeMeters>
            <DistanceMeters>15065.165835313</DistanceMeters>
          </Trackpoint>
          <Trackpoint>
            <Time>2023-01-11T20:02:31.000Z</Time>
            <Position>
              <LatitudeDegrees>-49.2343001067638397216796875</LatitudeDegrees>
              <LongitudeDegrees>-72.9513767547905445098876953125</LongitudeDegrees>
            </Position>
            <AltitudeMeters>474.20001220703125</AltitudeMeters>
            <DistanceMeters>15067.230343991</DistanceMeters>
          </Trackpoint>
          <Trackpoint>
            <Time>2023-01-11T20:02:33.000Z</Time>
            <Position>
              <LatitudeDegrees>-49.2342848517000675201416015625</LatitudeDegrees>
              <LongitudeDegrees>-72.9513524472713470458984375</LongitudeDegrees>
            </Position>
            <AltitudeMeters>474.399993896484375</AltitudeMeters>
            <DistanceMeters>15069.680854312</DistanceMeters>
          </Trackpoint>
          <Trackpoint>
            <Time>2023-01-11T20:02:36.000Z</Time>
            <Position>
              <LatitudeDegrees>-49.2342791520059108734130859375</LatitudeDegrees>
              <LongitudeDegrees>-72.951298467814922332763671875</LongitudeDegrees>
            </Position>
            <AltitudeMeters>474.399993896484375</AltitudeMeters>
            <DistanceMeters>15073.653834758</DistanceMeters>
          </Trackpoint>
          <Trackpoint>
            <Time>2023-01-11T20:02:38.000Z</Time>
            <Position>
              <LatitudeDegrees>-49.234289713203907012939453125</LatitudeDegrees>
              <LongitudeDegrees>-72.9512639343738555908203125</LongitudeDegrees>
            </Position>
            <AltitudeMeters>474.399993896484375</AltitudeMeters>
            <DistanceMeters>15076.425944975</DistanceMeters>
          </Trackpoint>
          <Trackpoint>
            <Time>2023-01-11T20:02:45.000Z</Time>
            <Position>
              <LatitudeDegrees>-49.234293736517429351806640625</LatitudeDegrees>
              <LongitudeDegrees>-72.95112437568604946136474609375</LongitudeDegrees>
            </Position>
            <AltitudeMeters>474.399993896484375</AltitudeMeters>
            <DistanceMeters>15086.578249764</DistanceMeters>
          </Trackpoint>
          <Trackpoint>
            <Time>2023-01-11T20:02:52.000Z</Time>
            <Position>
              <LatitudeDegrees>-49.2342801578342914581298828125</LatitudeDegrees>
              <LongitudeDegrees>-72.95103720389306545257568359375</LongitudeDegrees>
            </Position>
            <AltitudeMeters>474.399993896484375</AltitudeMeters>
            <DistanceMeters>15093.091566825</DistanceMeters>
          </Trackpoint>
          <Trackpoint>
            <Time>2023-01-11T20:03:00.000Z</Time>
            <Position>
              <LatitudeDegrees>-49.2342224903404712677001953125</LatitudeDegrees>
              <LongitudeDegrees>-72.95092991553246974945068359375</LongitudeDegrees>
            </Position>
            <AltitudeMeters>474.399993896484375</AltitudeMeters>
            <DistanceMeters>15103.191257093</DistanceMeters>
          </Trackpoint>
          <Trackpoint>
            <Time>2023-01-11T20:03:07.000Z</Time>
            <Position>
              <LatitudeDegrees>-49.23418384976685047149658203125</LatitudeDegrees>
              <LongitudeDegrees>-72.9508160054683685302734375</LongitudeDegrees>
            </Position>
            <AltitudeMeters>475</AltitudeMeters>
            <DistanceMeters>15112.520344763</DistanceMeters>
          </Trackpoint>
          <Trackpoint>
            <Time>2023-01-11T20:03:15.000Z</Time>
            <Position>
              <LatitudeDegrees>-49.23413875512778759002685546875</LatitudeDegrees>
              <LongitudeDegrees>-72.95069220475852489471435546875</LongitudeDegrees>
            </Position>
            <AltitudeMeters>474.600006103515625</AltitudeMeters>
            <DistanceMeters>15122.822748295</DistanceMeters>
          </Trackpoint>
          <Trackpoint>
            <Time>2023-01-11T20:03:23.000Z</Time>
            <Position>
              <LatitudeDegrees>-49.23412081785500049591064453125</LatitudeDegrees>
              <LongitudeDegrees>-72.9505472816526889801025390625</LongitudeDegrees>
            </Position>
            <AltitudeMeters>474.20001220703125</AltitudeMeters>
            <DistanceMeters>15133.542671467</DistanceMeters>
          </Trackpoint>
          <Trackpoint>
            <Time>2023-01-11T20:03:32.000Z</Time>
            <Position>
              <LatitudeDegrees>-49.234125427901744842529296875</LatitudeDegrees>
              <LongitudeDegrees>-72.95037419535219669342041015625</LongitudeDegrees>
            </Position>
            <AltitudeMeters>474.399993896484375</AltitudeMeters>
            <DistanceMeters>15146.132904265</DistanceMeters>
          </Trackpoint>
          <Trackpoint>
            <Time>2023-01-11T20:03:40.000Z</Time>
            <Position>
              <LatitudeDegrees>-49.23418804071843624114990234375</LatitudeDegrees>
              <LongitudeDegrees>-72.95025215484201908111572265625</LongitudeDegrees>
            </Position>
            <AltitudeMeters>474.399993896484375</AltitudeMeters>
            <DistanceMeters>15157.412699347</DistanceMeters>
          </Trackpoint>
          <Trackpoint>
            <Time>2023-01-11T20:03:46.000Z</Time>
            <Position>
              <LatitudeDegrees>-49.2342476360499858856201171875</LatitudeDegrees>
              <LongitudeDegrees>-72.9501908831298351287841796875</LongitudeDegrees>
            </Position>
            <AltitudeMeters>474.600006103515625</AltitudeMeters>
            <DistanceMeters>15165.401728093</DistanceMeters>
          </Trackpoint>
          <Trackpoint>
            <Time>2023-01-11T20:03:49.000Z</Time>
            <Position>
              <LatitudeDegrees>-49.23427688889205455780029296875</LatitudeDegrees>
              <LongitudeDegrees>-72.95014134608209133148193359375</LongitudeDegrees>
            </Position>
            <AltitudeMeters>474.79998779296875</AltitudeMeters>
            <DistanceMeters>15170.25553788</DistanceMeters>
          </Trackpoint>
          <Trackpoint>
            <Time>2023-01-11T20:03:58.000Z</Time>
            <Position>
              <LatitudeDegrees>-49.23435685224831104278564453125</LatitudeDegrees>
              <LongitudeDegrees>-72.95004780404269695281982421875</LongitudeDegrees>
            </Position>
            <AltitudeMeters>475</AltitudeMeters>
            <DistanceMeters>15181.454991518</DistanceMeters>
          </Trackpoint>
          <Trackpoint>
            <Time>2023-01-11T20:04:07.000Z</Time>
            <Position>
              <LatitudeDegrees>-49.23443497158586978912353515625</LatitudeDegrees>
              <LongitudeDegrees>-72.949961721897125244140625</LongitudeDegrees>
            </Position>
            <AltitudeMeters>475</AltitudeMeters>
            <DistanceMeters>15192.167330733</DistanceMeters>
          </Trackpoint>
          <Trackpoint>
            <Time>2023-01-11T20:04:12.000Z</Time>
            <Position>
              <LatitudeDegrees>-49.23445961438119411468505859375</LatitudeDegrees>
              <LongitudeDegrees>-72.94989131391048431396484375</LongitudeDegrees>
            </Position>
            <AltitudeMeters>475</AltitudeMeters>
            <DistanceMeters>15197.973299676</DistanceMeters>
          </Trackpoint>
          <Trackpoint>
            <Time>2023-01-11T20:04:18.000Z</Time>
            <Position>
              <LatitudeDegrees>-49.2344863526523113250732421875</LatitudeDegrees>
              <LongitudeDegrees>-72.949804477393627166748046875</LongitudeDegrees>
            </Position>
            <AltitudeMeters>475</AltitudeMeters>
            <DistanceMeters>15204.951134024</DistanceMeters>
          </Trackpoint>
          <Trackpoint>
            <Time>2023-01-11T20:04:27.000Z</Time>
            <Position>
              <LatitudeDegrees>-49.23456304706633090972900390625</LatitudeDegrees>
              <LongitudeDegrees>-72.94971453957259654998779296875</LongitudeDegrees>
            </Position>
            <AltitudeMeters>475</AltitudeMeters>
            <DistanceMeters>15215.702179484</DistanceMeters>
          </Trackpoint>
          <Trackpoint>
            <Time>2023-01-11T20:04:38.000Z</Time>
            <Position>
              <LatitudeDegrees>-49.23463110812008380889892578125</LatitudeDegrees>
              <LongitudeDegrees>-72.9495417885482311248779296875</LongitudeDegrees>
            </Position>
            <AltitudeMeters>475</AltitudeMeters>
            <DistanceMeters>15230.365266475</DistanceMeters>
          </Trackpoint>
          <Trackpoint>
            <Time>2023-01-11T20:04:47.000Z</Time>
            <Position>
              <LatitudeDegrees>-49.2346915416419506072998046875</LatitudeDegrees>
              <LongitudeDegrees>-72.94941228814423084259033203125</LongitudeDegrees>
            </Position>
            <AltitudeMeters>475</AltitudeMeters>
            <DistanceMeters>15241.933183437</DistanceMeters>
          </Trackpoint>
          <Trackpoint>
            <Time>2023-01-11T20:04:54.000Z</Time>
            <Position>
              <LatitudeDegrees>-49.23470579087734222412109375</LatitudeDegrees>
              <LongitudeDegrees>-72.94931489042937755584716796875</LongitudeDegrees>
            </Position>
            <AltitudeMeters>475</AltitudeMeters>
            <DistanceMeters>15249.18702762</DistanceMeters>
          </Trackpoint>
          <Trackpoint>
            <Time>2023-01-11T20:04:55.000Z</Time>
            <Position>
              <LatitudeDegrees>-49.234698079526424407958984375</LatitudeDegrees>
              <LongitudeDegrees>-72.9492997191846370697021484375</LongitudeDegrees>
            </Position>
            <AltitudeMeters>475</AltitudeMeters>
            <DistanceMeters>15250.583629393</DistanceMeters>
          </Trackpoint>
          <Trackpoint>
            <Time>2023-01-11T20:04:56.000Z</Time>
            <Position>
              <LatitudeDegrees>-49.2346898652613162994384765625</LatitudeDegrees>
              <LongitudeDegrees>-72.949288152158260345458984375</LongitudeDegrees>
            </Position>
            <AltitudeMeters>475</AltitudeMeters>
            <DistanceMeters>15251.829893068</DistanceMeters>
          </Trackpoint>
          <Trackpoint>
            <Time>2023-01-11T20:05:02.000Z</Time>
            <Position>
              <LatitudeDegrees>-49.23461987636983394622802734375</LatitudeDegrees>
              <LongitudeDegrees>-72.9492549598217010498046875</LongitudeDegrees>
            </Position>
            <AltitudeMeters>475</AltitudeMeters>
            <DistanceMeters>15259.984491951</DistanceMeters>
          </Trackpoint>
          <Trackpoint>
            <Time>2023-01-11T20:05:10.000Z</Time>
            <Position>
              <LatitudeDegrees>-49.2345215566456317901611328125</LatitudeDegrees>
              <LongitudeDegrees>-72.94921497814357280731201171875</LongitudeDegrees>
            </Position>
            <AltitudeMeters>475</AltitudeMeters>
            <DistanceMeters>15271.307035626</DistanceMeters>
          </Trackpoint>
          <Trackpoint>
            <Time>2023-01-11T20:05:20.000Z</Time>
            <Position>
              <LatitudeDegrees>-49.2344125919044017791748046875</LatitudeDegrees>
              <LongitudeDegrees>-72.949115820229053497314453125</LongitudeDegrees>
            </Position>
            <AltitudeMeters>475</AltitudeMeters>
            <DistanceMeters>15285.414582713</DistanceMeters>
          </Trackpoint>
          <Trackpoint>
            <Time>2023-01-11T20:05:31.000Z</Time>
            <Position>
              <LatitudeDegrees>-49.234289713203907012939453125</LatitudeDegrees>
              <LongitudeDegrees>-72.94903744943439960479736328125</LongitudeDegrees>
            </Position>
            <AltitudeMeters>475</AltitudeMeters>
            <DistanceMeters>15300.229610153</DistanceMeters>
          </Trackpoint>
          <Trackpoint>
            <Time>2023-01-11T20:05:39.000Z</Time>
            <Position>
              <LatitudeDegrees>-49.23425761051476001739501953125</LatitudeDegrees>
              <LongitudeDegrees>-72.94894675724208354949951171875</LongitudeDegrees>
            </Position>
            <AltitudeMeters>475</AltitudeMeters>
            <DistanceMeters>15307.726489223</DistanceMeters>
          </Trackpoint>
          <Trackpoint>
            <Time>2023-01-11T20:05:46.000Z</Time>
            <Position>
              <LatitudeDegrees>-49.23424855805933475494384765625</LatitudeDegrees>
              <LongitudeDegrees>-72.94895245693624019622802734375</LongitudeDegrees>
            </Position>
            <AltitudeMeters>475</AltitudeMeters>
            <DistanceMeters>15308.818263051</DistanceMeters>
          </Trackpoint>
          <Trackpoint>
            <Time>2023-01-11T20:05:52.000Z</Time>
            <Position>
              <LatitudeDegrees>-49.23422508873045444488525390625</LatitudeDegrees>
              <LongitudeDegrees>-72.948939464986324310302734375</LongitudeDegrees>
            </Position>
            <AltitudeMeters>475</AltitudeMeters>
            <DistanceMeters>15311.596880577</DistanceMeters>
          </Trackpoint>
          <Trackpoint>
            <Time>2023-01-11T20:06:02.000Z</Time>
            <Position>
              <LatitudeDegrees>-49.2342295311391353607177734375</LatitudeDegrees>
              <LongitudeDegrees>-72.94892529956996440887451171875</LongitudeDegrees>
            </Position>
            <AltitudeMeters>475</AltitudeMeters>
            <DistanceMeters>15312.741153746</DistanceMeters>
          </Trackpoint>
          <Trackpoint>
            <Time>2023-01-11T20:06:03.000Z</Time>
            <Position>
              <LatitudeDegrees>-49.23422995023429393768310546875</LatitudeDegrees>
              <LongitudeDegrees>-72.94889219105243682861328125</LongitudeDegrees>
            </Position>
            <AltitudeMeters>475</AltitudeMeters>
            <DistanceMeters>15315.148913924</DistanceMeters>
          </Trackpoint>
          <Trackpoint>
            <Time>2023-01-11T20:06:08.000Z</Time>
            <Position>
              <LatitudeDegrees>-49.2342318780720233917236328125</LatitudeDegrees>
              <LongitudeDegrees>-72.94875782914459705352783203125</LongitudeDegrees>
            </Position>
            <AltitudeMeters>475</AltitudeMeters>
            <DistanceMeters>15324.915885182</DistanceMeters>
          </Trackpoint>
          <Trackpoint>
            <Time>2023-01-11T20:06:10.000Z</Time>
            <Position>
              <LatitudeDegrees>-49.23421360552310943603515625</LatitudeDegrees>
              <LongitudeDegrees>-72.94871927239000797271728515625</LongitudeDegrees>
            </Position>
            <AltitudeMeters>475</AltitudeMeters>
            <DistanceMeters>15328.376214844</DistanceMeters>
          </Trackpoint>
          <Trackpoint>
            <Time>2023-01-11T20:06:22.000Z</Time>
            <Position>
              <LatitudeDegrees>-49.234067760407924652099609375</LatitudeDegrees>
              <LongitudeDegrees>-72.94866495765745639801025390625</LongitudeDegrees>
            </Position>
            <AltitudeMeters>475</AltitudeMeters>
            <DistanceMeters>15345.082008527</DistanceMeters>
          </Trackpoint>
          <Trackpoint>
            <Time>2023-01-11T20:06:30.000Z</Time>
            <Position>
              <LatitudeDegrees>-49.2339623160660266876220703125</LatitudeDegrees>
              <LongitudeDegrees>-72.94867836870253086090087890625</LongitudeDegrees>
            </Position>
            <AltitudeMeters>475</AltitudeMeters>
            <DistanceMeters>15356.858421989</DistanceMeters>
          </Trackpoint>
          <Trackpoint>
            <Time>2023-01-11T20:06:40.000Z</Time>
            <Position>
              <LatitudeDegrees>-49.23385041765868663787841796875</LatitudeDegrees>
              <LongitudeDegrees>-72.94871860183775424957275390625</LongitudeDegrees>
            </Position>
            <AltitudeMeters>475</AltitudeMeters>
            <DistanceMeters>15369.651432012</DistanceMeters>
          </Trackpoint>
          <Trackpoint>
            <Time>2023-01-11T20:06:51.000Z</Time>
            <Position>
              <LatitudeDegrees>-49.23372670076787471771240234375</LatitudeDegrees>
              <LongitudeDegrees>-72.9486720822751522064208984375</LongitudeDegrees>
            </Position>
            <AltitudeMeters>475</AltitudeMeters>
            <DistanceMeters>15383.830487762</DistanceMeters>
          </Trackpoint>
          <Trackpoint>
            <Time>2023-01-11T20:07:00.000Z</Time>
            <Position>
              <LatitudeDegrees>-49.23361589200794696807861328125</LatitudeDegrees>
              <LongitudeDegrees>-72.94870971702039241790771484375</LongitudeDegrees>
            </Position>
            <AltitudeMeters>475</AltitudeMeters>
            <DistanceMeters>15396.463680987</DistanceMeters>
          </Trackpoint>
          <Trackpoint>
            <Time>2023-01-11T20:07:10.000Z</Time>
            <Position>
              <LatitudeDegrees>-49.233514554798603057861328125</LatitudeDegrees>
              <LongitudeDegrees>-72.948778532445430755615234375</LongitudeDegrees>
            </Position>
            <AltitudeMeters>475</AltitudeMeters>
            <DistanceMeters>15408.801793837</DistanceMeters>
          </Trackpoint>
          <Trackpoint>
            <Time>2023-01-11T20:07:13.000Z</Time>
            <Position>
              <LatitudeDegrees>-49.2334798537194728851318359375</LatitudeDegrees>
              <LongitudeDegrees>-72.94878833927214145660400390625</LongitudeDegrees>
            </Position>
            <AltitudeMeters>475</AltitudeMeters>
            <DistanceMeters>15412.729053768</DistanceMeters>
          </Trackpoint>
          <Trackpoint>
            <Time>2023-01-11T20:07:17.000Z</Time>
            <Position>
              <LatitudeDegrees>-49.23342277295887470245361328125</LatitudeDegrees>
              <LongitudeDegrees>-72.9487981460988521575927734375</LongitudeDegrees>
            </Position>
            <AltitudeMeters>475</AltitudeMeters>
            <DistanceMeters>15419.122028505</DistanceMeters>
          </Trackpoint>
          <Trackpoint>
            <Time>2023-01-11T20:07:19.000Z</Time>
            <Position>
              <LatitudeDegrees>-49.23339528031647205352783203125</LatitudeDegrees>
              <LongitudeDegrees>-72.94879822991788387298583984375</LongitudeDegrees>
            </Position>
            <AltitudeMeters>475</AltitudeMeters>
            <DistanceMeters>15422.180648978</DistanceMeters>
          </Trackpoint>
          <Trackpoint>
            <Time>2023-01-11T20:07:21.000Z</Time>
            <Position>
              <LatitudeDegrees>-49.23337231390178203582763671875</LatitudeDegrees>
              <LongitudeDegrees>-72.94879605062305927276611328125</LongitudeDegrees>
            </Position>
            <AltitudeMeters>475</AltitudeMeters>
            <DistanceMeters>15424.741085561</DistanceMeters>
          </Trackpoint>
          <Trackpoint>
            <Time>2023-01-11T20:07:27.000Z</Time>
            <Position>
              <LatitudeDegrees>-49.23329972662031650543212890625</LatitudeDegrees>
              <LongitudeDegrees>-72.9487780295312404632568359375</LongitudeDegrees>
            </Position>
            <AltitudeMeters>475</AltitudeMeters>
            <DistanceMeters>15432.925528551</DistanceMeters>
          </Trackpoint>
          <Trackpoint>
            <Time>2023-01-11T20:07:28.000Z</Time>
            <Position>
              <LatitudeDegrees>-49.23328648321330547332763671875</LatitudeDegrees>
              <LongitudeDegrees>-72.9487713240087032318115234375</LongitudeDegrees>
            </Position>
            <AltitudeMeters>475</AltitudeMeters>
            <DistanceMeters>15434.478277858</DistanceMeters>
          </Trackpoint>
          <Trackpoint>
            <Time>2023-01-11T20:07:31.000Z</Time>
            <Position>
              <LatitudeDegrees>-49.2332522012293338775634765625</LatitudeDegrees>
              <LongitudeDegrees>-72.9487480223178863525390625</LongitudeDegrees>
            </Position>
            <AltitudeMeters>475</AltitudeMeters>
            <DistanceMeters>15438.652969169</DistanceMeters>
          </Trackpoint>
          <Trackpoint>
            <Time>2023-01-11T20:07:42.000Z</Time>
            <Position>
              <LatitudeDegrees>-49.23311146907508373260498046875</LatitudeDegrees>
              <LongitudeDegrees>-72.9487051069736480712890625</LongitudeDegrees>
            </Position>
            <AltitudeMeters>475</AltitudeMeters>
            <DistanceMeters>15454.624243363</DistanceMeters>
          </Trackpoint>
          <Trackpoint>
            <Time>2023-01-11T20:07:49.000Z</Time>
            <Position>
              <LatitudeDegrees>-49.23303988762199878692626953125</LatitudeDegrees>
              <LongitudeDegrees>-72.9487046040594577789306640625</LongitudeDegrees>
            </Position>
            <AltitudeMeters>475</AltitudeMeters>
            <DistanceMeters>15462.591200582</DistanceMeters>
          </Trackpoint>
          <Trackpoint>
            <Time>2023-01-11T20:07:50.000Z</Time>
            <Position>
              <LatitudeDegrees>-49.23303016461431980133056640625</LatitudeDegrees>
              <LongitudeDegrees>-72.9487015865743160247802734375</LongitudeDegrees>
            </Position>
            <AltitudeMeters>475</AltitudeMeters>
            <DistanceMeters>15463.691214329</DistanceMeters>
          </Trackpoint>
          <Trackpoint>
            <Time>2023-01-11T20:07:51.000Z</Time>
            <Position>
              <LatitudeDegrees>-49.23301943577826023101806640625</LatitudeDegrees>
              <LongitudeDegrees>-72.9486989043653011322021484375</LongitudeDegrees>
            </Position>
            <AltitudeMeters>475</AltitudeMeters>
            <DistanceMeters>15464.900706943</DistanceMeters>
          </Trackpoint>
          <Trackpoint>
            <Time>2023-01-11T20:07:53.000Z</Time>
            <Position>
              <LatitudeDegrees>-49.23299848102033138275146484375</LatitudeDegrees>
              <LongitudeDegrees>-72.9486955516040325164794921875</LongitudeDegrees>
            </Position>
            <AltitudeMeters>475</AltitudeMeters>
            <DistanceMeters>15467.247693656</DistanceMeters>
          </Trackpoint>
          <Trackpoint>
            <Time>2023-01-11T20:08:00.000Z</Time>
            <Position>
              <LatitudeDegrees>-49.23290778882801532745361328125</LatitudeDegrees>
              <LongitudeDegrees>-72.9487399756908416748046875</LongitudeDegrees>
            </Position>
            <AltitudeMeters>475</AltitudeMeters>
            <DistanceMeters>15477.845622265</DistanceMeters>
          </Trackpoint>
          <Trackpoint>
            <Time>2023-01-11T20:08:06.000Z</Time>
            <Position>
              <LatitudeDegrees>-49.2328300885856151580810546875</LatitudeDegrees>
              <LongitudeDegrees>-72.94874357990920543670654296875</LongitudeDegrees>
            </Position>
            <AltitudeMeters>470.79998779296875</AltitudeMeters>
            <DistanceMeters>15486.49775112</DistanceMeters>
          </Trackpoint>
          <Trackpoint>
            <Time>2023-01-11T20:08:11.000Z</Time>
            <Position>
              <LatitudeDegrees>-49.2327700741589069366455078125</LatitudeDegrees>
              <LongitudeDegrees>-72.94872111640870571136474609375</LongitudeDegrees>
            </Position>
            <AltitudeMeters>471</AltitudeMeters>
            <DistanceMeters>15493.373904133</DistanceMeters>
          </Trackpoint>
          <Trackpoint>
            <Time>2023-01-11T20:08:21.000Z</Time>
            <Position>
              <LatitudeDegrees>-49.23266856931149959564208984375</LatitudeDegrees>
              <LongitudeDegrees>-72.9486244730651378631591796875</LongitudeDegrees>
            </Position>
            <AltitudeMeters>470.79998779296875</AltitudeMeters>
            <DistanceMeters>15506.676965366</DistanceMeters>
          </Trackpoint>
          <Trackpoint>
            <Time>2023-01-11T20:08:28.000Z</Time>
            <Position>
              <LatitudeDegrees>-49.2326051183044910430908203125</LatitudeDegrees>
              <LongitudeDegrees>-72.94856001622974872589111328125</LongitudeDegrees>
            </Position>
            <AltitudeMeters>470.79998779296875</AltitudeMeters>
            <DistanceMeters>15515.151941946</DistanceMeters>
          </Trackpoint>
          <Trackpoint>
            <Time>2023-01-11T20:08:30.000Z</Time>
            <Position>
              <LatitudeDegrees>-49.232581816613674163818359375</LatitudeDegrees>
              <LongitudeDegrees>-72.9485373012721538543701171875</LongitudeDegrees>
            </Position>
            <AltitudeMeters>470.79998779296875</AltitudeMeters>
            <DistanceMeters>15518.226757393</DistanceMeters>
          </Trackpoint>
          <Trackpoint>
            <Time>2023-01-11T20:08:34.000Z</Time>
            <Position>
              <LatitudeDegrees>-49.23253311775624752044677734375</LatitudeDegrees>
              <LongitudeDegrees>-72.94848592020571231842041015625</LongitudeDegrees>
            </Position>
            <AltitudeMeters>470.600006103515625</AltitudeMeters>
            <DistanceMeters>15524.809029553</DistanceMeters>
          </Trackpoint>
          <Trackpoint>
            <Time>2023-01-11T20:08:38.000Z</Time>
            <Position>
              <LatitudeDegrees>-49.232487939298152923583984375</LatitudeDegrees>
              <LongitudeDegrees>-72.94845071621239185333251953125</LongitudeDegrees>
            </Position>
            <AltitudeMeters>470.79998779296875</AltitudeMeters>
            <DistanceMeters>15530.451728334</DistanceMeters>
          </Trackpoint>
          <Trackpoint>
            <Time>2023-01-11T20:08:46.000Z</Time>
            <Position>
              <LatitudeDegrees>-49.23238911665976047515869140625</LatitudeDegrees>
              <LongitudeDegrees>-72.94841182418167591094970703125</LongitudeDegrees>
            </Position>
            <AltitudeMeters>470.399993896484375</AltitudeMeters>
            <DistanceMeters>15541.808514053</DistanceMeters>
          </Trackpoint>
          <Trackpoint>
            <Time>2023-01-11T20:08:52.000Z</Time>
            <Position>
              <LatitudeDegrees>-49.2323167808353900909423828125</LatitudeDegrees>
              <LongitudeDegrees>-72.94836086221039295196533203125</LongitudeDegrees>
            </Position>
            <AltitudeMeters>470.399993896484375</AltitudeMeters>
            <DistanceMeters>15550.670997052</DistanceMeters>
          </Trackpoint>
          <Trackpoint>
            <Time>2023-01-11T20:08:54.000Z</Time>
            <Position>
              <LatitudeDegrees>-49.23229540698230266571044921875</LatitudeDegrees>
              <LongitudeDegrees>-72.94834476895630359649658203125</LongitudeDegrees>
            </Position>
            <AltitudeMeters>470.399993896484375</AltitudeMeters>
            <DistanceMeters>15553.321544066</DistanceMeters>
          </Trackpoint>
          <Trackpoint>
            <Time>2023-01-11T20:09:01.000Z</Time>
            <Position>
              <LatitudeDegrees>-49.23223690129816532135009765625</LatitudeDegrees>
              <LongitudeDegrees>-72.948232702910900115966796875</LongitudeDegrees>
            </Position>
            <AltitudeMeters>470.20001220703125</AltitudeMeters>
            <DistanceMeters>15563.749833025</DistanceMeters>
          </Trackpoint>
          <Trackpoint>
            <Time>2023-01-11T20:09:06.000Z</Time>
            <Position>
              <LatitudeDegrees>-49.23221125267446041107177734375</LatitudeDegrees>
              <LongitudeDegrees>-72.94813991524279117584228515625</LongitudeDegrees>
            </Position>
            <AltitudeMeters>470.399993896484375</AltitudeMeters>
            <DistanceMeters>15571.073057998</DistanceMeters>
          </Trackpoint>
          <Trackpoint>
            <Time>2023-01-11T20:09:09.000Z</Time>
            <Position>
              <LatitudeDegrees>-49.23221829347312450408935546875</LatitudeDegrees>
              <LongitudeDegrees>-72.94809079729020595550537109375</LongitudeDegrees>
            </Position>
            <AltitudeMeters>469.79998779296875</AltitudeMeters>
            <DistanceMeters>15574.728808692</DistanceMeters>
          </Trackpoint>
          <Trackpoint>
            <Time>2023-01-11T20:09:11.000Z</Time>
            <Position>
              <LatitudeDegrees>-49.23222349025309085845947265625</LatitudeDegrees>
              <LongitudeDegrees>-72.9480464570224285125732421875</LongitudeDegrees>
            </Position>
            <AltitudeMeters>469.79998779296875</AltitudeMeters>
            <DistanceMeters>15578.002751382</DistanceMeters>
          </Trackpoint>
          <Trackpoint>
            <Time>2023-01-11T20:09:18.000Z</Time>
            <Position>
              <LatitudeDegrees>-49.23223019577562808990478515625</LatitudeDegrees>
              <LongitudeDegrees>-72.94792047701776027679443359375</LongitudeDegrees>
            </Position>
            <AltitudeMeters>469.600006103515625</AltitudeMeters>
            <DistanceMeters>15587.189431655</DistanceMeters>
          </Trackpoint>
          <Trackpoint>
            <Time>2023-01-11T20:09:27.000Z</Time>
            <Position>
              <LatitudeDegrees>-49.23219147138297557830810546875</LatitudeDegrees>
              <LongitudeDegrees>-72.94777429662644863128662109375</LongitudeDegrees>
            </Position>
            <AltitudeMeters>469.79998779296875</AltitudeMeters>
            <DistanceMeters>15598.655025965</DistanceMeters>
          </Trackpoint>
          <Trackpoint>
            <Time>2023-01-11T20:09:28.000Z</Time>
            <Position>
              <LatitudeDegrees>-49.232181496918201446533203125</LatitudeDegrees>
              <LongitudeDegrees>-72.94777278788387775421142578125</LongitudeDegrees>
            </Position>
            <AltitudeMeters>469.79998779296875</AltitudeMeters>
            <DistanceMeters>15599.771337099</DistanceMeters>
          </Trackpoint>
          <Trackpoint>
            <Time>2023-01-11T20:09:34.000Z</Time>
            <Position>
              <LatitudeDegrees>-49.2321087419986724853515625</LatitudeDegrees>
              <LongitudeDegrees>-72.947741858661174774169921875</LongitudeDegrees>
            </Position>
            <AltitudeMeters>469.20001220703125</AltitudeMeters>
            <DistanceMeters>15608.17462204</DistanceMeters>
          </Trackpoint>
          <Trackpoint>
            <Time>2023-01-11T20:09:43.000Z</Time>
            <Position>
              <LatitudeDegrees>-49.23201327212154865264892578125</LatitudeDegrees>
              <LongitudeDegrees>-72.94770925305783748626708984375</LongitudeDegrees>
            </Position>
            <AltitudeMeters>469</AltitudeMeters>
            <DistanceMeters>15619.061714554</DistanceMeters>
          </Trackpoint>
          <Trackpoint>
            <Time>2023-01-11T20:09:54.000Z</Time>
            <Position>
              <LatitudeDegrees>-49.2318856157362461090087890625</LatitudeDegrees>
              <LongitudeDegrees>-72.94770003296434879302978515625</LongitudeDegrees>
            </Position>
            <AltitudeMeters>468.600006103515625</AltitudeMeters>
            <DistanceMeters>15633.285915508</DistanceMeters>
          </Trackpoint>
          <Trackpoint>
            <Time>2023-01-11T20:10:05.000Z</Time>
            <Position>
              <LatitudeDegrees>-49.2317582108080387115478515625</LatitudeDegrees>
              <LongitudeDegrees>-72.9476491548120975494384765625</LongitudeDegrees>
            </Position>
            <AltitudeMeters>468.600006103515625</AltitudeMeters>
            <DistanceMeters>15647.940378241</DistanceMeters>
          </Trackpoint>
          <Trackpoint>
            <Time>2023-01-11T20:10:11.000Z</Time>
            <Position>
              <LatitudeDegrees>-49.23168654553592205047607421875</LatitudeDegrees>
              <LongitudeDegrees>-72.94763733632862567901611328125</LongitudeDegrees>
            </Position>
            <AltitudeMeters>469</AltitudeMeters>
            <DistanceMeters>15655.963244618</DistanceMeters>
          </Trackpoint>
          <Trackpoint>
            <Time>2023-01-11T20:10:13.000Z</Time>
            <Position>
              <LatitudeDegrees>-49.2316596396267414093017578125</LatitudeDegrees>
              <LongitudeDegrees>-72.94763750396668910980224609375</LongitudeDegrees>
            </Position>
            <AltitudeMeters>468.79998779296875</AltitudeMeters>
            <DistanceMeters>15658.957717177</DistanceMeters>
          </Trackpoint>
          <Trackpoint>
            <Time>2023-01-11T20:10:17.000Z</Time>
            <Position>
              <LatitudeDegrees>-49.23159845173358917236328125</LatitudeDegrees>
              <LongitudeDegrees>-72.9476313851773738861083984375</LongitudeDegrees>
            </Position>
            <AltitudeMeters>468.79998779296875</AltitudeMeters>
            <DistanceMeters>15665.782461443</DistanceMeters>
          </Trackpoint>
          <Trackpoint>
            <Time>2023-01-11T20:10:21.000Z</Time>
            <Position>
              <LatitudeDegrees>-49.23155562020838260650634765625</LatitudeDegrees>
              <LongitudeDegrees>-72.9476146213710308074951171875</LongitudeDegrees>
            </Position>
            <AltitudeMeters>468.79998779296875</AltitudeMeters>
            <DistanceMeters>15670.703707731</DistanceMeters>
          </Trackpoint>
          <Trackpoint>
            <Time>2023-01-11T20:10:33.000Z</Time>
            <Position>
              <LatitudeDegrees>-49.23140466213226318359375</LatitudeDegrees>
              <LongitudeDegrees>-72.9475723765790462493896484375</LongitudeDegrees>
            </Position>
            <AltitudeMeters>468.399993896484375</AltitudeMeters>
            <DistanceMeters>15687.783950108</DistanceMeters>
          </Trackpoint>
          <Trackpoint>
            <Time>2023-01-11T20:10:42.000Z</Time>
            <Position>
              <LatitudeDegrees>-49.23129695467650890350341796875</LatitudeDegrees>
              <LongitudeDegrees>-72.947514541447162628173828125</LongitudeDegrees>
            </Position>
            <AltitudeMeters>468.399993896484375</AltitudeMeters>
            <DistanceMeters>15700.487710426</DistanceMeters>
          </Trackpoint>
          <Trackpoint>
            <Time>2023-01-11T20:10:46.000Z</Time>
            <Position>
              <LatitudeDegrees>-49.23125621862709522247314453125</LatitudeDegrees>
              <LongitudeDegrees>-72.9475019685924053192138671875</LongitudeDegrees>
            </Position>
            <AltitudeMeters>467.399993896484375</AltitudeMeters>
            <DistanceMeters>15705.113862301</DistanceMeters>
          </Trackpoint>
          <Trackpoint>
            <Time>2023-01-11T20:10:53.000Z</Time>
            <Position>
              <LatitudeDegrees>-49.23118597827851772308349609375</LatitudeDegrees>
              <LongitudeDegrees>-72.94742762111127376556396484375</LongitudeDegrees>
            </Position>
            <AltitudeMeters>467.20001220703125</AltitudeMeters>
            <DistanceMeters>15714.617483958</DistanceMeters>
          </Trackpoint>
          <Trackpoint>
            <Time>2023-01-11T20:10:58.000Z</Time>
            <Position>
              <LatitudeDegrees>-49.23118530772626399993896484375</LatitudeDegrees>
              <LongitudeDegrees>-72.94742141850292682647705078125</LongitudeDegrees>
            </Position>
            <AltitudeMeters>467.20001220703125</AltitudeMeters>
            <DistanceMeters>15715.083017882</DistanceMeters>
          </Trackpoint>
          <Trackpoint>
            <Time>2023-01-11T20:11:02.000Z</Time>
            <Position>
              <LatitudeDegrees>-49.23119352199137210845947265625</LatitudeDegrees>
              <LongitudeDegrees>-72.94741027057170867919921875</LongitudeDegrees>
            </Position>
            <AltitudeMeters>467.79998779296875</AltitudeMeters>
            <DistanceMeters>15716.303658129</DistanceMeters>
          </Trackpoint>
          <Trackpoint>
            <Time>2023-01-11T20:11:03.000Z</Time>
            <Position>
              <LatitudeDegrees>-49.23119000159204006195068359375</LatitudeDegrees>
              <LongitudeDegrees>-72.94740817509591579437255859375</LongitudeDegrees>
            </Position>
            <AltitudeMeters>467.79998779296875</AltitudeMeters>
            <DistanceMeters>15716.728630515</DistanceMeters>
          </Trackpoint>
          <Trackpoint>
            <Time>2023-01-11T20:11:04.000Z</Time>
            <Position>
              <LatitudeDegrees>-49.2311828769743442535400390625</LatitudeDegrees>
              <LongitudeDegrees>-72.94740021228790283203125</LongitudeDegrees>
            </Position>
            <AltitudeMeters>467.79998779296875</AltitudeMeters>
            <DistanceMeters>15717.711594492</DistanceMeters>
          </Trackpoint>
          <Trackpoint>
            <Time>2023-01-11T20:11:11.000Z</Time>
            <Position>
              <LatitudeDegrees>-49.23111573792994022369384765625</LatitudeDegrees>
              <LongitudeDegrees>-72.9473336599767208099365234375</LongitudeDegrees>
            </Position>
            <AltitudeMeters>467.600006103515625</AltitudeMeters>
            <DistanceMeters>15726.612711878</DistanceMeters>
          </Trackpoint>
          <Trackpoint>
            <Time>2023-01-11T20:11:14.000Z</Time>
            <Position>
              <LatitudeDegrees>-49.23108556307852268218994140625</LatitudeDegrees>
              <LongitudeDegrees>-72.94730574823915958404541015625</LongitudeDegrees>
            </Position>
            <AltitudeMeters>467</AltitudeMeters>
            <DistanceMeters>15730.536521294</DistanceMeters>
          </Trackpoint>
          <Trackpoint>
            <Time>2023-01-11T20:11:15.000Z</Time>
            <Position>
              <LatitudeDegrees>-49.2310755886137485504150390625</LatitudeDegrees>
              <LongitudeDegrees>-72.9473001323640346527099609375</LongitudeDegrees>
            </Position>
            <AltitudeMeters>467</AltitudeMeters>
            <DistanceMeters>15731.715771807</DistanceMeters>
          </Trackpoint>
          <Trackpoint>
            <Time>2023-01-11T20:11:20.000Z</Time>
            <Position>
              <LatitudeDegrees>-49.2310251295566558837890625</LatitudeDegrees>
              <LongitudeDegrees>-72.94728462584316730499267578125</LongitudeDegrees>
            </Position>
            <AltitudeMeters>468</AltitudeMeters>
            <DistanceMeters>15737.444235633</DistanceMeters>
          </Trackpoint>
          <Trackpoint>
            <Time>2023-01-11T20:11:30.000Z</Time>
            <Position>
              <LatitudeDegrees>-49.23090266995131969451904296875</LatitudeDegrees>
              <LongitudeDegrees>-72.9473011381924152374267578125</LongitudeDegrees>
            </Position>
            <AltitudeMeters>466.600006103515625</AltitudeMeters>
            <DistanceMeters>15751.126762623</DistanceMeters>
          </Trackpoint>
          <Trackpoint>
            <Time>2023-01-11T20:11:31.000Z</Time>
            <Position>
              <LatitudeDegrees>-49.23088959418237209320068359375</LatitudeDegrees>
              <LongitudeDegrees>-72.94729988090693950653076171875</LongitudeDegrees>
            </Position>
            <AltitudeMeters>466.399993896484375</AltitudeMeters>
            <DistanceMeters>15752.586590709</DistanceMeters>
          </Trackpoint>
          <Trackpoint>
            <Time>2023-01-11T20:11:33.000Z</Time>
            <Position>
              <LatitudeDegrees>-49.23086545430123805999755859375</LatitudeDegrees>
              <LongitudeDegrees>-72.947297953069210052490234375</LongitudeDegrees>
            </Position>
            <AltitudeMeters>465.20001220703125</AltitudeMeters>
            <DistanceMeters>15755.277709678</DistanceMeters>
          </Trackpoint>
          <Trackpoint>
            <Time>2023-01-11T20:11:39.000Z</Time>
            <Position>
              <LatitudeDegrees>-49.230798147618770599365234375</LatitudeDegrees>
              <LongitudeDegrees>-72.94722042046487331390380859375</LongitudeDegrees>
            </Position>
            <AltitudeMeters>465.79998779296875</AltitudeMeters>
            <DistanceMeters>15764.651698897</DistanceMeters>
          </Trackpoint>
          <Trackpoint>
            <Time>2023-01-11T20:11:40.000Z</Time>
            <Position>
              <LatitudeDegrees>-49.23079035244882106781005859375</LatitudeDegrees>
              <LongitudeDegrees>-72.9472092725336551666259765625</LongitudeDegrees>
            </Position>
            <AltitudeMeters>466</AltitudeMeters>
            <DistanceMeters>15765.838582179</DistanceMeters>
          </Trackpoint>
          <Trackpoint>
            <Time>2023-01-11T20:11:43.000Z</Time>
            <Position>
              <LatitudeDegrees>-49.23075892031192779541015625</LatitudeDegrees>
              <LongitudeDegrees>-72.94717951677739620208740234375</LongitudeDegrees>
            </Position>
            <AltitudeMeters>466.399993896484375</AltitudeMeters>
            <DistanceMeters>15769.952262193</DistanceMeters>
          </Trackpoint>
          <Trackpoint>
            <Time>2023-01-11T20:11:46.000Z</Time>
            <Position>
              <LatitudeDegrees>-49.2307218722999095916748046875</LatitudeDegrees>
              <LongitudeDegrees>-72.9471717216074466705322265625</LongitudeDegrees>
            </Position>
            <AltitudeMeters>466</AltitudeMeters>
            <DistanceMeters>15774.113954952</DistanceMeters>
          </Trackpoint>
          <Trackpoint>
            <Time>2023-01-11T20:11:54.000Z</Time>
            <Position>
              <LatitudeDegrees>-49.23063176684081554412841796875</LatitudeDegrees>
              <LongitudeDegrees>-72.94715235941112041473388671875</LongitudeDegrees>
            </Position>
            <AltitudeMeters>466</AltitudeMeters>
            <DistanceMeters>15784.241324218</DistanceMeters>
          </Trackpoint>
          <Trackpoint>
            <Time>2023-01-11T20:11:58.000Z</Time>
            <Position>
              <LatitudeDegrees>-49.23058885149657726287841796875</LatitudeDegrees>
              <LongitudeDegrees>-72.9471708834171295166015625</LongitudeDegrees>
            </Position>
            <AltitudeMeters>465.600006103515625</AltitudeMeters>
            <DistanceMeters>15789.204594162</DistanceMeters>
          </Trackpoint>
          <Trackpoint>
            <Time>2023-01-11T20:11:59.000Z</Time>
            <Position>
              <LatitudeDegrees>-49.23057493753731250762939453125</LatitudeDegrees>
              <LongitudeDegrees>-72.9471697099506855010986328125</LongitudeDegrees>
            </Position>
            <AltitudeMeters>465.20001220703125</AltitudeMeters>
            <DistanceMeters>15790.754432971</DistanceMeters>
          </Trackpoint>
          <Trackpoint>
            <Time>2023-01-11T20:12:00.000Z</Time>
            <Position>
              <LatitudeDegrees>-49.2305626161396503448486328125</LatitudeDegrees>
              <LongitudeDegrees>-72.9471710510551929473876953125</LongitudeDegrees>
            </Position>
            <AltitudeMeters>465</AltitudeMeters>
            <DistanceMeters>15792.128218245</DistanceMeters>
          </Trackpoint>
          <Trackpoint>
            <Time>2023-01-11T20:12:06.000Z</Time>
            <Position>
              <LatitudeDegrees>-49.23048139549791812896728515625</LatitudeDegrees>
              <LongitudeDegrees>-72.94717398472130298614501953125</LongitudeDegrees>
            </Position>
            <AltitudeMeters>464.600006103515625</AltitudeMeters>
            <DistanceMeters>15801.170248554</DistanceMeters>
          </Trackpoint>
          <Trackpoint>
            <Time>2023-01-11T20:12:08.000Z</Time>
            <Position>
              <LatitudeDegrees>-49.2304573394358158111572265625</LatitudeDegrees>
              <LongitudeDegrees>-72.94716912321746349334716796875</LongitudeDegrees>
            </Position>
            <AltitudeMeters>464.79998779296875</AltitudeMeters>
            <DistanceMeters>15803.869743265</DistanceMeters>
          </Trackpoint>
          <Trackpoint>
            <Time>2023-01-11T20:12:16.000Z</Time>
            <Position>
              <LatitudeDegrees>-49.230373017489910125732421875</LatitudeDegrees>
              <LongitudeDegrees>-72.94712319038808345794677734375</LongitudeDegrees>
            </Position>
            <AltitudeMeters>464.399993896484375</AltitudeMeters>
            <DistanceMeters>15813.83124466</DistanceMeters>
          </Trackpoint>
          <Trackpoint>
            <Time>2023-01-11T20:12:17.000Z</Time>
            <Position>
              <LatitudeDegrees>-49.23036220483481884002685546875</LatitudeDegrees>
              <LongitudeDegrees>-72.94712486676871776580810546875</LongitudeDegrees>
            </Position>
            <AltitudeMeters>464.399993896484375</AltitudeMeters>
            <DistanceMeters>15815.040737274</DistanceMeters>
          </Trackpoint>
          <Trackpoint>
            <Time>2023-01-11T20:12:26.000Z</Time>
            <Position>
              <LatitudeDegrees>-49.230259358882904052734375</LatitudeDegrees>
              <LongitudeDegrees>-72.94713475741446018218994140625</LongitudeDegrees>
            </Position>
            <AltitudeMeters>464.399993896484375</AltitudeMeters>
            <DistanceMeters>15826.510662457</DistanceMeters>
          </Trackpoint>
          <Trackpoint>
            <Time>2023-01-11T20:12:33.000Z</Time>
            <Position>
              <LatitudeDegrees>-49.23023547045886516571044921875</LatitudeDegrees>
              <LongitudeDegrees>-72.9471187479794025421142578125</LongitudeDegrees>
            </Position>
            <AltitudeMeters>464.399993896484375</AltitudeMeters>
            <DistanceMeters>15829.414813176</DistanceMeters>
          </Trackpoint>
          <Trackpoint>
            <Time>2023-01-11T20:12:34.000Z</Time>
            <Position>
              <LatitudeDegrees>-49.230248965322971343994140625</LatitudeDegrees>
              <LongitudeDegrees>-72.9471143893897533416748046875</LongitudeDegrees>
            </Position>
            <AltitudeMeters>465</AltitudeMeters>
            <DistanceMeters>15830.952954921</DistanceMeters>
          </Trackpoint>
          <Trackpoint>
            <Time>2023-01-11T20:12:40.000Z</Time>
            <Position>
              <LatitudeDegrees>-49.23030537553131580352783203125</LatitudeDegrees>
              <LongitudeDegrees>-72.94708379544317722320556640625</LongitudeDegrees>
            </Position>
            <AltitudeMeters>465.20001220703125</AltitudeMeters>
            <DistanceMeters>15837.613642992</DistanceMeters>
          </Trackpoint>
          <Trackpoint>
            <Time>2023-01-11T20:12:43.000Z</Time>
            <Position>
              <LatitudeDegrees>-49.23030822537839412689208984375</LatitudeDegrees>
              <LongitudeDegrees>-72.94704305939376354217529296875</LongitudeDegrees>
            </Position>
            <AltitudeMeters>465.600006103515625</AltitudeMeters>
            <DistanceMeters>15840.591483664</DistanceMeters>
          </Trackpoint>
          <Trackpoint>
            <Time>2023-01-11T20:12:46.000Z</Time>
            <Position>
              <LatitudeDegrees>-49.23029531724750995635986328125</LatitudeDegrees>
              <LongitudeDegrees>-72.9470077715814113616943359375</LongitudeDegrees>
            </Position>
            <AltitudeMeters>466</AltitudeMeters>
            <DistanceMeters>15843.532710148</DistanceMeters>
          </Trackpoint>
          <Trackpoint>
            <Time>2023-01-11T20:12:47.000Z</Time>
            <Position>
              <LatitudeDegrees>-49.23028995282948017120361328125</LatitudeDegrees>
              <LongitudeDegrees>-72.9469923488795757293701171875</LongitudeDegrees>
            </Position>
            <AltitudeMeters>466.399993896484375</AltitudeMeters>
            <DistanceMeters>15844.800524648</DistanceMeters>
          </Trackpoint>
          <Trackpoint>
            <Time>2023-01-11T20:12:48.000Z</Time>
            <Position>
              <LatitudeDegrees>-49.230286516249179840087890625</LatitudeDegrees>
              <LongitudeDegrees>-72.946973741054534912109375</LongitudeDegrees>
            </Position>
            <AltitudeMeters>466.399993896484375</AltitudeMeters>
            <DistanceMeters>15846.203577272</DistanceMeters>
          </Trackpoint>
          <Trackpoint>
            <Time>2023-01-11T20:12:53.000Z</Time>
            <Position>
              <LatitudeDegrees>-49.23024871386587619781494140625</LatitudeDegrees>
              <LongitudeDegrees>-72.94697348959743976593017578125</LongitudeDegrees>
            </Position>
            <AltitudeMeters>466</AltitudeMeters>
            <DistanceMeters>15850.410589256</DistanceMeters>
          </Trackpoint>
          <Trackpoint>
            <Time>2023-01-11T20:12:55.000Z</Time>
            <Position>
              <LatitudeDegrees>-49.23023077659308910369873046875</LatitudeDegrees>
              <LongitudeDegrees>-72.94696234166622161865234375</LongitudeDegrees>
            </Position>
            <AltitudeMeters>466</AltitudeMeters>
            <DistanceMeters>15852.564993882</DistanceMeters>
          </Trackpoint>
          <Trackpoint>
            <Time>2023-01-11T20:13:00.000Z</Time>
            <Position>
              <LatitudeDegrees>-49.23018216155469417572021484375</LatitudeDegrees>
              <LongitudeDegrees>-72.94694197364151477813720703125</LongitudeDegrees>
            </Position>
            <AltitudeMeters>466</AltitudeMeters>
            <DistanceMeters>15858.17559514</DistanceMeters>
          </Trackpoint>
          <Trackpoint>
            <Time>2023-01-11T20:13:06.000Z</Time>
            <Position>
              <LatitudeDegrees>-49.2301217280328273773193359375</LatitudeDegrees>
              <LongitudeDegrees>-72.9468870721757411956787109375</LongitudeDegrees>
            </Position>
            <AltitudeMeters>466</AltitudeMeters>
            <DistanceMeters>15865.996703619</DistanceMeters>
          </Trackpoint>
          <Trackpoint>
            <Time>2023-01-11T20:13:08.000Z</Time>
            <Position>
              <LatitudeDegrees>-49.230110831558704376220703125</LatitudeDegrees>
              <LongitudeDegrees>-72.94684289954602718353271484375</LongitudeDegrees>
            </Position>
            <AltitudeMeters>465.79998779296875</AltitudeMeters>
            <DistanceMeters>15869.428207616</DistanceMeters>
          </Trackpoint>
          <Trackpoint>
            <Time>2023-01-11T20:13:16.000Z</Time>
            <Position>
              <LatitudeDegrees>-49.23006162978708744049072265625</LatitudeDegrees>
              <LongitudeDegrees>-72.946692444384098052978515625</LongitudeDegrees>
            </Position>
            <AltitudeMeters>465.600006103515625</AltitudeMeters>
            <DistanceMeters>15881.6582602</DistanceMeters>
          </Trackpoint>
          <Trackpoint>
            <Time>2023-01-11T20:13:21.000Z</Time>
            <Position>
              <LatitudeDegrees>-49.23002374358475208282470703125</LatitudeDegrees>
              <LongitudeDegrees>-72.94662530533969402313232421875</LongitudeDegrees>
            </Position>
            <AltitudeMeters>465.600006103515625</AltitudeMeters>
            <DistanceMeters>15888.107487449</DistanceMeters>
          </Trackpoint>
          <Trackpoint>
            <Time>2023-01-11T20:13:25.000Z</Time>
            <Position>
              <LatitudeDegrees>-49.22998778522014617919921875</LatitudeDegrees>
              <LongitudeDegrees>-72.9465692304074764251708984375</LongitudeDegrees>
            </Position>
            <AltitudeMeters>465.600006103515625</AltitudeMeters>
            <DistanceMeters>15893.820166003</DistanceMeters>
          </Trackpoint>
          <Trackpoint>
            <Time>2023-01-11T20:13:27.000Z</Time>
            <Position>
              <LatitudeDegrees>-49.2299601249396800994873046875</LatitudeDegrees>
              <LongitudeDegrees>-72.94655707664787769317626953125</LongitudeDegrees>
            </Position>
            <AltitudeMeters>465.20001220703125</AltitudeMeters>
            <DistanceMeters>15897.023003314</DistanceMeters>
          </Trackpoint>
          <Trackpoint>
            <Time>2023-01-11T20:13:33.000Z</Time>
            <Position>
              <LatitudeDegrees>-49.22990061342716217041015625</LatitudeDegrees>
              <LongitudeDegrees>-72.946496643126010894775390625</LongitudeDegrees>
            </Position>
            <AltitudeMeters>465</AltitudeMeters>
            <DistanceMeters>15904.970100561</DistanceMeters>
          </Trackpoint>
          <Trackpoint>
            <Time>2023-01-11T20:13:40.000Z</Time>
            <Position>
              <LatitudeDegrees>-49.22988049685955047607421875</LatitudeDegrees>
              <LongitudeDegrees>-72.94636378996074199676513671875</LongitudeDegrees>
            </Position>
            <AltitudeMeters>466</AltitudeMeters>
            <DistanceMeters>15914.882530222</DistanceMeters>
          </Trackpoint>
          <Trackpoint>
            <Time>2023-01-11T20:13:41.000Z</Time>
            <Position>
              <LatitudeDegrees>-49.22987638972699642181396484375</LatitudeDegrees>
              <LongitudeDegrees>-72.94634635560214519500732421875</LongitudeDegrees>
            </Position>
            <AltitudeMeters>466</AltitudeMeters>
            <DistanceMeters>15916.226410905</DistanceMeters>
          </Trackpoint>
          <Trackpoint>
            <Time>2023-01-11T20:13:46.000Z</Time>
            <Position>
              <LatitudeDegrees>-49.229847304522991180419921875</LatitudeDegrees>
              <LongitudeDegrees>-72.9462750256061553955078125</LongitudeDegrees>
            </Position>
            <AltitudeMeters>465.600006103515625</AltitudeMeters>
            <DistanceMeters>15922.337744325</DistanceMeters>
          </Trackpoint>
          <Trackpoint>
            <Time>2023-01-11T20:13:52.000Z</Time>
            <Position>
              <LatitudeDegrees>-49.229788966476917266845703125</LatitudeDegrees>
              <LongitudeDegrees>-72.9462084732949733734130859375</LongitudeDegrees>
            </Position>
            <AltitudeMeters>465.600006103515625</AltitudeMeters>
            <DistanceMeters>15930.434555733</DistanceMeters>
          </Trackpoint>
          <Trackpoint>
            <Time>2023-01-11T20:13:59.000Z</Time>
            <Position>
              <LatitudeDegrees>-49.2297153733670711517333984375</LatitudeDegrees>
              <LongitudeDegrees>-72.9461568407714366912841796875</LongitudeDegrees>
            </Position>
            <AltitudeMeters>464.79998779296875</AltitudeMeters>
            <DistanceMeters>15939.444571673</DistanceMeters>
          </Trackpoint>
          <Trackpoint>
            <Time>2023-01-11T20:14:02.000Z</Time>
            <Position>
              <LatitudeDegrees>-49.22967664897441864013671875</LatitudeDegrees>
              <LongitudeDegrees>-72.94613345526158809661865234375</LongitudeDegrees>
            </Position>
            <AltitudeMeters>465</AltitudeMeters>
            <DistanceMeters>15944.07755038</DistanceMeters>
          </Trackpoint>
          <Trackpoint>
            <Time>2023-01-11T20:14:12.000Z</Time>
            <Position>
              <LatitudeDegrees>-49.22957313247025012969970703125</LatitudeDegrees>
              <LongitudeDegrees>-72.9460321180522441864013671875</LongitudeDegrees>
            </Position>
            <AltitudeMeters>466</AltitudeMeters>
            <DistanceMeters>15957.752155421</DistanceMeters>
          </Trackpoint>
          <Trackpoint>
            <Time>2023-01-11T20:14:26.000Z</Time>
            <Position>
              <LatitudeDegrees>-49.2294260300695896148681640625</LatitudeDegrees>
              <LongitudeDegrees>-72.9459067247807979583740234375</LongitudeDegrees>
            </Position>
            <AltitudeMeters>465</AltitudeMeters>
            <DistanceMeters>15976.49098016</DistanceMeters>
          </Trackpoint>
          <Trackpoint>
            <Time>2023-01-11T20:14:33.000Z</Time>
            <Position>
              <LatitudeDegrees>-49.2293495871126651763916015625</LatitudeDegrees>
              <LongitudeDegrees>-72.9458393342792987823486328125</LongitudeDegrees>
            </Position>
            <AltitudeMeters>464.600006103515625</AltitudeMeters>
            <DistanceMeters>15986.30867011</DistanceMeters>
          </Trackpoint>
          <Trackpoint>
            <Time>2023-01-11T20:14:44.000Z</Time>
            <Position>
              <LatitudeDegrees>-49.22923467122018337249755859375</LatitudeDegrees>
              <LongitudeDegrees>-72.94574000872671604156494140625</LongitudeDegrees>
            </Position>
            <AltitudeMeters>465</AltitudeMeters>
            <DistanceMeters>16000.99575512</DistanceMeters>
          </Trackpoint>
          <Trackpoint>
            <Time>2023-01-11T20:14:49.000Z</Time>
            <Position>
              <LatitudeDegrees>-49.2291960306465625762939453125</LatitudeDegrees>
              <LongitudeDegrees>-72.9457102529704570770263671875</LongitudeDegrees>
            </Position>
            <AltitudeMeters>464.399993896484375</AltitudeMeters>
            <DistanceMeters>16005.809399909</DistanceMeters>
          </Trackpoint>
          <Trackpoint>
            <Time>2023-01-11T20:14:51.000Z</Time>
            <Position>
              <LatitudeDegrees>-49.2291950248181819915771484375</LatitudeDegrees>
              <LongitudeDegrees>-72.94571586884558200836181640625</LongitudeDegrees>
            </Position>
            <AltitudeMeters>463.79998779296875</AltitudeMeters>
            <DistanceMeters>16006.234372295</DistanceMeters>
          </Trackpoint>
          <Trackpoint>
            <Time>2023-01-11T20:14:57.000Z</Time>
            <Position>
              <LatitudeDegrees>-49.2291940189898014068603515625</LatitudeDegrees>
              <LongitudeDegrees>-72.94571368955075740814208984375</LongitudeDegrees>
            </Position>
            <AltitudeMeters>465.399993896484375</AltitudeMeters>
            <DistanceMeters>16006.424425724</DistanceMeters>
          </Trackpoint>
          <Trackpoint>
            <Time>2023-01-11T20:15:00.000Z</Time>
            <Position>
              <LatitudeDegrees>-49.22919125296175479888916015625</LatitudeDegrees>
              <LongitudeDegrees>-72.94572374783456325531005859375</LongitudeDegrees>
            </Position>
            <AltitudeMeters>465.399993896484375</AltitudeMeters>
            <DistanceMeters>16007.219476258</DistanceMeters>
          </Trackpoint>
          <Trackpoint>
            <Time>2023-01-11T20:15:06.000Z</Time>
            <Position>
              <LatitudeDegrees>-49.2291985452175140380859375</LatitudeDegrees>
              <LongitudeDegrees>-72.945723831653594970703125</LongitudeDegrees>
            </Position>
            <AltitudeMeters>465</AltitudeMeters>
            <DistanceMeters>16008.025804667</DistanceMeters>
          </Trackpoint>
          <Trackpoint>
            <Time>2023-01-11T20:15:10.000Z</Time>
            <Position>
              <LatitudeDegrees>-49.2291985452175140380859375</LatitudeDegrees>
              <LongitudeDegrees>-72.945723831653594970703125</LongitudeDegrees>
            </Position>
            <AltitudeMeters>464.399993896484375</AltitudeMeters>
            <DistanceMeters>16008.025804667</DistanceMeters>
          </Trackpoint>
          <Trackpoint>
            <Time>2023-01-11T20:15:14.000Z</Time>
            <Position>
              <LatitudeDegrees>-49.2291544564068317413330078125</LatitudeDegrees>
              <LongitudeDegrees>-72.94569022022187709808349609375</LongitudeDegrees>
            </Position>
            <AltitudeMeters>464.399993896484375</AltitudeMeters>
            <DistanceMeters>16013.50696005</DistanceMeters>
          </Trackpoint>
          <Trackpoint>
            <Time>2023-01-11T20:15:28.000Z</Time>
            <Position>
              <LatitudeDegrees>-49.228993356227874755859375</LatitudeDegrees>
              <LongitudeDegrees>-72.94553398154675960540771484375</LongitudeDegrees>
            </Position>
            <AltitudeMeters>464.20001220703125</AltitudeMeters>
            <DistanceMeters>16034.731342102</DistanceMeters>
          </Trackpoint>
          <Trackpoint>
            <Time>2023-01-11T20:15:38.000Z</Time>
            <Position>
              <LatitudeDegrees>-49.22891163267195224761962890625</LatitudeDegrees>
              <LongitudeDegrees>-72.945398278534412384033203125</LongitudeDegrees>
            </Position>
            <AltitudeMeters>464.20001220703125</AltitudeMeters>
            <DistanceMeters>16048.148629606</DistanceMeters>
          </Trackpoint>
          <Trackpoint>
            <Time>2023-01-11T20:15:46.000Z</Time>
            <Position>
              <LatitudeDegrees>-49.22885212115943431854248046875</LatitudeDegrees>
              <LongitudeDegrees>-72.945296354591846466064453125</LongitudeDegrees>
            </Position>
            <AltitudeMeters>463.79998779296875</AltitudeMeters>
            <DistanceMeters>16058.086534117</DistanceMeters>
          </Trackpoint>
          <Trackpoint>
            <Time>2023-01-11T20:15:51.000Z</Time>
            <Position>
              <LatitudeDegrees>-49.22881557606160640716552734375</LatitudeDegrees>
              <LongitudeDegrees>-72.94522485695779323577880859375</LongitudeDegrees>
            </Position>
            <AltitudeMeters>463.79998779296875</AltitudeMeters>
            <DistanceMeters>16064.685932475</DistanceMeters>
          </Trackpoint>
          <Trackpoint>
            <Time>2023-01-11T20:16:02.000Z</Time>
            <Position>
              <LatitudeDegrees>-49.22873360104858875274658203125</LatitudeDegrees>
              <LongitudeDegrees>-72.9450852982699871063232421875</LongitudeDegrees>
            </Position>
            <AltitudeMeters>464.20001220703125</AltitudeMeters>
            <DistanceMeters>16078.329465589</DistanceMeters>
          </Trackpoint>
          <Trackpoint>
            <Time>2023-01-11T20:16:14.000Z</Time>
            <Position>
              <LatitudeDegrees>-49.2286468483507633209228515625</LatitudeDegrees>
              <LongitudeDegrees>-72.944893352687358856201171875</LongitudeDegrees>
            </Position>
            <AltitudeMeters>464.399993896484375</AltitudeMeters>
            <DistanceMeters>16095.296458164</DistanceMeters>
          </Trackpoint>
          <Trackpoint>
            <Time>2023-01-11T20:16:24.000Z</Time>
            <Position>
              <LatitudeDegrees>-49.22857199795544147491455078125</LatitudeDegrees>
              <LongitudeDegrees>-72.94472697190940380096435546875</LongitudeDegrees>
            </Position>
            <AltitudeMeters>464</AltitudeMeters>
            <DistanceMeters>16109.981698565</DistanceMeters>
          </Trackpoint>
          <Trackpoint>
            <Time>2023-01-11T20:16:25.000Z</Time>
            <Position>
              <LatitudeDegrees>-49.2285640351474285125732421875</LatitudeDegrees>
              <LongitudeDegrees>-72.94470970518887042999267578125</LongitudeDegrees>
            </Position>
            <AltitudeMeters>464</AltitudeMeters>
            <DistanceMeters>16111.51984031</DistanceMeters>
          </Trackpoint>
          <Trackpoint>
            <Time>2023-01-11T20:16:34.000Z</Time>
            <Position>
              <LatitudeDegrees>-49.2284850776195526123046875</LatitudeDegrees>
              <LongitudeDegrees>-72.9445974715054035186767578125</LongitudeDegrees>
            </Position>
            <AltitudeMeters>463.399993896484375</AltitudeMeters>
            <DistanceMeters>16123.51053992</DistanceMeters>
          </Trackpoint>
          <Trackpoint>
            <Time>2023-01-11T20:16:37.000Z</Time>
            <Position>
              <LatitudeDegrees>-49.22845532186329364776611328125</LatitudeDegrees>
              <LongitudeDegrees>-72.94457383453845977783203125</LongitudeDegrees>
            </Position>
            <AltitudeMeters>463.20001220703125</AltitudeMeters>
            <DistanceMeters>16127.242078192</DistanceMeters>
          </Trackpoint>
          <Trackpoint>
            <Time>2023-01-11T20:16:43.000Z</Time>
            <Position>
              <LatitudeDegrees>-49.22838876955211162567138671875</LatitudeDegrees>
              <LongitudeDegrees>-72.94453452341258525848388671875</LongitudeDegrees>
            </Position>
            <AltitudeMeters>463.399993896484375</AltitudeMeters>
            <DistanceMeters>16135.18121754</DistanceMeters>
          </Trackpoint>
          <Trackpoint>
            <Time>2023-01-11T20:16:44.000Z</Time>
            <Position>
              <LatitudeDegrees>-49.2283792980015277862548828125</LatitudeDegrees>
              <LongitudeDegrees>-72.9445270635187625885009765625</LongitudeDegrees>
            </Position>
            <AltitudeMeters>463.399993896484375</AltitudeMeters>
            <DistanceMeters>16136.364290593</DistanceMeters>
          </Trackpoint>
          <Trackpoint>
            <Time>2023-01-11T20:16:55.000Z</Time>
            <Position>
              <LatitudeDegrees>-49.228293634951114654541015625</LatitudeDegrees>
              <LongitudeDegrees>-72.944386415183544158935546875</LongitudeDegrees>
            </Position>
            <AltitudeMeters>463.399993896484375</AltitudeMeters>
            <DistanceMeters>16150.343233838</DistanceMeters>
          </Trackpoint>
          <Trackpoint>
            <Time>2023-01-11T20:17:06.000Z</Time>
            <Position>
              <LatitudeDegrees>-49.228244014084339141845703125</LatitudeDegrees>
              <LongitudeDegrees>-72.94420008547604084014892578125</LongitudeDegrees>
            </Position>
            <AltitudeMeters>463.399993896484375</AltitudeMeters>
            <DistanceMeters>16164.969323915</DistanceMeters>
          </Trackpoint>
          <Trackpoint>
            <Time>2023-01-11T20:17:16.000Z</Time>
            <Position>
              <LatitudeDegrees>-49.2282329499721527099609375</LatitudeDegrees>
              <LongitudeDegrees>-72.94399489648640155792236328125</LongitudeDegrees>
            </Position>
            <AltitudeMeters>463.20001220703125</AltitudeMeters>
            <DistanceMeters>16179.934145859</DistanceMeters>
          </Trackpoint>
          <Trackpoint>
            <Time>2023-01-11T20:17:18.000Z</Time>
            <Position>
              <LatitudeDegrees>-49.2282371409237384796142578125</LatitudeDegrees>
              <LongitudeDegrees>-72.9439577646553516387939453125</LongitudeDegrees>
            </Position>
            <AltitudeMeters>463.20001220703125</AltitudeMeters>
            <DistanceMeters>16182.675135389</DistanceMeters>
          </Trackpoint>
          <Trackpoint>
            <Time>2023-01-11T20:17:23.000Z</Time>
            <Position>
              <LatitudeDegrees>-49.22823856584727764129638671875</LatitudeDegrees>
              <LongitudeDegrees>-72.94387771748006343841552734375</LongitudeDegrees>
            </Position>
            <AltitudeMeters>463.20001220703125</AltitudeMeters>
            <DistanceMeters>16188.495861015</DistanceMeters>
          </Trackpoint>
          <Trackpoint>
            <Time>2023-01-11T20:17:24.000Z</Time>
            <Position>
              <LatitudeDegrees>-49.22823764383792877197265625</LatitudeDegrees>
              <LongitudeDegrees>-72.9438578523695468902587890625</LongitudeDegrees>
            </Position>
            <AltitudeMeters>463.20001220703125</AltitudeMeters>
            <DistanceMeters>16189.943264806</DistanceMeters>
          </Trackpoint>
          <Trackpoint>
            <Time>2023-01-11T20:17:28.000Z</Time>
            <Position>
              <LatitudeDegrees>-49.22822934575378894805908203125</LatitudeDegrees>
              <LongitudeDegrees>-72.94376942329108715057373046875</LongitudeDegrees>
            </Position>
            <AltitudeMeters>463</AltitudeMeters>
            <DistanceMeters>16196.43575253</DistanceMeters>
          </Trackpoint>
          <Trackpoint>
            <Time>2023-01-11T20:17:37.000Z</Time>
            <Position>
              <LatitudeDegrees>-49.22822423279285430908203125</LatitudeDegrees>
              <LongitudeDegrees>-72.94361586682498455047607421875</LongitudeDegrees>
            </Position>
            <AltitudeMeters>463.20001220703125</AltitudeMeters>
            <DistanceMeters>16207.610991105</DistanceMeters>
          </Trackpoint>
          <Trackpoint>
            <Time>2023-01-11T20:17:47.000Z</Time>
            <Position>
              <LatitudeDegrees>-49.22822096385061740875244140625</LatitudeDegrees>
              <LongitudeDegrees>-72.94343146495521068572998046875</LongitudeDegrees>
            </Position>
            <AltitudeMeters>463.20001220703125</AltitudeMeters>
            <DistanceMeters>16221.019189788</DistanceMeters>
          </Trackpoint>
          <Trackpoint>
            <Time>2023-01-11T20:17:55.000Z</Time>
            <Position>
              <LatitudeDegrees>-49.228198416531085968017578125</LatitudeDegrees>
              <LongitudeDegrees>-72.9432808421552181243896484375</LongitudeDegrees>
            </Position>
            <AltitudeMeters>462.79998779296875</AltitudeMeters>
            <DistanceMeters>16232.251250953</DistanceMeters>
          </Trackpoint>
          <Trackpoint>
            <Time>2023-01-11T20:18:09.000Z</Time>
            <Position>
              <LatitudeDegrees>-49.228134043514728546142578125</LatitudeDegrees>
              <LongitudeDegrees>-72.9430300556123256683349609375</LongitudeDegrees>
            </Position>
            <AltitudeMeters>462.79998779296875</AltitudeMeters>
            <DistanceMeters>16251.837361018</DistanceMeters>
          </Trackpoint>
          <Trackpoint>
            <Time>2023-01-11T20:18:19.000Z</Time>
            <Position>
              <LatitudeDegrees>-49.228073693811893463134765625</LatitudeDegrees>
              <LongitudeDegrees>-72.94284649193286895751953125</LongitudeDegrees>
            </Position>
            <AltitudeMeters>462.20001220703125</AltitudeMeters>
            <DistanceMeters>16266.775004371</DistanceMeters>
          </Trackpoint>
          <Trackpoint>
            <Time>2023-01-11T20:18:22.000Z</Time>
            <Position>
              <LatitudeDegrees>-49.2280612885951995849609375</LatitudeDegrees>
              <LongitudeDegrees>-72.94279024936258792877197265625</LongitudeDegrees>
            </Position>
            <AltitudeMeters>462.20001220703125</AltitudeMeters>
            <DistanceMeters>16271.090096215</DistanceMeters>
          </Trackpoint>
          <Trackpoint>
            <Time>2023-01-11T20:18:33.000Z</Time>
            <Position>
              <LatitudeDegrees>-49.22801367938518524169921875</LatitudeDegrees>
              <LongitudeDegrees>-72.94258355163037776947021484375</LongitudeDegrees>
            </Position>
            <AltitudeMeters>462.399993896484375</AltitudeMeters>
            <DistanceMeters>16287.021176798</DistanceMeters>
          </Trackpoint>
          <Trackpoint>
            <Time>2023-01-11T20:18:44.000Z</Time>
            <Position>
              <LatitudeDegrees>-49.2279766313731670379638671875</LatitudeDegrees>
              <LongitudeDegrees>-72.942376770079135894775390625</LongitudeDegrees>
            </Position>
            <AltitudeMeters>462.600006103515625</AltitudeMeters>
            <DistanceMeters>16302.606716774</DistanceMeters>
          </Trackpoint>
          <Trackpoint>
            <Time>2023-01-11T20:18:53.000Z</Time>
            <Position>
              <LatitudeDegrees>-49.22793463803827762603759765625</LatitudeDegrees>
              <LongitudeDegrees>-72.94222748838365077972412109375</LongitudeDegrees>
            </Position>
            <AltitudeMeters>462.20001220703125</AltitudeMeters>
            <DistanceMeters>16314.420643366</DistanceMeters>
          </Trackpoint>
          <Trackpoint>
            <Time>2023-01-11T20:19:01.000Z</Time>
            <Position>
              <LatitudeDegrees>-49.22791443765163421630859375</LatitudeDegrees>
              <LongitudeDegrees>-72.94211014173924922943115234375</LongitudeDegrees>
            </Position>
            <AltitudeMeters>462</AltitudeMeters>
            <DistanceMeters>16323.241252111</DistanceMeters>
          </Trackpoint>
          <Trackpoint>
            <Time>2023-01-11T20:19:05.000Z</Time>
            <Position>
              <LatitudeDegrees>-49.22790312208235263824462890625</LatitudeDegrees>
              <LongitudeDegrees>-72.942038476467132568359375</LongitudeDegrees>
            </Position>
            <AltitudeMeters>462.20001220703125</AltitudeMeters>
            <DistanceMeters>16328.599950003</DistanceMeters>
          </Trackpoint>
          <Trackpoint>
            <Time>2023-01-11T20:19:07.000Z</Time>
            <Position>
              <LatitudeDegrees>-49.22789566218852996826171875</LatitudeDegrees>
              <LongitudeDegrees>-72.94200302101671695709228515625</LongitudeDegrees>
            </Position>
            <AltitudeMeters>461.79998779296875</AltitudeMeters>
            <DistanceMeters>16331.307794546</DistanceMeters>
          </Trackpoint>
          <Trackpoint>
            <Time>2023-01-11T20:19:09.000Z</Time>
            <Position>
              <LatitudeDegrees>-49.22788870520889759063720703125</LatitudeDegrees>
              <LongitudeDegrees>-72.94196396134793758392333984375</LongitudeDegrees>
            </Position>
            <AltitudeMeters>461.600006103515625</AltitudeMeters>
            <DistanceMeters>16334.249021031</DistanceMeters>
          </Trackpoint>
          <Trackpoint>
            <Time>2023-01-11T20:19:10.000Z</Time>
            <Position>
              <LatitudeDegrees>-49.2278864420950412750244140625</LatitudeDegrees>
              <LongitudeDegrees>-72.941946275532245635986328125</LongitudeDegrees>
            </Position>
            <AltitudeMeters>461.20001220703125</AltitudeMeters>
            <DistanceMeters>16335.558873895</DistanceMeters>
          </Trackpoint>
          <Trackpoint>
            <Time>2023-01-11T20:19:19.000Z</Time>
            <Position>
              <LatitudeDegrees>-49.2278770543634891510009765625</LatitudeDegrees>
              <LongitudeDegrees>-72.9418002627789974212646484375</LongitudeDegrees>
            </Position>
            <AltitudeMeters>460.79998779296875</AltitudeMeters>
            <DistanceMeters>16346.223056129</DistanceMeters>
          </Trackpoint>
          <Trackpoint>
            <Time>2023-01-11T20:19:29.000Z</Time>
            <Position>
              <LatitudeDegrees>-49.22783271409571170806884765625</LatitudeDegrees>
              <LongitudeDegrees>-72.94165198691189289093017578125</LongitudeDegrees>
            </Position>
            <AltitudeMeters>460.600006103515625</AltitudeMeters>
            <DistanceMeters>16358.076662731</DistanceMeters>
          </Trackpoint>
          <Trackpoint>
            <Time>2023-01-11T20:19:33.000Z</Time>
            <Position>
              <LatitudeDegrees>-49.227808155119419097900390625</LatitudeDegrees>
              <LongitudeDegrees>-72.94158585369586944580078125</LongitudeDegrees>
            </Position>
            <AltitudeMeters>460.600006103515625</AltitudeMeters>
            <DistanceMeters>16363.606205103</DistanceMeters>
          </Trackpoint>
          <Trackpoint>
            <Time>2023-01-11T20:19:35.000Z</Time>
            <Position>
              <LatitudeDegrees>-49.2277905531227588653564453125</LatitudeDegrees>
              <LongitudeDegrees>-72.94156716205179691314697265625</LongitudeDegrees>
            </Position>
            <AltitudeMeters>460.79998779296875</AltitudeMeters>
            <DistanceMeters>16365.991356704</DistanceMeters>
          </Trackpoint>
          <Trackpoint>
            <Time>2023-01-11T20:19:37.000Z</Time>
            <Position>
              <LatitudeDegrees>-49.22777471132576465606689453125</LatitudeDegrees>
              <LongitudeDegrees>-72.94155769050121307373046875</LongitudeDegrees>
            </Position>
            <AltitudeMeters>460.600006103515625</AltitudeMeters>
            <DistanceMeters>16367.882364443</DistanceMeters>
          </Trackpoint>
          <Trackpoint>
            <Time>2023-01-11T20:19:44.000Z</Time>
            <Position>
              <LatitudeDegrees>-49.22772559337317943572998046875</LatitudeDegrees>
              <LongitudeDegrees>-72.94149273075163364410400390625</LongitudeDegrees>
            </Position>
            <AltitudeMeters>460</AltitudeMeters>
            <DistanceMeters>16375.105644979</DistanceMeters>
          </Trackpoint>
          <Trackpoint>
            <Time>2023-01-11T20:19:45.000Z</Time>
            <Position>
              <LatitudeDegrees>-49.2277174629271030426025390625</LatitudeDegrees>
              <LongitudeDegrees>-72.9414861090481281280517578125</LongitudeDegrees>
            </Position>
            <AltitudeMeters>460</AltitudeMeters>
            <DistanceMeters>16376.129114015</DistanceMeters>
          </Trackpoint>
          <Trackpoint>
            <Time>2023-01-11T20:19:48.000Z</Time>
            <Position>
              <LatitudeDegrees>-49.22769508324563503265380859375</LatitudeDegrees>
              <LongitudeDegrees>-72.9414753802120685577392578125</LongitudeDegrees>
            </Position>
            <AltitudeMeters>459.79998779296875</AltitudeMeters>
            <DistanceMeters>16378.740188069</DistanceMeters>
          </Trackpoint>
          <Trackpoint>
            <Time>2023-01-11T20:19:51.000Z</Time>
            <Position>
              <LatitudeDegrees>-49.2276705242693424224853515625</LatitudeDegrees>
              <LongitudeDegrees>-72.941474206745624542236328125</LongitudeDegrees>
            </Position>
            <AltitudeMeters>459.399993896484375</AltitudeMeters>
            <DistanceMeters>16381.474580743</DistanceMeters>
          </Trackpoint>
          <Trackpoint>
            <Time>2023-01-11T20:19:58.000Z</Time>
            <Position>
              <LatitudeDegrees>-49.22763347625732421875</LatitudeDegrees>
              <LongitudeDegrees>-72.9414586164057254791259765625</LongitudeDegrees>
            </Position>
            <AltitudeMeters>459.20001220703125</AltitudeMeters>
            <DistanceMeters>16385.751838611</DistanceMeters>
          </Trackpoint>
          <Trackpoint>
            <Time>2023-01-11T20:19:59.000Z</Time>
            <Position>
              <LatitudeDegrees>-49.22762475907802581787109375</LatitudeDegrees>
              <LongitudeDegrees>-72.9414505697786808013916015625</LongitudeDegrees>
            </Position>
            <AltitudeMeters>459.399993896484375</AltitudeMeters>
            <DistanceMeters>16386.884212602</DistanceMeters>
          </Trackpoint>
          <Trackpoint>
            <Time>2023-01-11T20:20:06.000Z</Time>
            <Position>
              <LatitudeDegrees>-49.22756918705999851226806640625</LatitudeDegrees>
              <LongitudeDegrees>-72.941335737705230712890625</LongitudeDegrees>
            </Position>
            <AltitudeMeters>459</AltitudeMeters>
            <DistanceMeters>16397.273027436</DistanceMeters>
          </Trackpoint>
          <Trackpoint>
            <Time>2023-01-11T20:20:07.000Z</Time>
            <Position>
              <LatitudeDegrees>-49.22756348736584186553955078125</LatitudeDegrees>
              <LongitudeDegrees>-72.941325008869171142578125</LongitudeDegrees>
            </Position>
            <AltitudeMeters>459</AltitudeMeters>
            <DistanceMeters>16398.278695653</DistanceMeters>
          </Trackpoint>
          <Trackpoint>
            <Time>2023-01-11T20:20:10.000Z</Time>
            <Position>
              <LatitudeDegrees>-49.22754295170307159423828125</LatitudeDegrees>
              <LongitudeDegrees>-72.94128502719104290008544921875</LongitudeDegrees>
            </Position>
            <AltitudeMeters>459</AltitudeMeters>
            <DistanceMeters>16401.977420543</DistanceMeters>
          </Trackpoint>
          <Trackpoint>
            <Time>2023-01-11T20:20:15.000Z</Time>
            <Position>
              <LatitudeDegrees>-49.22749190591275691986083984375</LatitudeDegrees>
              <LongitudeDegrees>-72.94120439328253269195556640625</LongitudeDegrees>
            </Position>
            <AltitudeMeters>459.600006103515625</AltitudeMeters>
            <DistanceMeters>16410.1403204</DistanceMeters>
          </Trackpoint>
          <Trackpoint>
            <Time>2023-01-11T20:20:18.000Z</Time>
            <Position>
              <LatitudeDegrees>-49.22746726311743259429931640625</LatitudeDegrees>
              <LongitudeDegrees>-72.94117069803178310394287109375</LongitudeDegrees>
            </Position>
            <AltitudeMeters>459.600006103515625</AltitudeMeters>
            <DistanceMeters>16413.817007011</DistanceMeters>
          </Trackpoint>
          <Trackpoint>
            <Time>2023-01-11T20:20:26.000Z</Time>
            <Position>
              <LatitudeDegrees>-49.22737623564898967742919921875</LatitudeDegrees>
              <LongitudeDegrees>-72.94110096059739589691162109375</LongitudeDegrees>
            </Position>
            <AltitudeMeters>459.399993896484375</AltitudeMeters>
            <DistanceMeters>16425.145530588</DistanceMeters>
          </Trackpoint>
          <Trackpoint>
            <Time>2023-01-11T20:20:28.000Z</Time>
            <Position>
              <LatitudeDegrees>-49.2273550294339656829833984375</LatitudeDegrees>
              <LongitudeDegrees>-72.941106073558330535888671875</LongitudeDegrees>
            </Position>
            <AltitudeMeters>459</AltitudeMeters>
            <DistanceMeters>16427.536354376</DistanceMeters>
          </Trackpoint>
          <Trackpoint>
            <Time>2023-01-11T20:20:34.000Z</Time>
            <Position>
              <LatitudeDegrees>-49.22729258425533771514892578125</LatitudeDegrees>
              <LongitudeDegrees>-72.94104966334998607635498046875</LongitudeDegrees>
            </Position>
            <AltitudeMeters>458.79998779296875</AltitudeMeters>
            <DistanceMeters>16435.605795574</DistanceMeters>
          </Trackpoint>
          <Trackpoint>
            <Time>2023-01-11T20:20:45.000Z</Time>
            <Position>
              <LatitudeDegrees>-49.22724531032145023345947265625</LatitudeDegrees>
              <LongitudeDegrees>-72.94086190871894359588623046875</LongitudeDegrees>
            </Position>
            <AltitudeMeters>458.79998779296875</AltitudeMeters>
            <DistanceMeters>16450.232503033</DistanceMeters>
          </Trackpoint>
          <Trackpoint>
            <Time>2023-01-11T20:20:57.000Z</Time>
            <Position>
              <LatitudeDegrees>-49.22718395479023456573486328125</LatitudeDegrees>
              <LongitudeDegrees>-72.9406700469553470611572265625</LongitudeDegrees>
            </Position>
            <AltitudeMeters>458.600006103515625</AltitudeMeters>
            <DistanceMeters>16465.760577647</DistanceMeters>
          </Trackpoint>
          <Trackpoint>
            <Time>2023-01-11T20:21:03.000Z</Time>
            <Position>
              <LatitudeDegrees>-49.2271669395267963409423828125</LatitudeDegrees>
              <LongitudeDegrees>-72.94057340361177921295166015625</LongitudeDegrees>
            </Position>
            <AltitudeMeters>459.20001220703125</AltitudeMeters>
            <DistanceMeters>16473.0361744</DistanceMeters>
          </Trackpoint>
          <Trackpoint>
            <Time>2023-01-11T20:21:05.000Z</Time>
            <Position>
              <LatitudeDegrees>-49.227161072194576263427734375</LatitudeDegrees>
              <LongitudeDegrees>-72.94055429287254810333251953125</LongitudeDegrees>
            </Position>
            <AltitudeMeters>459.20001220703125</AltitudeMeters>
            <DistanceMeters>16474.568434129</DistanceMeters>
          </Trackpoint>
          <Trackpoint>
            <Time>2023-01-11T20:21:08.000Z</Time>
            <Position>
              <LatitudeDegrees>-49.2271619103848934173583984375</LatitudeDegrees>
              <LongitudeDegrees>-72.9405466653406620025634765625</LongitudeDegrees>
            </Position>
            <AltitudeMeters>458</AltitudeMeters>
            <DistanceMeters>16475.122530329</DistanceMeters>
          </Trackpoint>
          <Trackpoint>
            <Time>2023-01-11T20:21:17.000Z</Time>
            <Position>
              <LatitudeDegrees>-49.22716869972646236419677734375</LatitudeDegrees>
              <LongitudeDegrees>-72.9405704699456691741943359375</LongitudeDegrees>
            </Position>
            <AltitudeMeters>458.20001220703125</AltitudeMeters>
            <DistanceMeters>16477.011148923</DistanceMeters>
          </Trackpoint>
          <Trackpoint>
            <Time>2023-01-11T20:21:22.000Z</Time>
            <Position>
              <LatitudeDegrees>-49.2271686159074306488037109375</LatitudeDegrees>
              <LongitudeDegrees>-72.94056401588022708892822265625</LongitudeDegrees>
            </Position>
            <AltitudeMeters>459</AltitudeMeters>
            <DistanceMeters>16477.476682848</DistanceMeters>
          </Trackpoint>
          <Trackpoint>
            <Time>2023-01-11T20:21:25.000Z</Time>
            <Position>
              <LatitudeDegrees>-49.2271297238767147064208984375</LatitudeDegrees>
              <LongitudeDegrees>-72.9405392892658710479736328125</LongitudeDegrees>
            </Position>
            <AltitudeMeters>459</AltitudeMeters>
            <DistanceMeters>16482.164881442</DistanceMeters>
          </Trackpoint>
          <Trackpoint>
            <Time>2023-01-11T20:21:30.000Z</Time>
            <Position>
              <LatitudeDegrees>-49.22706895507872104644775390625</LatitudeDegrees>
              <LongitudeDegrees>-72.94046762399375438690185546875</LongitudeDegrees>
            </Position>
            <AltitudeMeters>460</AltitudeMeters>
            <DistanceMeters>16490.702491006</DistanceMeters>
          </Trackpoint>
          <Trackpoint>
            <Time>2023-01-11T20:21:34.000Z</Time>
            <Position>
              <LatitudeDegrees>-49.22703123651444911956787109375</LatitudeDegrees>
              <LongitudeDegrees>-72.94040006585419178009033203125</LongitudeDegrees>
            </Position>
            <AltitudeMeters>461</AltitudeMeters>
            <DistanceMeters>16497.163608819</DistanceMeters>
          </Trackpoint>
          <Trackpoint>
            <Time>2023-01-11T20:21:35.000Z</Time>
            <Position>
              <LatitudeDegrees>-49.22702419571578502655029296875</LatitudeDegrees>
              <LongitudeDegrees>-72.94038883410394191741943359375</LongitudeDegrees>
            </Position>
            <AltitudeMeters>461</AltitudeMeters>
            <DistanceMeters>16498.299963047</DistanceMeters>
          </Trackpoint>
          <Trackpoint>
            <Time>2023-01-11T20:21:42.000Z</Time>
            <Position>
              <LatitudeDegrees>-49.22696870751678943634033203125</LatitudeDegrees>
              <LongitudeDegrees>-72.94030333869159221649169921875</LongitudeDegrees>
            </Position>
            <AltitudeMeters>461.600006103515625</AltitudeMeters>
            <DistanceMeters>16507.062023874</DistanceMeters>
          </Trackpoint>
          <Trackpoint>
            <Time>2023-01-11T20:21:43.000Z</Time>
            <Position>
              <LatitudeDegrees>-49.226958565413951873779296875</LatitudeDegrees>
              <LongitudeDegrees>-72.94029311276972293853759765625</LongitudeDegrees>
            </Position>
            <AltitudeMeters>461.399993896484375</AltitudeMeters>
            <DistanceMeters>16508.415946146</DistanceMeters>
          </Trackpoint>
          <Trackpoint>
            <Time>2023-01-11T20:21:50.000Z</Time>
            <Position>
              <LatitudeDegrees>-49.22688321210443973541259765625</LatitudeDegrees>
              <LongitudeDegrees>-72.94023209251463413238525390625</LongitudeDegrees>
            </Position>
            <AltitudeMeters>461.20001220703125</AltitudeMeters>
            <DistanceMeters>16517.903401125</DistanceMeters>
          </Trackpoint>
          <Trackpoint>
            <Time>2023-01-11T20:21:54.000Z</Time>
            <Position>
              <LatitudeDegrees>-49.226840548217296600341796875</LatitudeDegrees>
              <LongitudeDegrees>-72.94019755907356739044189453125</LongitudeDegrees>
            </Position>
            <AltitudeMeters>461.600006103515625</AltitudeMeters>
            <DistanceMeters>16523.275563103</DistanceMeters>
          </Trackpoint>
          <Trackpoint>
            <Time>2023-01-11T20:21:58.000Z</Time>
            <Position>
              <LatitudeDegrees>-49.22679956071078777313232421875</LatitudeDegrees>
              <LongitudeDegrees>-72.94015162624418735504150390625</LongitudeDegrees>
            </Position>
            <AltitudeMeters>462</AltitudeMeters>
            <DistanceMeters>16528.929452969</DistanceMeters>
          </Trackpoint>
          <Trackpoint>
            <Time>2023-01-11T20:22:03.000Z</Time>
            <Position>
              <LatitudeDegrees>-49.226740300655364990234375</LatitudeDegrees>
              <LongitudeDegrees>-72.94010820798575878143310546875</LongitudeDegrees>
            </Position>
            <AltitudeMeters>462</AltitudeMeters>
            <DistanceMeters>16536.241571856</DistanceMeters>
          </Trackpoint>
          <Trackpoint>
            <Time>2023-01-11T20:22:05.000Z</Time>
            <Position>
              <LatitudeDegrees>-49.22672647051513195037841796875</LatitudeDegrees>
              <LongitudeDegrees>-72.94008515775203704833984375</LongitudeDegrees>
            </Position>
            <AltitudeMeters>462.20001220703125</AltitudeMeters>
            <DistanceMeters>16538.518250112</DistanceMeters>
          </Trackpoint>
          <Trackpoint>
            <Time>2023-01-11T20:22:11.000Z</Time>
            <Position>
              <LatitudeDegrees>-49.22665790654718875885009765625</LatitudeDegrees>
              <LongitudeDegrees>-72.94003042392432689666748046875</LongitudeDegrees>
            </Position>
            <AltitudeMeters>463.20001220703125</AltitudeMeters>
            <DistanceMeters>16547.124334412</DistanceMeters>
          </Trackpoint>
          <Trackpoint>
            <Time>2023-01-11T20:22:12.000Z</Time>
            <Position>
              <LatitudeDegrees>-49.22664768062531948089599609375</LatitudeDegrees>
              <LongitudeDegrees>-72.940014414489269256591796875</LongitudeDegrees>
            </Position>
            <AltitudeMeters>463.399993896484375</AltitudeMeters>
            <DistanceMeters>16548.750929752</DistanceMeters>
          </Trackpoint>
          <Trackpoint>
            <Time>2023-01-11T20:22:20.000Z</Time>
            <Position>
              <LatitudeDegrees>-49.2265755124390125274658203125</LatitudeDegrees>
              <LongitudeDegrees>-72.93988005258142948150634765625</LongitudeDegrees>
            </Position>
            <AltitudeMeters>464.399993896484375</AltitudeMeters>
            <DistanceMeters>16561.39662561</DistanceMeters>
          </Trackpoint>
          <Trackpoint>
            <Time>2023-01-11T20:22:22.000Z</Time>
            <Position>
              <LatitudeDegrees>-49.22656402923166751861572265625</LatitudeDegrees>
              <LongitudeDegrees>-72.939840070903301239013671875</LongitudeDegrees>
            </Position>
            <AltitudeMeters>464.399993896484375</AltitudeMeters>
            <DistanceMeters>16564.571143733</DistanceMeters>
          </Trackpoint>
          <Trackpoint>
            <Time>2023-01-11T20:22:29.000Z</Time>
            <Position>
              <LatitudeDegrees>-49.22655447386205196380615234375</LatitudeDegrees>
              <LongitudeDegrees>-72.93974543921649456024169921875</LongitudeDegrees>
            </Position>
            <AltitudeMeters>463.79998779296875</AltitudeMeters>
            <DistanceMeters>16571.531485687</DistanceMeters>
          </Trackpoint>
          <Trackpoint>
            <Time>2023-01-11T20:22:35.000Z</Time>
            <Position>
              <LatitudeDegrees>-49.22655330039560794830322265625</LatitudeDegrees>
              <LongitudeDegrees>-72.93965994380414485931396484375</LongitudeDegrees>
            </Position>
            <AltitudeMeters>464.600006103515625</AltitudeMeters>
            <DistanceMeters>16577.746843041</DistanceMeters>
          </Trackpoint>
          <Trackpoint>
            <Time>2023-01-11T20:22:38.000Z</Time>
            <Position>
              <LatitudeDegrees>-49.22655916772782802581787109375</LatitudeDegrees>
              <LongitudeDegrees>-72.93963077478110790252685546875</LongitudeDegrees>
            </Position>
            <AltitudeMeters>465</AltitudeMeters>
            <DistanceMeters>16579.963227841</DistanceMeters>
          </Trackpoint>
          <Trackpoint>
            <Time>2023-01-11T20:22:44.000Z</Time>
            <Position>
              <LatitudeDegrees>-49.2265855707228183746337890625</LatitudeDegrees>
              <LongitudeDegrees>-72.93964284472167491912841796875</LongitudeDegrees>
            </Position>
            <AltitudeMeters>464</AltitudeMeters>
            <DistanceMeters>16583.029220271</DistanceMeters>
          </Trackpoint>
          <Trackpoint>
            <Time>2023-01-11T20:22:49.000Z</Time>
            <Position>
              <LatitudeDegrees>-49.226591102778911590576171875</LatitudeDegrees>
              <LongitudeDegrees>-72.93965625576674938201904296875</LongitudeDegrees>
            </Position>
            <AltitudeMeters>464</AltitudeMeters>
            <DistanceMeters>16584.185270146</DistanceMeters>
          </Trackpoint>
          <Trackpoint>
            <Time>2023-01-11T20:22:57.000Z</Time>
            <Position>
              <LatitudeDegrees>-49.226595796644687652587890625</LatitudeDegrees>
              <LongitudeDegrees>-72.93966162018477916717529296875</LongitudeDegrees>
            </Position>
            <AltitudeMeters>464.600006103515625</AltitudeMeters>
            <DistanceMeters>16584.836740478</DistanceMeters>
          </Trackpoint>
          <Trackpoint>
            <Time>2023-01-11T20:23:08.000Z</Time>
            <Position>
              <LatitudeDegrees>-49.226591102778911590576171875</LatitudeDegrees>
              <LongitudeDegrees>-72.93966162018477916717529296875</LongitudeDegrees>
            </Position>
            <AltitudeMeters>465.399993896484375</AltitudeMeters>
            <DistanceMeters>16585.357223228</DistanceMeters>
          </Trackpoint>
          <Trackpoint>
            <Time>2023-01-11T20:23:12.000Z</Time>
            <Position>
              <LatitudeDegrees>-49.22658674418926239013671875</LatitudeDegrees>
              <LongitudeDegrees>-72.93966346420347690582275390625</LongitudeDegrees>
            </Position>
            <AltitudeMeters>465.600006103515625</AltitudeMeters>
            <DistanceMeters>16585.860057336</DistanceMeters>
          </Trackpoint>
          <Trackpoint>
            <Time>2023-01-11T20:23:14.000Z</Time>
            <Position>
              <LatitudeDegrees>-49.2265862412750720977783203125</LatitudeDegrees>
              <LongitudeDegrees>-72.939667403697967529296875</LongitudeDegrees>
            </Position>
            <AltitudeMeters>464.20001220703125</AltitudeMeters>
            <DistanceMeters>16586.145137479</DistanceMeters>
          </Trackpoint>
          <Trackpoint>
            <Time>2023-01-11T20:23:30.000Z</Time>
            <Position>
              <LatitudeDegrees>-49.226584397256374359130859375</LatitudeDegrees>
              <LongitudeDegrees>-72.93960646726191043853759765625</LongitudeDegrees>
            </Position>
            <AltitudeMeters>464.20001220703125</AltitudeMeters>
            <DistanceMeters>16590.579943731</DistanceMeters>
          </Trackpoint>
          <Trackpoint>
            <Time>2023-01-11T20:23:40.000Z</Time>
            <Position>
              <LatitudeDegrees>-49.2265968024730682373046875</LatitudeDegrees>
              <LongitudeDegrees>-72.93938870541751384735107421875</LongitudeDegrees>
            </Position>
            <AltitudeMeters>464.20001220703125</AltitudeMeters>
            <DistanceMeters>16606.468740009</DistanceMeters>
          </Trackpoint>
          <Trackpoint>
            <Time>2023-01-11T20:23:49.000Z</Time>
            <Position>
              <LatitudeDegrees>-49.2265885882079601287841796875</LatitudeDegrees>
              <LongitudeDegrees>-72.93921670876443386077880859375</LongitudeDegrees>
            </Position>
            <AltitudeMeters>464.20001220703125</AltitudeMeters>
            <DistanceMeters>16619.003984729</DistanceMeters>
          </Trackpoint>
          <Trackpoint>
            <Time>2023-01-11T20:23:51.000Z</Time>
            <Position>
              <LatitudeDegrees>-49.22658934257924556732177734375</LatitudeDegrees>
              <LongitudeDegrees>-72.93918251059949398040771484375</LongitudeDegrees>
            </Position>
            <AltitudeMeters>464.20001220703125</AltitudeMeters>
            <DistanceMeters>16621.489255798</DistanceMeters>
          </Trackpoint>
          <Trackpoint>
            <Time>2023-01-11T20:23:54.000Z</Time>
            <Position>
              <LatitudeDegrees>-49.2265942879021167755126953125</LatitudeDegrees>
              <LongitudeDegrees>-72.93912568129599094390869140625</LongitudeDegrees>
            </Position>
            <AltitudeMeters>464.20001220703125</AltitudeMeters>
            <DistanceMeters>16625.6574529</DistanceMeters>
          </Trackpoint>
          <Trackpoint>
            <Time>2023-01-11T20:23:58.000Z</Time>
            <Position>
              <LatitudeDegrees>-49.22660417854785919189453125</LatitudeDegrees>
              <LongitudeDegrees>-72.93905946426093578338623046875</LongitudeDegrees>
            </Position>
            <AltitudeMeters>464.20001220703125</AltitudeMeters>
            <DistanceMeters>16630.595185821</DistanceMeters>
          </Trackpoint>
          <Trackpoint>
            <Time>2023-01-11T20:24:02.000Z</Time>
            <Position>
              <LatitudeDegrees>-49.22660510055720806121826171875</LatitudeDegrees>
              <LongitudeDegrees>-72.9389928281307220458984375</LongitudeDegrees>
            </Position>
            <AltitudeMeters>464.20001220703125</AltitudeMeters>
            <DistanceMeters>16635.439684627</DistanceMeters>
          </Trackpoint>
          <Trackpoint>
            <Time>2023-01-11T20:24:12.000Z</Time>
            <Position>
              <LatitudeDegrees>-49.22662572003901004791259765625</LatitudeDegrees>
              <LongitudeDegrees>-72.93880884535610675811767578125</LongitudeDegrees>
            </Position>
            <AltitudeMeters>464.20001220703125</AltitudeMeters>
            <DistanceMeters>16649.008887208</DistanceMeters>
          </Trackpoint>
          <Trackpoint>
            <Time>2023-01-11T20:24:22.000Z</Time>
            <Position>
              <LatitudeDegrees>-49.22658883966505527496337890625</LatitudeDegrees>
              <LongitudeDegrees>-72.93864254839718341827392578125</LongitudeDegrees>
            </Position>
            <AltitudeMeters>461.600006103515625</AltitudeMeters>
            <DistanceMeters>16661.775046367</DistanceMeters>
          </Trackpoint>
          <Trackpoint>
            <Time>2023-01-11T20:24:24.000Z</Time>
            <Position>
              <LatitudeDegrees>-49.22657375223934650421142578125</LatitudeDegrees>
              <LongitudeDegrees>-72.93862058781087398529052734375</LongitudeDegrees>
            </Position>
            <AltitudeMeters>461.600006103515625</AltitudeMeters>
            <DistanceMeters>16664.094944114</DistanceMeters>
          </Trackpoint>
          <Trackpoint>
            <Time>2023-01-11T20:24:26.000Z</Time>
            <Position>
              <LatitudeDegrees>-49.226560927927494049072265625</LatitudeDegrees>
              <LongitudeDegrees>-72.93859594501554965972900390625</LongitudeDegrees>
            </Position>
            <AltitudeMeters>461.600006103515625</AltitudeMeters>
            <DistanceMeters>16666.387432825</DistanceMeters>
          </Trackpoint>
          <Trackpoint>
            <Time>2023-01-11T20:24:28.000Z</Time>
            <Position>
              <LatitudeDegrees>-49.22655522823333740234375</LatitudeDegrees>
              <LongitudeDegrees>-72.9385648481547832489013671875</LongitudeDegrees>
            </Position>
            <AltitudeMeters>462</AltitudeMeters>
            <DistanceMeters>16668.73634251</DistanceMeters>
          </Trackpoint>
          <Trackpoint>
            <Time>2023-01-11T20:24:31.000Z</Time>
            <Position>
              <LatitudeDegrees>-49.22656252048909664154052734375</LatitudeDegrees>
              <LongitudeDegrees>-72.93855093419551849365234375</LongitudeDegrees>
            </Position>
            <AltitudeMeters>462.399993896484375</AltitudeMeters>
            <DistanceMeters>16670.035813285</DistanceMeters>
          </Trackpoint>
          <Trackpoint>
            <Time>2023-01-11T20:24:37.000Z</Time>
            <Position>
              <LatitudeDegrees>-49.22655464150011539459228515625</LatitudeDegrees>
              <LongitudeDegrees>-72.938568703830242156982421875</LongitudeDegrees>
            </Position>
            <AltitudeMeters>462.79998779296875</AltitudeMeters>
            <DistanceMeters>16671.597261536</DistanceMeters>
          </Trackpoint>
          <Trackpoint>
            <Time>2023-01-11T20:24:42.000Z</Time>
            <Position>
              <LatitudeDegrees>-49.22656252048909664154052734375</LatitudeDegrees>
              <LongitudeDegrees>-72.93855671770870685577392578125</LongitudeDegrees>
            </Position>
            <AltitudeMeters>462.600006103515625</AltitudeMeters>
            <DistanceMeters>16672.836258306</DistanceMeters>
          </Trackpoint>
          <Trackpoint>
            <Time>2023-01-11T20:24:51.000Z</Time>
            <Position>
              <LatitudeDegrees>-49.22656252048909664154052734375</LatitudeDegrees>
              <LongitudeDegrees>-72.93855956755578517913818359375</LongitudeDegrees>
            </Position>
            <AltitudeMeters>463</AltitudeMeters>
            <DistanceMeters>16673.069025268</DistanceMeters>
          </Trackpoint>
          <Trackpoint>
            <Time>2023-01-11T20:25:10.000Z</Time>
            <Position>
              <LatitudeDegrees>-49.2265614308416843414306640625</LatitudeDegrees>
              <LongitudeDegrees>-72.93857348151504993438720703125</LongitudeDegrees>
            </Position>
            <AltitudeMeters>462.399993896484375</AltitudeMeters>
            <DistanceMeters>16674.092494304</DistanceMeters>
          </Trackpoint>
          <Trackpoint>
            <Time>2023-01-11T20:25:11.000Z</Time>
            <Position>
              <LatitudeDegrees>-49.2265614308416843414306640625</LatitudeDegrees>
              <LongitudeDegrees>-72.938574068248271942138671875</LongitudeDegrees>
            </Position>
            <AltitudeMeters>461.399993896484375</AltitudeMeters>
            <DistanceMeters>16674.092494304</DistanceMeters>
          </Trackpoint>
          <Trackpoint>
            <Time>2023-01-11T20:25:22.000Z</Time>
            <Position>
              <LatitudeDegrees>-49.2265614308416843414306640625</LatitudeDegrees>
              <LongitudeDegrees>-72.93857616372406482696533203125</LongitudeDegrees>
            </Position>
            <AltitudeMeters>461.600006103515625</AltitudeMeters>
            <DistanceMeters>16674.226882372</DistanceMeters>
          </Trackpoint>
          <Trackpoint>
            <Time>2023-01-11T20:25:24.000Z</Time>
            <Position>
              <LatitudeDegrees>-49.2265621013939380645751953125</LatitudeDegrees>
              <LongitudeDegrees>-72.93857733719050884246826171875</LongitudeDegrees>
            </Position>
            <AltitudeMeters>461.20001220703125</AltitudeMeters>
            <DistanceMeters>16674.36127044</DistanceMeters>
          </Trackpoint>
          <Trackpoint>
            <Time>2023-01-11T20:25:25.000Z</Time>
            <Position>
              <LatitudeDegrees>-49.2265651188790798187255859375</LatitudeDegrees>
              <LongitudeDegrees>-72.93858312070369720458984375</LongitudeDegrees>
            </Position>
            <AltitudeMeters>461.20001220703125</AltitudeMeters>
            <DistanceMeters>16674.890356794</DistanceMeters>
          </Trackpoint>
          <Trackpoint>
            <Time>2023-01-11T20:25:28.000Z</Time>
            <Position>
              <LatitudeDegrees>-49.2266102135181427001953125</LatitudeDegrees>
              <LongitudeDegrees>-72.93863969855010509490966796875</LongitudeDegrees>
            </Position>
            <AltitudeMeters>461.20001220703125</AltitudeMeters>
            <DistanceMeters>16681.380062222</DistanceMeters>
          </Trackpoint>
          <Trackpoint>
            <Time>2023-01-11T20:25:34.000Z</Time>
            <Position>
              <LatitudeDegrees>-49.22673015855252742767333984375</LatitudeDegrees>
              <LongitudeDegrees>-72.93861924670636653900146484375</LongitudeDegrees>
            </Position>
            <AltitudeMeters>461.20001220703125</AltitudeMeters>
            <DistanceMeters>16694.812820222</DistanceMeters>
          </Trackpoint>
          <Trackpoint>
            <Time>2023-01-11T20:25:37.000Z</Time>
            <Position>
              <LatitudeDegrees>-49.22679327428340911865234375</LatitudeDegrees>
              <LongitudeDegrees>-72.93844607658684253692626953125</LongitudeDegrees>
            </Position>
            <AltitudeMeters>461.20001220703125</AltitudeMeters>
            <DistanceMeters>16709.228094036</DistanceMeters>
          </Trackpoint>
          <Trackpoint>
            <Time>2023-01-11T20:25:38.000Z</Time>
            <Position>
              <LatitudeDegrees>-49.22681682743132114410400390625</LatitudeDegrees>
              <LongitudeDegrees>-72.938379943370819091796875</LongitudeDegrees>
            </Position>
            <AltitudeMeters>461.20001220703125</AltitudeMeters>
            <DistanceMeters>16714.702655545</DistanceMeters>
          </Trackpoint>
          <Trackpoint>
            <Time>2023-01-11T20:25:45.000Z</Time>
            <Position>
              <LatitudeDegrees>-49.22697524540126323699951171875</LatitudeDegrees>
              <LongitudeDegrees>-72.9378936253488063812255859375</LongitudeDegrees>
            </Position>
            <AltitudeMeters>461.20001220703125</AltitudeMeters>
            <DistanceMeters>16754.205204703</DistanceMeters>
          </Trackpoint>
          <Trackpoint>
            <Time>2023-01-11T20:25:49.000Z</Time>
            <Position>
              <LatitudeDegrees>-49.22707465477287769317626953125</LatitudeDegrees>
              <LongitudeDegrees>-72.93757368810474872589111328125</LongitudeDegrees>
            </Position>
            <AltitudeMeters>461.20001220703125</AltitudeMeters>
            <DistanceMeters>16779.95867155</DistanceMeters>
          </Trackpoint>
          <Trackpoint>
            <Time>2023-01-11T20:25:51.000Z</Time>
            <Position>
              <LatitudeDegrees>-49.22713718377053737640380859375</LatitudeDegrees>
              <LongitudeDegrees>-72.93742440640926361083984375</LongitudeDegrees>
            </Position>
            <AltitudeMeters>461.20001220703125</AltitudeMeters>
            <DistanceMeters>16792.849422759</DistanceMeters>
          </Trackpoint>
          <Trackpoint>
            <Time>2023-01-11T20:25:58.000Z</Time>
            <Position>
              <LatitudeDegrees>-49.22744848765432834625244140625</LatitudeDegrees>
              <LongitudeDegrees>-72.9368063248693943023681640625</LongitudeDegrees>
            </Position>
            <AltitudeMeters>461.20001220703125</AltitudeMeters>
            <DistanceMeters>16849.584987088</DistanceMeters>
          </Trackpoint>
          <Trackpoint>
            <Time>2023-01-11T20:26:01.000Z</Time>
            <Position>
              <LatitudeDegrees>-49.22758528031408786773681640625</LatitudeDegrees>
              <LongitudeDegrees>-72.936557047069072723388671875</LongitudeDegrees>
            </Position>
            <AltitudeMeters>461.20001220703125</AltitudeMeters>
            <DistanceMeters>16873.251790457</DistanceMeters>
          </Trackpoint>
          <Trackpoint>
            <Time>2023-01-11T20:26:03.000Z</Time>
            <Position>
              <LatitudeDegrees>-49.22766859643161296844482421875</LatitudeDegrees>
              <LongitudeDegrees>-72.9363858886063098907470703125</LongitudeDegrees>
            </Position>
            <AltitudeMeters>461.20001220703125</AltitudeMeters>
            <DistanceMeters>16888.768230066</DistanceMeters>
          </Trackpoint>
          <Trackpoint>
            <Time>2023-01-11T11:35:24.000Z</Time>
            <Position>
              <LatitudeDegrees>-49.2266013287007808685302734375</LatitudeDegrees>
              <LongitudeDegrees>-72.93864891864359378814697265625</LongitudeDegrees>
            </Position>
            <AltitudeMeters>449.20001220703125</AltitudeMeters>
            <DistanceMeters>17091.669225202</DistanceMeters>
          </Trackpoint>
          <Trackpoint>
            <Time>2023-01-11T11:35:25.000Z</Time>
            <Position>
              <LatitudeDegrees>-49.2266050167381763458251953125</LatitudeDegrees>
              <LongitudeDegrees>-72.93867431581020355224609375</LongitudeDegrees>
            </Position>
            <AltitudeMeters>449.20001220703125</AltitudeMeters>
            <DistanceMeters>17093.560232942</DistanceMeters>
          </Trackpoint>
          <Trackpoint>
            <Time>2023-01-11T11:35:26.000Z</Time>
            <Position>
              <LatitudeDegrees>-49.22661130316555500030517578125</LatitudeDegrees>
              <LongitudeDegrees>-72.93869518674910068511962890625</LongitudeDegrees>
            </Position>
            <AltitudeMeters>449.20001220703125</AltitudeMeters>
            <DistanceMeters>17095.233350899</DistanceMeters>
          </Trackpoint>
          <Trackpoint>
            <Time>2023-01-11T11:35:27.000Z</Time>
            <Position>
              <LatitudeDegrees>-49.22661767341196537017822265625</LatitudeDegrees>
              <LongitudeDegrees>-72.9387127049267292022705078125</LongitudeDegrees>
            </Position>
            <AltitudeMeters>449.399993896484375</AltitudeMeters>
            <DistanceMeters>17096.693178985</DistanceMeters>
          </Trackpoint>
          <Trackpoint>
            <Time>2023-01-11T11:35:28.000Z</Time>
            <Position>
              <LatitudeDegrees>-49.22662856988608837127685546875</LatitudeDegrees>
              <LongitudeDegrees>-72.9387318156659603118896484375</LongitudeDegrees>
            </Position>
            <AltitudeMeters>449.399993896484375</AltitudeMeters>
            <DistanceMeters>17098.535815342</DistanceMeters>
          </Trackpoint>
          <Trackpoint>
            <Time>2023-01-11T11:35:32.000Z</Time>
            <Position>
              <LatitudeDegrees>-49.2266532965004444122314453125</LatitudeDegrees>
              <LongitudeDegrees>-72.9387948475778102874755859375</LongitudeDegrees>
            </Position>
            <AltitudeMeters>449.600006103515625</AltitudeMeters>
            <DistanceMeters>17103.881015232</DistanceMeters>
          </Trackpoint>
          <Trackpoint>
            <Time>2023-01-11T11:35:39.000Z</Time>
            <Position>
              <LatitudeDegrees>-49.22666796483099460601806640625</LatitudeDegrees>
              <LongitudeDegrees>-72.93892510235309600830078125</LongitudeDegrees>
            </Position>
            <AltitudeMeters>449.79998779296875</AltitudeMeters>
            <DistanceMeters>17113.488587319</DistanceMeters>
          </Trackpoint>
          <Trackpoint>
            <Time>2023-01-11T11:35:41.000Z</Time>
            <Position>
              <LatitudeDegrees>-49.226666875183582305908203125</LatitudeDegrees>
              <LongitudeDegrees>-72.93896491639316082000732421875</LongitudeDegrees>
            </Position>
            <AltitudeMeters>449.79998779296875</AltitudeMeters>
            <DistanceMeters>17116.384954184</DistanceMeters>
          </Trackpoint>
          <Trackpoint>
            <Time>2023-01-11T11:35:44.000Z</Time>
            <Position>
              <LatitudeDegrees>-49.226662181317806243896484375</LatitudeDegrees>
              <LongitudeDegrees>-72.93902434408664703369140625</LongitudeDegrees>
            </Position>
            <AltitudeMeters>450.20001220703125</AltitudeMeters>
            <DistanceMeters>17120.735476018</DistanceMeters>
          </Trackpoint>
          <Trackpoint>
            <Time>2023-01-11T11:35:47.000Z</Time>
            <Position>
              <LatitudeDegrees>-49.22665790654718875885009765625</LatitudeDegrees>
              <LongitudeDegrees>-72.9390781559050083160400390625</LongitudeDegrees>
            </Position>
            <AltitudeMeters>450.399993896484375</AltitudeMeters>
            <DistanceMeters>17124.676507797</DistanceMeters>
          </Trackpoint>
          <Trackpoint>
            <Time>2023-01-11T11:35:54.000Z</Time>
            <Position>
              <LatitudeDegrees>-49.22664575278759002685546875</LatitudeDegrees>
              <LongitudeDegrees>-72.9392032139003276824951171875</LongitudeDegrees>
            </Position>
            <AltitudeMeters>450.399993896484375</AltitudeMeters>
            <DistanceMeters>17133.867119042</DistanceMeters>
          </Trackpoint>
          <Trackpoint>
            <Time>2023-01-11T11:36:03.000Z</Time>
            <Position>
              <LatitudeDegrees>-49.2266083694994449615478515625</LatitudeDegrees>
              <LongitudeDegrees>-72.93936188332736492156982421875</LongitudeDegrees>
            </Position>
            <AltitudeMeters>450.399993896484375</AltitudeMeters>
            <DistanceMeters>17146.128143169</DistanceMeters>
          </Trackpoint>
          <Trackpoint>
            <Time>2023-01-11T11:36:04.000Z</Time>
            <Position>
              <LatitudeDegrees>-49.22660275362432003021240234375</LatitudeDegrees>
              <LongitudeDegrees>-72.93938535265624523162841796875</LongitudeDegrees>
            </Position>
            <AltitudeMeters>450.399993896484375</AltitudeMeters>
            <DistanceMeters>17147.946111259</DistanceMeters>
          </Trackpoint>
          <Trackpoint>
            <Time>2023-01-11T11:36:07.000Z</Time>
            <Position>
              <LatitudeDegrees>-49.22659621573984622955322265625</LatitudeDegrees>
              <LongitudeDegrees>-72.93944100849330425262451171875</LongitudeDegrees>
            </Position>
            <AltitudeMeters>450.600006103515625</AltitudeMeters>
            <DistanceMeters>17152.055398661</DistanceMeters>
          </Trackpoint>
          <Trackpoint>
            <Time>2023-01-11T11:36:14.000Z</Time>
            <Position>
              <LatitudeDegrees>-49.22658448107540607452392578125</LatitudeDegrees>
              <LongitudeDegrees>-72.9395686648786067962646484375</LongitudeDegrees>
            </Position>
            <AltitudeMeters>450.399993896484375</AltitudeMeters>
            <DistanceMeters>17161.426015682</DistanceMeters>
          </Trackpoint>
          <Trackpoint>
            <Time>2023-01-11T11:36:23.000Z</Time>
            <Position>
              <LatitudeDegrees>-49.22658481635153293609619140625</LatitudeDegrees>
              <LongitudeDegrees>-72.93971425853669643402099609375</LongitudeDegrees>
            </Position>
            <AltitudeMeters>450.79998779296875</AltitudeMeters>
            <DistanceMeters>17172.009022727</DistanceMeters>
          </Trackpoint>
          <Trackpoint>
            <Time>2023-01-11T11:36:25.000Z</Time>
            <Position>
              <LatitudeDegrees>-49.22659269534051418304443359375</LatitudeDegrees>
              <LongitudeDegrees>-72.93973236344754695892333984375</LongitudeDegrees>
            </Position>
            <AltitudeMeters>450.79998779296875</AltitudeMeters>
            <DistanceMeters>17173.593434685</DistanceMeters>
          </Trackpoint>
          <Trackpoint>
            <Time>2023-01-11T11:36:34.000Z</Time>
            <Position>
              <LatitudeDegrees>-49.226603843271732330322265625</LatitudeDegrees>
              <LongitudeDegrees>-72.939852811396121978759765625</LongitudeDegrees>
            </Position>
            <AltitudeMeters>450.600006103515625</AltitudeMeters>
            <DistanceMeters>17182.436537195</DistanceMeters>
          </Trackpoint>
          <Trackpoint>
            <Time>2023-01-11T11:36:41.000Z</Time>
            <Position>
              <LatitudeDegrees>-49.22665354795753955841064453125</LatitudeDegrees>
              <LongitudeDegrees>-72.93996169231832027435302734375</LongitudeDegrees>
            </Position>
            <AltitudeMeters>450.600006103515625</AltitudeMeters>
            <DistanceMeters>17192.092859961</DistanceMeters>
          </Trackpoint>
          <Trackpoint>
            <Time>2023-01-11T11:36:42.000Z</Time>
            <Position>
              <LatitudeDegrees>-49.2266646958887577056884765625</LatitudeDegrees>
              <LongitudeDegrees>-72.93997661210596561431884765625</LongitudeDegrees>
            </Position>
            <AltitudeMeters>450.600006103515625</AltitudeMeters>
            <DistanceMeters>17193.741511838</DistanceMeters>
          </Trackpoint>
          <Trackpoint>
            <Time>2023-01-11T11:36:52.000Z</Time>
            <Position>
              <LatitudeDegrees>-49.22677340917289257049560546875</LatitudeDegrees>
              <LongitudeDegrees>-72.94007753022015094757080078125</LongitudeDegrees>
            </Position>
            <AltitudeMeters>451</AltitudeMeters>
            <DistanceMeters>17207.891560777</DistanceMeters>
          </Trackpoint>
          <Trackpoint>
            <Time>2023-01-11T11:36:56.000Z</Time>
            <Position>
              <LatitudeDegrees>-49.22682143747806549072265625</LatitudeDegrees>
              <LongitudeDegrees>-72.94011390767991542816162109375</LongitudeDegrees>
            </Position>
            <AltitudeMeters>451.20001220703125</AltitudeMeters>
            <DistanceMeters>17213.854818363</DistanceMeters>
          </Trackpoint>
          <Trackpoint>
            <Time>2023-01-11T11:36:57.000Z</Time>
            <Position>
              <LatitudeDegrees>-49.22683426178991794586181640625</LatitudeDegrees>
              <LongitudeDegrees>-72.940125726163387298583984375</LongitudeDegrees>
            </Position>
            <AltitudeMeters>451.20001220703125</AltitudeMeters>
            <DistanceMeters>17215.522530432</DistanceMeters>
          </Trackpoint>
          <Trackpoint>
            <Time>2023-01-11T11:37:02.000Z</Time>
            <Position>
              <LatitudeDegrees>-49.22689327038824558258056640625</LatitudeDegrees>
              <LongitudeDegrees>-72.94017501175403594970703125</LongitudeDegrees>
            </Position>
            <AltitudeMeters>451.399993896484375</AltitudeMeters>
            <DistanceMeters>17223.003734466</DistanceMeters>
          </Trackpoint>
          <Trackpoint>
            <Time>2023-01-11T11:37:11.000Z</Time>
            <Position>
              <LatitudeDegrees>-49.22699972055852413177490234375</LatitudeDegrees>
              <LongitudeDegrees>-72.94023812748491764068603515625</LongitudeDegrees>
            </Position>
            <AltitudeMeters>451.399993896484375</AltitudeMeters>
            <DistanceMeters>17235.708916342</DistanceMeters>
          </Trackpoint>
          <Trackpoint>
            <Time>2023-01-11T11:37:13.000Z</Time>
            <Position>
              <LatitudeDegrees>-49.227025620639324188232421875</LatitudeDegrees>
              <LongitudeDegrees>-72.9402695596218109130859375</LongitudeDegrees>
            </Position>
            <AltitudeMeters>451.600006103515625</AltitudeMeters>
            <DistanceMeters>17239.386830767</DistanceMeters>
          </Trackpoint>
          <Trackpoint>
            <Time>2023-01-11T11:37:16.000Z</Time>
            <Position>
              <LatitudeDegrees>-49.22706258483231067657470703125</LatitudeDegrees>
              <LongitudeDegrees>-72.940313816070556640625</LongitudeDegrees>
            </Position>
            <AltitudeMeters>451.399993896484375</AltitudeMeters>
            <DistanceMeters>17244.608978875</DistanceMeters>
          </Trackpoint>
          <Trackpoint>
            <Time>2023-01-11T11:37:19.000Z</Time>
            <Position>
              <LatitudeDegrees>-49.2270931787788867950439453125</LatitudeDegrees>
              <LongitudeDegrees>-72.94036620296537876129150390625</LongitudeDegrees>
            </Position>
            <AltitudeMeters>451.20001220703125</AltitudeMeters>
            <DistanceMeters>17249.716609524</DistanceMeters>
          </Trackpoint>
          <Trackpoint>
            <Time>2023-01-11T11:37:22.000Z</Time>
            <Position>
              <LatitudeDegrees>-49.22713114880025386810302734375</LatitudeDegrees>
              <LongitudeDegrees>-72.9404038377106189727783203125</LongitudeDegrees>
            </Position>
            <AltitudeMeters>451</AltitudeMeters>
            <DistanceMeters>17254.750335232</DistanceMeters>
          </Trackpoint>
          <Trackpoint>
            <Time>2023-01-11T11:37:29.000Z</Time>
            <Position>
              <LatitudeDegrees>-49.22720038332045078277587890625</LatitudeDegrees>
              <LongitudeDegrees>-72.94051087461411952972412109375</LongitudeDegrees>
            </Position>
            <AltitudeMeters>450.20001220703125</AltitudeMeters>
            <DistanceMeters>17265.700282949</DistanceMeters>
          </Trackpoint>
          <Trackpoint>
            <Time>2023-01-11T11:37:31.000Z</Time>
            <Position>
              <LatitudeDegrees>-49.22720541246235370635986328125</LatitudeDegrees>
              <LongitudeDegrees>-72.94054389931261539459228515625</LongitudeDegrees>
            </Position>
            <AltitudeMeters>450.20001220703125</AltitudeMeters>
            <DistanceMeters>17268.16365693</DistanceMeters>
          </Trackpoint>
          <Trackpoint>
            <Time>2023-01-11T11:37:36.000Z</Time>
            <Position>
              <LatitudeDegrees>-49.227205328643321990966796875</LatitudeDegrees>
              <LongitudeDegrees>-72.940595783293247222900390625</LongitudeDegrees>
            </Position>
            <AltitudeMeters>450.20001220703125</AltitudeMeters>
            <DistanceMeters>17271.934912742</DistanceMeters>
          </Trackpoint>
          <Trackpoint>
            <Time>2023-01-11T11:37:45.000Z</Time>
            <Position>
              <LatitudeDegrees>-49.2272008024156093597412109375</LatitudeDegrees>
              <LongitudeDegrees>-72.94063107110559940338134765625</LongitudeDegrees>
            </Position>
            <AltitudeMeters>450.20001220703125</AltitudeMeters>
            <DistanceMeters>17274.549442885</DistanceMeters>
          </Trackpoint>
          <Trackpoint>
            <Time>2023-01-11T11:37:49.000Z</Time>
            <Position>
              <LatitudeDegrees>-49.22723307274281978607177734375</LatitudeDegrees>
              <LongitudeDegrees>-72.94068002142012119293212890625</LongitudeDegrees>
            </Position>
            <AltitudeMeters>450.20001220703125</AltitudeMeters>
            <DistanceMeters>17279.605542806</DistanceMeters>
          </Trackpoint>
          <Trackpoint>
            <Time>2023-01-11T11:37:56.000Z</Time>
            <Position>
              <LatitudeDegrees>-49.227271713316440582275390625</LatitudeDegrees>
              <LongitudeDegrees>-72.94079837389290332794189453125</LongitudeDegrees>
            </Position>
            <AltitudeMeters>450.399993896484375</AltitudeMeters>
            <DistanceMeters>17289.223448144</DistanceMeters>
          </Trackpoint>
          <Trackpoint>
            <Time>2023-01-11T11:38:06.000Z</Time>
            <Position>
              <LatitudeDegrees>-49.22731789760291576385498046875</LatitudeDegrees>
              <LongitudeDegrees>-72.94098143465816974639892578125</LongitudeDegrees>
            </Position>
            <AltitudeMeters>450.600006103515625</AltitudeMeters>
            <DistanceMeters>17303.488220929</DistanceMeters>
          </Trackpoint>
          <Trackpoint>
            <Time>2023-01-11T11:38:08.000Z</Time>
            <Position>
              <LatitudeDegrees>-49.2273342423141002655029296875</LatitudeDegrees>
              <LongitudeDegrees>-72.94100758619606494903564453125</LongitudeDegrees>
            </Position>
            <AltitudeMeters>450.600006103515625</AltitudeMeters>
            <DistanceMeters>17306.121678487</DistanceMeters>
          </Trackpoint>
          <Trackpoint>
            <Time>2023-01-11T11:38:16.000Z</Time>
            <Position>
              <LatitudeDegrees>-49.22742602415382862091064453125</LatitudeDegrees>
              <LongitudeDegrees>-72.94109542854130268096923828125</LongitudeDegrees>
            </Position>
            <AltitudeMeters>450.600006103515625</AltitudeMeters>
            <DistanceMeters>17318.168727445</DistanceMeters>
          </Trackpoint>
          <Trackpoint>
            <Time>2023-01-11T11:38:22.000Z</Time>
            <Position>
              <LatitudeDegrees>-49.22747195698320865631103515625</LatitudeDegrees>
              <LongitudeDegrees>-72.9411880485713481903076171875</LongitudeDegrees>
            </Position>
            <AltitudeMeters>450.600006103515625</AltitudeMeters>
            <DistanceMeters>17326.62290127</DistanceMeters>
          </Trackpoint>
          <Trackpoint>
            <Time>2023-01-11T11:38:24.000Z</Time>
            <Position>
              <LatitudeDegrees>-49.22746977768838405609130859375</LatitudeDegrees>
              <LongitudeDegrees>-72.941238172352313995361328125</LongitudeDegrees>
            </Position>
            <AltitudeMeters>450.600006103515625</AltitudeMeters>
            <DistanceMeters>17330.274944931</DistanceMeters>
          </Trackpoint>
          <Trackpoint>
            <Time>2023-01-11T11:38:25.000Z</Time>
            <Position>
              <LatitudeDegrees>-49.22747564502060413360595703125</LatitudeDegrees>
              <LongitudeDegrees>-72.9412551037967205047607421875</LongitudeDegrees>
            </Position>
            <AltitudeMeters>450.79998779296875</AltitudeMeters>
            <DistanceMeters>17331.665065919</DistanceMeters>
          </Trackpoint>
          <Trackpoint>
            <Time>2023-01-11T11:38:26.000Z</Time>
            <Position>
              <LatitudeDegrees>-49.22748033888638019561767578125</LatitudeDegrees>
              <LongitudeDegrees>-72.94127278961241245269775390625</LongitudeDegrees>
            </Position>
            <AltitudeMeters>450.79998779296875</AltitudeMeters>
            <DistanceMeters>17333.051935156</DistanceMeters>
          </Trackpoint>
          <Trackpoint>
            <Time>2023-01-11T11:38:32.000Z</Time>
            <Position>
              <LatitudeDegrees>-49.22752962447702884674072265625</LatitudeDegrees>
              <LongitudeDegrees>-72.94135392643511295318603515625</LongitudeDegrees>
            </Position>
            <AltitudeMeters>450.79998779296875</AltitudeMeters>
            <DistanceMeters>17341.106255064</DistanceMeters>
          </Trackpoint>
          <Trackpoint>
            <Time>2023-01-11T11:38:33.000Z</Time>
            <Position>
              <LatitudeDegrees>-49.22754001803696155548095703125</LatitudeDegrees>
              <LongitudeDegrees>-72.94136524200439453125</LongitudeDegrees>
            </Position>
            <AltitudeMeters>450.79998779296875</AltitudeMeters>
            <DistanceMeters>17342.525306524</DistanceMeters>
          </Trackpoint>
          <Trackpoint>
            <Time>2023-01-11T11:38:42.000Z</Time>
            <Position>
              <LatitudeDegrees>-49.227642528712749481201171875</LatitudeDegrees>
              <LongitudeDegrees>-72.94138745404779911041259765625</LongitudeDegrees>
            </Position>
            <AltitudeMeters>451</AltitudeMeters>
            <DistanceMeters>17354.048250767</DistanceMeters>
          </Trackpoint>
          <Trackpoint>
            <Time>2023-01-11T11:38:45.000Z</Time>
            <Position>
              <LatitudeDegrees>-49.22766901552677154541015625</LatitudeDegrees>
              <LongitudeDegrees>-72.94141092337667942047119140625</LongitudeDegrees>
            </Position>
            <AltitudeMeters>450.79998779296875</AltitudeMeters>
            <DistanceMeters>17357.453337867</DistanceMeters>
          </Trackpoint>
          <Trackpoint>
            <Time>2023-01-11T11:38:46.000Z</Time>
            <Position>
              <LatitudeDegrees>-49.22767429612576961517333984375</LatitudeDegrees>
              <LongitudeDegrees>-72.941410839557647705078125</LongitudeDegrees>
            </Position>
            <AltitudeMeters>450.79998779296875</AltitudeMeters>
            <DistanceMeters>17358.039121875</DistanceMeters>
          </Trackpoint>
          <Trackpoint>
            <Time>2023-01-11T11:38:48.000Z</Time>
            <Position>
              <LatitudeDegrees>-49.22769256867468357086181640625</LatitudeDegrees>
              <LongitudeDegrees>-72.941415198147296905517578125</LongitudeDegrees>
            </Position>
            <AltitudeMeters>450.79998779296875</AltitudeMeters>
            <DistanceMeters>17360.099251951</DistanceMeters>
          </Trackpoint>
          <Trackpoint>
            <Time>2023-01-11T11:38:54.000Z</Time>
            <Position>
              <LatitudeDegrees>-49.22775350511074066162109375</LatitudeDegrees>
              <LongitudeDegrees>-72.94143707491457462310791015625</LongitudeDegrees>
            </Position>
            <AltitudeMeters>451.20001220703125</AltitudeMeters>
            <DistanceMeters>17367.065429584</DistanceMeters>
          </Trackpoint>
          <Trackpoint>
            <Time>2023-01-11T11:38:55.000Z</Time>
            <Position>
              <LatitudeDegrees>-49.227760545909404754638671875</LatitudeDegrees>
              <LongitudeDegrees>-72.94144830666482448577880859375</LongitudeDegrees>
            </Position>
            <AltitudeMeters>451.399993896484375</AltitudeMeters>
            <DistanceMeters>17368.197803575</DistanceMeters>
          </Trackpoint>
          <Trackpoint>
            <Time>2023-01-11T11:38:56.000Z</Time>
            <Position>
              <LatitudeDegrees>-49.2277684248983860015869140625</LatitudeDegrees>
              <LongitudeDegrees>-72.9414626397192478179931640625</LongitudeDegrees>
            </Position>
            <AltitudeMeters>451.399993896484375</AltitudeMeters>
            <DistanceMeters>17369.561693507</DistanceMeters>
          </Trackpoint>
          <Trackpoint>
            <Time>2023-01-11T11:39:05.000Z</Time>
            <Position>
              <LatitudeDegrees>-49.227845035493373870849609375</LatitudeDegrees>
              <LongitudeDegrees>-72.941556684672832489013671875</LongitudeDegrees>
            </Position>
            <AltitudeMeters>451.79998779296875</AltitudeMeters>
            <DistanceMeters>17380.490591947</DistanceMeters>
          </Trackpoint>
          <Trackpoint>
            <Time>2023-01-11T11:39:10.000Z</Time>
            <Position>
              <LatitudeDegrees>-49.22787747345864772796630859375</LatitudeDegrees>
              <LongitudeDegrees>-72.94162902049720287322998046875</LongitudeDegrees>
            </Position>
            <AltitudeMeters>452</AltitudeMeters>
            <DistanceMeters>17386.869426046</DistanceMeters>
          </Trackpoint>
          <Trackpoint>
            <Time>2023-01-11T11:39:15.000Z</Time>
            <Position>
              <LatitudeDegrees>-49.22789960168302059173583984375</LatitudeDegrees>
              <LongitudeDegrees>-72.941711582243442535400390625</LongitudeDegrees>
            </Position>
            <AltitudeMeters>452</AltitudeMeters>
            <DistanceMeters>17393.355651925</DistanceMeters>
          </Trackpoint>
          <Trackpoint>
            <Time>2023-01-11T11:39:17.000Z</Time>
            <Position>
              <LatitudeDegrees>-49.22790639102458953857421875</LatitudeDegrees>
              <LongitudeDegrees>-72.941748462617397308349609375</LongitudeDegrees>
            </Position>
            <AltitudeMeters>452</AltitudeMeters>
            <DistanceMeters>17396.13913995</DistanceMeters>
          </Trackpoint>
          <Trackpoint>
            <Time>2023-01-11T11:39:19.000Z</Time>
            <Position>
              <LatitudeDegrees>-49.2279122583568096160888671875</LatitudeDegrees>
              <LongitudeDegrees>-72.94178567826747894287109375</LongitudeDegrees>
            </Position>
            <AltitudeMeters>452</AltitudeMeters>
            <DistanceMeters>17398.919381925</DistanceMeters>
          </Trackpoint>
          <Trackpoint>
            <Time>2023-01-11T11:39:25.000Z</Time>
            <Position>
              <LatitudeDegrees>-49.2279142700135707855224609375</LatitudeDegrees>
              <LongitudeDegrees>-72.94189833104610443115234375</LongitudeDegrees>
            </Position>
            <AltitudeMeters>452.20001220703125</AltitudeMeters>
            <DistanceMeters>17407.110993369</DistanceMeters>
          </Trackpoint>
          <Trackpoint>
            <Time>2023-01-11T11:39:28.000Z</Time>
            <Position>
              <LatitudeDegrees>-49.2279244959354400634765625</LatitudeDegrees>
              <LongitudeDegrees>-72.941950969398021697998046875</LongitudeDegrees>
            </Position>
            <AltitudeMeters>452.20001220703125</AltitudeMeters>
            <DistanceMeters>17411.104377273</DistanceMeters>
          </Trackpoint>
          <Trackpoint>
            <Time>2023-01-11T11:39:30.000Z</Time>
            <Position>
              <LatitudeDegrees>-49.22793053090572357177734375</LatitudeDegrees>
              <LongitudeDegrees>-72.94198106043040752410888671875</LongitudeDegrees>
            </Position>
            <AltitudeMeters>452.399993896484375</AltitudeMeters>
            <DistanceMeters>17413.39292361</DistanceMeters>
          </Trackpoint>
          <Trackpoint>
            <Time>2023-01-11T11:39:32.000Z</Time>
            <Position>
              <LatitudeDegrees>-49.227941595017910003662109375</LatitudeDegrees>
              <LongitudeDegrees>-72.94200939126312732696533203125</LongitudeDegrees>
            </Position>
            <AltitudeMeters>452.399993896484375</AltitudeMeters>
            <DistanceMeters>17415.793171258</DistanceMeters>
          </Trackpoint>
          <Trackpoint>
            <Time>2023-01-11T11:39:36.000Z</Time>
            <Position>
              <LatitudeDegrees>-49.22795735299587249755859375</LatitudeDegrees>
              <LongitudeDegrees>-72.94207711704075336456298828125</LongitudeDegrees>
            </Position>
            <AltitudeMeters>452.399993896484375</AltitudeMeters>
            <DistanceMeters>17421.018776597</DistanceMeters>
          </Trackpoint>
          <Trackpoint>
            <Time>2023-01-11T11:39:39.000Z</Time>
            <Position>
              <LatitudeDegrees>-49.22796271741390228271484375</LatitudeDegrees>
              <LongitudeDegrees>-72.942125983536243438720703125</LongitudeDegrees>
            </Position>
            <AltitudeMeters>452.600006103515625</AltitudeMeters>
            <DistanceMeters>17424.62102865</DistanceMeters>
          </Trackpoint>
          <Trackpoint>
            <Time>2023-01-11T11:39:46.000Z</Time>
            <Position>
              <LatitudeDegrees>-49.22799364663660526275634765625</LatitudeDegrees>
              <LongitudeDegrees>-72.94225104153156280517578125</LongitudeDegrees>
            </Position>
            <AltitudeMeters>452.79998779296875</AltitudeMeters>
            <DistanceMeters>17434.340733365</DistanceMeters>
          </Trackpoint>
          <Trackpoint>
            <Time>2023-01-11T11:39:49.000Z</Time>
            <Position>
              <LatitudeDegrees>-49.22800705768167972564697265625</LatitudeDegrees>
              <LongitudeDegrees>-72.942306697368621826171875</LongitudeDegrees>
            </Position>
            <AltitudeMeters>452.79998779296875</AltitudeMeters>
            <DistanceMeters>17438.651637832</DistanceMeters>
          </Trackpoint>
          <Trackpoint>
            <Time>2023-01-11T11:40:01.000Z</Time>
            <Position>
              <LatitudeDegrees>-49.22806757502257823944091796875</LatitudeDegrees>
              <LongitudeDegrees>-72.94252504594624042510986328125</LongitudeDegrees>
            </Position>
            <AltitudeMeters>452.79998779296875</AltitudeMeters>
            <DistanceMeters>17455.892637118</DistanceMeters>
          </Trackpoint>
          <Trackpoint>
            <Time>2023-01-11T11:40:13.000Z</Time>
            <Position>
              <LatitudeDegrees>-49.228113256394863128662109375</LatitudeDegrees>
              <LongitudeDegrees>-72.9427484236657619476318359375</LongitudeDegrees>
            </Position>
            <AltitudeMeters>453</AltitudeMeters>
            <DistanceMeters>17472.906400091</DistanceMeters>
          </Trackpoint>
          <Trackpoint>
            <Time>2023-01-11T11:40:21.000Z</Time>
            <Position>
              <LatitudeDegrees>-49.22815424390137195587158203125</LatitudeDegrees>
              <LongitudeDegrees>-72.9428925924003124237060546875</LongitudeDegrees>
            </Position>
            <AltitudeMeters>453</AltitudeMeters>
            <DistanceMeters>17484.335708287</DistanceMeters>
          </Trackpoint>
          <Trackpoint>
            <Time>2023-01-11T11:40:25.000Z</Time>
            <Position>
              <LatitudeDegrees>-49.22817972488701343536376953125</LatitudeDegrees>
              <LongitudeDegrees>-72.94295302592217922210693359375</LongitudeDegrees>
            </Position>
            <AltitudeMeters>453</AltitudeMeters>
            <DistanceMeters>17489.56390505</DistanceMeters>
          </Trackpoint>
          <Trackpoint>
            <Time>2023-01-11T11:40:39.000Z</Time>
            <Position>
              <LatitudeDegrees>-49.22824040986597537994384765625</LatitudeDegrees>
              <LongitudeDegrees>-72.9431958496570587158203125</LongitudeDegrees>
            </Position>
            <AltitudeMeters>453</AltitudeMeters>
            <DistanceMeters>17508.461801581</DistanceMeters>
          </Trackpoint>
          <Trackpoint>
            <Time>2023-01-11T11:40:43.000Z</Time>
            <Position>
              <LatitudeDegrees>-49.228242002427577972412109375</LatitudeDegrees>
              <LongitudeDegrees>-72.94326759874820709228515625</LongitudeDegrees>
            </Position>
            <AltitudeMeters>453</AltitudeMeters>
            <DistanceMeters>17513.678759545</DistanceMeters>
          </Trackpoint>
          <Trackpoint>
            <Time>2023-01-11T11:40:51.000Z</Time>
            <Position>
              <LatitudeDegrees>-49.2282572574913501739501953125</LatitudeDegrees>
              <LongitudeDegrees>-72.94341822154819965362548828125</LongitudeDegrees>
            </Position>
            <AltitudeMeters>453</AltitudeMeters>
            <DistanceMeters>17524.757423681</DistanceMeters>
          </Trackpoint>
          <Trackpoint>
            <Time>2023-01-11T11:40:56.000Z</Time>
            <Position>
              <LatitudeDegrees>-49.22826454974710941314697265625</LatitudeDegrees>
              <LongitudeDegrees>-72.943513356149196624755859375</LongitudeDegrees>
            </Position>
            <AltitudeMeters>453.20001220703125</AltitudeMeters>
            <DistanceMeters>17531.719711405</DistanceMeters>
          </Trackpoint>
          <Trackpoint>
            <Time>2023-01-11T11:40:58.000Z</Time>
            <Position>
              <LatitudeDegrees>-49.22826723195612430572509765625</LatitudeDegrees>
              <LongitudeDegrees>-72.943551242351531982421875</LongitudeDegrees>
            </Position>
            <AltitudeMeters>453.399993896484375</AltitudeMeters>
            <DistanceMeters>17534.490192406</DistanceMeters>
          </Trackpoint>
          <Trackpoint>
            <Time>2023-01-11T11:41:07.000Z</Time>
            <Position>
              <LatitudeDegrees>-49.22826438210904598236083984375</LatitudeDegrees>
              <LongitudeDegrees>-72.94372935779392719268798828125</LongitudeDegrees>
            </Position>
            <AltitudeMeters>453.399993896484375</AltitudeMeters>
            <DistanceMeters>17547.440349923</DistanceMeters>
          </Trackpoint>
          <Trackpoint>
            <Time>2023-01-11T11:41:08.000Z</Time>
            <Position>
              <LatitudeDegrees>-49.228266142308712005615234375</LatitudeDegrees>
              <LongitudeDegrees>-72.94375031255185604095458984375</LongitudeDegrees>
            </Position>
            <AltitudeMeters>453.399993896484375</AltitudeMeters>
            <DistanceMeters>17548.972609651</DistanceMeters>
          </Trackpoint>
          <Trackpoint>
            <Time>2023-01-11T11:41:10.000Z</Time>
            <Position>
              <LatitudeDegrees>-49.22826706431806087493896484375</LatitudeDegrees>
              <LongitudeDegrees>-72.94378953985869884490966796875</LongitudeDegrees>
            </Position>
            <AltitudeMeters>453.600006103515625</AltitudeMeters>
            <DistanceMeters>17551.826576882</DistanceMeters>
          </Trackpoint>
          <Trackpoint>
            <Time>2023-01-11T11:41:11.000Z</Time>
            <Position>
              <LatitudeDegrees>-49.228264801204204559326171875</LatitudeDegrees>
              <LongitudeDegrees>-72.9438075609505176544189453125</LongitudeDegrees>
            </Position>
            <AltitudeMeters>453.600006103515625</AltitudeMeters>
            <DistanceMeters>17553.160340376</DistanceMeters>
          </Trackpoint>
          <Trackpoint>
            <Time>2023-01-11T11:41:17.000Z</Time>
            <Position>
              <LatitudeDegrees>-49.22825935296714305877685546875</LatitudeDegrees>
              <LongitudeDegrees>-72.943913005292415618896484375</LongitudeDegrees>
            </Position>
            <AltitudeMeters>453.20001220703125</AltitudeMeters>
            <DistanceMeters>17560.848700436</DistanceMeters>
          </Trackpoint>
          <Trackpoint>
            <Time>2023-01-11T11:41:21.000Z</Time>
            <Position>
              <LatitudeDegrees>-49.22825776040554046630859375</LatitudeDegrees>
              <LongitudeDegrees>-72.9439849220216274261474609375</LongitudeDegrees>
            </Position>
            <AltitudeMeters>453.399993896484375</AltitudeMeters>
            <DistanceMeters>17566.079487339</DistanceMeters>
          </Trackpoint>
          <Trackpoint>
            <Time>2023-01-11T11:41:30.000Z</Time>
            <Position>
              <LatitudeDegrees>-49.228256084024906158447265625</LatitudeDegrees>
              <LongitudeDegrees>-72.9441502131521701812744140625</LongitudeDegrees>
            </Position>
            <AltitudeMeters>453.600006103515625</AltitudeMeters>
            <DistanceMeters>17578.095013219</DistanceMeters>
          </Trackpoint>
          <Trackpoint>
            <Time>2023-01-11T11:41:34.000Z</Time>
            <Position>
              <LatitudeDegrees>-49.22825935296714305877685546875</LatitudeDegrees>
              <LongitudeDegrees>-72.944226153194904327392578125</LongitudeDegrees>
            </Position>
            <AltitudeMeters>453.399993896484375</AltitudeMeters>
            <DistanceMeters>17583.62618841</DistanceMeters>
          </Trackpoint>
          <Trackpoint>
            <Time>2023-01-11T11:41:35.000Z</Time>
            <Position>
              <LatitudeDegrees>-49.22826178371906280517578125</LatitudeDegrees>
              <LongitudeDegrees>-72.94423830695450305938720703125</LongitudeDegrees>
            </Position>
            <AltitudeMeters>453.399993896484375</AltitudeMeters>
            <DistanceMeters>17584.552394252</DistanceMeters>
          </Trackpoint>
          <Trackpoint>
            <Time>2023-01-11T11:41:38.000Z</Time>
            <Position>
              <LatitudeDegrees>-49.22827645204961299896240234375</LatitudeDegrees>
              <LongitudeDegrees>-72.944276444613933563232421875</LongitudeDegrees>
            </Position>
            <AltitudeMeters>453.399993896484375</AltitudeMeters>
            <DistanceMeters>17587.769297671</DistanceMeters>
          </Trackpoint>
          <Trackpoint>
            <Time>2023-01-11T11:41:39.000Z</Time>
            <Position>
              <LatitudeDegrees>-49.228280223906040191650390625</LatitudeDegrees>
              <LongitudeDegrees>-72.944294549524784088134765625</LongitudeDegrees>
            </Position>
            <AltitudeMeters>453.20001220703125</AltitudeMeters>
            <DistanceMeters>17589.149640429</DistanceMeters>
          </Trackpoint>
          <Trackpoint>
            <Time>2023-01-11T11:41:48.000Z</Time>
            <Position>
              <LatitudeDegrees>-49.2283394001424312591552734375</LatitudeDegrees>
              <LongitudeDegrees>-72.9444227926433086395263671875</LongitudeDegrees>
            </Position>
            <AltitudeMeters>452.79998779296875</AltitudeMeters>
            <DistanceMeters>17600.562740477</DistanceMeters>
          </Trackpoint>
          <Trackpoint>
            <Time>2023-01-11T11:41:54.000Z</Time>
            <Position>
              <LatitudeDegrees>-49.22839346341788768768310546875</LatitudeDegrees>
              <LongitudeDegrees>-72.94450183399021625518798828125</LongitudeDegrees>
            </Position>
            <AltitudeMeters>453</AltitudeMeters>
            <DistanceMeters>17608.882327963</DistanceMeters>
          </Trackpoint>
          <Trackpoint>
            <Time>2023-01-11T11:41:58.000Z</Time>
            <Position>
              <LatitudeDegrees>-49.22843185253441333770751953125</LatitudeDegrees>
              <LongitudeDegrees>-72.9445315897464752197265625</LongitudeDegrees>
            </Position>
            <AltitudeMeters>453.20001220703125</AltitudeMeters>
            <DistanceMeters>17613.671523529</DistanceMeters>
          </Trackpoint>
          <Trackpoint>
            <Time>2023-01-11T11:41:59.000Z</Time>
            <Position>
              <LatitudeDegrees>-49.228441826999187469482421875</LatitudeDegrees>
              <LongitudeDegrees>-72.94454005546867847442626953125</LongitudeDegrees>
            </Position>
            <AltitudeMeters>453.399993896484375</AltitudeMeters>
            <DistanceMeters>17614.942894318</DistanceMeters>
          </Trackpoint>
          <Trackpoint>
            <Time>2023-01-11T11:42:11.000Z</Time>
            <Position>
              <LatitudeDegrees>-49.22855691052973270416259765625</LatitudeDegrees>
              <LongitudeDegrees>-72.9446739144623279571533203125</LongitudeDegrees>
            </Position>
            <AltitudeMeters>453.79998779296875</AltitudeMeters>
            <DistanceMeters>17631.028253511</DistanceMeters>
          </Trackpoint>
          <Trackpoint>
            <Time>2023-01-11T11:42:24.000Z</Time>
            <Position>
              <LatitudeDegrees>-49.22865866683423519134521484375</LatitudeDegrees>
              <LongitudeDegrees>-72.94485010206699371337890625</LongitudeDegrees>
            </Position>
            <AltitudeMeters>454</AltitudeMeters>
            <DistanceMeters>17648.124084996</DistanceMeters>
          </Trackpoint>
          <Trackpoint>
            <Time>2023-01-11T11:42:28.000Z</Time>
            <Position>
              <LatitudeDegrees>-49.22869085334241390228271484375</LatitudeDegrees>
              <LongitudeDegrees>-72.9449079371988773345947265625</LongitudeDegrees>
            </Position>
            <AltitudeMeters>454.20001220703125</AltitudeMeters>
            <DistanceMeters>17653.647091263</DistanceMeters>
          </Trackpoint>
          <Trackpoint>
            <Time>2023-01-11T11:42:31.000Z</Time>
            <Position>
              <LatitudeDegrees>-49.22871239483356475830078125</LatitudeDegrees>
              <LongitudeDegrees>-72.9449542053043842315673828125</LongitudeDegrees>
            </Position>
            <AltitudeMeters>454.399993896484375</AltitudeMeters>
            <DistanceMeters>17657.77829502</DistanceMeters>
          </Trackpoint>
          <Trackpoint>
            <Time>2023-01-11T11:42:35.000Z</Time>
            <Position>
              <LatitudeDegrees>-49.2287420667707920074462890625</LatitudeDegrees>
              <LongitudeDegrees>-72.94501245953142642974853515625</LongitudeDegrees>
            </Position>
            <AltitudeMeters>454.20001220703125</AltitudeMeters>
            <DistanceMeters>17663.147935053</DistanceMeters>
          </Trackpoint>
          <Trackpoint>
            <Time>2023-01-11T11:42:40.000Z</Time>
            <Position>
              <LatitudeDegrees>-49.2287702299654483795166015625</LatitudeDegrees>
              <LongitudeDegrees>-72.9450822807848453521728515625</LongitudeDegrees>
            </Position>
            <AltitudeMeters>454.20001220703125</AltitudeMeters>
            <DistanceMeters>17669.112706733</DistanceMeters>
          </Trackpoint>
          <Trackpoint>
            <Time>2023-01-11T11:42:42.000Z</Time>
            <Position>
              <LatitudeDegrees>-49.22878213226795196533203125</LatitudeDegrees>
              <LongitudeDegrees>-72.94511790387332439422607421875</LongitudeDegrees>
            </Position>
            <AltitudeMeters>454.399993896484375</AltitudeMeters>
            <DistanceMeters>17672.019965158</DistanceMeters>
          </Trackpoint>
          <Trackpoint>
            <Time>2023-01-11T11:42:48.000Z</Time>
            <Position>
              <LatitudeDegrees>-49.22882261686027050018310546875</LatitudeDegrees>
              <LongitudeDegrees>-72.9452026449143886566162109375</LongitudeDegrees>
            </Position>
            <AltitudeMeters>454.20001220703125</AltitudeMeters>
            <DistanceMeters>17679.651740382</DistanceMeters>
          </Trackpoint>
          <Trackpoint>
            <Time>2023-01-11T11:42:53.000Z</Time>
            <Position>
              <LatitudeDegrees>-49.22886301763355731964111328125</LatitudeDegrees>
              <LongitudeDegrees>-72.94527431018650531768798828125</LongitudeDegrees>
            </Position>
            <AltitudeMeters>454.399993896484375</AltitudeMeters>
            <DistanceMeters>17686.533144372</DistanceMeters>
          </Trackpoint>
          <Trackpoint>
            <Time>2023-01-11T11:43:02.000Z</Time>
            <Position>
              <LatitudeDegrees>-49.22893962822854518890380859375</LatitudeDegrees>
              <LongitudeDegrees>-72.945376150310039520263671875</LongitudeDegrees>
            </Position>
            <AltitudeMeters>454.600006103515625</AltitudeMeters>
            <DistanceMeters>17697.824941367</DistanceMeters>
          </Trackpoint>
          <Trackpoint>
            <Time>2023-01-11T11:43:14.000Z</Time>
            <Position>
              <LatitudeDegrees>-49.22904389910399913787841796875</LatitudeDegrees>
              <LongitudeDegrees>-72.94552199542522430419921875</LongitudeDegrees>
            </Position>
            <AltitudeMeters>454.79998779296875</AltitudeMeters>
            <DistanceMeters>17713.543175731</DistanceMeters>
          </Trackpoint>
          <Trackpoint>
            <Time>2023-01-11T11:43:15.000Z</Time>
            <Position>
              <LatitudeDegrees>-49.229056052863597869873046875</LatitudeDegrees>
              <LongitudeDegrees>-72.94553331099450588226318359375</LongitudeDegrees>
            </Position>
            <AltitudeMeters>454.79998779296875</AltitudeMeters>
            <DistanceMeters>17715.124735459</DistanceMeters>
          </Trackpoint>
          <Trackpoint>
            <Time>2023-01-11T11:43:18.000Z</Time>
            <Position>
              <LatitudeDegrees>-49.229087568819522857666015625</LatitudeDegrees>
              <LongitudeDegrees>-72.94556348584592342376708984375</LongitudeDegrees>
            </Position>
            <AltitudeMeters>454.79998779296875</AltitudeMeters>
            <DistanceMeters>17719.260308549</DistanceMeters>
          </Trackpoint>
          <Trackpoint>
            <Time>2023-01-11T11:43:26.000Z</Time>
            <Position>
              <LatitudeDegrees>-49.22917264513671398162841796875</LatitudeDegrees>
              <LongitudeDegrees>-72.9456361569464206695556640625</LongitudeDegrees>
            </Position>
            <AltitudeMeters>455</AltitudeMeters>
            <DistanceMeters>17730.102519355</DistanceMeters>
          </Trackpoint>
          <Trackpoint>
            <Time>2023-01-11T11:43:31.000Z</Time>
            <Position>
              <LatitudeDegrees>-49.22921933233737945556640625</LatitudeDegrees>
              <LongitudeDegrees>-72.94568418525159358978271484375</LongitudeDegrees>
            </Position>
            <AltitudeMeters>455</AltitudeMeters>
            <DistanceMeters>17736.362753517</DistanceMeters>
          </Trackpoint>
          <Trackpoint>
            <Time>2023-01-11T11:43:37.000Z</Time>
            <Position>
              <LatitudeDegrees>-49.2292795144021511077880859375</LatitudeDegrees>
              <LongitudeDegrees>-72.945730872452259063720703125</LongitudeDegrees>
            </Position>
            <AltitudeMeters>455</AltitudeMeters>
            <DistanceMeters>17743.87166804</DistanceMeters>
          </Trackpoint>
          <Trackpoint>
            <Time>2023-01-11T11:43:47.000Z</Time>
            <Position>
              <LatitudeDegrees>-49.229385964572429656982421875</LatitudeDegrees>
              <LongitudeDegrees>-72.94581477530300617218017578125</LongitudeDegrees>
            </Position>
            <AltitudeMeters>455</AltitudeMeters>
            <DistanceMeters>17757.197110742</DistanceMeters>
          </Trackpoint>
          <Trackpoint>
            <Time>2023-01-11T11:43:56.000Z</Time>
            <Position>
              <LatitudeDegrees>-49.22948093153536319732666015625</LatitudeDegrees>
              <LongitudeDegrees>-72.9458919726312160491943359375</LongitudeDegrees>
            </Position>
            <AltitudeMeters>455</AltitudeMeters>
            <DistanceMeters>17769.164441789</DistanceMeters>
          </Trackpoint>
          <Trackpoint>
            <Time>2023-01-11T11:43:58.000Z</Time>
            <Position>
              <LatitudeDegrees>-49.22949886880815029144287109375</LatitudeDegrees>
              <LongitudeDegrees>-72.9459120891988277435302734375</LongitudeDegrees>
            </Position>
            <AltitudeMeters>455</AltitudeMeters>
            <DistanceMeters>17771.638788537</DistanceMeters>
          </Trackpoint>
          <Trackpoint>
            <Time>2023-01-11T11:44:11.000Z</Time>
            <Position>
              <LatitudeDegrees>-49.22963767312467098236083984375</LatitudeDegrees>
              <LongitudeDegrees>-72.94602080248296260833740234375</LongitudeDegrees>
            </Position>
            <AltitudeMeters>455.20001220703125</AltitudeMeters>
            <DistanceMeters>17788.991509624</DistanceMeters>
          </Trackpoint>
          <Trackpoint>
            <Time>2023-01-11T11:44:22.000Z</Time>
            <Position>
              <LatitudeDegrees>-49.22976474277675151824951171875</LatitudeDegrees>
              <LongitudeDegrees>-72.9461140930652618408203125</LongitudeDegrees>
            </Position>
            <AltitudeMeters>455.20001220703125</AltitudeMeters>
            <DistanceMeters>17804.676387775</DistanceMeters>
          </Trackpoint>
          <Trackpoint>
            <Time>2023-01-11T11:44:32.000Z</Time>
            <Position>
              <LatitudeDegrees>-49.229872785508632659912109375</LatitudeDegrees>
              <LongitudeDegrees>-72.94619522988796234130859375</LongitudeDegrees>
            </Position>
            <AltitudeMeters>455</AltitudeMeters>
            <DistanceMeters>17818.06976183</DistanceMeters>
          </Trackpoint>
          <Trackpoint>
            <Time>2023-01-11T11:44:34.000Z</Time>
            <Position>
              <LatitudeDegrees>-49.2298944108188152313232421875</LatitudeDegrees>
              <LongitudeDegrees>-72.94621207751333713531494140625</LongitudeDegrees>
            </Position>
            <AltitudeMeters>455.20001220703125</AltitudeMeters>
            <DistanceMeters>17820.770928572</DistanceMeters>
          </Trackpoint>
          <Trackpoint>
            <Time>2023-01-11T11:44:40.000Z</Time>
            <Position>
              <LatitudeDegrees>-49.22992332838475704193115234375</LatitudeDegrees>
              <LongitudeDegrees>-72.9463372193276882171630859375</LongitudeDegrees>
            </Position>
            <AltitudeMeters>455.399993896484375</AltitudeMeters>
            <DistanceMeters>17830.418831348</DistanceMeters>
          </Trackpoint>
          <Trackpoint>
            <Time>2023-01-11T11:44:46.000Z</Time>
            <Position>
              <LatitudeDegrees>-49.22993791289627552032470703125</LatitudeDegrees>
              <LongitudeDegrees>-72.94644509442150592803955078125</LongitudeDegrees>
            </Position>
            <AltitudeMeters>455.20001220703125</AltitudeMeters>
            <DistanceMeters>17838.425360726</DistanceMeters>
          </Trackpoint>
          <Trackpoint>
            <Time>2023-01-11T11:44:48.000Z</Time>
            <Position>
              <LatitudeDegrees>-49.22995266504585742950439453125</LatitudeDegrees>
              <LongitudeDegrees>-72.94646923430263996124267578125</LongitudeDegrees>
            </Position>
            <AltitudeMeters>455.20001220703125</AltitudeMeters>
            <DistanceMeters>17840.827488709</DistanceMeters>
          </Trackpoint>
          <Trackpoint>
            <Time>2023-01-11T11:44:56.000Z</Time>
            <Position>
              <LatitudeDegrees>-49.2300308682024478912353515625</LatitudeDegrees>
              <LongitudeDegrees>-72.94653478078544139862060546875</LongitudeDegrees>
            </Position>
            <AltitudeMeters>455.20001220703125</AltitudeMeters>
            <DistanceMeters>17850.750389169</DistanceMeters>
          </Trackpoint>
          <Trackpoint>
            <Time>2023-01-11T11:44:58.000Z</Time>
            <Position>
              <LatitudeDegrees>-49.2300409264862537384033203125</LatitudeDegrees>
              <LongitudeDegrees>-72.9465742595493793487548828125</LongitudeDegrees>
            </Position>
            <AltitudeMeters>455.20001220703125</AltitudeMeters>
            <DistanceMeters>17853.829606645</DistanceMeters>
          </Trackpoint>
          <Trackpoint>
            <Time>2023-01-11T11:45:03.000Z</Time>
            <Position>
              <LatitudeDegrees>-49.2300352267920970916748046875</LatitudeDegrees>
              <LongitudeDegrees>-72.9466899298131465911865234375</LongitudeDegrees>
            </Position>
            <AltitudeMeters>455.20001220703125</AltitudeMeters>
            <DistanceMeters>17862.261320104</DistanceMeters>
          </Trackpoint>
          <Trackpoint>
            <Time>2023-01-11T11:45:07.000Z</Time>
            <Position>
              <LatitudeDegrees>-49.23002860508859157562255859375</LatitudeDegrees>
              <LongitudeDegrees>-72.9467543028295040130615234375</LongitudeDegrees>
            </Position>
            <AltitudeMeters>455.20001220703125</AltitudeMeters>
            <DistanceMeters>17866.99838037</DistanceMeters>
          </Trackpoint>
          <Trackpoint>
            <Time>2023-01-11T11:45:09.000Z</Time>
            <Position>
              <LatitudeDegrees>-49.23003740608692169189453125</LatitudeDegrees>
              <LongitudeDegrees>-72.9467898420989513397216796875</LongitudeDegrees>
            </Position>
            <AltitudeMeters>455.20001220703125</AltitudeMeters>
            <DistanceMeters>17869.759065886</DistanceMeters>
          </Trackpoint>
          <Trackpoint>
            <Time>2023-01-11T11:45:14.000Z</Time>
            <Position>
              <LatitudeDegrees>-49.23005886375904083251953125</LatitudeDegrees>
              <LongitudeDegrees>-72.94687961228191852569580078125</LongitudeDegrees>
            </Position>
            <AltitudeMeters>455</AltitudeMeters>
            <DistanceMeters>17876.707071979</DistanceMeters>
          </Trackpoint>
          <Trackpoint>
            <Time>2023-01-11T11:45:18.000Z</Time>
            <Position>
              <LatitudeDegrees>-49.230074621737003326416015625</LatitudeDegrees>
              <LongitudeDegrees>-72.94695253483951091766357421875</LongitudeDegrees>
            </Position>
            <AltitudeMeters>455</AltitudeMeters>
            <DistanceMeters>17882.29024526</DistanceMeters>
          </Trackpoint>
          <Trackpoint>
            <Time>2023-01-11T11:45:26.000Z</Time>
            <Position>
              <LatitudeDegrees>-49.23012700863182544708251953125</LatitudeDegrees>
              <LongitudeDegrees>-72.94706694781780242919921875</LongitudeDegrees>
            </Position>
            <AltitudeMeters>455</AltitudeMeters>
            <DistanceMeters>17892.446551834</DistanceMeters>
          </Trackpoint>
          <Trackpoint>
            <Time>2023-01-11T11:45:29.000Z</Time>
            <Position>
              <LatitudeDegrees>-49.23016615211963653564453125</LatitudeDegrees>
              <LongitudeDegrees>-72.94706904329359531402587890625</LongitudeDegrees>
            </Position>
            <AltitudeMeters>455</AltitudeMeters>
            <DistanceMeters>17896.805368283</DistanceMeters>
          </Trackpoint>
          <Trackpoint>
            <Time>2023-01-11T11:45:33.000Z</Time>
            <Position>
              <LatitudeDegrees>-49.230212755501270294189453125</LatitudeDegrees>
              <LongitudeDegrees>-72.94707273133099079132080078125</LongitudeDegrees>
            </Position>
            <AltitudeMeters>455</AltitudeMeters>
            <DistanceMeters>17901.9997757</DistanceMeters>
          </Trackpoint>
          <Trackpoint>
            <Time>2023-01-11T11:45:36.000Z</Time>
            <Position>
              <LatitudeDegrees>-49.23024854622781276702880859375</LatitudeDegrees>
              <LongitudeDegrees>-72.94708312489092350006103515625</LongitudeDegrees>
            </Position>
            <AltitudeMeters>455</AltitudeMeters>
            <DistanceMeters>17906.053753885</DistanceMeters>
          </Trackpoint>
          <Trackpoint>
            <Time>2023-01-11T11:45:41.000Z</Time>
            <Position>
              <LatitudeDegrees>-49.230302609503269195556640625</LatitudeDegrees>
              <LongitudeDegrees>-72.94709301553666591644287109375</LongitudeDegrees>
            </Position>
            <AltitudeMeters>455</AltitudeMeters>
            <DistanceMeters>17912.113150788</DistanceMeters>
          </Trackpoint>
          <Trackpoint>
            <Time>2023-01-11T11:45:47.000Z</Time>
            <Position>
              <LatitudeDegrees>-49.2303731851279735565185546875</LatitudeDegrees>
              <LongitudeDegrees>-72.94709167443215847015380859375</LongitudeDegrees>
            </Position>
            <AltitudeMeters>455</AltitudeMeters>
            <DistanceMeters>17919.969969646</DistanceMeters>
          </Trackpoint>
          <Trackpoint>
            <Time>2023-01-11T11:45:53.000Z</Time>
            <Position>
              <LatitudeDegrees>-49.23043546266853809356689453125</LatitudeDegrees>
              <LongitudeDegrees>-72.94710676185786724090576171875</LongitudeDegrees>
            </Position>
            <AltitudeMeters>455</AltitudeMeters>
            <DistanceMeters>17926.987806701</DistanceMeters>
          </Trackpoint>
          <Trackpoint>
            <Time>2023-01-11T11:45:56.000Z</Time>
            <Position>
              <LatitudeDegrees>-49.2304618656635284423828125</LatitudeDegrees>
              <LongitudeDegrees>-72.94711053371429443359375</LongitudeDegrees>
            </Position>
            <AltitudeMeters>455</AltitudeMeters>
            <DistanceMeters>17929.93822933</DistanceMeters>
          </Trackpoint>
          <Trackpoint>
            <Time>2023-01-11T11:46:02.000Z</Time>
            <Position>
              <LatitudeDegrees>-49.23046521842479705810546875</LatitudeDegrees>
              <LongitudeDegrees>-72.9471103660762310028076171875</LongitudeDegrees>
            </Position>
            <AltitudeMeters>455</AltitudeMeters>
            <DistanceMeters>17930.293786738</DistanceMeters>
          </Trackpoint>
          <Trackpoint>
            <Time>2023-01-11T11:46:09.000Z</Time>
            <Position>
              <LatitudeDegrees>-49.2305088043212890625</LatitudeDegrees>
              <LongitudeDegrees>-72.94711179099977016448974609375</LongitudeDegrees>
            </Position>
            <AltitudeMeters>455</AltitudeMeters>
            <DistanceMeters>17935.145735757</DistanceMeters>
          </Trackpoint>
          <Trackpoint>
            <Time>2023-01-11T11:46:13.000Z</Time>
            <Position>
              <LatitudeDegrees>-49.2305582575500011444091796875</LatitudeDegrees>
              <LongitudeDegrees>-72.94711480848491191864013671875</LongitudeDegrees>
            </Position>
            <AltitudeMeters>455</AltitudeMeters>
            <DistanceMeters>17940.654007433</DistanceMeters>
          </Trackpoint>
          <Trackpoint>
            <Time>2023-01-11T11:46:16.000Z</Time>
            <Position>
              <LatitudeDegrees>-49.23059304244816303253173828125</LatitudeDegrees>
              <LongitudeDegrees>-72.94711112044751644134521484375</LongitudeDegrees>
            </Position>
            <AltitudeMeters>455</AltitudeMeters>
            <DistanceMeters>17944.535008271</DistanceMeters>
          </Trackpoint>
          <Trackpoint>
            <Time>2023-01-11T11:46:23.000Z</Time>
            <Position>
              <LatitudeDegrees>-49.23068457283079624176025390625</LatitudeDegrees>
              <LongitudeDegrees>-72.94708278961479663848876953125</LongitudeDegrees>
            </Position>
            <AltitudeMeters>455</AltitudeMeters>
            <DistanceMeters>17954.929037066</DistanceMeters>
          </Trackpoint>
          <Trackpoint>
            <Time>2023-01-11T11:46:32.000Z</Time>
            <Position>
              <LatitudeDegrees>-49.23080879263579845428466796875</LatitudeDegrees>
              <LongitudeDegrees>-72.94713408686220645904541015625</LongitudeDegrees>
            </Position>
            <AltitudeMeters>455</AltitudeMeters>
            <DistanceMeters>17969.24909314</DistanceMeters>
          </Trackpoint>
          <Trackpoint>
            <Time>2023-01-11T11:46:37.000Z</Time>
            <Position>
              <LatitudeDegrees>-49.2308492772281169891357421875</LatitudeDegrees>
              <LongitudeDegrees>-72.94719929806888103485107421875</LongitudeDegrees>
            </Position>
            <AltitudeMeters>455</AltitudeMeters>
            <DistanceMeters>17975.788698788</DistanceMeters>
          </Trackpoint>
          <Trackpoint>
            <Time>2023-01-11T11:46:39.000Z</Time>
            <Position>
              <LatitudeDegrees>-49.2308670468628406524658203125</LatitudeDegrees>
              <LongitudeDegrees>-72.9472137987613677978515625</LongitudeDegrees>
            </Position>
            <AltitudeMeters>455</AltitudeMeters>
            <DistanceMeters>17978.029395667</DistanceMeters>
          </Trackpoint>
          <Trackpoint>
            <Time>2023-01-11T11:46:46.000Z</Time>
            <Position>
              <LatitudeDegrees>-49.23095011152327060699462890625</LatitudeDegrees>
              <LongitudeDegrees>-72.94722997583448886871337890625</LongitudeDegrees>
            </Position>
            <AltitudeMeters>455</AltitudeMeters>
            <DistanceMeters>17987.348798826</DistanceMeters>
          </Trackpoint>
          <Trackpoint>
            <Time>2023-01-11T11:46:47.000Z</Time>
            <Position>
              <LatitudeDegrees>-49.2309607565402984619140625</LatitudeDegrees>
              <LongitudeDegrees>-72.94722712598741054534912109375</LongitudeDegrees>
            </Position>
            <AltitudeMeters>455</AltitudeMeters>
            <DistanceMeters>17988.55080225</DistanceMeters>
          </Trackpoint>
          <Trackpoint>
            <Time>2023-01-11T11:46:53.000Z</Time>
            <Position>
              <LatitudeDegrees>-49.2310387082397937774658203125</LatitudeDegrees>
              <LongitudeDegrees>-72.94721991755068302154541015625</LongitudeDegrees>
            </Position>
            <AltitudeMeters>455</AltitudeMeters>
            <DistanceMeters>17997.242500561</DistanceMeters>
          </Trackpoint>
          <Trackpoint>
            <Time>2023-01-11T11:47:00.000Z</Time>
            <Position>
              <LatitudeDegrees>-49.23112110234797000885009765625</LatitudeDegrees>
              <LongitudeDegrees>-72.9472585581243038177490234375</LongitudeDegrees>
            </Position>
            <AltitudeMeters>455</AltitudeMeters>
            <DistanceMeters>18006.833610441</DistanceMeters>
          </Trackpoint>
          <Trackpoint>
            <Time>2023-01-11T11:47:12.000Z</Time>
            <Position>
              <LatitudeDegrees>-49.231256805360317230224609375</LatitudeDegrees>
              <LongitudeDegrees>-72.947382442653179168701171875</LongitudeDegrees>
            </Position>
            <AltitudeMeters>455</AltitudeMeters>
            <DistanceMeters>18024.41791815</DistanceMeters>
          </Trackpoint>
          <Trackpoint>
            <Time>2023-01-11T11:47:25.000Z</Time>
            <Position>
              <LatitudeDegrees>-49.23139519058167934417724609375</LatitudeDegrees>
              <LongitudeDegrees>-72.94744723476469516754150390625</LongitudeDegrees>
            </Position>
            <AltitudeMeters>455</AltitudeMeters>
            <DistanceMeters>18040.524315515</DistanceMeters>
          </Trackpoint>
          <Trackpoint>
            <Time>2023-01-11T11:47:27.000Z</Time>
            <Position>
              <LatitudeDegrees>-49.231415726244449615478515625</LatitudeDegrees>
              <LongitudeDegrees>-72.947456203401088714599609375</LongitudeDegrees>
            </Position>
            <AltitudeMeters>455</AltitudeMeters>
            <DistanceMeters>18042.901883149</DistanceMeters>
          </Trackpoint>
          <Trackpoint>
            <Time>2023-01-11T11:47:38.000Z</Time>
            <Position>
              <LatitudeDegrees>-49.23155427910387516021728515625</LatitudeDegrees>
              <LongitudeDegrees>-72.94752820394933223724365234375</LongitudeDegrees>
            </Position>
            <AltitudeMeters>455</AltitudeMeters>
            <DistanceMeters>18059.186700772</DistanceMeters>
          </Trackpoint>
          <Trackpoint>
            <Time>2023-01-11T11:47:43.000Z</Time>
            <Position>
              <LatitudeDegrees>-49.2316267825663089752197265625</LatitudeDegrees>
              <LongitudeDegrees>-72.9475437104701995849609375</LongitudeDegrees>
            </Position>
            <AltitudeMeters>455</AltitudeMeters>
            <DistanceMeters>18067.334652785</DistanceMeters>
          </Trackpoint>
          <Trackpoint>
            <Time>2023-01-11T11:47:44.000Z</Time>
            <Position>
              <LatitudeDegrees>-49.231638349592685699462890625</LatitudeDegrees>
              <LongitudeDegrees>-72.947547398507595062255859375</LongitudeDegrees>
            </Position>
            <AltitudeMeters>455</AltitudeMeters>
            <DistanceMeters>18068.651381564</DistanceMeters>
          </Trackpoint>
          <Trackpoint>
            <Time>2023-01-11T11:47:46.000Z</Time>
            <Position>
              <LatitudeDegrees>-49.231659136712551116943359375</LatitudeDegrees>
              <LongitudeDegrees>-72.9475509189069271087646484375</LongitudeDegrees>
            </Position>
            <AltitudeMeters>455</AltitudeMeters>
            <DistanceMeters>18070.979051186</DistanceMeters>
          </Trackpoint>
          <Trackpoint>
            <Time>2023-01-11T11:47:59.000Z</Time>
            <Position>
              <LatitudeDegrees>-49.23182216472923755645751953125</LatitudeDegrees>
              <LongitudeDegrees>-72.94757346622645854949951171875</LongitudeDegrees>
            </Position>
            <AltitudeMeters>455</AltitudeMeters>
            <DistanceMeters>18089.197930128</DistanceMeters>
          </Trackpoint>
          <Trackpoint>
            <Time>2023-01-11T11:48:10.000Z</Time>
            <Position>
              <LatitudeDegrees>-49.23194579780101776123046875</LatitudeDegrees>
              <LongitudeDegrees>-72.94759894721210002899169921875</LongitudeDegrees>
            </Position>
            <AltitudeMeters>455</AltitudeMeters>
            <DistanceMeters>18103.082890772</DistanceMeters>
          </Trackpoint>
          <Trackpoint>
            <Time>2023-01-11T11:48:14.000Z</Time>
            <Position>
              <LatitudeDegrees>-49.231985025107860565185546875</LatitudeDegrees>
              <LongitudeDegrees>-72.9476132802665233612060546875</LongitudeDegrees>
            </Position>
            <AltitudeMeters>458</AltitudeMeters>
            <DistanceMeters>18107.571331542</DistanceMeters>
          </Trackpoint>
          <Trackpoint>
            <Time>2023-01-11T11:48:20.000Z</Time>
            <Position>
              <LatitudeDegrees>-49.23205048777163028717041015625</LatitudeDegrees>
              <LongitudeDegrees>-72.94763825833797454833984375</LongitudeDegrees>
            </Position>
            <AltitudeMeters>457.79998779296875</AltitudeMeters>
            <DistanceMeters>18115.080246065</DistanceMeters>
          </Trackpoint>
          <Trackpoint>
            <Time>2023-01-11T11:48:29.000Z</Time>
            <Position>
              <LatitudeDegrees>-49.23214252106845378875732421875</LatitudeDegrees>
              <LongitudeDegrees>-72.9476759769022464752197265625</LongitudeDegrees>
            </Position>
            <AltitudeMeters>457.79998779296875</AltitudeMeters>
            <DistanceMeters>18125.684563203</DistanceMeters>
          </Trackpoint>
          <Trackpoint>
            <Time>2023-01-11T11:48:38.000Z</Time>
            <Position>
              <LatitudeDegrees>-49.23223706893622875213623046875</LatitudeDegrees>
              <LongitudeDegrees>-72.9477296210825443267822265625</LongitudeDegrees>
            </Position>
            <AltitudeMeters>458</AltitudeMeters>
            <DistanceMeters>18136.907375072</DistanceMeters>
          </Trackpoint>
          <Trackpoint>
            <Time>2023-01-11T11:48:41.000Z</Time>
            <Position>
              <LatitudeDegrees>-49.2322607897222042083740234375</LatitudeDegrees>
              <LongitudeDegrees>-72.9477601312100887298583984375</LongitudeDegrees>
            </Position>
            <AltitudeMeters>458.20001220703125</AltitudeMeters>
            <DistanceMeters>18140.354632039</DistanceMeters>
          </Trackpoint>
          <Trackpoint>
            <Time>2023-01-11T11:48:45.000Z</Time>
            <Position>
              <LatitudeDegrees>-49.23227059654891490936279296875</LatitudeDegrees>
              <LongitudeDegrees>-72.947832383215427398681640625</LongitudeDegrees>
            </Position>
            <AltitudeMeters>458.600006103515625</AltitudeMeters>
            <DistanceMeters>18145.718382924</DistanceMeters>
          </Trackpoint>
          <Trackpoint>
            <Time>2023-01-11T11:48:51.000Z</Time>
            <Position>
              <LatitudeDegrees>-49.23226791433990001678466796875</LatitudeDegrees>
              <LongitudeDegrees>-72.9479514062404632568359375</LongitudeDegrees>
            </Position>
            <AltitudeMeters>458.399993896484375</AltitudeMeters>
            <DistanceMeters>18154.374685502</DistanceMeters>
          </Trackpoint>
          <Trackpoint>
            <Time>2023-01-11T11:48:54.000Z</Time>
            <Position>
              <LatitudeDegrees>-49.2322587780654430389404296875</LatitudeDegrees>
              <LongitudeDegrees>-72.9479961656033992767333984375</LongitudeDegrees>
            </Position>
            <AltitudeMeters>458.399993896484375</AltitudeMeters>
            <DistanceMeters>18157.785072351</DistanceMeters>
          </Trackpoint>
          <Trackpoint>
            <Time>2023-01-11T11:49:01.000Z</Time>
            <Position>
              <LatitudeDegrees>-49.2322410084307193756103515625</LatitudeDegrees>
              <LongitudeDegrees>-72.9480989277362823486328125</LongitudeDegrees>
            </Position>
            <AltitudeMeters>458.600006103515625</AltitudeMeters>
            <DistanceMeters>18165.511509782</DistanceMeters>
          </Trackpoint>
          <Trackpoint>
            <Time>2023-01-11T11:49:02.000Z</Time>
            <Position>
              <LatitudeDegrees>-49.2322400026023387908935546875</LatitudeDegrees>
              <LongitudeDegrees>-72.94811309315264225006103515625</LongitudeDegrees>
            </Position>
            <AltitudeMeters>458.79998779296875</AltitudeMeters>
            <DistanceMeters>18166.543764121</DistanceMeters>
          </Trackpoint>
          <Trackpoint>
            <Time>2023-01-11T11:49:04.000Z</Time>
            <Position>
              <LatitudeDegrees>-49.2322483845055103302001953125</LatitudeDegrees>
              <LongitudeDegrees>-72.94814611785113811492919921875</LongitudeDegrees>
            </Position>
            <AltitudeMeters>458.79998779296875</AltitudeMeters>
            <DistanceMeters>18169.118269143</DistanceMeters>
          </Trackpoint>
          <Trackpoint>
            <Time>2023-01-11T11:49:10.000Z</Time>
            <Position>
              <LatitudeDegrees>-49.23228643834590911865234375</LatitudeDegrees>
              <LongitudeDegrees>-72.94822205789387226104736328125</LongitudeDegrees>
            </Position>
            <AltitudeMeters>458.79998779296875</AltitudeMeters>
            <DistanceMeters>18176.075366939</DistanceMeters>
          </Trackpoint>
          <Trackpoint>
            <Time>2023-01-11T11:49:11.000Z</Time>
            <Position>
              <LatitudeDegrees>-49.2322949878871440887451171875</LatitudeDegrees>
              <LongitudeDegrees>-72.9482372291386127471923828125</LongitudeDegrees>
            </Position>
            <AltitudeMeters>459</AltitudeMeters>
            <DistanceMeters>18177.535195025</DistanceMeters>
          </Trackpoint>
          <Trackpoint>
            <Time>2023-01-11T11:49:14.000Z</Time>
            <Position>
              <LatitudeDegrees>-49.23231803812086582183837890625</LatitudeDegrees>
              <LongitudeDegrees>-72.94827972538769245147705078125</LongitudeDegrees>
            </Position>
            <AltitudeMeters>458.79998779296875</AltitudeMeters>
            <DistanceMeters>18181.55000342</DistanceMeters>
          </Trackpoint>
          <Trackpoint>
            <Time>2023-01-11T11:49:16.000Z</Time>
            <Position>
              <LatitudeDegrees>-49.23233429901301860809326171875</LatitudeDegrees>
              <LongitudeDegrees>-72.94830118305981159210205078125</LongitudeDegrees>
            </Position>
            <AltitudeMeters>459</AltitudeMeters>
            <DistanceMeters>18183.938937976</DistanceMeters>
          </Trackpoint>
          <Trackpoint>
            <Time>2023-01-11T11:49:20.000Z</Time>
            <Position>
              <LatitudeDegrees>-49.2323662340641021728515625</LatitudeDegrees>
              <LongitudeDegrees>-72.9483282566070556640625</LongitudeDegrees>
            </Position>
            <AltitudeMeters>459</AltitudeMeters>
            <DistanceMeters>18188.001816234</DistanceMeters>
          </Trackpoint>
          <Trackpoint>
            <Time>2023-01-11T11:49:26.000Z</Time>
            <Position>
              <LatitudeDegrees>-49.23243488185107707977294921875</LatitudeDegrees>
              <LongitudeDegrees>-72.948363125324249267578125</LongitudeDegrees>
            </Position>
            <AltitudeMeters>459.20001220703125</AltitudeMeters>
            <DistanceMeters>18196.051650305</DistanceMeters>
          </Trackpoint>
          <Trackpoint>
            <Time>2023-01-11T11:49:37.000Z</Time>
            <Position>
              <LatitudeDegrees>-49.23254099674522876739501953125</LatitudeDegrees>
              <LongitudeDegrees>-72.9484712518751621246337890625</LongitudeDegrees>
            </Position>
            <AltitudeMeters>459.399993896484375</AltitudeMeters>
            <DistanceMeters>18210.237709787</DistanceMeters>
          </Trackpoint>
          <Trackpoint>
            <Time>2023-01-11T11:49:48.000Z</Time>
            <Position>
              <LatitudeDegrees>-49.23264828510582447052001953125</LatitudeDegrees>
              <LongitudeDegrees>-72.94855163432657718658447265625</LongitudeDegrees>
            </Position>
            <AltitudeMeters>460</AltitudeMeters>
            <DistanceMeters>18223.531943731</DistanceMeters>
          </Trackpoint>
          <Trackpoint>
            <Time>2023-01-11T11:49:49.000Z</Time>
            <Position>
              <LatitudeDegrees>-49.2326564155519008636474609375</LatitudeDegrees>
              <LongitudeDegrees>-72.9485634528100490570068359375</LongitudeDegrees>
            </Position>
            <AltitudeMeters>460</AltitudeMeters>
            <DistanceMeters>18224.785432184</DistanceMeters>
          </Trackpoint>
          <Trackpoint>
            <Time>2023-01-11T11:49:56.000Z</Time>
            <Position>
              <LatitudeDegrees>-49.2327224649488925933837890625</LatitudeDegrees>
              <LongitudeDegrees>-72.948658503592014312744140625</LongitudeDegrees>
            </Position>
            <AltitudeMeters>460.20001220703125</AltitudeMeters>
            <DistanceMeters>18234.873492529</DistanceMeters>
          </Trackpoint>
          <Trackpoint>
            <Time>2023-01-11T11:50:03.000Z</Time>
            <Position>
              <LatitudeDegrees>-49.2328086309134960174560546875</LatitudeDegrees>
              <LongitudeDegrees>-72.94866948388516902923583984375</LongitudeDegrees>
            </Position>
            <AltitudeMeters>460.600006103515625</AltitudeMeters>
            <DistanceMeters>18244.497029509</DistanceMeters>
          </Trackpoint>
          <Trackpoint>
            <Time>2023-01-11T11:50:04.000Z</Time>
            <Position>
              <LatitudeDegrees>-49.23282128758728504180908203125</LatitudeDegrees>
              <LongitudeDegrees>-72.94867266900837421417236328125</LongitudeDegrees>
            </Position>
            <AltitudeMeters>460.600006103515625</AltitudeMeters>
            <DistanceMeters>18245.91925914</DistanceMeters>
          </Trackpoint>
          <Trackpoint>
            <Time>2023-01-11T11:50:09.000Z</Time>
            <Position>
              <LatitudeDegrees>-49.23288046382367610931396484375</LatitudeDegrees>
              <LongitudeDegrees>-72.94867116026580333709716796875</LongitudeDegrees>
            </Position>
            <AltitudeMeters>460.399993896484375</AltitudeMeters>
            <DistanceMeters>18252.506331123</DistanceMeters>
          </Trackpoint>
          <Trackpoint>
            <Time>2023-01-11T11:50:13.000Z</Time>
            <Position>
              <LatitudeDegrees>-49.2329256422817707061767578125</LatitudeDegrees>
              <LongitudeDegrees>-72.94866110198199748992919921875</LongitudeDegrees>
            </Position>
            <AltitudeMeters>460.399993896484375</AltitudeMeters>
            <DistanceMeters>18257.588261724</DistanceMeters>
          </Trackpoint>
          <Trackpoint>
            <Time>2023-01-11T11:50:14.000Z</Time>
            <Position>
              <LatitudeDegrees>-49.23293494619429111480712890625</LatitudeDegrees>
              <LongitudeDegrees>-72.94865883886814117431640625</LongitudeDegrees>
            </Position>
            <AltitudeMeters>460.399993896484375</AltitudeMeters>
            <DistanceMeters>18258.637866091</DistanceMeters>
          </Trackpoint>
          <Trackpoint>
            <Time>2023-01-11T11:50:16.000Z</Time>
            <Position>
              <LatitudeDegrees>-49.23295497894287109375</LatitudeDegrees>
              <LongitudeDegrees>-72.94865875504910945892333984375</LongitudeDegrees>
            </Position>
            <AltitudeMeters>460.399993896484375</AltitudeMeters>
            <DistanceMeters>18260.866440084</DistanceMeters>
          </Trackpoint>
          <Trackpoint>
            <Time>2023-01-11T11:50:20.000Z</Time>
            <Position>
              <LatitudeDegrees>-49.23300527036190032958984375</LatitudeDegrees>
              <LongitudeDegrees>-72.948662526905536651611328125</LongitudeDegrees>
            </Position>
            <AltitudeMeters>460.600006103515625</AltitudeMeters>
            <DistanceMeters>18266.470599778</DistanceMeters>
          </Trackpoint>
          <Trackpoint>
            <Time>2023-01-11T11:50:26.000Z</Time>
            <Position>
              <LatitudeDegrees>-49.23307408578693866729736328125</LatitudeDegrees>
              <LongitudeDegrees>-72.94865104369819164276123046875</LongitudeDegrees>
            </Position>
            <AltitudeMeters>461</AltitudeMeters>
            <DistanceMeters>18274.174799442</DistanceMeters>
          </Trackpoint>
          <Trackpoint>
            <Time>2023-01-11T11:50:29.000Z</Time>
            <Position>
              <LatitudeDegrees>-49.23310719430446624755859375</LatitudeDegrees>
              <LongitudeDegrees>-72.94863662682473659515380859375</LongitudeDegrees>
            </Position>
            <AltitudeMeters>461.20001220703125</AltitudeMeters>
            <DistanceMeters>18278.00426992</DistanceMeters>
          </Trackpoint>
          <Trackpoint>
            <Time>2023-01-11T11:50:36.000Z</Time>
            <Position>
              <LatitudeDegrees>-49.23320517875254154205322265625</LatitudeDegrees>
              <LongitudeDegrees>-72.94862656854093074798583984375</LongitudeDegrees>
            </Position>
            <AltitudeMeters>461.20001220703125</AltitudeMeters>
            <DistanceMeters>18288.934820749</DistanceMeters>
          </Trackpoint>
          <Trackpoint>
            <Time>2023-01-11T11:50:45.000Z</Time>
            <Position>
              <LatitudeDegrees>-49.23331883735954761505126953125</LatitudeDegrees>
              <LongitudeDegrees>-72.9486989043653011322021484375</LongitudeDegrees>
            </Position>
            <AltitudeMeters>461.399993896484375</AltitudeMeters>
            <DistanceMeters>18302.634166673</DistanceMeters>
          </Trackpoint>
          <Trackpoint>
            <Time>2023-01-11T11:50:57.000Z</Time>
            <Position>
              <LatitudeDegrees>-49.23347943462431430816650390625</LatitudeDegrees>
              <LongitudeDegrees>-72.94871776364743709564208984375</LongitudeDegrees>
            </Position>
            <AltitudeMeters>461.600006103515625</AltitudeMeters>
            <DistanceMeters>18320.561252901</DistanceMeters>
          </Trackpoint>
          <Trackpoint>
            <Time>2023-01-11T11:51:07.000Z</Time>
            <Position>
              <LatitudeDegrees>-49.2335958592593669891357421875</LatitudeDegrees>
              <LongitudeDegrees>-72.948639728128910064697265625</LongitudeDegrees>
            </Position>
            <AltitudeMeters>461.79998779296875</AltitudeMeters>
            <DistanceMeters>18334.705876392</DistanceMeters>
          </Trackpoint>
          <Trackpoint>
            <Time>2023-01-11T11:51:16.000Z</Time>
            <Position>
              <LatitudeDegrees>-49.23371865414083003997802734375</LatitudeDegrees>
              <LongitudeDegrees>-72.9485942982137203216552734375</LongitudeDegrees>
            </Position>
            <AltitudeMeters>462</AltitudeMeters>
            <DistanceMeters>18348.76661939</DistanceMeters>
          </Trackpoint>
          <Trackpoint>
            <Time>2023-01-11T11:51:27.000Z</Time>
            <Position>
              <LatitudeDegrees>-49.23386491835117340087890625</LatitudeDegrees>
              <LongitudeDegrees>-72.948651798069477081298828125</LongitudeDegrees>
            </Position>
            <AltitudeMeters>462</AltitudeMeters>
            <DistanceMeters>18365.573995194</DistanceMeters>
          </Trackpoint>
          <Trackpoint>
            <Time>2023-01-11T11:51:30.000Z</Time>
            <Position>
              <LatitudeDegrees>-49.2338922433555126190185546875</LatitudeDegrees>
              <LongitudeDegrees>-72.9486563242971897125244140625</LongitudeDegrees>
            </Position>
            <AltitudeMeters>462</AltitudeMeters>
            <DistanceMeters>18368.632615666</DistanceMeters>
          </Trackpoint>
          <Trackpoint>
            <Time>2023-01-11T11:51:34.000Z</Time>
            <Position>
              <LatitudeDegrees>-49.2339353263378143310546875</LatitudeDegrees>
              <LongitudeDegrees>-72.94863201677799224853515625</LongitudeDegrees>
            </Position>
            <AltitudeMeters>462.20001220703125</AltitudeMeters>
            <DistanceMeters>18373.742897564</DistanceMeters>
          </Trackpoint>
          <Trackpoint>
            <Time>2023-01-11T11:51:45.000Z</Time>
            <Position>
              <LatitudeDegrees>-49.23406742513179779052734375</LatitudeDegrees>
              <LongitudeDegrees>-72.94859807007014751434326171875</LongitudeDegrees>
            </Position>
            <AltitudeMeters>462.600006103515625</AltitudeMeters>
            <DistanceMeters>18388.6508901</DistanceMeters>
          </Trackpoint>
          <Trackpoint>
            <Time>2023-01-11T11:51:54.000Z</Time>
            <Position>
              <LatitudeDegrees>-49.23418217338621616363525390625</LatitudeDegrees>
              <LongitudeDegrees>-72.9486432485282421112060546875</LongitudeDegrees>
            </Position>
            <AltitudeMeters>463</AltitudeMeters>
            <DistanceMeters>18401.837708597</DistanceMeters>
          </Trackpoint>
          <Trackpoint>
            <Time>2023-01-11T11:52:02.000Z</Time>
            <Position>
              <LatitudeDegrees>-49.2342486418783664703369140625</LatitudeDegrees>
              <LongitudeDegrees>-72.9487532190978527069091796875</LongitudeDegrees>
            </Position>
            <AltitudeMeters>462.600006103515625</AltitudeMeters>
            <DistanceMeters>18412.728118324</DistanceMeters>
          </Trackpoint>
          <Trackpoint>
            <Time>2023-01-11T11:52:07.000Z</Time>
            <Position>
              <LatitudeDegrees>-49.2342590354382991790771484375</LatitudeDegrees>
              <LongitudeDegrees>-72.948831506073474884033203125</LongitudeDegrees>
            </Position>
            <AltitudeMeters>462.399993896484375</AltitudeMeters>
            <DistanceMeters>18418.53330956</DistanceMeters>
          </Trackpoint>
          <Trackpoint>
            <Time>2023-01-11T11:52:09.000Z</Time>
            <Position>
              <LatitudeDegrees>-49.2342650704085826873779296875</LatitudeDegrees>
              <LongitudeDegrees>-72.94886712916195392608642578125</LongitudeDegrees>
            </Position>
            <AltitudeMeters>462.600006103515625</AltitudeMeters>
            <DistanceMeters>18421.207598352</DistanceMeters>
          </Trackpoint>
          <Trackpoint>
            <Time>2023-01-11T11:52:18.000Z</Time>
            <Position>
              <LatitudeDegrees>-49.2343224026262760162353515625</LatitudeDegrees>
              <LongitudeDegrees>-72.94901800341904163360595703125</LongitudeDegrees>
            </Position>
            <AltitudeMeters>462.600006103515625</AltitudeMeters>
            <DistanceMeters>18433.893931647</DistanceMeters>
          </Trackpoint>
          <Trackpoint>
            <Time>2023-01-11T11:52:32.000Z</Time>
            <Position>
              <LatitudeDegrees>-49.2344843409955501556396484375</LatitudeDegrees>
              <LongitudeDegrees>-72.94913669116795063018798828125</LongitudeDegrees>
            </Position>
            <AltitudeMeters>462.600006103515625</AltitudeMeters>
            <DistanceMeters>18453.875769902</DistanceMeters>
          </Trackpoint>
          <Trackpoint>
            <Time>2023-01-11T11:52:45.000Z</Time>
            <Position>
              <LatitudeDegrees>-49.2346273362636566162109375</LatitudeDegrees>
              <LongitudeDegrees>-72.94923274777829647064208984375</LongitudeDegrees>
            </Position>
            <AltitudeMeters>462.600006103515625</AltitudeMeters>
            <DistanceMeters>18471.255270095</DistanceMeters>
          </Trackpoint>
          <Trackpoint>
            <Time>2023-01-11T11:52:55.000Z</Time>
            <Position>
              <LatitudeDegrees>-49.23472733236849308013916015625</LatitudeDegrees>
              <LongitudeDegrees>-72.94932343997061252593994140625</LongitudeDegrees>
            </Position>
            <AltitudeMeters>462.600006103515625</AltitudeMeters>
            <DistanceMeters>18484.190427088</DistanceMeters>
          </Trackpoint>
          <Trackpoint>
            <Time>2023-01-11T11:53:00.000Z</Time>
            <Position>
              <LatitudeDegrees>-49.23470319248735904693603515625</LatitudeDegrees>
              <LongitudeDegrees>-72.94941681437194347381591796875</LongitudeDegrees>
            </Position>
            <AltitudeMeters>462.600006103515625</AltitudeMeters>
            <DistanceMeters>18491.488330271</DistanceMeters>
          </Trackpoint>
          <Trackpoint>
            <Time>2023-01-11T11:53:01.000Z</Time>
            <Position>
              <LatitudeDegrees>-49.2346908710896968841552734375</LatitudeDegrees>
              <LongitudeDegrees>-72.94943190179765224456787109375</LongitudeDegrees>
            </Position>
            <AltitudeMeters>462.600006103515625</AltitudeMeters>
            <DistanceMeters>18493.245682297</DistanceMeters>
          </Trackpoint>
          <Trackpoint>
            <Time>2023-01-11T11:53:02.000Z</Time>
            <Position>
              <LatitudeDegrees>-49.2346808128058910369873046875</LatitudeDegrees>
              <LongitudeDegrees>-72.9494462348520755767822265625</LongitudeDegrees>
            </Position>
            <AltitudeMeters>462.600006103515625</AltitudeMeters>
            <DistanceMeters>18494.777942025</DistanceMeters>
          </Trackpoint>
          <Trackpoint>
            <Time>2023-01-11T11:53:11.000Z</Time>
            <Position>
              <LatitudeDegrees>-49.23462398350238800048828125</LatitudeDegrees>
              <LongitudeDegrees>-72.9496051557362079620361328125</LongitudeDegrees>
            </Position>
            <AltitudeMeters>462.600006103515625</AltitudeMeters>
            <DistanceMeters>18507.946601336</DistanceMeters>
          </Trackpoint>
          <Trackpoint>
            <Time>2023-01-11T11:53:15.000Z</Time>
            <Position>
              <LatitudeDegrees>-49.23461048863828182220458984375</LatitudeDegrees>
              <LongitudeDegrees>-72.9496732167899608612060546875</LongitudeDegrees>
            </Position>
            <AltitudeMeters>462.600006103515625</AltitudeMeters>
            <DistanceMeters>18513.116613548</DistanceMeters>
          </Trackpoint>
          <Trackpoint>
            <Time>2023-01-11T11:53:19.000Z</Time>
            <Position>
              <LatitudeDegrees>-49.23457277007400989532470703125</LatitudeDegrees>
              <LongitudeDegrees>-72.9497261904180049896240234375</LongitudeDegrees>
            </Position>
            <AltitudeMeters>462.600006103515625</AltitudeMeters>
            <DistanceMeters>18518.813463093</DistanceMeters>
          </Trackpoint>
          <Trackpoint>
            <Time>2023-01-11T11:53:26.000Z</Time>
            <Position>
              <LatitudeDegrees>-49.23450152389705181121826171875</LatitudeDegrees>
              <LongitudeDegrees>-72.9497994482517242431640625</LongitudeDegrees>
            </Position>
            <AltitudeMeters>462.600006103515625</AltitudeMeters>
            <DistanceMeters>18528.364947915</DistanceMeters>
          </Trackpoint>
          <Trackpoint>
            <Time>2023-01-11T11:53:27.000Z</Time>
            <Position>
              <LatitudeDegrees>-49.2344990931451320648193359375</LatitudeDegrees>
              <LongitudeDegrees>-72.94981244020164012908935546875</LongitudeDegrees>
            </Position>
            <AltitudeMeters>462.600006103515625</AltitudeMeters>
            <DistanceMeters>18529.34330782</DistanceMeters>
          </Trackpoint>
          <Trackpoint>
            <Time>2023-01-11T11:53:31.000Z</Time>
            <Position>
              <LatitudeDegrees>-49.23447621054947376251220703125</LatitudeDegrees>
              <LongitudeDegrees>-72.9498857818543910980224609375</LongitudeDegrees>
            </Position>
            <AltitudeMeters>462.600006103515625</AltitudeMeters>
            <DistanceMeters>18535.250271116</DistanceMeters>
          </Trackpoint>
          <Trackpoint>
            <Time>2023-01-11T11:53:34.000Z</Time>
            <Position>
              <LatitudeDegrees>-49.234468750655651092529296875</LatitudeDegrees>
              <LongitudeDegrees>-72.94993632473051548004150390625</LongitudeDegrees>
            </Position>
            <AltitudeMeters>462.600006103515625</AltitudeMeters>
            <DistanceMeters>18539.015536049</DistanceMeters>
          </Trackpoint>
          <Trackpoint>
            <Time>2023-01-11T11:53:42.000Z</Time>
            <Position>
              <LatitudeDegrees>-49.2343907989561557769775390625</LatitudeDegrees>
              <LongitudeDegrees>-72.95006205327808856964111328125</LongitudeDegrees>
            </Position>
            <AltitudeMeters>462.600006103515625</AltitudeMeters>
            <DistanceMeters>18551.615806048</DistanceMeters>
          </Trackpoint>
          <Trackpoint>
            <Time>2023-01-11T11:53:43.000Z</Time>
            <Position>
              <LatitudeDegrees>-49.23437512479722499847412109375</LatitudeDegrees>
              <LongitudeDegrees>-72.95006725005805492401123046875</LongitudeDegrees>
            </Position>
            <AltitudeMeters>462.600006103515625</AltitudeMeters>
            <DistanceMeters>18553.403723009</DistanceMeters>
          </Trackpoint>
          <Trackpoint>
            <Time>2023-01-11T11:53:46.000Z</Time>
            <Position>
              <LatitudeDegrees>-49.234336651861667633056640625</LatitudeDegrees>
              <LongitudeDegrees>-72.95007680542767047882080078125</LongitudeDegrees>
            </Position>
            <AltitudeMeters>462.600006103515625</AltitudeMeters>
            <DistanceMeters>18557.741773183</DistanceMeters>
          </Trackpoint>
          <Trackpoint>
            <Time>2023-01-11T11:53:47.000Z</Time>
            <Position>
              <LatitudeDegrees>-49.23432533629238605499267578125</LatitudeDegrees>
              <LongitudeDegrees>-72.9500837624073028564453125</LongitudeDegrees>
            </Position>
            <AltitudeMeters>462.600006103515625</AltitudeMeters>
            <DistanceMeters>18559.099026142</DistanceMeters>
          </Trackpoint>
          <Trackpoint>
            <Time>2023-01-11T11:53:51.000Z</Time>
            <Position>
              <LatitudeDegrees>-49.2342939041554927825927734375</LatitudeDegrees>
              <LongitudeDegrees>-72.950135730206966400146484375</LongitudeDegrees>
            </Position>
            <AltitudeMeters>462.600006103515625</AltitudeMeters>
            <DistanceMeters>18564.246282138</DistanceMeters>
          </Trackpoint>
          <Trackpoint>
            <Time>2023-01-11T11:54:00.000Z</Time>
            <Position>
              <LatitudeDegrees>-49.2341956682503223419189453125</LatitudeDegrees>
              <LongitudeDegrees>-72.95024679042398929595947265625</LongitudeDegrees>
            </Position>
            <AltitudeMeters>462.600006103515625</AltitudeMeters>
            <DistanceMeters>18577.836431273</DistanceMeters>
          </Trackpoint>
          <Trackpoint>
            <Time>2023-01-11T11:54:09.000Z</Time>
            <Position>
              <LatitudeDegrees>-49.2341245897114276885986328125</LatitudeDegrees>
              <LongitudeDegrees>-72.95035039074718952178955078125</LongitudeDegrees>
            </Position>
            <AltitudeMeters>462.600006103515625</AltitudeMeters>
            <DistanceMeters>18588.757890871</DistanceMeters>
          </Trackpoint>
          <Trackpoint>
            <Time>2023-01-11T11:54:10.000Z</Time>
            <Position>
              <LatitudeDegrees>-49.2341269366443157196044921875</LatitudeDegrees>
              <LongitudeDegrees>-72.95036950148642063140869140625</LongitudeDegrees>
            </Position>
            <AltitudeMeters>462.600006103515625</AltitudeMeters>
            <DistanceMeters>18590.167364821</DistanceMeters>
          </Trackpoint>
          <Trackpoint>
            <Time>2023-01-11T11:54:11.000Z</Time>
            <Position>
              <LatitudeDegrees>-49.234132133424282073974609375</LatitudeDegrees>
              <LongitudeDegrees>-72.95038911513984203338623046875</LongitudeDegrees>
            </Position>
            <AltitudeMeters>462.600006103515625</AltitudeMeters>
            <DistanceMeters>18591.705506566</DistanceMeters>
          </Trackpoint>
          <Trackpoint>
            <Time>2023-01-11T11:54:16.000Z</Time>
            <Position>
              <LatitudeDegrees>-49.23413791693747043609619140625</LatitudeDegrees>
              <LongitudeDegrees>-72.9504705034196376800537109375</LongitudeDegrees>
            </Position>
            <AltitudeMeters>462.600006103515625</AltitudeMeters>
            <DistanceMeters>18597.655119971</DistanceMeters>
          </Trackpoint>
          <Trackpoint>
            <Time>2023-01-11T11:54:22.000Z</Time>
            <Position>
              <LatitudeDegrees>-49.2341453768312931060791015625</LatitudeDegrees>
              <LongitudeDegrees>-72.95056580565869808197021484375</LongitudeDegrees>
            </Position>
            <AltitudeMeters>462.600006103515625</AltitudeMeters>
            <DistanceMeters>18604.630365621</DistanceMeters>
          </Trackpoint>
          <Trackpoint>
            <Time>2023-01-11T11:54:24.000Z</Time>
            <Position>
              <LatitudeDegrees>-49.23414797522127628326416015625</LatitudeDegrees>
              <LongitudeDegrees>-72.95059246011078357696533203125</LongitudeDegrees>
            </Position>
            <AltitudeMeters>462.600006103515625</AltitudeMeters>
            <DistanceMeters>18606.591694906</DistanceMeters>
          </Trackpoint>
          <Trackpoint>
            <Time>2023-01-11T11:54:25.000Z</Time>
            <Position>
              <LatitudeDegrees>-49.23414847813546657562255859375</LatitudeDegrees>
              <LongitudeDegrees>-72.950604446232318878173828125</LongitudeDegrees>
            </Position>
            <AltitudeMeters>462.600006103515625</AltitudeMeters>
            <DistanceMeters>18607.462629129</DistanceMeters>
          </Trackpoint>
          <Trackpoint>
            <Time>2023-01-11T11:54:29.000Z</Time>
            <Position>
              <LatitudeDegrees>-49.234146215021610260009765625</LatitudeDegrees>
              <LongitudeDegrees>-72.9506736807525157928466796875</LongitudeDegrees>
            </Position>
            <AltitudeMeters>462.600006103515625</AltitudeMeters>
            <DistanceMeters>18612.49994139</DistanceMeters>
          </Trackpoint>
          <Trackpoint>
            <Time>2023-01-11T11:54:33.000Z</Time>
            <Position>
              <LatitudeDegrees>-49.2341794073581695556640625</LatitudeDegrees>
              <LongitudeDegrees>-72.95073294080793857574462890625</LongitudeDegrees>
            </Position>
            <AltitudeMeters>462.600006103515625</AltitudeMeters>
            <DistanceMeters>18618.174556143</DistanceMeters>
          </Trackpoint>
          <Trackpoint>
            <Time>2023-01-11T11:54:34.000Z</Time>
            <Position>
              <LatitudeDegrees>-49.2341856099665164947509765625</LatitudeDegrees>
              <LongitudeDegrees>-72.9507454298436641693115234375</LongitudeDegrees>
            </Position>
            <AltitudeMeters>462.600006103515625</AltitudeMeters>
            <DistanceMeters>18619.314876715</DistanceMeters>
          </Trackpoint>
          <Trackpoint>
            <Time>2023-01-11T11:54:39.000Z</Time>
            <Position>
              <LatitudeDegrees>-49.234223999083042144775390625</LatitudeDegrees>
              <LongitudeDegrees>-72.95081441290676593780517578125</LongitudeDegrees>
            </Position>
            <AltitudeMeters>462.600006103515625</AltitudeMeters>
            <DistanceMeters>18625.902634102</DistanceMeters>
          </Trackpoint>
          <Trackpoint>
            <Time>2023-01-11T11:54:43.000Z</Time>
            <Position>
              <LatitudeDegrees>-49.23426029272377490997314453125</LatitudeDegrees>
              <LongitudeDegrees>-72.95085900463163852691650390625</LongitudeDegrees>
            </Position>
            <AltitudeMeters>462.600006103515625</AltitudeMeters>
            <DistanceMeters>18631.08137208</DistanceMeters>
          </Trackpoint>
          <Trackpoint>
            <Time>2023-01-11T11:54:47.000Z</Time>
            <Position>
              <LatitudeDegrees>-49.23429566435515880584716796875</LatitudeDegrees>
              <LongitudeDegrees>-72.9509318433701992034912109375</LongitudeDegrees>
            </Position>
            <AltitudeMeters>462.600006103515625</AltitudeMeters>
            <DistanceMeters>18637.678717641</DistanceMeters>
          </Trackpoint>
          <Trackpoint>
            <Time>2023-01-11T11:54:48.000Z</Time>
            <Position>
              <LatitudeDegrees>-49.23430086113512516021728515625</LatitudeDegrees>
              <LongitudeDegrees>-72.95095221139490604400634765625</LongitudeDegrees>
            </Position>
            <AltitudeMeters>462.600006103515625</AltitudeMeters>
            <DistanceMeters>18639.268818709</DistanceMeters>
          </Trackpoint>
          <Trackpoint>
            <Time>2023-01-11T11:54:57.000Z</Time>
            <Position>
              <LatitudeDegrees>-49.23433028161525726318359375</LatitudeDegrees>
              <LongitudeDegrees>-72.95110241509974002838134765625</LongitudeDegrees>
            </Position>
            <AltitudeMeters>462.600006103515625</AltitudeMeters>
            <DistanceMeters>18650.665687558</DistanceMeters>
          </Trackpoint>
          <Trackpoint>
            <Time>2023-01-11T11:55:00.000Z</Time>
            <Position>
              <LatitudeDegrees>-49.234319888055324554443359375</LatitudeDegrees>
              <LongitudeDegrees>-72.9511578194797039031982421875</LongitudeDegrees>
            </Position>
            <AltitudeMeters>462.600006103515625</AltitudeMeters>
            <DistanceMeters>18654.855492877</DistanceMeters>
          </Trackpoint>
          <Trackpoint>
            <Time>2023-01-11T11:55:02.000Z</Time>
            <Position>
              <LatitudeDegrees>-49.234307818114757537841796875</LatitudeDegrees>
              <LongitudeDegrees>-72.95118640176951885223388671875</LongitudeDegrees>
            </Position>
            <AltitudeMeters>462.600006103515625</AltitudeMeters>
            <DistanceMeters>18657.329839625</DistanceMeters>
          </Trackpoint>
          <Trackpoint>
            <Time>2023-01-11T11:55:04.000Z</Time>
            <Position>
              <LatitudeDegrees>-49.23430421389639377593994140625</LatitudeDegrees>
              <LongitudeDegrees>-72.951216995716094970703125</LongitudeDegrees>
            </Position>
            <AltitudeMeters>462.600006103515625</AltitudeMeters>
            <DistanceMeters>18659.590596858</DistanceMeters>
          </Trackpoint>
          <Trackpoint>
            <Time>2023-01-11T11:55:10.000Z</Time>
            <Position>
              <LatitudeDegrees>-49.23433338291943073272705078125</LatitudeDegrees>
              <LongitudeDegrees>-72.95131548307836055755615234375</LongitudeDegrees>
            </Position>
            <AltitudeMeters>462.600006103515625</AltitudeMeters>
            <DistanceMeters>18667.450862949</DistanceMeters>
          </Trackpoint>
          <Trackpoint>
            <Time>2023-01-11T11:55:11.000Z</Time>
            <Position>
              <LatitudeDegrees>-49.23434142954647541046142578125</LatitudeDegrees>
              <LongitudeDegrees>-72.95132185332477092742919921875</LongitudeDegrees>
            </Position>
            <AltitudeMeters>462.600006103515625</AltitudeMeters>
            <DistanceMeters>18668.461010779</DistanceMeters>
          </Trackpoint>
          <Trackpoint>
            <Time>2023-01-11T11:55:12.000Z</Time>
            <Position>
              <LatitudeDegrees>-49.23434847034513950347900390625</LatitudeDegrees>
              <LongitudeDegrees>-72.9513314925134181976318359375</LongitudeDegrees>
            </Position>
            <AltitudeMeters>462.600006103515625</AltitudeMeters>
            <DistanceMeters>18669.510615146</DistanceMeters>
          </Trackpoint>
          <Trackpoint>
            <Time>2023-01-11T11:55:16.000Z</Time>
            <Position>
              <LatitudeDegrees>-49.234375543892383575439453125</LatitudeDegrees>
              <LongitudeDegrees>-72.95139226131141185760498046875</LongitudeDegrees>
            </Position>
            <AltitudeMeters>462.600006103515625</AltitudeMeters>
            <DistanceMeters>18674.85750415</DistanceMeters>
          </Trackpoint>
          <Trackpoint>
            <Time>2023-01-11T11:55:17.000Z</Time>
            <Position>
              <LatitudeDegrees>-49.23437663353979587554931640625</LatitudeDegrees>
              <LongitudeDegrees>-72.95141036622226238250732421875</LongitudeDegrees>
            </Position>
            <AltitudeMeters>462.600006103515625</AltitudeMeters>
            <DistanceMeters>18676.181073124</DistanceMeters>
          </Trackpoint>
          <Trackpoint>
            <Time>2023-01-11T11:55:21.000Z</Time>
            <Position>
              <LatitudeDegrees>-49.2343832552433013916015625</LatitudeDegrees>
              <LongitudeDegrees>-72.9514733143150806427001953125</LongitudeDegrees>
            </Position>
            <AltitudeMeters>462.600006103515625</AltitudeMeters>
            <DistanceMeters>18680.815026273</DistanceMeters>
          </Trackpoint>
          <Trackpoint>
            <Time>2023-01-11T11:55:26.000Z</Time>
            <Position>
              <LatitudeDegrees>-49.23438266851007938385009765625</LatitudeDegrees>
              <LongitudeDegrees>-72.9515589773654937744140625</LongitudeDegrees>
            </Position>
            <AltitudeMeters>462.600006103515625</AltitudeMeters>
            <DistanceMeters>18687.040545375</DistanceMeters>
          </Trackpoint>
          <Trackpoint>
            <Time>2023-01-11T11:55:34.000Z</Time>
            <Position>
              <LatitudeDegrees>-49.23438367433845996856689453125</LatitudeDegrees>
              <LongitudeDegrees>-72.95172770507633686065673828125</LongitudeDegrees>
            </Position>
            <AltitudeMeters>462.600006103515625</AltitudeMeters>
            <DistanceMeters>18699.303778762</DistanceMeters>
          </Trackpoint>
          <Trackpoint>
            <Time>2023-01-11T11:55:37.000Z</Time>
            <Position>
              <LatitudeDegrees>-49.23440043814480304718017578125</LatitudeDegrees>
              <LongitudeDegrees>-72.95178101398050785064697265625</LongitudeDegrees>
            </Position>
            <AltitudeMeters>462.600006103515625</AltitudeMeters>
            <DistanceMeters>18703.605246725</DistanceMeters>
          </Trackpoint>
          <Trackpoint>
            <Time>2023-01-11T11:55:38.000Z</Time>
            <Position>
              <LatitudeDegrees>-49.23440781421959400177001953125</LatitudeDegrees>
              <LongitudeDegrees>-72.95179844833910465240478515625</LongitudeDegrees>
            </Position>
            <AltitudeMeters>462.600006103515625</AltitudeMeters>
            <DistanceMeters>18705.116739146</DistanceMeters>
          </Trackpoint>
          <Trackpoint>
            <Time>2023-01-11T11:55:39.000Z</Time>
            <Position>
              <LatitudeDegrees>-49.23441745340824127197265625</LatitudeDegrees>
              <LongitudeDegrees>-72.95181269757449626922607421875</LongitudeDegrees>
            </Position>
            <AltitudeMeters>462.600006103515625</AltitudeMeters>
            <DistanceMeters>18706.607174923</DistanceMeters>
          </Trackpoint>
          <Trackpoint>
            <Time>2023-01-11T11:55:42.000Z</Time>
            <Position>
              <LatitudeDegrees>-49.2344451136887073516845703125</LatitudeDegrees>
              <LongitudeDegrees>-72.95182979665696620941162109375</LongitudeDegrees>
            </Position>
            <AltitudeMeters>462.600006103515625</AltitudeMeters>
            <DistanceMeters>18709.926315363</DistanceMeters>
          </Trackpoint>
          <Trackpoint>
            <Time>2023-01-11T11:55:46.000Z</Time>
            <Position>
              <LatitudeDegrees>-49.23449230380356311798095703125</LatitudeDegrees>
              <LongitudeDegrees>-72.95181982219219207763671875</LongitudeDegrees>
            </Position>
            <AltitudeMeters>462.600006103515625</AltitudeMeters>
            <DistanceMeters>18715.229112554</DistanceMeters>
          </Trackpoint>
          <Trackpoint>
            <Time>2023-01-11T11:55:49.000Z</Time>
            <Position>
              <LatitudeDegrees>-49.23452298156917095184326171875</LatitudeDegrees>
              <LongitudeDegrees>-72.95183180831372737884521484375</LongitudeDegrees>
            </Position>
            <AltitudeMeters>462.600006103515625</AltitudeMeters>
            <DistanceMeters>18718.752797431</DistanceMeters>
          </Trackpoint>
          <Trackpoint>
            <Time>2023-01-11T11:55:56.000Z</Time>
            <Position>
              <LatitudeDegrees>-49.23456757329404354095458984375</LatitudeDegrees>
              <LongitudeDegrees>-72.95193674974143505096435546875</LongitudeDegrees>
            </Position>
            <AltitudeMeters>462.600006103515625</AltitudeMeters>
            <DistanceMeters>18727.851574318</DistanceMeters>
          </Trackpoint>
          <Trackpoint>
            <Time>2023-01-11T11:56:00.000Z</Time>
            <Position>
              <LatitudeDegrees>-49.23458718694746494293212890625</LatitudeDegrees>
              <LongitudeDegrees>-72.95199726708233356475830078125</LongitudeDegrees>
            </Position>
            <AltitudeMeters>462.600006103515625</AltitudeMeters>
            <DistanceMeters>18732.761798763</DistanceMeters>
          </Trackpoint>
          <Trackpoint>
            <Time>2023-01-11T11:56:03.000Z</Time>
            <Position>
              <LatitudeDegrees>-49.2346140928566455841064453125</LatitudeDegrees>
              <LongitudeDegrees>-72.95203833840787410736083984375</LongitudeDegrees>
            </Position>
            <AltitudeMeters>462.600006103515625</AltitudeMeters>
            <DistanceMeters>18736.990220615</DistanceMeters>
          </Trackpoint>
          <Trackpoint>
            <Time>2023-01-11T11:56:06.000Z</Time>
            <Position>
              <LatitudeDegrees>-49.23463605344295501708984375</LatitudeDegrees>
              <LongitudeDegrees>-72.95207270421087741851806640625</LongitudeDegrees>
            </Position>
            <AltitudeMeters>462.600006103515625</AltitudeMeters>
            <DistanceMeters>18740.48431039</DistanceMeters>
          </Trackpoint>
          <Trackpoint>
            <Time>2023-01-11T11:56:09.000Z</Time>
            <Position>
              <LatitudeDegrees>-49.23466631211340427398681640625</LatitudeDegrees>
              <LongitudeDegrees>-72.95210815966129302978515625</LongitudeDegrees>
            </Position>
            <AltitudeMeters>462.600006103515625</AltitudeMeters>
            <DistanceMeters>18744.725526286</DistanceMeters>
          </Trackpoint>
          <Trackpoint>
            <Time>2023-01-11T11:56:11.000Z</Time>
            <Position>
              <LatitudeDegrees>-49.2346848361194133758544921875</LatitudeDegrees>
              <LongitudeDegrees>-72.95213087461888790130615234375</LongitudeDegrees>
            </Position>
            <AltitudeMeters>462.600006103515625</AltitudeMeters>
            <DistanceMeters>18747.3658329</DistanceMeters>
          </Trackpoint>
          <Trackpoint>
            <Time>2023-01-11T11:56:21.000Z</Time>
            <Position>
              <LatitudeDegrees>-49.2347748577594757080078125</LatitudeDegrees>
              <LongitudeDegrees>-72.95222274027764797210693359375</LongitudeDegrees>
            </Position>
            <AltitudeMeters>462.600006103515625</AltitudeMeters>
            <DistanceMeters>18759.406133861</DistanceMeters>
          </Trackpoint>
          <Trackpoint>
            <Time>2023-01-11T11:56:22.000Z</Time>
            <Position>
              <LatitudeDegrees>-49.23478617332875728607177734375</LatitudeDegrees>
              <LongitudeDegrees>-72.95222911052405834197998046875</LongitudeDegrees>
            </Position>
            <AltitudeMeters>467</AltitudeMeters>
            <DistanceMeters>18760.750014543</DistanceMeters>
          </Trackpoint>
          <Trackpoint>
            <Time>2023-01-11T11:56:29.000Z</Time>
            <Position>
              <LatitudeDegrees>-49.23485188744962215423583984375</LatitudeDegrees>
              <LongitudeDegrees>-72.95228342525660991668701171875</LongitudeDegrees>
            </Position>
            <AltitudeMeters>467</AltitudeMeters>
            <DistanceMeters>18769.061457546</DistanceMeters>
          </Trackpoint>
          <Trackpoint>
            <Time>2023-01-11T11:56:30.000Z</Time>
            <Position>
              <LatitudeDegrees>-49.2348615266382694244384765625</LatitudeDegrees>
              <LongitudeDegrees>-72.952300608158111572265625</LongitudeDegrees>
            </Position>
            <AltitudeMeters>467</AltitudeMeters>
            <DistanceMeters>18770.70736852</DistanceMeters>
          </Trackpoint>
          <Trackpoint>
            <Time>2023-01-11T11:56:39.000Z</Time>
            <Position>
              <LatitudeDegrees>-49.2349054478108882904052734375</LatitudeDegrees>
              <LongitudeDegrees>-72.95245877467095851898193359375</LongitudeDegrees>
            </Position>
            <AltitudeMeters>467.600006103515625</AltitudeMeters>
            <DistanceMeters>18783.198593075</DistanceMeters>
          </Trackpoint>
          <Trackpoint>
            <Time>2023-01-11T11:56:40.000Z</Time>
            <Position>
              <LatitudeDegrees>-49.234907291829586029052734375</LatitudeDegrees>
              <LongitudeDegrees>-72.9524736106395721435546875</LongitudeDegrees>
            </Position>
            <AltitudeMeters>467.600006103515625</AltitudeMeters>
            <DistanceMeters>18784.298606822</DistanceMeters>
          </Trackpoint>
          <Trackpoint>
            <Time>2023-01-11T11:56:43.000Z</Time>
            <Position>
              <LatitudeDegrees>-49.23489195294678211212158203125</LatitudeDegrees>
              <LongitudeDegrees>-72.95252650044858455657958984375</LongitudeDegrees>
            </Position>
            <AltitudeMeters>467.79998779296875</AltitudeMeters>
            <DistanceMeters>18788.503471823</DistanceMeters>
          </Trackpoint>
          <Trackpoint>
            <Time>2023-01-11T11:56:46.000Z</Time>
            <Position>
              <LatitudeDegrees>-49.23487183637917041778564453125</LatitudeDegrees>
              <LongitudeDegrees>-72.95257645659148693084716796875</LongitudeDegrees>
            </Position>
            <AltitudeMeters>467.79998779296875</AltitudeMeters>
            <DistanceMeters>18792.769102378</DistanceMeters>
          </Trackpoint>
          <Trackpoint>
            <Time>2023-01-11T11:56:54.000Z</Time>
            <Position>
              <LatitudeDegrees>-49.2348561622202396392822265625</LatitudeDegrees>
              <LongitudeDegrees>-72.95270520262420177459716796875</LongitudeDegrees>
            </Position>
            <AltitudeMeters>467.399993896484375</AltitudeMeters>
            <DistanceMeters>18802.287914649</DistanceMeters>
          </Trackpoint>
          <Trackpoint>
            <Time>2023-01-11T11:57:03.000Z</Time>
            <Position>
              <LatitudeDegrees>-49.23490502871572971343994140625</LatitudeDegrees>
              <LongitudeDegrees>-72.95285046100616455078125</LongitudeDegrees>
            </Position>
            <AltitudeMeters>467.399993896484375</AltitudeMeters>
            <DistanceMeters>18814.163592899</DistanceMeters>
          </Trackpoint>
          <Trackpoint>
            <Time>2023-01-11T11:57:14.000Z</Time>
            <Position>
              <LatitudeDegrees>-49.23499404452741146087646484375</LatitudeDegrees>
              <LongitudeDegrees>-72.95293251983821392059326171875</LongitudeDegrees>
            </Position>
            <AltitudeMeters>468</AltitudeMeters>
            <DistanceMeters>18825.727996564</DistanceMeters>
          </Trackpoint>
          <Trackpoint>
            <Time>2023-01-11T11:57:21.000Z</Time>
            <Position>
              <LatitudeDegrees>-49.23504081554710865020751953125</LatitudeDegrees>
              <LongitudeDegrees>-72.9530145786702632904052734375</LongitudeDegrees>
            </Position>
            <AltitudeMeters>468.79998779296875</AltitudeMeters>
            <DistanceMeters>18833.644354977</DistanceMeters>
          </Trackpoint>
          <Trackpoint>
            <Time>2023-01-11T11:57:23.000Z</Time>
            <Position>
              <LatitudeDegrees>-49.235050790011882781982421875</LatitudeDegrees>
              <LongitudeDegrees>-72.95304383151233196258544921875</LongitudeDegrees>
            </Position>
            <AltitudeMeters>469</AltitudeMeters>
            <DistanceMeters>18836.044602625</DistanceMeters>
          </Trackpoint>
          <Trackpoint>
            <Time>2023-01-11T11:57:24.000Z</Time>
            <Position>
              <LatitudeDegrees>-49.23505322076380252838134765625</LatitudeDegrees>
              <LongitudeDegrees>-72.95305523090064525604248046875</LongitudeDegrees>
            </Position>
            <AltitudeMeters>469.20001220703125</AltitudeMeters>
            <DistanceMeters>18836.915536848</DistanceMeters>
          </Trackpoint>
          <Trackpoint>
            <Time>2023-01-11T11:57:28.000Z</Time>
            <Position>
              <LatitudeDegrees>-49.2350630275905132293701171875</LatitudeDegrees>
              <LongitudeDegrees>-72.95306746847927570343017578125</LongitudeDegrees>
            </Position>
            <AltitudeMeters>469.399993896484375</AltitudeMeters>
            <DistanceMeters>18838.325010799</DistanceMeters>
          </Trackpoint>
          <Trackpoint>
            <Time>2023-01-11T11:57:32.000Z</Time>
            <Position>
              <LatitudeDegrees>-49.23508398234844207763671875</LatitudeDegrees>
              <LongitudeDegrees>-72.95312480069696903228759765625</LongitudeDegrees>
            </Position>
            <AltitudeMeters>469.399993896484375</AltitudeMeters>
            <DistanceMeters>18843.100044099</DistanceMeters>
          </Trackpoint>
          <Trackpoint>
            <Time>2023-01-11T11:57:35.000Z</Time>
            <Position>
              <LatitudeDegrees>-49.23509781248867511749267578125</LatitudeDegrees>
              <LongitudeDegrees>-72.953166961669921875</LongitudeDegrees>
            </Position>
            <AltitudeMeters>469.399993896484375</AltitudeMeters>
            <DistanceMeters>18846.528915565</DistanceMeters>
          </Trackpoint>
          <Trackpoint>
            <Time>2023-01-11T11:57:38.000Z</Time>
            <Position>
              <LatitudeDegrees>-49.2351149953901767730712890625</LatitudeDegrees>
              <LongitudeDegrees>-72.95318774878978729248046875</LongitudeDegrees>
            </Position>
            <AltitudeMeters>469.600006103515625</AltitudeMeters>
            <DistanceMeters>18848.966494343</DistanceMeters>
          </Trackpoint>
          <Trackpoint>
            <Time>2023-01-11T11:57:42.000Z</Time>
            <Position>
              <LatitudeDegrees>-49.23514902591705322265625</LatitudeDegrees>
              <LongitudeDegrees>-72.9531848989427089691162109375</LongitudeDegrees>
            </Position>
            <AltitudeMeters>470</AltitudeMeters>
            <DistanceMeters>18852.759238966</DistanceMeters>
          </Trackpoint>
          <Trackpoint>
            <Time>2023-01-11T11:57:43.000Z</Time>
            <Position>
              <LatitudeDegrees>-49.2351592518389225006103515625</LatitudeDegrees>
              <LongitudeDegrees>-72.95318280346691608428955078125</LongitudeDegrees>
            </Position>
            <AltitudeMeters>470.20001220703125</AltitudeMeters>
            <DistanceMeters>18853.907451125</DistanceMeters>
          </Trackpoint>
          <Trackpoint>
            <Time>2023-01-11T11:57:44.000Z</Time>
            <Position>
              <LatitudeDegrees>-49.23516981303691864013671875</LatitudeDegrees>
              <LongitudeDegrees>-72.95318548567593097686767578125</LongitudeDegrees>
            </Position>
            <AltitudeMeters>470.399993896484375</AltitudeMeters>
            <DistanceMeters>18855.098132443</DistanceMeters>
          </Trackpoint>
          <Trackpoint>
            <Time>2023-01-11T11:57:50.000Z</Time>
            <Position>
              <LatitudeDegrees>-49.23523678444325923919677734375</LatitudeDegrees>
              <LongitudeDegrees>-72.95322538353502750396728515625</LongitudeDegrees>
            </Position>
            <AltitudeMeters>471</AltitudeMeters>
            <DistanceMeters>18863.096198555</DistanceMeters>
          </Trackpoint>
          <Trackpoint>
            <Time>2023-01-11T11:57:59.000Z</Time>
            <Position>
              <LatitudeDegrees>-49.23531255684792995452880859375</LatitudeDegrees>
              <LongitudeDegrees>-72.9533149860799312591552734375</LongitudeDegrees>
            </Position>
            <AltitudeMeters>471.20001220703125</AltitudeMeters>
            <DistanceMeters>18873.751909756</DistanceMeters>
          </Trackpoint>
          <Trackpoint>
            <Time>2023-01-11T11:58:02.000Z</Time>
            <Position>
              <LatitudeDegrees>-49.2353386245667934417724609375</LatitudeDegrees>
              <LongitudeDegrees>-72.9533304087817668914794921875</LongitudeDegrees>
            </Position>
            <AltitudeMeters>471.20001220703125</AltitudeMeters>
            <DistanceMeters>18876.861766967</DistanceMeters>
          </Trackpoint>
          <Trackpoint>
            <Time>2023-01-11T11:58:04.000Z</Time>
            <Position>
              <LatitudeDegrees>-49.23535731621086597442626953125</LatitudeDegrees>
              <LongitudeDegrees>-72.9533347673714160919189453125</LongitudeDegrees>
            </Position>
            <AltitudeMeters>471.20001220703125</AltitudeMeters>
            <DistanceMeters>18878.965272959</DistanceMeters>
          </Trackpoint>
          <Trackpoint>
            <Time>2023-01-11T11:58:06.000Z</Time>
            <Position>
              <LatitudeDegrees>-49.23537894152104854583740234375</LatitudeDegrees>
              <LongitudeDegrees>-72.953337617218494415283203125</LongitudeDegrees>
            </Position>
            <AltitudeMeters>471.20001220703125</AltitudeMeters>
            <DistanceMeters>18881.380522301</DistanceMeters>
          </Trackpoint>
          <Trackpoint>
            <Time>2023-01-11T11:58:11.000Z</Time>
            <Position>
              <LatitudeDegrees>-49.2354328371584415435791015625</LatitudeDegrees>
              <LongitudeDegrees>-72.95335245318710803985595703125</LongitudeDegrees>
            </Position>
            <AltitudeMeters>471.399993896484375</AltitudeMeters>
            <DistanceMeters>18887.475580503</DistanceMeters>
          </Trackpoint>
          <Trackpoint>
            <Time>2023-01-11T11:58:16.000Z</Time>
            <Position>
              <LatitudeDegrees>-49.235478602349758148193359375</LatitudeDegrees>
              <LongitudeDegrees>-72.95339654199779033660888671875</LongitudeDegrees>
            </Position>
            <AltitudeMeters>471.600006103515625</AltitudeMeters>
            <DistanceMeters>18893.493105454</DistanceMeters>
          </Trackpoint>
          <Trackpoint>
            <Time>2023-01-11T11:58:17.000Z</Time>
            <Position>
              <LatitudeDegrees>-49.23548606224358081817626953125</LatitudeDegrees>
              <LongitudeDegrees>-72.95340626500546932220458984375</LongitudeDegrees>
            </Position>
            <AltitudeMeters>471.600006103515625</AltitudeMeters>
            <DistanceMeters>18894.580735913</DistanceMeters>
          </Trackpoint>
          <Trackpoint>
            <Time>2023-01-11T11:58:20.000Z</Time>
            <Position>
              <LatitudeDegrees>-49.23551405780017375946044921875</LatitudeDegrees>
              <LongitudeDegrees>-72.95341012068092823028564453125</LongitudeDegrees>
            </Position>
            <AltitudeMeters>471.600006103515625</AltitudeMeters>
            <DistanceMeters>18897.707966763</DistanceMeters>
          </Trackpoint>
          <Trackpoint>
            <Time>2023-01-11T11:58:25.000Z</Time>
            <Position>
              <LatitudeDegrees>-49.23555596731603145599365234375</LatitudeDegrees>
              <LongitudeDegrees>-72.953385896980762481689453125</LongitudeDegrees>
            </Position>
            <AltitudeMeters>471.79998779296875</AltitudeMeters>
            <DistanceMeters>18902.693021464</DistanceMeters>
          </Trackpoint>
          <Trackpoint>
            <Time>2023-01-11T11:58:30.000Z</Time>
            <Position>
              <LatitudeDegrees>-49.2356095276772975921630859375</LatitudeDegrees>
              <LongitudeDegrees>-72.95338262803852558135986328125</LongitudeDegrees>
            </Position>
            <AltitudeMeters>472</AltitudeMeters>
            <DistanceMeters>18908.659306853</DistanceMeters>
          </Trackpoint>
          <Trackpoint>
            <Time>2023-01-11T11:58:31.000Z</Time>
            <Position>
              <LatitudeDegrees>-49.23562050797045230865478515625</LatitudeDegrees>
              <LongitudeDegrees>-72.953382544219493865966796875</LongitudeDegrees>
            </Position>
            <AltitudeMeters>472</AltitudeMeters>
            <DistanceMeters>18909.8799471</DistanceMeters>
          </Trackpoint>
          <Trackpoint>
            <Time>2023-01-11T11:58:35.000Z</Time>
            <Position>
              <LatitudeDegrees>-49.2356645129621028900146484375</LatitudeDegrees>
              <LongitudeDegrees>-72.95339922420680522918701171875</LongitudeDegrees>
            </Position>
            <AltitudeMeters>472.20001220703125</AltitudeMeters>
            <DistanceMeters>18914.925319782</DistanceMeters>
          </Trackpoint>
          <Trackpoint>
            <Time>2023-01-11T11:58:37.000Z</Time>
            <Position>
              <LatitudeDegrees>-49.23568672500550746917724609375</LatitudeDegrees>
              <LongitudeDegrees>-72.95340995304286479949951171875</LongitudeDegrees>
            </Position>
            <AltitudeMeters>472.399993896484375</AltitudeMeters>
            <DistanceMeters>18917.515560465</DistanceMeters>
          </Trackpoint>
          <Trackpoint>
            <Time>2023-01-11T11:58:38.000Z</Time>
            <Position>
              <LatitudeDegrees>-49.23569862730801105499267578125</LatitudeDegrees>
              <LongitudeDegrees>-72.95341330580413341522216796875</LongitudeDegrees>
            </Position>
            <AltitudeMeters>472.399993896484375</AltitudeMeters>
            <DistanceMeters>18918.859441148</DistanceMeters>
          </Trackpoint>
          <Trackpoint>
            <Time>2023-01-11T11:58:43.000Z</Time>
            <Position>
              <LatitudeDegrees>-49.235749505460262298583984375</LatitudeDegrees>
              <LongitudeDegrees>-72.95344985090196132659912109375</LongitudeDegrees>
            </Position>
            <AltitudeMeters>472.79998779296875</AltitudeMeters>
            <DistanceMeters>18925.114624697</DistanceMeters>
          </Trackpoint>
          <Trackpoint>
            <Time>2023-01-11T11:58:47.000Z</Time>
            <Position>
              <LatitudeDegrees>-49.23578781075775623321533203125</LatitudeDegrees>
              <LongitudeDegrees>-72.9534561373293399810791015625</LongitudeDegrees>
            </Position>
            <AltitudeMeters>473.399993896484375</AltitudeMeters>
            <DistanceMeters>18929.40242549</DistanceMeters>
          </Trackpoint>
          <Trackpoint>
            <Time>2023-01-11T11:58:50.000Z</Time>
            <Position>
              <LatitudeDegrees>-49.2358163930475711822509765625</LatitudeDegrees>
              <LongitudeDegrees>-72.9534635134041309356689453125</LongitudeDegrees>
            </Position>
            <AltitudeMeters>473.600006103515625</AltitudeMeters>
            <DistanceMeters>18932.627739128</DistanceMeters>
          </Trackpoint>
          <Trackpoint>
            <Time>2023-01-11T11:58:52.000Z</Time>
            <Position>
              <LatitudeDegrees>-49.23583634197711944580078125</LatitudeDegrees>
              <LongitudeDegrees>-72.9534767568111419677734375</LongitudeDegrees>
            </Position>
            <AltitudeMeters>473.79998779296875</AltitudeMeters>
            <DistanceMeters>18935.046724356</DistanceMeters>
          </Trackpoint>
          <Trackpoint>
            <Time>2023-01-11T11:58:53.000Z</Time>
            <Position>
              <LatitudeDegrees>-49.23584497533738613128662109375</LatitudeDegrees>
              <LongitudeDegrees>-72.95348203741014003753662109375</LongitudeDegrees>
            </Position>
            <AltitudeMeters>473.79998779296875</AltitudeMeters>
            <DistanceMeters>18936.087689857</DistanceMeters>
          </Trackpoint>
          <Trackpoint>
            <Time>2023-01-11T11:58:57.000Z</Time>
            <Position>
              <LatitudeDegrees>-49.23588453792035579681396484375</LatitudeDegrees>
              <LongitudeDegrees>-72.95349419116973876953125</LongitudeDegrees>
            </Position>
            <AltitudeMeters>474.20001220703125</AltitudeMeters>
            <DistanceMeters>18940.580152528</DistanceMeters>
          </Trackpoint>
          <Trackpoint>
            <Time>2023-01-11T11:59:00.000Z</Time>
            <Position>
              <LatitudeDegrees>-49.235914461314678192138671875</LatitudeDegrees>
              <LongitudeDegrees>-72.95349980704486370086669921875</LongitudeDegrees>
            </Position>
            <AltitudeMeters>474.399993896484375</AltitudeMeters>
            <DistanceMeters>18943.934474404</DistanceMeters>
          </Trackpoint>
          <Trackpoint>
            <Time>2023-01-11T11:59:03.000Z</Time>
            <Position>
              <LatitudeDegrees>-49.2359323985874652862548828125</LatitudeDegrees>
              <LongitudeDegrees>-72.953503914177417755126953125</LongitudeDegrees>
            </Position>
            <AltitudeMeters>474.600006103515625</AltitudeMeters>
            <DistanceMeters>18945.954770064</DistanceMeters>
          </Trackpoint>
          <Trackpoint>
            <Time>2023-01-11T11:59:05.000Z</Time>
            <Position>
              <LatitudeDegrees>-49.2359458096325397491455078125</LatitudeDegrees>
              <LongitudeDegrees>-72.95350315980613231658935546875</LongitudeDegrees>
            </Position>
            <AltitudeMeters>474.79998779296875</AltitudeMeters>
            <DistanceMeters>18947.451252258</DistanceMeters>
          </Trackpoint>
          <Trackpoint>
            <Time>2023-01-11T11:59:11.000Z</Time>
            <Position>
              <LatitudeDegrees>-49.2359979450702667236328125</LatitudeDegrees>
              <LongitudeDegrees>-72.95350181870162487030029296875</LongitudeDegrees>
            </Position>
            <AltitudeMeters>475.20001220703125</AltitudeMeters>
            <DistanceMeters>18953.254887768</DistanceMeters>
          </Trackpoint>
          <Trackpoint>
            <Time>2023-01-11T11:59:13.000Z</Time>
            <Position>
              <LatitudeDegrees>-49.23601764254271984100341796875</LatitudeDegrees>
              <LongitudeDegrees>-72.95350064523518085479736328125</LongitudeDegrees>
            </Position>
            <AltitudeMeters>475.399993896484375</AltitudeMeters>
            <DistanceMeters>18955.450806897</DistanceMeters>
          </Trackpoint>
          <Trackpoint>
            <Time>2023-01-11T11:59:20.000Z</Time>
            <Position>
              <LatitudeDegrees>-49.23608302138745784759521484375</LatitudeDegrees>
              <LongitudeDegrees>-72.9534806124866008758544921875</LongitudeDegrees>
            </Position>
            <AltitudeMeters>476.600006103515625</AltitudeMeters>
            <DistanceMeters>18962.872630548</DistanceMeters>
          </Trackpoint>
          <Trackpoint>
            <Time>2023-01-11T11:59:21.000Z</Time>
            <Position>
              <LatitudeDegrees>-49.23609140329062938690185546875</LatitudeDegrees>
              <LongitudeDegrees>-72.95348145067691802978515625</LongitudeDegrees>
            </Position>
            <AltitudeMeters>476.79998779296875</AltitudeMeters>
            <DistanceMeters>18963.813347026</DistanceMeters>
          </Trackpoint>
          <Trackpoint>
            <Time>2023-01-11T11:59:27.000Z</Time>
            <Position>
              <LatitudeDegrees>-49.23614270053803920745849609375</LatitudeDegrees>
              <LongitudeDegrees>-72.95351556502282619476318359375</LongitudeDegrees>
            </Position>
            <AltitudeMeters>477.20001220703125</AltitudeMeters>
            <DistanceMeters>18970.038866129</DistanceMeters>
          </Trackpoint>
          <Trackpoint>
            <Time>2023-01-11T11:59:29.000Z</Time>
            <Position>
              <LatitudeDegrees>-49.23615175299346446990966796875</LatitudeDegrees>
              <LongitudeDegrees>-72.95353635214269161224365234375</LongitudeDegrees>
            </Position>
            <AltitudeMeters>477.399993896484375</AltitudeMeters>
            <DistanceMeters>18971.856834219</DistanceMeters>
          </Trackpoint>
          <Trackpoint>
            <Time>2023-01-11T11:59:37.000Z</Time>
            <Position>
              <LatitudeDegrees>-49.2361868731677532196044921875</LatitudeDegrees>
              <LongitudeDegrees>-72.95365084894001483917236328125</LongitudeDegrees>
            </Position>
            <AltitudeMeters>477.20001220703125</AltitudeMeters>
            <DistanceMeters>18981.05039259</DistanceMeters>
          </Trackpoint>
          <Trackpoint>
            <Time>2023-01-11T11:59:43.000Z</Time>
            <Position>
              <LatitudeDegrees>-49.2362150363624095916748046875</LatitudeDegrees>
              <LongitudeDegrees>-72.95373248867690563201904296875</LongitudeDegrees>
            </Position>
            <AltitudeMeters>477.399993896484375</AltitudeMeters>
            <DistanceMeters>18987.760382244</DistanceMeters>
          </Trackpoint>
          <Trackpoint>
            <Time>2023-01-11T11:59:45.000Z</Time>
            <Position>
              <LatitudeDegrees>-49.23622719012200832366943359375</LatitudeDegrees>
              <LongitudeDegrees>-72.95376174151897430419921875</LongitudeDegrees>
            </Position>
            <AltitudeMeters>477.399993896484375</AltitudeMeters>
            <DistanceMeters>18990.281725897</DistanceMeters>
          </Trackpoint>
          <Trackpoint>
            <Time>2023-01-11T11:59:49.000Z</Time>
            <Position>
              <LatitudeDegrees>-49.23623993061482906341552734375</LatitudeDegrees>
              <LongitudeDegrees>-72.95380759052932262420654296875</LongitudeDegrees>
            </Position>
            <AltitudeMeters>477</AltitudeMeters>
            <DistanceMeters>18993.902730039</DistanceMeters>
          </Trackpoint>
          <Trackpoint>
            <Time>2023-01-11T11:59:51.000Z</Time>
            <Position>
              <LatitudeDegrees>-49.23625635914504528045654296875</LatitudeDegrees>
              <LongitudeDegrees>-72.95383122749626636505126953125</LongitudeDegrees>
            </Position>
            <AltitudeMeters>476.79998779296875</AltitudeMeters>
            <DistanceMeters>18996.409706944</DistanceMeters>
          </Trackpoint>
          <Trackpoint>
            <Time>2023-01-11T11:59:52.000Z</Time>
            <Position>
              <LatitudeDegrees>-49.2362636514008045196533203125</LatitudeDegrees>
              <LongitudeDegrees>-72.9538430459797382354736328125</LongitudeDegrees>
            </Position>
            <AltitudeMeters>476.79998779296875</AltitudeMeters>
            <DistanceMeters>18997.592779997</DistanceMeters>
          </Trackpoint>
          <Trackpoint>
            <Time>2023-01-11T11:59:58.000Z</Time>
            <Position>
              <LatitudeDegrees>-49.23631067387759685516357421875</LatitudeDegrees>
              <LongitudeDegrees>-72.95392041094601154327392578125</LongitudeDegrees>
            </Position>
            <AltitudeMeters>476.79998779296875</AltitudeMeters>
            <DistanceMeters>19005.274089748</DistanceMeters>
          </Trackpoint>
          <Trackpoint>
            <Time>2023-01-11T12:00:05.000Z</Time>
            <Position>
              <LatitudeDegrees>-49.23634705133736133575439453125</LatitudeDegrees>
              <LongitudeDegrees>-72.95401998795568943023681640625</LongitudeDegrees>
            </Position>
            <AltitudeMeters>476.600006103515625</AltitudeMeters>
            <DistanceMeters>19013.565953353</DistanceMeters>
          </Trackpoint>
          <Trackpoint>
            <Time>2023-01-11T12:00:11.000Z</Time>
            <Position>
              <LatitudeDegrees>-49.23638007603585720062255859375</LatitudeDegrees>
              <LongitudeDegrees>-72.95411554165184497833251953125</LongitudeDegrees>
            </Position>
            <AltitudeMeters>475.79998779296875</AltitudeMeters>
            <DistanceMeters>19021.422772211</DistanceMeters>
          </Trackpoint>
          <Trackpoint>
            <Time>2023-01-11T12:00:12.000Z</Time>
            <Position>
              <LatitudeDegrees>-49.23638694919645786285400390625</LatitudeDegrees>
              <LongitudeDegrees>-72.954130209982395172119140625</LongitudeDegrees>
            </Position>
            <AltitudeMeters>475.79998779296875</AltitudeMeters>
            <DistanceMeters>19022.736067532</DistanceMeters>
          </Trackpoint>
          <Trackpoint>
            <Time>2023-01-11T12:00:14.000Z</Time>
            <Position>
              <LatitudeDegrees>-49.23640354536473751068115234375</LatitudeDegrees>
              <LongitudeDegrees>-72.9541689343750476837158203125</LongitudeDegrees>
            </Position>
            <AltitudeMeters>475.600006103515625</AltitudeMeters>
            <DistanceMeters>19026.10382287</DistanceMeters>
          </Trackpoint>
          <Trackpoint>
            <Time>2023-01-11T12:00:19.000Z</Time>
            <Position>
              <LatitudeDegrees>-49.23640631139278411865234375</LatitudeDegrees>
              <LongitudeDegrees>-72.954235486686229705810546875</LongitudeDegrees>
            </Position>
            <AltitudeMeters>475.399993896484375</AltitudeMeters>
            <DistanceMeters>19030.950185303</DistanceMeters>
          </Trackpoint>
          <Trackpoint>
            <Time>2023-01-11T12:00:26.000Z</Time>
            <Position>
              <LatitudeDegrees>-49.23640371300280094146728515625</LatitudeDegrees>
              <LongitudeDegrees>-72.95432609505951404571533203125</LongitudeDegrees>
            </Position>
            <AltitudeMeters>476.20001220703125</AltitudeMeters>
            <DistanceMeters>19037.540683592</DistanceMeters>
          </Trackpoint>
          <Trackpoint>
            <Time>2023-01-11T12:00:32.000Z</Time>
            <Position>
              <LatitudeDegrees>-49.23641343601047992706298828125</LatitudeDegrees>
              <LongitudeDegrees>-72.95440287329256534576416015625</LongitudeDegrees>
            </Position>
            <AltitudeMeters>476.20001220703125</AltitudeMeters>
            <DistanceMeters>19043.224838192</DistanceMeters>
          </Trackpoint>
          <Trackpoint>
            <Time>2023-01-11T12:00:34.000Z</Time>
            <Position>
              <LatitudeDegrees>-49.23643070273101329803466796875</LatitudeDegrees>
              <LongitudeDegrees>-72.95442583970725536346435546875</LongitudeDegrees>
            </Position>
            <AltitudeMeters>475.79998779296875</AltitudeMeters>
            <DistanceMeters>19045.771128608</DistanceMeters>
          </Trackpoint>
          <Trackpoint>
            <Time>2023-01-11T12:00:35.000Z</Time>
            <Position>
              <LatitudeDegrees>-49.23643422313034534454345703125</LatitudeDegrees>
              <LongitudeDegrees>-72.95444277115166187286376953125</LongitudeDegrees>
            </Position>
            <AltitudeMeters>475.600006103515625</AltitudeMeters>
            <DistanceMeters>19047.067120205</DistanceMeters>
          </Trackpoint>
          <Trackpoint>
            <Time>2023-01-11T12:00:37.000Z</Time>
            <Position>
              <LatitudeDegrees>-49.23644679598510265350341796875</LatitudeDegrees>
              <LongitudeDegrees>-72.95447026379406452178955078125</LongitudeDegrees>
            </Position>
            <AltitudeMeters>475.20001220703125</AltitudeMeters>
            <DistanceMeters>19049.506550544</DistanceMeters>
          </Trackpoint>
          <Trackpoint>
            <Time>2023-01-11T12:00:40.000Z</Time>
            <Position>
              <LatitudeDegrees>-49.2364644818007946014404296875</LatitudeDegrees>
              <LongitudeDegrees>-72.954504378139972686767578125</LongitudeDegrees>
            </Position>
            <AltitudeMeters>475</AltitudeMeters>
            <DistanceMeters>19052.672523515</DistanceMeters>
          </Trackpoint>
          <Trackpoint>
            <Time>2023-01-11T12:00:49.000Z</Time>
            <Position>
              <LatitudeDegrees>-49.23653773963451385498046875</LatitudeDegrees>
              <LongitudeDegrees>-72.9545920528471469879150390625</LongitudeDegrees>
            </Position>
            <AltitudeMeters>474.79998779296875</AltitudeMeters>
            <DistanceMeters>19063.02040477</DistanceMeters>
          </Trackpoint>
          <Trackpoint>
            <Time>2023-01-11T12:00:50.000Z</Time>
            <Position>
              <LatitudeDegrees>-49.2365456186234951019287109375</LatitudeDegrees>
              <LongitudeDegrees>-72.95460722409188747406005859375</LongitudeDegrees>
            </Position>
            <AltitudeMeters>474.600006103515625</AltitudeMeters>
            <DistanceMeters>19064.42987872</DistanceMeters>
          </Trackpoint>
          <Trackpoint>
            <Time>2023-01-11T12:00:51.000Z</Time>
            <Position>
              <LatitudeDegrees>-49.23655190505087375640869140625</LatitudeDegrees>
              <LongitudeDegrees>-72.95462767593562602996826171875</LongitudeDegrees>
            </Position>
            <AltitudeMeters>474.600006103515625</AltitudeMeters>
            <DistanceMeters>19066.07029415</DistanceMeters>
          </Trackpoint>
          <Trackpoint>
            <Time>2023-01-11T12:00:55.000Z</Time>
            <Position>
              <LatitudeDegrees>-49.2365791462361812591552734375</LatitudeDegrees>
              <LongitudeDegrees>-72.954698167741298675537109375</LongitudeDegrees>
            </Position>
            <AltitudeMeters>475.20001220703125</AltitudeMeters>
            <DistanceMeters>19072.022942297</DistanceMeters>
          </Trackpoint>
          <Trackpoint>
            <Time>2023-01-11T12:00:58.000Z</Time>
            <Position>
              <LatitudeDegrees>-49.2366096563637256622314453125</LatitudeDegrees>
              <LongitudeDegrees>-72.95473580248653888702392578125</LongitudeDegrees>
            </Position>
            <AltitudeMeters>475.399993896484375</AltitudeMeters>
            <DistanceMeters>19076.383829935</DistanceMeters>
          </Trackpoint>
          <Trackpoint>
            <Time>2023-01-11T12:01:02.000Z</Time>
            <Position>
              <LatitudeDegrees>-49.236632287502288818359375</LatitudeDegrees>
              <LongitudeDegrees>-72.9548124969005584716796875</LongitudeDegrees>
            </Position>
            <AltitudeMeters>475.600006103515625</AltitudeMeters>
            <DistanceMeters>19082.499594534</DistanceMeters>
          </Trackpoint>
          <Trackpoint>
            <Time>2023-01-11T12:01:05.000Z</Time>
            <Position>
              <LatitudeDegrees>-49.23665131442248821258544921875</LatitudeDegrees>
              <LongitudeDegrees>-72.954870499670505523681640625</LongitudeDegrees>
            </Position>
            <AltitudeMeters>475.20001220703125</AltitudeMeters>
            <DistanceMeters>19087.216596586</DistanceMeters>
          </Trackpoint>
          <Trackpoint>
            <Time>2023-01-11T12:01:06.000Z</Time>
            <Position>
              <LatitudeDegrees>-49.2366616241633892059326171875</LatitudeDegrees>
              <LongitudeDegrees>-72.9548854194581508636474609375</LongitudeDegrees>
            </Position>
            <AltitudeMeters>475.20001220703125</AltitudeMeters>
            <DistanceMeters>19088.795298932</DistanceMeters>
          </Trackpoint>
          <Trackpoint>
            <Time>2023-01-11T12:01:07.000Z</Time>
            <Position>
              <LatitudeDegrees>-49.2366733588278293609619140625</LatitudeDegrees>
              <LongitudeDegrees>-72.95489857904613018035888671875</LongitudeDegrees>
            </Position>
            <AltitudeMeters>475</AltitudeMeters>
            <DistanceMeters>19090.416333246</DistanceMeters>
          </Trackpoint>
          <Trackpoint>
            <Time>2023-01-11T12:01:11.000Z</Time>
            <Position>
              <LatitudeDegrees>-49.23669875599443912506103515625</LatitudeDegrees>
              <LongitudeDegrees>-72.9549333639442920684814453125</LongitudeDegrees>
            </Position>
            <AltitudeMeters>475.20001220703125</AltitudeMeters>
            <DistanceMeters>19094.207887241</DistanceMeters>
          </Trackpoint>
          <Trackpoint>
            <Time>2023-01-11T12:01:17.000Z</Time>
            <Position>
              <LatitudeDegrees>-49.2367637157440185546875</LatitudeDegrees>
              <LongitudeDegrees>-72.9549548216164112091064453125</LongitudeDegrees>
            </Position>
            <AltitudeMeters>475.600006103515625</AltitudeMeters>
            <DistanceMeters>19101.604116219</DistanceMeters>
          </Trackpoint>
          <Trackpoint>
            <Time>2023-01-11T12:01:20.000Z</Time>
            <Position>
              <LatitudeDegrees>-49.236798584461212158203125</LatitudeDegrees>
              <LongitudeDegrees>-72.95496881939470767974853515625</LongitudeDegrees>
            </Position>
            <AltitudeMeters>475.79998779296875</AltitudeMeters>
            <DistanceMeters>19105.615549407</DistanceMeters>
          </Trackpoint>
          <Trackpoint>
            <Time>2023-01-11T12:01:26.000Z</Time>
            <Position>
              <LatitudeDegrees>-49.23686387948691844940185546875</LatitudeDegrees>
              <LongitudeDegrees>-72.955002598464488983154296875</LongitudeDegrees>
            </Position>
            <AltitudeMeters>476.20001220703125</AltitudeMeters>
            <DistanceMeters>19113.286271545</DistanceMeters>
          </Trackpoint>
          <Trackpoint>
            <Time>2023-01-11T12:01:30.000Z</Time>
            <Position>
              <LatitudeDegrees>-49.23690545372664928436279296875</LatitudeDegrees>
              <LongitudeDegrees>-72.9550262354314327239990234375</LongitudeDegrees>
            </Position>
            <AltitudeMeters>476.399993896484375</AltitudeMeters>
            <DistanceMeters>19118.222175337</DistanceMeters>
          </Trackpoint>
          <Trackpoint>
            <Time>2023-01-11T12:01:35.000Z</Time>
            <Position>
              <LatitudeDegrees>-49.23696077428758144378662109375</LatitudeDegrees>
              <LongitudeDegrees>-72.955034784972667694091796875</LongitudeDegrees>
            </Position>
            <AltitudeMeters>476.399993896484375</AltitudeMeters>
            <DistanceMeters>19124.410596315</DistanceMeters>
          </Trackpoint>
          <Trackpoint>
            <Time>2023-01-11T12:01:36.000Z</Time>
            <Position>
              <LatitudeDegrees>-49.2369734309613704681396484375</LatitudeDegrees>
              <LongitudeDegrees>-72.95503755100071430206298828125</LongitudeDegrees>
            </Position>
            <AltitudeMeters>476.399993896484375</AltitudeMeters>
            <DistanceMeters>19125.83599703</DistanceMeters>
          </Trackpoint>
          <Trackpoint>
            <Time>2023-01-11T12:01:37.000Z</Time>
            <Position>
              <LatitudeDegrees>-49.23698139376938343048095703125</LatitudeDegrees>
              <LongitudeDegrees>-72.95503520406782627105712890625</LongitudeDegrees>
            </Position>
            <AltitudeMeters>476.399993896484375</AltitudeMeters>
            <DistanceMeters>19126.737499598</DistanceMeters>
          </Trackpoint>
          <Trackpoint>
            <Time>2023-01-11T12:01:39.000Z</Time>
            <Position>
              <LatitudeDegrees>-49.2369975708425045013427734375</LatitudeDegrees>
              <LongitudeDegrees>-72.95503067784011363983154296875</LongitudeDegrees>
            </Position>
            <AltitudeMeters>476.399993896484375</AltitudeMeters>
            <DistanceMeters>19128.56784338</DistanceMeters>
          </Trackpoint>
          <Trackpoint>
            <Time>2023-01-11T12:01:40.000Z</Time>
            <Position>
              <LatitudeDegrees>-49.23700704239308834075927734375</LatitudeDegrees>
              <LongitudeDegrees>-72.95502749271690845489501953125</LongitudeDegrees>
            </Position>
            <AltitudeMeters>476.399993896484375</AltitudeMeters>
            <DistanceMeters>19129.651314625</DistanceMeters>
          </Trackpoint>
          <Trackpoint>
            <Time>2023-01-11T12:01:43.000Z</Time>
            <Position>
              <LatitudeDegrees>-49.23703855834901332855224609375</LatitudeDegrees>
              <LongitudeDegrees>-72.95502397231757640838623046875</LongitudeDegrees>
            </Position>
            <AltitudeMeters>476.399993896484375</AltitudeMeters>
            <DistanceMeters>19133.168586967</DistanceMeters>
          </Trackpoint>
          <Trackpoint>
            <Time>2023-01-11T12:01:45.000Z</Time>
            <Position>
              <LatitudeDegrees>-49.23705817200243473052978515625</LatitudeDegrees>
              <LongitudeDegrees>-72.9550155065953731536865234375</LongitudeDegrees>
            </Position>
            <AltitudeMeters>476.399993896484375</AltitudeMeters>
            <DistanceMeters>19135.437318677</DistanceMeters>
          </Trackpoint>
          <Trackpoint>
            <Time>2023-01-11T12:01:49.000Z</Time>
            <Position>
              <LatitudeDegrees>-49.23709890805184841156005859375</LatitudeDegrees>
              <LongitudeDegrees>-72.9549974016845226287841796875</LongitudeDegrees>
            </Position>
            <AltitudeMeters>476.399993896484375</AltitudeMeters>
            <DistanceMeters>19140.159104223</DistanceMeters>
          </Trackpoint>
          <Trackpoint>
            <Time>2023-01-11T12:01:51.000Z</Time>
            <Position>
              <LatitudeDegrees>-49.23711441457271575927734375</LatitudeDegrees>
              <LongitudeDegrees>-72.954989187419414520263671875</LongitudeDegrees>
            </Position>
            <AltitudeMeters>476.399993896484375</AltitudeMeters>
            <DistanceMeters>19141.984507797</DistanceMeters>
          </Trackpoint>
          <Trackpoint>
            <Time>2023-01-11T12:01:54.000Z</Time>
            <Position>
              <LatitudeDegrees>-49.23714048229157924652099609375</LatitudeDegrees>
              <LongitudeDegrees>-72.9549621976912021636962890625</LongitudeDegrees>
            </Position>
            <AltitudeMeters>476.399993896484375</AltitudeMeters>
            <DistanceMeters>19145.486342146</DistanceMeters>
          </Trackpoint>
          <Trackpoint>
            <Time>2023-01-11T12:01:58.000Z</Time>
            <Position>
              <LatitudeDegrees>-49.23717149533331394195556640625</LatitudeDegrees>
              <LongitudeDegrees>-72.95494535006582736968994140625</LongitudeDegrees>
            </Position>
            <AltitudeMeters>476.399993896484375</AltitudeMeters>
            <DistanceMeters>19149.148262888</DistanceMeters>
          </Trackpoint>
          <Trackpoint>
            <Time>2023-01-11T12:01:59.000Z</Time>
            <Position>
              <LatitudeDegrees>-49.23717753030359745025634765625</LatitudeDegrees>
              <LongitudeDegrees>-72.954942248761653900146484375</LongitudeDegrees>
            </Position>
            <AltitudeMeters>476.399993896484375</AltitudeMeters>
            <DistanceMeters>19149.859377704</DistanceMeters>
          </Trackpoint>
          <Trackpoint>
            <Time>2023-01-11T12:02:04.000Z</Time>
            <Position>
              <LatitudeDegrees>-49.237217009067535400390625</LatitudeDegrees>
              <LongitudeDegrees>-72.9549541510641574859619140625</LongitudeDegrees>
            </Position>
            <AltitudeMeters>476.399993896484375</AltitudeMeters>
            <DistanceMeters>19154.337747918</DistanceMeters>
          </Trackpoint>
          <Trackpoint>
            <Time>2023-01-11T12:02:08.000Z</Time>
            <Position>
              <LatitudeDegrees>-49.2372500337660312652587890625</LatitudeDegrees>
              <LongitudeDegrees>-72.95500284992158412933349609375</LongitudeDegrees>
            </Position>
            <AltitudeMeters>476.399993896484375</AltitudeMeters>
            <DistanceMeters>19159.440071937</DistanceMeters>
          </Trackpoint>
          <Trackpoint>
            <Time>2023-01-11T12:02:10.000Z</Time>
            <Position>
              <LatitudeDegrees>-49.23725397326052188873291015625</LatitudeDegrees>
              <LongitudeDegrees>-72.9550372995436191558837890625</LongitudeDegrees>
            </Position>
            <AltitudeMeters>476.399993896484375</AltitudeMeters>
            <DistanceMeters>19161.981037237</DistanceMeters>
          </Trackpoint>
          <Trackpoint>
            <Time>2023-01-11T12:02:18.000Z</Time>
            <Position>
              <LatitudeDegrees>-49.2372973076999187469482421875</LatitudeDegrees>
              <LongitudeDegrees>-72.95515422709286212921142578125</LongitudeDegrees>
            </Position>
            <AltitudeMeters>476.399993896484375</AltitudeMeters>
            <DistanceMeters>19171.751706005</DistanceMeters>
          </Trackpoint>
          <Trackpoint>
            <Time>2023-01-11T12:02:21.000Z</Time>
            <Position>
              <LatitudeDegrees>-49.23731549642980098724365234375</LatitudeDegrees>
              <LongitudeDegrees>-72.9551864974200725555419921875</LongitudeDegrees>
            </Position>
            <AltitudeMeters>476.399993896484375</AltitudeMeters>
            <DistanceMeters>19174.848469022</DistanceMeters>
          </Trackpoint>
          <Trackpoint>
            <Time>2023-01-11T12:02:25.000Z</Time>
            <Position>
              <LatitudeDegrees>-49.2373395524919033050537109375</LatitudeDegrees>
              <LongitudeDegrees>-72.9552336037158966064453125</LongitudeDegrees>
            </Position>
            <AltitudeMeters>476.399993896484375</AltitudeMeters>
            <DistanceMeters>19179.193798681</DistanceMeters>
          </Trackpoint>
          <Trackpoint>
            <Time>2023-01-11T12:02:28.000Z</Time>
            <Position>
              <LatitudeDegrees>-49.23735774122178554534912109375</LatitudeDegrees>
              <LongitudeDegrees>-72.95526109635829925537109375</LongitudeDegrees>
            </Position>
            <AltitudeMeters>479.20001220703125</AltitudeMeters>
            <DistanceMeters>19182.038257943</DistanceMeters>
          </Trackpoint>
          <Trackpoint>
            <Time>2023-01-11T12:02:29.000Z</Time>
            <Position>
              <LatitudeDegrees>-49.237364865839481353759765625</LatitudeDegrees>
              <LongitudeDegrees>-72.9552649520337581634521484375</LongitudeDegrees>
            </Position>
            <AltitudeMeters>479.20001220703125</AltitudeMeters>
            <DistanceMeters>19182.87751116</DistanceMeters>
          </Trackpoint>
          <Trackpoint>
            <Time>2023-01-11T12:02:33.000Z</Time>
            <Position>
              <LatitudeDegrees>-49.2373980581760406494140625</LatitudeDegrees>
              <LongitudeDegrees>-72.95529470779001712799072265625</LongitudeDegrees>
            </Position>
            <AltitudeMeters>479.399993896484375</AltitudeMeters>
            <DistanceMeters>19187.158989314</DistanceMeters>
          </Trackpoint>
          <Trackpoint>
            <Time>2023-01-11T12:02:46.000Z</Time>
            <Position>
              <LatitudeDegrees>-49.23751850612461566925048828125</LatitudeDegrees>
              <LongitudeDegrees>-72.95533007942140102386474609375</LongitudeDegrees>
            </Position>
            <AltitudeMeters>480</AltitudeMeters>
            <DistanceMeters>19200.809139399</DistanceMeters>
          </Trackpoint>
          <Trackpoint>
            <Time>2023-01-11T12:02:49.000Z</Time>
            <Position>
              <LatitudeDegrees>-49.2375457473099231719970703125</LatitudeDegrees>
              <LongitudeDegrees>-72.95532421208918094635009765625</LongitudeDegrees>
            </Position>
            <AltitudeMeters>480.20001220703125</AltitudeMeters>
            <DistanceMeters>19203.870710784</DistanceMeters>
          </Trackpoint>
          <Trackpoint>
            <Time>2023-01-11T12:02:58.000Z</Time>
            <Position>
              <LatitudeDegrees>-49.2376292310655117034912109375</LatitudeDegrees>
              <LongitudeDegrees>-72.9553591646254062652587890625</LongitudeDegrees>
            </Position>
            <AltitudeMeters>481.20001220703125</AltitudeMeters>
            <DistanceMeters>19213.503626518</DistanceMeters>
          </Trackpoint>
          <Trackpoint>
            <Time>2023-01-11T12:02:59.000Z</Time>
            <Position>
              <LatitudeDegrees>-49.23763744533061981201171875</LatitudeDegrees>
              <LongitudeDegrees>-72.95536008663475513458251953125</LongitudeDegrees>
            </Position>
            <AltitudeMeters>481.399993896484375</AltitudeMeters>
            <DistanceMeters>19214.415090743</DistanceMeters>
          </Trackpoint>
          <Trackpoint>
            <Time>2023-01-11T12:03:06.000Z</Time>
            <Position>
              <LatitudeDegrees>-49.2377110384404659271240234375</LatitudeDegrees>
              <LongitudeDegrees>-72.95538523234426975250244140625</LongitudeDegrees>
            </Position>
            <AltitudeMeters>482</AltitudeMeters>
            <DistanceMeters>19222.807084915</DistanceMeters>
          </Trackpoint>
          <Trackpoint>
            <Time>2023-01-11T12:03:08.000Z</Time>
            <Position>
              <LatitudeDegrees>-49.23772855661809444427490234375</LatitudeDegrees>
              <LongitudeDegrees>-72.95539160259068012237548828125</LongitudeDegrees>
            </Position>
            <AltitudeMeters>481.79998779296875</AltitudeMeters>
            <DistanceMeters>19224.813926736</DistanceMeters>
          </Trackpoint>
          <Trackpoint>
            <Time>2023-01-11T12:03:17.000Z</Time>
            <Position>
              <LatitudeDegrees>-49.237812794744968414306640625</LatitudeDegrees>
              <LongitudeDegrees>-72.95543418265879154205322265625</LongitudeDegrees>
            </Position>
            <AltitudeMeters>481.600006103515625</AltitudeMeters>
            <DistanceMeters>19234.687563619</DistanceMeters>
          </Trackpoint>
          <Trackpoint>
            <Time>2023-01-11T12:03:22.000Z</Time>
            <Position>
              <LatitudeDegrees>-49.23786099068820476531982421875</LatitudeDegrees>
              <LongitudeDegrees>-72.9554744996130466461181640625</LongitudeDegrees>
            </Position>
            <AltitudeMeters>481.399993896484375</AltitudeMeters>
            <DistanceMeters>19240.800374455</DistanceMeters>
          </Trackpoint>
          <Trackpoint>
            <Time>2023-01-11T12:03:25.000Z</Time>
            <Position>
              <LatitudeDegrees>-49.2378887347877025604248046875</LatitudeDegrees>
              <LongitudeDegrees>-72.95549369417130947113037109375</LongitudeDegrees>
            </Position>
            <AltitudeMeters>481.20001220703125</AltitudeMeters>
            <DistanceMeters>19244.189512581</DistanceMeters>
          </Trackpoint>
          <Trackpoint>
            <Time>2023-01-11T12:03:29.000Z</Time>
            <Position>
              <LatitudeDegrees>-49.23792234621942043304443359375</LatitudeDegrees>
              <LongitudeDegrees>-72.95553878881037235260009765625</LongitudeDegrees>
            </Position>
            <AltitudeMeters>481</AltitudeMeters>
            <DistanceMeters>19249.161871106</DistanceMeters>
          </Trackpoint>
          <Trackpoint>
            <Time>2023-01-11T12:03:33.000Z</Time>
            <Position>
              <LatitudeDegrees>-49.23794548027217388153076171875</LatitudeDegrees>
              <LongitudeDegrees>-72.95560316182672977447509765625</LongitudeDegrees>
            </Position>
            <AltitudeMeters>480.600006103515625</AltitudeMeters>
            <DistanceMeters>19254.500309198</DistanceMeters>
          </Trackpoint>
          <Trackpoint>
            <Time>2023-01-11T12:03:37.000Z</Time>
            <Position>
              <LatitudeDegrees>-49.23797498457133769989013671875</LatitudeDegrees>
              <LongitudeDegrees>-72.9556434787809848785400390625</LongitudeDegrees>
            </Position>
            <AltitudeMeters>480.399993896484375</AltitudeMeters>
            <DistanceMeters>19258.900364186</DistanceMeters>
          </Trackpoint>
          <Trackpoint>
            <Time>2023-01-11T12:03:41.000Z</Time>
            <Position>
              <LatitudeDegrees>-49.237998537719249725341796875</LatitudeDegrees>
              <LongitudeDegrees>-72.95569695532321929931640625</LongitudeDegrees>
            </Position>
            <AltitudeMeters>480.20001220703125</AltitudeMeters>
            <DistanceMeters>19263.588562781</DistanceMeters>
          </Trackpoint>
          <Trackpoint>
            <Time>2023-01-11T12:03:43.000Z</Time>
            <Position>
              <LatitudeDegrees>-49.23799845390021800994873046875</LatitudeDegrees>
              <LongitudeDegrees>-72.95572754926979541778564453125</LongitudeDegrees>
            </Position>
            <AltitudeMeters>480.20001220703125</AltitudeMeters>
            <DistanceMeters>19265.813081131</DistanceMeters>
          </Trackpoint>
          <Trackpoint>
            <Time>2023-01-11T12:03:52.000Z</Time>
            <Position>
              <LatitudeDegrees>-49.238024018704891204833984375</LatitudeDegrees>
              <LongitudeDegrees>-72.9558523558080196380615234375</LongitudeDegrees>
            </Position>
            <AltitudeMeters>479.20001220703125</AltitudeMeters>
            <DistanceMeters>19275.319077921</DistanceMeters>
          </Trackpoint>
          <Trackpoint>
            <Time>2023-01-11T12:03:59.000Z</Time>
            <Position>
              <LatitudeDegrees>-49.23804287798702716827392578125</LatitudeDegrees>
              <LongitudeDegrees>-72.95590189285576343536376953125</LongitudeDegrees>
            </Position>
            <AltitudeMeters>478.600006103515625</AltitudeMeters>
            <DistanceMeters>19279.487275023</DistanceMeters>
          </Trackpoint>
          <Trackpoint>
            <Time>2023-01-11T12:04:01.000Z</Time>
            <Position>
              <LatitudeDegrees>-49.238051511347293853759765625</LatitudeDegrees>
              <LongitudeDegrees>-72.95592905022203922271728515625</LongitudeDegrees>
            </Position>
            <AltitudeMeters>478.399993896484375</AltitudeMeters>
            <DistanceMeters>19281.683194152</DistanceMeters>
          </Trackpoint>
          <Trackpoint>
            <Time>2023-01-11T12:04:03.000Z</Time>
            <Position>
              <LatitudeDegrees>-49.23805813305079936981201171875</LatitudeDegrees>
              <LongitudeDegrees>-72.955965511500835418701171875</LongitudeDegrees>
            </Position>
            <AltitudeMeters>478.399993896484375</AltitudeMeters>
            <DistanceMeters>19284.434049303</DistanceMeters>
          </Trackpoint>
          <Trackpoint>
            <Time>2023-01-11T12:04:06.000Z</Time>
            <Position>
              <LatitudeDegrees>-49.2380726337432861328125</LatitudeDegrees>
              <LongitudeDegrees>-72.95601270161569118499755859375</LongitudeDegrees>
            </Position>
            <AltitudeMeters>478.20001220703125</AltitudeMeters>
            <DistanceMeters>19288.225603298</DistanceMeters>
          </Trackpoint>
          <Trackpoint>
            <Time>2023-01-11T12:04:12.000Z</Time>
            <Position>
              <LatitudeDegrees>-49.23810155130922794342041015625</LatitudeDegrees>
              <LongitudeDegrees>-72.956108339130878448486328125</LongitudeDegrees>
            </Position>
            <AltitudeMeters>478.20001220703125</AltitudeMeters>
            <DistanceMeters>19295.884544255</DistanceMeters>
          </Trackpoint>
          <Trackpoint>
            <Time>2023-01-11T12:04:14.000Z</Time>
            <Position>
              <LatitudeDegrees>-49.23811261542141437530517578125</LatitudeDegrees>
              <LongitudeDegrees>-72.95612736605107784271240234375</LongitudeDegrees>
            </Position>
            <AltitudeMeters>478.399993896484375</AltitudeMeters>
            <DistanceMeters>19297.736955939</DistanceMeters>
          </Trackpoint>
          <Trackpoint>
            <Time>2023-01-11T12:04:21.000Z</Time>
            <Position>
              <LatitudeDegrees>-49.2381616495549678802490234375</LatitudeDegrees>
              <LongitudeDegrees>-72.95615636743605136871337890625</LongitudeDegrees>
            </Position>
            <AltitudeMeters>479.20001220703125</AltitudeMeters>
            <DistanceMeters>19303.587083264</DistanceMeters>
          </Trackpoint>
          <Trackpoint>
            <Time>2023-01-11T12:04:22.000Z</Time>
            <Position>
              <LatitudeDegrees>-49.238165505230426788330078125</LatitudeDegrees>
              <LongitudeDegrees>-72.95615854673087596893310546875</LongitudeDegrees>
            </Position>
            <AltitudeMeters>479.20001220703125</AltitudeMeters>
            <DistanceMeters>19304.042815377</DistanceMeters>
          </Trackpoint>
          <Trackpoint>
            <Time>2023-01-11T12:04:24.000Z</Time>
            <Position>
              <LatitudeDegrees>-49.23817799426615238189697265625</LatitudeDegrees>
              <LongitudeDegrees>-72.9561725445091724395751953125</LongitudeDegrees>
            </Position>
            <AltitudeMeters>479.399993896484375</AltitudeMeters>
            <DistanceMeters>19305.763822371</DistanceMeters>
          </Trackpoint>
          <Trackpoint>
            <Time>2023-01-11T12:04:28.000Z</Time>
            <Position>
              <LatitudeDegrees>-49.238209091126918792724609375</LatitudeDegrees>
              <LongitudeDegrees>-72.95620582066476345062255859375</LongitudeDegrees>
            </Position>
            <AltitudeMeters>479.79998779296875</AltitudeMeters>
            <DistanceMeters>19309.985832662</DistanceMeters>
          </Trackpoint>
          <Trackpoint>
            <Time>2023-01-11T12:04:30.000Z</Time>
            <Position>
              <LatitudeDegrees>-49.23822493292391300201416015625</LatitudeDegrees>
              <LongitudeDegrees>-72.9562137834727764129638671875</LongitudeDegrees>
            </Position>
            <AltitudeMeters>480.20001220703125</AltitudeMeters>
            <DistanceMeters>19311.843112717</DistanceMeters>
          </Trackpoint>
          <Trackpoint>
            <Time>2023-01-11T12:04:34.000Z</Time>
            <Position>
              <LatitudeDegrees>-49.238243959844112396240234375</LatitudeDegrees>
              <LongitudeDegrees>-72.95627723447978496551513671875</LongitudeDegrees>
            </Position>
            <AltitudeMeters>480.20001220703125</AltitudeMeters>
            <DistanceMeters>19316.917930745</DistanceMeters>
          </Trackpoint>
          <Trackpoint>
            <Time>2023-01-11T12:04:36.000Z</Time>
            <Position>
              <LatitudeDegrees>-49.23824337311089038848876953125</LatitudeDegrees>
              <LongitudeDegrees>-72.95630841515958309173583984375</LongitudeDegrees>
            </Position>
            <AltitudeMeters>480.20001220703125</AltitudeMeters>
            <DistanceMeters>19319.186662455</DistanceMeters>
          </Trackpoint>
          <Trackpoint>
            <Time>2023-01-11T12:04:37.000Z</Time>
            <Position>
              <LatitudeDegrees>-49.238247983157634735107421875</LatitudeDegrees>
              <LongitudeDegrees>-72.9563234187662601470947265625</LongitudeDegrees>
            </Position>
            <AltitudeMeters>480.20001220703125</AltitudeMeters>
            <DistanceMeters>19320.396155069</DistanceMeters>
          </Trackpoint>
          <Trackpoint>
            <Time>2023-01-11T12:04:40.000Z</Time>
            <Position>
              <LatitudeDegrees>-49.23825829289853572845458984375</LatitudeDegrees>
              <LongitudeDegrees>-72.95636021532118320465087890625</LongitudeDegrees>
            </Position>
            <AltitudeMeters>480.20001220703125</AltitudeMeters>
            <DistanceMeters>19323.306517883</DistanceMeters>
          </Trackpoint>
          <Trackpoint>
            <Time>2023-01-11T12:04:44.000Z</Time>
            <Position>
              <LatitudeDegrees>-49.2382751405239105224609375</LatitudeDegrees>
              <LongitudeDegrees>-72.95639097690582275390625</LongitudeDegrees>
            </Position>
            <AltitudeMeters>480.20001220703125</AltitudeMeters>
            <DistanceMeters>19326.224627217</DistanceMeters>
          </Trackpoint>
          <Trackpoint>
            <Time>2023-01-11T12:04:49.000Z</Time>
            <Position>
              <LatitudeDegrees>-49.2383028008043766021728515625</LatitudeDegrees>
              <LongitudeDegrees>-72.956405393779277801513671875</LongitudeDegrees>
            </Position>
            <AltitudeMeters>480.20001220703125</AltitudeMeters>
            <DistanceMeters>19329.47504095</DistanceMeters>
          </Trackpoint>
          <Trackpoint>
            <Time>2023-01-11T12:04:51.000Z</Time>
            <Position>
              <LatitudeDegrees>-49.23831495456397533416748046875</LatitudeDegrees>
              <LongitudeDegrees>-72.95641067437827587127685546875</LongitudeDegrees>
            </Position>
            <AltitudeMeters>480.20001220703125</AltitudeMeters>
            <DistanceMeters>19330.878093574</DistanceMeters>
          </Trackpoint>
          <Trackpoint>
            <Time>2023-01-11T12:04:58.000Z</Time>
            <Position>
              <LatitudeDegrees>-49.2383690178394317626953125</LatitudeDegrees>
              <LongitudeDegrees>-72.95642173849046230316162109375</LongitudeDegrees>
            </Position>
            <AltitudeMeters>480.20001220703125</AltitudeMeters>
            <DistanceMeters>19336.94940085</DistanceMeters>
          </Trackpoint>
          <Trackpoint>
            <Time>2023-01-11T12:05:06.000Z</Time>
            <Position>
              <LatitudeDegrees>-49.23841805197298526763916015625</LatitudeDegrees>
              <LongitudeDegrees>-72.95645928941667079925537109375</LongitudeDegrees>
            </Position>
            <AltitudeMeters>480.20001220703125</AltitudeMeters>
            <DistanceMeters>19343.051122343</DistanceMeters>
          </Trackpoint>
          <Trackpoint>
            <Time>2023-01-11T12:05:09.000Z</Time>
            <Position>
              <LatitudeDegrees>-49.23844085074961185455322265625</LatitudeDegrees>
              <LongitudeDegrees>-72.9564893804490566253662109375</LongitudeDegrees>
            </Position>
            <AltitudeMeters>480.20001220703125</AltitudeMeters>
            <DistanceMeters>19346.400055747</DistanceMeters>
          </Trackpoint>
          <Trackpoint>
            <Time>2023-01-11T12:05:18.000Z</Time>
            <Position>
              <LatitudeDegrees>-49.238459877669811248779296875</LatitudeDegrees>
              <LongitudeDegrees>-72.95663313008844852447509765625</LongitudeDegrees>
            </Position>
            <AltitudeMeters>480.20001220703125</AltitudeMeters>
            <DistanceMeters>19357.058732576</DistanceMeters>
          </Trackpoint>
          <Trackpoint>
            <Time>2023-01-11T12:05:24.000Z</Time>
            <Position>
              <LatitudeDegrees>-49.23848770558834075927734375</LatitudeDegrees>
              <LongitudeDegrees>-72.95671619474887847900390625</LongitudeDegrees>
            </Position>
            <AltitudeMeters>480.20001220703125</AltitudeMeters>
            <DistanceMeters>19363.8436666</DistanceMeters>
          </Trackpoint>
          <Trackpoint>
            <Time>2023-01-11T12:05:29.000Z</Time>
            <Position>
              <LatitudeDegrees>-49.238486699759960174560546875</LatitudeDegrees>
              <LongitudeDegrees>-72.9567892849445343017578125</LongitudeDegrees>
            </Position>
            <AltitudeMeters>480.20001220703125</AltitudeMeters>
            <DistanceMeters>19369.156671302</DistanceMeters>
          </Trackpoint>
          <Trackpoint>
            <Time>2023-01-11T12:05:31.000Z</Time>
            <Position>
              <LatitudeDegrees>-49.2384754680097103118896484375</LatitudeDegrees>
              <LongitudeDegrees>-72.95681476593017578125</LongitudeDegrees>
            </Position>
            <AltitudeMeters>486.20001220703125</AltitudeMeters>
            <DistanceMeters>19371.391314959</DistanceMeters>
          </Trackpoint>
          <Trackpoint>
            <Time>2023-01-11T12:05:32.000Z</Time>
            <Position>
              <LatitudeDegrees>-49.23847102560102939605712890625</LatitudeDegrees>
              <LongitudeDegrees>-72.95683496631681919097900390625</LongitudeDegrees>
            </Position>
            <AltitudeMeters>486.20001220703125</AltitudeMeters>
            <DistanceMeters>19372.941153768</DistanceMeters>
          </Trackpoint>
          <Trackpoint>
            <Time>2023-01-11T12:05:41.000Z</Time>
            <Position>
              <LatitudeDegrees>-49.23847940750420093536376953125</LatitudeDegrees>
              <LongitudeDegrees>-72.95699422247707843780517578125</LongitudeDegrees>
            </Position>
            <AltitudeMeters>485.79998779296875</AltitudeMeters>
            <DistanceMeters>19384.551925114</DistanceMeters>
          </Trackpoint>
          <Trackpoint>
            <Time>2023-01-11T12:05:45.000Z</Time>
            <Position>
              <LatitudeDegrees>-49.238497428596019744873046875</LatitudeDegrees>
              <LongitudeDegrees>-72.9570452682673931121826171875</LongitudeDegrees>
            </Position>
            <AltitudeMeters>485.79998779296875</AltitudeMeters>
            <DistanceMeters>19388.769655616</DistanceMeters>
          </Trackpoint>
          <Trackpoint>
            <Time>2023-01-11T12:05:48.000Z</Time>
            <Position>
              <LatitudeDegrees>-49.238505475223064422607421875</LatitudeDegrees>
              <LongitudeDegrees>-72.957090698182582855224609375</LongitudeDegrees>
            </Position>
            <AltitudeMeters>485.600006103515625</AltitudeMeters>
            <DistanceMeters>19392.190617334</DistanceMeters>
          </Trackpoint>
          <Trackpoint>
            <Time>2023-01-11T12:05:56.000Z</Time>
            <Position>
              <LatitudeDegrees>-49.23854076303541660308837890625</LatitudeDegrees>
              <LongitudeDegrees>-72.95718097127974033355712890625</LongitudeDegrees>
            </Position>
            <AltitudeMeters>486</AltitudeMeters>
            <DistanceMeters>19399.836578025</DistanceMeters>
          </Trackpoint>
          <Trackpoint>
            <Time>2023-01-11T12:05:59.000Z</Time>
            <Position>
              <LatitudeDegrees>-49.23854805529117584228515625</LatitudeDegrees>
              <LongitudeDegrees>-72.9572078771889209747314453125</LongitudeDegrees>
            </Position>
            <AltitudeMeters>486</AltitudeMeters>
            <DistanceMeters>19401.955055779</DistanceMeters>
          </Trackpoint>
          <Trackpoint>
            <Time>2023-01-11T12:06:02.000Z</Time>
            <Position>
              <LatitudeDegrees>-49.23854310996830463409423828125</LatitudeDegrees>
              <LongitudeDegrees>-72.957251965999603271484375</LongitudeDegrees>
            </Position>
            <AltitudeMeters>486.20001220703125</AltitudeMeters>
            <DistanceMeters>19405.205469513</DistanceMeters>
          </Trackpoint>
          <Trackpoint>
            <Time>2023-01-11T12:06:06.000Z</Time>
            <Position>
              <LatitudeDegrees>-49.23855341970920562744140625</LatitudeDegrees>
              <LongitudeDegrees>-72.95731340534985065460205078125</LongitudeDegrees>
            </Position>
            <AltitudeMeters>486.600006103515625</AltitudeMeters>
            <DistanceMeters>19409.814999844</DistanceMeters>
          </Trackpoint>
          <Trackpoint>
            <Time>2023-01-11T12:06:10.000Z</Time>
            <Position>
              <LatitudeDegrees>-49.2385609634220600128173828125</LatitudeDegrees>
              <LongitudeDegrees>-72.95739906840026378631591796875</LongitudeDegrees>
            </Position>
            <AltitudeMeters>486.600006103515625</AltitudeMeters>
            <DistanceMeters>19416.096833498</DistanceMeters>
          </Trackpoint>
          <Trackpoint>
            <Time>2023-01-11T12:06:16.000Z</Time>
            <Position>
              <LatitudeDegrees>-49.23855819739401340484619140625</LatitudeDegrees>
              <LongitudeDegrees>-72.9574598371982574462890625</LongitudeDegrees>
            </Position>
            <AltitudeMeters>486.79998779296875</AltitudeMeters>
            <DistanceMeters>19420.522467442</DistanceMeters>
          </Trackpoint>
          <Trackpoint>
            <Time>2023-01-11T12:06:22.000Z</Time>
            <Position>
              <LatitudeDegrees>-49.23856414854526519775390625</LatitudeDegrees>
              <LongitudeDegrees>-72.957558073103427886962890625</LongitudeDegrees>
            </Position>
            <AltitudeMeters>487.399993896484375</AltitudeMeters>
            <DistanceMeters>19427.69179064</DistanceMeters>
          </Trackpoint>
          <Trackpoint>
            <Time>2023-01-11T12:06:24.000Z</Time>
            <Position>
              <LatitudeDegrees>-49.23857797868549823760986328125</LatitudeDegrees>
              <LongitudeDegrees>-72.9575900919735431671142578125</LongitudeDegrees>
            </Position>
            <AltitudeMeters>487.600006103515625</AltitudeMeters>
            <DistanceMeters>19430.481759438</DistanceMeters>
          </Trackpoint>
          <Trackpoint>
            <Time>2023-01-11T12:06:32.000Z</Time>
            <Position>
              <LatitudeDegrees>-49.2386055551469326019287109375</LatitudeDegrees>
              <LongitudeDegrees>-72.9577253758907318115234375</LongitudeDegrees>
            </Position>
            <AltitudeMeters>488</AltitudeMeters>
            <DistanceMeters>19440.780656365</DistanceMeters>
          </Trackpoint>
          <Trackpoint>
            <Time>2023-01-11T12:06:39.000Z</Time>
            <Position>
              <LatitudeDegrees>-49.2386265099048614501953125</LatitudeDegrees>
              <LongitudeDegrees>-72.9578076861798763275146484375</LongitudeDegrees>
            </Position>
            <AltitudeMeters>488</AltitudeMeters>
            <DistanceMeters>19447.200412505</DistanceMeters>
          </Trackpoint>
          <Trackpoint>
            <Time>2023-01-11T12:06:48.000Z</Time>
            <Position>
              <LatitudeDegrees>-49.238671101629734039306640625</LatitudeDegrees>
              <LongitudeDegrees>-72.957953698933124542236328125</LongitudeDegrees>
            </Position>
            <AltitudeMeters>487.20001220703125</AltitudeMeters>
            <DistanceMeters>19458.914551041</DistanceMeters>
          </Trackpoint>
          <Trackpoint>
            <Time>2023-01-11T12:06:57.000Z</Time>
            <Position>
              <LatitudeDegrees>-49.23873740248382091522216796875</LatitudeDegrees>
              <LongitudeDegrees>-72.95806257985532283782958984375</LongitudeDegrees>
            </Position>
            <AltitudeMeters>486.600006103515625</AltitudeMeters>
            <DistanceMeters>19469.734251176</DistanceMeters>
          </Trackpoint>
          <Trackpoint>
            <Time>2023-01-11T12:06:59.000Z</Time>
            <Position>
              <LatitudeDegrees>-49.238752238452434539794921875</LatitudeDegrees>
              <LongitudeDegrees>-72.95807314105331897735595703125</LongitudeDegrees>
            </Position>
            <AltitudeMeters>486.600006103515625</AltitudeMeters>
            <DistanceMeters>19471.557179625</DistanceMeters>
          </Trackpoint>
          <Trackpoint>
            <Time>2023-01-11T12:07:09.000Z</Time>
            <Position>
              <LatitudeDegrees>-49.2388472892343997955322265625</LatitudeDegrees>
              <LongitudeDegrees>-72.95811706222593784332275390625</LongitudeDegrees>
            </Position>
            <AltitudeMeters>486.600006103515625</AltitudeMeters>
            <DistanceMeters>19482.607278886</DistanceMeters>
          </Trackpoint>
          <Trackpoint>
            <Time>2023-01-11T12:07:10.000Z</Time>
            <Position>
              <LatitudeDegrees>-49.2388553358614444732666015625</LatitudeDegrees>
              <LongitudeDegrees>-72.9581228457391262054443359375</LongitudeDegrees>
            </Position>
            <AltitudeMeters>486.399993896484375</AltitudeMeters>
            <DistanceMeters>19483.59482547</DistanceMeters>
          </Trackpoint>
          <Trackpoint>
            <Time>2023-01-11T12:07:11.000Z</Time>
            <Position>
              <LatitudeDegrees>-49.23886581324040889739990234375</LatitudeDegrees>
              <LongitudeDegrees>-72.95813106000423431396484375</LongitudeDegrees>
            </Position>
            <AltitudeMeters>486.399993896484375</AltitudeMeters>
            <DistanceMeters>19484.904678334</DistanceMeters>
          </Trackpoint>
          <Trackpoint>
            <Time>2023-01-11T12:07:16.000Z</Time>
            <Position>
              <LatitudeDegrees>-49.238907806575298309326171875</LatitudeDegrees>
              <LongitudeDegrees>-72.95817908830940723419189453125</LongitudeDegrees>
            </Position>
            <AltitudeMeters>486.20001220703125</AltitudeMeters>
            <DistanceMeters>19490.737801686</DistanceMeters>
          </Trackpoint>
          <Trackpoint>
            <Time>2023-01-11T12:07:18.000Z</Time>
            <Position>
              <LatitudeDegrees>-49.23892130143940448760986328125</LatitudeDegrees>
              <LongitudeDegrees>-72.95819811522960662841796875</LongitudeDegrees>
            </Position>
            <AltitudeMeters>486</AltitudeMeters>
            <DistanceMeters>19492.780323489</DistanceMeters>
          </Trackpoint>
          <Trackpoint>
            <Time>2023-01-11T12:07:24.000Z</Time>
            <Position>
              <LatitudeDegrees>-49.23895566724240779876708984375</LatitudeDegrees>
              <LongitudeDegrees>-72.95826642774045467376708984375</LongitudeDegrees>
            </Position>
            <AltitudeMeters>485.79998779296875</AltitudeMeters>
            <DistanceMeters>19499.047045316</DistanceMeters>
          </Trackpoint>
          <Trackpoint>
            <Time>2023-01-11T12:07:30.000Z</Time>
            <Position>
              <LatitudeDegrees>-49.238992631435394287109375</LatitudeDegrees>
              <LongitudeDegrees>-72.95834152959287166595458984375</LongitudeDegrees>
            </Position>
            <AltitudeMeters>485.399993896484375</AltitudeMeters>
            <DistanceMeters>19505.882366488</DistanceMeters>
          </Trackpoint>
          <Trackpoint>
            <Time>2023-01-11T12:07:32.000Z</Time>
            <Position>
              <LatitudeDegrees>-49.2389988340437412261962890625</LatitudeDegrees>
              <LongitudeDegrees>-72.95838159509003162384033203125</LongitudeDegrees>
            </Position>
            <AltitudeMeters>485.20001220703125</AltitudeMeters>
            <DistanceMeters>19508.875330877</DistanceMeters>
          </Trackpoint>
          <Trackpoint>
            <Time>2023-01-11T12:07:33.000Z</Time>
            <Position>
              <LatitudeDegrees>-49.238999672234058380126953125</LatitudeDegrees>
              <LongitudeDegrees>-72.95839986763894557952880859375</LongitudeDegrees>
            </Position>
            <AltitudeMeters>485.20001220703125</AltitudeMeters>
            <DistanceMeters>19510.205704878</DistanceMeters>
          </Trackpoint>
          <Trackpoint>
            <Time>2023-01-11T12:07:38.000Z</Time>
            <Position>
              <LatitudeDegrees>-49.23904099501669406890869140625</LatitudeDegrees>
              <LongitudeDegrees>-72.9584681801497936248779296875</LongitudeDegrees>
            </Position>
            <AltitudeMeters>484.600006103515625</AltitudeMeters>
            <DistanceMeters>19516.971980631</DistanceMeters>
          </Trackpoint>
          <Trackpoint>
            <Time>2023-01-11T12:07:40.000Z</Time>
            <Position>
              <LatitudeDegrees>-49.23906614072620868682861328125</LatitudeDegrees>
              <LongitudeDegrees>-72.958492152392864227294921875</LongitudeDegrees>
            </Position>
            <AltitudeMeters>484.20001220703125</AltitudeMeters>
            <DistanceMeters>19520.267914788</DistanceMeters>
          </Trackpoint>
          <Trackpoint>
            <Time>2023-01-11T12:07:42.000Z</Time>
            <Position>
              <LatitudeDegrees>-49.239084161818027496337890625</LatitudeDegrees>
              <LongitudeDegrees>-72.9585171304643154144287109375</LongitudeDegrees>
            </Position>
            <AltitudeMeters>483.79998779296875</AltitudeMeters>
            <DistanceMeters>19522.974091426</DistanceMeters>
          </Trackpoint>
          <Trackpoint>
            <Time>2023-01-11T12:07:47.000Z</Time>
            <Position>
              <LatitudeDegrees>-49.23910805024206638336181640625</LatitudeDegrees>
              <LongitudeDegrees>-72.9585568606853485107421875</LongitudeDegrees>
            </Position>
            <AltitudeMeters>483.20001220703125</AltitudeMeters>
            <DistanceMeters>19526.899051351</DistanceMeters>
          </Trackpoint>
          <Trackpoint>
            <Time>2023-01-11T12:07:48.000Z</Time>
            <Position>
              <LatitudeDegrees>-49.2391108162701129913330078125</LatitudeDegrees>
              <LongitudeDegrees>-72.95856549404561519622802734375</LongitudeDegrees>
            </Position>
            <AltitudeMeters>483</AltitudeMeters>
            <DistanceMeters>19527.597352237</DistanceMeters>
          </Trackpoint>
          <Trackpoint>
            <Time>2023-01-11T12:07:53.000Z</Time>
            <Position>
              <LatitudeDegrees>-49.239153563976287841796875</LatitudeDegrees>
              <LongitudeDegrees>-72.95861612074077129364013671875</LongitudeDegrees>
            </Position>
            <AltitudeMeters>482.79998779296875</AltitudeMeters>
            <DistanceMeters>19533.61187518</DistanceMeters>
          </Trackpoint>
          <Trackpoint>
            <Time>2023-01-11T12:07:55.000Z</Time>
            <Position>
              <LatitudeDegrees>-49.2391671426594257354736328125</LatitudeDegrees>
              <LongitudeDegrees>-72.9586301185190677642822265625</LongitudeDegrees>
            </Position>
            <AltitudeMeters>482.79998779296875</AltitudeMeters>
            <DistanceMeters>19535.43480363</DistanceMeters>
          </Trackpoint>
          <Trackpoint>
            <Time>2023-01-11T12:08:01.000Z</Time>
            <Position>
              <LatitudeDegrees>-49.2392087168991565704345703125</LatitudeDegrees>
              <LongitudeDegrees>-72.95868786983191967010498046875</LongitudeDegrees>
            </Position>
            <AltitudeMeters>483.600006103515625</AltitudeMeters>
            <DistanceMeters>19541.682042251</DistanceMeters>
          </Trackpoint>
          <Trackpoint>
            <Time>2023-01-11T12:08:07.000Z</Time>
            <Position>
              <LatitudeDegrees>-49.23923067748546600341796875</LatitudeDegrees>
              <LongitudeDegrees>-72.95874050818383693695068359375</LongitudeDegrees>
            </Position>
            <AltitudeMeters>484.20001220703125</AltitudeMeters>
            <DistanceMeters>19546.221495351</DistanceMeters>
          </Trackpoint>
          <Trackpoint>
            <Time>2023-01-11T12:08:11.000Z</Time>
            <Position>
              <LatitudeDegrees>-49.23926345072686672210693359375</LatitudeDegrees>
              <LongitudeDegrees>-72.95879297889769077301025390625</LongitudeDegrees>
            </Position>
            <AltitudeMeters>484.600006103515625</AltitudeMeters>
            <DistanceMeters>19551.496975954</DistanceMeters>
          </Trackpoint>
          <Trackpoint>
            <Time>2023-01-11T12:08:15.000Z</Time>
            <Position>
              <LatitudeDegrees>-49.239299409091472625732421875</LatitudeDegrees>
              <LongitudeDegrees>-72.958829104900360107421875</LongitudeDegrees>
            </Position>
            <AltitudeMeters>484.399993896484375</AltitudeMeters>
            <DistanceMeters>19556.28334242</DistanceMeters>
          </Trackpoint>
          <Trackpoint>
            <Time>2023-01-11T12:08:22.000Z</Time>
            <Position>
              <LatitudeDegrees>-49.23933905549347400665283203125</LatitudeDegrees>
              <LongitudeDegrees>-72.95891317538917064666748046875</LongitudeDegrees>
            </Position>
            <AltitudeMeters>483.600006103515625</AltitudeMeters>
            <DistanceMeters>19563.819865546</DistanceMeters>
          </Trackpoint>
          <Trackpoint>
            <Time>2023-01-11T12:08:23.000Z</Time>
            <Position>
              <LatitudeDegrees>-49.23934022895991802215576171875</LatitudeDegrees>
              <LongitudeDegrees>-72.95892608352005481719970703125</LongitudeDegrees>
            </Position>
            <AltitudeMeters>483.600006103515625</AltitudeMeters>
            <DistanceMeters>19564.770132689</DistanceMeters>
          </Trackpoint>
          <Trackpoint>
            <Time>2023-01-11T12:08:28.000Z</Time>
            <Position>
              <LatitudeDegrees>-49.239361099898815155029296875</LatitudeDegrees>
              <LongitudeDegrees>-72.95899196527898311614990234375</LongitudeDegrees>
            </Position>
            <AltitudeMeters>483.20001220703125</AltitudeMeters>
            <DistanceMeters>19570.090780174</DistanceMeters>
          </Trackpoint>
          <Trackpoint>
            <Time>2023-01-11T12:08:30.000Z</Time>
            <Position>
              <LatitudeDegrees>-49.2393683083355426788330078125</LatitudeDegrees>
              <LongitudeDegrees>-72.9590173624455928802490234375</LongitudeDegrees>
            </Position>
            <AltitudeMeters>483</AltitudeMeters>
            <DistanceMeters>19572.102116607</DistanceMeters>
          </Trackpoint>
          <Trackpoint>
            <Time>2023-01-11T12:08:39.000Z</Time>
            <Position>
              <LatitudeDegrees>-49.23939236439764499664306640625</LatitudeDegrees>
              <LongitudeDegrees>-72.9591836594045162200927734375</LongitudeDegrees>
            </Position>
            <AltitudeMeters>482.399993896484375</AltitudeMeters>
            <DistanceMeters>19584.480417666</DistanceMeters>
          </Trackpoint>
          <Trackpoint>
            <Time>2023-01-11T12:08:41.000Z</Time>
            <Position>
              <LatitudeDegrees>-49.23939974047243595123291015625</LatitudeDegrees>
              <LongitudeDegrees>-72.959202937781810760498046875</LongitudeDegrees>
            </Position>
            <AltitudeMeters>482</AltitudeMeters>
            <DistanceMeters>19586.104234872</DistanceMeters>
          </Trackpoint>
          <Trackpoint>
            <Time>2023-01-11T12:08:45.000Z</Time>
            <Position>
              <LatitudeDegrees>-49.23939571715891361236572265625</LatitudeDegrees>
              <LongitudeDegrees>-72.95924794860184192657470703125</LongitudeDegrees>
            </Position>
            <AltitudeMeters>481.79998779296875</AltitudeMeters>
            <DistanceMeters>19589.404276113</DistanceMeters>
          </Trackpoint>
          <Trackpoint>
            <Time>2023-01-11T12:08:50.000Z</Time>
            <Position>
              <LatitudeDegrees>-49.23939756117761135101318359375</LatitudeDegrees>
              <LongitudeDegrees>-72.95923210680484771728515625</LongitudeDegrees>
            </Position>
            <AltitudeMeters>481.79998779296875</AltitudeMeters>
            <DistanceMeters>19590.568110924</DistanceMeters>
          </Trackpoint>
          <Trackpoint>
            <Time>2023-01-11T12:08:58.000Z</Time>
            <Position>
              <LatitudeDegrees>-49.23939135856926441192626953125</LatitudeDegrees>
              <LongitudeDegrees>-72.9592473618686199188232421875</LongitudeDegrees>
            </Position>
            <AltitudeMeters>481.399993896484375</AltitudeMeters>
            <DistanceMeters>19591.871051587</DistanceMeters>
          </Trackpoint>
          <Trackpoint>
            <Time>2023-01-11T12:09:05.000Z</Time>
            <Position>
              <LatitudeDegrees>-49.23941281624138355255126953125</LatitudeDegrees>
              <LongitudeDegrees>-72.9593177698552608489990234375</LongitudeDegrees>
            </Position>
            <AltitudeMeters>481.600006103515625</AltitudeMeters>
            <DistanceMeters>19597.517749731</DistanceMeters>
          </Trackpoint>
          <Trackpoint>
            <Time>2023-01-11T12:09:12.000Z</Time>
            <Position>
              <LatitudeDegrees>-49.23944114707410335540771484375</LatitudeDegrees>
              <LongitudeDegrees>-72.9594213701784610748291015625</LongitudeDegrees>
            </Position>
            <AltitudeMeters>482.399993896484375</AltitudeMeters>
            <DistanceMeters>19605.680096452</DistanceMeters>
          </Trackpoint>
          <Trackpoint>
            <Time>2023-01-11T12:09:17.000Z</Time>
            <Position>
              <LatitudeDegrees>-49.2394303344190120697021484375</LatitudeDegrees>
              <LongitudeDegrees>-72.95951248146593570709228515625</LongitudeDegrees>
            </Position>
            <AltitudeMeters>482.600006103515625</AltitudeMeters>
            <DistanceMeters>19612.408900454</DistanceMeters>
          </Trackpoint>
          <Trackpoint>
            <Time>2023-01-11T12:09:19.000Z</Time>
            <Position>
              <LatitudeDegrees>-49.23944349400699138641357421875</LatitudeDegrees>
              <LongitudeDegrees>-72.95954416505992412567138671875</LongitudeDegrees>
            </Position>
            <AltitudeMeters>482.79998779296875</AltitudeMeters>
            <DistanceMeters>19615.136680318</DistanceMeters>
          </Trackpoint>
          <Trackpoint>
            <Time>2023-01-11T12:09:23.000Z</Time>
            <Position>
              <LatitudeDegrees>-49.23947182483971118927001953125</LatitudeDegrees>
              <LongitudeDegrees>-72.95961038209497928619384765625</LongitudeDegrees>
            </Position>
            <AltitudeMeters>483.20001220703125</AltitudeMeters>
            <DistanceMeters>19620.888740827</DistanceMeters>
          </Trackpoint>
          <Trackpoint>
            <Time>2023-01-11T12:09:24.000Z</Time>
            <Position>
              <LatitudeDegrees>-49.239481799304485321044921875</LatitudeDegrees>
              <LongitudeDegrees>-72.95962379314005374908447265625</LongitudeDegrees>
            </Position>
            <AltitudeMeters>483.20001220703125</AltitudeMeters>
            <DistanceMeters>19622.367009577</DistanceMeters>
          </Trackpoint>
          <Trackpoint>
            <Time>2023-01-11T12:09:31.000Z</Time>
            <Position>
              <LatitudeDegrees>-49.23954424448311328887939453125</LatitudeDegrees>
              <LongitudeDegrees>-72.95972471125423908233642578125</LongitudeDegrees>
            </Position>
            <AltitudeMeters>483.79998779296875</AltitudeMeters>
            <DistanceMeters>19632.471169328</DistanceMeters>
          </Trackpoint>
          <Trackpoint>
            <Time>2023-01-11T12:09:36.000Z</Time>
            <Position>
              <LatitudeDegrees>-49.23960752785205841064453125</LatitudeDegrees>
              <LongitudeDegrees>-72.95979796908795833587646484375</LongitudeDegrees>
            </Position>
            <AltitudeMeters>484</AltitudeMeters>
            <DistanceMeters>19641.299964255</DistanceMeters>
          </Trackpoint>
          <Trackpoint>
            <Time>2023-01-11T12:09:38.000Z</Time>
            <Position>
              <LatitudeDegrees>-49.239629991352558135986328125</LatitudeDegrees>
              <LongitudeDegrees>-72.95984205789864063262939453125</LongitudeDegrees>
            </Position>
            <AltitudeMeters>484.20001220703125</AltitudeMeters>
            <DistanceMeters>19645.363953652</DistanceMeters>
          </Trackpoint>
          <Trackpoint>
            <Time>2023-01-11T12:09:39.000Z</Time>
            <Position>
              <LatitudeDegrees>-49.2396462522447109222412109375</LatitudeDegrees>
              <LongitudeDegrees>-72.95986904762685298919677734375</LongitudeDegrees>
            </Position>
            <AltitudeMeters>484.20001220703125</AltitudeMeters>
            <DistanceMeters>19648.033172698</DistanceMeters>
          </Trackpoint>
          <Trackpoint>
            <Time>2023-01-11T12:09:41.000Z</Time>
            <Position>
              <LatitudeDegrees>-49.2396603338420391082763671875</LatitudeDegrees>
              <LongitudeDegrees>-72.9599051736295223236083984375</LongitudeDegrees>
            </Position>
            <AltitudeMeters>484.20001220703125</AltitudeMeters>
            <DistanceMeters>19651.09179317</DistanceMeters>
          </Trackpoint>
          <Trackpoint>
            <Time>2023-01-11T12:09:43.000Z</Time>
            <Position>
              <LatitudeDegrees>-49.23968304879963397979736328125</LatitudeDegrees>
              <LongitudeDegrees>-72.95993995852768421173095703125</LongitudeDegrees>
            </Position>
            <AltitudeMeters>484.20001220703125</AltitudeMeters>
            <DistanceMeters>19654.666364217</DistanceMeters>
          </Trackpoint>
          <Trackpoint>
            <Time>2023-01-11T12:09:47.000Z</Time>
            <Position>
              <LatitudeDegrees>-49.23973225057125091552734375</LatitudeDegrees>
              <LongitudeDegrees>-72.9599876515567302703857421875</LongitudeDegrees>
            </Position>
            <AltitudeMeters>484.20001220703125</AltitudeMeters>
            <DistanceMeters>19661.147018933</DistanceMeters>
          </Trackpoint>
          <Trackpoint>
            <Time>2023-01-11T12:09:51.000Z</Time>
            <Position>
              <LatitudeDegrees>-49.239780195057392120361328125</LatitudeDegrees>
              <LongitudeDegrees>-72.96001221053302288055419921875</LongitudeDegrees>
            </Position>
            <AltitudeMeters>484.600006103515625</AltitudeMeters>
            <DistanceMeters>19666.772889349</DistanceMeters>
          </Trackpoint>
          <Trackpoint>
            <Time>2023-01-11T12:09:53.000Z</Time>
            <Position>
              <LatitudeDegrees>-49.23980223946273326873779296875</LatitudeDegrees>
              <LongitudeDegrees>-72.96004439704120159149169921875</LongitudeDegrees>
            </Position>
            <AltitudeMeters>484.600006103515625</AltitudeMeters>
            <DistanceMeters>19670.162027474</DistanceMeters>
          </Trackpoint>
          <Trackpoint>
            <Time>2023-01-11T12:09:57.000Z</Time>
            <Position>
              <LatitudeDegrees>-49.23983543179929256439208984375</LatitudeDegrees>
              <LongitudeDegrees>-72.9601234383881092071533203125</LongitudeDegrees>
            </Position>
            <AltitudeMeters>484</AltitudeMeters>
            <DistanceMeters>19676.99074</DistanceMeters>
          </Trackpoint>
          <Trackpoint>
            <Time>2023-01-11T12:10:02.000Z</Time>
            <Position>
              <LatitudeDegrees>-49.23984297551214694976806640625</LatitudeDegrees>
              <LongitudeDegrees>-72.9602236859500408172607421875</LongitudeDegrees>
            </Position>
            <AltitudeMeters>483.79998779296875</AltitudeMeters>
            <DistanceMeters>19684.323822928</DistanceMeters>
          </Trackpoint>
          <Trackpoint>
            <Time>2023-01-11T12:10:03.000Z</Time>
            <Position>
              <LatitudeDegrees>-49.23984180204570293426513671875</LatitudeDegrees>
              <LongitudeDegrees>-72.960240952670574188232421875</LongitudeDegrees>
            </Position>
            <AltitudeMeters>483.600006103515625</AltitudeMeters>
            <DistanceMeters>19685.584494754</DistanceMeters>
          </Trackpoint>
          <Trackpoint>
            <Time>2023-01-11T12:10:08.000Z</Time>
            <Position>
              <LatitudeDegrees>-49.2398361861705780029296875</LatitudeDegrees>
              <LongitudeDegrees>-72.960283197462558746337890625</LongitudeDegrees>
            </Position>
            <AltitudeMeters>483.399993896484375</AltitudeMeters>
            <DistanceMeters>19688.716053953</DistanceMeters>
          </Trackpoint>
          <Trackpoint>
            <Time>2023-01-11T12:10:15.000Z</Time>
            <Position>
              <LatitudeDegrees>-49.23981799744069576263427734375</LatitudeDegrees>
              <LongitudeDegrees>-72.9602733068168163299560546875</LongitudeDegrees>
            </Position>
            <AltitudeMeters>483.20001220703125</AltitudeMeters>
            <DistanceMeters>19690.862059309</DistanceMeters>
          </Trackpoint>
          <Trackpoint>
            <Time>2023-01-11T12:10:22.000Z</Time>
            <Position>
              <LatitudeDegrees>-49.239807687699794769287109375</LatitudeDegrees>
              <LongitudeDegrees>-72.96029635705053806304931640625</LongitudeDegrees>
            </Position>
            <AltitudeMeters>483.399993896484375</AltitudeMeters>
            <DistanceMeters>19692.893498438</DistanceMeters>
          </Trackpoint>
          <Trackpoint>
            <Time>2023-01-11T12:10:26.000Z</Time>
            <Position>
              <LatitudeDegrees>-49.2398112080991268157958984375</LatitudeDegrees>
              <LongitudeDegrees>-72.96029870398342609405517578125</LongitudeDegrees>
            </Position>
            <AltitudeMeters>483.20001220703125</AltitudeMeters>
            <DistanceMeters>19693.32896555</DistanceMeters>
          </Trackpoint>
          <Trackpoint>
            <Time>2023-01-11T12:10:37.000Z</Time>
            <Position>
              <LatitudeDegrees>-49.2398112080991268157958984375</LatitudeDegrees>
              <LongitudeDegrees>-72.96029870398342609405517578125</LongitudeDegrees>
            </Position>
            <AltitudeMeters>483.20001220703125</AltitudeMeters>
            <DistanceMeters>19693.32896555</DistanceMeters>
          </Trackpoint>
          <Trackpoint>
            <Time>2023-01-11T12:10:48.000Z</Time>
            <Position>
              <LatitudeDegrees>-49.23981112428009510040283203125</LatitudeDegrees>
              <LongitudeDegrees>-72.960328795015811920166015625</LongitudeDegrees>
            </Position>
            <AltitudeMeters>483.20001220703125</AltitudeMeters>
            <DistanceMeters>19695.516644803</DistanceMeters>
          </Trackpoint>
          <Trackpoint>
            <Time>2023-01-11T12:10:49.000Z</Time>
            <Position>
              <LatitudeDegrees>-49.23981263302266597747802734375</LatitudeDegrees>
              <LongitudeDegrees>-72.96033005230128765106201171875</LongitudeDegrees>
            </Position>
            <AltitudeMeters>483.20001220703125</AltitudeMeters>
            <DistanceMeters>19695.706698232</DistanceMeters>
          </Trackpoint>
          <Trackpoint>
            <Time>2023-01-11T12:10:50.000Z</Time>
            <Position>
              <LatitudeDegrees>-49.239813722670078277587890625</LatitudeDegrees>
              <LongitudeDegrees>-72.96033340506255626678466796875</LongitudeDegrees>
            </Position>
            <AltitudeMeters>483.20001220703125</AltitudeMeters>
            <DistanceMeters>19695.975474368</DistanceMeters>
          </Trackpoint>
          <Trackpoint>
            <Time>2023-01-11T12:11:04.000Z</Time>
            <Position>
              <LatitudeDegrees>-49.23980441875755786895751953125</LatitudeDegrees>
              <LongitudeDegrees>-72.9603497497737407684326171875</LongitudeDegrees>
            </Position>
            <AltitudeMeters>483</AltitudeMeters>
            <DistanceMeters>19697.548446379</DistanceMeters>
          </Trackpoint>
          <Trackpoint>
            <Time>2023-01-11T12:11:08.000Z</Time>
            <Position>
              <LatitudeDegrees>-49.2398038320243358612060546875</LatitudeDegrees>
              <LongitudeDegrees>-72.9603517614305019378662109375</LongitudeDegrees>
            </Position>
            <AltitudeMeters>483.20001220703125</AltitudeMeters>
            <DistanceMeters>19697.738499807</DistanceMeters>
          </Trackpoint>
          <Trackpoint>
            <Time>2023-01-11T12:11:18.000Z</Time>
            <Position>
              <LatitudeDegrees>-49.2398028261959552764892578125</LatitudeDegrees>
              <LongitudeDegrees>-72.96035134233534336090087890625</LongitudeDegrees>
            </Position>
            <AltitudeMeters>483</AltitudeMeters>
            <DistanceMeters>19697.872887876</DistanceMeters>
          </Trackpoint>
          <Trackpoint>
            <Time>2023-01-11T12:11:30.000Z</Time>
            <Position>
              <LatitudeDegrees>-49.23980307765305042266845703125</LatitudeDegrees>
              <LongitudeDegrees>-72.9603514261543750762939453125</LongitudeDegrees>
            </Position>
            <AltitudeMeters>483</AltitudeMeters>
            <DistanceMeters>19697.872887876</DistanceMeters>
          </Trackpoint>
          <Trackpoint>
            <Time>2023-01-11T12:11:33.000Z</Time>
            <Position>
              <LatitudeDegrees>-49.2398028261959552764892578125</LatitudeDegrees>
              <LongitudeDegrees>-72.960352264344692230224609375</LongitudeDegrees>
            </Position>
            <AltitudeMeters>483</AltitudeMeters>
            <DistanceMeters>19697.872887876</DistanceMeters>
          </Trackpoint>
          <Trackpoint>
            <Time>2023-01-11T12:11:34.000Z</Time>
            <Position>
              <LatitudeDegrees>-49.23980291001498699188232421875</LatitudeDegrees>
              <LongitudeDegrees>-72.960352264344692230224609375</LongitudeDegrees>
            </Position>
            <AltitudeMeters>483</AltitudeMeters>
            <DistanceMeters>19697.872887876</DistanceMeters>
          </Trackpoint>
          <Trackpoint>
            <Time>2023-01-11T12:11:35.000Z</Time>
            <Position>
              <LatitudeDegrees>-49.23980324529111385345458984375</LatitudeDegrees>
              <LongitudeDegrees>-72.960352264344692230224609375</LongitudeDegrees>
            </Position>
            <AltitudeMeters>483</AltitudeMeters>
            <DistanceMeters>19697.872887876</DistanceMeters>
          </Trackpoint>
          <Trackpoint>
            <Time>2023-01-11T12:11:37.000Z</Time>
            <Position>
              <LatitudeDegrees>-49.239803664386272430419921875</LatitudeDegrees>
              <LongitudeDegrees>-72.960352264344692230224609375</LongitudeDegrees>
            </Position>
            <AltitudeMeters>482.79998779296875</AltitudeMeters>
            <DistanceMeters>19697.872887876</DistanceMeters>
          </Trackpoint>
          <Trackpoint>
            <Time>2023-01-11T12:11:46.000Z</Time>
            <Position>
              <LatitudeDegrees>-49.23980341292917728424072265625</LatitudeDegrees>
              <LongitudeDegrees>-72.96035586856305599212646484375</LongitudeDegrees>
            </Position>
            <AltitudeMeters>482.79998779296875</AltitudeMeters>
            <DistanceMeters>19698.141664012</DistanceMeters>
          </Trackpoint>
          <Trackpoint>
            <Time>2023-01-11T12:12:09.000Z</Time>
            <Position>
              <LatitudeDegrees>-49.23980609513819217681884765625</LatitudeDegrees>
              <LongitudeDegrees>-72.960385791957378387451171875</LongitudeDegrees>
            </Position>
            <AltitudeMeters>482.79998779296875</AltitudeMeters>
            <DistanceMeters>19700.337583141</DistanceMeters>
          </Trackpoint>
          <Trackpoint>
            <Time>2023-01-11T12:12:13.000Z</Time>
            <Position>
              <LatitudeDegrees>-49.23980601131916046142578125</LatitudeDegrees>
              <LongitudeDegrees>-72.96039459295570850372314453125</LongitudeDegrees>
            </Position>
            <AltitudeMeters>482.79998779296875</AltitudeMeters>
            <DistanceMeters>19700.982085675</DistanceMeters>
          </Trackpoint>
          <Trackpoint>
            <Time>2023-01-11T12:12:39.000Z</Time>
            <Position>
              <LatitudeDegrees>-49.23980911262333393096923828125</LatitudeDegrees>
              <LongitudeDegrees>-72.96039509586989879608154296875</LongitudeDegrees>
            </Position>
            <AltitudeMeters>482.79998779296875</AltitudeMeters>
            <DistanceMeters>19701.337643083</DistanceMeters>
          </Trackpoint>
          <Trackpoint>
            <Time>2023-01-11T12:12:48.000Z</Time>
            <Position>
              <LatitudeDegrees>-49.23980928026139736175537109375</LatitudeDegrees>
              <LongitudeDegrees>-72.96039207838475704193115234375</LongitudeDegrees>
            </Position>
            <AltitudeMeters>482.79998779296875</AltitudeMeters>
            <DistanceMeters>19701.550129276</DistanceMeters>
          </Trackpoint>
          <Trackpoint>
            <Time>2023-01-11T12:12:58.000Z</Time>
            <Position>
              <LatitudeDegrees>-49.23978664912283420562744140625</LatitudeDegrees>
              <LongitudeDegrees>-72.9604238457977771759033203125</LongitudeDegrees>
            </Position>
            <AltitudeMeters>482.79998779296875</AltitudeMeters>
            <DistanceMeters>19704.965807652</DistanceMeters>
          </Trackpoint>
          <Trackpoint>
            <Time>2023-01-11T12:13:01.000Z</Time>
            <Position>
              <LatitudeDegrees>-49.23976100049912929534912109375</LatitudeDegrees>
              <LongitudeDegrees>-72.96048830263316631317138671875</LongitudeDegrees>
            </Position>
            <AltitudeMeters>482.79998779296875</AltitudeMeters>
            <DistanceMeters>19710.45108018</DistanceMeters>
          </Trackpoint>
          <Trackpoint>
            <Time>2023-01-11T12:13:04.000Z</Time>
            <Position>
              <LatitudeDegrees>-49.2397247068583965301513671875</LatitudeDegrees>
              <LongitudeDegrees>-72.96053566038608551025390625</LongitudeDegrees>
            </Position>
            <AltitudeMeters>482.79998779296875</AltitudeMeters>
            <DistanceMeters>19715.757282056</DistanceMeters>
          </Trackpoint>
          <Trackpoint>
            <Time>2023-01-11T12:13:08.000Z</Time>
            <Position>
              <LatitudeDegrees>-49.2396591603755950927734375</LatitudeDegrees>
              <LongitudeDegrees>-72.96058016829192638397216796875</LongitudeDegrees>
            </Position>
            <AltitudeMeters>482.79998779296875</AltitudeMeters>
            <DistanceMeters>19723.737263202</DistanceMeters>
          </Trackpoint>
          <Trackpoint>
            <Time>2023-01-11T12:13:11.000Z</Time>
            <Position>
              <LatitudeDegrees>-49.23963728360831737518310546875</LatitudeDegrees>
              <LongitudeDegrees>-72.96061034314334392547607421875</LongitudeDegrees>
            </Position>
            <AltitudeMeters>482.79998779296875</AltitudeMeters>
            <DistanceMeters>19727.012584685</DistanceMeters>
          </Trackpoint>
          <Trackpoint>
            <Time>2023-01-11T12:13:14.000Z</Time>
            <Position>
              <LatitudeDegrees>-49.23958783037960529327392578125</LatitudeDegrees>
              <LongitudeDegrees>-72.9606451280415058135986328125</LongitudeDegrees>
            </Position>
            <AltitudeMeters>482.79998779296875</AltitudeMeters>
            <DistanceMeters>19733.069000334</DistanceMeters>
          </Trackpoint>
          <Trackpoint>
            <Time>2023-01-11T12:13:21.000Z</Time>
            <Position>
              <LatitudeDegrees>-49.2395201884210109710693359375</LatitudeDegrees>
              <LongitudeDegrees>-72.96070975251495838165283203125</LongitudeDegrees>
            </Position>
            <AltitudeMeters>482.79998779296875</AltitudeMeters>
            <DistanceMeters>19741.941666587</DistanceMeters>
          </Trackpoint>
          <Trackpoint>
            <Time>2023-01-11T12:13:26.000Z</Time>
            <Position>
              <LatitudeDegrees>-49.2394916899502277374267578125</LatitudeDegrees>
              <LongitudeDegrees>-72.9607866145670413970947265625</LongitudeDegrees>
            </Position>
            <AltitudeMeters>482.79998779296875</AltitudeMeters>
            <DistanceMeters>19748.364235325</DistanceMeters>
          </Trackpoint>
          <Trackpoint>
            <Time>2023-01-11T12:13:29.000Z</Time>
            <Position>
              <LatitudeDegrees>-49.2394839785993099212646484375</LatitudeDegrees>
              <LongitudeDegrees>-72.9608228243887424468994140625</LongitudeDegrees>
            </Position>
            <AltitudeMeters>482.79998779296875</AltitudeMeters>
            <DistanceMeters>19751.131455017</DistanceMeters>
          </Trackpoint>
          <Trackpoint>
            <Time>2023-01-11T12:13:37.000Z</Time>
            <Position>
              <LatitudeDegrees>-49.239444248378276824951171875</LatitudeDegrees>
              <LongitudeDegrees>-72.96092013828456401824951171875</LongitudeDegrees>
            </Position>
            <AltitudeMeters>482.79998779296875</AltitudeMeters>
            <DistanceMeters>19759.47218094</DistanceMeters>
          </Trackpoint>
          <Trackpoint>
            <Time>2023-01-11T12:13:39.000Z</Time>
            <Position>
              <LatitudeDegrees>-49.23943930305540561676025390625</LatitudeDegrees>
              <LongitudeDegrees>-72.9609428532421588897705078125</LongitudeDegrees>
            </Position>
            <AltitudeMeters>479.20001220703125</AltitudeMeters>
            <DistanceMeters>19761.214049387</DistanceMeters>
          </Trackpoint>
          <Trackpoint>
            <Time>2023-01-11T12:13:45.000Z</Time>
            <Position>
              <LatitudeDegrees>-49.23941734246909618377685546875</LatitudeDegrees>
              <LongitudeDegrees>-72.9610169492661952972412109375</LongitudeDegrees>
            </Position>
            <AltitudeMeters>479.20001220703125</AltitudeMeters>
            <DistanceMeters>19767.12712439</DistanceMeters>
          </Trackpoint>
          <Trackpoint>
            <Time>2023-01-11T12:13:52.000Z</Time>
            <Position>
              <LatitudeDegrees>-49.23936721868813037872314453125</LatitudeDegrees>
              <LongitudeDegrees>-72.961061038076877593994140625</LongitudeDegrees>
            </Position>
            <AltitudeMeters>479.20001220703125</AltitudeMeters>
            <DistanceMeters>19773.560931227</DistanceMeters>
          </Trackpoint>
          <Trackpoint>
            <Time>2023-01-11T12:14:00.000Z</Time>
            <Position>
              <LatitudeDegrees>-49.23934693448245525360107421875</LatitudeDegrees>
              <LongitudeDegrees>-72.961071431636810302734375</LongitudeDegrees>
            </Position>
            <AltitudeMeters>479</AltitudeMeters>
            <DistanceMeters>19775.940397119</DistanceMeters>
          </Trackpoint>
          <Trackpoint>
            <Time>2023-01-11T12:14:12.000Z</Time>
            <Position>
              <LatitudeDegrees>-49.23934106715023517608642578125</LatitudeDegrees>
              <LongitudeDegrees>-72.96107335947453975677490234375</LongitudeDegrees>
            </Position>
            <AltitudeMeters>479</AltitudeMeters>
            <DistanceMeters>19776.598761508</DistanceMeters>
          </Trackpoint>
          <Trackpoint>
            <Time>2023-01-11T12:14:16.000Z</Time>
            <Position>
              <LatitudeDegrees>-49.239347018301486968994140625</LatitudeDegrees>
              <LongitudeDegrees>-72.96113974414765834808349609375</LongitudeDegrees>
            </Position>
            <AltitudeMeters>478.600006103515625</AltitudeMeters>
            <DistanceMeters>19781.468359104</DistanceMeters>
          </Trackpoint>
          <Trackpoint>
            <Time>2023-01-11T12:14:21.000Z</Time>
            <Position>
              <LatitudeDegrees>-49.23929748125374317169189453125</LatitudeDegrees>
              <LongitudeDegrees>-72.9612137563526630401611328125</LongitudeDegrees>
            </Position>
            <AltitudeMeters>478.600006103515625</AltitudeMeters>
            <DistanceMeters>19789.17080042</DistanceMeters>
          </Trackpoint>
          <Trackpoint>
            <Time>2023-01-11T12:14:27.000Z</Time>
            <Position>
              <LatitudeDegrees>-49.23924400471150875091552734375</LatitudeDegrees>
              <LongitudeDegrees>-72.9612623713910579681396484375</LongitudeDegrees>
            </Position>
            <AltitudeMeters>478.20001220703125</AltitudeMeters>
            <DistanceMeters>19796.09276442</DistanceMeters>
          </Trackpoint>
          <Trackpoint>
            <Time>2023-01-11T12:14:28.000Z</Time>
            <Position>
              <LatitudeDegrees>-49.23924216069281101226806640625</LatitudeDegrees>
              <LongitudeDegrees>-72.9612694121897220611572265625</LongitudeDegrees>
            </Position>
            <AltitudeMeters>478.20001220703125</AltitudeMeters>
            <DistanceMeters>19796.64686062</DistanceMeters>
          </Trackpoint>
          <Trackpoint>
            <Time>2023-01-11T12:14:35.000Z</Time>
            <Position>
              <LatitudeDegrees>-49.23924031667411327362060546875</LatitudeDegrees>
              <LongitudeDegrees>-72.9612855054438114166259765625</LongitudeDegrees>
            </Position>
            <AltitudeMeters>478</AltitudeMeters>
            <DistanceMeters>19797.833743902</DistanceMeters>
          </Trackpoint>
          <Trackpoint>
            <Time>2023-01-11T12:14:44.000Z</Time>
            <Position>
              <LatitudeDegrees>-49.2392606846988201141357421875</LatitudeDegrees>
              <LongitudeDegrees>-72.96127988956868648529052734375</LongitudeDegrees>
            </Position>
            <AltitudeMeters>478.399993896484375</AltitudeMeters>
            <DistanceMeters>19800.138019265</DistanceMeters>
          </Trackpoint>
          <Trackpoint>
            <Time>2023-01-11T12:15:16.000Z</Time>
            <Position>
              <LatitudeDegrees>-49.23925389535725116729736328125</LatitudeDegrees>
              <LongitudeDegrees>-72.96133822761476039886474609375</LongitudeDegrees>
            </Position>
            <AltitudeMeters>478.20001220703125</AltitudeMeters>
            <DistanceMeters>19804.444732283</DistanceMeters>
          </Trackpoint>
          <Trackpoint>
            <Time>2023-01-11T12:15:26.000Z</Time>
            <Position>
              <LatitudeDegrees>-49.239244759082794189453125</LatitudeDegrees>
              <LongitudeDegrees>-72.96139539219439029693603515625</LongitudeDegrees>
            </Position>
            <AltitudeMeters>478.20001220703125</AltitudeMeters>
            <DistanceMeters>19808.721990152</DistanceMeters>
          </Trackpoint>
          <Trackpoint>
            <Time>2023-01-11T12:15:33.000Z</Time>
            <Position>
              <LatitudeDegrees>-49.23921768553555011749267578125</LatitudeDegrees>
              <LongitudeDegrees>-72.96139975078403949737548828125</LongitudeDegrees>
            </Position>
            <AltitudeMeters>478.399993896484375</AltitudeMeters>
            <DistanceMeters>19811.752433641</DistanceMeters>
          </Trackpoint>
          <Trackpoint>
            <Time>2023-01-11T12:15:48.000Z</Time>
            <Position>
              <LatitudeDegrees>-49.23919740132987499237060546875</LatitudeDegrees>
              <LongitudeDegrees>-72.9613961465656757354736328125</LongitudeDegrees>
            </Position>
            <AltitudeMeters>479</AltitudeMeters>
            <DistanceMeters>19814.025142097</DistanceMeters>
          </Trackpoint>
          <Trackpoint>
            <Time>2023-01-11T12:15:56.000Z</Time>
            <Position>
              <LatitudeDegrees>-49.2391570843756198883056640625</LatitudeDegrees>
              <LongitudeDegrees>-72.96149681322276592254638671875</LongitudeDegrees>
            </Position>
            <AltitudeMeters>479</AltitudeMeters>
            <DistanceMeters>19822.607059335</DistanceMeters>
          </Trackpoint>
          <Trackpoint>
            <Time>2023-01-11T12:16:01.000Z</Time>
            <Position>
              <LatitudeDegrees>-49.2391012609004974365234375</LatitudeDegrees>
              <LongitudeDegrees>-72.961602509021759033203125</LongitudeDegrees>
            </Position>
            <AltitudeMeters>479</AltitudeMeters>
            <DistanceMeters>19832.48618208</DistanceMeters>
          </Trackpoint>
          <Trackpoint>
            <Time>2023-01-11T12:16:03.000Z</Time>
            <Position>
              <LatitudeDegrees>-49.23910486511886119842529296875</LatitudeDegrees>
              <LongitudeDegrees>-72.9616459272801876068115234375</LongitudeDegrees>
            </Position>
            <AltitudeMeters>479</AltitudeMeters>
            <DistanceMeters>19835.666384215</DistanceMeters>
          </Trackpoint>
          <Trackpoint>
            <Time>2023-01-11T12:16:09.000Z</Time>
            <Position>
              <LatitudeDegrees>-49.2391280829906463623046875</LatitudeDegrees>
              <LongitudeDegrees>-72.96177207492291927337646484375</LongitudeDegrees>
            </Position>
            <AltitudeMeters>479</AltitudeMeters>
            <DistanceMeters>19845.190886719</DistanceMeters>
          </Trackpoint>
          <Trackpoint>
            <Time>2023-01-11T12:16:12.000Z</Time>
            <Position>
              <LatitudeDegrees>-49.2391319386661052703857421875</LatitudeDegrees>
              <LongitudeDegrees>-72.96183125115931034088134765625</LongitudeDegrees>
            </Position>
            <AltitudeMeters>479</AltitudeMeters>
            <DistanceMeters>19849.513296714</DistanceMeters>
          </Trackpoint>
          <Trackpoint>
            <Time>2023-01-11T12:16:14.000Z</Time>
            <Position>
              <LatitudeDegrees>-49.2391155101358890533447265625</LatitudeDegrees>
              <LongitudeDegrees>-72.96185798943042755126953125</LongitudeDegrees>
            </Position>
            <AltitudeMeters>479</AltitudeMeters>
            <DistanceMeters>19852.182515759</DistanceMeters>
          </Trackpoint>
          <Trackpoint>
            <Time>2023-01-11T12:16:15.000Z</Time>
            <Position>
              <LatitudeDegrees>-49.239110648632049560546875</LatitudeDegrees>
              <LongitudeDegrees>-72.96186695806682109832763671875</LongitudeDegrees>
            </Position>
            <AltitudeMeters>479</AltitudeMeters>
            <DistanceMeters>19853.027131672</DistanceMeters>
          </Trackpoint>
          <Trackpoint>
            <Time>2023-01-11T12:16:18.000Z</Time>
            <Position>
              <LatitudeDegrees>-49.23908491618931293487548828125</LatitudeDegrees>
              <LongitudeDegrees>-72.9619255475699901580810546875</LongitudeDegrees>
            </Position>
            <AltitudeMeters>479</AltitudeMeters>
            <DistanceMeters>19858.158574248</DistanceMeters>
          </Trackpoint>
          <Trackpoint>
            <Time>2023-01-11T12:16:22.000Z</Time>
            <Position>
              <LatitudeDegrees>-49.2390556633472442626953125</LatitudeDegrees>
              <LongitudeDegrees>-72.96201162971556186676025390625</LongitudeDegrees>
            </Position>
            <AltitudeMeters>479</AltitudeMeters>
            <DistanceMeters>19865.211067498</DistanceMeters>
          </Trackpoint>
          <Trackpoint>
            <Time>2023-01-11T12:16:28.000Z</Time>
            <Position>
              <LatitudeDegrees>-49.23901341855525970458984375</LatitudeDegrees>
              <LongitudeDegrees>-72.96213626861572265625</LongitudeDegrees>
            </Position>
            <AltitudeMeters>479</AltitudeMeters>
            <DistanceMeters>19875.416600395</DistanceMeters>
          </Trackpoint>
          <Trackpoint>
            <Time>2023-01-11T12:16:29.000Z</Time>
            <Position>
              <LatitudeDegrees>-49.2390052042901515960693359375</LatitudeDegrees>
              <LongitudeDegrees>-72.9621458239853382110595703125</LongitudeDegrees>
            </Position>
            <AltitudeMeters>479</AltitudeMeters>
            <DistanceMeters>19876.568738077</DistanceMeters>
          </Trackpoint>
          <Trackpoint>
            <Time>2023-01-11T12:16:30.000Z</Time>
            <Position>
              <LatitudeDegrees>-49.23900193534791469573974609375</LatitudeDegrees>
              <LongitudeDegrees>-72.96216267161071300506591796875</LongitudeDegrees>
            </Position>
            <AltitudeMeters>479</AltitudeMeters>
            <DistanceMeters>19877.843655235</DistanceMeters>
          </Trackpoint>
          <Trackpoint>
            <Time>2023-01-11T12:16:35.000Z</Time>
            <Position>
              <LatitudeDegrees>-49.23897963948547840118408203125</LatitudeDegrees>
              <LongitudeDegrees>-72.96225118450820446014404296875</LongitudeDegrees>
            </Position>
            <AltitudeMeters>479</AltitudeMeters>
            <DistanceMeters>19884.737514265</DistanceMeters>
          </Trackpoint>
          <Trackpoint>
            <Time>2023-01-11T12:16:37.000Z</Time>
            <Position>
              <LatitudeDegrees>-49.2389803938567638397216796875</LatitudeDegrees>
              <LongitudeDegrees>-72.96228052116930484771728515625</LongitudeDegrees>
            </Position>
            <AltitudeMeters>479</AltitudeMeters>
            <DistanceMeters>19886.870858711</DistanceMeters>
          </Trackpoint>
          <Trackpoint>
            <Time>2023-01-11T12:16:41.000Z</Time>
            <Position>
              <LatitudeDegrees>-49.23900813795626163482666015625</LatitudeDegrees>
              <LongitudeDegrees>-72.9623305611312389373779296875</LongitudeDegrees>
            </Position>
            <AltitudeMeters>479</AltitudeMeters>
            <DistanceMeters>19891.641161913</DistanceMeters>
          </Trackpoint>
          <Trackpoint>
            <Time>2023-01-11T12:16:42.000Z</Time>
            <Position>
              <LatitudeDegrees>-49.2390139214694499969482421875</LatitudeDegrees>
              <LongitudeDegrees>-72.96234690584242343902587890625</LongitudeDegrees>
            </Position>
            <AltitudeMeters>479</AltitudeMeters>
            <DistanceMeters>19892.991745284</DistanceMeters>
          </Trackpoint>
          <Trackpoint>
            <Time>2023-01-11T12:16:44.000Z</Time>
            <Position>
              <LatitudeDegrees>-49.23901936970651149749755859375</LatitudeDegrees>
              <LongitudeDegrees>-72.9623862169682979583740234375</LongitudeDegrees>
            </Position>
            <AltitudeMeters>479</AltitudeMeters>
            <DistanceMeters>19895.911401456</DistanceMeters>
          </Trackpoint>
          <Trackpoint>
            <Time>2023-01-11T12:16:48.000Z</Time>
            <Position>
              <LatitudeDegrees>-49.23900478519499301910400390625</LatitudeDegrees>
              <LongitudeDegrees>-72.9624636657536029815673828125</LongitudeDegrees>
            </Position>
            <AltitudeMeters>479</AltitudeMeters>
            <DistanceMeters>19901.769241543</DistanceMeters>
          </Trackpoint>
          <Trackpoint>
            <Time>2023-01-11T12:16:54.000Z</Time>
            <Position>
              <LatitudeDegrees>-49.2389803938567638397216796875</LatitudeDegrees>
              <LongitudeDegrees>-72.96257338486611843109130859375</LongitudeDegrees>
            </Position>
            <AltitudeMeters>479</AltitudeMeters>
            <DistanceMeters>19910.191846873</DistanceMeters>
          </Trackpoint>
          <Trackpoint>
            <Time>2023-01-11T12:16:56.000Z</Time>
            <Position>
              <LatitudeDegrees>-49.23896689899265766143798828125</LatitudeDegrees>
              <LongitudeDegrees>-72.96260540373623371124267578125</LongitudeDegrees>
            </Position>
            <AltitudeMeters>479</AltitudeMeters>
            <DistanceMeters>19912.9606977</DistanceMeters>
          </Trackpoint>
          <Trackpoint>
            <Time>2023-01-11T12:16:58.000Z</Time>
            <Position>
              <LatitudeDegrees>-49.2389609478414058685302734375</LatitudeDegrees>
              <LongitudeDegrees>-72.96263180673122406005859375</LongitudeDegrees>
            </Position>
            <AltitudeMeters>479</AltitudeMeters>
            <DistanceMeters>19914.989913031</DistanceMeters>
          </Trackpoint>
          <Trackpoint>
            <Time>2023-01-11T12:17:09.000Z</Time>
            <Position>
              <LatitudeDegrees>-49.238846115767955780029296875</LatitudeDegrees>
              <LongitudeDegrees>-72.96280120499432086944580078125</LongitudeDegrees>
            </Position>
            <AltitudeMeters>479</AltitudeMeters>
            <DistanceMeters>19932.735245537</DistanceMeters>
          </Trackpoint>
          <Trackpoint>
            <Time>2023-01-11T12:17:14.000Z</Time>
            <Position>
              <LatitudeDegrees>-49.23879356123507022857666015625</LatitudeDegrees>
              <LongitudeDegrees>-72.96284697018563747406005859375</LongitudeDegrees>
            </Position>
            <AltitudeMeters>479</AltitudeMeters>
            <DistanceMeters>19939.464049538</DistanceMeters>
          </Trackpoint>
          <Trackpoint>
            <Time>2023-01-11T12:17:18.000Z</Time>
            <Position>
              <LatitudeDegrees>-49.23874117434024810791015625</LatitudeDegrees>
              <LongitudeDegrees>-72.9628830961883068084716796875</LongitudeDegrees>
            </Position>
            <AltitudeMeters>479</AltitudeMeters>
            <DistanceMeters>19945.859142674</DistanceMeters>
          </Trackpoint>
          <Trackpoint>
            <Time>2023-01-11T12:17:19.000Z</Time>
            <Position>
              <LatitudeDegrees>-49.23873723484575748443603515625</LatitudeDegrees>
              <LongitudeDegrees>-72.96289139427244663238525390625</LongitudeDegrees>
            </Position>
            <AltitudeMeters>479</AltitudeMeters>
            <DistanceMeters>19946.607383771</DistanceMeters>
          </Trackpoint>
          <Trackpoint>
            <Time>2023-01-11T12:17:20.000Z</Time>
            <Position>
              <LatitudeDegrees>-49.238732121884822845458984375</LatitudeDegrees>
              <LongitudeDegrees>-72.9628988541662693023681640625</LongitudeDegrees>
            </Position>
            <AltitudeMeters>479</AltitudeMeters>
            <DistanceMeters>19947.396734944</DistanceMeters>
          </Trackpoint>
          <Trackpoint>
            <Time>2023-01-11T12:17:25.000Z</Time>
            <Position>
              <LatitudeDegrees>-49.2386828362941741943359375</LatitudeDegrees>
              <LongitudeDegrees>-72.962950654327869415283203125</LongitudeDegrees>
            </Position>
            <AltitudeMeters>479</AltitudeMeters>
            <DistanceMeters>19954.049962336</DistanceMeters>
          </Trackpoint>
          <Trackpoint>
            <Time>2023-01-11T12:17:33.000Z</Time>
            <Position>
              <LatitudeDegrees>-49.23860111273825168609619140625</LatitudeDegrees>
              <LongitudeDegrees>-72.963026426732540130615234375</LongitudeDegrees>
            </Position>
            <AltitudeMeters>479</AltitudeMeters>
            <DistanceMeters>19964.683192662</DistanceMeters>
          </Trackpoint>
          <Trackpoint>
            <Time>2023-01-11T12:17:35.000Z</Time>
            <Position>
              <LatitudeDegrees>-49.23858518712222576141357421875</LatitudeDegrees>
              <LongitudeDegrees>-72.9630544222891330718994140625</LongitudeDegrees>
            </Position>
            <AltitudeMeters>479</AltitudeMeters>
            <DistanceMeters>19967.381014304</DistanceMeters>
          </Trackpoint>
          <Trackpoint>
            <Time>2023-01-11T12:17:39.000Z</Time>
            <Position>
              <LatitudeDegrees>-49.238559119403362274169921875</LatitudeDegrees>
              <LongitudeDegrees>-72.96310513280332088470458984375</LongitudeDegrees>
            </Position>
            <AltitudeMeters>479</AltitudeMeters>
            <DistanceMeters>19972.071138633</DistanceMeters>
          </Trackpoint>
          <Trackpoint>
            <Time>2023-01-11T12:17:42.000Z</Time>
            <Position>
              <LatitudeDegrees>-49.23852701671421527862548828125</LatitudeDegrees>
              <LongitudeDegrees>-72.9631402529776096343994140625</LongitudeDegrees>
            </Position>
            <AltitudeMeters>479</AltitudeMeters>
            <DistanceMeters>19976.461948718</DistanceMeters>
          </Trackpoint>
          <Trackpoint>
            <Time>2023-01-11T12:17:43.000Z</Time>
            <Position>
              <LatitudeDegrees>-49.23851645551621913909912109375</LatitudeDegrees>
              <LongitudeDegrees>-72.9631550051271915435791015625</LongitudeDegrees>
            </Position>
            <AltitudeMeters>475.20001220703125</AltitudeMeters>
            <DistanceMeters>19978.052049786</DistanceMeters>
          </Trackpoint>
          <Trackpoint>
            <Time>2023-01-11T12:17:48.000Z</Time>
            <Position>
              <LatitudeDegrees>-49.2384682595729827880859375</LatitudeDegrees>
              <LongitudeDegrees>-72.96319833956658840179443359375</LongitudeDegrees>
            </Position>
            <AltitudeMeters>475.20001220703125</AltitudeMeters>
            <DistanceMeters>19984.271764207</DistanceMeters>
          </Trackpoint>
          <Trackpoint>
            <Time>2023-01-11T12:17:55.000Z</Time>
            <Position>
              <LatitudeDegrees>-49.23843272030353546142578125</LatitudeDegrees>
              <LongitudeDegrees>-72.963288612663745880126953125</LongitudeDegrees>
            </Position>
            <AltitudeMeters>475.399993896484375</AltitudeMeters>
            <DistanceMeters>19991.931884097</DistanceMeters>
          </Trackpoint>
          <Trackpoint>
            <Time>2023-01-11T12:17:57.000Z</Time>
            <Position>
              <LatitudeDegrees>-49.23841520212590694427490234375</LatitudeDegrees>
              <LongitudeDegrees>-72.9633176140487194061279296875</LongitudeDegrees>
            </Position>
            <AltitudeMeters>475.399993896484375</AltitudeMeters>
            <DistanceMeters>19994.801627939</DistanceMeters>
          </Trackpoint>
          <Trackpoint>
            <Time>2023-01-11T12:18:02.000Z</Time>
            <Position>
              <LatitudeDegrees>-49.2383869551122188568115234375</LatitudeDegrees>
              <LongitudeDegrees>-72.96337603591382503509521484375</LongitudeDegrees>
            </Position>
            <AltitudeMeters>475.600006103515625</AltitudeMeters>
            <DistanceMeters>20000.083950933</DistanceMeters>
          </Trackpoint>
          <Trackpoint>
            <Time>2023-01-11T12:18:04.000Z</Time>
            <Position>
              <LatitudeDegrees>-49.23838586546480655670166015625</LatitudeDegrees>
              <LongitudeDegrees>-72.96340839006006717681884765625</LongitudeDegrees>
            </Position>
            <AltitudeMeters>475.79998779296875</AltitudeMeters>
            <DistanceMeters>20002.438620111</DistanceMeters>
          </Trackpoint>
          <Trackpoint>
            <Time>2023-01-11T12:18:09.000Z</Time>
            <Position>
              <LatitudeDegrees>-49.23837781883776187896728515625</LatitudeDegrees>
              <LongitudeDegrees>-72.96348282136023044586181640625</LongitudeDegrees>
            </Position>
            <AltitudeMeters>476</AltitudeMeters>
            <DistanceMeters>20007.921422723</DistanceMeters>
          </Trackpoint>
          <Trackpoint>
            <Time>2023-01-11T12:18:11.000Z</Time>
            <Position>
              <LatitudeDegrees>-49.23836273141205310821533203125</LatitudeDegrees>
              <LongitudeDegrees>-72.9634912870824337005615234375</LongitudeDegrees>
            </Position>
            <AltitudeMeters>476</AltitudeMeters>
            <DistanceMeters>20009.709339684</DistanceMeters>
          </Trackpoint>
          <Trackpoint>
            <Time>2023-01-11T12:18:15.000Z</Time>
            <Position>
              <LatitudeDegrees>-49.238343536853790283203125</LatitudeDegrees>
              <LongitudeDegrees>-72.9635144211351871490478515625</LongitudeDegrees>
            </Position>
            <AltitudeMeters>475.79998779296875</AltitudeMeters>
            <DistanceMeters>20012.427170167</DistanceMeters>
          </Trackpoint>
          <Trackpoint>
            <Time>2023-01-11T12:18:20.000Z</Time>
            <Position>
              <LatitudeDegrees>-49.23830154351890087127685546875</LatitudeDegrees>
              <LongitudeDegrees>-72.9635506309568881988525390625</LongitudeDegrees>
            </Position>
            <AltitudeMeters>475.399993896484375</AltitudeMeters>
            <DistanceMeters>20017.790921051</DistanceMeters>
          </Trackpoint>
          <Trackpoint>
            <Time>2023-01-11T12:18:22.000Z</Time>
            <Position>
              <LatitudeDegrees>-49.238277487456798553466796875</LatitudeDegrees>
              <LongitudeDegrees>-72.9635627008974552154541015625</LongitudeDegrees>
            </Position>
            <AltitudeMeters>475</AltitudeMeters>
            <DistanceMeters>20020.60666378</DistanceMeters>
          </Trackpoint>
          <Trackpoint>
            <Time>2023-01-11T12:18:29.000Z</Time>
            <Position>
              <LatitudeDegrees>-49.23822191543877124786376953125</LatitudeDegrees>
              <LongitudeDegrees>-72.9636143334209918975830078125</LongitudeDegrees>
            </Position>
            <AltitudeMeters>474.399993896484375</AltitudeMeters>
            <DistanceMeters>20027.84056266</DistanceMeters>
          </Trackpoint>
          <Trackpoint>
            <Time>2023-01-11T12:18:33.000Z</Time>
            <Position>
              <LatitudeDegrees>-49.2381670139729976654052734375</LatitudeDegrees>
              <LongitudeDegrees>-72.96368448995053768157958984375</LongitudeDegrees>
            </Position>
            <AltitudeMeters>474.20001220703125</AltitudeMeters>
            <DistanceMeters>20035.79901453</DistanceMeters>
          </Trackpoint>
          <Trackpoint>
            <Time>2023-01-11T12:18:34.000Z</Time>
            <Position>
              <LatitudeDegrees>-49.238145053386688232421875</LatitudeDegrees>
              <LongitudeDegrees>-72.96369471587240695953369140625</LongitudeDegrees>
            </Position>
            <AltitudeMeters>474.20001220703125</AltitudeMeters>
            <DistanceMeters>20038.352387827</DistanceMeters>
          </Trackpoint>
          <Trackpoint>
            <Time>2023-01-11T12:18:35.000Z</Time>
            <Position>
              <LatitudeDegrees>-49.2381331510841846466064453125</LatitudeDegrees>
              <LongitudeDegrees>-72.963706366717815399169921875</LongitudeDegrees>
            </Position>
            <AltitudeMeters>474</AltitudeMeters>
            <DistanceMeters>20039.925359837</DistanceMeters>
          </Trackpoint>
          <Trackpoint>
            <Time>2023-01-11T12:18:37.000Z</Time>
            <Position>
              <LatitudeDegrees>-49.23811932094395160675048828125</LatitudeDegrees>
              <LongitudeDegrees>-72.96373276971280574798583984375</LongitudeDegrees>
            </Position>
            <AltitudeMeters>474</AltitudeMeters>
            <DistanceMeters>20042.383229065</DistanceMeters>
          </Trackpoint>
          <Trackpoint>
            <Time>2023-01-11T12:18:38.000Z</Time>
            <Position>
              <LatitudeDegrees>-49.23811093904078006744384765625</LatitudeDegrees>
              <LongitudeDegrees>-72.963737212121486663818359375</LongitudeDegrees>
            </Position>
            <AltitudeMeters>473.79998779296875</AltitudeMeters>
            <DistanceMeters>20043.366193042</DistanceMeters>
          </Trackpoint>
          <Trackpoint>
            <Time>2023-01-11T12:18:39.000Z</Time>
            <Position>
              <LatitudeDegrees>-49.238103143870830535888671875</LatitudeDegrees>
              <LongitudeDegrees>-72.96373955905437469482421875</LongitudeDegrees>
            </Position>
            <AltitudeMeters>473.79998779296875</AltitudeMeters>
            <DistanceMeters>20044.252543227</DistanceMeters>
          </Trackpoint>
          <Trackpoint>
            <Time>2023-01-11T12:18:44.000Z</Time>
            <Position>
              <LatitudeDegrees>-49.2380417883396148681640625</LatitudeDegrees>
              <LongitudeDegrees>-72.96378104947507381439208984375</LongitudeDegrees>
            </Position>
            <AltitudeMeters>474</AltitudeMeters>
            <DistanceMeters>20051.718039313</DistanceMeters>
          </Trackpoint>
          <Trackpoint>
            <Time>2023-01-11T12:18:45.000Z</Time>
            <Position>
              <LatitudeDegrees>-49.23803231678903102874755859375</LatitudeDegrees>
              <LongitudeDegrees>-72.96379731036722660064697265625</LongitudeDegrees>
            </Position>
            <AltitudeMeters>474</AltitudeMeters>
            <DistanceMeters>20053.302451271</DistanceMeters>
          </Trackpoint>
          <Trackpoint>
            <Time>2023-01-11T12:18:46.000Z</Time>
            <Position>
              <LatitudeDegrees>-49.23801991157233715057373046875</LatitudeDegrees>
              <LongitudeDegrees>-72.96381742693483829498291015625</LongitudeDegrees>
            </Position>
            <AltitudeMeters>474</AltitudeMeters>
            <DistanceMeters>20055.311541655</DistanceMeters>
          </Trackpoint>
          <Trackpoint>
            <Time>2023-01-11T12:18:55.000Z</Time>
            <Position>
              <LatitudeDegrees>-49.23797397874295711517333984375</LatitudeDegrees>
              <LongitudeDegrees>-72.96394332312047481536865234375</LongitudeDegrees>
            </Position>
            <AltitudeMeters>474.20001220703125</AltitudeMeters>
            <DistanceMeters>20065.792087913</DistanceMeters>
          </Trackpoint>
          <Trackpoint>
            <Time>2023-01-11T12:18:56.000Z</Time>
            <Position>
              <LatitudeDegrees>-49.23796735703945159912109375</LatitudeDegrees>
              <LongitudeDegrees>-72.9639583267271518707275390625</LongitudeDegrees>
            </Position>
            <AltitudeMeters>474.20001220703125</AltitudeMeters>
            <DistanceMeters>20067.108816691</DistanceMeters>
          </Trackpoint>
          <Trackpoint>
            <Time>2023-01-11T12:18:57.000Z</Time>
            <Position>
              <LatitudeDegrees>-49.2379618249833583831787109375</LatitudeDegrees>
              <LongitudeDegrees>-72.96397986821830272674560546875</LongitudeDegrees>
            </Position>
            <AltitudeMeters>474.399993896484375</AltitudeMeters>
            <DistanceMeters>20068.79269436</DistanceMeters>
          </Trackpoint>
          <Trackpoint>
            <Time>2023-01-11T12:18:58.000Z</Time>
            <Position>
              <LatitudeDegrees>-49.23795369453728199005126953125</LatitudeDegrees>
              <LongitudeDegrees>-72.963997386395931243896484375</LongitudeDegrees>
            </Position>
            <AltitudeMeters>474.399993896484375</AltitudeMeters>
            <DistanceMeters>20070.354142611</DistanceMeters>
          </Trackpoint>
          <Trackpoint>
            <Time>2023-01-11T12:19:03.000Z</Time>
            <Position>
              <LatitudeDegrees>-49.23790290020406246185302734375</LatitudeDegrees>
              <LongitudeDegrees>-72.9640555568039417266845703125</LongitudeDegrees>
            </Position>
            <AltitudeMeters>474.600006103515625</AltitudeMeters>
            <DistanceMeters>20077.413035004</DistanceMeters>
          </Trackpoint>
          <Trackpoint>
            <Time>2023-01-11T12:19:11.000Z</Time>
            <Position>
              <LatitudeDegrees>-49.237887226045131683349609375</LatitudeDegrees>
              <LongitudeDegrees>-72.96411448158323764801025390625</LongitudeDegrees>
            </Position>
            <AltitudeMeters>474.20001220703125</AltitudeMeters>
            <DistanceMeters>20082.035281305</DistanceMeters>
          </Trackpoint>
          <Trackpoint>
            <Time>2023-01-11T12:19:18.000Z</Time>
            <Position>
              <LatitudeDegrees>-49.23785327933728694915771484375</LatitudeDegrees>
              <LongitudeDegrees>-72.96413158066570758819580078125</LongitudeDegrees>
            </Position>
            <AltitudeMeters>474.20001220703125</AltitudeMeters>
            <DistanceMeters>20086.011669598</DistanceMeters>
          </Trackpoint>
          <Trackpoint>
            <Time>2023-01-11T12:19:26.000Z</Time>
            <Position>
              <LatitudeDegrees>-49.23779795877635478973388671875</LatitudeDegrees>
              <LongitudeDegrees>-72.964217998087406158447265625</LongitudeDegrees>
            </Position>
            <AltitudeMeters>474.20001220703125</AltitudeMeters>
            <DistanceMeters>20094.806647416</DistanceMeters>
          </Trackpoint>
          <Trackpoint>
            <Time>2023-01-11T12:19:35.000Z</Time>
            <Position>
              <LatitudeDegrees>-49.2377107031643390655517578125</LatitudeDegrees>
              <LongitudeDegrees>-72.9642734862864017486572265625</LongitudeDegrees>
            </Position>
            <AltitudeMeters>473.79998779296875</AltitudeMeters>
            <DistanceMeters>20105.322460087</DistanceMeters>
          </Trackpoint>
          <Trackpoint>
            <Time>2023-01-11T12:19:36.000Z</Time>
            <Position>
              <LatitudeDegrees>-49.23769888468086719512939453125</LatitudeDegrees>
              <LongitudeDegrees>-72.9642818681895732879638671875</LongitudeDegrees>
            </Position>
            <AltitudeMeters>473.79998779296875</AltitudeMeters>
            <DistanceMeters>20106.769863878</DistanceMeters>
          </Trackpoint>
          <Trackpoint>
            <Time>2023-01-11T12:19:42.000Z</Time>
            <Position>
              <LatitudeDegrees>-49.23762026242911815643310546875</LatitudeDegrees>
              <LongitudeDegrees>-72.96431682072579860687255859375</LongitudeDegrees>
            </Position>
            <AltitudeMeters>474</AltitudeMeters>
            <DistanceMeters>20115.882028983</DistanceMeters>
          </Trackpoint>
          <Trackpoint>
            <Time>2023-01-11T12:19:51.000Z</Time>
            <Position>
              <LatitudeDegrees>-49.23751674592494964599609375</LatitudeDegrees>
              <LongitudeDegrees>-72.964338026940822601318359375</LongitudeDegrees>
            </Position>
            <AltitudeMeters>473.20001220703125</AltitudeMeters>
            <DistanceMeters>20127.506402683</DistanceMeters>
          </Trackpoint>
          <Trackpoint>
            <Time>2023-01-11T12:19:56.000Z</Time>
            <Position>
              <LatitudeDegrees>-49.23748858273029327392578125</LatitudeDegrees>
              <LongitudeDegrees>-72.96440399251878261566162109375</LongitudeDegrees>
            </Position>
            <AltitudeMeters>473.399993896484375</AltitudeMeters>
            <DistanceMeters>20133.234866508</DistanceMeters>
          </Trackpoint>
          <Trackpoint>
            <Time>2023-01-11T12:19:57.000Z</Time>
            <Position>
              <LatitudeDegrees>-49.2374810390174388885498046875</LatitudeDegrees>
              <LongitudeDegrees>-72.964425869286060333251953125</LongitudeDegrees>
            </Position>
            <AltitudeMeters>473.399993896484375</AltitudeMeters>
            <DistanceMeters>20135.032856321</DistanceMeters>
          </Trackpoint>
          <Trackpoint>
            <Time>2023-01-11T12:20:02.000Z</Time>
            <Position>
              <LatitudeDegrees>-49.237437285482883453369140625</LatitudeDegrees>
              <LongitudeDegrees>-72.96450457535684108734130859375</LongitudeDegrees>
            </Position>
            <AltitudeMeters>473.399993896484375</AltitudeMeters>
            <DistanceMeters>20142.54537772</DistanceMeters>
          </Trackpoint>
          <Trackpoint>
            <Time>2023-01-11T12:20:06.000Z</Time>
            <Position>
              <LatitudeDegrees>-49.2374012432992458343505859375</LatitudeDegrees>
              <LongitudeDegrees>-72.96454531140625476837158203125</LongitudeDegrees>
            </Position>
            <AltitudeMeters>473.399993896484375</AltitudeMeters>
            <DistanceMeters>20147.530432421</DistanceMeters>
          </Trackpoint>
          <Trackpoint>
            <Time>2023-01-11T12:20:07.000Z</Time>
            <Position>
              <LatitudeDegrees>-49.237393029034137725830078125</LatitudeDegrees>
              <LongitudeDegrees>-72.96455436386168003082275390625</LongitudeDegrees>
            </Position>
            <AltitudeMeters>473.399993896484375</AltitudeMeters>
            <DistanceMeters>20148.654803669</DistanceMeters>
          </Trackpoint>
          <Trackpoint>
            <Time>2023-01-11T12:20:13.000Z</Time>
            <Position>
              <LatitudeDegrees>-49.23733611591160297393798828125</LatitudeDegrees>
              <LongitudeDegrees>-72.9646027274429798126220703125</LongitudeDegrees>
            </Position>
            <AltitudeMeters>473.399993896484375</AltitudeMeters>
            <DistanceMeters>20155.899305328</DistanceMeters>
          </Trackpoint>
          <Trackpoint>
            <Time>2023-01-11T12:20:15.000Z</Time>
            <Position>
              <LatitudeDegrees>-49.23732270486652851104736328125</LatitudeDegrees>
              <LongitudeDegrees>-72.9646261967718601226806640625</LongitudeDegrees>
            </Position>
            <AltitudeMeters>473.399993896484375</AltitudeMeters>
            <DistanceMeters>20158.168037038</DistanceMeters>
          </Trackpoint>
          <Trackpoint>
            <Time>2023-01-11T12:20:20.000Z</Time>
            <Position>
              <LatitudeDegrees>-49.23730459995567798614501953125</LatitudeDegrees>
              <LongitudeDegrees>-72.9646912403404712677001953125</LongitudeDegrees>
            </Position>
            <AltitudeMeters>473.399993896484375</AltitudeMeters>
            <DistanceMeters>20163.306513809</DistanceMeters>
          </Trackpoint>
          <Trackpoint>
            <Time>2023-01-11T12:20:25.000Z</Time>
            <Position>
              <LatitudeDegrees>-49.23725791275501251220703125</LatitudeDegrees>
              <LongitudeDegrees>-72.96475988812744617462158203125</LongitudeDegrees>
            </Position>
            <AltitudeMeters>473.399993896484375</AltitudeMeters>
            <DistanceMeters>20170.51039119</DistanceMeters>
          </Trackpoint>
          <Trackpoint>
            <Time>2023-01-11T12:20:27.000Z</Time>
            <Position>
              <LatitudeDegrees>-49.23723788000643253326416015625</LatitudeDegrees>
              <LongitudeDegrees>-72.9647901467978954315185546875</LongitudeDegrees>
            </Position>
            <AltitudeMeters>473.399993896484375</AltitudeMeters>
            <DistanceMeters>20173.641950389</DistanceMeters>
          </Trackpoint>
          <Trackpoint>
            <Time>2023-01-11T12:20:35.000Z</Time>
            <Position>
              <LatitudeDegrees>-49.237163364887237548828125</LatitudeDegrees>
              <LongitudeDegrees>-72.96488896943628787994384765625</LongitudeDegrees>
            </Position>
            <AltitudeMeters>473.600006103515625</AltitudeMeters>
            <DistanceMeters>20184.612906998</DistanceMeters>
          </Trackpoint>
          <Trackpoint>
            <Time>2023-01-11T12:20:38.000Z</Time>
            <Position>
              <LatitudeDegrees>-49.23713880591094493865966796875</LatitudeDegrees>
              <LongitudeDegrees>-72.9649326391518115997314453125</LongitudeDegrees>
            </Position>
            <AltitudeMeters>473.600006103515625</AltitudeMeters>
            <DistanceMeters>20188.800556513</DistanceMeters>
          </Trackpoint>
          <Trackpoint>
            <Time>2023-01-11T12:20:41.000Z</Time>
            <Position>
              <LatitudeDegrees>-49.23713461495935916900634765625</LatitudeDegrees>
              <LongitudeDegrees>-72.96497111208736896514892578125</LongitudeDegrees>
            </Position>
            <AltitudeMeters>473.600006103515625</AltitudeMeters>
            <DistanceMeters>20191.635475918</DistanceMeters>
          </Trackpoint>
          <Trackpoint>
            <Time>2023-01-11T12:20:51.000Z</Time>
            <Position>
              <LatitudeDegrees>-49.23708499409258365631103515625</LatitudeDegrees>
              <LongitudeDegrees>-72.965137660503387451171875</LongitudeDegrees>
            </Position>
            <AltitudeMeters>473.79998779296875</AltitudeMeters>
            <DistanceMeters>20204.939555307</DistanceMeters>
          </Trackpoint>
          <Trackpoint>
            <Time>2023-01-11T12:20:58.000Z</Time>
            <Position>
              <LatitudeDegrees>-49.23703101463615894317626953125</LatitudeDegrees>
              <LongitudeDegrees>-72.96523530967533588409423828125</LongitudeDegrees>
            </Position>
            <AltitudeMeters>473.79998779296875</AltitudeMeters>
            <DistanceMeters>20214.237617033</DistanceMeters>
          </Trackpoint>
          <Trackpoint>
            <Time>2023-01-11T12:20:59.000Z</Time>
            <Position>
              <LatitudeDegrees>-49.23702883534133434295654296875</LatitudeDegrees>
              <LongitudeDegrees>-72.9652474634349346160888671875</LongitudeDegrees>
            </Position>
            <AltitudeMeters>473.79998779296875</AltitudeMeters>
            <DistanceMeters>20215.15402148</DistanceMeters>
          </Trackpoint>
          <Trackpoint>
            <Time>2023-01-11T12:21:02.000Z</Time>
            <Position>
              <LatitudeDegrees>-49.2370042763650417327880859375</LatitudeDegrees>
              <LongitudeDegrees>-72.965290881693363189697265625</LongitudeDegrees>
            </Position>
            <AltitudeMeters>474</AltitudeMeters>
            <DistanceMeters>20219.327631124</DistanceMeters>
          </Trackpoint>
          <Trackpoint>
            <Time>2023-01-11T12:21:04.000Z</Time>
            <Position>
              <LatitudeDegrees>-49.23698902130126953125</LatitudeDegrees>
              <LongitudeDegrees>-72.96532533131539821624755859375</LongitudeDegrees>
            </Position>
            <AltitudeMeters>474</AltitudeMeters>
            <DistanceMeters>20222.353601632</DistanceMeters>
          </Trackpoint>
          <Trackpoint>
            <Time>2023-01-11T12:21:14.000Z</Time>
            <Position>
              <LatitudeDegrees>-49.23695708625018596649169921875</LatitudeDegrees>
              <LongitudeDegrees>-72.9654828272759914398193359375</LongitudeDegrees>
            </Position>
            <AltitudeMeters>474</AltitudeMeters>
            <DistanceMeters>20234.339028452</DistanceMeters>
          </Trackpoint>
          <Trackpoint>
            <Time>2023-01-11T12:21:20.000Z</Time>
            <Position>
              <LatitudeDegrees>-49.23691484145820140838623046875</LatitudeDegrees>
              <LongitudeDegrees>-72.96555667184293270111083984375</LongitudeDegrees>
            </Position>
            <AltitudeMeters>474.20001220703125</AltitudeMeters>
            <DistanceMeters>20241.474262926</DistanceMeters>
          </Trackpoint>
          <Trackpoint>
            <Time>2023-01-11T12:21:22.000Z</Time>
            <Position>
              <LatitudeDegrees>-49.23689941875636577606201171875</LatitudeDegrees>
              <LongitudeDegrees>-72.96557678841054439544677734375</LongitudeDegrees>
            </Position>
            <AltitudeMeters>474.20001220703125</AltitudeMeters>
            <DistanceMeters>20243.729020792</DistanceMeters>
          </Trackpoint>
          <Trackpoint>
            <Time>2023-01-11T12:21:32.000Z</Time>
            <Position>
              <LatitudeDegrees>-49.23686488531529903411865234375</LatitudeDegrees>
              <LongitudeDegrees>-72.96572380699217319488525390625</LongitudeDegrees>
            </Position>
            <AltitudeMeters>474.600006103515625</AltitudeMeters>
            <DistanceMeters>20255.083818521</DistanceMeters>
          </Trackpoint>
          <Trackpoint>
            <Time>2023-01-11T12:21:38.000Z</Time>
            <Position>
              <LatitudeDegrees>-49.2368564195930957794189453125</LatitudeDegrees>
              <LongitudeDegrees>-72.96573520638048648834228515625</LongitudeDegrees>
            </Position>
            <AltitudeMeters>474.600006103515625</AltitudeMeters>
            <DistanceMeters>20256.340903792</DistanceMeters>
          </Trackpoint>
          <Trackpoint>
            <Time>2023-01-11T12:21:45.000Z</Time>
            <Position>
              <LatitudeDegrees>-49.23680461943149566650390625</LatitudeDegrees>
              <LongitudeDegrees>-72.96582170762121677398681640625</LongitudeDegrees>
            </Position>
            <AltitudeMeters>474.79998779296875</AltitudeMeters>
            <DistanceMeters>20264.871106368</DistanceMeters>
          </Trackpoint>
          <Trackpoint>
            <Time>2023-01-11T12:21:54.000Z</Time>
            <Position>
              <LatitudeDegrees>-49.23676438629627227783203125</LatitudeDegrees>
              <LongitudeDegrees>-72.9659686423838138580322265625</LongitudeDegrees>
            </Position>
            <AltitudeMeters>475</AltitudeMeters>
            <DistanceMeters>20276.450336698</DistanceMeters>
          </Trackpoint>
          <Trackpoint>
            <Time>2023-01-11T12:21:57.000Z</Time>
            <Position>
              <LatitudeDegrees>-49.23675491474568843841552734375</LatitudeDegrees>
              <LongitudeDegrees>-72.96601952053606510162353515625</LongitudeDegrees>
            </Position>
            <AltitudeMeters>475.20001220703125</AltitudeMeters>
            <DistanceMeters>20280.296278093</DistanceMeters>
          </Trackpoint>
          <Trackpoint>
            <Time>2023-01-11T12:22:01.000Z</Time>
            <Position>
              <LatitudeDegrees>-49.23673764802515506744384765625</LatitudeDegrees>
              <LongitudeDegrees>-72.96608523465692996978759765625</LongitudeDegrees>
            </Position>
            <AltitudeMeters>475.399993896484375</AltitudeMeters>
            <DistanceMeters>20285.444411188</DistanceMeters>
          </Trackpoint>
          <Trackpoint>
            <Time>2023-01-11T12:22:05.000Z</Time>
            <Position>
              <LatitudeDegrees>-49.23672406934201717376708984375</LatitudeDegrees>
              <LongitudeDegrees>-72.96615178696811199188232421875</LongitudeDegrees>
            </Position>
            <AltitudeMeters>475.399993896484375</AltitudeMeters>
            <DistanceMeters>20290.512106661</DistanceMeters>
          </Trackpoint>
          <Trackpoint>
            <Time>2023-01-11T12:22:09.000Z</Time>
            <Position>
              <LatitudeDegrees>-49.2367286793887615203857421875</LatitudeDegrees>
              <LongitudeDegrees>-72.96621331013739109039306640625</LongitudeDegrees>
            </Position>
            <AltitudeMeters>475.399993896484375</AltitudeMeters>
            <DistanceMeters>20295.012602352</DistanceMeters>
          </Trackpoint>
          <Trackpoint>
            <Time>2023-01-11T12:22:12.000Z</Time>
            <Position>
              <LatitudeDegrees>-49.236739911139011383056640625</LatitudeDegrees>
              <LongitudeDegrees>-72.96627533622086048126220703125</LongitudeDegrees>
            </Position>
            <AltitudeMeters>475.600006103515625</AltitudeMeters>
            <DistanceMeters>20299.69019524</DistanceMeters>
          </Trackpoint>
          <Trackpoint>
            <Time>2023-01-11T12:22:14.000Z</Time>
            <Position>
              <LatitudeDegrees>-49.2367290146648883819580078125</LatitudeDegrees>
              <LongitudeDegrees>-72.96630375087261199951171875</LongitudeDegrees>
            </Position>
            <AltitudeMeters>475.600006103515625</AltitudeMeters>
            <DistanceMeters>20302.084793023</DistanceMeters>
          </Trackpoint>
          <Trackpoint>
            <Time>2023-01-11T12:22:15.000Z</Time>
            <Position>
              <LatitudeDegrees>-49.23673194833099842071533203125</LatitudeDegrees>
              <LongitudeDegrees>-72.9663263820111751556396484375</LongitudeDegrees>
            </Position>
            <AltitudeMeters>475.600006103515625</AltitudeMeters>
            <DistanceMeters>20303.760607384</DistanceMeters>
          </Trackpoint>
          <Trackpoint>
            <Time>2023-01-11T12:22:18.000Z</Time>
            <Position>
              <LatitudeDegrees>-49.236715771257877349853515625</LatitudeDegrees>
              <LongitudeDegrees>-72.96637491323053836822509765625</LongitudeDegrees>
            </Position>
            <AltitudeMeters>475.79998779296875</AltitudeMeters>
            <DistanceMeters>20307.719927112</DistanceMeters>
          </Trackpoint>
          <Trackpoint>
            <Time>2023-01-11T12:22:21.000Z</Time>
            <Position>
              <LatitudeDegrees>-49.2366850934922695159912109375</LatitudeDegrees>
              <LongitudeDegrees>-72.96642000786960124969482421875</LongitudeDegrees>
            </Position>
            <AltitudeMeters>476</AltitudeMeters>
            <DistanceMeters>20312.453173319</DistanceMeters>
          </Trackpoint>
          <Trackpoint>
            <Time>2023-01-11T12:22:25.000Z</Time>
            <Position>
              <LatitudeDegrees>-49.23665885813534259796142578125</LatitudeDegrees>
              <LongitudeDegrees>-72.96646124683320522308349609375</LongitudeDegrees>
            </Position>
            <AltitudeMeters>476.20001220703125</AltitudeMeters>
            <DistanceMeters>20316.636507892</DistanceMeters>
          </Trackpoint>
          <Trackpoint>
            <Time>2023-01-11T12:22:29.000Z</Time>
            <Position>
              <LatitudeDegrees>-49.2366341315209865570068359375</LatitudeDegrees>
              <LongitudeDegrees>-72.96650759875774383544921875</LongitudeDegrees>
            </Position>
            <AltitudeMeters>476.600006103515625</AltitudeMeters>
            <DistanceMeters>20320.985991787</DistanceMeters>
          </Trackpoint>
          <Trackpoint>
            <Time>2023-01-11T12:22:31.000Z</Time>
            <Position>
              <LatitudeDegrees>-49.23663052730262279510498046875</LatitudeDegrees>
              <LongitudeDegrees>-72.96653785742819309234619140625</LongitudeDegrees>
            </Position>
            <AltitudeMeters>476.79998779296875</AltitudeMeters>
            <DistanceMeters>20323.220635444</DistanceMeters>
          </Trackpoint>
          <Trackpoint>
            <Time>2023-01-11T12:22:35.000Z</Time>
            <Position>
              <LatitudeDegrees>-49.23658601939678192138671875</LatitudeDegrees>
              <LongitudeDegrees>-72.96658311970531940460205078125</LongitudeDegrees>
            </Position>
            <AltitudeMeters>477.20001220703125</AltitudeMeters>
            <DistanceMeters>20329.167212556</DistanceMeters>
          </Trackpoint>
          <Trackpoint>
            <Time>2023-01-11T12:22:37.000Z</Time>
            <Position>
              <LatitudeDegrees>-49.23655693419277667999267578125</LatitudeDegrees>
              <LongitudeDegrees>-72.966597788035869598388671875</LongitudeDegrees>
            </Position>
            <AltitudeMeters>477.20001220703125</AltitudeMeters>
            <DistanceMeters>20332.57495056</DistanceMeters>
          </Trackpoint>
          <Trackpoint>
            <Time>2023-01-11T12:22:38.000Z</Time>
            <Position>
              <LatitudeDegrees>-49.2365442775189876556396484375</LatitudeDegrees>
              <LongitudeDegrees>-72.96661086380481719970703125</LongitudeDegrees>
            </Position>
            <AltitudeMeters>477.399993896484375</AltitudeMeters>
            <DistanceMeters>20334.274840105</DistanceMeters>
          </Trackpoint>
          <Trackpoint>
            <Time>2023-01-11T12:22:41.000Z</Time>
            <Position>
              <LatitudeDegrees>-49.236524999141693115234375</LatitudeDegrees>
              <LongitudeDegrees>-72.96667364425957202911376953125</LongitudeDegrees>
            </Position>
            <AltitudeMeters>477.399993896484375</AltitudeMeters>
            <DistanceMeters>20339.316631968</DistanceMeters>
          </Trackpoint>
          <Trackpoint>
            <Time>2023-01-11T12:22:45.000Z</Time>
            <Position>
              <LatitudeDegrees>-49.23650278709828853607177734375</LatitudeDegrees>
              <LongitudeDegrees>-72.9667310602962970733642578125</LongitudeDegrees>
            </Position>
            <AltitudeMeters>477.79998779296875</AltitudeMeters>
            <DistanceMeters>20344.167650336</DistanceMeters>
          </Trackpoint>
          <Trackpoint>
            <Time>2023-01-11T12:22:52.000Z</Time>
            <Position>
              <LatitudeDegrees>-49.23648568801581859588623046875</LatitudeDegrees>
              <LongitudeDegrees>-72.9668349958956241607666015625</LongitudeDegrees>
            </Position>
            <AltitudeMeters>478</AltitudeMeters>
            <DistanceMeters>20351.95694322</DistanceMeters>
          </Trackpoint>
          <Trackpoint>
            <Time>2023-01-11T12:22:55.000Z</Time>
            <Position>
              <LatitudeDegrees>-49.23648769967257976531982421875</LatitudeDegrees>
              <LongitudeDegrees>-72.96686776913702487945556640625</LongitudeDegrees>
            </Position>
            <AltitudeMeters>478.20001220703125</AltitudeMeters>
            <DistanceMeters>20354.34965475</DistanceMeters>
          </Trackpoint>
          <Trackpoint>
            <Time>2023-01-11T12:22:56.000Z</Time>
            <Position>
              <LatitudeDegrees>-49.23648669384419918060302734375</LatitudeDegrees>
              <LongitudeDegrees>-72.9668762348592281341552734375</LongitudeDegrees>
            </Position>
            <AltitudeMeters>478.399993896484375</AltitudeMeters>
            <DistanceMeters>20354.979990663</DistanceMeters>
          </Trackpoint>
          <Trackpoint>
            <Time>2023-01-11T12:23:00.000Z</Time>
            <Position>
              <LatitudeDegrees>-49.23648451454937458038330078125</LatitudeDegrees>
              <LongitudeDegrees>-72.96692929230630397796630859375</LongitudeDegrees>
            </Position>
            <AltitudeMeters>478.600006103515625</AltitudeMeters>
            <DistanceMeters>20358.844670008</DistanceMeters>
          </Trackpoint>
          <Trackpoint>
            <Time>2023-01-11T12:23:08.000Z</Time>
            <Position>
              <LatitudeDegrees>-49.23650647513568401336669921875</LatitudeDegrees>
              <LongitudeDegrees>-72.96704445965588092803955078125</LongitudeDegrees>
            </Position>
            <AltitudeMeters>479.399993896484375</AltitudeMeters>
            <DistanceMeters>20367.563856528</DistanceMeters>
          </Trackpoint>
          <Trackpoint>
            <Time>2023-01-11T12:23:09.000Z</Time>
            <Position>
              <LatitudeDegrees>-49.23650697804987430572509765625</LatitudeDegrees>
              <LongitudeDegrees>-72.967057786881923675537109375</LongitudeDegrees>
            </Position>
            <AltitudeMeters>479.600006103515625</AltitudeMeters>
            <DistanceMeters>20368.53294267</DistanceMeters>
          </Trackpoint>
          <Trackpoint>
            <Time>2023-01-11T12:23:17.000Z</Time>
            <Position>
              <LatitudeDegrees>-49.236496500670909881591796875</LatitudeDegrees>
              <LongitudeDegrees>-72.96716381795704364776611328125</LongitudeDegrees>
            </Position>
            <AltitudeMeters>480.399993896484375</AltitudeMeters>
            <DistanceMeters>20376.326292025</DistanceMeters>
          </Trackpoint>
          <Trackpoint>
            <Time>2023-01-11T12:23:18.000Z</Time>
            <Position>
              <LatitudeDegrees>-49.23650094307959079742431640625</LatitudeDegrees>
              <LongitudeDegrees>-72.9671729542315006256103515625</LongitudeDegrees>
            </Position>
            <AltitudeMeters>480.600006103515625</AltitudeMeters>
            <DistanceMeters>20377.160148059</DistanceMeters>
          </Trackpoint>
          <Trackpoint>
            <Time>2023-01-11T12:23:25.000Z</Time>
            <Position>
              <LatitudeDegrees>-49.2364896275103092193603515625</LatitudeDegrees>
              <LongitudeDegrees>-72.96725870110094547271728515625</LongitudeDegrees>
            </Position>
            <AltitudeMeters>481.20001220703125</AltitudeMeters>
            <DistanceMeters>20383.517712228</DistanceMeters>
          </Trackpoint>
          <Trackpoint>
            <Time>2023-01-11T12:23:32.000Z</Time>
            <Position>
              <LatitudeDegrees>-49.23648518510162830352783203125</LatitudeDegrees>
              <LongitudeDegrees>-72.9673472978174686431884765625</LongitudeDegrees>
            </Position>
            <AltitudeMeters>481.399993896484375</AltitudeMeters>
            <DistanceMeters>20389.974635872</DistanceMeters>
          </Trackpoint>
          <Trackpoint>
            <Time>2023-01-11T12:23:33.000Z</Time>
            <Position>
              <LatitudeDegrees>-49.23647697083652019500732421875</LatitudeDegrees>
              <LongitudeDegrees>-72.9673633910715579986572265625</LongitudeDegrees>
            </Position>
            <AltitudeMeters>481.600006103515625</AltitudeMeters>
            <DistanceMeters>20391.459000602</DistanceMeters>
          </Trackpoint>
          <Trackpoint>
            <Time>2023-01-11T12:23:35.000Z</Time>
            <Position>
              <LatitudeDegrees>-49.23647613264620304107666015625</LatitudeDegrees>
              <LongitudeDegrees>-72.96740488149225711822509765625</LongitudeDegrees>
            </Position>
            <AltitudeMeters>481.79998779296875</AltitudeMeters>
            <DistanceMeters>20394.476005252</DistanceMeters>
          </Trackpoint>
          <Trackpoint>
            <Time>2023-01-11T12:23:37.000Z</Time>
            <Position>
              <LatitudeDegrees>-49.23647562973201274871826171875</LatitudeDegrees>
              <LongitudeDegrees>-72.9674297757446765899658203125</LongitudeDegrees>
            </Position>
            <AltitudeMeters>481.79998779296875</AltitudeMeters>
            <DistanceMeters>20396.286507323</DistanceMeters>
          </Trackpoint>
          <Trackpoint>
            <Time>2023-01-11T12:23:47.000Z</Time>
            <Position>
              <LatitudeDegrees>-49.23644092865288257598876953125</LatitudeDegrees>
              <LongitudeDegrees>-72.9676235653460025787353515625</LongitudeDegrees>
            </Position>
            <AltitudeMeters>482.399993896484375</AltitudeMeters>
            <DistanceMeters>20410.889735915</DistanceMeters>
          </Trackpoint>
          <Trackpoint>
            <Time>2023-01-11T12:23:54.000Z</Time>
            <Position>
              <LatitudeDegrees>-49.23637948930263519287109375</LatitudeDegrees>
              <LongitudeDegrees>-72.9677801392972469329833984375</LongitudeDegrees>
            </Position>
            <AltitudeMeters>482.399993896484375</AltitudeMeters>
            <DistanceMeters>20424.165277408</DistanceMeters>
          </Trackpoint>
          <Trackpoint>
            <Time>2023-01-11T12:23:56.000Z</Time>
            <Position>
              <LatitudeDegrees>-49.2363518290221691131591796875</LatitudeDegrees>
              <LongitudeDegrees>-72.96781442128121852874755859375</LongitudeDegrees>
            </Position>
            <AltitudeMeters>482.399993896484375</AltitudeMeters>
            <DistanceMeters>20428.124597136</DistanceMeters>
          </Trackpoint>
          <Trackpoint>
            <Time>2023-01-11T12:24:02.000Z</Time>
            <Position>
              <LatitudeDegrees>-49.23630899749696254730224609375</LatitudeDegrees>
              <LongitudeDegrees>-72.96787259168922901153564453125</LongitudeDegrees>
            </Position>
            <AltitudeMeters>482.399993896484375</AltitudeMeters>
            <DistanceMeters>20434.496349147</DistanceMeters>
          </Trackpoint>
          <Trackpoint>
            <Time>2023-01-11T12:24:04.000Z</Time>
            <Position>
              <LatitudeDegrees>-49.23629944212734699249267578125</LatitudeDegrees>
              <LongitudeDegrees>-72.96790511347353458404541015625</LongitudeDegrees>
            </Position>
            <AltitudeMeters>482.399993896484375</AltitudeMeters>
            <DistanceMeters>20437.086589831</DistanceMeters>
          </Trackpoint>
          <Trackpoint>
            <Time>2023-01-11T12:24:05.000Z</Time>
            <Position>
              <LatitudeDegrees>-49.2362918145954608917236328125</LatitudeDegrees>
              <LongitudeDegrees>-72.9679192788898944854736328125</LongitudeDegrees>
            </Position>
            <AltitudeMeters>482.399993896484375</AltitudeMeters>
            <DistanceMeters>20438.416963832</DistanceMeters>
          </Trackpoint>
          <Trackpoint>
            <Time>2023-01-11T12:24:10.000Z</Time>
            <Position>
              <LatitudeDegrees>-49.23631100915372371673583984375</LatitudeDegrees>
              <LongitudeDegrees>-72.96801055781543254852294921875</LongitudeDegrees>
            </Position>
            <AltitudeMeters>482.600006103515625</AltitudeMeters>
            <DistanceMeters>20445.385733531</DistanceMeters>
          </Trackpoint>
          <Trackpoint>
            <Time>2023-01-11T12:24:13.000Z</Time>
            <Position>
              <LatitudeDegrees>-49.2363032139837741851806640625</LatitudeDegrees>
              <LongitudeDegrees>-72.96807442791759967803955078125</LongitudeDegrees>
            </Position>
            <AltitudeMeters>482.399993896484375</AltitudeMeters>
            <DistanceMeters>20450.108475194</DistanceMeters>
          </Trackpoint>
          <Trackpoint>
            <Time>2023-01-11T12:24:15.000Z</Time>
            <Position>
              <LatitudeDegrees>-49.23628963530063629150390625</LatitudeDegrees>
              <LongitudeDegrees>-72.9680956341326236724853515625</LongitudeDegrees>
            </Position>
            <AltitudeMeters>482.399993896484375</AltitudeMeters>
            <DistanceMeters>20452.267067199</DistanceMeters>
          </Trackpoint>
          <Trackpoint>
            <Time>2023-01-11T12:24:21.000Z</Time>
            <Position>
              <LatitudeDegrees>-49.2362029664218425750732421875</LatitudeDegrees>
              <LongitudeDegrees>-72.968132011592388153076171875</LongitudeDegrees>
            </Position>
            <AltitudeMeters>482.399993896484375</AltitudeMeters>
            <DistanceMeters>20462.268826387</DistanceMeters>
          </Trackpoint>
          <Trackpoint>
            <Time>2023-01-11T12:24:27.000Z</Time>
            <Position>
              <LatitudeDegrees>-49.236152172088623046875</LatitudeDegrees>
              <LongitudeDegrees>-72.96818406321108341217041015625</LongitudeDegrees>
            </Position>
            <AltitudeMeters>482.20001220703125</AltitudeMeters>
            <DistanceMeters>20469.071040122</DistanceMeters>
          </Trackpoint>
          <Trackpoint>
            <Time>2023-01-11T12:24:30.000Z</Time>
            <Position>
              <LatitudeDegrees>-49.236117303371429443359375</LatitudeDegrees>
              <LongitudeDegrees>-72.96822823584079742431640625</LongitudeDegrees>
            </Position>
            <AltitudeMeters>482.20001220703125</AltitudeMeters>
            <DistanceMeters>20474.108352382</DistanceMeters>
          </Trackpoint>
          <Trackpoint>
            <Time>2023-01-11T12:24:32.000Z</Time>
            <Position>
              <LatitudeDegrees>-49.23610062338411808013916015625</LatitudeDegrees>
              <LongitudeDegrees>-72.9682478494942188262939453125</LongitudeDegrees>
            </Position>
            <AltitudeMeters>482.20001220703125</AltitudeMeters>
            <DistanceMeters>20476.449560703</DistanceMeters>
          </Trackpoint>
          <Trackpoint>
            <Time>2023-01-11T12:24:33.000Z</Time>
            <Position>
              <LatitudeDegrees>-49.23610833473503589630126953125</LatitudeDegrees>
              <LongitudeDegrees>-72.9682538844645023345947265625</LongitudeDegrees>
            </Position>
            <AltitudeMeters>482.20001220703125</AltitudeMeters>
            <DistanceMeters>20477.413976523</DistanceMeters>
          </Trackpoint>
          <Trackpoint>
            <Time>2023-01-11T12:24:37.000Z</Time>
            <Position>
              <LatitudeDegrees>-49.2360515892505645751953125</LatitudeDegrees>
              <LongitudeDegrees>-72.9683038406074047088623046875</LongitudeDegrees>
            </Position>
            <AltitudeMeters>482</AltitudeMeters>
            <DistanceMeters>20484.699495677</DistanceMeters>
          </Trackpoint>
          <Trackpoint>
            <Time>2023-01-11T12:24:45.000Z</Time>
            <Position>
              <LatitudeDegrees>-49.2359496653079986572265625</LatitudeDegrees>
              <LongitudeDegrees>-72.9683873243629932403564453125</LongitudeDegrees>
            </Position>
            <AltitudeMeters>481.79998779296875</AltitudeMeters>
            <DistanceMeters>20497.564301974</DistanceMeters>
          </Trackpoint>
          <Trackpoint>
            <Time>2023-01-11T12:24:47.000Z</Time>
            <Position>
              <LatitudeDegrees>-49.235920496284961700439453125</LatitudeDegrees>
              <LongitudeDegrees>-72.9683844745159149169921875</LongitudeDegrees>
            </Position>
            <AltitudeMeters>481.79998779296875</AltitudeMeters>
            <DistanceMeters>20500.817492652</DistanceMeters>
          </Trackpoint>
          <Trackpoint>
            <Time>2023-01-11T12:24:50.000Z</Time>
            <Position>
              <LatitudeDegrees>-49.235898368060588836669921875</LatitudeDegrees>
              <LongitudeDegrees>-72.96838321723043918609619140625</LongitudeDegrees>
            </Position>
            <AltitudeMeters>482.79998779296875</AltitudeMeters>
            <DistanceMeters>20503.280866634</DistanceMeters>
          </Trackpoint>
          <Trackpoint>
            <Time>2023-01-11T12:24:51.000Z</Time>
            <Position>
              <LatitudeDegrees>-49.23589526675641536712646484375</LatitudeDegrees>
              <LongitudeDegrees>-72.96838782727718353271484375</LongitudeDegrees>
            </Position>
            <AltitudeMeters>482.79998779296875</AltitudeMeters>
            <DistanceMeters>20503.765409704</DistanceMeters>
          </Trackpoint>
          <Trackpoint>
            <Time>2023-01-11T12:24:54.000Z</Time>
            <Position>
              <LatitudeDegrees>-49.23587783239781856536865234375</LatitudeDegrees>
              <LongitudeDegrees>-72.9684295691549777984619140625</LongitudeDegrees>
            </Position>
            <AltitudeMeters>482.79998779296875</AltitudeMeters>
            <DistanceMeters>20507.366408146</DistanceMeters>
          </Trackpoint>
          <Trackpoint>
            <Time>2023-01-11T12:24:59.000Z</Time>
            <Position>
              <LatitudeDegrees>-49.23583759926259517669677734375</LatitudeDegrees>
              <LongitudeDegrees>-72.96848430298268795013427734375</LongitudeDegrees>
            </Position>
            <AltitudeMeters>482.79998779296875</AltitudeMeters>
            <DistanceMeters>20513.356107112</DistanceMeters>
          </Trackpoint>
          <Trackpoint>
            <Time>2023-01-11T12:25:02.000Z</Time>
            <Position>
              <LatitudeDegrees>-49.23584212549030780792236328125</LatitudeDegrees>
              <LongitudeDegrees>-72.9685281403362751007080078125</LongitudeDegrees>
            </Position>
            <AltitudeMeters>482.79998779296875</AltitudeMeters>
            <DistanceMeters>20516.58142075</DistanceMeters>
          </Trackpoint>
          <Trackpoint>
            <Time>2023-01-11T12:25:09.000Z</Time>
            <Position>
              <LatitudeDegrees>-49.2358415387570858001708984375</LatitudeDegrees>
              <LongitudeDegrees>-72.96863484196364879608154296875</LongitudeDegrees>
            </Position>
            <AltitudeMeters>482.79998779296875</AltitudeMeters>
            <DistanceMeters>20524.336439069</DistanceMeters>
          </Trackpoint>
          <Trackpoint>
            <Time>2023-01-11T12:25:10.000Z</Time>
            <Position>
              <LatitudeDegrees>-49.23584028147161006927490234375</LatitudeDegrees>
              <LongitudeDegrees>-72.96865311451256275177001953125</LongitudeDegrees>
            </Position>
            <AltitudeMeters>482.79998779296875</AltitudeMeters>
            <DistanceMeters>20525.673583465</DistanceMeters>
          </Trackpoint>
          <Trackpoint>
            <Time>2023-01-11T12:25:11.000Z</Time>
            <Position>
              <LatitudeDegrees>-49.23583810217678546905517578125</LatitudeDegrees>
              <LongitudeDegrees>-72.968667447566986083984375</LongitudeDegrees>
            </Position>
            <AltitudeMeters>482.79998779296875</AltitudeMeters>
            <DistanceMeters>20526.740255688</DistanceMeters>
          </Trackpoint>
          <Trackpoint>
            <Time>2023-01-11T12:25:14.000Z</Time>
            <Position>
              <LatitudeDegrees>-49.23582972027361392974853515625</LatitudeDegrees>
              <LongitudeDegrees>-72.9687098599970340728759765625</LongitudeDegrees>
            </Position>
            <AltitudeMeters>482.79998779296875</AltitudeMeters>
            <DistanceMeters>20529.959964954</DistanceMeters>
          </Trackpoint>
          <Trackpoint>
            <Time>2023-01-11T12:25:17.000Z</Time>
            <Position>
              <LatitudeDegrees>-49.2358080111443996429443359375</LatitudeDegrees>
              <LongitudeDegrees>-72.968756966292858123779296875</LongitudeDegrees>
            </Position>
            <AltitudeMeters>482.79998779296875</AltitudeMeters>
            <DistanceMeters>20534.150847759</DistanceMeters>
          </Trackpoint>
          <Trackpoint>
            <Time>2023-01-11T12:25:20.000Z</Time>
            <Position>
              <LatitudeDegrees>-49.23577624373137950897216796875</LatitudeDegrees>
              <LongitudeDegrees>-72.96878420747816562652587890625</LongitudeDegrees>
            </Position>
            <AltitudeMeters>482.79998779296875</AltitudeMeters>
            <DistanceMeters>20538.203712061</DistanceMeters>
          </Trackpoint>
          <Trackpoint>
            <Time>2023-01-11T12:25:23.000Z</Time>
            <Position>
              <LatitudeDegrees>-49.23574003390967845916748046875</LatitudeDegrees>
              <LongitudeDegrees>-72.96878320164978504180908203125</LongitudeDegrees>
            </Position>
            <AltitudeMeters>482.79998779296875</AltitudeMeters>
            <DistanceMeters>20542.233113685</DistanceMeters>
          </Trackpoint>
          <Trackpoint>
            <Time>2023-01-11T12:25:32.000Z</Time>
            <Position>
              <LatitudeDegrees>-49.2356358468532562255859375</LatitudeDegrees>
              <LongitudeDegrees>-72.96884992159903049468994140625</LongitudeDegrees>
            </Position>
            <AltitudeMeters>482.79998779296875</AltitudeMeters>
            <DistanceMeters>20554.802170427</DistanceMeters>
          </Trackpoint>
          <Trackpoint>
            <Time>2023-01-11T12:25:40.000Z</Time>
            <Position>
              <LatitudeDegrees>-49.23555479384958744049072265625</LatitudeDegrees>
              <LongitudeDegrees>-72.96894966624677181243896484375</LongitudeDegrees>
            </Position>
            <AltitudeMeters>482.79998779296875</AltitudeMeters>
            <DistanceMeters>20566.375160266</DistanceMeters>
          </Trackpoint>
          <Trackpoint>
            <Time>2023-01-11T12:25:45.000Z</Time>
            <Position>
              <LatitudeDegrees>-49.2355270497500896453857421875</LatitudeDegrees>
              <LongitudeDegrees>-72.968997694551944732666015625</LongitudeDegrees>
            </Position>
            <AltitudeMeters>482.79998779296875</AltitudeMeters>
            <DistanceMeters>20571.03631505</DistanceMeters>
          </Trackpoint>
          <Trackpoint>
            <Time>2023-01-11T12:25:52.000Z</Time>
            <Position>
              <LatitudeDegrees>-49.235499389469623565673828125</LatitudeDegrees>
              <LongitudeDegrees>-72.96907673589885234832763671875</LongitudeDegrees>
            </Position>
            <AltitudeMeters>482.79998779296875</AltitudeMeters>
            <DistanceMeters>20577.55378999</DistanceMeters>
          </Trackpoint>
          <Trackpoint>
            <Time>2023-01-11T12:25:57.000Z</Time>
            <Position>
              <LatitudeDegrees>-49.235489331185817718505859375</LatitudeDegrees>
              <LongitudeDegrees>-72.96913993544876575469970703125</LongitudeDegrees>
            </Position>
            <AltitudeMeters>482.79998779296875</AltitudeMeters>
            <DistanceMeters>20582.282264298</DistanceMeters>
          </Trackpoint>
          <Trackpoint>
            <Time>2023-01-11T12:26:04.000Z</Time>
            <Position>
              <LatitudeDegrees>-49.2355092801153659820556640625</LatitudeDegrees>
              <LongitudeDegrees>-72.9692731238901615142822265625</LongitudeDegrees>
            </Position>
            <AltitudeMeters>482.79998779296875</AltitudeMeters>
            <DistanceMeters>20592.213351596</DistanceMeters>
          </Trackpoint>
          <Trackpoint>
            <Time>2023-01-11T12:26:05.000Z</Time>
            <Position>
              <LatitudeDegrees>-49.23551422543823719024658203125</LatitudeDegrees>
              <LongitudeDegrees>-72.96928728930652141571044921875</LongitudeDegrees>
            </Position>
            <AltitudeMeters>482.79998779296875</AltitudeMeters>
            <DistanceMeters>20593.381059411</DistanceMeters>
          </Trackpoint>
          <Trackpoint>
            <Time>2023-01-11T12:26:07.000Z</Time>
            <Position>
              <LatitudeDegrees>-49.2355231940746307373046875</LatitudeDegrees>
              <LongitudeDegrees>-72.96932450495660305023193359375</LongitudeDegrees>
            </Position>
            <AltitudeMeters>482.79998779296875</AltitudeMeters>
            <DistanceMeters>20596.264928411</DistanceMeters>
          </Trackpoint>
          <Trackpoint>
            <Time>2023-01-11T12:26:09.000Z</Time>
            <Position>
              <LatitudeDegrees>-49.2355124652385711669921875</LatitudeDegrees>
              <LongitudeDegrees>-72.96936406753957271575927734375</LongitudeDegrees>
            </Position>
            <AltitudeMeters>482.79998779296875</AltitudeMeters>
            <DistanceMeters>20599.379138118</DistanceMeters>
          </Trackpoint>
          <Trackpoint>
            <Time>2023-01-11T12:26:10.000Z</Time>
            <Position>
              <LatitudeDegrees>-49.2355049215257167816162109375</LatitudeDegrees>
              <LongitudeDegrees>-72.96938359737396240234375</LongitudeDegrees>
            </Position>
            <AltitudeMeters>482.79998779296875</AltitudeMeters>
            <DistanceMeters>20601.027789994</DistanceMeters>
          </Trackpoint>
          <Trackpoint>
            <Time>2023-01-11T12:26:18.000Z</Time>
            <Position>
              <LatitudeDegrees>-49.235450439155101776123046875</LatitudeDegrees>
              <LongitudeDegrees>-72.96952801756560802459716796875</LongitudeDegrees>
            </Position>
            <AltitudeMeters>482.79998779296875</AltitudeMeters>
            <DistanceMeters>20613.148818983</DistanceMeters>
          </Trackpoint>
          <Trackpoint>
            <Time>2023-01-11T12:26:26.000Z</Time>
            <Position>
              <LatitudeDegrees>-49.23542604781687259674072265625</LatitudeDegrees>
              <LongitudeDegrees>-72.969576381146907806396484375</LongitudeDegrees>
            </Position>
            <AltitudeMeters>482.79998779296875</AltitudeMeters>
            <DistanceMeters>20617.589729583</DistanceMeters>
          </Trackpoint>
          <Trackpoint>
            <Time>2023-01-11T12:26:30.000Z</Time>
            <Position>
              <LatitudeDegrees>-49.2353986389935016632080078125</LatitudeDegrees>
              <LongitudeDegrees>-72.96963698230683803558349609375</LongitudeDegrees>
            </Position>
            <AltitudeMeters>482.79998779296875</AltitudeMeters>
            <DistanceMeters>20622.946742084</DistanceMeters>
          </Trackpoint>
          <Trackpoint>
            <Time>2023-01-11T12:26:34.000Z</Time>
            <Position>
              <LatitudeDegrees>-49.2353976331651210784912109375</LatitudeDegrees>
              <LongitudeDegrees>-72.969703115522861480712890625</LongitudeDegrees>
            </Position>
            <AltitudeMeters>482.79998779296875</AltitudeMeters>
            <DistanceMeters>20627.754755779</DistanceMeters>
          </Trackpoint>
          <Trackpoint>
            <Time>2023-01-11T12:26:39.000Z</Time>
            <Position>
              <LatitudeDegrees>-49.23535597510635852813720703125</LatitudeDegrees>
              <LongitudeDegrees>-72.969748713076114654541015625</LongitudeDegrees>
            </Position>
            <AltitudeMeters>482.79998779296875</AltitudeMeters>
            <DistanceMeters>20633.453190204</DistanceMeters>
          </Trackpoint>
          <Trackpoint>
            <Time>2023-01-11T12:26:42.000Z</Time>
            <Position>
              <LatitudeDegrees>-49.23533937893807888031005859375</LatitudeDegrees>
              <LongitudeDegrees>-72.969785593450069427490234375</LongitudeDegrees>
            </Position>
            <AltitudeMeters>482.79998779296875</AltitudeMeters>
            <DistanceMeters>20636.707768467</DistanceMeters>
          </Trackpoint>
          <Trackpoint>
            <Time>2023-01-11T12:26:49.000Z</Time>
            <Position>
              <LatitudeDegrees>-49.2352377064526081085205078125</LatitudeDegrees>
              <LongitudeDegrees>-72.9697979986667633056640625</LongitudeDegrees>
            </Position>
            <AltitudeMeters>482.79998779296875</AltitudeMeters>
            <DistanceMeters>20648.060180149</DistanceMeters>
          </Trackpoint>
          <Trackpoint>
            <Time>2023-01-11T12:26:52.000Z</Time>
            <Position>
              <LatitudeDegrees>-49.235196299850940704345703125</LatitudeDegrees>
              <LongitudeDegrees>-72.96981316991150379180908203125</LongitudeDegrees>
            </Position>
            <AltitudeMeters>482.79998779296875</AltitudeMeters>
            <DistanceMeters>20652.79819345</DistanceMeters>
          </Trackpoint>
          <Trackpoint>
            <Time>2023-01-11T12:26:58.000Z</Time>
            <Position>
              <LatitudeDegrees>-49.23512178473174571990966796875</LatitudeDegrees>
              <LongitudeDegrees>-72.96981015242636203765869140625</LongitudeDegrees>
            </Position>
            <AltitudeMeters>482.79998779296875</AltitudeMeters>
            <DistanceMeters>20661.094412026</DistanceMeters>
          </Trackpoint>
          <Trackpoint>
            <Time>2023-01-11T12:27:03.000Z</Time>
            <Position>
              <LatitudeDegrees>-49.2351109720766544342041015625</LatitudeDegrees>
              <LongitudeDegrees>-72.969804704189300537109375</LongitudeDegrees>
            </Position>
            <AltitudeMeters>482.79998779296875</AltitudeMeters>
            <DistanceMeters>20662.362226526</DistanceMeters>
          </Trackpoint>
          <Trackpoint>
            <Time>2023-01-11T12:27:23.000Z</Time>
            <Position>
              <LatitudeDegrees>-49.23511910252273082733154296875</LatitudeDegrees>
              <LongitudeDegrees>-72.9698655568063259124755859375</LongitudeDegrees>
            </Position>
            <AltitudeMeters>482.79998779296875</AltitudeMeters>
            <DistanceMeters>20666.876745607</DistanceMeters>
          </Trackpoint>
          <Trackpoint>
            <Time>2023-01-11T12:27:24.000Z</Time>
            <Position>
              <LatitudeDegrees>-49.23511960543692111968994140625</LatitudeDegrees>
              <LongitudeDegrees>-72.9698813147842884063720703125</LongitudeDegrees>
            </Position>
            <AltitudeMeters>482.79998779296875</AltitudeMeters>
            <DistanceMeters>20668.021018776</DistanceMeters>
          </Trackpoint>
          <Trackpoint>
            <Time>2023-01-11T12:27:30.000Z</Time>
            <Position>
              <LatitudeDegrees>-49.2351656220853328704833984375</LatitudeDegrees>
              <LongitudeDegrees>-72.96998902224004268646240234375</LongitudeDegrees>
            </Position>
            <AltitudeMeters>482.79998779296875</AltitudeMeters>
            <DistanceMeters>20677.375239254</DistanceMeters>
          </Trackpoint>
          <Trackpoint>
            <Time>2023-01-11T12:27:37.000Z</Time>
            <Position>
              <LatitudeDegrees>-49.235184900462627410888671875</LatitudeDegrees>
              <LongitudeDegrees>-72.97011307440698146820068359375</LongitudeDegrees>
            </Position>
            <AltitudeMeters>482.79998779296875</AltitudeMeters>
            <DistanceMeters>20686.643145551</DistanceMeters>
          </Trackpoint>
          <Trackpoint>
            <Time>2023-01-11T12:27:46.000Z</Time>
            <Position>
              <LatitudeDegrees>-49.2351699806749820709228515625</LatitudeDegrees>
              <LongitudeDegrees>-72.97028473578393459320068359375</LongitudeDegrees>
            </Position>
            <AltitudeMeters>482.79998779296875</AltitudeMeters>
            <DistanceMeters>20699.228356746</DistanceMeters>
          </Trackpoint>
          <Trackpoint>
            <Time>2023-01-11T12:27:49.000Z</Time>
            <Position>
              <LatitudeDegrees>-49.2351786978542804718017578125</LatitudeDegrees>
              <LongitudeDegrees>-72.97034307383000850677490234375</LongitudeDegrees>
            </Position>
            <AltitudeMeters>482.79998779296875</AltitudeMeters>
            <DistanceMeters>20703.576802454</DistanceMeters>
          </Trackpoint>
          <Trackpoint>
            <Time>2023-01-11T12:27:51.000Z</Time>
            <Position>
              <LatitudeDegrees>-49.2351676337420940399169921875</LatitudeDegrees>
              <LongitudeDegrees>-72.97037442214787006378173828125</LongitudeDegrees>
            </Position>
            <AltitudeMeters>482.79998779296875</AltitudeMeters>
            <DistanceMeters>20706.165299454</DistanceMeters>
          </Trackpoint>
          <Trackpoint>
            <Time>2023-01-11T12:27:52.000Z</Time>
            <Position>
              <LatitudeDegrees>-49.23516042530536651611328125</LatitudeDegrees>
              <LongitudeDegrees>-72.97039009630680084228515625</LongitudeDegrees>
            </Position>
            <AltitudeMeters>482.79998779296875</AltitudeMeters>
            <DistanceMeters>20707.558664602</DistanceMeters>
          </Trackpoint>
          <Trackpoint>
            <Time>2023-01-11T12:27:57.000Z</Time>
            <Position>
              <LatitudeDegrees>-49.23512346111238002777099609375</LatitudeDegrees>
              <LongitudeDegrees>-72.97049545682966709136962890625</LongitudeDegrees>
            </Position>
            <AltitudeMeters>482.79998779296875</AltitudeMeters>
            <DistanceMeters>20716.251401782</DistanceMeters>
          </Trackpoint>
          <Trackpoint>
            <Time>2023-01-11T12:28:02.000Z</Time>
            <Position>
              <LatitudeDegrees>-49.23512756824493408203125</LatitudeDegrees>
              <LongitudeDegrees>-72.97057676129043102264404296875</LongitudeDegrees>
            </Position>
            <AltitudeMeters>482.79998779296875</AltitudeMeters>
            <DistanceMeters>20722.178205083</DistanceMeters>
          </Trackpoint>
          <Trackpoint>
            <Time>2023-01-11T12:28:10.000Z</Time>
            <Position>
              <LatitudeDegrees>-49.2351109720766544342041015625</LatitudeDegrees>
              <LongitudeDegrees>-72.97069041989743709564208984375</LongitudeDegrees>
            </Position>
            <AltitudeMeters>482.79998779296875</AltitudeMeters>
            <DistanceMeters>20730.64251997</DistanceMeters>
          </Trackpoint>
          <Trackpoint>
            <Time>2023-01-11T12:28:16.000Z</Time>
            <Position>
              <LatitudeDegrees>-49.23508289270102977752685546875</LatitudeDegrees>
              <LongitudeDegrees>-72.9707835428416728973388671875</LongitudeDegrees>
            </Position>
            <AltitudeMeters>482.79998779296875</AltitudeMeters>
            <DistanceMeters>20738.09772758</DistanceMeters>
          </Trackpoint>
          <Trackpoint>
            <Time>2023-01-11T12:28:17.000Z</Time>
            <Position>
              <LatitudeDegrees>-49.23507593572139739990234375</LatitudeDegrees>
              <LongitudeDegrees>-72.97079779207706451416015625</LongitudeDegrees>
            </Position>
            <AltitudeMeters>482.79998779296875</AltitudeMeters>
            <DistanceMeters>20739.393719177</DistanceMeters>
          </Trackpoint>
          <Trackpoint>
            <Time>2023-01-11T12:28:19.000Z</Time>
            <Position>
              <LatitudeDegrees>-49.23505942337214946746826171875</LatitudeDegrees>
              <LongitudeDegrees>-72.97082327306270599365234375</LongitudeDegrees>
            </Position>
            <AltitudeMeters>482.79998779296875</AltitudeMeters>
            <DistanceMeters>20742.00306347</DistanceMeters>
          </Trackpoint>
          <Trackpoint>
            <Time>2023-01-11T12:28:24.000Z</Time>
            <Position>
              <LatitudeDegrees>-49.23501717858016490936279296875</LatitudeDegrees>
              <LongitudeDegrees>-72.97088320367038249969482421875</LongitudeDegrees>
            </Position>
            <AltitudeMeters>482.79998779296875</AltitudeMeters>
            <DistanceMeters>20748.412965795</DistanceMeters>
          </Trackpoint>
          <Trackpoint>
            <Time>2023-01-11T12:28:25.000Z</Time>
            <Position>
              <LatitudeDegrees>-49.235023297369480133056640625</LatitudeDegrees>
              <LongitudeDegrees>-72.97090248204767704010009765625</LongitudeDegrees>
            </Position>
            <AltitudeMeters>482.79998779296875</AltitudeMeters>
            <DistanceMeters>20749.971519793</DistanceMeters>
          </Trackpoint>
          <Trackpoint>
            <Time>2023-01-11T12:28:34.000Z</Time>
            <Position>
              <LatitudeDegrees>-49.23500125296413898468017578125</LatitudeDegrees>
              <LongitudeDegrees>-72.9710262827575206756591796875</LongitudeDegrees>
            </Position>
            <AltitudeMeters>482.79998779296875</AltitudeMeters>
            <DistanceMeters>20759.297219028</DistanceMeters>
          </Trackpoint>
          <Trackpoint>
            <Time>2023-01-11T12:28:41.000Z</Time>
            <Position>
              <LatitudeDegrees>-49.2349641211330890655517578125</LatitudeDegrees>
              <LongitudeDegrees>-72.97112057916820049285888671875</LongitudeDegrees>
            </Position>
            <AltitudeMeters>482.79998779296875</AltitudeMeters>
            <DistanceMeters>20767.299799996</DistanceMeters>
          </Trackpoint>
          <Trackpoint>
            <Time>2023-01-11T12:28:42.000Z</Time>
            <Position>
              <LatitudeDegrees>-49.23494710586965084075927734375</LatitudeDegrees>
              <LongitudeDegrees>-72.97112644650042057037353515625</LongitudeDegrees>
            </Position>
            <AltitudeMeters>482.79998779296875</AltitudeMeters>
            <DistanceMeters>20769.237972279</DistanceMeters>
          </Trackpoint>
          <Trackpoint>
            <Time>2023-01-11T12:28:48.000Z</Time>
            <Position>
              <LatitudeDegrees>-49.2348970659077167510986328125</LatitudeDegrees>
              <LongitudeDegrees>-72.97119517810642719268798828125</LongitudeDegrees>
            </Position>
            <AltitudeMeters>482.79998779296875</AltitudeMeters>
            <DistanceMeters>20776.719176313</DistanceMeters>
          </Trackpoint>
          <Trackpoint>
            <Time>2023-01-11T12:28:54.000Z</Time>
            <Position>
              <LatitudeDegrees>-49.23483110032975673675537109375</LatitudeDegrees>
              <LongitudeDegrees>-72.971274890005588531494140625</LongitudeDegrees>
            </Position>
            <AltitudeMeters>482.79998779296875</AltitudeMeters>
            <DistanceMeters>20786.07098311</DistanceMeters>
          </Trackpoint>
          <Trackpoint>
            <Time>2023-01-11T12:28:56.000Z</Time>
            <Position>
              <LatitudeDegrees>-49.23480746336281299591064453125</LatitudeDegrees>
              <LongitudeDegrees>-72.97129525803029537200927734375</LongitudeDegrees>
            </Position>
            <AltitudeMeters>482.79998779296875</AltitudeMeters>
            <DistanceMeters>20789.08798776</DistanceMeters>
          </Trackpoint>
          <Trackpoint>
            <Time>2023-01-11T12:29:02.000Z</Time>
            <Position>
              <LatitudeDegrees>-49.23477577976882457733154296875</LatitudeDegrees>
              <LongitudeDegrees>-72.97134253196418285369873046875</LongitudeDegrees>
            </Position>
            <AltitudeMeters>482.79998779296875</AltitudeMeters>
            <DistanceMeters>20794.011068622</DistanceMeters>
          </Trackpoint>
          <Trackpoint>
            <Time>2023-01-11T12:29:03.000Z</Time>
            <Position>
              <LatitudeDegrees>-49.2347710020840167999267578125</LatitudeDegrees>
              <LongitudeDegrees>-72.97135896049439907073974609375</LongitudeDegrees>
            </Position>
            <AltitudeMeters>482.79998779296875</AltitudeMeters>
            <DistanceMeters>20795.320921485</DistanceMeters>
          </Trackpoint>
          <Trackpoint>
            <Time>2023-01-11T12:29:09.000Z</Time>
            <Position>
              <LatitudeDegrees>-49.2347418330609798431396484375</LatitudeDegrees>
              <LongitudeDegrees>-72.97140472568571567535400390625</LongitudeDegrees>
            </Position>
            <AltitudeMeters>482.79998779296875</AltitudeMeters>
            <DistanceMeters>20799.968495353</DistanceMeters>
          </Trackpoint>
          <Trackpoint>
            <Time>2023-01-11T12:29:15.000Z</Time>
            <Position>
              <LatitudeDegrees>-49.2347319424152374267578125</LatitudeDegrees>
              <LongitudeDegrees>-72.97144814394414424896240234375</LongitudeDegrees>
            </Position>
            <AltitudeMeters>482.79998779296875</AltitudeMeters>
            <DistanceMeters>20803.310680949</DistanceMeters>
          </Trackpoint>
          <Trackpoint>
            <Time>2023-01-11T12:29:20.000Z</Time>
            <Position>
              <LatitudeDegrees>-49.23471291549503803253173828125</LatitudeDegrees>
              <LongitudeDegrees>-72.97149642370641231536865234375</LongitudeDegrees>
            </Position>
            <AltitudeMeters>482.79998779296875</AltitudeMeters>
            <DistanceMeters>20807.408966223</DistanceMeters>
          </Trackpoint>
          <Trackpoint>
            <Time>2023-01-11T12:29:21.000Z</Time>
            <Position>
              <LatitudeDegrees>-49.2347078025341033935546875</LatitudeDegrees>
              <LongitudeDegrees>-72.97150229103863239288330078125</LongitudeDegrees>
            </Position>
            <AltitudeMeters>482.79998779296875</AltitudeMeters>
            <DistanceMeters>20808.120081039</DistanceMeters>
          </Trackpoint>
          <Trackpoint>
            <Time>2023-01-11T12:29:29.000Z</Time>
            <Position>
              <LatitudeDegrees>-49.2346630431711673736572265625</LatitudeDegrees>
              <LongitudeDegrees>-72.97157001681625843048095703125</LongitudeDegrees>
            </Position>
            <AltitudeMeters>482.79998779296875</AltitudeMeters>
            <DistanceMeters>20815.122460284</DistanceMeters>
          </Trackpoint>
          <Trackpoint>
            <Time>2023-01-11T12:29:37.000Z</Time>
            <Position>
              <LatitudeDegrees>-49.2346301861107349395751953125</LatitudeDegrees>
              <LongitudeDegrees>-72.97167495824396610260009765625</LongitudeDegrees>
            </Position>
            <AltitudeMeters>482.79998779296875</AltitudeMeters>
            <DistanceMeters>20823.580371704</DistanceMeters>
          </Trackpoint>
          <Trackpoint>
            <Time>2023-01-11T12:29:39.000Z</Time>
            <Position>
              <LatitudeDegrees>-49.23461258411407470703125</LatitudeDegrees>
              <LongitudeDegrees>-72.97168803401291370391845703125</LongitudeDegrees>
            </Position>
            <AltitudeMeters>482.79998779296875</AltitudeMeters>
            <DistanceMeters>20825.757707262</DistanceMeters>
          </Trackpoint>
          <Trackpoint>
            <Time>2023-01-11T12:29:43.000Z</Time>
            <Position>
              <LatitudeDegrees>-49.23459288664162158966064453125</LatitudeDegrees>
              <LongitudeDegrees>-72.971728853881359100341796875</LongitudeDegrees>
            </Position>
            <AltitudeMeters>482.79998779296875</AltitudeMeters>
            <DistanceMeters>20829.445429476</DistanceMeters>
          </Trackpoint>
          <Trackpoint>
            <Time>2023-01-11T12:29:44.000Z</Time>
            <Position>
              <LatitudeDegrees>-49.2345929704606533050537109375</LatitudeDegrees>
              <LongitudeDegrees>-72.9717491380870342254638671875</LongitudeDegrees>
            </Position>
            <AltitudeMeters>482.79998779296875</AltitudeMeters>
            <DistanceMeters>20830.917577004</DistanceMeters>
          </Trackpoint>
          <Trackpoint>
            <Time>2023-01-11T12:29:48.000Z</Time>
            <Position>
              <LatitudeDegrees>-49.23455600626766681671142578125</LatitudeDegrees>
              <LongitudeDegrees>-72.97179750166833400726318359375</LongitudeDegrees>
            </Position>
            <AltitudeMeters>482.79998779296875</AltitudeMeters>
            <DistanceMeters>20836.329096006</DistanceMeters>
          </Trackpoint>
          <Trackpoint>
            <Time>2023-01-11T12:29:49.000Z</Time>
            <Position>
              <LatitudeDegrees>-49.23454795964062213897705078125</LatitudeDegrees>
              <LongitudeDegrees>-72.9718057997524738311767578125</LongitudeDegrees>
            </Position>
            <AltitudeMeters>482.79998779296875</AltitudeMeters>
            <DistanceMeters>20837.408392009</DistanceMeters>
          </Trackpoint>
          <Trackpoint>
            <Time>2023-01-11T12:29:58.000Z</Time>
            <Position>
              <LatitudeDegrees>-49.23445609398186206817626953125</LatitudeDegrees>
              <LongitudeDegrees>-72.971929013729095458984375</LongitudeDegrees>
            </Position>
            <AltitudeMeters>482.79998779296875</AltitudeMeters>
            <DistanceMeters>20851.000202186</DistanceMeters>
          </Trackpoint>
          <Trackpoint>
            <Time>2023-01-11T12:30:05.000Z</Time>
            <Position>
              <LatitudeDegrees>-49.23438769765198230743408203125</LatitudeDegrees>
              <LongitudeDegrees>-72.97202733345329761505126953125</LongitudeDegrees>
            </Position>
            <AltitudeMeters>482.79998779296875</AltitudeMeters>
            <DistanceMeters>20861.441039453</DistanceMeters>
          </Trackpoint>
          <Trackpoint>
            <Time>2023-01-11T12:30:15.000Z</Time>
            <Position>
              <LatitudeDegrees>-49.23435936681926250457763671875</LatitudeDegrees>
              <LongitudeDegrees>-72.97219455242156982421875</LongitudeDegrees>
            </Position>
            <AltitudeMeters>482.79998779296875</AltitudeMeters>
            <DistanceMeters>20873.996798074</DistanceMeters>
          </Trackpoint>
          <Trackpoint>
            <Time>2023-01-11T12:30:18.000Z</Time>
            <Position>
              <LatitudeDegrees>-49.23430857248604297637939453125</LatitudeDegrees>
              <LongitudeDegrees>-72.9722413234412670135498046875</LongitudeDegrees>
            </Position>
            <AltitudeMeters>482.79998779296875</AltitudeMeters>
            <DistanceMeters>20880.593459228</DistanceMeters>
          </Trackpoint>
          <Trackpoint>
            <Time>2023-01-11T12:30:20.000Z</Time>
            <Position>
              <LatitudeDegrees>-49.2342814989387989044189453125</LatitudeDegrees>
              <LongitudeDegrees>-72.972250543534755706787109375</LongitudeDegrees>
            </Position>
            <AltitudeMeters>482.79998779296875</AltitudeMeters>
            <DistanceMeters>20883.681461936</DistanceMeters>
          </Trackpoint>
          <Trackpoint>
            <Time>2023-01-11T12:30:23.000Z</Time>
            <Position>
              <LatitudeDegrees>-49.23425191082060337066650390625</LatitudeDegrees>
              <LongitudeDegrees>-72.9722627811133861541748046875</LongitudeDegrees>
            </Position>
            <AltitudeMeters>482.79998779296875</AltitudeMeters>
            <DistanceMeters>20887.093172436</DistanceMeters>
          </Trackpoint>
          <Trackpoint>
            <Time>2023-01-11T12:30:31.000Z</Time>
            <Position>
              <LatitudeDegrees>-49.2341970093548297882080078125</LatitudeDegrees>
              <LongitudeDegrees>-72.972379960119724273681640625</LongitudeDegrees>
            </Position>
            <AltitudeMeters>482.79998779296875</AltitudeMeters>
            <DistanceMeters>20897.574580262</DistanceMeters>
          </Trackpoint>
          <Trackpoint>
            <Time>2023-01-11T12:30:34.000Z</Time>
            <Position>
              <LatitudeDegrees>-49.2341829277575016021728515625</LatitudeDegrees>
              <LongitudeDegrees>-72.9724213667213916778564453125</LongitudeDegrees>
            </Position>
            <AltitudeMeters>482.79998779296875</AltitudeMeters>
            <DistanceMeters>20900.96771266</DistanceMeters>
          </Trackpoint>
          <Trackpoint>
            <Time>2023-01-11T12:30:38.000Z</Time>
            <Position>
              <LatitudeDegrees>-49.23416775651276111602783203125</LatitudeDegrees>
              <LongitudeDegrees>-72.97245598398149013519287109375</LongitudeDegrees>
            </Position>
            <AltitudeMeters>482.79998779296875</AltitudeMeters>
            <DistanceMeters>20903.998156149</DistanceMeters>
          </Trackpoint>
          <Trackpoint>
            <Time>2023-01-11T12:30:41.000Z</Time>
            <Position>
              <LatitudeDegrees>-49.23416264355182647705078125</LatitudeDegrees>
              <LongitudeDegrees>-72.9725011624395847320556640625</LongitudeDegrees>
            </Position>
            <AltitudeMeters>482.79998779296875</AltitudeMeters>
            <DistanceMeters>20907.330871863</DistanceMeters>
          </Trackpoint>
          <Trackpoint>
            <Time>2023-01-11T12:30:44.000Z</Time>
            <Position>
              <LatitudeDegrees>-49.234139509499073028564453125</LatitudeDegrees>
              <LongitudeDegrees>-72.97254793345928192138671875</LongitudeDegrees>
            </Position>
            <AltitudeMeters>482.79998779296875</AltitudeMeters>
            <DistanceMeters>20911.595443818</DistanceMeters>
          </Trackpoint>
          <Trackpoint>
            <Time>2023-01-11T12:30:45.000Z</Time>
            <Position>
              <LatitudeDegrees>-49.2341373302042484283447265625</LatitudeDegrees>
              <LongitudeDegrees>-72.972561009228229522705078125</LongitudeDegrees>
            </Position>
            <AltitudeMeters>482.79998779296875</AltitudeMeters>
            <DistanceMeters>20912.573803722</DistanceMeters>
          </Trackpoint>
          <Trackpoint>
            <Time>2023-01-11T12:30:46.000Z</Time>
            <Position>
              <LatitudeDegrees>-49.23413087613880634307861328125</LatitudeDegrees>
              <LongitudeDegrees>-72.97257685102522373199462890625</LongitudeDegrees>
            </Position>
            <AltitudeMeters>482.79998779296875</AltitudeMeters>
            <DistanceMeters>20913.924387093</DistanceMeters>
          </Trackpoint>
          <Trackpoint>
            <Time>2023-01-11T12:30:53.000Z</Time>
            <Position>
              <LatitudeDegrees>-49.2340592108666896820068359375</LatitudeDegrees>
              <LongitudeDegrees>-72.97266838140785694122314453125</LongitudeDegrees>
            </Position>
            <AltitudeMeters>482.79998779296875</AltitudeMeters>
            <DistanceMeters>20924.310593966</DistanceMeters>
          </Trackpoint>
          <Trackpoint>
            <Time>2023-01-11T12:30:56.000Z</Time>
            <Position>
              <LatitudeDegrees>-49.23403901048004627227783203125</LatitudeDegrees>
              <LongitudeDegrees>-72.9727107100188732147216796875</LongitudeDegrees>
            </Position>
            <AltitudeMeters>482.79998779296875</AltitudeMeters>
            <DistanceMeters>20928.121153363</DistanceMeters>
          </Trackpoint>
          <Trackpoint>
            <Time>2023-01-11T12:30:58.000Z</Time>
            <Position>
              <LatitudeDegrees>-49.23403498716652393341064453125</LatitudeDegrees>
              <LongitudeDegrees>-72.972734011709690093994140625</LongitudeDegrees>
            </Position>
            <AltitudeMeters>482.79998779296875</AltitudeMeters>
            <DistanceMeters>20929.870780728</DistanceMeters>
          </Trackpoint>
          <Trackpoint>
            <Time>2023-01-11T12:31:00.000Z</Time>
            <Position>
              <LatitudeDegrees>-49.2340166307985782623291015625</LatitudeDegrees>
              <LongitudeDegrees>-72.9727556370198726654052734375</LongitudeDegrees>
            </Position>
            <AltitudeMeters>482.79998779296875</AltitudeMeters>
            <DistanceMeters>20932.448790864</DistanceMeters>
          </Trackpoint>
          <Trackpoint>
            <Time>2023-01-11T12:31:09.000Z</Time>
            <Position>
              <LatitudeDegrees>-49.233928956091403961181640625</LatitudeDegrees>
              <LongitudeDegrees>-72.97286988236010074615478515625</LongitudeDegrees>
            </Position>
            <AltitudeMeters>482.79998779296875</AltitudeMeters>
            <DistanceMeters>20945.261197339</DistanceMeters>
          </Trackpoint>
          <Trackpoint>
            <Time>2023-01-11T12:31:11.000Z</Time>
            <Position>
              <LatitudeDegrees>-49.2339147068560123443603515625</LatitudeDegrees>
              <LongitudeDegrees>-72.97290324233472347259521484375</LongitudeDegrees>
            </Position>
            <AltitudeMeters>482.79998779296875</AltitudeMeters>
            <DistanceMeters>20948.159122647</DistanceMeters>
          </Trackpoint>
          <Trackpoint>
            <Time>2023-01-11T12:31:15.000Z</Time>
            <Position>
              <LatitudeDegrees>-49.233903475105762481689453125</LatitudeDegrees>
              <LongitudeDegrees>-72.9729603230953216552734375</LongitudeDegrees>
            </Position>
            <AltitudeMeters>482.79998779296875</AltitudeMeters>
            <DistanceMeters>20952.493007625</DistanceMeters>
          </Trackpoint>
          <Trackpoint>
            <Time>2023-01-11T12:31:21.000Z</Time>
            <Position>
              <LatitudeDegrees>-49.23383063636720180511474609375</LatitudeDegrees>
              <LongitudeDegrees>-72.973044477403163909912109375</LongitudeDegrees>
            </Position>
            <AltitudeMeters>482.79998779296875</AltitudeMeters>
            <DistanceMeters>20962.648869634</DistanceMeters>
          </Trackpoint>
          <Trackpoint>
            <Time>2023-01-11T12:31:23.000Z</Time>
            <Position>
              <LatitudeDegrees>-49.23381890170276165008544921875</LatitudeDegrees>
              <LongitudeDegrees>-72.9730707965791225433349609375</LongitudeDegrees>
            </Position>
            <AltitudeMeters>482.79998779296875</AltitudeMeters>
            <DistanceMeters>20964.964871665</DistanceMeters>
          </Trackpoint>
          <Trackpoint>
            <Time>2023-01-11T12:31:25.000Z</Time>
            <Position>
              <LatitudeDegrees>-49.2338003776967525482177734375</LatitudeDegrees>
              <LongitudeDegrees>-72.973106168210506439208984375</LongitudeDegrees>
            </Position>
            <AltitudeMeters>482.79998779296875</AltitudeMeters>
            <DistanceMeters>20968.259435655</DistanceMeters>
          </Trackpoint>
          <Trackpoint>
            <Time>2023-01-11T12:31:30.000Z</Time>
            <Position>
              <LatitudeDegrees>-49.23373240046203136444091796875</LatitudeDegrees>
              <LongitudeDegrees>-72.9731673561036586761474609375</LongitudeDegrees>
            </Position>
            <AltitudeMeters>482.79998779296875</AltitudeMeters>
            <DistanceMeters>20977.035912857</DistanceMeters>
          </Trackpoint>
          <Trackpoint>
            <Time>2023-01-11T12:31:31.000Z</Time>
            <Position>
              <LatitudeDegrees>-49.23371127806603908538818359375</LatitudeDegrees>
              <LongitudeDegrees>-72.97317766584455966949462890625</LongitudeDegrees>
            </Position>
            <AltitudeMeters>482.79998779296875</AltitudeMeters>
            <DistanceMeters>20979.504779317</DistanceMeters>
          </Trackpoint>
          <Trackpoint>
            <Time>2023-01-11T12:31:33.000Z</Time>
            <Position>
              <LatitudeDegrees>-49.233692921698093414306640625</LatitudeDegrees>
              <LongitudeDegrees>-72.97320918180048465728759765625</LongitudeDegrees>
            </Position>
            <AltitudeMeters>482.79998779296875</AltitudeMeters>
            <DistanceMeters>20982.572244012</DistanceMeters>
          </Trackpoint>
          <Trackpoint>
            <Time>2023-01-11T12:31:36.000Z</Time>
            <Position>
              <LatitudeDegrees>-49.233684875071048736572265625</LatitudeDegrees>
              <LongitudeDegrees>-72.97325930558145046234130859375</LongitudeDegrees>
            </Position>
            <AltitudeMeters>482.79998779296875</AltitudeMeters>
            <DistanceMeters>20986.323091796</DistanceMeters>
          </Trackpoint>
          <Trackpoint>
            <Time>2023-01-11T12:31:38.000Z</Time>
            <Position>
              <LatitudeDegrees>-49.233672805130481719970703125</LatitudeDegrees>
              <LongitudeDegrees>-72.97328059561550617218017578125</LongitudeDegrees>
            </Position>
            <AltitudeMeters>482.79998779296875</AltitudeMeters>
            <DistanceMeters>20988.370029868</DistanceMeters>
          </Trackpoint>
          <Trackpoint>
            <Time>2023-01-11T12:31:42.000Z</Time>
            <Position>
              <LatitudeDegrees>-49.233647324144840240478515625</LatitudeDegrees>
              <LongitudeDegrees>-72.973325438797473907470703125</LongitudeDegrees>
            </Position>
            <AltitudeMeters>482.79998779296875</AltitudeMeters>
            <DistanceMeters>20992.690350228</DistanceMeters>
          </Trackpoint>
          <Trackpoint>
            <Time>2023-01-11T12:31:48.000Z</Time>
            <Position>
              <LatitudeDegrees>-49.233626537024974822998046875</LatitudeDegrees>
              <LongitudeDegrees>-72.97337044961750507354736328125</LongitudeDegrees>
            </Position>
            <AltitudeMeters>482.79998779296875</AltitudeMeters>
            <DistanceMeters>20996.697278717</DistanceMeters>
          </Trackpoint>
          <Trackpoint>
            <Time>2023-01-11T12:31:55.000Z</Time>
            <Position>
              <LatitudeDegrees>-49.23362846486270427703857421875</LatitudeDegrees>
              <LongitudeDegrees>-72.97339509241282939910888671875</LongitudeDegrees>
            </Position>
            <AltitudeMeters>482.79998779296875</AltitudeMeters>
            <DistanceMeters>20998.500283853</DistanceMeters>
          </Trackpoint>
          <Trackpoint>
            <Time>2023-01-11T12:32:02.000Z</Time>
            <Position>
              <LatitudeDegrees>-49.23363014124333858489990234375</LatitudeDegrees>
              <LongitudeDegrees>-72.97343306243419647216796875</LongitudeDegrees>
            </Position>
            <AltitudeMeters>482.79998779296875</AltitudeMeters>
            <DistanceMeters>21001.265871448</DistanceMeters>
          </Trackpoint>
          <Trackpoint>
            <Time>2023-01-11T12:32:09.000Z</Time>
            <Position>
              <LatitudeDegrees>-49.23362628556787967681884765625</LatitudeDegrees>
              <LongitudeDegrees>-72.973436079919338226318359375</LongitudeDegrees>
            </Position>
            <AltitudeMeters>482.79998779296875</AltitudeMeters>
            <DistanceMeters>21001.750414519</DistanceMeters>
          </Trackpoint>
          <Trackpoint>
            <Time>2023-01-11T12:32:18.000Z</Time>
            <Position>
              <LatitudeDegrees>-49.2335881479084491729736328125</LatitudeDegrees>
              <LongitudeDegrees>-72.97353230416774749755859375</LongitudeDegrees>
            </Position>
            <AltitudeMeters>482.79998779296875</AltitudeMeters>
            <DistanceMeters>21009.931546874</DistanceMeters>
          </Trackpoint>
          <Trackpoint>
            <Time>2023-01-11T12:32:19.000Z</Time>
            <Position>
              <LatitudeDegrees>-49.23358169384300708770751953125</LatitudeDegrees>
              <LongitudeDegrees>-72.9735519178211688995361328125</LongitudeDegrees>
            </Position>
            <AltitudeMeters>482.79998779296875</AltitudeMeters>
            <DistanceMeters>21011.527316768</DistanceMeters>
          </Trackpoint>
          <Trackpoint>
            <Time>2023-01-11T12:32:21.000Z</Time>
            <Position>
              <LatitudeDegrees>-49.23358655534684658050537109375</LatitudeDegrees>
              <LongitudeDegrees>-72.973592989146709442138671875</LongitudeDegrees>
            </Position>
            <AltitudeMeters>482.79998779296875</AltitudeMeters>
            <DistanceMeters>21014.562226647</DistanceMeters>
          </Trackpoint>
          <Trackpoint>
            <Time>2023-01-11T12:32:25.000Z</Time>
            <Position>
              <LatitudeDegrees>-49.23358873464167118072509765625</LatitudeDegrees>
              <LongitudeDegrees>-72.97366901300847530364990234375</LongitudeDegrees>
            </Position>
            <AltitudeMeters>482.79998779296875</AltitudeMeters>
            <DistanceMeters>21020.093401838</DistanceMeters>
          </Trackpoint>
          <Trackpoint>
            <Time>2023-01-11T12:32:28.000Z</Time>
            <Position>
              <LatitudeDegrees>-49.233576916158199310302734375</LatitudeDegrees>
              <LongitudeDegrees>-72.97370354644954204559326171875</LongitudeDegrees>
            </Position>
            <AltitudeMeters>482.79998779296875</AltitudeMeters>
            <DistanceMeters>21022.925134149</DistanceMeters>
          </Trackpoint>
          <Trackpoint>
            <Time>2023-01-11T12:32:31.000Z</Time>
            <Position>
              <LatitudeDegrees>-49.23357046209275722503662109375</LatitudeDegrees>
              <LongitudeDegrees>-72.97373506240546703338623046875</LongitudeDegrees>
            </Position>
            <AltitudeMeters>482.79998779296875</AltitudeMeters>
            <DistanceMeters>21025.325381797</DistanceMeters>
          </Trackpoint>
          <Trackpoint>
            <Time>2023-01-11T12:32:36.000Z</Time>
            <Position>
              <LatitudeDegrees>-49.23355403356254100799560546875</LatitudeDegrees>
              <LongitudeDegrees>-72.9737698473036289215087890625</LongitudeDegrees>
            </Position>
            <AltitudeMeters>482.79998779296875</AltitudeMeters>
            <DistanceMeters>21028.445385388</DistanceMeters>
          </Trackpoint>
          <Trackpoint>
            <Time>2023-01-11T12:32:41.000Z</Time>
            <Position>
              <LatitudeDegrees>-49.2335298098623752593994140625</LatitudeDegrees>
              <LongitudeDegrees>-72.97381871379911899566650390625</LongitudeDegrees>
            </Position>
            <AltitudeMeters>482.79998779296875</AltitudeMeters>
            <DistanceMeters>21032.904558891</DistanceMeters>
          </Trackpoint>
          <Trackpoint>
            <Time>2023-01-11T12:32:42.000Z</Time>
            <Position>
              <LatitudeDegrees>-49.23352553509175777435302734375</LatitudeDegrees>
              <LongitudeDegrees>-72.9738271795213222503662109375</LongitudeDegrees>
            </Position>
            <AltitudeMeters>482.79998779296875</AltitudeMeters>
            <DistanceMeters>21033.682386071</DistanceMeters>
          </Trackpoint>
          <Trackpoint>
            <Time>2023-01-11T12:32:50.000Z</Time>
            <Position>
              <LatitudeDegrees>-49.2334704659879207611083984375</LatitudeDegrees>
              <LongitudeDegrees>-72.973904125392436981201171875</LongitudeDegrees>
            </Position>
            <AltitudeMeters>482.79998779296875</AltitudeMeters>
            <DistanceMeters>21041.979693032</DistanceMeters>
          </Trackpoint>
          <Trackpoint>
            <Time>2023-01-11T12:32:53.000Z</Time>
            <Position>
              <LatitudeDegrees>-49.23346485011279582977294921875</LatitudeDegrees>
              <LongitudeDegrees>-72.9739277623593807220458984375</LongitudeDegrees>
            </Position>
            <AltitudeMeters>482.79998779296875</AltitudeMeters>
            <DistanceMeters>21043.807568379</DistanceMeters>
          </Trackpoint>
          <Trackpoint>
            <Time>2023-01-11T12:32:56.000Z</Time>
            <Position>
              <LatitudeDegrees>-49.23346468247473239898681640625</LatitudeDegrees>
              <LongitudeDegrees>-72.97396690584719181060791015625</LongitudeDegrees>
            </Position>
            <AltitudeMeters>482.79998779296875</AltitudeMeters>
            <DistanceMeters>21046.652027641</DistanceMeters>
          </Trackpoint>
          <Trackpoint>
            <Time>2023-01-11T12:32:58.000Z</Time>
            <Position>
              <LatitudeDegrees>-49.23346065916121006011962890625</LatitudeDegrees>
              <LongitudeDegrees>-72.9739991761744022369384765625</LongitudeDegrees>
            </Position>
            <AltitudeMeters>486.600006103515625</AltitudeMeters>
            <DistanceMeters>21049.040962197</DistanceMeters>
          </Trackpoint>
          <Trackpoint>
            <Time>2023-01-11T12:33:05.000Z</Time>
            <Position>
              <LatitudeDegrees>-49.233409278094768524169921875</LatitudeDegrees>
              <LongitudeDegrees>-72.97409833408892154693603515625</LongitudeDegrees>
            </Position>
            <AltitudeMeters>486.79998779296875</AltitudeMeters>
            <DistanceMeters>21058.240902768</DistanceMeters>
          </Trackpoint>
          <Trackpoint>
            <Time>2023-01-11T12:33:07.000Z</Time>
            <Position>
              <LatitudeDegrees>-49.233394525945186614990234375</LatitudeDegrees>
              <LongitudeDegrees>-72.97415046952664852142333984375</LongitudeDegrees>
            </Position>
            <AltitudeMeters>486.79998779296875</AltitudeMeters>
            <DistanceMeters>21062.369920124</DistanceMeters>
          </Trackpoint>
          <Trackpoint>
            <Time>2023-01-11T12:33:13.000Z</Time>
            <Position>
              <LatitudeDegrees>-49.23334934748709201812744140625</LatitudeDegrees>
              <LongitudeDegrees>-72.9742382280528545379638671875</LongitudeDegrees>
            </Position>
            <AltitudeMeters>486.600006103515625</AltitudeMeters>
            <DistanceMeters>21070.491230261</DistanceMeters>
          </Trackpoint>
          <Trackpoint>
            <Time>2023-01-11T12:33:22.000Z</Time>
            <Position>
              <LatitudeDegrees>-49.23324130475521087646484375</LatitudeDegrees>
              <LongitudeDegrees>-72.9742858372628688812255859375</LongitudeDegrees>
            </Position>
            <AltitudeMeters>486.399993896484375</AltitudeMeters>
            <DistanceMeters>21083.004484256</DistanceMeters>
          </Trackpoint>
          <Trackpoint>
            <Time>2023-01-11T12:33:24.000Z</Time>
            <Position>
              <LatitudeDegrees>-49.23321238718926906585693359375</LatitudeDegrees>
              <LongitudeDegrees>-72.97427351586520671844482421875</LongitudeDegrees>
            </Position>
            <AltitudeMeters>486.399993896484375</AltitudeMeters>
            <DistanceMeters>21086.345318656</DistanceMeters>
          </Trackpoint>
          <Trackpoint>
            <Time>2023-01-11T12:33:28.000Z</Time>
            <Position>
              <LatitudeDegrees>-49.2331827990710735321044921875</LatitudeDegrees>
              <LongitudeDegrees>-72.97432296909391880035400390625</LongitudeDegrees>
            </Position>
            <AltitudeMeters>486.20001220703125</AltitudeMeters>
            <DistanceMeters>21091.218623597</DistanceMeters>
          </Trackpoint>
          <Trackpoint>
            <Time>2023-01-11T12:33:38.000Z</Time>
            <Position>
              <LatitudeDegrees>-49.233097136020660400390625</LatitudeDegrees>
              <LongitudeDegrees>-72.9743887670338153839111328125</LongitudeDegrees>
            </Position>
            <AltitudeMeters>485.79998779296875</AltitudeMeters>
            <DistanceMeters>21101.884499231</DistanceMeters>
          </Trackpoint>
          <Trackpoint>
            <Time>2023-01-11T12:33:40.000Z</Time>
            <Position>
              <LatitudeDegrees>-49.2330781929194927215576171875</LatitudeDegrees>
              <LongitudeDegrees>-72.97441299073398113250732421875</LongitudeDegrees>
            </Position>
            <AltitudeMeters>485.79998779296875</AltitudeMeters>
            <DistanceMeters>21104.632069777</DistanceMeters>
          </Trackpoint>
          <Trackpoint>
            <Time>2023-01-11T12:33:45.000Z</Time>
            <Position>
              <LatitudeDegrees>-49.23304391093552112579345703125</LatitudeDegrees>
              <LongitudeDegrees>-72.97446479089558124542236328125</LongitudeDegrees>
            </Position>
            <AltitudeMeters>486</AltitudeMeters>
            <DistanceMeters>21109.992452529</DistanceMeters>
          </Trackpoint>
          <Trackpoint>
            <Time>2023-01-11T12:33:46.000Z</Time>
            <Position>
              <LatitudeDegrees>-49.2330312542617321014404296875</LatitudeDegrees>
              <LongitudeDegrees>-72.97446780838072299957275390625</LongitudeDegrees>
            </Position>
            <AltitudeMeters>486.20001220703125</AltitudeMeters>
            <DistanceMeters>21111.42101729</DistanceMeters>
          </Trackpoint>
          <Trackpoint>
            <Time>2023-01-11T12:33:47.000Z</Time>
            <Position>
              <LatitudeDegrees>-49.23302429728209972381591796875</LatitudeDegrees>
              <LongitudeDegrees>-72.9744786210358142852783203125</LongitudeDegrees>
            </Position>
            <AltitudeMeters>486.20001220703125</AltitudeMeters>
            <DistanceMeters>21112.521031037</DistanceMeters>
          </Trackpoint>
          <Trackpoint>
            <Time>2023-01-11T12:33:49.000Z</Time>
            <Position>
              <LatitudeDegrees>-49.2330195195972919464111328125</LatitudeDegrees>
              <LongitudeDegrees>-72.974512986838817596435546875</LongitudeDegrees>
            </Position>
            <AltitudeMeters>486.399993896484375</AltitudeMeters>
            <DistanceMeters>21115.072635457</DistanceMeters>
          </Trackpoint>
          <Trackpoint>
            <Time>2023-01-11T12:33:50.000Z</Time>
            <Position>
              <LatitudeDegrees>-49.23301859758794307708740234375</LatitudeDegrees>
              <LongitudeDegrees>-72.97453201375901699066162109375</LongitudeDegrees>
            </Position>
            <AltitudeMeters>486.399993896484375</AltitudeMeters>
            <DistanceMeters>21116.456245303</DistanceMeters>
          </Trackpoint>
          <Trackpoint>
            <Time>2023-01-11T12:33:51.000Z</Time>
            <Position>
              <LatitudeDegrees>-49.233025722205638885498046875</LatitudeDegrees>
              <LongitudeDegrees>-72.97455280087888240814208984375</LongitudeDegrees>
            </Position>
            <AltitudeMeters>486.399993896484375</AltitudeMeters>
            <DistanceMeters>21118.161438727</DistanceMeters>
          </Trackpoint>
          <Trackpoint>
            <Time>2023-01-11T12:33:52.000Z</Time>
            <Position>
              <LatitudeDegrees>-49.233025722205638885498046875</LatitudeDegrees>
              <LongitudeDegrees>-72.97456386499106884002685546875</LongitudeDegrees>
            </Position>
            <AltitudeMeters>486.399993896484375</AltitudeMeters>
            <DistanceMeters>21118.967767137</DistanceMeters>
          </Trackpoint>
          <Trackpoint>
            <Time>2023-01-11T12:33:58.000Z</Time>
            <Position>
              <LatitudeDegrees>-49.23304089345037937164306640625</LatitudeDegrees>
              <LongitudeDegrees>-72.9746554791927337646484375</LongitudeDegrees>
            </Position>
            <AltitudeMeters>486.600006103515625</AltitudeMeters>
            <DistanceMeters>21125.837350785</DistanceMeters>
          </Trackpoint>
          <Trackpoint>
            <Time>2023-01-11T12:34:04.000Z</Time>
            <Position>
              <LatitudeDegrees>-49.23306486569344997406005859375</LatitudeDegrees>
              <LongitudeDegrees>-72.97473468817770481109619140625</LongitudeDegrees>
            </Position>
            <AltitudeMeters>487</AltitudeMeters>
            <DistanceMeters>21132.18211877</DistanceMeters>
          </Trackpoint>
          <Trackpoint>
            <Time>2023-01-11T12:34:05.000Z</Time>
            <Position>
              <LatitudeDegrees>-49.2330684699118137359619140625</LatitudeDegrees>
              <LongitudeDegrees>-72.97475011087954044342041015625</LongitudeDegrees>
            </Position>
            <AltitudeMeters>487.20001220703125</AltitudeMeters>
            <DistanceMeters>21133.372800088</DistanceMeters>
          </Trackpoint>
          <Trackpoint>
            <Time>2023-01-11T12:34:12.000Z</Time>
            <Position>
              <LatitudeDegrees>-49.2331011593341827392578125</LatitudeDegrees>
              <LongitudeDegrees>-72.9748360253870487213134765625</LongitudeDegrees>
            </Position>
            <AltitudeMeters>487.600006103515625</AltitudeMeters>
            <DistanceMeters>21140.599205286</DistanceMeters>
          </Trackpoint>
          <Trackpoint>
            <Time>2023-01-11T12:34:14.000Z</Time>
            <Position>
              <LatitudeDegrees>-49.23311884514987468719482421875</LatitudeDegrees>
              <LongitudeDegrees>-72.97486938536167144775390625</LongitudeDegrees>
            </Position>
            <AltitudeMeters>487.600006103515625</AltitudeMeters>
            <DistanceMeters>21143.722101787</DistanceMeters>
          </Trackpoint>
          <Trackpoint>
            <Time>2023-01-11T12:34:21.000Z</Time>
            <Position>
              <LatitudeDegrees>-49.2331455834209918975830078125</LatitudeDegrees>
              <LongitudeDegrees>-72.975002825260162353515625</LongitudeDegrees>
            </Position>
            <AltitudeMeters>488.20001220703125</AltitudeMeters>
            <DistanceMeters>21153.867288395</DistanceMeters>
          </Trackpoint>
          <Trackpoint>
            <Time>2023-01-11T12:34:22.000Z</Time>
            <Position>
              <LatitudeDegrees>-49.23314985819160938262939453125</LatitudeDegrees>
              <LongitudeDegrees>-72.97502688132226467132568359375</LongitudeDegrees>
            </Position>
            <AltitudeMeters>488.20001220703125</AltitudeMeters>
            <DistanceMeters>21155.680282555</DistanceMeters>
          </Trackpoint>
          <Trackpoint>
            <Time>2023-01-11T12:34:24.000Z</Time>
            <Position>
              <LatitudeDegrees>-49.23314700834453105926513671875</LatitudeDegrees>
              <LongitudeDegrees>-72.9750623367726802825927734375</LongitudeDegrees>
            </Position>
            <AltitudeMeters>488.20001220703125</AltitudeMeters>
            <DistanceMeters>21158.277486264</DistanceMeters>
          </Trackpoint>
          <Trackpoint>
            <Time>2023-01-11T12:34:26.000Z</Time>
            <Position>
              <LatitudeDegrees>-49.23314080573618412017822265625</LatitudeDegrees>
              <LongitudeDegrees>-72.97508538700640201568603515625</LongitudeDegrees>
            </Position>
            <AltitudeMeters>488.600006103515625</AltitudeMeters>
            <DistanceMeters>21160.090480424</DistanceMeters>
          </Trackpoint>
          <Trackpoint>
            <Time>2023-01-11T12:34:27.000Z</Time>
            <Position>
              <LatitudeDegrees>-49.2331341840326786041259765625</LatitudeDegrees>
              <LongitudeDegrees>-72.97510231845080852508544921875</LongitudeDegrees>
            </Position>
            <AltitudeMeters>488.600006103515625</AltitudeMeters>
            <DistanceMeters>21161.525352345</DistanceMeters>
          </Trackpoint>
          <Trackpoint>
            <Time>2023-01-11T12:34:33.000Z</Time>
            <Position>
              <LatitudeDegrees>-49.233140051364898681640625</LatitudeDegrees>
              <LongitudeDegrees>-72.975200973451137542724609375</LongitudeDegrees>
            </Position>
            <AltitudeMeters>489</AltitudeMeters>
            <DistanceMeters>21168.725468238</DistanceMeters>
          </Trackpoint>
          <Trackpoint>
            <Time>2023-01-11T12:34:38.000Z</Time>
            <Position>
              <LatitudeDegrees>-49.2331539653241634368896484375</LatitudeDegrees>
              <LongitudeDegrees>-72.97528370283544063568115234375</LongitudeDegrees>
            </Position>
            <AltitudeMeters>489.20001220703125</AltitudeMeters>
            <DistanceMeters>21174.93501141</DistanceMeters>
          </Trackpoint>
          <Trackpoint>
            <Time>2023-01-11T12:34:40.000Z</Time>
            <Position>
              <LatitudeDegrees>-49.233152456581592559814453125</LatitudeDegrees>
              <LongitudeDegrees>-72.97531387768685817718505859375</LongitudeDegrees>
            </Position>
            <AltitudeMeters>489.20001220703125</AltitudeMeters>
            <DistanceMeters>21177.135038904</DistanceMeters>
          </Trackpoint>
          <Trackpoint>
            <Time>2023-01-11T12:34:41.000Z</Time>
            <Position>
              <LatitudeDegrees>-49.2331467568874359130859375</LatitudeDegrees>
              <LongitudeDegrees>-72.975323684513568878173828125</LongitudeDegrees>
            </Position>
            <AltitudeMeters>489.399993896484375</AltitudeMeters>
            <DistanceMeters>21178.090045564</DistanceMeters>
          </Trackpoint>
          <Trackpoint>
            <Time>2023-01-11T12:34:46.000Z</Time>
            <Position>
              <LatitudeDegrees>-49.23312353901565074920654296875</LatitudeDegrees>
              <LongitudeDegrees>-72.97539467923343181610107421875</LongitudeDegrees>
            </Position>
            <AltitudeMeters>489.600006103515625</AltitudeMeters>
            <DistanceMeters>21183.86091395</DistanceMeters>
          </Trackpoint>
          <Trackpoint>
            <Time>2023-01-11T12:34:52.000Z</Time>
            <Position>
              <LatitudeDegrees>-49.2330926097929477691650390625</LatitudeDegrees>
              <LongitudeDegrees>-72.97550297342240810394287109375</LongitudeDegrees>
            </Position>
            <AltitudeMeters>490</AltitudeMeters>
            <DistanceMeters>21192.451770414</DistanceMeters>
          </Trackpoint>
          <Trackpoint>
            <Time>2023-01-11T12:34:55.000Z</Time>
            <Position>
              <LatitudeDegrees>-49.2330798693001270294189453125</LatitudeDegrees>
              <LongitudeDegrees>-72.9755618982017040252685546875</LongitudeDegrees>
            </Position>
            <AltitudeMeters>490</AltitudeMeters>
            <DistanceMeters>21196.963288152</DistanceMeters>
          </Trackpoint>
          <Trackpoint>
            <Time>2023-01-11T12:34:58.000Z</Time>
            <Position>
              <LatitudeDegrees>-49.23305916599929332733154296875</LatitudeDegrees>
              <LongitudeDegrees>-72.9756017960608005523681640625</LongitudeDegrees>
            </Position>
            <AltitudeMeters>490</AltitudeMeters>
            <DistanceMeters>21200.668111521</DistanceMeters>
          </Trackpoint>
          <Trackpoint>
            <Time>2023-01-11T12:35:03.000Z</Time>
            <Position>
              <LatitudeDegrees>-49.23302999697625637054443359375</LatitudeDegrees>
              <LongitudeDegrees>-72.97568921931087970733642578125</LongitudeDegrees>
            </Position>
            <AltitudeMeters>489.79998779296875</AltitudeMeters>
            <DistanceMeters>21207.803345995</DistanceMeters>
          </Trackpoint>
          <Trackpoint>
            <Time>2023-01-11T12:35:04.000Z</Time>
            <Position>
              <LatitudeDegrees>-49.23302630893886089324951171875</LatitudeDegrees>
              <LongitudeDegrees>-72.97570564784109592437744140625</LongitudeDegrees>
            </Position>
            <AltitudeMeters>489.79998779296875</AltitudeMeters>
            <DistanceMeters>21209.064017821</DistanceMeters>
          </Trackpoint>
          <Trackpoint>
            <Time>2023-01-11T12:35:11.000Z</Time>
            <Position>
              <LatitudeDegrees>-49.23303485848009586334228515625</LatitudeDegrees>
              <LongitudeDegrees>-72.975821234285831451416015625</LongitudeDegrees>
            </Position>
            <AltitudeMeters>489.399993896484375</AltitudeMeters>
            <DistanceMeters>21217.518725689</DistanceMeters>
          </Trackpoint>
          <Trackpoint>
            <Time>2023-01-11T12:35:12.000Z</Time>
            <Position>
              <LatitudeDegrees>-49.2330413125455379486083984375</LatitudeDegrees>
              <LongitudeDegrees>-72.97583137638866901397705078125</LongitudeDegrees>
            </Position>
            <AltitudeMeters>489.399993896484375</AltitudeMeters>
            <DistanceMeters>21218.542194725</DistanceMeters>
          </Trackpoint>
          <Trackpoint>
            <Time>2023-01-11T12:35:20.000Z</Time>
            <Position>
              <LatitudeDegrees>-49.2331023328006267547607421875</LatitudeDegrees>
              <LongitudeDegrees>-72.9759159497916698455810546875</LongitudeDegrees>
            </Position>
            <AltitudeMeters>489.79998779296875</AltitudeMeters>
            <DistanceMeters>21227.702296816</DistanceMeters>
          </Trackpoint>
          <Trackpoint>
            <Time>2023-01-11T12:35:26.000Z</Time>
            <Position>
              <LatitudeDegrees>-49.23313158564269542694091796875</LatitudeDegrees>
              <LongitudeDegrees>-72.9760296083986759185791015625</LongitudeDegrees>
            </Position>
            <AltitudeMeters>489.79998779296875</AltitudeMeters>
            <DistanceMeters>21236.582084398</DistanceMeters>
          </Trackpoint>
          <Trackpoint>
            <Time>2023-01-11T12:35:27.000Z</Time>
            <Position>
              <LatitudeDegrees>-49.2331194318830966949462890625</LatitudeDegrees>
              <LongitudeDegrees>-72.97605098225176334381103515625</LongitudeDegrees>
            </Position>
            <AltitudeMeters>489.79998779296875</AltitudeMeters>
            <DistanceMeters>21238.646593076</DistanceMeters>
          </Trackpoint>
          <Trackpoint>
            <Time>2023-01-11T12:35:32.000Z</Time>
            <Position>
              <LatitudeDegrees>-49.23306151293218135833740234375</LatitudeDegrees>
              <LongitudeDegrees>-72.976134717464447021484375</LongitudeDegrees>
            </Position>
            <AltitudeMeters>489.399993896484375</AltitudeMeters>
            <DistanceMeters>21247.51213228</DistanceMeters>
          </Trackpoint>
          <Trackpoint>
            <Time>2023-01-11T12:35:38.000Z</Time>
            <Position>
              <LatitudeDegrees>-49.2329965531826019287109375</LatitudeDegrees>
              <LongitudeDegrees>-72.97618408687412738800048828125</LongitudeDegrees>
            </Position>
            <AltitudeMeters>489.20001220703125</AltitudeMeters>
            <DistanceMeters>21255.583811259</DistanceMeters>
          </Trackpoint>
          <Trackpoint>
            <Time>2023-01-11T12:35:40.000Z</Time>
            <Position>
              <LatitudeDegrees>-49.23298791982233524322509765625</LatitudeDegrees>
              <LongitudeDegrees>-72.9762233980000019073486328125</LongitudeDegrees>
            </Position>
            <AltitudeMeters>489</AltitudeMeters>
            <DistanceMeters>21258.597821362</DistanceMeters>
          </Trackpoint>
          <Trackpoint>
            <Time>2023-01-11T12:35:48.000Z</Time>
            <Position>
              <LatitudeDegrees>-49.23292807303369045257568359375</LatitudeDegrees>
              <LongitudeDegrees>-72.9763648845255374908447265625</LongitudeDegrees>
            </Position>
            <AltitudeMeters>488.79998779296875</AltitudeMeters>
            <DistanceMeters>21270.850004466</DistanceMeters>
          </Trackpoint>
          <Trackpoint>
            <Time>2023-01-11T12:35:49.000Z</Time>
            <Position>
              <LatitudeDegrees>-49.23291030339896678924560546875</LatitudeDegrees>
              <LongitudeDegrees>-72.9763793013989925384521484375</LongitudeDegrees>
            </Position>
            <AltitudeMeters>488.600006103515625</AltitudeMeters>
            <DistanceMeters>21273.086667684</DistanceMeters>
          </Trackpoint>
          <Trackpoint>
            <Time>2023-01-11T12:35:54.000Z</Time>
            <Position>
              <LatitudeDegrees>-49.232868142426013946533203125</LatitudeDegrees>
              <LongitudeDegrees>-72.97644174657762050628662109375</LongitudeDegrees>
            </Position>
            <AltitudeMeters>488.600006103515625</AltitudeMeters>
            <DistanceMeters>21279.615217355</DistanceMeters>
          </Trackpoint>
          <Trackpoint>
            <Time>2023-01-11T12:35:55.000Z</Time>
            <Position>
              <LatitudeDegrees>-49.2328570783138275146484375</LatitudeDegrees>
              <LongitudeDegrees>-72.97645448707044124603271484375</LongitudeDegrees>
            </Position>
            <AltitudeMeters>488.600006103515625</AltitudeMeters>
            <DistanceMeters>21281.1533591</DistanceMeters>
          </Trackpoint>
          <Trackpoint>
            <Time>2023-01-11T12:36:00.000Z</Time>
            <Position>
              <LatitudeDegrees>-49.23282899893820285797119140625</LatitudeDegrees>
              <LongitudeDegrees>-72.97653813846409320831298828125</LongitudeDegrees>
            </Position>
            <AltitudeMeters>488.600006103515625</AltitudeMeters>
            <DistanceMeters>21287.990001235</DistanceMeters>
          </Trackpoint>
          <Trackpoint>
            <Time>2023-01-11T12:36:07.000Z</Time>
            <Position>
              <LatitudeDegrees>-49.2328280769288539886474609375</LatitudeDegrees>
              <LongitudeDegrees>-72.97664391808211803436279296875</LongitudeDegrees>
            </Position>
            <AltitudeMeters>488.600006103515625</AltitudeMeters>
            <DistanceMeters>21295.678361294</DistanceMeters>
          </Trackpoint>
          <Trackpoint>
            <Time>2023-01-11T12:36:08.000Z</Time>
            <Position>
              <LatitudeDegrees>-49.232830591499805450439453125</LatitudeDegrees>
              <LongitudeDegrees>-72.97666101716458797454833984375</LongitudeDegrees>
            </Position>
            <AltitudeMeters>488.600006103515625</AltitudeMeters>
            <DistanceMeters>21296.949732083</DistanceMeters>
          </Trackpoint>
          <Trackpoint>
            <Time>2023-01-11T12:36:15.000Z</Time>
            <Position>
              <LatitudeDegrees>-49.23281625844538211822509765625</LatitudeDegrees>
              <LongitudeDegrees>-72.9767685569822788238525390625</LongitudeDegrees>
            </Position>
            <AltitudeMeters>488.79998779296875</AltitudeMeters>
            <DistanceMeters>21304.926883749</DistanceMeters>
          </Trackpoint>
          <Trackpoint>
            <Time>2023-01-11T12:36:22.000Z</Time>
            <Position>
              <LatitudeDegrees>-49.2327616922557353973388671875</LatitudeDegrees>
              <LongitudeDegrees>-72.97685229219496250152587890625</LongitudeDegrees>
            </Position>
            <AltitudeMeters>488.79998779296875</AltitudeMeters>
            <DistanceMeters>21313.525620047</DistanceMeters>
          </Trackpoint>
          <Trackpoint>
            <Time>2023-01-11T12:36:23.000Z</Time>
            <Position>
              <LatitudeDegrees>-49.232725985348224639892578125</LatitudeDegrees>
              <LongitudeDegrees>-72.9768486879765987396240234375</LongitudeDegrees>
            </Position>
            <AltitudeMeters>489</AltitudeMeters>
            <DistanceMeters>21317.508815286</DistanceMeters>
          </Trackpoint>
          <Trackpoint>
            <Time>2023-01-11T12:36:25.000Z</Time>
            <Position>
              <LatitudeDegrees>-49.23270427621901035308837890625</LatitudeDegrees>
              <LongitudeDegrees>-72.97687643207609653472900390625</LongitudeDegrees>
            </Position>
            <AltitudeMeters>489</AltitudeMeters>
            <DistanceMeters>21320.654759307</DistanceMeters>
          </Trackpoint>
          <Trackpoint>
            <Time>2023-01-11T12:36:29.000Z</Time>
            <Position>
              <LatitudeDegrees>-49.232716597616672515869140625</LatitudeDegrees>
              <LongitudeDegrees>-72.97694952227175235748291015625</LongitudeDegrees>
            </Position>
            <AltitudeMeters>489</AltitudeMeters>
            <DistanceMeters>21326.140031836</DistanceMeters>
          </Trackpoint>
          <Trackpoint>
            <Time>2023-01-11T12:36:33.000Z</Time>
            <Position>
              <LatitudeDegrees>-49.23273009248077869415283203125</LatitudeDegrees>
              <LongitudeDegrees>-72.9769968800246715545654296875</LongitudeDegrees>
            </Position>
            <AltitudeMeters>489</AltitudeMeters>
            <DistanceMeters>21329.895691485</DistanceMeters>
          </Trackpoint>
          <Trackpoint>
            <Time>2023-01-11T12:36:34.000Z</Time>
            <Position>
              <LatitudeDegrees>-49.2327288351953029632568359375</LatitudeDegrees>
              <LongitudeDegrees>-72.9770099557936191558837890625</LongitudeDegrees>
            </Position>
            <AltitudeMeters>489.20001220703125</AltitudeMeters>
            <DistanceMeters>21330.855414256</DistanceMeters>
          </Trackpoint>
          <Trackpoint>
            <Time>2023-01-11T12:36:35.000Z</Time>
            <Position>
              <LatitudeDegrees>-49.23272573389112949371337890625</LatitudeDegrees>
              <LongitudeDegrees>-72.9770213551819324493408203125</LongitudeDegrees>
            </Position>
            <AltitudeMeters>489.20001220703125</AltitudeMeters>
            <DistanceMeters>21331.751894487</DistanceMeters>
          </Trackpoint>
          <Trackpoint>
            <Time>2023-01-11T12:36:41.000Z</Time>
            <Position>
              <LatitudeDegrees>-49.2327229678630828857421875</LatitudeDegrees>
              <LongitudeDegrees>-72.97707818448543548583984375</LongitudeDegrees>
            </Position>
            <AltitudeMeters>489.399993896484375</AltitudeMeters>
            <DistanceMeters>21335.892922761</DistanceMeters>
          </Trackpoint>
          <Trackpoint>
            <Time>2023-01-11T12:36:43.000Z</Time>
            <Position>
              <LatitudeDegrees>-49.2326906137168407440185546875</LatitudeDegrees>
              <LongitudeDegrees>-72.97712738625705242156982421875</LongitudeDegrees>
            </Position>
            <AltitudeMeters>489.399993896484375</AltitudeMeters>
            <DistanceMeters>21340.966851016</DistanceMeters>
          </Trackpoint>
          <Trackpoint>
            <Time>2023-01-11T12:36:45.000Z</Time>
            <Position>
              <LatitudeDegrees>-49.2326852492988109588623046875</LatitudeDegrees>
              <LongitudeDegrees>-72.9771899990737438201904296875</LongitudeDegrees>
            </Position>
            <AltitudeMeters>489.399993896484375</AltitudeMeters>
            <DistanceMeters>21345.555765732</DistanceMeters>
          </Trackpoint>
          <Trackpoint>
            <Time>2023-01-11T12:36:48.000Z</Time>
            <Position>
              <LatitudeDegrees>-49.232651889324188232421875</LatitudeDegrees>
              <LongitudeDegrees>-72.9772436432540416717529296875</LongitudeDegrees>
            </Position>
            <AltitudeMeters>489.399993896484375</AltitudeMeters>
            <DistanceMeters>21350.939681165</DistanceMeters>
          </Trackpoint>
          <Trackpoint>
            <Time>2023-01-11T12:36:51.000Z</Time>
            <Position>
              <LatitudeDegrees>-49.23265230841934680938720703125</LatitudeDegrees>
              <LongitudeDegrees>-72.97730994410812854766845703125</LongitudeDegrees>
            </Position>
            <AltitudeMeters>489.399993896484375</AltitudeMeters>
            <DistanceMeters>21355.758950468</DistanceMeters>
          </Trackpoint>
          <Trackpoint>
            <Time>2023-01-11T12:36:55.000Z</Time>
            <Position>
              <LatitudeDegrees>-49.2326644621789455413818359375</LatitudeDegrees>
              <LongitudeDegrees>-72.97739510424435138702392578125</LongitudeDegrees>
            </Position>
            <AltitudeMeters>489.399993896484375</AltitudeMeters>
            <DistanceMeters>21362.093747995</DistanceMeters>
          </Trackpoint>
          <Trackpoint>
            <Time>2023-01-11T12:37:04.000Z</Time>
            <Position>
              <LatitudeDegrees>-49.2326668091118335723876953125</LatitudeDegrees>
              <LongitudeDegrees>-72.9775254428386688232421875</LongitudeDegrees>
            </Position>
            <AltitudeMeters>489.600006103515625</AltitudeMeters>
            <DistanceMeters>21371.569774597</DistanceMeters>
          </Trackpoint>
          <Trackpoint>
            <Time>2023-01-11T12:37:05.000Z</Time>
            <Position>
              <LatitudeDegrees>-49.23266387544572353363037109375</LatitudeDegrees>
              <LongitudeDegrees>-72.97753952443599700927734375</LongitudeDegrees>
            </Position>
            <AltitudeMeters>489.600006103515625</AltitudeMeters>
            <DistanceMeters>21372.640671281</DistanceMeters>
          </Trackpoint>
          <Trackpoint>
            <Time>2023-01-11T12:37:07.000Z</Time>
            <Position>
              <LatitudeDegrees>-49.232657253742218017578125</LatitudeDegrees>
              <LongitudeDegrees>-72.9775725491344928741455078125</LongitudeDegrees>
            </Position>
            <AltitudeMeters>489.79998779296875</AltitudeMeters>
            <DistanceMeters>21375.151247581</DistanceMeters>
          </Trackpoint>
          <Trackpoint>
            <Time>2023-01-11T12:37:09.000Z</Time>
            <Position>
              <LatitudeDegrees>-49.232667647302150726318359375</LatitudeDegrees>
              <LongitudeDegrees>-72.97760264016687870025634765625</LongitudeDegrees>
            </Position>
            <AltitudeMeters>489.79998779296875</AltitudeMeters>
            <DistanceMeters>21377.625594329</DistanceMeters>
          </Trackpoint>
          <Trackpoint>
            <Time>2023-01-11T12:37:13.000Z</Time>
            <Position>
              <LatitudeDegrees>-49.23267175443470478057861328125</LatitudeDegrees>
              <LongitudeDegrees>-72.977689392864704132080078125</LongitudeDegrees>
            </Position>
            <AltitudeMeters>490</AltitudeMeters>
            <DistanceMeters>21383.946835368</DistanceMeters>
          </Trackpoint>
          <Trackpoint>
            <Time>2023-01-11T12:37:18.000Z</Time>
            <Position>
              <LatitudeDegrees>-49.2326839081943035125732421875</LatitudeDegrees>
              <LongitudeDegrees>-72.97775535844266414642333984375</LongitudeDegrees>
            </Position>
            <AltitudeMeters>490</AltitudeMeters>
            <DistanceMeters>21388.928265892</DistanceMeters>
          </Trackpoint>
          <Trackpoint>
            <Time>2023-01-11T12:37:20.000Z</Time>
            <Position>
              <LatitudeDegrees>-49.2326882667839527130126953125</LatitudeDegrees>
              <LongitudeDegrees>-72.97779458574950695037841796875</LongitudeDegrees>
            </Position>
            <AltitudeMeters>490.20001220703125</AltitudeMeters>
            <DistanceMeters>21391.819952387</DistanceMeters>
          </Trackpoint>
          <Trackpoint>
            <Time>2023-01-11T12:37:26.000Z</Time>
            <Position>
              <LatitudeDegrees>-49.23269555903971195220947265625</LatitudeDegrees>
              <LongitudeDegrees>-72.977874465286731719970703125</LongitudeDegrees>
            </Position>
            <AltitudeMeters>490.20001220703125</AltitudeMeters>
            <DistanceMeters>21397.682415261</DistanceMeters>
          </Trackpoint>
          <Trackpoint>
            <Time>2023-01-11T12:37:27.000Z</Time>
            <Position>
              <LatitudeDegrees>-49.23269086517393589019775390625</LatitudeDegrees>
              <LongitudeDegrees>-72.97788913361728191375732421875</LongitudeDegrees>
            </Position>
            <AltitudeMeters>490.20001220703125</AltitudeMeters>
            <DistanceMeters>21398.869298543</DistanceMeters>
          </Trackpoint>
          <Trackpoint>
            <Time>2023-01-11T12:37:31.000Z</Time>
            <Position>
              <LatitudeDegrees>-49.2326612770557403564453125</LatitudeDegrees>
              <LongitudeDegrees>-72.977948896586894989013671875</LongitudeDegrees>
            </Position>
            <AltitudeMeters>490.20001220703125</AltitudeMeters>
            <DistanceMeters>21404.319890392</DistanceMeters>
          </Trackpoint>
          <Trackpoint>
            <Time>2023-01-11T12:37:33.000Z</Time>
            <Position>
              <LatitudeDegrees>-49.23265297897160053253173828125</LatitudeDegrees>
              <LongitudeDegrees>-72.97798418439924716949462890625</LongitudeDegrees>
            </Position>
            <AltitudeMeters>490.20001220703125</AltitudeMeters>
            <DistanceMeters>21407.044357833</DistanceMeters>
          </Trackpoint>
          <Trackpoint>
            <Time>2023-01-11T12:37:35.000Z</Time>
            <Position>
              <LatitudeDegrees>-49.2326450161635875701904296875</LatitudeDegrees>
              <LongitudeDegrees>-72.97801561653614044189453125</LongitudeDegrees>
            </Position>
            <AltitudeMeters>490.20001220703125</AltitudeMeters>
            <DistanceMeters>21409.496709951</DistanceMeters>
          </Trackpoint>
          <Trackpoint>
            <Time>2023-01-11T12:37:36.000Z</Time>
            <Position>
              <LatitudeDegrees>-49.23263923265039920806884765625</LatitudeDegrees>
              <LongitudeDegrees>-72.97802626155316829681396484375</LongitudeDegrees>
            </Position>
            <AltitudeMeters>490.20001220703125</AltitudeMeters>
            <DistanceMeters>21410.502378167</DistanceMeters>
          </Trackpoint>
          <Trackpoint>
            <Time>2023-01-11T12:37:39.000Z</Time>
            <Position>
              <LatitudeDegrees>-49.2326295934617519378662109375</LatitudeDegrees>
              <LongitudeDegrees>-72.9780563525855541229248046875</LongitudeDegrees>
            </Position>
            <AltitudeMeters>490.399993896484375</AltitudeMeters>
            <DistanceMeters>21412.939956945</DistanceMeters>
          </Trackpoint>
          <Trackpoint>
            <Time>2023-01-11T12:37:41.000Z</Time>
            <Position>
              <LatitudeDegrees>-49.2326208762824535369873046875</LatitudeDegrees>
              <LongitudeDegrees>-72.97808962874114513397216796875</LongitudeDegrees>
            </Position>
            <AltitudeMeters>490.399993896484375</AltitudeMeters>
            <DistanceMeters>21415.545838272</DistanceMeters>
          </Trackpoint>
          <Trackpoint>
            <Time>2023-01-11T12:37:49.000Z</Time>
            <Position>
              <LatitudeDegrees>-49.232621379196643829345703125</LatitudeDegrees>
              <LongitudeDegrees>-72.97820647247135639190673828125</LongitudeDegrees>
            </Position>
            <AltitudeMeters>490.399993896484375</AltitudeMeters>
            <DistanceMeters>21424.037845719</DistanceMeters>
          </Trackpoint>
          <Trackpoint>
            <Time>2023-01-11T12:37:55.000Z</Time>
            <Position>
              <LatitudeDegrees>-49.23264090903103351593017578125</LatitudeDegrees>
              <LongitudeDegrees>-72.978202365338802337646484375</LongitudeDegrees>
            </Position>
            <AltitudeMeters>490.600006103515625</AltitudeMeters>
            <DistanceMeters>21426.233764848</DistanceMeters>
          </Trackpoint>
          <Trackpoint>
            <Time>2023-01-11T12:37:57.000Z</Time>
            <Position>
              <LatitudeDegrees>-49.2326631210744380950927734375</LatitudeDegrees>
              <LongitudeDegrees>-72.97823748551309108734130859375</LongitudeDegrees>
            </Position>
            <AltitudeMeters>490.600006103515625</AltitudeMeters>
            <DistanceMeters>21429.788068851</DistanceMeters>
          </Trackpoint>
          <Trackpoint>
            <Time>2023-01-11T12:37:59.000Z</Time>
            <Position>
              <LatitudeDegrees>-49.23266873694956302642822265625</LatitudeDegrees>
              <LongitudeDegrees>-72.97826112248003482818603515625</LongitudeDegrees>
            </Position>
            <AltitudeMeters>490.600006103515625</AltitudeMeters>
            <DistanceMeters>21431.615944198</DistanceMeters>
          </Trackpoint>
          <Trackpoint>
            <Time>2023-01-11T12:38:03.000Z</Time>
            <Position>
              <LatitudeDegrees>-49.23266991041600704193115234375</LatitudeDegrees>
              <LongitudeDegrees>-72.97828651964664459228515625</LongitudeDegrees>
            </Position>
            <AltitudeMeters>490.79998779296875</AltitudeMeters>
            <DistanceMeters>21433.463474683</DistanceMeters>
          </Trackpoint>
          <Trackpoint>
            <Time>2023-01-11T12:38:10.000Z</Time>
            <Position>
              <LatitudeDegrees>-49.2326416634023189544677734375</LatitudeDegrees>
              <LongitudeDegrees>-72.97831862233579158782958984375</LongitudeDegrees>
            </Position>
            <AltitudeMeters>490.79998779296875</AltitudeMeters>
            <DistanceMeters>21437.379221075</DistanceMeters>
          </Trackpoint>
          <Trackpoint>
            <Time>2023-01-11T12:38:17.000Z</Time>
            <Position>
              <LatitudeDegrees>-49.2326450161635875701904296875</LatitudeDegrees>
              <LongitudeDegrees>-72.978361286222934722900390625</LongitudeDegrees>
            </Position>
            <AltitudeMeters>491</AltitudeMeters>
            <DistanceMeters>21440.502117576</DistanceMeters>
          </Trackpoint>
          <Trackpoint>
            <Time>2023-01-11T12:38:25.000Z</Time>
            <Position>
              <LatitudeDegrees>-49.23265281133353710174560546875</LatitudeDegrees>
              <LongitudeDegrees>-72.97845407389104366302490234375</LongitudeDegrees>
            </Position>
            <AltitudeMeters>491.399993896484375</AltitudeMeters>
            <DistanceMeters>21447.301675753</DistanceMeters>
          </Trackpoint>
          <Trackpoint>
            <Time>2023-01-11T12:38:31.000Z</Time>
            <Position>
              <LatitudeDegrees>-49.23267133533954620361328125</LatitudeDegrees>
              <LongitudeDegrees>-72.97856387682259082794189453125</LongitudeDegrees>
            </Position>
            <AltitudeMeters>491.600006103515625</AltitudeMeters>
            <DistanceMeters>21455.543291796</DistanceMeters>
          </Trackpoint>
          <Trackpoint>
            <Time>2023-01-11T12:38:37.000Z</Time>
            <Position>
              <LatitudeDegrees>-49.23268181271851062774658203125</LatitudeDegrees>
              <LongitudeDegrees>-72.97865708358585834503173828125</LongitudeDegrees>
            </Position>
            <AltitudeMeters>491.600006103515625</AltitudeMeters>
            <DistanceMeters>21462.418131439</DistanceMeters>
          </Trackpoint>
          <Trackpoint>
            <Time>2023-01-11T12:38:39.000Z</Time>
            <Position>
              <LatitudeDegrees>-49.232679717242717742919921875</LatitudeDegrees>
              <LongitudeDegrees>-72.97868549823760986328125</LongitudeDegrees>
            </Position>
            <AltitudeMeters>491.79998779296875</AltitudeMeters>
            <DistanceMeters>21464.50006244</DistanceMeters>
          </Trackpoint>
          <Trackpoint>
            <Time>2023-01-11T12:38:42.000Z</Time>
            <Position>
              <LatitudeDegrees>-49.2326748557388782501220703125</LatitudeDegrees>
              <LongitudeDegrees>-72.9787292517721652984619140625</LongitudeDegrees>
            </Position>
            <AltitudeMeters>491.79998779296875</AltitudeMeters>
            <DistanceMeters>21467.725376078</DistanceMeters>
          </Trackpoint>
          <Trackpoint>
            <Time>2023-01-11T12:38:44.000Z</Time>
            <Position>
              <LatitudeDegrees>-49.2326694913208484649658203125</LatitudeDegrees>
              <LongitudeDegrees>-72.97875112853944301605224609375</LongitudeDegrees>
            </Position>
            <AltitudeMeters>492</AltitudeMeters>
            <DistanceMeters>21469.422607466</DistanceMeters>
          </Trackpoint>
          <Trackpoint>
            <Time>2023-01-11T12:38:52.000Z</Time>
            <Position>
              <LatitudeDegrees>-49.23264862038195133209228515625</LatitudeDegrees>
              <LongitudeDegrees>-72.97886051237583160400390625</LongitudeDegrees>
            </Position>
            <AltitudeMeters>492</AltitudeMeters>
            <DistanceMeters>21477.704664014</DistanceMeters>
          </Trackpoint>
          <Trackpoint>
            <Time>2023-01-11T12:38:57.000Z</Time>
            <Position>
              <LatitudeDegrees>-49.23264543525874614715576171875</LatitudeDegrees>
              <LongitudeDegrees>-72.97892153263092041015625</LongitudeDegrees>
            </Position>
            <AltitudeMeters>492.20001220703125</AltitudeMeters>
            <DistanceMeters>21482.153700715</DistanceMeters>
          </Trackpoint>
          <Trackpoint>
            <Time>2023-01-11T12:39:00.000Z</Time>
            <Position>
              <LatitudeDegrees>-49.2326359637081623077392578125</LatitudeDegrees>
              <LongitudeDegrees>-72.97894902527332305908203125</LongitudeDegrees>
            </Position>
            <AltitudeMeters>492.399993896484375</AltitudeMeters>
            <DistanceMeters>21484.41245993</DistanceMeters>
          </Trackpoint>
          <Trackpoint>
            <Time>2023-01-11T12:39:04.000Z</Time>
            <Position>
              <LatitudeDegrees>-49.23263118602335453033447265625</LatitudeDegrees>
              <LongitudeDegrees>-72.97900157980620861053466796875</LongitudeDegrees>
            </Position>
            <AltitudeMeters>492.399993896484375</AltitudeMeters>
            <DistanceMeters>21488.268952625</DistanceMeters>
          </Trackpoint>
          <Trackpoint>
            <Time>2023-01-11T12:39:10.000Z</Time>
            <Position>
              <LatitudeDegrees>-49.2326362989842891693115234375</LatitudeDegrees>
              <LongitudeDegrees>-72.9791339300572872161865234375</LongitudeDegrees>
            </Position>
            <AltitudeMeters>492.600006103515625</AltitudeMeters>
            <DistanceMeters>21497.904680205</DistanceMeters>
          </Trackpoint>
          <Trackpoint>
            <Time>2023-01-11T12:39:15.000Z</Time>
            <Position>
              <LatitudeDegrees>-49.232617355883121490478515625</LatitudeDegrees>
              <LongitudeDegrees>-72.97921590507030487060546875</LongitudeDegrees>
            </Position>
            <AltitudeMeters>492.79998779296875</AltitudeMeters>
            <DistanceMeters>21504.225206938</DistanceMeters>
          </Trackpoint>
          <Trackpoint>
            <Time>2023-01-11T12:39:17.000Z</Time>
            <Position>
              <LatitudeDegrees>-49.232616685330867767333984375</LatitudeDegrees>
              <LongitudeDegrees>-72.97925521619617938995361328125</LongitudeDegrees>
            </Position>
            <AltitudeMeters>492.79998779296875</AltitudeMeters>
            <DistanceMeters>21507.08233646</DistanceMeters>
          </Trackpoint>
          <Trackpoint>
            <Time>2023-01-11T12:39:25.000Z</Time>
            <Position>
              <LatitudeDegrees>-49.2325995862483978271484375</LatitudeDegrees>
              <LongitudeDegrees>-72.9794112034142017364501953125</LongitudeDegrees>
            </Position>
            <AltitudeMeters>493</AltitudeMeters>
            <DistanceMeters>21518.577819864</DistanceMeters>
          </Trackpoint>
          <Trackpoint>
            <Time>2023-01-11T12:39:34.000Z</Time>
            <Position>
              <LatitudeDegrees>-49.23258441500365734100341796875</LatitudeDegrees>
              <LongitudeDegrees>-72.9795692861080169677734375</LongitudeDegrees>
            </Position>
            <AltitudeMeters>492.79998779296875</AltitudeMeters>
            <DistanceMeters>21530.190535378</DistanceMeters>
          </Trackpoint>
          <Trackpoint>
            <Time>2023-01-11T12:39:39.000Z</Time>
            <Position>
              <LatitudeDegrees>-49.23259355127811431884765625</LatitudeDegrees>
              <LongitudeDegrees>-72.97964815981686115264892578125</LongitudeDegrees>
            </Position>
            <AltitudeMeters>493</AltitudeMeters>
            <DistanceMeters>21536.012812164</DistanceMeters>
          </Trackpoint>
          <Trackpoint>
            <Time>2023-01-11T12:39:42.000Z</Time>
            <Position>
              <LatitudeDegrees>-49.232609309256076812744140625</LatitudeDegrees>
              <LongitudeDegrees>-72.97971722669899463653564453125</LongitudeDegrees>
            </Position>
            <AltitudeMeters>493</AltitudeMeters>
            <DistanceMeters>21541.330913274</DistanceMeters>
          </Trackpoint>
          <Trackpoint>
            <Time>2023-01-11T12:39:48.000Z</Time>
            <Position>
              <LatitudeDegrees>-49.2325608618557453155517578125</LatitudeDegrees>
              <LongitudeDegrees>-72.979800291359424591064453125</LongitudeDegrees>
            </Position>
            <AltitudeMeters>493.20001220703125</AltitudeMeters>
            <DistanceMeters>21549.425493849</DistanceMeters>
          </Trackpoint>
          <Trackpoint>
            <Time>2023-01-11T12:39:49.000Z</Time>
            <Position>
              <LatitudeDegrees>-49.23255591653287410736083984375</LatitudeDegrees>
              <LongitudeDegrees>-72.97981244511902332305908203125</LongitudeDegrees>
            </Position>
            <AltitudeMeters>493.20001220703125</AltitudeMeters>
            <DistanceMeters>21550.466459349</DistanceMeters>
          </Trackpoint>
          <Trackpoint>
            <Time>2023-01-11T12:39:51.000Z</Time>
            <Position>
              <LatitudeDegrees>-49.23255734145641326904296875</LatitudeDegrees>
              <LongitudeDegrees>-72.979846894741058349609375</LongitudeDegrees>
            </Position>
            <AltitudeMeters>493.20001220703125</AltitudeMeters>
            <DistanceMeters>21552.973436255</DistanceMeters>
          </Trackpoint>
          <Trackpoint>
            <Time>2023-01-11T12:39:53.000Z</Time>
            <Position>
              <LatitudeDegrees>-49.2325501330196857452392578125</LatitudeDegrees>
              <LongitudeDegrees>-72.97986458055675029754638671875</LongitudeDegrees>
            </Position>
            <AltitudeMeters>493.20001220703125</AltitudeMeters>
            <DistanceMeters>21554.484928676</DistanceMeters>
          </Trackpoint>
          <Trackpoint>
            <Time>2023-01-11T12:39:54.000Z</Time>
            <Position>
              <LatitudeDegrees>-49.23254384659230709075927734375</LatitudeDegrees>
              <LongitudeDegrees>-72.97988243401050567626953125</LongitudeDegrees>
            </Position>
            <AltitudeMeters>493.20001220703125</AltitudeMeters>
            <DistanceMeters>21555.957076205</DistanceMeters>
          </Trackpoint>
          <Trackpoint>
            <Time>2023-01-11T12:39:56.000Z</Time>
            <Position>
              <LatitudeDegrees>-49.2325337044894695281982421875</LatitudeDegrees>
              <LongitudeDegrees>-72.97992895357310771942138671875</LongitudeDegrees>
            </Position>
            <AltitudeMeters>493.20001220703125</AltitudeMeters>
            <DistanceMeters>21559.522794595</DistanceMeters>
          </Trackpoint>
          <Trackpoint>
            <Time>2023-01-11T12:39:58.000Z</Time>
            <Position>
              <LatitudeDegrees>-49.2325447686016559600830078125</LatitudeDegrees>
              <LongitudeDegrees>-72.9799704439938068389892578125</LongitudeDegrees>
            </Position>
            <AltitudeMeters>493.20001220703125</AltitudeMeters>
            <DistanceMeters>21562.781532065</DistanceMeters>
          </Trackpoint>
          <Trackpoint>
            <Time>2023-01-11T12:40:01.000Z</Time>
            <Position>
              <LatitudeDegrees>-49.23255407251417636871337890625</LatitudeDegrees>
              <LongitudeDegrees>-72.980023920536041259765625</LongitudeDegrees>
            </Position>
            <AltitudeMeters>493.20001220703125</AltitudeMeters>
            <DistanceMeters>21566.804204931</DistanceMeters>
          </Trackpoint>
          <Trackpoint>
            <Time>2023-01-11T12:40:02.000Z</Time>
            <Position>
              <LatitudeDegrees>-49.2325581796467304229736328125</LatitudeDegrees>
              <LongitudeDegrees>-72.9800386726856231689453125</LongitudeDegrees>
            </Position>
            <AltitudeMeters>493.20001220703125</AltitudeMeters>
            <DistanceMeters>21567.971912746</DistanceMeters>
          </Trackpoint>
          <Trackpoint>
            <Time>2023-01-11T12:40:05.000Z</Time>
            <Position>
              <LatitudeDegrees>-49.23257268033921718597412109375</LatitudeDegrees>
              <LongitudeDegrees>-72.98007630743086338043212890625</LongitudeDegrees>
            </Position>
            <AltitudeMeters>493.20001220703125</AltitudeMeters>
            <DistanceMeters>21571.147852826</DistanceMeters>
          </Trackpoint>
          <Trackpoint>
            <Time>2023-01-11T12:40:08.000Z</Time>
            <Position>
              <LatitudeDegrees>-49.23255407251417636871337890625</LatitudeDegrees>
              <LongitudeDegrees>-72.9800720326602458953857421875</LongitudeDegrees>
            </Position>
            <AltitudeMeters>493.20001220703125</AltitudeMeters>
            <DistanceMeters>21573.240599126</DistanceMeters>
          </Trackpoint>
          <Trackpoint>
            <Time>2023-01-11T12:40:18.000Z</Time>
            <Position>
              <LatitudeDegrees>-49.23255507834255695343017578125</LatitudeDegrees>
              <LongitudeDegrees>-72.98011486418545246124267578125</LongitudeDegrees>
            </Position>
            <AltitudeMeters>493</AltitudeMeters>
            <DistanceMeters>21576.354808833</DistanceMeters>
          </Trackpoint>
          <Trackpoint>
            <Time>2023-01-11T12:40:21.000Z</Time>
            <Position>
              <LatitudeDegrees>-49.23255507834255695343017578125</LatitudeDegrees>
              <LongitudeDegrees>-72.98011486418545246124267578125</LongitudeDegrees>
            </Position>
            <AltitudeMeters>493.20001220703125</AltitudeMeters>
            <DistanceMeters>21576.354808833</DistanceMeters>
          </Trackpoint>
          <Trackpoint>
            <Time>2023-01-11T12:40:23.000Z</Time>
            <Position>
              <LatitudeDegrees>-49.23255507834255695343017578125</LatitudeDegrees>
              <LongitudeDegrees>-72.98011486418545246124267578125</LongitudeDegrees>
            </Position>
            <AltitudeMeters>493.20001220703125</AltitudeMeters>
            <DistanceMeters>21576.354808833</DistanceMeters>
          </Trackpoint>
          <Trackpoint>
            <Time>2023-01-11T12:40:41.000Z</Time>
            <Position>
              <LatitudeDegrees>-49.2325347103178501129150390625</LatitudeDegrees>
              <LongitudeDegrees>-72.9801900498569011688232421875</LongitudeDegrees>
            </Position>
            <AltitudeMeters>493.399993896484375</AltitudeMeters>
            <DistanceMeters>21582.270937322</DistanceMeters>
          </Trackpoint>
          <Trackpoint>
            <Time>2023-01-11T12:40:49.000Z</Time>
            <Position>
              <LatitudeDegrees>-49.23251308500766754150390625</LatitudeDegrees>
              <LongitudeDegrees>-72.980363555252552032470703125</LongitudeDegrees>
            </Position>
            <AltitudeMeters>493.79998779296875</AltitudeMeters>
            <DistanceMeters>21595.109042916</DistanceMeters>
          </Trackpoint>
          <Trackpoint>
            <Time>2023-01-11T12:40:50.000Z</Time>
            <Position>
              <LatitudeDegrees>-49.2325152643024921417236328125</LatitudeDegrees>
              <LongitudeDegrees>-72.9803801514208316802978515625</LongitudeDegrees>
            </Position>
            <AltitudeMeters>493.79998779296875</AltitudeMeters>
            <DistanceMeters>21596.3370587</DistanceMeters>
          </Trackpoint>
          <Trackpoint>
            <Time>2023-01-11T12:40:55.000Z</Time>
            <Position>
              <LatitudeDegrees>-49.23251417465507984161376953125</LatitudeDegrees>
              <LongitudeDegrees>-72.98047679476439952850341796875</LongitudeDegrees>
            </Position>
            <AltitudeMeters>493.79998779296875</AltitudeMeters>
            <DistanceMeters>21603.361969217</DistanceMeters>
          </Trackpoint>
          <Trackpoint>
            <Time>2023-01-11T12:41:03.000Z</Time>
            <Position>
              <LatitudeDegrees>-49.232479222118854522705078125</LatitudeDegrees>
              <LongitudeDegrees>-72.98063303343951702117919921875</LongitudeDegrees>
            </Position>
            <AltitudeMeters>493.600006103515625</AltitudeMeters>
            <DistanceMeters>21615.36546453</DistanceMeters>
          </Trackpoint>
          <Trackpoint>
            <Time>2023-01-11T12:41:06.000Z</Time>
            <Position>
              <LatitudeDegrees>-49.23248215578496456146240234375</LatitudeDegrees>
              <LongitudeDegrees>-72.98069489188492298126220703125</LongitudeDegrees>
            </Position>
            <AltitudeMeters>493.399993896484375</AltitudeMeters>
            <DistanceMeters>21619.87297737</DistanceMeters>
          </Trackpoint>
          <Trackpoint>
            <Time>2023-01-11T12:41:16.000Z</Time>
            <Position>
              <LatitudeDegrees>-49.232475869357585906982421875</LatitudeDegrees>
              <LongitudeDegrees>-72.98086320050060749053955078125</LongitudeDegrees>
            </Position>
            <AltitudeMeters>493.399993896484375</AltitudeMeters>
            <DistanceMeters>21632.125160474</DistanceMeters>
          </Trackpoint>
          <Trackpoint>
            <Time>2023-01-11T12:41:26.000Z</Time>
            <Position>
              <LatitudeDegrees>-49.23242993652820587158203125</LatitudeDegrees>
              <LongitudeDegrees>-72.98108783550560474395751953125</LongitudeDegrees>
            </Position>
            <AltitudeMeters>493.399993896484375</AltitudeMeters>
            <DistanceMeters>21649.233136324</DistanceMeters>
          </Trackpoint>
          <Trackpoint>
            <Time>2023-01-11T12:41:27.000Z</Time>
            <Position>
              <LatitudeDegrees>-49.23243991099298000335693359375</LatitudeDegrees>
              <LongitudeDegrees>-72.98111817799508571624755859375</LongitudeDegrees>
            </Position>
            <AltitudeMeters>493.399993896484375</AltitudeMeters>
            <DistanceMeters>21651.703830898</DistanceMeters>
          </Trackpoint>
          <Trackpoint>
            <Time>2023-01-11T12:41:29.000Z</Time>
            <Position>
              <LatitudeDegrees>-49.23244334757328033447265625</LatitudeDegrees>
              <LongitudeDegrees>-72.98115556128323078155517578125</LongitudeDegrees>
            </Position>
            <AltitudeMeters>493.399993896484375</AltitudeMeters>
            <DistanceMeters>21654.448112908</DistanceMeters>
          </Trackpoint>
          <Trackpoint>
            <Time>2023-01-11T12:41:32.000Z</Time>
            <Position>
              <LatitudeDegrees>-49.23244292847812175750732421875</LatitudeDegrees>
              <LongitudeDegrees>-72.98119939863681793212890625</LongitudeDegrees>
            </Position>
            <AltitudeMeters>493.399993896484375</AltitudeMeters>
            <DistanceMeters>21657.633988914</DistanceMeters>
          </Trackpoint>
          <Trackpoint>
            <Time>2023-01-11T12:41:33.000Z</Time>
            <Position>
              <LatitudeDegrees>-49.2324413359165191650390625</LatitudeDegrees>
              <LongitudeDegrees>-72.98121188767254352569580078125</LongitudeDegrees>
            </Position>
            <AltitudeMeters>493.399993896484375</AltitudeMeters>
            <DistanceMeters>21658.555307092</DistanceMeters>
          </Trackpoint>
          <Trackpoint>
            <Time>2023-01-11T12:41:39.000Z</Time>
            <Position>
              <LatitudeDegrees>-49.23244477249681949615478515625</LatitudeDegrees>
              <LongitudeDegrees>-72.9812900908291339874267578125</LongitudeDegrees>
            </Position>
            <AltitudeMeters>493.399993896484375</AltitudeMeters>
            <DistanceMeters>21664.251364032</DistanceMeters>
          </Trackpoint>
          <Trackpoint>
            <Time>2023-01-11T12:41:48.000Z</Time>
            <Position>
              <LatitudeDegrees>-49.23248047940433025360107421875</LatitudeDegrees>
              <LongitudeDegrees>-72.98143954016268253326416015625</LongitudeDegrees>
            </Position>
            <AltitudeMeters>493.399993896484375</AltitudeMeters>
            <DistanceMeters>21675.817329294</DistanceMeters>
          </Trackpoint>
          <Trackpoint>
            <Time>2023-01-11T12:41:54.000Z</Time>
            <Position>
              <LatitudeDegrees>-49.232459105551242828369140625</LatitudeDegrees>
              <LongitudeDegrees>-72.9815107025206089019775390625</LongitudeDegrees>
            </Position>
            <AltitudeMeters>493.399993896484375</AltitudeMeters>
            <DistanceMeters>21681.51021471</DistanceMeters>
          </Trackpoint>
          <Trackpoint>
            <Time>2023-01-11T12:42:00.000Z</Time>
            <Position>
              <LatitudeDegrees>-49.23247125931084156036376953125</LatitudeDegrees>
              <LongitudeDegrees>-72.98162779770791530609130859375</LongitudeDegrees>
            </Position>
            <AltitudeMeters>493.399993896484375</AltitudeMeters>
            <DistanceMeters>21690.127309267</DistanceMeters>
          </Trackpoint>
          <Trackpoint>
            <Time>2023-01-11T12:42:06.000Z</Time>
            <Position>
              <LatitudeDegrees>-49.2324627935886383056640625</LatitudeDegrees>
              <LongitudeDegrees>-72.9817353375256061553955078125</LongitudeDegrees>
            </Position>
            <AltitudeMeters>493.399993896484375</AltitudeMeters>
            <DistanceMeters>21698.0002023</DistanceMeters>
          </Trackpoint>
          <Trackpoint>
            <Time>2023-01-11T12:42:07.000Z</Time>
            <Position>
              <LatitudeDegrees>-49.232451058924198150634765625</LatitudeDegrees>
              <LongitudeDegrees>-72.981744892895221710205078125</LongitudeDegrees>
            </Position>
            <AltitudeMeters>496</AltitudeMeters>
            <DistanceMeters>21699.478471051</DistanceMeters>
          </Trackpoint>
          <Trackpoint>
            <Time>2023-01-11T12:42:10.000Z</Time>
            <Position>
              <LatitudeDegrees>-49.232427589595317840576171875</LatitudeDegrees>
              <LongitudeDegrees>-72.981785796582698822021484375</LongitudeDegrees>
            </Position>
            <AltitudeMeters>496</AltitudeMeters>
            <DistanceMeters>21703.435509407</DistanceMeters>
          </Trackpoint>
          <Trackpoint>
            <Time>2023-01-11T12:42:17.000Z</Time>
            <Position>
              <LatitudeDegrees>-49.23234812915325164794921875</LatitudeDegrees>
              <LongitudeDegrees>-72.98184757120907306671142578125</LongitudeDegrees>
            </Position>
            <AltitudeMeters>495.79998779296875</AltitudeMeters>
            <DistanceMeters>21713.353858704</DistanceMeters>
          </Trackpoint>
          <Trackpoint>
            <Time>2023-01-11T12:42:24.000Z</Time>
            <Position>
              <LatitudeDegrees>-49.232340417802333831787109375</LatitudeDegrees>
              <LongitudeDegrees>-72.98193725757300853729248046875</LongitudeDegrees>
            </Position>
            <AltitudeMeters>496</AltitudeMeters>
            <DistanceMeters>21719.929267894</DistanceMeters>
          </Trackpoint>
          <Trackpoint>
            <Time>2023-01-11T12:42:31.000Z</Time>
            <Position>
              <LatitudeDegrees>-49.23231854103505611419677734375</LatitudeDegrees>
              <LongitudeDegrees>-72.982006408274173736572265625</LongitudeDegrees>
            </Position>
            <AltitudeMeters>496</AltitudeMeters>
            <DistanceMeters>21725.514058314</DistanceMeters>
          </Trackpoint>
          <Trackpoint>
            <Time>2023-01-11T12:42:34.000Z</Time>
            <Position>
              <LatitudeDegrees>-49.232296161353588104248046875</LatitudeDegrees>
              <LongitudeDegrees>-72.982037924230098724365234375</LongitudeDegrees>
            </Position>
            <AltitudeMeters>495.79998779296875</AltitudeMeters>
            <DistanceMeters>21728.897863411</DistanceMeters>
          </Trackpoint>
          <Trackpoint>
            <Time>2023-01-11T12:42:38.000Z</Time>
            <Position>
              <LatitudeDegrees>-49.23227177001535892486572265625</LatitudeDegrees>
              <LongitudeDegrees>-72.982064746320247650146484375</LongitudeDegrees>
            </Position>
            <AltitudeMeters>495.79998779296875</AltitudeMeters>
            <DistanceMeters>21732.240049007</DistanceMeters>
          </Trackpoint>
          <Trackpoint>
            <Time>2023-01-11T12:42:39.000Z</Time>
            <Position>
              <LatitudeDegrees>-49.2322604544460773468017578125</LatitudeDegrees>
              <LongitudeDegrees>-72.9820699431002140045166015625</LongitudeDegrees>
            </Position>
            <AltitudeMeters>495.79998779296875</AltitudeMeters>
            <DistanceMeters>21733.556777786</DistanceMeters>
          </Trackpoint>
          <Trackpoint>
            <Time>2023-01-11T12:42:48.000Z</Time>
            <Position>
              <LatitudeDegrees>-49.23220865428447723388671875</LatitudeDegrees>
              <LongitudeDegrees>-72.9821638204157352447509765625</LongitudeDegrees>
            </Position>
            <AltitudeMeters>496.20001220703125</AltitudeMeters>
            <DistanceMeters>21742.489288937</DistanceMeters>
          </Trackpoint>
          <Trackpoint>
            <Time>2023-01-11T12:42:55.000Z</Time>
            <Position>
              <LatitudeDegrees>-49.23219314776360988616943359375</LatitudeDegrees>
              <LongitudeDegrees>-72.982271946966648101806640625</LongitudeDegrees>
            </Position>
            <AltitudeMeters>496</AltitudeMeters>
            <DistanceMeters>21750.534634669</DistanceMeters>
          </Trackpoint>
          <Trackpoint>
            <Time>2023-01-11T12:42:57.000Z</Time>
            <Position>
              <LatitudeDegrees>-49.232184849679470062255859375</LatitudeDegrees>
              <LongitudeDegrees>-72.98230580985546112060546875</LongitudeDegrees>
            </Position>
            <AltitudeMeters>496.20001220703125</AltitudeMeters>
            <DistanceMeters>21753.161225311</DistanceMeters>
          </Trackpoint>
          <Trackpoint>
            <Time>2023-01-11T12:43:02.000Z</Time>
            <Position>
              <LatitudeDegrees>-49.2321570217609405517578125</LatitudeDegrees>
              <LongitudeDegrees>-72.9823612980544567108154296875</LongitudeDegrees>
            </Position>
            <AltitudeMeters>496.399993896484375</AltitudeMeters>
            <DistanceMeters>21758.245820562</DistanceMeters>
          </Trackpoint>
          <Trackpoint>
            <Time>2023-01-11T12:43:11.000Z</Time>
            <Position>
              <LatitudeDegrees>-49.23211880028247833251953125</LatitudeDegrees>
              <LongitudeDegrees>-72.98248074017465114593505859375</LongitudeDegrees>
            </Position>
            <AltitudeMeters>496.79998779296875</AltitudeMeters>
            <DistanceMeters>21767.913358573</DistanceMeters>
          </Trackpoint>
          <Trackpoint>
            <Time>2023-01-11T12:43:14.000Z</Time>
            <Position>
              <LatitudeDegrees>-49.23212709836661815643310546875</LatitudeDegrees>
              <LongitudeDegrees>-72.9825302772223949432373046875</LongitudeDegrees>
            </Position>
            <AltitudeMeters>497.20001220703125</AltitudeMeters>
            <DistanceMeters>21771.630348882</DistanceMeters>
          </Trackpoint>
          <Trackpoint>
            <Time>2023-01-11T12:43:17.000Z</Time>
            <Position>
              <LatitudeDegrees>-49.232128523290157318115234375</LatitudeDegrees>
              <LongitudeDegrees>-72.98259456641972064971923828125</LongitudeDegrees>
            </Position>
            <AltitudeMeters>497.600006103515625</AltitudeMeters>
            <DistanceMeters>21776.305045128</DistanceMeters>
          </Trackpoint>
          <Trackpoint>
            <Time>2023-01-11T12:43:19.000Z</Time>
            <Position>
              <LatitudeDegrees>-49.232128523290157318115234375</LatitudeDegrees>
              <LongitudeDegrees>-72.98262524418532848358154296875</LongitudeDegrees>
            </Position>
            <AltitudeMeters>497.600006103515625</AltitudeMeters>
            <DistanceMeters>21778.533619122</DistanceMeters>
          </Trackpoint>
          <Trackpoint>
            <Time>2023-01-11T12:43:20.000Z</Time>
            <Position>
              <LatitudeDegrees>-49.23211620189249515533447265625</LatitudeDegrees>
              <LongitudeDegrees>-72.98263697884976863861083984375</LongitudeDegrees>
            </Position>
            <AltitudeMeters>497.600006103515625</AltitudeMeters>
            <DistanceMeters>21780.146275941</DistanceMeters>
          </Trackpoint>
          <Trackpoint>
            <Time>2023-01-11T12:43:23.000Z</Time>
            <Position>
              <LatitudeDegrees>-49.2320861108601093292236328125</LatitudeDegrees>
              <LongitudeDegrees>-72.9826633818447589874267578125</LongitudeDegrees>
            </Position>
            <AltitudeMeters>497.600006103515625</AltitudeMeters>
            <DistanceMeters>21784.006279326</DistanceMeters>
          </Trackpoint>
          <Trackpoint>
            <Time>2023-01-11T12:43:24.000Z</Time>
            <Position>
              <LatitudeDegrees>-49.23206993378698825836181640625</LatitudeDegrees>
              <LongitudeDegrees>-72.9826670698821544647216796875</LongitudeDegrees>
            </Position>
            <AltitudeMeters>497.600006103515625</AltitudeMeters>
            <DistanceMeters>21785.826729285</DistanceMeters>
          </Trackpoint>
          <Trackpoint>
            <Time>2023-01-11T12:43:29.000Z</Time>
            <Position>
              <LatitudeDegrees>-49.23204160295426845550537109375</LatitudeDegrees>
              <LongitudeDegrees>-72.98273588530719280242919921875</LongitudeDegrees>
            </Position>
            <AltitudeMeters>497.600006103515625</AltitudeMeters>
            <DistanceMeters>21791.73904067</DistanceMeters>
          </Trackpoint>
          <Trackpoint>
            <Time>2023-01-11T12:43:31.000Z</Time>
            <Position>
              <LatitudeDegrees>-49.23203288577497005462646484375</LatitudeDegrees>
              <LongitudeDegrees>-72.9827678203582763671875</LongitudeDegrees>
            </Position>
            <AltitudeMeters>497.600006103515625</AltitudeMeters>
            <DistanceMeters>21794.253211212</DistanceMeters>
          </Trackpoint>
          <Trackpoint>
            <Time>2023-01-11T12:43:34.000Z</Time>
            <Position>
              <LatitudeDegrees>-49.23201411031186580657958984375</LatitudeDegrees>
              <LongitudeDegrees>-72.9828011803328990936279296875</LongitudeDegrees>
            </Position>
            <AltitudeMeters>497.600006103515625</AltitudeMeters>
            <DistanceMeters>21797.454638513</DistanceMeters>
          </Trackpoint>
          <Trackpoint>
            <Time>2023-01-11T12:43:36.000Z</Time>
            <Position>
              <LatitudeDegrees>-49.23198334872722625732421875</LatitudeDegrees>
              <LongitudeDegrees>-72.98282758332788944244384765625</LongitudeDegrees>
            </Position>
            <AltitudeMeters>497.600006103515625</AltitudeMeters>
            <DistanceMeters>21801.379598438</DistanceMeters>
          </Trackpoint>
          <Trackpoint>
            <Time>2023-01-11T12:43:42.000Z</Time>
            <Position>
              <LatitudeDegrees>-49.23188008368015289306640625</LatitudeDegrees>
              <LongitudeDegrees>-72.98291291110217571258544921875</LongitudeDegrees>
            </Position>
            <AltitudeMeters>497.399993896484375</AltitudeMeters>
            <DistanceMeters>21814.439463823</DistanceMeters>
          </Trackpoint>
          <Trackpoint>
            <Time>2023-01-11T12:43:44.000Z</Time>
            <Position>
              <LatitudeDegrees>-49.23184060491621494293212890625</LatitudeDegrees>
              <LongitudeDegrees>-72.98292716033756732940673828125</LongitudeDegrees>
            </Position>
            <AltitudeMeters>497</AltitudeMeters>
            <DistanceMeters>21818.954982908</DistanceMeters>
          </Trackpoint>
          <Trackpoint>
            <Time>2023-01-11T12:43:48.000Z</Time>
            <Position>
              <LatitudeDegrees>-49.23183758743107318878173828125</LatitudeDegrees>
              <LongitudeDegrees>-72.9829772002995014190673828125</LongitudeDegrees>
            </Position>
            <AltitudeMeters>496.79998779296875</AltitudeMeters>
            <DistanceMeters>21822.608262665</DistanceMeters>
          </Trackpoint>
          <Trackpoint>
            <Time>2023-01-11T12:43:50.000Z</Time>
            <Position>
              <LatitudeDegrees>-49.23184462822973728179931640625</LatitudeDegrees>
              <LongitudeDegrees>-72.98301148228347301483154296875</LongitudeDegrees>
            </Position>
            <AltitudeMeters>496.600006103515625</AltitudeMeters>
            <DistanceMeters>21825.219336719</DistanceMeters>
          </Trackpoint>
          <Trackpoint>
            <Time>2023-01-11T12:43:54.000Z</Time>
            <Position>
              <LatitudeDegrees>-49.23185435123741626739501953125</LatitudeDegrees>
              <LongitudeDegrees>-72.98307484947144985198974609375</LongitudeDegrees>
            </Position>
            <AltitudeMeters>496.600006103515625</AltitudeMeters>
            <DistanceMeters>21829.950674744</DistanceMeters>
          </Trackpoint>
          <Trackpoint>
            <Time>2023-01-11T12:43:58.000Z</Time>
            <Position>
              <LatitudeDegrees>-49.2318527586758136749267578125</LatitudeDegrees>
              <LongitudeDegrees>-72.983140982687473297119140625</LongitudeDegrees>
            </Position>
            <AltitudeMeters>496.79998779296875</AltitudeMeters>
            <DistanceMeters>21834.760566203</DistanceMeters>
          </Trackpoint>
          <Trackpoint>
            <Time>2023-01-11T12:44:05.000Z</Time>
            <Position>
              <LatitudeDegrees>-49.23184228129684925079345703125</LatitudeDegrees>
              <LongitudeDegrees>-72.9832544736564159393310546875</LongitudeDegrees>
            </Position>
            <AltitudeMeters>497.20001220703125</AltitudeMeters>
            <DistanceMeters>21843.091542589</DistanceMeters>
          </Trackpoint>
          <Trackpoint>
            <Time>2023-01-11T12:44:10.000Z</Time>
            <Position>
              <LatitudeDegrees>-49.2318271100521087646484375</LatitudeDegrees>
              <LongitudeDegrees>-72.9833413101732730865478515625</LongitudeDegrees>
            </Position>
            <AltitudeMeters>497.20001220703125</AltitudeMeters>
            <DistanceMeters>21849.625622588</DistanceMeters>
          </Trackpoint>
          <Trackpoint>
            <Time>2023-01-11T12:44:12.000Z</Time>
            <Position>
              <LatitudeDegrees>-49.23180389218032360076904296875</LatitudeDegrees>
              <LongitudeDegrees>-72.98336838372051715850830078125</LongitudeDegrees>
            </Position>
            <AltitudeMeters>497.20001220703125</AltitudeMeters>
            <DistanceMeters>21852.873257002</DistanceMeters>
          </Trackpoint>
          <Trackpoint>
            <Time>2023-01-11T12:44:22.000Z</Time>
            <Position>
              <LatitudeDegrees>-49.23172610811889171600341796875</LatitudeDegrees>
              <LongitudeDegrees>-72.98349210061132907867431640625</LongitudeDegrees>
            </Position>
            <AltitudeMeters>497.20001220703125</AltitudeMeters>
            <DistanceMeters>21865.355803579</DistanceMeters>
          </Trackpoint>
          <Trackpoint>
            <Time>2023-01-11T12:44:30.000Z</Time>
            <Position>
              <LatitudeDegrees>-49.2317226715385913848876953125</LatitudeDegrees>
              <LongitudeDegrees>-72.98359754495322704315185546875</LongitudeDegrees>
            </Position>
            <AltitudeMeters>497.20001220703125</AltitudeMeters>
            <DistanceMeters>21873.029468185</DistanceMeters>
          </Trackpoint>
          <Trackpoint>
            <Time>2023-01-11T12:44:33.000Z</Time>
            <Position>
              <LatitudeDegrees>-49.2317209951579570770263671875</LatitudeDegrees>
              <LongitudeDegrees>-72.98365856520831584930419921875</LongitudeDegrees>
            </Position>
            <AltitudeMeters>497.20001220703125</AltitudeMeters>
            <DistanceMeters>21877.468344935</DistanceMeters>
          </Trackpoint>
          <Trackpoint>
            <Time>2023-01-11T12:44:36.000Z</Time>
            <Position>
              <LatitudeDegrees>-49.23170439898967742919921875</LatitudeDegrees>
              <LongitudeDegrees>-72.98371220938861370086669921875</LongitudeDegrees>
            </Position>
            <AltitudeMeters>497.20001220703125</AltitudeMeters>
            <DistanceMeters>21881.783436779</DistanceMeters>
          </Trackpoint>
          <Trackpoint>
            <Time>2023-01-11T12:44:46.000Z</Time>
            <Position>
              <LatitudeDegrees>-49.231655783951282501220703125</LatitudeDegrees>
              <LongitudeDegrees>-72.98391454853117465972900390625</LongitudeDegrees>
            </Position>
            <AltitudeMeters>497.20001220703125</AltitudeMeters>
            <DistanceMeters>21897.453915356</DistanceMeters>
          </Trackpoint>
          <Trackpoint>
            <Time>2023-01-11T12:44:53.000Z</Time>
            <Position>
              <LatitudeDegrees>-49.23162116669118404388427734375</LatitudeDegrees>
              <LongitudeDegrees>-72.98402267508208751678466796875</LongitudeDegrees>
            </Position>
            <AltitudeMeters>497.20001220703125</AltitudeMeters>
            <DistanceMeters>21906.206180119</DistanceMeters>
          </Trackpoint>
          <Trackpoint>
            <Time>2023-01-11T12:45:00.000Z</Time>
            <Position>
              <LatitudeDegrees>-49.23162653110921382904052734375</LatitudeDegrees>
              <LongitudeDegrees>-72.9841349087655544281005859375</LongitudeDegrees>
            </Position>
            <AltitudeMeters>497.20001220703125</AltitudeMeters>
            <DistanceMeters>21914.385104638</DistanceMeters>
          </Trackpoint>
          <Trackpoint>
            <Time>2023-01-11T12:45:02.000Z</Time>
            <Position>
              <LatitudeDegrees>-49.23161211423575878143310546875</LatitudeDegrees>
              <LongitudeDegrees>-72.9841540195047855377197265625</LongitudeDegrees>
            </Position>
            <AltitudeMeters>497.20001220703125</AltitudeMeters>
            <DistanceMeters>21916.509966568</DistanceMeters>
          </Trackpoint>
          <Trackpoint>
            <Time>2023-01-11T12:45:04.000Z</Time>
            <Position>
              <LatitudeDegrees>-49.23160423524677753448486328125</LatitudeDegrees>
              <LongitudeDegrees>-72.9841788299381732940673828125</LongitudeDegrees>
            </Position>
            <AltitudeMeters>497.20001220703125</AltitudeMeters>
            <DistanceMeters>21918.516808389</DistanceMeters>
          </Trackpoint>
          <Trackpoint>
            <Time>2023-01-11T12:45:06.000Z</Time>
            <Position>
              <LatitudeDegrees>-49.231611192226409912109375</LatitudeDegrees>
              <LongitudeDegrees>-72.98421445302665233612060546875</LongitudeDegrees>
            </Position>
            <AltitudeMeters>497.20001220703125</AltitudeMeters>
            <DistanceMeters>21921.219646128</DistanceMeters>
          </Trackpoint>
          <Trackpoint>
            <Time>2023-01-11T12:45:07.000Z</Time>
            <Position>
              <LatitudeDegrees>-49.23160842619836330413818359375</LatitudeDegrees>
              <LongitudeDegrees>-72.9842314682900905609130859375</LongitudeDegrees>
            </Position>
            <AltitudeMeters>497.20001220703125</AltitudeMeters>
            <DistanceMeters>21922.494563286</DistanceMeters>
          </Trackpoint>
          <Trackpoint>
            <Time>2023-01-11T12:45:09.000Z</Time>
            <Position>
              <LatitudeDegrees>-49.23159434460103511810302734375</LatitudeDegrees>
              <LongitudeDegrees>-72.9842663370072841644287109375</LongitudeDegrees>
            </Position>
            <AltitudeMeters>497.20001220703125</AltitudeMeters>
            <DistanceMeters>21925.472403958</DistanceMeters>
          </Trackpoint>
          <Trackpoint>
            <Time>2023-01-11T12:45:10.000Z</Time>
            <Position>
              <LatitudeDegrees>-49.23159685917198657989501953125</LatitudeDegrees>
              <LongitudeDegrees>-72.98429944552481174468994140625</LongitudeDegrees>
            </Position>
            <AltitudeMeters>493</AltitudeMeters>
            <DistanceMeters>21927.895119313</DistanceMeters>
          </Trackpoint>
          <Trackpoint>
            <Time>2023-01-11T12:45:11.000Z</Time>
            <Position>
              <LatitudeDegrees>-49.2316006310284137725830078125</LatitudeDegrees>
              <LongitudeDegrees>-72.9843367449939250946044921875</LongitudeDegrees>
            </Position>
            <AltitudeMeters>493</AltitudeMeters>
            <DistanceMeters>21930.637755577</DistanceMeters>
          </Trackpoint>
          <Trackpoint>
            <Time>2023-01-11T12:45:14.000Z</Time>
            <Position>
              <LatitudeDegrees>-49.2316006310284137725830078125</LatitudeDegrees>
              <LongitudeDegrees>-72.98439449630677700042724609375</LongitudeDegrees>
            </Position>
            <AltitudeMeters>493.20001220703125</AltitudeMeters>
            <DistanceMeters>21934.835097491</DistanceMeters>
          </Trackpoint>
          <Trackpoint>
            <Time>2023-01-11T12:45:16.000Z</Time>
            <Position>
              <LatitudeDegrees>-49.231595434248447418212890625</LatitudeDegrees>
              <LongitudeDegrees>-72.9844187200069427490234375</LongitudeDegrees>
            </Position>
            <AltitudeMeters>493.20001220703125</AltitudeMeters>
            <DistanceMeters>21936.689944957</DistanceMeters>
          </Trackpoint>
          <Trackpoint>
            <Time>2023-01-11T12:45:17.000Z</Time>
            <Position>
              <LatitudeDegrees>-49.23158696852624416351318359375</LatitudeDegrees>
              <LongitudeDegrees>-72.98443288542330265045166015625</LongitudeDegrees>
            </Position>
            <AltitudeMeters>493.20001220703125</AltitudeMeters>
            <DistanceMeters>21938.08654673</DistanceMeters>
          </Trackpoint>
          <Trackpoint>
            <Time>2023-01-11T12:45:19.000Z</Time>
            <Position>
              <LatitudeDegrees>-49.2315728031098842620849609375</LatitudeDegrees>
              <LongitudeDegrees>-72.9844695143401622772216796875</LongitudeDegrees>
            </Position>
            <AltitudeMeters>493.20001220703125</AltitudeMeters>
            <DistanceMeters>21941.181851418</DistanceMeters>
          </Trackpoint>
          <Trackpoint>
            <Time>2023-01-11T12:45:22.000Z</Time>
            <Position>
              <LatitudeDegrees>-49.23156266100704669952392578125</LatitudeDegrees>
              <LongitudeDegrees>-72.98452894203364849090576171875</LongitudeDegrees>
            </Position>
            <AltitudeMeters>493.20001220703125</AltitudeMeters>
            <DistanceMeters>21945.64608469</DistanceMeters>
          </Trackpoint>
          <Trackpoint>
            <Time>2023-01-11T12:45:24.000Z</Time>
            <Position>
              <LatitudeDegrees>-49.23155964352190494537353515625</LatitudeDegrees>
              <LongitudeDegrees>-72.98456632532179355621337890625</LongitudeDegrees>
            </Position>
            <AltitudeMeters>493.20001220703125</AltitudeMeters>
            <DistanceMeters>21948.383777779</DistanceMeters>
          </Trackpoint>
          <Trackpoint>
            <Time>2023-01-11T12:45:27.000Z</Time>
            <Position>
              <LatitudeDegrees>-49.23156031407415866851806640625</LatitudeDegrees>
              <LongitudeDegrees>-72.98461577855050563812255859375</LongitudeDegrees>
            </Position>
            <AltitudeMeters>493.600006103515625</AltitudeMeters>
            <DistanceMeters>21951.977245368</DistanceMeters>
          </Trackpoint>
          <Trackpoint>
            <Time>2023-01-11T12:45:28.000Z</Time>
            <Position>
              <LatitudeDegrees>-49.23155981115996837615966796875</LatitudeDegrees>
              <LongitudeDegrees>-72.98463405109941959381103515625</LongitudeDegrees>
            </Position>
            <AltitudeMeters>493.600006103515625</AltitudeMeters>
            <DistanceMeters>21953.307619369</DistanceMeters>
          </Trackpoint>
          <Trackpoint>
            <Time>2023-01-11T12:45:31.000Z</Time>
            <Position>
              <LatitudeDegrees>-49.2315657623112201690673828125</LatitudeDegrees>
              <LongitudeDegrees>-72.984668500721454620361328125</LongitudeDegrees>
            </Position>
            <AltitudeMeters>494.20001220703125</AltitudeMeters>
            <DistanceMeters>21955.899602563</DistanceMeters>
          </Trackpoint>
          <Trackpoint>
            <Time>2023-01-11T12:45:33.000Z</Time>
            <Position>
              <LatitudeDegrees>-49.23157992772758007049560546875</LatitudeDegrees>
              <LongitudeDegrees>-72.98468627035617828369140625</LongitudeDegrees>
            </Position>
            <AltitudeMeters>494.399993896484375</AltitudeMeters>
            <DistanceMeters>21957.939912647</DistanceMeters>
          </Trackpoint>
          <Trackpoint>
            <Time>2023-01-11T12:45:38.000Z</Time>
            <Position>
              <LatitudeDegrees>-49.2315922491252422332763671875</LatitudeDegrees>
              <LongitudeDegrees>-72.984741590917110443115234375</LongitudeDegrees>
            </Position>
            <AltitudeMeters>495.20001220703125</AltitudeMeters>
            <DistanceMeters>21962.189636507</DistanceMeters>
          </Trackpoint>
          <Trackpoint>
            <Time>2023-01-11T12:45:40.000Z</Time>
            <Position>
              <LatitudeDegrees>-49.2315691150724887847900390625</LatitudeDegrees>
              <LongitudeDegrees>-72.9847620427608489990234375</LongitudeDegrees>
            </Position>
            <AltitudeMeters>495.20001220703125</AltitudeMeters>
            <DistanceMeters>21965.164443209</DistanceMeters>
          </Trackpoint>
          <Trackpoint>
            <Time>2023-01-11T12:45:42.000Z</Time>
            <Position>
              <LatitudeDegrees>-49.2315416224300861358642578125</LatitudeDegrees>
              <LongitudeDegrees>-72.9847886972129344940185546875</LongitudeDegrees>
            </Position>
            <AltitudeMeters>495</AltitudeMeters>
            <DistanceMeters>21968.786694039</DistanceMeters>
          </Trackpoint>
          <Trackpoint>
            <Time>2023-01-11T12:45:47.000Z</Time>
            <Position>
              <LatitudeDegrees>-49.2315446399152278900146484375</LatitudeDegrees>
              <LongitudeDegrees>-72.98487058840692043304443359375</LongitudeDegrees>
            </Position>
            <AltitudeMeters>495.20001220703125</AltitudeMeters>
            <DistanceMeters>21974.748437147</DistanceMeters>
          </Trackpoint>
          <Trackpoint>
            <Time>2023-01-11T12:45:55.000Z</Time>
            <Position>
              <LatitudeDegrees>-49.231574647128582000732421875</LatitudeDegrees>
              <LongitudeDegrees>-72.9850364662706851959228515625</LongitudeDegrees>
            </Position>
            <AltitudeMeters>496</AltitudeMeters>
            <DistanceMeters>21987.258804245</DistanceMeters>
          </Trackpoint>
          <Trackpoint>
            <Time>2023-01-11T12:45:56.000Z</Time>
            <Position>
              <LatitudeDegrees>-49.231547154486179351806640625</LatitudeDegrees>
              <LongitudeDegrees>-72.9850418306887149810791015625</LongitudeDegrees>
            </Position>
            <AltitudeMeters>496</AltitudeMeters>
            <DistanceMeters>21990.340952914</DistanceMeters>
          </Trackpoint>
          <Trackpoint>
            <Time>2023-01-11T12:46:04.000Z</Time>
            <Position>
              <LatitudeDegrees>-49.2314792610704898834228515625</LatitudeDegrees>
              <LongitudeDegrees>-72.9851776175200939178466796875</LongitudeDegrees>
            </Position>
            <AltitudeMeters>495.600006103515625</AltitudeMeters>
            <DistanceMeters>22002.770577924</DistanceMeters>
          </Trackpoint>
          <Trackpoint>
            <Time>2023-01-11T12:46:09.000Z</Time>
            <Position>
              <LatitudeDegrees>-49.23148043453693389892578125</LatitudeDegrees>
              <LongitudeDegrees>-72.98526227474212646484375</LongitudeDegrees>
            </Position>
            <AltitudeMeters>495.399993896484375</AltitudeMeters>
            <DistanceMeters>22008.924612422</DistanceMeters>
          </Trackpoint>
          <Trackpoint>
            <Time>2023-01-11T12:46:12.000Z</Time>
            <Position>
              <LatitudeDegrees>-49.2314450629055500030517578125</LatitudeDegrees>
              <LongitudeDegrees>-72.9853177629411220550537109375</LongitudeDegrees>
            </Position>
            <AltitudeMeters>495.20001220703125</AltitudeMeters>
            <DistanceMeters>22014.560906322</DistanceMeters>
          </Trackpoint>
          <Trackpoint>
            <Time>2023-01-11T12:46:16.000Z</Time>
            <Position>
              <LatitudeDegrees>-49.23145830631256103515625</LatitudeDegrees>
              <LongitudeDegrees>-72.98540376126766204833984375</LongitudeDegrees>
            </Position>
            <AltitudeMeters>495</AltitudeMeters>
            <DistanceMeters>22020.982772026</DistanceMeters>
          </Trackpoint>
          <Trackpoint>
            <Time>2023-01-11T12:46:18.000Z</Time>
            <Position>
              <LatitudeDegrees>-49.23146702349185943603515625</LatitudeDegrees>
              <LongitudeDegrees>-72.98543720506131649017333984375</LongitudeDegrees>
            </Position>
            <AltitudeMeters>494.79998779296875</AltitudeMeters>
            <DistanceMeters>22023.599028501</DistanceMeters>
          </Trackpoint>
          <Trackpoint>
            <Time>2023-01-11T12:46:24.000Z</Time>
            <Position>
              <LatitudeDegrees>-49.2314732261002063751220703125</LatitudeDegrees>
              <LongitudeDegrees>-72.98554583452641963958740234375</LongitudeDegrees>
            </Position>
            <AltitudeMeters>495.20001220703125</AltitudeMeters>
            <DistanceMeters>22031.524507146</DistanceMeters>
          </Trackpoint>
          <Trackpoint>
            <Time>2023-01-11T12:46:27.000Z</Time>
            <Position>
              <LatitudeDegrees>-49.23146777786314487457275390625</LatitudeDegrees>
              <LongitudeDegrees>-72.98558606766164302825927734375</LongitudeDegrees>
            </Position>
            <AltitudeMeters>495.399993896484375</AltitudeMeters>
            <DistanceMeters>22034.511431237</DistanceMeters>
          </Trackpoint>
          <Trackpoint>
            <Time>2023-01-11T12:46:32.000Z</Time>
            <Position>
              <LatitudeDegrees>-49.23147766850888729095458984375</LatitudeDegrees>
              <LongitudeDegrees>-72.985651195049285888671875</LongitudeDegrees>
            </Position>
            <AltitudeMeters>495.399993896484375</AltitudeMeters>
            <DistanceMeters>22039.371748097</DistanceMeters>
          </Trackpoint>
          <Trackpoint>
            <Time>2023-01-11T12:46:35.000Z</Time>
            <Position>
              <LatitudeDegrees>-49.23148957081139087677001953125</LatitudeDegrees>
              <LongitudeDegrees>-72.98567977733910083770751953125</LongitudeDegrees>
            </Position>
            <AltitudeMeters>495.399993896484375</AltitudeMeters>
            <DistanceMeters>22041.836954264</DistanceMeters>
          </Trackpoint>
          <Trackpoint>
            <Time>2023-01-11T12:46:36.000Z</Time>
            <Position>
              <LatitudeDegrees>-49.231488816440105438232421875</LatitudeDegrees>
              <LongitudeDegrees>-72.98568447120487689971923828125</LongitudeDegrees>
            </Position>
            <AltitudeMeters>495.600006103515625</AltitudeMeters>
            <DistanceMeters>22042.192511672</DistanceMeters>
          </Trackpoint>
          <Trackpoint>
            <Time>2023-01-11T12:46:41.000Z</Time>
            <Position>
              <LatitudeDegrees>-49.23143777064979076385498046875</LatitudeDegrees>
              <LongitudeDegrees>-72.985716573894023895263671875</LongitudeDegrees>
            </Position>
            <AltitudeMeters>495.79998779296875</AltitudeMeters>
            <DistanceMeters>22048.334796213</DistanceMeters>
          </Trackpoint>
          <Trackpoint>
            <Time>2023-01-11T12:46:47.000Z</Time>
            <Position>
              <LatitudeDegrees>-49.23145403154194355010986328125</LatitudeDegrees>
              <LongitudeDegrees>-72.98583232797682285308837890625</LongitudeDegrees>
            </Position>
            <AltitudeMeters>496</AltitudeMeters>
            <DistanceMeters>22056.940880514</DistanceMeters>
          </Trackpoint>
          <Trackpoint>
            <Time>2023-01-11T12:46:49.000Z</Time>
            <Position>
              <LatitudeDegrees>-49.2314601503312587738037109375</LatitudeDegrees>
              <LongitudeDegrees>-72.98587381839752197265625</LongitudeDegrees>
            </Position>
            <AltitudeMeters>496.20001220703125</AltitudeMeters>
            <DistanceMeters>22060.034726184</DistanceMeters>
          </Trackpoint>
          <Trackpoint>
            <Time>2023-01-11T12:46:53.000Z</Time>
            <Position>
              <LatitudeDegrees>-49.231477417051792144775390625</LatitudeDegrees>
              <LongitudeDegrees>-72.98593207262456417083740234375</LongitudeDegrees>
            </Position>
            <AltitudeMeters>496.399993896484375</AltitudeMeters>
            <DistanceMeters>22064.685213587</DistanceMeters>
          </Trackpoint>
          <Trackpoint>
            <Time>2023-01-11T12:46:57.000Z</Time>
            <Position>
              <LatitudeDegrees>-49.231451265513896942138671875</LatitudeDegrees>
              <LongitudeDegrees>-72.98596912063658237457275390625</LongitudeDegrees>
            </Position>
            <AltitudeMeters>496.399993896484375</AltitudeMeters>
            <DistanceMeters>22068.650231</DistanceMeters>
          </Trackpoint>
          <Trackpoint>
            <Time>2023-01-11T12:46:58.000Z</Time>
            <Position>
              <LatitudeDegrees>-49.23145830631256103515625</LatitudeDegrees>
              <LongitudeDegrees>-72.9859789274632930755615234375</LongitudeDegrees>
            </Position>
            <AltitudeMeters>496.399993896484375</AltitudeMeters>
            <DistanceMeters>22069.708403708</DistanceMeters>
          </Trackpoint>
          <Trackpoint>
            <Time>2023-01-11T12:47:00.000Z</Time>
            <Position>
              <LatitudeDegrees>-49.23147649504244327545166015625</LatitudeDegrees>
              <LongitudeDegrees>-72.98601287417113780975341796875</LongitudeDegrees>
            </Position>
            <AltitudeMeters>496.600006103515625</AltitudeMeters>
            <DistanceMeters>22072.899943497</DistanceMeters>
          </Trackpoint>
          <Trackpoint>
            <Time>2023-01-11T12:47:04.000Z</Time>
            <Position>
              <LatitudeDegrees>-49.23150700516998767852783203125</LatitudeDegrees>
              <LongitudeDegrees>-72.9860664345324039459228515625</LongitudeDegrees>
            </Position>
            <AltitudeMeters>496.79998779296875</AltitudeMeters>
            <DistanceMeters>22078.066461277</DistanceMeters>
          </Trackpoint>
          <Trackpoint>
            <Time>2023-01-11T12:47:05.000Z</Time>
            <Position>
              <LatitudeDegrees>-49.2315097711980342864990234375</LatitudeDegrees>
              <LongitudeDegrees>-72.98608101904392242431640625</LongitudeDegrees>
            </Position>
            <AltitudeMeters>496.79998779296875</AltitudeMeters>
            <DistanceMeters>22079.170571924</DistanceMeters>
          </Trackpoint>
          <Trackpoint>
            <Time>2023-01-11T12:47:08.000Z</Time>
            <Position>
              <LatitudeDegrees>-49.23152879811823368072509765625</LatitudeDegrees>
              <LongitudeDegrees>-72.98611194826662540435791015625</LongitudeDegrees>
            </Position>
            <AltitudeMeters>497.20001220703125</AltitudeMeters>
            <DistanceMeters>22082.258574632</DistanceMeters>
          </Trackpoint>
          <Trackpoint>
            <Time>2023-01-11T12:47:11.000Z</Time>
            <Position>
              <LatitudeDegrees>-49.23152343370020389556884765625</LatitudeDegrees>
              <LongitudeDegrees>-72.9861177317798137664794921875</LongitudeDegrees>
            </Position>
            <AltitudeMeters>497.600006103515625</AltitudeMeters>
            <DistanceMeters>22082.988488675</DistanceMeters>
          </Trackpoint>
          <Trackpoint>
            <Time>2023-01-11T12:47:14.000Z</Time>
            <Position>
              <LatitudeDegrees>-49.2315258644521236419677734375</LatitudeDegrees>
              <LongitudeDegrees>-72.98612418584525585174560546875</LongitudeDegrees>
            </Position>
            <AltitudeMeters>497.79998779296875</AltitudeMeters>
            <DistanceMeters>22083.526040948</DistanceMeters>
          </Trackpoint>
          <Trackpoint>
            <Time>2023-01-11T12:47:21.000Z</Time>
            <Position>
              <LatitudeDegrees>-49.2315503396093845367431640625</LatitudeDegrees>
              <LongitudeDegrees>-72.9861836135387420654296875</LongitudeDegrees>
            </Position>
            <AltitudeMeters>498.20001220703125</AltitudeMeters>
            <DistanceMeters>22088.631903333</DistanceMeters>
          </Trackpoint>
          <Trackpoint>
            <Time>2023-01-11T12:47:26.000Z</Time>
            <Position>
              <LatitudeDegrees>-49.2315409518778324127197265625</LatitudeDegrees>
              <LongitudeDegrees>-72.98623792827129364013671875</LongitudeDegrees>
            </Position>
            <AltitudeMeters>498.399993896484375</AltitudeMeters>
            <DistanceMeters>22092.714735819</DistanceMeters>
          </Trackpoint>
          <Trackpoint>
            <Time>2023-01-11T12:47:28.000Z</Time>
            <Position>
              <LatitudeDegrees>-49.2315454781055450439453125</LatitudeDegrees>
              <LongitudeDegrees>-72.98627740703523159027099609375</LongitudeDegrees>
            </Position>
            <AltitudeMeters>498.399993896484375</AltitudeMeters>
            <DistanceMeters>22095.626649585</DistanceMeters>
          </Trackpoint>
          <Trackpoint>
            <Time>2023-01-11T12:47:35.000Z</Time>
            <Position>
              <LatitudeDegrees>-49.23158713616430759429931640625</LatitudeDegrees>
              <LongitudeDegrees>-72.98641185276210308074951171875</LongitudeDegrees>
            </Position>
            <AltitudeMeters>498.600006103515625</AltitudeMeters>
            <DistanceMeters>22106.442175937</DistanceMeters>
          </Trackpoint>
          <Trackpoint>
            <Time>2023-01-11T12:47:40.000Z</Time>
            <Position>
              <LatitudeDegrees>-49.231560230255126953125</LatitudeDegrees>
              <LongitudeDegrees>-72.98651092685759067535400390625</LongitudeDegrees>
            </Position>
            <AltitudeMeters>498.600006103515625</AltitudeMeters>
            <DistanceMeters>22114.240158674</DistanceMeters>
          </Trackpoint>
          <Trackpoint>
            <Time>2023-01-11T12:47:42.000Z</Time>
            <Position>
              <LatitudeDegrees>-49.23153684474527835845947265625</LatitudeDegrees>
              <LongitudeDegrees>-72.98653028905391693115234375</LongitudeDegrees>
            </Position>
            <AltitudeMeters>498.79998779296875</AltitudeMeters>
            <DistanceMeters>22117.199748874</DistanceMeters>
          </Trackpoint>
          <Trackpoint>
            <Time>2023-01-11T12:47:45.000Z</Time>
            <Position>
              <LatitudeDegrees>-49.23151924274861812591552734375</LatitudeDegrees>
              <LongitudeDegrees>-72.98656457103788852691650390625</LongitudeDegrees>
            </Position>
            <AltitudeMeters>498.79998779296875</AltitudeMeters>
            <DistanceMeters>22120.368572789</DistanceMeters>
          </Trackpoint>
          <Trackpoint>
            <Time>2023-01-11T12:47:47.000Z</Time>
            <Position>
              <LatitudeDegrees>-49.23152066767215728759765625</LatitudeDegrees>
              <LongitudeDegrees>-72.98660807311534881591796875</LongitudeDegrees>
            </Position>
            <AltitudeMeters>498.79998779296875</AltitudeMeters>
            <DistanceMeters>22123.53454576</DistanceMeters>
          </Trackpoint>
          <Trackpoint>
            <Time>2023-01-11T12:47:54.000Z</Time>
            <Position>
              <LatitudeDegrees>-49.23149610869586467742919921875</LatitudeDegrees>
              <LongitudeDegrees>-72.9866457916796207427978515625</LongitudeDegrees>
            </Position>
            <AltitudeMeters>498.79998779296875</AltitudeMeters>
            <DistanceMeters>22127.406228456</DistanceMeters>
          </Trackpoint>
          <Trackpoint>
            <Time>2023-01-11T12:47:58.000Z</Time>
            <Position>
              <LatitudeDegrees>-49.2314883135259151458740234375</LatitudeDegrees>
              <LongitudeDegrees>-72.986656688153743743896484375</LongitudeDegrees>
            </Position>
            <AltitudeMeters>499</AltitudeMeters>
            <DistanceMeters>22128.577796473</DistanceMeters>
          </Trackpoint>
          <Trackpoint>
            <Time>2023-01-11T12:48:00.000Z</Time>
            <Position>
              <LatitudeDegrees>-49.23149828799068927764892578125</LatitudeDegrees>
              <LongitudeDegrees>-72.9866917245090007781982421875</LongitudeDegrees>
            </Position>
            <AltitudeMeters>499</AltitudeMeters>
            <DistanceMeters>22131.354788602</DistanceMeters>
          </Trackpoint>
          <Trackpoint>
            <Time>2023-01-11T12:48:08.000Z</Time>
            <Position>
              <LatitudeDegrees>-49.2314936779439449310302734375</LatitudeDegrees>
              <LongitudeDegrees>-72.9867522418498992919921875</LongitudeDegrees>
            </Position>
            <AltitudeMeters>499</AltitudeMeters>
            <DistanceMeters>22135.783482093</DistanceMeters>
          </Trackpoint>
          <Trackpoint>
            <Time>2023-01-11T12:48:14.000Z</Time>
            <Position>
              <LatitudeDegrees>-49.2314631678164005279541015625</LatitudeDegrees>
              <LongitudeDegrees>-72.98676003701984882354736328125</LongitudeDegrees>
            </Position>
            <AltitudeMeters>499.20001220703125</AltitudeMeters>
            <DistanceMeters>22139.226807574</DistanceMeters>
          </Trackpoint>
          <Trackpoint>
            <Time>2023-01-11T12:48:16.000Z</Time>
            <Position>
              <LatitudeDegrees>-49.23145352862775325775146484375</LatitudeDegrees>
              <LongitudeDegrees>-72.98675266094505786895751953125</LongitudeDegrees>
            </Position>
            <AltitudeMeters>499.20001220703125</AltitudeMeters>
            <DistanceMeters>22140.428810998</DistanceMeters>
          </Trackpoint>
          <Trackpoint>
            <Time>2023-01-11T12:48:45.000Z</Time>
            <Position>
              <LatitudeDegrees>-49.23140323720872402191162109375</LatitudeDegrees>
              <LongitudeDegrees>-72.986722402274608612060546875</LongitudeDegrees>
            </Position>
            <AltitudeMeters>499.399993896484375</AltitudeMeters>
            <DistanceMeters>22146.442583205</DistanceMeters>
          </Trackpoint>
          <Trackpoint>
            <Time>2023-01-11T12:48:47.000Z</Time>
            <Position>
              <LatitudeDegrees>-49.2314088530838489532470703125</LatitudeDegrees>
              <LongitudeDegrees>-72.9867517389357089996337890625</LongitudeDegrees>
            </Position>
            <AltitudeMeters>499.399993896484375</AltitudeMeters>
            <DistanceMeters>22148.663038505</DistanceMeters>
          </Trackpoint>
          <Trackpoint>
            <Time>2023-01-11T12:48:49.000Z</Time>
            <Position>
              <LatitudeDegrees>-49.23141312785446643829345703125</LatitudeDegrees>
              <LongitudeDegrees>-72.98679641447961330413818359375</LongitudeDegrees>
            </Position>
            <AltitudeMeters>499.399993896484375</AltitudeMeters>
            <DistanceMeters>22151.945245262</DistanceMeters>
          </Trackpoint>
          <Trackpoint>
            <Time>2023-01-11T12:48:55.000Z</Time>
            <Position>
              <LatitudeDegrees>-49.231408350169658660888671875</LatitudeDegrees>
              <LongitudeDegrees>-72.98691359348595142364501953125</LongitudeDegrees>
            </Position>
            <AltitudeMeters>499.79998779296875</AltitudeMeters>
            <DistanceMeters>22160.478623049</DistanceMeters>
          </Trackpoint>
          <Trackpoint>
            <Time>2023-01-11T12:48:59.000Z</Time>
            <Position>
              <LatitudeDegrees>-49.23142611980438232421875</LatitudeDegrees>
              <LongitudeDegrees>-72.98695600591599941253662109375</LongitudeDegrees>
            </Position>
            <AltitudeMeters>499.79998779296875</AltitudeMeters>
            <DistanceMeters>22164.141776553</DistanceMeters>
          </Trackpoint>
          <Trackpoint>
            <Time>2023-01-11T12:49:03.000Z</Time>
            <Position>
              <LatitudeDegrees>-49.2314477451145648956298828125</LatitudeDegrees>
              <LongitudeDegrees>-72.98699607141315937042236328125</LongitudeDegrees>
            </Position>
            <AltitudeMeters>499.79998779296875</AltitudeMeters>
            <DistanceMeters>22167.920208881</DistanceMeters>
          </Trackpoint>
          <Trackpoint>
            <Time>2023-01-11T12:49:07.000Z</Time>
            <Position>
              <LatitudeDegrees>-49.23146442510187625885009765625</LatitudeDegrees>
              <LongitudeDegrees>-72.987058348953723907470703125</LongitudeDegrees>
            </Position>
            <AltitudeMeters>500.399993896484375</AltitudeMeters>
            <DistanceMeters>22172.813854018</DistanceMeters>
          </Trackpoint>
          <Trackpoint>
            <Time>2023-01-11T12:49:09.000Z</Time>
            <Position>
              <LatitudeDegrees>-49.231460653245449066162109375</LatitudeDegrees>
              <LongitudeDegrees>-72.98707653768360614776611328125</LongitudeDegrees>
            </Position>
            <AltitudeMeters>500.600006103515625</AltitudeMeters>
            <DistanceMeters>22174.203975006</DistanceMeters>
          </Trackpoint>
          <Trackpoint>
            <Time>2023-01-11T12:49:17.000Z</Time>
            <Position>
              <LatitudeDegrees>-49.23151102848351001739501953125</LatitudeDegrees>
              <LongitudeDegrees>-72.98721953295171260833740234375</LongitudeDegrees>
            </Position>
            <AltitudeMeters>501.399993896484375</AltitudeMeters>
            <DistanceMeters>22186.012932221</DistanceMeters>
          </Trackpoint>
          <Trackpoint>
            <Time>2023-01-11T12:49:18.000Z</Time>
            <Position>
              <LatitudeDegrees>-49.2315114475786685943603515625</LatitudeDegrees>
              <LongitudeDegrees>-72.987233698368072509765625</LongitudeDegrees>
            </Position>
            <AltitudeMeters>501.399993896484375</AltitudeMeters>
            <DistanceMeters>22187.04518656</DistanceMeters>
          </Trackpoint>
          <Trackpoint>
            <Time>2023-01-11T12:49:23.000Z</Time>
            <Position>
              <LatitudeDegrees>-49.23151119612157344818115234375</LatitudeDegrees>
              <LongitudeDegrees>-72.9873022623360157012939453125</LongitudeDegrees>
            </Position>
            <AltitudeMeters>501.79998779296875</AltitudeMeters>
            <DistanceMeters>22192.028429502</DistanceMeters>
          </Trackpoint>
          <Trackpoint>
            <Time>2023-01-11T12:49:26.000Z</Time>
            <Position>
              <LatitudeDegrees>-49.23147247172892093658447265625</LatitudeDegrees>
              <LongitudeDegrees>-72.9873388074338436126708984375</LongitudeDegrees>
            </Position>
            <AltitudeMeters>502</AltitudeMeters>
            <DistanceMeters>22197.09166829</DistanceMeters>
          </Trackpoint>
          <Trackpoint>
            <Time>2023-01-11T12:49:28.000Z</Time>
            <Position>
              <LatitudeDegrees>-49.23144648782908916473388671875</LatitudeDegrees>
              <LongitudeDegrees>-72.98737124539911746978759765625</LongitudeDegrees>
            </Position>
            <AltitudeMeters>502.20001220703125</AltitudeMeters>
            <DistanceMeters>22200.823206563</DistanceMeters>
          </Trackpoint>
          <Trackpoint>
            <Time>2023-01-11T12:49:33.000Z</Time>
            <Position>
              <LatitudeDegrees>-49.231398962438106536865234375</LatitudeDegrees>
              <LongitudeDegrees>-72.98742949962615966796875</LongitudeDegrees>
            </Position>
            <AltitudeMeters>502.399993896484375</AltitudeMeters>
            <DistanceMeters>22207.598817874</DistanceMeters>
          </Trackpoint>
          <Trackpoint>
            <Time>2023-01-11T12:49:37.000Z</Time>
            <Position>
              <LatitudeDegrees>-49.2313575558364391326904296875</LatitudeDegrees>
              <LongitudeDegrees>-72.9874886758625507354736328125</LongitudeDegrees>
            </Position>
            <AltitudeMeters>502.399993896484375</AltitudeMeters>
            <DistanceMeters>22213.902893257</DistanceMeters>
          </Trackpoint>
          <Trackpoint>
            <Time>2023-01-11T12:49:38.000Z</Time>
            <Position>
              <LatitudeDegrees>-49.23134724609553813934326171875</LatitudeDegrees>
              <LongitudeDegrees>-72.987504266202449798583984375</LongitudeDegrees>
            </Position>
            <AltitudeMeters>502.600006103515625</AltitudeMeters>
            <DistanceMeters>22215.515550076</DistanceMeters>
          </Trackpoint>
          <Trackpoint>
            <Time>2023-01-11T12:49:44.000Z</Time>
            <Position>
              <LatitudeDegrees>-49.23128404654562473297119140625</LatitudeDegrees>
              <LongitudeDegrees>-72.98752714879810810089111328125</LongitudeDegrees>
            </Position>
            <AltitudeMeters>503</AltitudeMeters>
            <DistanceMeters>22222.743829422</DistanceMeters>
          </Trackpoint>
          <Trackpoint>
            <Time>2023-01-11T12:49:48.000Z</Time>
            <Position>
              <LatitudeDegrees>-49.2312804423272609710693359375</LatitudeDegrees>
              <LongitudeDegrees>-72.9875828884541988372802734375</LongitudeDegrees>
            </Position>
            <AltitudeMeters>503.399993896484375</AltitudeMeters>
            <DistanceMeters>22226.815588298</DistanceMeters>
          </Trackpoint>
          <Trackpoint>
            <Time>2023-01-11T12:49:49.000Z</Time>
            <Position>
              <LatitudeDegrees>-49.23127935267984867095947265625</LatitudeDegrees>
              <LongitudeDegrees>-72.98761465586721897125244140625</LongitudeDegrees>
            </Position>
            <AltitudeMeters>503.600006103515625</AltitudeMeters>
            <DistanceMeters>22229.127688049</DistanceMeters>
          </Trackpoint>
          <Trackpoint>
            <Time>2023-01-11T12:49:50.000Z</Time>
            <Position>
              <LatitudeDegrees>-49.23127390444278717041015625</LatitudeDegrees>
              <LongitudeDegrees>-72.9876589961349964141845703125</LongitudeDegrees>
            </Position>
            <AltitudeMeters>503.600006103515625</AltitudeMeters>
            <DistanceMeters>22232.405765377</DistanceMeters>
          </Trackpoint>
          <Trackpoint>
            <Time>2023-01-11T12:49:51.000Z</Time>
            <Position>
              <LatitudeDegrees>-49.231267869472503662109375</LatitudeDegrees>
              <LongitudeDegrees>-72.98767852596938610076904296875</LongitudeDegrees>
            </Position>
            <AltitudeMeters>503.600006103515625</AltitudeMeters>
            <DistanceMeters>22233.975864376</DistanceMeters>
          </Trackpoint>
          <Trackpoint>
            <Time>2023-01-11T12:49:59.000Z</Time>
            <Position>
              <LatitudeDegrees>-49.23119117505848407745361328125</LatitudeDegrees>
              <LongitudeDegrees>-72.98776687122881412506103515625</LongitudeDegrees>
            </Position>
            <AltitudeMeters>503.399993896484375</AltitudeMeters>
            <DistanceMeters>22244.657813915</DistanceMeters>
          </Trackpoint>
          <Trackpoint>
            <Time>2023-01-11T12:50:06.000Z</Time>
            <Position>
              <LatitudeDegrees>-49.231118671596050262451171875</LatitudeDegrees>
              <LongitudeDegrees>-72.98784398473799228668212890625</LongitudeDegrees>
            </Position>
            <AltitudeMeters>503.20001220703125</AltitudeMeters>
            <DistanceMeters>22254.482859319</DistanceMeters>
          </Trackpoint>
          <Trackpoint>
            <Time>2023-01-11T12:50:13.000Z</Time>
            <Position>
              <LatitudeDegrees>-49.23104616813361644744873046875</LatitudeDegrees>
              <LongitudeDegrees>-72.98792160116136074066162109375</LongitudeDegrees>
            </Position>
            <AltitudeMeters>503.20001220703125</AltitudeMeters>
            <DistanceMeters>22264.329021043</DistanceMeters>
          </Trackpoint>
          <Trackpoint>
            <Time>2023-01-11T12:50:16.000Z</Time>
            <Position>
              <LatitudeDegrees>-49.23100057058036327362060546875</LatitudeDegrees>
              <LongitudeDegrees>-72.98791891895234584808349609375</LongitudeDegrees>
            </Position>
            <AltitudeMeters>503.20001220703125</AltitudeMeters>
            <DistanceMeters>22269.408285596</DistanceMeters>
          </Trackpoint>
          <Trackpoint>
            <Time>2023-01-11T12:50:18.000Z</Time>
            <Position>
              <LatitudeDegrees>-49.23096905462443828582763671875</LatitudeDegrees>
              <LongitudeDegrees>-72.98794222064316272735595703125</LongitudeDegrees>
            </Position>
            <AltitudeMeters>503.20001220703125</AltitudeMeters>
            <DistanceMeters>22273.303221851</DistanceMeters>
          </Trackpoint>
          <Trackpoint>
            <Time>2023-01-11T12:50:25.000Z</Time>
            <Position>
              <LatitudeDegrees>-49.23094206489622592926025390625</LatitudeDegrees>
              <LongitudeDegrees>-72.98806711100041866302490234375</LongitudeDegrees>
            </Position>
            <AltitudeMeters>502.79998779296875</AltitudeMeters>
            <DistanceMeters>22282.864628333</DistanceMeters>
          </Trackpoint>
          <Trackpoint>
            <Time>2023-01-11T12:50:26.000Z</Time>
            <Position>
              <LatitudeDegrees>-49.230946339666843414306640625</LatitudeDegrees>
              <LongitudeDegrees>-72.98808437772095203399658203125</LongitudeDegrees>
            </Position>
            <AltitudeMeters>502.79998779296875</AltitudeMeters>
            <DistanceMeters>22284.208509015</DistanceMeters>
          </Trackpoint>
          <Trackpoint>
            <Time>2023-01-11T12:50:33.000Z</Time>
            <Position>
              <LatitudeDegrees>-49.2309330962598323822021484375</LatitudeDegrees>
              <LongitudeDegrees>-72.98812888562679290771484375</LongitudeDegrees>
            </Position>
            <AltitudeMeters>503.20001220703125</AltitudeMeters>
            <DistanceMeters>22287.762813018</DistanceMeters>
          </Trackpoint>
          <Trackpoint>
            <Time>2023-01-11T12:50:40.000Z</Time>
            <Position>
              <LatitudeDegrees>-49.2308703996241092681884765625</LatitudeDegrees>
              <LongitudeDegrees>-72.9882168956100940704345703125</LongitudeDegrees>
            </Position>
            <AltitudeMeters>503.600006103515625</AltitudeMeters>
            <DistanceMeters>22297.229305433</DistanceMeters>
          </Trackpoint>
          <Trackpoint>
            <Time>2023-01-11T12:50:46.000Z</Time>
            <Position>
              <LatitudeDegrees>-49.2308413982391357421875</LatitudeDegrees>
              <LongitudeDegrees>-72.9882836155593395233154296875</LongitudeDegrees>
            </Position>
            <AltitudeMeters>504.20001220703125</AltitudeMeters>
            <DistanceMeters>22303.054683298</DistanceMeters>
          </Trackpoint>
          <Trackpoint>
            <Time>2023-01-11T12:50:47.000Z</Time>
            <Position>
              <LatitudeDegrees>-49.2308402247726917266845703125</LatitudeDegrees>
              <LongitudeDegrees>-72.98830884508788585662841796875</LongitudeDegrees>
            </Position>
            <AltitudeMeters>504.399993896484375</AltitudeMeters>
            <DistanceMeters>22304.892412492</DistanceMeters>
          </Trackpoint>
          <Trackpoint>
            <Time>2023-01-11T12:50:49.000Z</Time>
            <Position>
              <LatitudeDegrees>-49.23084667883813381195068359375</LatitudeDegrees>
              <LongitudeDegrees>-72.98834723420441150665283203125</LongitudeDegrees>
            </Position>
            <AltitudeMeters>504.600006103515625</AltitudeMeters>
            <DistanceMeters>22307.774715448</DistanceMeters>
          </Trackpoint>
          <Trackpoint>
            <Time>2023-01-11T12:50:51.000Z</Time>
            <Position>
              <LatitudeDegrees>-49.23085522837936878204345703125</LatitudeDegrees>
              <LongitudeDegrees>-72.98837020061910152435302734375</LongitudeDegrees>
            </Position>
            <AltitudeMeters>504.79998779296875</AltitudeMeters>
            <DistanceMeters>22309.696511812</DistanceMeters>
          </Trackpoint>
          <Trackpoint>
            <Time>2023-01-11T12:50:58.000Z</Time>
            <Position>
              <LatitudeDegrees>-49.2308821342885494232177734375</LatitudeDegrees>
              <LongitudeDegrees>-72.9884683527052402496337890625</LongitudeDegrees>
            </Position>
            <AltitudeMeters>505.399993896484375</AltitudeMeters>
            <DistanceMeters>22317.432877022</DistanceMeters>
          </Trackpoint>
          <Trackpoint>
            <Time>2023-01-11T12:51:01.000Z</Time>
            <Position>
              <LatitudeDegrees>-49.23080543987452983856201171875</LatitudeDegrees>
              <LongitudeDegrees>-72.9884834401309490203857421875</LongitudeDegrees>
            </Position>
            <AltitudeMeters>505.399993896484375</AltitudeMeters>
            <DistanceMeters>22326.038961323</DistanceMeters>
          </Trackpoint>
          <Trackpoint>
            <Time>2023-01-11T12:51:03.000Z</Time>
            <Position>
              <LatitudeDegrees>-49.230779372155666351318359375</LatitudeDegrees>
              <LongitudeDegrees>-72.9885162971913814544677734375</LongitudeDegrees>
            </Position>
            <AltitudeMeters>505.399993896484375</AltitudeMeters>
            <DistanceMeters>22329.795822977</DistanceMeters>
          </Trackpoint>
          <Trackpoint>
            <Time>2023-01-11T12:51:07.000Z</Time>
            <Position>
              <LatitudeDegrees>-49.2307703197002410888671875</LatitudeDegrees>
              <LongitudeDegrees>-72.98857186920940876007080078125</LongitudeDegrees>
            </Position>
            <AltitudeMeters>505.399993896484375</AltitudeMeters>
            <DistanceMeters>22333.959684979</DistanceMeters>
          </Trackpoint>
          <Trackpoint>
            <Time>2023-01-11T12:51:09.000Z</Time>
            <Position>
              <LatitudeDegrees>-49.23076436854898929595947265625</LatitudeDegrees>
              <LongitudeDegrees>-72.98859986476600170135498046875</LongitudeDegrees>
            </Position>
            <AltitudeMeters>505.600006103515625</AltitudeMeters>
            <DistanceMeters>22336.099369244</DistanceMeters>
          </Trackpoint>
          <Trackpoint>
            <Time>2023-01-11T12:51:10.000Z</Time>
            <Position>
              <LatitudeDegrees>-49.23075313679873943328857421875</LatitudeDegrees>
              <LongitudeDegrees>-72.9886091686785221099853515625</LongitudeDegrees>
            </Position>
            <AltitudeMeters>505.600006103515625</AltitudeMeters>
            <DistanceMeters>22337.521598875</DistanceMeters>
          </Trackpoint>
          <Trackpoint>
            <Time>2023-01-11T12:51:15.000Z</Time>
            <Position>
              <LatitudeDegrees>-49.2307299189269542694091796875</LatitudeDegrees>
              <LongitudeDegrees>-72.98869759775698184967041015625</LongitudeDegrees>
            </Position>
            <AltitudeMeters>505.79998779296875</AltitudeMeters>
            <DistanceMeters>22344.448127309</DistanceMeters>
          </Trackpoint>
          <Trackpoint>
            <Time>2023-01-11T12:51:16.000Z</Time>
            <Position>
              <LatitudeDegrees>-49.2307285778224468231201171875</LatitudeDegrees>
              <LongitudeDegrees>-72.9887114278972148895263671875</LongitudeDegrees>
            </Position>
            <AltitudeMeters>505.79998779296875</AltitudeMeters>
            <DistanceMeters>22345.462734975</DistanceMeters>
          </Trackpoint>
          <Trackpoint>
            <Time>2023-01-11T12:51:22.000Z</Time>
            <Position>
              <LatitudeDegrees>-49.2306900210678577423095703125</LatitudeDegrees>
              <LongitudeDegrees>-72.9888120107352733612060546875</LongitudeDegrees>
            </Position>
            <AltitudeMeters>505.600006103515625</AltitudeMeters>
            <DistanceMeters>22353.940374883</DistanceMeters>
          </Trackpoint>
          <Trackpoint>
            <Time>2023-01-11T12:51:24.000Z</Time>
            <Position>
              <LatitudeDegrees>-49.2306702397763729095458984375</LatitudeDegrees>
              <LongitudeDegrees>-72.9888202250003814697265625</LongitudeDegrees>
            </Position>
            <AltitudeMeters>505.600006103515625</AltitudeMeters>
            <DistanceMeters>22356.221016028</DistanceMeters>
          </Trackpoint>
          <Trackpoint>
            <Time>2023-01-11T12:51:30.000Z</Time>
            <Position>
              <LatitudeDegrees>-49.23062925226986408233642578125</LatitudeDegrees>
              <LongitudeDegrees>-72.98886456526815891265869140625</LongitudeDegrees>
            </Position>
            <AltitudeMeters>505.79998779296875</AltitudeMeters>
            <DistanceMeters>22361.805806448</DistanceMeters>
          </Trackpoint>
          <Trackpoint>
            <Time>2023-01-11T12:51:34.000Z</Time>
            <Position>
              <LatitudeDegrees>-49.23059890978038311004638671875</LatitudeDegrees>
              <LongitudeDegrees>-72.98889960162341594696044921875</LongitudeDegrees>
            </Position>
            <AltitudeMeters>505.399993896484375</AltitudeMeters>
            <DistanceMeters>22366.036363328</DistanceMeters>
          </Trackpoint>
          <Trackpoint>
            <Time>2023-01-11T12:51:36.000Z</Time>
            <Position>
              <LatitudeDegrees>-49.23058264888823032379150390625</LatitudeDegrees>
              <LongitudeDegrees>-72.98891636542975902557373046875</LongitudeDegrees>
            </Position>
            <AltitudeMeters>505.399993896484375</AltitudeMeters>
            <DistanceMeters>22368.219910983</DistanceMeters>
          </Trackpoint>
          <Trackpoint>
            <Time>2023-01-11T12:51:41.000Z</Time>
            <Position>
              <LatitudeDegrees>-49.2305606044828891754150390625</LatitudeDegrees>
              <LongitudeDegrees>-72.98903522081673145294189453125</LongitudeDegrees>
            </Position>
            <AltitudeMeters>505.20001220703125</AltitudeMeters>
            <DistanceMeters>22377.199809794</DistanceMeters>
          </Trackpoint>
          <Trackpoint>
            <Time>2023-01-11T12:51:42.000Z</Time>
            <Position>
              <LatitudeDegrees>-49.2305471934378147125244140625</LatitudeDegrees>
              <LongitudeDegrees>-72.98904460854828357696533203125</LongitudeDegrees>
            </Position>
            <AltitudeMeters>505</AltitudeMeters>
            <DistanceMeters>22378.840225223</DistanceMeters>
          </Trackpoint>
          <Trackpoint>
            <Time>2023-01-11T12:51:47.000Z</Time>
            <Position>
              <LatitudeDegrees>-49.23049128614366054534912109375</LatitudeDegrees>
              <LongitudeDegrees>-72.98911820165812969207763671875</LongitudeDegrees>
            </Position>
            <AltitudeMeters>505</AltitudeMeters>
            <DistanceMeters>22387.045604554</DistanceMeters>
          </Trackpoint>
          <Trackpoint>
            <Time>2023-01-11T12:51:55.000Z</Time>
            <Position>
              <LatitudeDegrees>-49.230403192341327667236328125</LatitudeDegrees>
              <LongitudeDegrees>-72.98923387192189693450927734375</LongitudeDegrees>
            </Position>
            <AltitudeMeters>504.79998779296875</AltitudeMeters>
            <DistanceMeters>22399.961199861</DistanceMeters>
          </Trackpoint>
          <Trackpoint>
            <Time>2023-01-11T12:52:01.000Z</Time>
            <Position>
              <LatitudeDegrees>-49.23033957369625568389892578125</LatitudeDegrees>
              <LongitudeDegrees>-72.98930947668850421905517578125</LongitudeDegrees>
            </Position>
            <AltitudeMeters>504.600006103515625</AltitudeMeters>
            <DistanceMeters>22408.923987377</DistanceMeters>
          </Trackpoint>
          <Trackpoint>
            <Time>2023-01-11T12:52:02.000Z</Time>
            <Position>
              <LatitudeDegrees>-49.230333454906940460205078125</LatitudeDegrees>
              <LongitudeDegrees>-72.98933177255094051361083984375</LongitudeDegrees>
            </Position>
            <AltitudeMeters>504.600006103515625</AltitudeMeters>
            <DistanceMeters>22410.683906756</DistanceMeters>
          </Trackpoint>
          <Trackpoint>
            <Time>2023-01-11T12:52:04.000Z</Time>
            <Position>
              <LatitudeDegrees>-49.230319373309612274169921875</LatitudeDegrees>
              <LongitudeDegrees>-72.9893735982477664947509765625</LongitudeDegrees>
            </Position>
            <AltitudeMeters>504.600006103515625</AltitudeMeters>
            <DistanceMeters>22414.104868473</DistanceMeters>
          </Trackpoint>
          <Trackpoint>
            <Time>2023-01-11T12:52:12.000Z</Time>
            <Position>
              <LatitudeDegrees>-49.23029934056103229522705078125</LatitudeDegrees>
              <LongitudeDegrees>-72.98947778530418872833251953125</LongitudeDegrees>
            </Position>
            <AltitudeMeters>504.79998779296875</AltitudeMeters>
            <DistanceMeters>22421.998952178</DistanceMeters>
          </Trackpoint>
          <Trackpoint>
            <Time>2023-01-11T12:52:13.000Z</Time>
            <Position>
              <LatitudeDegrees>-49.23029900528490543365478515625</LatitudeDegrees>
              <LongitudeDegrees>-72.9894949682056903839111328125</LongitudeDegrees>
            </Position>
            <AltitudeMeters>504.79998779296875</AltitudeMeters>
            <DistanceMeters>22423.245215853</DistanceMeters>
          </Trackpoint>
          <Trackpoint>
            <Time>2023-01-11T12:52:17.000Z</Time>
            <Position>
              <LatitudeDegrees>-49.23034326173365116119384765625</LatitudeDegrees>
              <LongitudeDegrees>-72.9895536415278911590576171875</LongitudeDegrees>
            </Position>
            <AltitudeMeters>505</AltitudeMeters>
            <DistanceMeters>22429.760612185</DistanceMeters>
          </Trackpoint>
          <Trackpoint>
            <Time>2023-01-11T12:52:19.000Z</Time>
            <Position>
              <LatitudeDegrees>-49.230342172086238861083984375</LatitudeDegrees>
              <LongitudeDegrees>-72.98957434482872486114501953125</LongitudeDegrees>
            </Position>
            <AltitudeMeters>505</AltitudeMeters>
            <DistanceMeters>22431.26911451</DistanceMeters>
          </Trackpoint>
          <Trackpoint>
            <Time>2023-01-11T12:52:22.000Z</Time>
            <Position>
              <LatitudeDegrees>-49.23033890314400196075439453125</LatitudeDegrees>
              <LongitudeDegrees>-72.9896141588687896728515625</LongitudeDegrees>
            </Position>
            <AltitudeMeters>505.20001220703125</AltitudeMeters>
            <DistanceMeters>22434.185676186</DistanceMeters>
          </Trackpoint>
          <Trackpoint>
            <Time>2023-01-11T12:52:27.000Z</Time>
            <Position>
              <LatitudeDegrees>-49.23034342937171459197998046875</LatitudeDegrees>
              <LongitudeDegrees>-72.98967828042805194854736328125</LongitudeDegrees>
            </Position>
            <AltitudeMeters>505.600006103515625</AltitudeMeters>
            <DistanceMeters>22438.873874781</DistanceMeters>
          </Trackpoint>
          <Trackpoint>
            <Time>2023-01-11T12:52:28.000Z</Time>
            <Position>
              <LatitudeDegrees>-49.23033856786787509918212890625</LatitudeDegrees>
              <LongitudeDegrees>-72.98969035036861896514892578125</LongitudeDegrees>
            </Position>
            <AltitudeMeters>505.600006103515625</AltitudeMeters>
            <DistanceMeters>22439.90612912</DistanceMeters>
          </Trackpoint>
          <Trackpoint>
            <Time>2023-01-11T12:52:35.000Z</Time>
            <Position>
              <LatitudeDegrees>-49.23033705912530422210693359375</LatitudeDegrees>
              <LongitudeDegrees>-72.98979847691953182220458984375</LongitudeDegrees>
            </Position>
            <AltitudeMeters>506</AltitudeMeters>
            <DistanceMeters>22447.767543953</DistanceMeters>
          </Trackpoint>
          <Trackpoint>
            <Time>2023-01-11T12:52:37.000Z</Time>
            <Position>
              <LatitudeDegrees>-49.2303306050598621368408203125</LatitudeDegrees>
              <LongitudeDegrees>-72.9898272268474102020263671875</LongitudeDegrees>
            </Position>
            <AltitudeMeters>506.20001220703125</AltitudeMeters>
            <DistanceMeters>22449.97780895</DistanceMeters>
          </Trackpoint>
          <Trackpoint>
            <Time>2023-01-11T12:52:44.000Z</Time>
            <Position>
              <LatitudeDegrees>-49.2302974127233028411865234375</LatitudeDegrees>
              <LongitudeDegrees>-72.989927642047405242919921875</LongitudeDegrees>
            </Position>
            <AltitudeMeters>506.399993896484375</AltitudeMeters>
            <DistanceMeters>22458.157837462</DistanceMeters>
          </Trackpoint>
          <Trackpoint>
            <Time>2023-01-11T12:52:52.000Z</Time>
            <Position>
              <LatitudeDegrees>-49.23022507689893245697021484375</LatitudeDegrees>
              <LongitudeDegrees>-72.9900609143078327178955078125</LongitudeDegrees>
            </Position>
            <AltitudeMeters>505.600006103515625</AltitudeMeters>
            <DistanceMeters>22470.753448326</DistanceMeters>
          </Trackpoint>
          <Trackpoint>
            <Time>2023-01-11T12:53:01.000Z</Time>
            <Position>
              <LatitudeDegrees>-49.23018869943916797637939453125</LatitudeDegrees>
              <LongitudeDegrees>-72.99019376747310161590576171875</LongitudeDegrees>
            </Position>
            <AltitudeMeters>505.600006103515625</AltitudeMeters>
            <DistanceMeters>22481.223650235</DistanceMeters>
          </Trackpoint>
          <Trackpoint>
            <Time>2023-01-11T12:53:07.000Z</Time>
            <Position>
              <LatitudeDegrees>-49.23019741661846637725830078125</LatitudeDegrees>
              <LongitudeDegrees>-72.99028680659830570220947265625</LongitudeDegrees>
            </Position>
            <AltitudeMeters>505.600006103515625</AltitudeMeters>
            <DistanceMeters>22488.055006987</DistanceMeters>
          </Trackpoint>
          <Trackpoint>
            <Time>2023-01-11T12:53:12.000Z</Time>
            <Position>
              <LatitudeDegrees>-49.2301961593329906463623046875</LatitudeDegrees>
              <LongitudeDegrees>-72.990382947027683258056640625</LongitudeDegrees>
            </Position>
            <AltitudeMeters>505.399993896484375</AltitudeMeters>
            <DistanceMeters>22495.043832602</DistanceMeters>
          </Trackpoint>
          <Trackpoint>
            <Time>2023-01-11T12:53:17.000Z</Time>
            <Position>
              <LatitudeDegrees>-49.23018383793532848358154296875</LatitudeDegrees>
              <LongitudeDegrees>-72.99046534113585948944091796875</LongitudeDegrees>
            </Position>
            <AltitudeMeters>505.600006103515625</AltitudeMeters>
            <DistanceMeters>22501.187587117</DistanceMeters>
          </Trackpoint>
          <Trackpoint>
            <Time>2023-01-11T12:53:18.000Z</Time>
            <Position>
              <LatitudeDegrees>-49.230180568993091583251953125</LatitudeDegrees>
              <LongitudeDegrees>-72.9904786683619022369384765625</LongitudeDegrees>
            </Position>
            <AltitudeMeters>505.79998779296875</AltitudeMeters>
            <DistanceMeters>22502.219841456</DistanceMeters>
          </Trackpoint>
          <Trackpoint>
            <Time>2023-01-11T12:53:19.000Z</Time>
            <Position>
              <LatitudeDegrees>-49.230179898440837860107421875</LatitudeDegrees>
              <LongitudeDegrees>-72.9904966056346893310546875</LongitudeDegrees>
            </Position>
            <AltitudeMeters>505.79998779296875</AltitudeMeters>
            <DistanceMeters>22503.522782119</DistanceMeters>
          </Trackpoint>
          <Trackpoint>
            <Time>2023-01-11T12:53:27.000Z</Time>
            <Position>
              <LatitudeDegrees>-49.23016070388257503509521484375</LatitudeDegrees>
              <LongitudeDegrees>-72.99062065780162811279296875</LongitudeDegrees>
            </Position>
            <AltitudeMeters>505.600006103515625</AltitudeMeters>
            <DistanceMeters>22512.788739535</DistanceMeters>
          </Trackpoint>
          <Trackpoint>
            <Time>2023-01-11T12:53:32.000Z</Time>
            <Position>
              <LatitudeDegrees>-49.2301586084067821502685546875</LatitudeDegrees>
              <LongitudeDegrees>-72.99072937108576297760009765625</LongitudeDegrees>
            </Position>
            <AltitudeMeters>505.600006103515625</AltitudeMeters>
            <DistanceMeters>22520.693682861</DistanceMeters>
          </Trackpoint>
          <Trackpoint>
            <Time>2023-01-11T12:53:36.000Z</Time>
            <Position>
              <LatitudeDegrees>-49.2301587760448455810546875</LatitudeDegrees>
              <LongitudeDegrees>-72.99079366028308868408203125</LongitudeDegrees>
            </Position>
            <AltitudeMeters>505.600006103515625</AltitudeMeters>
            <DistanceMeters>22525.366447015</DistanceMeters>
          </Trackpoint>
          <Trackpoint>
            <Time>2023-01-11T12:53:44.000Z</Time>
            <Position>
              <LatitudeDegrees>-49.2301287688314914703369140625</LatitudeDegrees>
              <LongitudeDegrees>-72.99091595225036144256591796875</LongitudeDegrees>
            </Position>
            <AltitudeMeters>505.79998779296875</AltitudeMeters>
            <DistanceMeters>22534.861513272</DistanceMeters>
          </Trackpoint>
          <Trackpoint>
            <Time>2023-01-11T12:53:50.000Z</Time>
            <Position>
              <LatitudeDegrees>-49.230128936469554901123046875</LatitudeDegrees>
              <LongitudeDegrees>-72.9909326322376728057861328125</LongitudeDegrees>
            </Position>
            <AltitudeMeters>505.79998779296875</AltitudeMeters>
            <DistanceMeters>22536.071005886</DistanceMeters>
          </Trackpoint>
          <Trackpoint>
            <Time>2023-01-11T12:53:53.000Z</Time>
            <Position>
              <LatitudeDegrees>-49.230153076350688934326171875</LatitudeDegrees>
              <LongitudeDegrees>-72.99095769412815570831298828125</LongitudeDegrees>
            </Position>
            <AltitudeMeters>506</AltitudeMeters>
            <DistanceMeters>22539.3158586</DistanceMeters>
          </Trackpoint>
          <Trackpoint>
            <Time>2023-01-11T12:53:58.000Z</Time>
            <Position>
              <LatitudeDegrees>-49.23019607551395893096923828125</LatitudeDegrees>
              <LongitudeDegrees>-72.99100630916655063629150390625</LongitudeDegrees>
            </Position>
            <AltitudeMeters>506.399993896484375</AltitudeMeters>
            <DistanceMeters>22545.264713076</DistanceMeters>
          </Trackpoint>
          <Trackpoint>
            <Time>2023-01-11T12:54:04.000Z</Time>
            <Position>
              <LatitudeDegrees>-49.23024452291429042816162109375</LatitudeDegrees>
              <LongitudeDegrees>-72.99106850288808345794677734375</LongitudeDegrees>
            </Position>
            <AltitudeMeters>506.600006103515625</AltitudeMeters>
            <DistanceMeters>22552.300541319</DistanceMeters>
          </Trackpoint>
          <Trackpoint>
            <Time>2023-01-11T12:54:07.000Z</Time>
            <Position>
              <LatitudeDegrees>-49.23026145435869693756103515625</LatitudeDegrees>
              <LongitudeDegrees>-72.99109272658824920654296875</LongitudeDegrees>
            </Position>
            <AltitudeMeters>506.79998779296875</AltitudeMeters>
            <DistanceMeters>22554.880302227</DistanceMeters>
          </Trackpoint>
          <Trackpoint>
            <Time>2023-01-11T12:54:11.000Z</Time>
            <Position>
              <LatitudeDegrees>-49.2302955687046051025390625</LatitudeDegrees>
              <LongitudeDegrees>-72.99116338603198528289794921875</LongitudeDegrees>
            </Position>
            <AltitudeMeters>507.399993896484375</AltitudeMeters>
            <DistanceMeters>22561.267624465</DistanceMeters>
          </Trackpoint>
          <Trackpoint>
            <Time>2023-01-11T12:54:13.000Z</Time>
            <Position>
              <LatitudeDegrees>-49.23030160367488861083984375</LatitudeDegrees>
              <LongitudeDegrees>-72.99119330942630767822265625</LongitudeDegrees>
            </Position>
            <AltitudeMeters>507.600006103515625</AltitudeMeters>
            <DistanceMeters>22563.54430272</DistanceMeters>
          </Trackpoint>
          <Trackpoint>
            <Time>2023-01-11T12:54:14.000Z</Time>
            <Position>
              <LatitudeDegrees>-49.2303037829697132110595703125</LatitudeDegrees>
              <LongitudeDegrees>-72.9912102408707141876220703125</LongitudeDegrees>
            </Position>
            <AltitudeMeters>507.600006103515625</AltitudeMeters>
            <DistanceMeters>22564.797791173</DistanceMeters>
          </Trackpoint>
          <Trackpoint>
            <Time>2023-01-11T12:54:15.000Z</Time>
            <Position>
              <LatitudeDegrees>-49.23030772246420383453369140625</LatitudeDegrees>
              <LongitudeDegrees>-72.99122440628707408905029296875</LongitudeDegrees>
            </Position>
            <AltitudeMeters>507.79998779296875</AltitudeMeters>
            <DistanceMeters>22565.914102308</DistanceMeters>
          </Trackpoint>
          <Trackpoint>
            <Time>2023-01-11T12:54:20.000Z</Time>
            <Position>
              <LatitudeDegrees>-49.23032029531896114349365234375</LatitudeDegrees>
              <LongitudeDegrees>-72.99131023697555065155029296875</LongitudeDegrees>
            </Position>
            <AltitudeMeters>508.399993896484375</AltitudeMeters>
            <DistanceMeters>22572.307077045</DistanceMeters>
          </Trackpoint>
          <Trackpoint>
            <Time>2023-01-11T12:54:25.000Z</Time>
            <Position>
              <LatitudeDegrees>-49.23037444241344928741455078125</LatitudeDegrees>
              <LongitudeDegrees>-72.9914445988833904266357421875</LongitudeDegrees>
            </Position>
            <AltitudeMeters>508.79998779296875</AltitudeMeters>
            <DistanceMeters>22583.782905331</DistanceMeters>
          </Trackpoint>
          <Trackpoint>
            <Time>2023-01-11T12:54:27.000Z</Time>
            <Position>
              <LatitudeDegrees>-49.23036756925284862518310546875</LatitudeDegrees>
              <LongitudeDegrees>-72.9914955608546733856201171875</LongitudeDegrees>
            </Position>
            <AltitudeMeters>509</AltitudeMeters>
            <DistanceMeters>22587.56492081</DistanceMeters>
          </Trackpoint>
          <Trackpoint>
            <Time>2023-01-11T12:54:30.000Z</Time>
            <Position>
              <LatitudeDegrees>-49.23031560145318508148193359375</LatitudeDegrees>
              <LongitudeDegrees>-72.991532944142818450927734375</LongitudeDegrees>
            </Position>
            <AltitudeMeters>509.20001220703125</AltitudeMeters>
            <DistanceMeters>22593.955776446</DistanceMeters>
          </Trackpoint>
          <Trackpoint>
            <Time>2023-01-11T12:54:34.000Z</Time>
            <Position>
              <LatitudeDegrees>-49.23029313795268535614013671875</LatitudeDegrees>
              <LongitudeDegrees>-72.99159505404531955718994140625</LongitudeDegrees>
            </Position>
            <AltitudeMeters>509.399993896484375</AltitudeMeters>
            <DistanceMeters>22599.115298261</DistanceMeters>
          </Trackpoint>
          <Trackpoint>
            <Time>2023-01-11T12:54:41.000Z</Time>
            <Position>
              <LatitudeDegrees>-49.23023865558207035064697265625</LatitudeDegrees>
              <LongitudeDegrees>-72.9916870035231113433837890625</LongitudeDegrees>
            </Position>
            <AltitudeMeters>509.399993896484375</AltitudeMeters>
            <DistanceMeters>22608.139334463</DistanceMeters>
          </Trackpoint>
          <Trackpoint>
            <Time>2023-01-11T12:54:43.000Z</Time>
            <Position>
              <LatitudeDegrees>-49.230236895382404327392578125</LatitudeDegrees>
              <LongitudeDegrees>-72.99171692691743373870849609375</LongitudeDegrees>
            </Position>
            <AltitudeMeters>509.399993896484375</AltitudeMeters>
            <DistanceMeters>22610.322882118</DistanceMeters>
          </Trackpoint>
          <Trackpoint>
            <Time>2023-01-11T12:54:49.000Z</Time>
            <Position>
              <LatitudeDegrees>-49.2302005179226398468017578125</LatitudeDegrees>
              <LongitudeDegrees>-72.99181197769939899444580078125</LongitudeDegrees>
            </Position>
            <AltitudeMeters>509.79998779296875</AltitudeMeters>
            <DistanceMeters>22618.329975395</DistanceMeters>
          </Trackpoint>
          <Trackpoint>
            <Time>2023-01-11T12:54:57.000Z</Time>
            <Position>
              <LatitudeDegrees>-49.23016120679676532745361328125</LatitudeDegrees>
              <LongitudeDegrees>-72.99196100793778896331787109375</LongitudeDegrees>
            </Position>
            <AltitudeMeters>510</AltitudeMeters>
            <DistanceMeters>22630.012079028</DistanceMeters>
          </Trackpoint>
          <Trackpoint>
            <Time>2023-01-11T12:55:05.000Z</Time>
            <Position>
              <LatitudeDegrees>-49.23009281046688556671142578125</LatitudeDegrees>
              <LongitudeDegrees>-72.9920849762856960296630859375</LongitudeDegrees>
            </Position>
            <AltitudeMeters>510.20001220703125</AltitudeMeters>
            <DistanceMeters>22641.807646749</DistanceMeters>
          </Trackpoint>
          <Trackpoint>
            <Time>2023-01-11T12:55:06.000Z</Time>
            <Position>
              <LatitudeDegrees>-49.23008191399276256561279296875</LatitudeDegrees>
              <LongitudeDegrees>-72.99209478311240673065185546875</LongitudeDegrees>
            </Position>
            <AltitudeMeters>510.20001220703125</AltitudeMeters>
            <DistanceMeters>22643.2171207</DistanceMeters>
          </Trackpoint>
          <Trackpoint>
            <Time>2023-01-11T12:55:07.000Z</Time>
            <Position>
              <LatitudeDegrees>-49.230074621737003326416015625</LatitudeDegrees>
              <LongitudeDegrees>-72.99210450612008571624755859375</LongitudeDegrees>
            </Position>
            <AltitudeMeters>510.399993896484375</AltitudeMeters>
            <DistanceMeters>22644.296416702</DistanceMeters>
          </Trackpoint>
          <Trackpoint>
            <Time>2023-01-11T12:55:11.000Z</Time>
            <Position>
              <LatitudeDegrees>-49.23004838638007640838623046875</LatitudeDegrees>
              <LongitudeDegrees>-72.99214683473110198974609375</LongitudeDegrees>
            </Position>
            <AltitudeMeters>510.399993896484375</AltitudeMeters>
            <DistanceMeters>22648.537632598</DistanceMeters>
          </Trackpoint>
          <Trackpoint>
            <Time>2023-01-11T12:55:18.000Z</Time>
            <Position>
              <LatitudeDegrees>-49.22994461841881275177001953125</LatitudeDegrees>
              <LongitudeDegrees>-72.9922100342810153961181640625</LongitudeDegrees>
            </Position>
            <AltitudeMeters>510.600006103515625</AltitudeMeters>
            <DistanceMeters>22660.967257608</DistanceMeters>
          </Trackpoint>
          <Trackpoint>
            <Time>2023-01-11T12:55:25.000Z</Time>
            <Position>
              <LatitudeDegrees>-49.22985409386456012725830078125</LatitudeDegrees>
              <LongitudeDegrees>-72.99225144088268280029296875</LongitudeDegrees>
            </Position>
            <AltitudeMeters>510.600006103515625</AltitudeMeters>
            <DistanceMeters>22671.483070279</DistanceMeters>
          </Trackpoint>
          <Trackpoint>
            <Time>2023-01-11T12:55:30.000Z</Time>
            <Position>
              <LatitudeDegrees>-49.2297566123306751251220703125</LatitudeDegrees>
              <LongitudeDegrees>-72.992264516651630401611328125</LongitudeDegrees>
            </Position>
            <AltitudeMeters>510.20001220703125</AltitudeMeters>
            <DistanceMeters>22682.375138233</DistanceMeters>
          </Trackpoint>
          <Trackpoint>
            <Time>2023-01-11T12:55:34.000Z</Time>
            <Position>
              <LatitudeDegrees>-49.22968042083084583282470703125</LatitudeDegrees>
              <LongitudeDegrees>-72.992287985980510711669921875</LongitudeDegrees>
            </Position>
            <AltitudeMeters>510</AltitudeMeters>
            <DistanceMeters>22691.025701422</DistanceMeters>
          </Trackpoint>
          <Trackpoint>
            <Time>2023-01-11T12:55:40.000Z</Time>
            <Position>
              <LatitudeDegrees>-49.22964974306523799896240234375</LatitudeDegrees>
              <LongitudeDegrees>-72.99229678697884082794189453125</LongitudeDegrees>
            </Position>
            <AltitudeMeters>509.79998779296875</AltitudeMeters>
            <DistanceMeters>22694.50035424</DistanceMeters>
          </Trackpoint>
          <Trackpoint>
            <Time>2023-01-11T12:55:41.000Z</Time>
            <Position>
              <LatitudeDegrees>-49.22963934950530529022216796875</LatitudeDegrees>
              <LongitudeDegrees>-72.99230030737817287445068359375</LongitudeDegrees>
            </Position>
            <AltitudeMeters>509.79998779296875</AltitudeMeters>
            <DistanceMeters>22695.683427293</DistanceMeters>
          </Trackpoint>
          <Trackpoint>
            <Time>2023-01-11T12:55:43.000Z</Time>
            <Position>
              <LatitudeDegrees>-49.22964421100914478302001953125</LatitudeDegrees>
              <LongitudeDegrees>-72.99232930876314640045166015625</LongitudeDegrees>
            </Position>
            <AltitudeMeters>509.79998779296875</AltitudeMeters>
            <DistanceMeters>22697.862835518</DistanceMeters>
          </Trackpoint>
          <Trackpoint>
            <Time>2023-01-11T12:55:47.000Z</Time>
            <Position>
              <LatitudeDegrees>-49.22965208999812602996826171875</LatitudeDegrees>
              <LongitudeDegrees>-72.9923783428966999053955078125</LongitudeDegrees>
            </Position>
            <AltitudeMeters>509.79998779296875</AltitudeMeters>
            <DistanceMeters>22701.533376902</DistanceMeters>
          </Trackpoint>
          <Trackpoint>
            <Time>2023-01-11T12:55:49.000Z</Time>
            <Position>
              <LatitudeDegrees>-49.2296396009624004364013671875</LatitudeDegrees>
              <LongitudeDegrees>-72.9924063384532928466796875</LongitudeDegrees>
            </Position>
            <AltitudeMeters>509.79998779296875</AltitudeMeters>
            <DistanceMeters>22703.99858307</DistanceMeters>
          </Trackpoint>
          <Trackpoint>
            <Time>2023-01-11T12:55:51.000Z</Time>
            <Position>
              <LatitudeDegrees>-49.2296278662979602813720703125</LatitudeDegrees>
              <LongitudeDegrees>-72.99244045279920101165771484375</LongitudeDegrees>
            </Position>
            <AltitudeMeters>510</AltitudeMeters>
            <DistanceMeters>22706.801468459</DistanceMeters>
          </Trackpoint>
          <Trackpoint>
            <Time>2023-01-11T12:55:53.000Z</Time>
            <Position>
              <LatitudeDegrees>-49.22963733784854412078857421875</LatitudeDegrees>
              <LongitudeDegrees>-72.9924822784960269927978515625</LongitudeDegrees>
            </Position>
            <AltitudeMeters>510</AltitudeMeters>
            <DistanceMeters>22710.018371878</DistanceMeters>
          </Trackpoint>
          <Trackpoint>
            <Time>2023-01-11T12:56:01.000Z</Time>
            <Position>
              <LatitudeDegrees>-49.22957346774637699127197265625</LatitudeDegrees>
              <LongitudeDegrees>-72.99256551079452037811279296875</LongitudeDegrees>
            </Position>
            <AltitudeMeters>510.600006103515625</AltitudeMeters>
            <DistanceMeters>22719.353265433</DistanceMeters>
          </Trackpoint>
          <Trackpoint>
            <Time>2023-01-11T12:56:07.000Z</Time>
            <Position>
              <LatitudeDegrees>-49.22949400730431079864501953125</LatitudeDegrees>
              <LongitudeDegrees>-72.99260281026363372802734375</LongitudeDegrees>
            </Position>
            <AltitudeMeters>510.600006103515625</AltitudeMeters>
            <DistanceMeters>22728.604105095</DistanceMeters>
          </Trackpoint>
          <Trackpoint>
            <Time>2023-01-11T12:56:10.000Z</Time>
            <Position>
              <LatitudeDegrees>-49.22947389073669910430908203125</LatitudeDegrees>
              <LongitudeDegrees>-72.992627285420894622802734375</LongitudeDegrees>
            </Position>
            <AltitudeMeters>510.399993896484375</AltitudeMeters>
            <DistanceMeters>22731.465971503</DistanceMeters>
          </Trackpoint>
          <Trackpoint>
            <Time>2023-01-11T12:56:17.000Z</Time>
            <Position>
              <LatitudeDegrees>-49.22946207225322723388671875</LatitudeDegrees>
              <LongitudeDegrees>-72.992707081139087677001953125</LongitudeDegrees>
            </Position>
            <AltitudeMeters>510.600006103515625</AltitudeMeters>
            <DistanceMeters>22737.413307833</DistanceMeters>
          </Trackpoint>
          <Trackpoint>
            <Time>2023-01-11T12:56:19.000Z</Time>
            <Position>
              <LatitudeDegrees>-49.2294696159660816192626953125</LatitudeDegrees>
              <LongitudeDegrees>-72.99274153076112270355224609375</LongitudeDegrees>
            </Position>
            <AltitudeMeters>510.600006103515625</AltitudeMeters>
            <DistanceMeters>22740.053614447</DistanceMeters>
          </Trackpoint>
          <Trackpoint>
            <Time>2023-01-11T12:56:22.000Z</Time>
            <Position>
              <LatitudeDegrees>-49.22945000231266021728515625</LatitudeDegrees>
              <LongitudeDegrees>-72.9927657544612884521484375</LongitudeDegrees>
            </Position>
            <AltitudeMeters>510.79998779296875</AltitudeMeters>
            <DistanceMeters>22742.859719694</DistanceMeters>
          </Trackpoint>
          <Trackpoint>
            <Time>2023-01-11T12:56:27.000Z</Time>
            <Position>
              <LatitudeDegrees>-49.22944463789463043212890625</LatitudeDegrees>
              <LongitudeDegrees>-72.99286927096545696258544921875</LongitudeDegrees>
            </Position>
            <AltitudeMeters>510.79998779296875</AltitudeMeters>
            <DistanceMeters>22750.407616904</DistanceMeters>
          </Trackpoint>
          <Trackpoint>
            <Time>2023-01-11T12:56:29.000Z</Time>
            <Position>
              <LatitudeDegrees>-49.22943952493369579315185546875</LatitudeDegrees>
              <LongitudeDegrees>-72.992882095277309417724609375</LongitudeDegrees>
            </Position>
            <AltitudeMeters>510.79998779296875</AltitudeMeters>
            <DistanceMeters>22751.499390732</DistanceMeters>
          </Trackpoint>
          <Trackpoint>
            <Time>2023-01-11T12:56:30.000Z</Time>
            <Position>
              <LatitudeDegrees>-49.229451678693294525146484375</LatitudeDegrees>
              <LongitudeDegrees>-72.9929080791771411895751953125</LongitudeDegrees>
            </Position>
            <AltitudeMeters>510.79998779296875</AltitudeMeters>
            <DistanceMeters>22753.823177665</DistanceMeters>
          </Trackpoint>
          <Trackpoint>
            <Time>2023-01-11T12:56:31.000Z</Time>
            <Position>
              <LatitudeDegrees>-49.22946131788194179534912109375</LatitudeDegrees>
              <LongitudeDegrees>-72.99291788600385189056396484375</LongitudeDegrees>
            </Position>
            <AltitudeMeters>510.79998779296875</AltitudeMeters>
            <DistanceMeters>22755.112182733</DistanceMeters>
          </Trackpoint>
          <Trackpoint>
            <Time>2023-01-11T12:56:35.000Z</Time>
            <Position>
              <LatitudeDegrees>-49.22949685715138912200927734375</LatitudeDegrees>
              <LongitudeDegrees>-72.993002124130725860595703125</LongitudeDegrees>
            </Position>
            <AltitudeMeters>510.79998779296875</AltitudeMeters>
            <DistanceMeters>22762.401419305</DistanceMeters>
          </Trackpoint>
          <Trackpoint>
            <Time>2023-01-11T12:56:38.000Z</Time>
            <Position>
              <LatitudeDegrees>-49.2295098491013050079345703125</LatitudeDegrees>
              <LongitudeDegrees>-72.99303908832371234893798828125</LongitudeDegrees>
            </Position>
            <AltitudeMeters>510.79998779296875</AltitudeMeters>
            <DistanceMeters>22765.451169907</DistanceMeters>
          </Trackpoint>
          <Trackpoint>
            <Time>2023-01-11T12:56:49.000Z</Time>
            <Position>
              <LatitudeDegrees>-49.22955804504454135894775390625</LatitudeDegrees>
              <LongitudeDegrees>-72.99317839555442333221435546875</LongitudeDegrees>
            </Position>
            <AltitudeMeters>511.20001220703125</AltitudeMeters>
            <DistanceMeters>22776.909673802</DistanceMeters>
          </Trackpoint>
          <Trackpoint>
            <Time>2023-01-11T12:56:51.000Z</Time>
            <Position>
              <LatitudeDegrees>-49.22957061789929866790771484375</LatitudeDegrees>
              <LongitudeDegrees>-72.99320161342620849609375</LongitudeDegrees>
            </Position>
            <AltitudeMeters>511.399993896484375</AltitudeMeters>
            <DistanceMeters>22779.101476865</DistanceMeters>
          </Trackpoint>
          <Trackpoint>
            <Time>2023-01-11T12:56:56.000Z</Time>
            <Position>
              <LatitudeDegrees>-49.22960129566490650177001953125</LatitudeDegrees>
              <LongitudeDegrees>-72.99327797256410121917724609375</LongitudeDegrees>
            </Position>
            <AltitudeMeters>511.399993896484375</AltitudeMeters>
            <DistanceMeters>22785.61756614</DistanceMeters>
          </Trackpoint>
          <Trackpoint>
            <Time>2023-01-11T12:57:00.000Z</Time>
            <Position>
              <LatitudeDegrees>-49.22961856238543987274169921875</LatitudeDegrees>
              <LongitudeDegrees>-72.99335089512169361114501953125</LongitudeDegrees>
            </Position>
            <AltitudeMeters>512</AltitudeMeters>
            <DistanceMeters>22791.256262723</DistanceMeters>
          </Trackpoint>
          <Trackpoint>
            <Time>2023-01-11T12:57:05.000Z</Time>
            <Position>
              <LatitudeDegrees>-49.2296397686004638671875</LatitudeDegrees>
              <LongitudeDegrees>-72.99341149628162384033203125</LongitudeDegrees>
            </Position>
            <AltitudeMeters>512.4000244140625</AltitudeMeters>
            <DistanceMeters>22796.253981347</DistanceMeters>
          </Trackpoint>
          <Trackpoint>
            <Time>2023-01-11T12:57:06.000Z</Time>
            <Position>
              <LatitudeDegrees>-49.22964236699044704437255859375</LatitudeDegrees>
              <LongitudeDegrees>-72.99342348240315914154052734375</LongitudeDegrees>
            </Position>
            <AltitudeMeters>512.4000244140625</AltitudeMeters>
            <DistanceMeters>22797.165445572</DistanceMeters>
          </Trackpoint>
          <Trackpoint>
            <Time>2023-01-11T12:57:10.000Z</Time>
            <Position>
              <LatitudeDegrees>-49.22965929843485355377197265625</LatitudeDegrees>
              <LongitudeDegrees>-72.99349187873303890228271484375</LongitudeDegrees>
            </Position>
            <AltitudeMeters>512.4000244140625</AltitudeMeters>
            <DistanceMeters>22802.481848423</DistanceMeters>
          </Trackpoint>
          <Trackpoint>
            <Time>2023-01-11T12:57:13.000Z</Time>
            <Position>
              <LatitudeDegrees>-49.22966315411031246185302734375</LatitudeDegrees>
              <LongitudeDegrees>-72.99354954622685909271240234375</LongitudeDegrees>
            </Position>
            <AltitudeMeters>512.4000244140625</AltitudeMeters>
            <DistanceMeters>22806.694223075</DistanceMeters>
          </Trackpoint>
          <Trackpoint>
            <Time>2023-01-11T12:57:20.000Z</Time>
            <Position>
              <LatitudeDegrees>-49.22965963371098041534423828125</LatitudeDegrees>
              <LongitudeDegrees>-72.99364753067493438720703125</LongitudeDegrees>
            </Position>
            <AltitudeMeters>512.79998779296875</AltitudeMeters>
            <DistanceMeters>22813.826292943</DistanceMeters>
          </Trackpoint>
          <Trackpoint>
            <Time>2023-01-11T12:57:21.000Z</Time>
            <Position>
              <LatitudeDegrees>-49.2296664230525493621826171875</LatitudeDegrees>
              <LongitudeDegrees>-72.99366655759513378143310546875</LongitudeDegrees>
            </Position>
            <AltitudeMeters>512.79998779296875</AltitudeMeters>
            <DistanceMeters>22815.399264954</DistanceMeters>
          </Trackpoint>
          <Trackpoint>
            <Time>2023-01-11T12:57:26.000Z</Time>
            <Position>
              <LatitudeDegrees>-49.22968360595405101776123046875</LatitudeDegrees>
              <LongitudeDegrees>-72.9937610216438770294189453125</LongitudeDegrees>
            </Position>
            <AltitudeMeters>512.4000244140625</AltitudeMeters>
            <DistanceMeters>22822.526268532</DistanceMeters>
          </Trackpoint>
          <Trackpoint>
            <Time>2023-01-11T12:57:29.000Z</Time>
            <Position>
              <LatitudeDegrees>-49.22968192957341670989990234375</LatitudeDegrees>
              <LongitudeDegrees>-72.99379781819880008697509765625</LongitudeDegrees>
            </Position>
            <AltitudeMeters>512.20001220703125</AltitudeMeters>
            <DistanceMeters>22825.207302073</DistanceMeters>
          </Trackpoint>
          <Trackpoint>
            <Time>2023-01-11T12:57:32.000Z</Time>
            <Position>
              <LatitudeDegrees>-49.22969316132366657257080078125</LatitudeDegrees>
              <LongitudeDegrees>-72.99386269412934780120849609375</LongitudeDegrees>
            </Position>
            <AltitudeMeters>511.79998779296875</AltitudeMeters>
            <DistanceMeters>22830.08616275</DistanceMeters>
          </Trackpoint>
          <Trackpoint>
            <Time>2023-01-11T12:57:40.000Z</Time>
            <Position>
              <LatitudeDegrees>-49.2297019623219966888427734375</LatitudeDegrees>
              <LongitudeDegrees>-72.9940451681613922119140625</LongitudeDegrees>
            </Position>
            <AltitudeMeters>511.399993896484375</AltitudeMeters>
            <DistanceMeters>22843.385150577</DistanceMeters>
          </Trackpoint>
          <Trackpoint>
            <Time>2023-01-11T12:57:41.000Z</Time>
            <Position>
              <LatitudeDegrees>-49.2297056503593921661376953125</LatitudeDegrees>
              <LongitudeDegrees>-72.99407140351831912994384765625</LongitudeDegrees>
            </Position>
            <AltitudeMeters>511.399993896484375</AltitudeMeters>
            <DistanceMeters>22845.332618704</DistanceMeters>
          </Trackpoint>
          <Trackpoint>
            <Time>2023-01-11T12:57:51.000Z</Time>
            <Position>
              <LatitudeDegrees>-49.22971545718610286712646484375</LatitudeDegrees>
              <LongitudeDegrees>-72.99421657808125019073486328125</LongitudeDegrees>
            </Position>
            <AltitudeMeters>511.399993896484375</AltitudeMeters>
            <DistanceMeters>22855.940767112</DistanceMeters>
          </Trackpoint>
          <Trackpoint>
            <Time>2023-01-11T12:57:53.000Z</Time>
            <Position>
              <LatitudeDegrees>-49.2297418601810932159423828125</LatitudeDegrees>
              <LongitudeDegrees>-72.9942699708044528961181640625</LongitudeDegrees>
            </Position>
            <AltitudeMeters>511.399993896484375</AltitudeMeters>
            <DistanceMeters>22860.808509976</DistanceMeters>
          </Trackpoint>
          <Trackpoint>
            <Time>2023-01-11T12:57:57.000Z</Time>
            <Position>
              <LatitudeDegrees>-49.22978720627725124359130859375</LatitudeDegrees>
              <LongitudeDegrees>-72.99436527304351329803466796875</LongitudeDegrees>
            </Position>
            <AltitudeMeters>511.399993896484375</AltitudeMeters>
            <DistanceMeters>22869.379898542</DistanceMeters>
          </Trackpoint>
          <Trackpoint>
            <Time>2023-01-11T12:57:58.000Z</Time>
            <Position>
              <LatitudeDegrees>-49.2297894693911075592041015625</LatitudeDegrees>
              <LongitudeDegrees>-72.994389496743679046630859375</LongitudeDegrees>
            </Position>
            <AltitudeMeters>511.399993896484375</AltitudeMeters>
            <DistanceMeters>22871.160223465</DistanceMeters>
          </Trackpoint>
          <Trackpoint>
            <Time>2023-01-11T12:58:04.000Z</Time>
            <Position>
              <LatitudeDegrees>-49.22975736670196056365966796875</LatitudeDegrees>
              <LongitudeDegrees>-72.99448094330728054046630859375</LongitudeDegrees>
            </Position>
            <AltitudeMeters>511.399993896484375</AltitudeMeters>
            <DistanceMeters>22878.706325907</DistanceMeters>
          </Trackpoint>
          <Trackpoint>
            <Time>2023-01-11T12:58:06.000Z</Time>
            <Position>
              <LatitudeDegrees>-49.229736328125</LatitudeDegrees>
              <LongitudeDegrees>-72.9944999702274799346923828125</LongitudeDegrees>
            </Position>
            <AltitudeMeters>511.399993896484375</AltitudeMeters>
            <DistanceMeters>22881.427476892</DistanceMeters>
          </Trackpoint>
          <Trackpoint>
            <Time>2023-01-11T12:58:13.000Z</Time>
            <Position>
              <LatitudeDegrees>-49.22970741055905818939208984375</LatitudeDegrees>
              <LongitudeDegrees>-72.99460918642580509185791015625</LongitudeDegrees>
            </Position>
            <AltitudeMeters>511.399993896484375</AltitudeMeters>
            <DistanceMeters>22889.993596269</DistanceMeters>
          </Trackpoint>
          <Trackpoint>
            <Time>2023-01-11T12:58:20.000Z</Time>
            <Position>
              <LatitudeDegrees>-49.22973037697374820709228515625</LatitudeDegrees>
              <LongitudeDegrees>-72.99470071680843830108642578125</LongitudeDegrees>
            </Position>
            <AltitudeMeters>511.399993896484375</AltitudeMeters>
            <DistanceMeters>22897.119966307</DistanceMeters>
          </Trackpoint>
          <Trackpoint>
            <Time>2023-01-11T12:58:28.000Z</Time>
            <Position>
              <LatitudeDegrees>-49.2297814227640628814697265625</LatitudeDegrees>
              <LongitudeDegrees>-72.9948275350034236907958984375</LongitudeDegrees>
            </Position>
            <AltitudeMeters>511.600006103515625</AltitudeMeters>
            <DistanceMeters>22907.948009184</DistanceMeters>
          </Trackpoint>
          <Trackpoint>
            <Time>2023-01-11T12:58:29.000Z</Time>
            <Position>
              <LatitudeDegrees>-49.22977387905120849609375</LatitudeDegrees>
              <LongitudeDegrees>-72.99484455026686191558837890625</LongitudeDegrees>
            </Position>
            <AltitudeMeters>511.600006103515625</AltitudeMeters>
            <DistanceMeters>22909.438444961</DistanceMeters>
          </Trackpoint>
          <Trackpoint>
            <Time>2023-01-11T12:58:35.000Z</Time>
            <Position>
              <LatitudeDegrees>-49.229809083044528961181640625</LatitudeDegrees>
              <LongitudeDegrees>-72.9949690215289592742919921875</LongitudeDegrees>
            </Position>
            <AltitudeMeters>511.600006103515625</AltitudeMeters>
            <DistanceMeters>22919.297437955</DistanceMeters>
          </Trackpoint>
          <Trackpoint>
            <Time>2023-01-11T12:58:38.000Z</Time>
            <Position>
              <LatitudeDegrees>-49.2298166267573833465576171875</LatitudeDegrees>
              <LongitudeDegrees>-72.99504320137202739715576171875</LongitudeDegrees>
            </Position>
            <AltitudeMeters>511.79998779296875</AltitudeMeters>
            <DistanceMeters>22924.754652639</DistanceMeters>
          </Trackpoint>
          <Trackpoint>
            <Time>2023-01-11T12:58:39.000Z</Time>
            <Position>
              <LatitudeDegrees>-49.229819476604461669921875</LatitudeDegrees>
              <LongitudeDegrees>-72.9950615577399730682373046875</LongitudeDegrees>
            </Position>
            <AltitudeMeters>511.79998779296875</AltitudeMeters>
            <DistanceMeters>22926.125147404</DistanceMeters>
          </Trackpoint>
          <Trackpoint>
            <Time>2023-01-11T12:58:40.000Z</Time>
            <Position>
              <LatitudeDegrees>-49.22980606555938720703125</LatitudeDegrees>
              <LongitudeDegrees>-72.995087206363677978515625</LongitudeDegrees>
            </Position>
            <AltitudeMeters>511.79998779296875</AltitudeMeters>
            <DistanceMeters>22928.512191232</DistanceMeters>
          </Trackpoint>
          <Trackpoint>
            <Time>2023-01-11T12:58:42.000Z</Time>
            <Position>
              <LatitudeDegrees>-49.22977714799344539642333984375</LatitudeDegrees>
              <LongitudeDegrees>-72.99511947669088840484619140625</LongitudeDegrees>
            </Position>
            <AltitudeMeters>511.600006103515625</AltitudeMeters>
            <DistanceMeters>22932.494252788</DistanceMeters>
          </Trackpoint>
          <Trackpoint>
            <Time>2023-01-11T12:58:49.000Z</Time>
            <Position>
              <LatitudeDegrees>-49.2297291196882724761962890625</LatitudeDegrees>
              <LongitudeDegrees>-72.99521989189088344573974609375</LongitudeDegrees>
            </Position>
            <AltitudeMeters>511.20001220703125</AltitudeMeters>
            <DistanceMeters>22941.540776032</DistanceMeters>
          </Trackpoint>
          <Trackpoint>
            <Time>2023-01-11T12:58:57.000Z</Time>
            <Position>
              <LatitudeDegrees>-49.22966918908059597015380859375</LatitudeDegrees>
              <LongitudeDegrees>-72.9953227378427982330322265625</LongitudeDegrees>
            </Position>
            <AltitudeMeters>511.20001220703125</AltitudeMeters>
            <DistanceMeters>22951.559223999</DistanceMeters>
          </Trackpoint>
          <Trackpoint>
            <Time>2023-01-11T12:59:04.000Z</Time>
            <Position>
              <LatitudeDegrees>-49.2296572029590606689453125</LatitudeDegrees>
              <LongitudeDegrees>-72.995443604886531829833984375</LongitudeDegrees>
            </Position>
            <AltitudeMeters>511</AltitudeMeters>
            <DistanceMeters>22960.444602908</DistanceMeters>
          </Trackpoint>
          <Trackpoint>
            <Time>2023-01-11T12:59:05.000Z</Time>
            <Position>
              <LatitudeDegrees>-49.22965250909328460693359375</LatitudeDegrees>
              <LongitudeDegrees>-72.99545894376933574676513671875</LongitudeDegrees>
            </Position>
            <AltitudeMeters>511</AltitudeMeters>
            <DistanceMeters>22961.672618692</DistanceMeters>
          </Trackpoint>
          <Trackpoint>
            <Time>2023-01-11T12:59:09.000Z</Time>
            <Position>
              <LatitudeDegrees>-49.229657538235187530517578125</LatitudeDegrees>
              <LongitudeDegrees>-72.99551845528185367584228515625</LongitudeDegrees>
            </Position>
            <AltitudeMeters>511.20001220703125</AltitudeMeters>
            <DistanceMeters>22966.03350633</DistanceMeters>
          </Trackpoint>
          <Trackpoint>
            <Time>2023-01-11T12:59:13.000Z</Time>
            <Position>
              <LatitudeDegrees>-49.229647479951381683349609375</LatitudeDegrees>
              <LongitudeDegrees>-72.99560462124645709991455078125</LongitudeDegrees>
            </Position>
            <AltitudeMeters>511.600006103515625</AltitudeMeters>
            <DistanceMeters>22972.396749432</DistanceMeters>
          </Trackpoint>
          <Trackpoint>
            <Time>2023-01-11T12:59:17.000Z</Time>
            <Position>
              <LatitudeDegrees>-49.22963163815438747406005859375</LatitudeDegrees>
              <LongitudeDegrees>-72.99566748552024364471435546875</LongitudeDegrees>
            </Position>
            <AltitudeMeters>511.79998779296875</AltitudeMeters>
            <DistanceMeters>22977.295005562</DistanceMeters>
          </Trackpoint>
          <Trackpoint>
            <Time>2023-01-11T12:59:20.000Z</Time>
            <Position>
              <LatitudeDegrees>-49.22962166368961334228515625</LatitudeDegrees>
              <LongitudeDegrees>-72.9957176931202411651611328125</LongitudeDegrees>
            </Position>
            <AltitudeMeters>511.79998779296875</AltitudeMeters>
            <DistanceMeters>22981.107933974</DistanceMeters>
          </Trackpoint>
          <Trackpoint>
            <Time>2023-01-11T12:59:25.000Z</Time>
            <Position>
              <LatitudeDegrees>-49.2296117730438709259033203125</LatitudeDegrees>
              <LongitudeDegrees>-72.99578919075429439544677734375</LongitudeDegrees>
            </Position>
            <AltitudeMeters>511.79998779296875</AltitudeMeters>
            <DistanceMeters>22986.419238786</DistanceMeters>
          </Trackpoint>
          <Trackpoint>
            <Time>2023-01-11T12:59:27.000Z</Time>
            <Position>
              <LatitudeDegrees>-49.229599870741367340087890625</LatitudeDegrees>
              <LongitudeDegrees>-72.99581768922507762908935546875</LongitudeDegrees>
            </Position>
            <AltitudeMeters>512</AltitudeMeters>
            <DistanceMeters>22988.875270354</DistanceMeters>
          </Trackpoint>
          <Trackpoint>
            <Time>2023-01-11T12:59:29.000Z</Time>
            <Position>
              <LatitudeDegrees>-49.22959274612367153167724609375</LatitudeDegrees>
              <LongitudeDegrees>-72.99585473723709583282470703125</LongitudeDegrees>
            </Position>
            <AltitudeMeters>512</AltitudeMeters>
            <DistanceMeters>22991.681375602</DistanceMeters>
          </Trackpoint>
          <Trackpoint>
            <Time>2023-01-11T12:59:31.000Z</Time>
            <Position>
              <LatitudeDegrees>-49.2295856215059757232666015625</LatitudeDegrees>
              <LongitudeDegrees>-72.99588390626013278961181640625</LongitudeDegrees>
            </Position>
            <AltitudeMeters>512</AltitudeMeters>
            <DistanceMeters>22993.944129089</DistanceMeters>
          </Trackpoint>
          <Trackpoint>
            <Time>2023-01-11T12:59:33.000Z</Time>
            <Position>
              <LatitudeDegrees>-49.2295826040208339691162109375</LatitudeDegrees>
              <LongitudeDegrees>-72.99591542221605777740478515625</LongitudeDegrees>
            </Position>
            <AltitudeMeters>512.20001220703125</AltitudeMeters>
            <DistanceMeters>22996.26013112</DistanceMeters>
          </Trackpoint>
          <Trackpoint>
            <Time>2023-01-11T12:59:39.000Z</Time>
            <Position>
              <LatitudeDegrees>-49.229597859084606170654296875</LatitudeDegrees>
              <LongitudeDegrees>-72.9960174299776554107666015625</LongitudeDegrees>
            </Position>
            <AltitudeMeters>512.4000244140625</AltitudeMeters>
            <DistanceMeters>23003.865830937</DistanceMeters>
          </Trackpoint>
          <Trackpoint>
            <Time>2023-01-11T12:59:44.000Z</Time>
            <Position>
              <LatitudeDegrees>-49.22960028983652591705322265625</LatitudeDegrees>
              <LongitudeDegrees>-72.9961180128157138824462890625</LongitudeDegrees>
            </Position>
            <AltitudeMeters>512.4000244140625</AltitudeMeters>
            <DistanceMeters>23011.181036539</DistanceMeters>
          </Trackpoint>
          <Trackpoint>
            <Time>2023-01-11T12:59:45.000Z</Time>
            <Position>
              <LatitudeDegrees>-49.2295913212001323699951171875</LatitudeDegrees>
              <LongitudeDegrees>-72.99613586626946926116943359375</LongitudeDegrees>
            </Position>
            <AltitudeMeters>512.5999755859375</AltitudeMeters>
            <DistanceMeters>23012.815937951</DistanceMeters>
          </Trackpoint>
          <Trackpoint>
            <Time>2023-01-11T12:59:51.000Z</Time>
            <Position>
              <LatitudeDegrees>-49.22958067618310451507568359375</LatitudeDegrees>
              <LongitudeDegrees>-72.9962460882961750030517578125</LongitudeDegrees>
            </Position>
            <AltitudeMeters>512.5999755859375</AltitudeMeters>
            <DistanceMeters>23020.913864546</DistanceMeters>
          </Trackpoint>
          <Trackpoint>
            <Time>2023-01-11T12:59:53.000Z</Time>
            <Position>
              <LatitudeDegrees>-49.22958235256373882293701171875</LatitudeDegrees>
              <LongitudeDegrees>-72.99628389067947864532470703125</LongitudeDegrees>
            </Position>
            <AltitudeMeters>512.5999755859375</AltitudeMeters>
            <DistanceMeters>23023.668000384</DistanceMeters>
          </Trackpoint>
          <Trackpoint>
            <Time>2023-01-11T12:59:54.000Z</Time>
            <Position>
              <LatitudeDegrees>-49.22958721406757831573486328125</LatitudeDegrees>
              <LongitudeDegrees>-72.99629193730652332305908203125</LongitudeDegrees>
            </Position>
            <AltitudeMeters>512.79998779296875</AltitudeMeters>
            <DistanceMeters>23024.468709712</DistanceMeters>
          </Trackpoint>
          <Trackpoint>
            <Time>2023-01-11T12:59:56.000Z</Time>
            <Position>
              <LatitudeDegrees>-49.22959148883819580078125</LatitudeDegrees>
              <LongitudeDegrees>-72.996324710547924041748046875</LongitudeDegrees>
            </Position>
            <AltitudeMeters>512.79998779296875</AltitudeMeters>
            <DistanceMeters>23026.897009511</DistanceMeters>
          </Trackpoint>
          <Trackpoint>
            <Time>2023-01-11T12:59:58.000Z</Time>
            <Position>
              <LatitudeDegrees>-49.22959743998944759368896484375</LatitudeDegrees>
              <LongitudeDegrees>-72.99635128118097782135009765625</LongitudeDegrees>
            </Position>
            <AltitudeMeters>513</AltitudeMeters>
            <DistanceMeters>23028.939531315</DistanceMeters>
          </Trackpoint>
          <Trackpoint>
            <Time>2023-01-11T13:00:00.000Z</Time>
            <Position>
              <LatitudeDegrees>-49.22959408722817897796630859375</LatitudeDegrees>
              <LongitudeDegrees>-72.996374331414699554443359375</LongitudeDegrees>
            </Position>
            <AltitudeMeters>513</AltitudeMeters>
            <DistanceMeters>23030.65791282</DistanceMeters>
          </Trackpoint>
          <Trackpoint>
            <Time>2023-01-11T13:00:06.000Z</Time>
            <Position>
              <LatitudeDegrees>-49.2296017147600650787353515625</LatitudeDegrees>
              <LongitudeDegrees>-72.99643375910818576812744140625</LongitudeDegrees>
            </Position>
            <AltitudeMeters>513.4000244140625</AltitudeMeters>
            <DistanceMeters>23035.060019594</DistanceMeters>
          </Trackpoint>
          <Trackpoint>
            <Time>2023-01-11T13:00:11.000Z</Time>
            <Position>
              <LatitudeDegrees>-49.22960313968360424041748046875</LatitudeDegrees>
              <LongitudeDegrees>-72.99652428366243839263916015625</LongitudeDegrees>
            </Position>
            <AltitudeMeters>513.79998779296875</AltitudeMeters>
            <DistanceMeters>23041.641605778</DistanceMeters>
          </Trackpoint>
          <Trackpoint>
            <Time>2023-01-11T13:00:12.000Z</Time>
            <Position>
              <LatitudeDegrees>-49.22960649244487285614013671875</LatitudeDegrees>
              <LongitudeDegrees>-72.996539287269115447998046875</LongitudeDegrees>
            </Position>
            <AltitudeMeters>514</AltitudeMeters>
            <DistanceMeters>23042.79374346</DistanceMeters>
          </Trackpoint>
          <Trackpoint>
            <Time>2023-01-11T13:00:13.000Z</Time>
            <Position>
              <LatitudeDegrees>-49.2296062409877777099609375</LatitudeDegrees>
              <LongitudeDegrees>-72.996550686657428741455078125</LongitudeDegrees>
            </Position>
            <AltitudeMeters>514.20001220703125</AltitudeMeters>
            <DistanceMeters>23043.622167149</DistanceMeters>
          </Trackpoint>
          <Trackpoint>
            <Time>2023-01-11T13:00:21.000Z</Time>
            <Position>
              <LatitudeDegrees>-49.2296278662979602813720703125</LatitudeDegrees>
              <LongitudeDegrees>-72.99669460393488407135009765625</LongitudeDegrees>
            </Position>
            <AltitudeMeters>514.5999755859375</AltitudeMeters>
            <DistanceMeters>23054.355980328</DistanceMeters>
          </Trackpoint>
          <Trackpoint>
            <Time>2023-01-11T13:00:28.000Z</Time>
            <Position>
              <LatitudeDegrees>-49.2295973561704158782958984375</LatitudeDegrees>
              <LongitudeDegrees>-72.9968267865478992462158203125</LongitudeDegrees>
            </Position>
            <AltitudeMeters>514.20001220703125</AltitudeMeters>
            <DistanceMeters>23064.545573988</DistanceMeters>
          </Trackpoint>
          <Trackpoint>
            <Time>2023-01-11T13:00:29.000Z</Time>
            <Position>
              <LatitudeDegrees>-49.22958620823919773101806640625</LatitudeDegrees>
              <LongitudeDegrees>-72.99684380181133747100830078125</LongitudeDegrees>
            </Position>
            <AltitudeMeters>514.20001220703125</AltitudeMeters>
            <DistanceMeters>23066.297780023</DistanceMeters>
          </Trackpoint>
          <Trackpoint>
            <Time>2023-01-11T13:00:34.000Z</Time>
            <Position>
              <LatitudeDegrees>-49.2295417003333568572998046875</LatitudeDegrees>
              <LongitudeDegrees>-72.99689778126776218414306640625</LongitudeDegrees>
            </Position>
            <AltitudeMeters>513.5999755859375</AltitudeMeters>
            <DistanceMeters>23072.616877905</DistanceMeters>
          </Trackpoint>
          <Trackpoint>
            <Time>2023-01-11T13:00:36.000Z</Time>
            <Position>
              <LatitudeDegrees>-49.22953239642083644866943359375</LatitudeDegrees>
              <LongitudeDegrees>-72.99692929722368717193603515625</LongitudeDegrees>
            </Position>
            <AltitudeMeters>513.5999755859375</AltitudeMeters>
            <DistanceMeters>23075.131048446</DistanceMeters>
          </Trackpoint>
          <Trackpoint>
            <Time>2023-01-11T13:00:41.000Z</Time>
            <Position>
              <LatitudeDegrees>-49.22950708307325839996337890625</LatitudeDegrees>
              <LongitudeDegrees>-72.99698679707944393157958984375</LongitudeDegrees>
            </Position>
            <AltitudeMeters>513.4000244140625</AltitudeMeters>
            <DistanceMeters>23080.171944707</DistanceMeters>
          </Trackpoint>
          <Trackpoint>
            <Time>2023-01-11T13:00:44.000Z</Time>
            <Position>
              <LatitudeDegrees>-49.22950473614037036895751953125</LatitudeDegrees>
              <LongitudeDegrees>-72.997041530907154083251953125</LongitudeDegrees>
            </Position>
            <AltitudeMeters>513.4000244140625</AltitudeMeters>
            <DistanceMeters>23084.158539061</DistanceMeters>
          </Trackpoint>
          <Trackpoint>
            <Time>2023-01-11T13:00:46.000Z</Time>
            <Position>
              <LatitudeDegrees>-49.22949786297976970672607421875</LatitudeDegrees>
              <LongitudeDegrees>-72.997077740728855133056640625</LongitudeDegrees>
            </Position>
            <AltitudeMeters>513.4000244140625</AltitudeMeters>
            <DistanceMeters>23086.89952859</DistanceMeters>
          </Trackpoint>
          <Trackpoint>
            <Time>2023-01-11T13:00:50.000Z</Time>
            <Position>
              <LatitudeDegrees>-49.22949065454304218292236328125</LatitudeDegrees>
              <LongitudeDegrees>-72.997152172029018402099609375</LongitudeDegrees>
            </Position>
            <AltitudeMeters>513.4000244140625</AltitudeMeters>
            <DistanceMeters>23092.368313938</DistanceMeters>
          </Trackpoint>
          <Trackpoint>
            <Time>2023-01-11T13:00:51.000Z</Time>
            <Position>
              <LatitudeDegrees>-49.22948679886758327484130859375</LatitudeDegrees>
              <LongitudeDegrees>-72.99716684035956859588623046875</LongitudeDegrees>
            </Position>
            <AltitudeMeters>513.4000244140625</AltitudeMeters>
            <DistanceMeters>23093.516526097</DistanceMeters>
          </Trackpoint>
          <Trackpoint>
            <Time>2023-01-11T13:01:00.000Z</Time>
            <Position>
              <LatitudeDegrees>-49.22949249856173992156982421875</LatitudeDegrees>
              <LongitudeDegrees>-72.99731888808310031890869140625</LongitudeDegrees>
            </Position>
            <AltitudeMeters>514.20001220703125</AltitudeMeters>
            <DistanceMeters>23104.586220643</DistanceMeters>
          </Trackpoint>
          <Trackpoint>
            <Time>2023-01-11T13:01:02.000Z</Time>
            <Position>
              <LatitudeDegrees>-49.22948713414371013641357421875</LatitudeDegrees>
              <LongitudeDegrees>-72.99733531661331653594970703125</LongitudeDegrees>
            </Position>
            <AltitudeMeters>514.4000244140625</AltitudeMeters>
            <DistanceMeters>23105.916594644</DistanceMeters>
          </Trackpoint>
          <Trackpoint>
            <Time>2023-01-11T13:01:05.000Z</Time>
            <Position>
              <LatitudeDegrees>-49.22949492931365966796875</LatitudeDegrees>
              <LongitudeDegrees>-72.9973706044256687164306640625</LongitudeDegrees>
            </Position>
            <AltitudeMeters>514.5999755859375</AltitudeMeters>
            <DistanceMeters>23108.622771282</DistanceMeters>
          </Trackpoint>
          <Trackpoint>
            <Time>2023-01-11T13:01:11.000Z</Time>
            <Position>
              <LatitudeDegrees>-49.2295239306986331939697265625</LatitudeDegrees>
              <LongitudeDegrees>-72.9974879510700702667236328125</LongitudeDegrees>
            </Position>
            <AltitudeMeters>515</AltitudeMeters>
            <DistanceMeters>23117.742365793</DistanceMeters>
          </Trackpoint>
          <Trackpoint>
            <Time>2023-01-11T13:01:12.000Z</Time>
            <Position>
              <LatitudeDegrees>-49.22952719964087009429931640625</LatitudeDegrees>
              <LongitudeDegrees>-72.9975077323615550994873046875</LongitudeDegrees>
            </Position>
            <AltitudeMeters>515</AltitudeMeters>
            <DistanceMeters>23119.226730523</DistanceMeters>
          </Trackpoint>
          <Trackpoint>
            <Time>2023-01-11T13:01:13.000Z</Time>
            <Position>
              <LatitudeDegrees>-49.229536168277263641357421875</LatitudeDegrees>
              <LongitudeDegrees>-72.99753095023334026336669921875</LongitudeDegrees>
            </Position>
            <AltitudeMeters>515.20001220703125</AltitudeMeters>
            <DistanceMeters>23121.188059809</DistanceMeters>
          </Trackpoint>
          <Trackpoint>
            <Time>2023-01-11T13:01:17.000Z</Time>
            <Position>
              <LatitudeDegrees>-49.2295417003333568572998046875</LatitudeDegrees>
              <LongitudeDegrees>-72.99758099019527435302734375</LongitudeDegrees>
            </Position>
            <AltitudeMeters>515.4000244140625</AltitudeMeters>
            <DistanceMeters>23124.877006162</DistanceMeters>
          </Trackpoint>
          <Trackpoint>
            <Time>2023-01-11T13:01:19.000Z</Time>
            <Position>
              <LatitudeDegrees>-49.2295356653630733489990234375</LatitudeDegrees>
              <LongitudeDegrees>-72.99760689027607440948486328125</LongitudeDegrees>
            </Position>
            <AltitudeMeters>515.4000244140625</AltitudeMeters>
            <DistanceMeters>23126.879343282</DistanceMeters>
          </Trackpoint>
          <Trackpoint>
            <Time>2023-01-11T13:01:27.000Z</Time>
            <Position>
              <LatitudeDegrees>-49.22953189350664615631103515625</LatitudeDegrees>
              <LongitudeDegrees>-72.99775374121963977813720703125</LongitudeDegrees>
            </Position>
            <AltitudeMeters>515.79998779296875</AltitudeMeters>
            <DistanceMeters>23137.561292821</DistanceMeters>
          </Trackpoint>
          <Trackpoint>
            <Time>2023-01-11T13:01:30.000Z</Time>
            <Position>
              <LatitudeDegrees>-49.2295406945049762725830078125</LatitudeDegrees>
              <LongitudeDegrees>-72.99779179506003856658935546875</LongitudeDegrees>
            </Position>
            <AltitudeMeters>516</AltitudeMeters>
            <DistanceMeters>23140.496372535</DistanceMeters>
          </Trackpoint>
          <Trackpoint>
            <Time>2023-01-11T13:01:32.000Z</Time>
            <Position>
              <LatitudeDegrees>-49.2295303009450435638427734375</LatitudeDegrees>
              <LongitudeDegrees>-72.99783135764300823211669921875</LongitudeDegrees>
            </Position>
            <AltitudeMeters>516.20001220703125</AltitudeMeters>
            <DistanceMeters>23143.596050153</DistanceMeters>
          </Trackpoint>
          <Trackpoint>
            <Time>2023-01-11T13:01:33.000Z</Time>
            <Position>
              <LatitudeDegrees>-49.2295259423553943634033203125</LatitudeDegrees>
              <LongitudeDegrees>-72.9978512227535247802734375</LongitudeDegrees>
            </Position>
            <AltitudeMeters>516.20001220703125</AltitudeMeters>
            <DistanceMeters>23145.116477583</DistanceMeters>
          </Trackpoint>
          <Trackpoint>
            <Time>2023-01-11T13:01:40.000Z</Time>
            <Position>
              <LatitudeDegrees>-49.22951362095773220062255859375</LatitudeDegrees>
              <LongitudeDegrees>-72.99797125160694122314453125</LongitudeDegrees>
            </Position>
            <AltitudeMeters>516.79998779296875</AltitudeMeters>
            <DistanceMeters>23153.947829135</DistanceMeters>
          </Trackpoint>
          <Trackpoint>
            <Time>2023-01-11T13:01:41.000Z</Time>
            <Position>
              <LatitudeDegrees>-49.22952267341315746307373046875</LatitudeDegrees>
              <LongitudeDegrees>-72.99798642285168170928955078125</LongitudeDegrees>
            </Position>
            <AltitudeMeters>516.79998779296875</AltitudeMeters>
            <DistanceMeters>23155.44431133</DistanceMeters>
          </Trackpoint>
          <Trackpoint>
            <Time>2023-01-11T13:01:43.000Z</Time>
            <Position>
              <LatitudeDegrees>-49.22952585853636264801025390625</LatitudeDegrees>
              <LongitudeDegrees>-72.99802162684500217437744140625</LongitudeDegrees>
            </Position>
            <AltitudeMeters>517.20001220703125</AltitudeMeters>
            <DistanceMeters>23158.029317436</DistanceMeters>
          </Trackpoint>
          <Trackpoint>
            <Time>2023-01-11T13:01:44.000Z</Time>
            <Position>
              <LatitudeDegrees>-49.22952367924153804779052734375</LatitudeDegrees>
              <LongitudeDegrees>-72.99803989939391613006591796875</LongitudeDegrees>
            </Position>
            <AltitudeMeters>517.20001220703125</AltitudeMeters>
            <DistanceMeters>23159.379900807</DistanceMeters>
          </Trackpoint>
          <Trackpoint>
            <Time>2023-01-11T13:01:48.000Z</Time>
            <Position>
              <LatitudeDegrees>-49.22954061068594455718994140625</LatitudeDegrees>
              <LongitudeDegrees>-72.998094968497753143310546875</LongitudeDegrees>
            </Position>
            <AltitudeMeters>517.4000244140625</AltitudeMeters>
            <DistanceMeters>23163.803493877</DistanceMeters>
          </Trackpoint>
          <Trackpoint>
            <Time>2023-01-11T13:01:49.000Z</Time>
            <Position>
              <LatitudeDegrees>-49.2295494116842746734619140625</LatitudeDegrees>
              <LongitudeDegrees>-72.9981139115989208221435546875</LongitudeDegrees>
            </Position>
            <AltitudeMeters>517.4000244140625</AltitudeMeters>
            <DistanceMeters>23165.492725702</DistanceMeters>
          </Trackpoint>
          <Trackpoint>
            <Time>2023-01-11T13:01:56.000Z</Time>
            <Position>
              <LatitudeDegrees>-49.22955972142517566680908203125</LatitudeDegrees>
              <LongitudeDegrees>-72.99824039451777935028076171875</LongitudeDegrees>
            </Position>
            <AltitudeMeters>517.4000244140625</AltitudeMeters>
            <DistanceMeters>23174.757221187</DistanceMeters>
          </Trackpoint>
          <Trackpoint>
            <Time>2023-01-11T13:02:00.000Z</Time>
            <Position>
              <LatitudeDegrees>-49.2295551113784313201904296875</LatitudeDegrees>
              <LongitudeDegrees>-72.99828951247036457061767578125</LongitudeDegrees>
            </Position>
            <AltitudeMeters>517.5999755859375</AltitudeMeters>
            <DistanceMeters>23178.364483328</DistanceMeters>
          </Trackpoint>
          <Trackpoint>
            <Time>2023-01-11T13:02:04.000Z</Time>
            <Position>
              <LatitudeDegrees>-49.229561649262905120849609375</LatitudeDegrees>
              <LongitudeDegrees>-72.9983415640890598297119140625</LongitudeDegrees>
            </Position>
            <AltitudeMeters>517.79998779296875</AltitudeMeters>
            <DistanceMeters>23182.216290125</DistanceMeters>
          </Trackpoint>
          <Trackpoint>
            <Time>2023-01-11T13:02:12.000Z</Time>
            <Position>
              <LatitudeDegrees>-49.22955201007425785064697265625</LatitudeDegrees>
              <LongitudeDegrees>-72.99848212860524654388427734375</LongitudeDegrees>
            </Position>
            <AltitudeMeters>518.20001220703125</AltitudeMeters>
            <DistanceMeters>23192.488849364</DistanceMeters>
          </Trackpoint>
          <Trackpoint>
            <Time>2023-01-11T13:02:13.000Z</Time>
            <Position>
              <LatitudeDegrees>-49.22955150716006755828857421875</LatitudeDegrees>
              <LongitudeDegrees>-72.99850056879222393035888671875</LongitudeDegrees>
            </Position>
            <AltitudeMeters>518.20001220703125</AltitudeMeters>
            <DistanceMeters>23193.82599376</DistanceMeters>
          </Trackpoint>
          <Trackpoint>
            <Time>2023-01-11T13:02:19.000Z</Time>
            <Position>
              <LatitudeDegrees>-49.229538850486278533935546875</LatitudeDegrees>
              <LongitudeDegrees>-72.9986071027815341949462890625</LongitudeDegrees>
            </Position>
            <AltitudeMeters>518.5999755859375</AltitudeMeters>
            <DistanceMeters>23201.696592493</DistanceMeters>
          </Trackpoint>
          <Trackpoint>
            <Time>2023-01-11T13:02:20.000Z</Time>
            <Position>
              <LatitudeDegrees>-49.22953675501048564910888671875</LatitudeDegrees>
              <LongitudeDegrees>-72.9986250400543212890625</LongitudeDegrees>
            </Position>
            <AltitudeMeters>518.5999755859375</AltitudeMeters>
            <DistanceMeters>23203.020161467</DistanceMeters>
          </Trackpoint>
          <Trackpoint>
            <Time>2023-01-11T13:02:24.000Z</Time>
            <Position>
              <LatitudeDegrees>-49.229532144963741302490234375</LatitudeDegrees>
              <LongitudeDegrees>-72.99867709167301654815673828125</LongitudeDegrees>
            </Position>
            <AltitudeMeters>518.79998779296875</AltitudeMeters>
            <DistanceMeters>23206.837823498</DistanceMeters>
          </Trackpoint>
          <Trackpoint>
            <Time>2023-01-11T13:02:28.000Z</Time>
            <Position>
              <LatitudeDegrees>-49.2294994555413722991943359375</LatitudeDegrees>
              <LongitudeDegrees>-72.9987435601651668548583984375</LongitudeDegrees>
            </Position>
            <AltitudeMeters>518.79998779296875</AltitudeMeters>
            <DistanceMeters>23212.885286569</DistanceMeters>
          </Trackpoint>
          <Trackpoint>
            <Time>2023-01-11T13:02:30.000Z</Time>
            <Position>
              <LatitudeDegrees>-49.22949668951332569122314453125</LatitudeDegrees>
              <LongitudeDegrees>-72.99878102727234363555908203125</LongitudeDegrees>
            </Position>
            <AltitudeMeters>518.79998779296875</AltitudeMeters>
            <DistanceMeters>23215.626276099</DistanceMeters>
          </Trackpoint>
          <Trackpoint>
            <Time>2023-01-11T13:02:34.000Z</Time>
            <Position>
              <LatitudeDegrees>-49.2294947616755962371826171875</LatitudeDegrees>
              <LongitudeDegrees>-72.998847998678684234619140625</LongitudeDegrees>
            </Position>
            <AltitudeMeters>518.79998779296875</AltitudeMeters>
            <DistanceMeters>23220.497727719</DistanceMeters>
          </Trackpoint>
          <Trackpoint>
            <Time>2023-01-11T13:02:35.000Z</Time>
            <Position>
              <LatitudeDegrees>-49.2294917441904544830322265625</LatitudeDegrees>
              <LongitudeDegrees>-72.9988699592649936676025390625</LongitudeDegrees>
            </Position>
            <AltitudeMeters>518.79998779296875</AltitudeMeters>
            <DistanceMeters>23222.132629132</DistanceMeters>
          </Trackpoint>
          <Trackpoint>
            <Time>2023-01-11T13:02:40.000Z</Time>
            <Position>
              <LatitudeDegrees>-49.22947087325155735015869140625</LatitudeDegrees>
              <LongitudeDegrees>-72.998928464949131011962890625</LongitudeDegrees>
            </Position>
            <AltitudeMeters>518.79998779296875</AltitudeMeters>
            <DistanceMeters>23226.978991564</DistanceMeters>
          </Trackpoint>
          <Trackpoint>
            <Time>2023-01-11T13:02:45.000Z</Time>
            <Position>
              <LatitudeDegrees>-49.229497946798801422119140625</LatitudeDegrees>
              <LongitudeDegrees>-72.99903147853910923004150390625</LongitudeDegrees>
            </Position>
            <AltitudeMeters>519.20001220703125</AltitudeMeters>
            <DistanceMeters>23235.050111156</DistanceMeters>
          </Trackpoint>
          <Trackpoint>
            <Time>2023-01-11T13:02:50.000Z</Time>
            <Position>
              <LatitudeDegrees>-49.22950909473001956939697265625</LatitudeDegrees>
              <LongitudeDegrees>-72.9991284571588039398193359375</LongitudeDegrees>
            </Position>
            <AltitudeMeters>519.79998779296875</AltitudeMeters>
            <DistanceMeters>23242.207458686</DistanceMeters>
          </Trackpoint>
          <Trackpoint>
            <Time>2023-01-11T13:02:51.000Z</Time>
            <Position>
              <LatitudeDegrees>-49.229508340358734130859375</LatitudeDegrees>
              <LongitudeDegrees>-72.9991415329277515411376953125</LongitudeDegrees>
            </Position>
            <AltitudeMeters>520</AltitudeMeters>
            <DistanceMeters>23243.162465347</DistanceMeters>
          </Trackpoint>
          <Trackpoint>
            <Time>2023-01-11T13:02:52.000Z</Time>
            <Position>
              <LatitudeDegrees>-49.22950808890163898468017578125</LatitudeDegrees>
              <LongitudeDegrees>-72.99915544688701629638671875</LongitudeDegrees>
            </Position>
            <AltitudeMeters>520.20001220703125</AltitudeMeters>
            <DistanceMeters>23244.177073012</DistanceMeters>
          </Trackpoint>
          <Trackpoint>
            <Time>2023-01-11T13:02:54.000Z</Time>
            <Position>
              <LatitudeDegrees>-49.22950808890163898468017578125</LatitudeDegrees>
              <LongitudeDegrees>-72.99920112825930118560791015625</LongitudeDegrees>
            </Position>
            <AltitudeMeters>520.4000244140625</AltitudeMeters>
            <DistanceMeters>23247.497573477</DistanceMeters>
          </Trackpoint>
          <Trackpoint>
            <Time>2023-01-11T13:02:57.000Z</Time>
            <Position>
              <LatitudeDegrees>-49.2295081727206707000732421875</LatitudeDegrees>
              <LongitudeDegrees>-72.9992451332509517669677734375</LongitudeDegrees>
            </Position>
            <AltitudeMeters>520.5999755859375</AltitudeMeters>
            <DistanceMeters>23250.697590147</DistanceMeters>
          </Trackpoint>
          <Trackpoint>
            <Time>2023-01-11T13:02:58.000Z</Time>
            <Position>
              <LatitudeDegrees>-49.22950792126357555389404296875</LatitudeDegrees>
              <LongitudeDegrees>-72.99926131032407283782958984375</LongitudeDegrees>
            </Position>
            <AltitudeMeters>520.5999755859375</AltitudeMeters>
            <DistanceMeters>23251.873005689</DistanceMeters>
          </Trackpoint>
          <Trackpoint>
            <Time>2023-01-11T13:03:00.000Z</Time>
            <Position>
              <LatitudeDegrees>-49.22950373031198978424072265625</LatitudeDegrees>
              <LongitudeDegrees>-72.9992971010506153106689453125</LongitudeDegrees>
            </Position>
            <AltitudeMeters>520.79998779296875</AltitudeMeters>
            <DistanceMeters>23254.516730176</DistanceMeters>
          </Trackpoint>
          <Trackpoint>
            <Time>2023-01-11T13:03:04.000Z</Time>
            <Position>
              <LatitudeDegrees>-49.22947950661182403564453125</LatitudeDegrees>
              <LongitudeDegrees>-72.9993554390966892242431640625</LongitudeDegrees>
            </Position>
            <AltitudeMeters>521</AltitudeMeters>
            <DistanceMeters>23259.540579663</DistanceMeters>
          </Trackpoint>
          <Trackpoint>
            <Time>2023-01-11T13:03:06.000Z</Time>
            <Position>
              <LatitudeDegrees>-49.22946550883352756500244140625</LatitudeDegrees>
              <LongitudeDegrees>-72.99937262199819087982177734375</LongitudeDegrees>
            </Position>
            <AltitudeMeters>521</AltitudeMeters>
            <DistanceMeters>23261.536140664</DistanceMeters>
          </Trackpoint>
          <Trackpoint>
            <Time>2023-01-11T13:03:08.000Z</Time>
            <Position>
              <LatitudeDegrees>-49.22947992570698261260986328125</LatitudeDegrees>
              <LongitudeDegrees>-72.9993973486125469207763671875</LongitudeDegrees>
            </Position>
            <AltitudeMeters>521</AltitudeMeters>
            <DistanceMeters>23263.945775316</DistanceMeters>
          </Trackpoint>
          <Trackpoint>
            <Time>2023-01-11T13:03:10.000Z</Time>
            <Position>
              <LatitudeDegrees>-49.22950364649295806884765625</LatitudeDegrees>
              <LongitudeDegrees>-72.99943079240620136260986328125</LongitudeDegrees>
            </Position>
            <AltitudeMeters>521.20001220703125</AltitudeMeters>
            <DistanceMeters>23267.532955118</DistanceMeters>
          </Trackpoint>
          <Trackpoint>
            <Time>2023-01-11T13:03:15.000Z</Time>
            <Position>
              <LatitudeDegrees>-49.22952367924153804779052734375</LatitudeDegrees>
              <LongitudeDegrees>-72.99955870024859905242919921875</LongitudeDegrees>
            </Position>
            <AltitudeMeters>521.4000244140625</AltitudeMeters>
            <DistanceMeters>23277.092472554</DistanceMeters>
          </Trackpoint>
          <Trackpoint>
            <Time>2023-01-11T13:03:17.000Z</Time>
            <Position>
              <LatitudeDegrees>-49.229515381157398223876953125</LatitudeDegrees>
              <LongitudeDegrees>-72.99959289841353893280029296875</LongitudeDegrees>
            </Position>
            <AltitudeMeters>521.5999755859375</AltitudeMeters>
            <DistanceMeters>23279.743019568</DistanceMeters>
          </Trackpoint>
          <Trackpoint>
            <Time>2023-01-11T13:03:18.000Z</Time>
            <Position>
              <LatitudeDegrees>-49.22950674779713153839111328125</LatitudeDegrees>
              <LongitudeDegrees>-72.99960982985794544219970703125</LongitudeDegrees>
            </Position>
            <AltitudeMeters>521.5999755859375</AltitudeMeters>
            <DistanceMeters>23281.304467819</DistanceMeters>
          </Trackpoint>
          <Trackpoint>
            <Time>2023-01-11T13:03:26.000Z</Time>
            <Position>
              <LatitudeDegrees>-49.22944405116140842437744140625</LatitudeDegrees>
              <LongitudeDegrees>-72.99971443600952625274658203125</LongitudeDegrees>
            </Position>
            <AltitudeMeters>522</AltitudeMeters>
            <DistanceMeters>23291.6243865</DistanceMeters>
          </Trackpoint>
          <Trackpoint>
            <Time>2023-01-11T13:03:28.000Z</Time>
            <Position>
              <LatitudeDegrees>-49.229448325932025909423828125</LatitudeDegrees>
              <LongitudeDegrees>-72.9997502267360687255859375</LongitudeDegrees>
            </Position>
            <AltitudeMeters>522</AltitudeMeters>
            <DistanceMeters>23294.268110988</DistanceMeters>
          </Trackpoint>
          <Trackpoint>
            <Time>2023-01-11T13:03:33.000Z</Time>
            <Position>
              <LatitudeDegrees>-49.2294039018452167510986328125</LatitudeDegrees>
              <LongitudeDegrees>-72.99984033219516277313232421875</LongitudeDegrees>
            </Position>
            <AltitudeMeters>521.79998779296875</AltitudeMeters>
            <DistanceMeters>23302.474590752</DistanceMeters>
          </Trackpoint>
          <Trackpoint>
            <Time>2023-01-11T13:03:36.000Z</Time>
            <Position>
              <LatitudeDegrees>-49.2293889820575714111328125</LatitudeDegrees>
              <LongitudeDegrees>-72.99987503327429294586181640625</LongitudeDegrees>
            </Position>
            <AltitudeMeters>521.79998779296875</AltitudeMeters>
            <DistanceMeters>23305.496081656</DistanceMeters>
          </Trackpoint>
          <Trackpoint>
            <Time>2023-01-11T13:03:41.000Z</Time>
            <Position>
              <LatitudeDegrees>-49.22936677001416683197021484375</LatitudeDegrees>
              <LongitudeDegrees>-72.99995281733572483062744140625</LongitudeDegrees>
            </Position>
            <AltitudeMeters>522</AltitudeMeters>
            <DistanceMeters>23311.66623581</DistanceMeters>
          </Trackpoint>
          <Trackpoint>
            <Time>2023-01-11T13:03:47.000Z</Time>
            <Position>
              <LatitudeDegrees>-49.2293393611907958984375</LatitudeDegrees>
              <LongitudeDegrees>-73.0000157654285430908203125</LongitudeDegrees>
            </Position>
            <AltitudeMeters>522</AltitudeMeters>
            <DistanceMeters>23317.166304545</DistanceMeters>
          </Trackpoint>
          <Trackpoint>
            <Time>2023-01-11T13:03:49.000Z</Time>
            <Position>
              <LatitudeDegrees>-49.22932351939380168914794921875</LatitudeDegrees>
              <LongitudeDegrees>-73.00002875737845897674560546875</LongitudeDegrees>
            </Position>
            <AltitudeMeters>522</AltitudeMeters>
            <DistanceMeters>23319.168641665</DistanceMeters>
          </Trackpoint>
          <Trackpoint>
            <Time>2023-01-11T13:03:54.000Z</Time>
            <Position>
              <LatitudeDegrees>-49.22927557490766048431396484375</LatitudeDegrees>
              <LongitudeDegrees>-73.0000828206539154052734375</LongitudeDegrees>
            </Position>
            <AltitudeMeters>522</AltitudeMeters>
            <DistanceMeters>23325.795349878</DistanceMeters>
          </Trackpoint>
          <Trackpoint>
            <Time>2023-01-11T13:03:56.000Z</Time>
            <Position>
              <LatitudeDegrees>-49.229272305965423583984375</LatitudeDegrees>
              <LongitudeDegrees>-73.000115342438220977783203125</LongitudeDegrees>
            </Position>
            <AltitudeMeters>522</AltitudeMeters>
            <DistanceMeters>23328.186173667</DistanceMeters>
          </Trackpoint>
          <Trackpoint>
            <Time>2023-01-11T13:04:03.000Z</Time>
            <Position>
              <LatitudeDegrees>-49.22923584468662738800048828125</LatitudeDegrees>
              <LongitudeDegrees>-73.00019689835608005523681640625</LongitudeDegrees>
            </Position>
            <AltitudeMeters>522.20001220703125</AltitudeMeters>
            <DistanceMeters>23335.369967016</DistanceMeters>
          </Trackpoint>
          <Trackpoint>
            <Time>2023-01-11T13:04:08.000Z</Time>
            <Position>
              <LatitudeDegrees>-49.2292288877069950103759765625</LatitudeDegrees>
              <LongitudeDegrees>-73.00023830495774745941162109375</LongitudeDegrees>
            </Position>
            <AltitudeMeters>522.20001220703125</AltitudeMeters>
            <DistanceMeters>23338.47837204</DistanceMeters>
          </Trackpoint>
          <Trackpoint>
            <Time>2023-01-11T13:04:14.000Z</Time>
            <Position>
              <LatitudeDegrees>-49.2292476631700992584228515625</LatitudeDegrees>
              <LongitudeDegrees>-73.0002683959901332855224609375</LongitudeDegrees>
            </Position>
            <AltitudeMeters>522.4000244140625</AltitudeMeters>
            <DistanceMeters>23341.502850084</DistanceMeters>
          </Trackpoint>
          <Trackpoint>
            <Time>2023-01-11T13:04:16.000Z</Time>
            <Position>
              <LatitudeDegrees>-49.2292533628642559051513671875</LatitudeDegrees>
              <LongitudeDegrees>-73.00029312260448932647705078125</LongitudeDegrees>
            </Position>
            <AltitudeMeters>522.5999755859375</AltitudeMeters>
            <DistanceMeters>23343.408129783</DistanceMeters>
          </Trackpoint>
          <Trackpoint>
            <Time>2023-01-11T13:04:23.000Z</Time>
            <Position>
              <LatitudeDegrees>-49.229299463331699371337890625</LatitudeDegrees>
              <LongitudeDegrees>-73.00039269961416721343994140625</LongitudeDegrees>
            </Position>
            <AltitudeMeters>522.79998779296875</AltitudeMeters>
            <DistanceMeters>23352.279778237</DistanceMeters>
          </Trackpoint>
          <Trackpoint>
            <Time>2023-01-11T13:04:26.000Z</Time>
            <Position>
              <LatitudeDegrees>-49.22932955436408519744873046875</LatitudeDegrees>
              <LongitudeDegrees>-73.0004390515387058258056640625</LongitudeDegrees>
            </Position>
            <AltitudeMeters>523</AltitudeMeters>
            <DistanceMeters>23357.031113955</DistanceMeters>
          </Trackpoint>
          <Trackpoint>
            <Time>2023-01-11T13:04:30.000Z</Time>
            <Position>
              <LatitudeDegrees>-49.2293479107320308685302734375</LatitudeDegrees>
              <LongitudeDegrees>-73.0005242116749286651611328125</LongitudeDegrees>
            </Position>
            <AltitudeMeters>523.20001220703125</AltitudeMeters>
            <DistanceMeters>23363.549974265</DistanceMeters>
          </Trackpoint>
          <Trackpoint>
            <Time>2023-01-11T13:04:37.000Z</Time>
            <Position>
              <LatitudeDegrees>-49.229395352303981781005859375</LatitudeDegrees>
              <LongitudeDegrees>-73.00061699934303760528564453125</LongitudeDegrees>
            </Position>
            <AltitudeMeters>523.5999755859375</AltitudeMeters>
            <DistanceMeters>23372.115039416</DistanceMeters>
          </Trackpoint>
          <Trackpoint>
            <Time>2023-01-11T13:04:39.000Z</Time>
            <Position>
              <LatitudeDegrees>-49.22940264455974102020263671875</LatitudeDegrees>
              <LongitudeDegrees>-73.0006526224315166473388671875</LongitudeDegrees>
            </Position>
            <AltitudeMeters>523.5999755859375</AltitudeMeters>
            <DistanceMeters>23374.829545334</DistanceMeters>
          </Trackpoint>
          <Trackpoint>
            <Time>2023-01-11T13:04:41.000Z</Time>
            <Position>
              <LatitudeDegrees>-49.22940180636942386627197265625</LatitudeDegrees>
              <LongitudeDegrees>-73.0006888322532176971435546875</LongitudeDegrees>
            </Position>
            <AltitudeMeters>524</AltitudeMeters>
            <DistanceMeters>23377.464716824</DistanceMeters>
          </Trackpoint>
          <Trackpoint>
            <Time>2023-01-11T13:04:44.000Z</Time>
            <Position>
              <LatitudeDegrees>-49.22940063290297985076904296875</LatitudeDegrees>
              <LongitudeDegrees>-73.00072261132299900054931640625</LongitudeDegrees>
            </Position>
            <AltitudeMeters>524.5999755859375</AltitudeMeters>
            <DistanceMeters>23379.924422339</DistanceMeters>
          </Trackpoint>
          <Trackpoint>
            <Time>2023-01-11T13:04:49.000Z</Time>
            <Position>
              <LatitudeDegrees>-49.22938286326825618743896484375</LatitudeDegrees>
              <LongitudeDegrees>-73.0007967911660671234130859375</LongitudeDegrees>
            </Position>
            <AltitudeMeters>524.79998779296875</AltitudeMeters>
            <DistanceMeters>23385.667841986</DistanceMeters>
          </Trackpoint>
          <Trackpoint>
            <Time>2023-01-11T13:04:56.000Z</Time>
            <Position>
              <LatitudeDegrees>-49.2293469049036502838134765625</LatitudeDegrees>
              <LongitudeDegrees>-73.000919334590435028076171875</LongitudeDegrees>
            </Position>
            <AltitudeMeters>524.79998779296875</AltitudeMeters>
            <DistanceMeters>23395.432963965</DistanceMeters>
          </Trackpoint>
          <Trackpoint>
            <Time>2023-01-11T13:04:59.000Z</Time>
            <Position>
              <LatitudeDegrees>-49.2293180711567401885986328125</LatitudeDegrees>
              <LongitudeDegrees>-73.00097155384719371795654296875</LongitudeDegrees>
            </Position>
            <AltitudeMeters>524.79998779296875</AltitudeMeters>
            <DistanceMeters>23400.403506103</DistanceMeters>
          </Trackpoint>
          <Trackpoint>
            <Time>2023-01-11T13:05:00.000Z</Time>
            <Position>
              <LatitudeDegrees>-49.22931346110999584197998046875</LatitudeDegrees>
              <LongitudeDegrees>-73.0009835399687290191650390625</LongitudeDegrees>
            </Position>
            <AltitudeMeters>524.79998779296875</AltitudeMeters>
            <DistanceMeters>23401.418113768</DistanceMeters>
          </Trackpoint>
          <Trackpoint>
            <Time>2023-01-11T13:05:03.000Z</Time>
            <Position>
              <LatitudeDegrees>-49.22931916080415248870849609375</LatitudeDegrees>
              <LongitudeDegrees>-73.00103592686355113983154296875</LongitudeDegrees>
            </Position>
            <AltitudeMeters>525.20001220703125</AltitudeMeters>
            <DistanceMeters>23405.278117153</DistanceMeters>
          </Trackpoint>
          <Trackpoint>
            <Time>2023-01-11T13:05:06.000Z</Time>
            <Position>
              <LatitudeDegrees>-49.22934279777109622955322265625</LatitudeDegrees>
              <LongitudeDegrees>-73.001070879399776458740234375</LongitudeDegrees>
            </Position>
            <AltitudeMeters>525.4000244140625</AltitudeMeters>
            <DistanceMeters>23408.93510269</DistanceMeters>
          </Trackpoint>
          <Trackpoint>
            <Time>2023-01-11T13:05:09.000Z</Time>
            <Position>
              <LatitudeDegrees>-49.22934296540915966033935546875</LatitudeDegrees>
              <LongitudeDegrees>-73.00112896598875522613525390625</LongitudeDegrees>
            </Position>
            <AltitudeMeters>525.4000244140625</AltitudeMeters>
            <DistanceMeters>23413.157112981</DistanceMeters>
          </Trackpoint>
          <Trackpoint>
            <Time>2023-01-11T13:05:11.000Z</Time>
            <Position>
              <LatitudeDegrees>-49.22933877445757389068603515625</LatitudeDegrees>
              <LongitudeDegrees>-73.00115696154534816741943359375</LongitudeDegrees>
            </Position>
            <AltitudeMeters>525.5999755859375</AltitudeMeters>
            <DistanceMeters>23415.24337683</DistanceMeters>
          </Trackpoint>
          <Trackpoint>
            <Time>2023-01-11T13:05:12.000Z</Time>
            <Position>
              <LatitudeDegrees>-49.22933642752468585968017578125</LatitudeDegrees>
              <LongitudeDegrees>-73.001167438924312591552734375</LongitudeDegrees>
            </Position>
            <AltitudeMeters>525.5999755859375</AltitudeMeters>
            <DistanceMeters>23416.044086158</DistanceMeters>
          </Trackpoint>
          <Trackpoint>
            <Time>2023-01-11T13:05:15.000Z</Time>
            <Position>
              <LatitudeDegrees>-49.22934195958077907562255859375</LatitudeDegrees>
              <LongitudeDegrees>-73.0011991225183010101318359375</LongitudeDegrees>
            </Position>
            <AltitudeMeters>525.79998779296875</AltitudeMeters>
            <DistanceMeters>23418.427344029</DistanceMeters>
          </Trackpoint>
          <Trackpoint>
            <Time>2023-01-11T13:05:20.000Z</Time>
            <Position>
              <LatitudeDegrees>-49.22935386188328266143798828125</LatitudeDegrees>
              <LongitudeDegrees>-73.00126693211495876312255859375</LongitudeDegrees>
            </Position>
            <AltitudeMeters>526.20001220703125</AltitudeMeters>
            <DistanceMeters>23423.530552869</DistanceMeters>
          </Trackpoint>
          <Trackpoint>
            <Time>2023-01-11T13:05:22.000Z</Time>
            <Position>
              <LatitudeDegrees>-49.22936408780515193939208984375</LatitudeDegrees>
              <LongitudeDegrees>-73.0013114400207996368408203125</LongitudeDegrees>
            </Position>
            <AltitudeMeters>526.4000244140625</AltitudeMeters>
            <DistanceMeters>23426.959424335</DistanceMeters>
          </Trackpoint>
          <Trackpoint>
            <Time>2023-01-11T13:05:29.000Z</Time>
            <Position>
              <LatitudeDegrees>-49.2294008843600749969482421875</LatitudeDegrees>
              <LongitudeDegrees>-73.00142015330493450164794921875</LongitudeDegrees>
            </Position>
            <AltitudeMeters>526.5999755859375</AltitudeMeters>
            <DistanceMeters>23435.859527175</DistanceMeters>
          </Trackpoint>
          <Trackpoint>
            <Time>2023-01-11T13:05:30.000Z</Time>
            <Position>
              <LatitudeDegrees>-49.2294005490839481353759765625</LatitudeDegrees>
              <LongitudeDegrees>-73.00142870284616947174072265625</LongitudeDegrees>
            </Position>
            <AltitudeMeters>526.5999755859375</AltitudeMeters>
            <DistanceMeters>23436.475370671</DistanceMeters>
          </Trackpoint>
          <Trackpoint>
            <Time>2023-01-11T13:05:37.000Z</Time>
            <Position>
              <LatitudeDegrees>-49.2294104397296905517578125</LatitudeDegrees>
              <LongitudeDegrees>-73.001548983156681060791015625</LongitudeDegrees>
            </Position>
            <AltitudeMeters>527</AltitudeMeters>
            <DistanceMeters>23445.286760871</DistanceMeters>
          </Trackpoint>
          <Trackpoint>
            <Time>2023-01-11T13:05:43.000Z</Time>
            <Position>
              <LatitudeDegrees>-49.2294454760849475860595703125</LatitudeDegrees>
              <LongitudeDegrees>-73.00161947496235370635986328125</LongitudeDegrees>
            </Position>
            <AltitudeMeters>527.5999755859375</AltitudeMeters>
            <DistanceMeters>23451.725478209</DistanceMeters>
          </Trackpoint>
          <Trackpoint>
            <Time>2023-01-11T13:05:44.000Z</Time>
            <Position>
              <LatitudeDegrees>-49.22945779748260974884033203125</LatitudeDegrees>
              <LongitudeDegrees>-73.00163514912128448486328125</LongitudeDegrees>
            </Position>
            <AltitudeMeters>527.5999755859375</AltitudeMeters>
            <DistanceMeters>23453.508337404</DistanceMeters>
          </Trackpoint>
          <Trackpoint>
            <Time>2023-01-11T13:05:51.000Z</Time>
            <Position>
              <LatitudeDegrees>-49.22949635423719882965087890625</LatitudeDegrees>
              <LongitudeDegrees>-73.00174109637737274169921875</LongitudeDegrees>
            </Position>
            <AltitudeMeters>528.20001220703125</AltitudeMeters>
            <DistanceMeters>23462.323825925</DistanceMeters>
          </Trackpoint>
          <Trackpoint>
            <Time>2023-01-11T13:05:58.000Z</Time>
            <Position>
              <LatitudeDegrees>-49.22950909473001956939697265625</LatitudeDegrees>
              <LongitudeDegrees>-73.00185953266918659210205078125</LongitudeDegrees>
            </Position>
            <AltitudeMeters>528.79998779296875</AltitudeMeters>
            <DistanceMeters>23471.048189188</DistanceMeters>
          </Trackpoint>
          <Trackpoint>
            <Time>2023-01-11T13:05:59.000Z</Time>
            <Position>
              <LatitudeDegrees>-49.2295142076909542083740234375</LatitudeDegrees>
              <LongitudeDegrees>-73.0018733628094196319580078125</LongitudeDegrees>
            </Position>
            <AltitudeMeters>528.79998779296875</AltitudeMeters>
            <DistanceMeters>23472.204239063</DistanceMeters>
          </Trackpoint>
          <Trackpoint>
            <Time>2023-01-11T13:06:08.000Z</Time>
            <Position>
              <LatitudeDegrees>-49.22948352992534637451171875</LatitudeDegrees>
              <LongitudeDegrees>-73.002013675868511199951171875</LongitudeDegrees>
            </Position>
            <AltitudeMeters>529.4000244140625</AltitudeMeters>
            <DistanceMeters>23482.959483331</DistanceMeters>
          </Trackpoint>
          <Trackpoint>
            <Time>2023-01-11T13:06:11.000Z</Time>
            <Position>
              <LatitudeDegrees>-49.22944757156074047088623046875</LatitudeDegrees>
              <LongitudeDegrees>-73.002060614526271820068359375</LongitudeDegrees>
            </Position>
            <AltitudeMeters>529.5999755859375</AltitudeMeters>
            <DistanceMeters>23488.219536013</DistanceMeters>
          </Trackpoint>
          <Trackpoint>
            <Time>2023-01-11T13:06:15.000Z</Time>
            <Position>
              <LatitudeDegrees>-49.22936392016708850860595703125</LatitudeDegrees>
              <LongitudeDegrees>-73.00211367197334766387939453125</LongitudeDegrees>
            </Position>
            <AltitudeMeters>529.5999755859375</AltitudeMeters>
            <DistanceMeters>23498.297745172</DistanceMeters>
          </Trackpoint>
          <Trackpoint>
            <Time>2023-01-11T13:06:19.000Z</Time>
            <Position>
              <LatitudeDegrees>-49.22932167537510395050048828125</LatitudeDegrees>
              <LongitudeDegrees>-73.0021320283412933349609375</LongitudeDegrees>
            </Position>
            <AltitudeMeters>529.5999755859375</AltitudeMeters>
            <DistanceMeters>23503.185851377</DistanceMeters>
          </Trackpoint>
          <Trackpoint>
            <Time>2023-01-11T13:06:22.000Z</Time>
            <Position>
              <LatitudeDegrees>-49.22930960543453693389892578125</LatitudeDegrees>
              <LongitudeDegrees>-73.00216547213494777679443359375</LongitudeDegrees>
            </Position>
            <AltitudeMeters>529.79998779296875</AltitudeMeters>
            <DistanceMeters>23505.962843505</DistanceMeters>
          </Trackpoint>
          <Trackpoint>
            <Time>2023-01-11T13:06:25.000Z</Time>
            <Position>
              <LatitudeDegrees>-49.22932050190865993499755859375</LatitudeDegrees>
              <LongitudeDegrees>-73.0022123269736766815185546875</LongitudeDegrees>
            </Position>
            <AltitudeMeters>530</AltitudeMeters>
            <DistanceMeters>23509.578856599</DistanceMeters>
          </Trackpoint>
          <Trackpoint>
            <Time>2023-01-11T13:06:28.000Z</Time>
            <Position>
              <LatitudeDegrees>-49.22931052744388580322265625</LatitudeDegrees>
              <LongitudeDegrees>-73.0022334493696689605712890625</LongitudeDegrees>
            </Position>
            <AltitudeMeters>530</AltitudeMeters>
            <DistanceMeters>23511.474633596</DistanceMeters>
          </Trackpoint>
          <Trackpoint>
            <Time>2023-01-11T13:06:32.000Z</Time>
            <Position>
              <LatitudeDegrees>-49.22930541448295116424560546875</LatitudeDegrees>
              <LongitudeDegrees>-73.002291955053806304931640625</LongitudeDegrees>
            </Position>
            <AltitudeMeters>530.4000244140625</AltitudeMeters>
            <DistanceMeters>23515.765592215</DistanceMeters>
          </Trackpoint>
          <Trackpoint>
            <Time>2023-01-11T13:06:37.000Z</Time>
            <Position>
              <LatitudeDegrees>-49.229272641241550445556640625</LatitudeDegrees>
              <LongitudeDegrees>-73.0023608542978763580322265625</LongitudeDegrees>
            </Position>
            <AltitudeMeters>530.5999755859375</AltitudeMeters>
            <DistanceMeters>23521.960576064</DistanceMeters>
          </Trackpoint>
          <Trackpoint>
            <Time>2023-01-11T13:06:42.000Z</Time>
            <Position>
              <LatitudeDegrees>-49.2292634211480617523193359375</LatitudeDegrees>
              <LongitudeDegrees>-73.0024082958698272705078125</LongitudeDegrees>
            </Position>
            <AltitudeMeters>530.79998779296875</AltitudeMeters>
            <DistanceMeters>23525.559065972</DistanceMeters>
          </Trackpoint>
          <Trackpoint>
            <Time>2023-01-11T13:06:44.000Z</Time>
            <Position>
              <LatitudeDegrees>-49.2292587272822856903076171875</LatitudeDegrees>
              <LongitudeDegrees>-73.00243302248418331146240234375</LongitudeDegrees>
            </Position>
            <AltitudeMeters>530.79998779296875</AltitudeMeters>
            <DistanceMeters>23527.430875167</DistanceMeters>
          </Trackpoint>
          <Trackpoint>
            <Time>2023-01-11T13:06:45.000Z</Time>
            <Position>
              <LatitudeDegrees>-49.2292644269764423370361328125</LatitudeDegrees>
              <LongitudeDegrees>-73.00244425423443317413330078125</LongitudeDegrees>
            </Position>
            <AltitudeMeters>531</AltitudeMeters>
            <DistanceMeters>23528.463129506</DistanceMeters>
          </Trackpoint>
          <Trackpoint>
            <Time>2023-01-11T13:06:47.000Z</Time>
            <Position>
              <LatitudeDegrees>-49.2292630858719348907470703125</LatitudeDegrees>
              <LongitudeDegrees>-73.0024721659719944000244140625</LongitudeDegrees>
            </Position>
            <AltitudeMeters>531.20001220703125</AltitudeMeters>
            <DistanceMeters>23530.499008944</DistanceMeters>
          </Trackpoint>
          <Trackpoint>
            <Time>2023-01-11T13:06:48.000Z</Time>
            <Position>
              <LatitudeDegrees>-49.22925864346325397491455078125</LatitudeDegrees>
              <LongitudeDegrees>-73.0024896003305912017822265625</LongitudeDegrees>
            </Position>
            <AltitudeMeters>531.20001220703125</AltitudeMeters>
            <DistanceMeters>23531.859584437</DistanceMeters>
          </Trackpoint>
          <Trackpoint>
            <Time>2023-01-11T13:06:54.000Z</Time>
            <Position>
              <LatitudeDegrees>-49.22924757935106754302978515625</LatitudeDegrees>
              <LongitudeDegrees>-73.00257735885679721832275390625</LongitudeDegrees>
            </Position>
            <AltitudeMeters>531.79998779296875</AltitudeMeters>
            <DistanceMeters>23538.35624337</DistanceMeters>
          </Trackpoint>
          <Trackpoint>
            <Time>2023-01-11T13:06:55.000Z</Time>
            <Position>
              <LatitudeDegrees>-49.22924615442752838134765625</LatitudeDegrees>
              <LongitudeDegrees>-73.0025925301015377044677734375</LongitudeDegrees>
            </Position>
            <AltitudeMeters>531.79998779296875</AltitudeMeters>
            <DistanceMeters>23539.472554505</DistanceMeters>
          </Trackpoint>
          <Trackpoint>
            <Time>2023-01-11T13:07:00.000Z</Time>
            <Position>
              <LatitudeDegrees>-49.229233078658580780029296875</LatitudeDegrees>
              <LongitudeDegrees>-73.00265195779502391815185546875</LongitudeDegrees>
            </Position>
            <AltitudeMeters>532.4000244140625</AltitudeMeters>
            <DistanceMeters>23544.029875628</DistanceMeters>
          </Trackpoint>
          <Trackpoint>
            <Time>2023-01-11T13:07:01.000Z</Time>
            <Position>
              <LatitudeDegrees>-49.229234755039215087890625</LatitudeDegrees>
              <LongitudeDegrees>-73.0026686377823352813720703125</LongitudeDegrees>
            </Position>
            <AltitudeMeters>532.5999755859375</AltitudeMeters>
            <DistanceMeters>23545.254209198</DistanceMeters>
          </Trackpoint>
          <Trackpoint>
            <Time>2023-01-11T13:07:05.000Z</Time>
            <Position>
              <LatitudeDegrees>-49.229245483875274658203125</LatitudeDegrees>
              <LongitudeDegrees>-73.0027356930077075958251953125</LongitudeDegrees>
            </Position>
            <AltitudeMeters>532.79998779296875</AltitudeMeters>
            <DistanceMeters>23550.271763695</DistanceMeters>
          </Trackpoint>
          <Trackpoint>
            <Time>2023-01-11T13:07:09.000Z</Time>
            <Position>
              <LatitudeDegrees>-49.229250513017177581787109375</LatitudeDegrees>
              <LongitudeDegrees>-73.0027990601956844329833984375</LongitudeDegrees>
            </Position>
            <AltitudeMeters>533.4000244140625</AltitudeMeters>
            <DistanceMeters>23554.913505005</DistanceMeters>
          </Trackpoint>
          <Trackpoint>
            <Time>2023-01-11T13:07:16.000Z</Time>
            <Position>
              <LatitudeDegrees>-49.2292547039687633514404296875</LatitudeDegrees>
              <LongitudeDegrees>-73.0029137246310710906982421875</LongitudeDegrees>
            </Position>
            <AltitudeMeters>533.79998779296875</AltitudeMeters>
            <DistanceMeters>23563.260724293</DistanceMeters>
          </Trackpoint>
          <Trackpoint>
            <Time>2023-01-11T13:07:17.000Z</Time>
            <Position>
              <LatitudeDegrees>-49.22925059683620929718017578125</LatitudeDegrees>
              <LongitudeDegrees>-73.00292906351387500762939453125</LongitudeDegrees>
            </Position>
            <AltitudeMeters>534</AltitudeMeters>
            <DistanceMeters>23564.462727717</DistanceMeters>
          </Trackpoint>
          <Trackpoint>
            <Time>2023-01-11T13:07:24.000Z</Time>
            <Position>
              <LatitudeDegrees>-49.22923140227794647216796875</LatitudeDegrees>
              <LongitudeDegrees>-73.00299427472054958343505859375</LongitudeDegrees>
            </Position>
            <AltitudeMeters>534.5999755859375</AltitudeMeters>
            <DistanceMeters>23569.662347787</DistanceMeters>
          </Trackpoint>
          <Trackpoint>
            <Time>2023-01-11T13:07:30.000Z</Time>
            <Position>
              <LatitudeDegrees>-49.229250848293304443359375</LatitudeDegrees>
              <LongitudeDegrees>-73.0030565522611141204833984375</LongitudeDegrees>
            </Position>
            <AltitudeMeters>535</AltitudeMeters>
            <DistanceMeters>23574.679902284</DistanceMeters>
          </Trackpoint>
          <Trackpoint>
            <Time>2023-01-11T13:07:34.000Z</Time>
            <Position>
              <LatitudeDegrees>-49.229240454733371734619140625</LatitudeDegrees>
              <LongitudeDegrees>-73.00314414314925670623779296875</LongitudeDegrees>
            </Position>
            <AltitudeMeters>534.5999755859375</AltitudeMeters>
            <DistanceMeters>23581.150795921</DistanceMeters>
          </Trackpoint>
          <Trackpoint>
            <Time>2023-01-11T13:07:37.000Z</Time>
            <Position>
              <LatitudeDegrees>-49.22922427766025066375732421875</LatitudeDegrees>
              <LongitudeDegrees>-73.00321438349783420562744140625</LongitudeDegrees>
            </Position>
            <AltitudeMeters>534.5999755859375</AltitudeMeters>
            <DistanceMeters>23586.56481736</DistanceMeters>
          </Trackpoint>
          <Trackpoint>
            <Time>2023-01-11T13:07:42.000Z</Time>
            <Position>
              <LatitudeDegrees>-49.22921103425323963165283203125</LatitudeDegrees>
              <LongitudeDegrees>-73.00330038182437419891357421875</LongitudeDegrees>
            </Position>
            <AltitudeMeters>534.79998779296875</AltitudeMeters>
            <DistanceMeters>23592.987386098</DistanceMeters>
          </Trackpoint>
          <Trackpoint>
            <Time>2023-01-11T13:07:44.000Z</Time>
            <Position>
              <LatitudeDegrees>-49.229199551045894622802734375</LatitudeDegrees>
              <LongitudeDegrees>-73.00331630744040012359619140625</LongitudeDegrees>
            </Position>
            <AltitudeMeters>534.79998779296875</AltitudeMeters>
            <DistanceMeters>23594.713632091</DistanceMeters>
          </Trackpoint>
          <Trackpoint>
            <Time>2023-01-11T13:07:49.000Z</Time>
            <Position>
              <LatitudeDegrees>-49.22915898263454437255859375</LatitudeDegrees>
              <LongitudeDegrees>-73.0033894814550876617431640625</LongitudeDegrees>
            </Position>
            <AltitudeMeters>534.79998779296875</AltitudeMeters>
            <DistanceMeters>23601.69017221</DistanceMeters>
          </Trackpoint>
          <Trackpoint>
            <Time>2023-01-11T13:07:52.000Z</Time>
            <Position>
              <LatitudeDegrees>-49.2291413806378841400146484375</LatitudeDegrees>
              <LongitudeDegrees>-73.00343491137027740478515625</LongitudeDegrees>
            </Position>
            <AltitudeMeters>534.79998779296875</AltitudeMeters>
            <DistanceMeters>23605.529063294</DistanceMeters>
          </Trackpoint>
          <Trackpoint>
            <Time>2023-01-11T13:07:58.000Z</Time>
            <Position>
              <LatitudeDegrees>-49.22914557158946990966796875</LatitudeDegrees>
              <LongitudeDegrees>-73.00352417863905429840087890625</LongitudeDegrees>
            </Position>
            <AltitudeMeters>534.79998779296875</AltitudeMeters>
            <DistanceMeters>23612.034750674</DistanceMeters>
          </Trackpoint>
          <Trackpoint>
            <Time>2023-01-11T13:08:03.000Z</Time>
            <Position>
              <LatitudeDegrees>-49.2291433922946453094482421875</LatitudeDegrees>
              <LongitudeDegrees>-73.00357614643871784210205078125</LongitudeDegrees>
            </Position>
            <AltitudeMeters>535.20001220703125</AltitudeMeters>
            <DistanceMeters>23615.819153037</DistanceMeters>
          </Trackpoint>
          <Trackpoint>
            <Time>2023-01-11T13:08:05.000Z</Time>
            <Position>
              <LatitudeDegrees>-49.229147918522357940673828125</LatitudeDegrees>
              <LongitudeDegrees>-73.003595508635044097900390625</LongitudeDegrees>
            </Position>
            <AltitudeMeters>535.20001220703125</AltitudeMeters>
            <DistanceMeters>23617.315635231</DistanceMeters>
          </Trackpoint>
          <Trackpoint>
            <Time>2023-01-11T13:08:10.000Z</Time>
            <Position>
              <LatitudeDegrees>-49.2291262932121753692626953125</LatitudeDegrees>
              <LongitudeDegrees>-73.00366885028779506683349609375</LongitudeDegrees>
            </Position>
            <AltitudeMeters>535.5999755859375</AltitudeMeters>
            <DistanceMeters>23623.164990721</DistanceMeters>
          </Trackpoint>
          <Trackpoint>
            <Time>2023-01-11T13:08:18.000Z</Time>
            <Position>
              <LatitudeDegrees>-49.22914632596075534820556640625</LatitudeDegrees>
              <LongitudeDegrees>-73.00375870428979396820068359375</LongitudeDegrees>
            </Position>
            <AltitudeMeters>535.5999755859375</AltitudeMeters>
            <DistanceMeters>23630.066050289</DistanceMeters>
          </Trackpoint>
          <Trackpoint>
            <Time>2023-01-11T13:08:19.000Z</Time>
            <Position>
              <LatitudeDegrees>-49.22914766706526279449462890625</LatitudeDegrees>
              <LongitudeDegrees>-73.00376348197460174560546875</LongitudeDegrees>
            </Position>
            <AltitudeMeters>535.5999755859375</AltitudeMeters>
            <DistanceMeters>23630.434087171</DistanceMeters>
          </Trackpoint>
          <Trackpoint>
            <Time>2023-01-11T13:08:25.000Z</Time>
            <Position>
              <LatitudeDegrees>-49.22915630042552947998046875</LatitudeDegrees>
              <LongitudeDegrees>-73.00381871871650218963623046875</LongitudeDegrees>
            </Position>
            <AltitudeMeters>536</AltitudeMeters>
            <DistanceMeters>23634.563104527</DistanceMeters>
          </Trackpoint>
          <Trackpoint>
            <Time>2023-01-11T13:08:32.000Z</Time>
            <Position>
              <LatitudeDegrees>-49.22911933623254299163818359375</LatitudeDegrees>
              <LongitudeDegrees>-73.00388845615088939666748046875</LongitudeDegrees>
            </Position>
            <AltitudeMeters>535.4000244140625</AltitudeMeters>
            <DistanceMeters>23641.091654199</DistanceMeters>
          </Trackpoint>
          <Trackpoint>
            <Time>2023-01-11T13:08:35.000Z</Time>
            <Position>
              <LatitudeDegrees>-49.2290723137557506561279296875</LatitudeDegrees>
              <LongitudeDegrees>-73.003917038440704345703125</LongitudeDegrees>
            </Position>
            <AltitudeMeters>534.79998779296875</AltitudeMeters>
            <DistanceMeters>23646.721535931</DistanceMeters>
          </Trackpoint>
          <Trackpoint>
            <Time>2023-01-11T13:08:38.000Z</Time>
            <Position>
              <LatitudeDegrees>-49.2290719784796237945556640625</LatitudeDegrees>
              <LongitudeDegrees>-73.0039614625275135040283203125</LongitudeDegrees>
            </Position>
            <AltitudeMeters>534.20001220703125</AltitudeMeters>
            <DistanceMeters>23649.949648107</DistanceMeters>
          </Trackpoint>
          <Trackpoint>
            <Time>2023-01-11T13:08:42.000Z</Time>
            <Position>
              <LatitudeDegrees>-49.22904767096042633056640625</LatitudeDegrees>
              <LongitudeDegrees>-73.00402441062033176422119140625</LongitudeDegrees>
            </Position>
            <AltitudeMeters>534</AltitudeMeters>
            <DistanceMeters>23655.264352154</DistanceMeters>
          </Trackpoint>
          <Trackpoint>
            <Time>2023-01-11T13:08:44.000Z</Time>
            <Position>
              <LatitudeDegrees>-49.22903803177177906036376953125</LatitudeDegrees>
              <LongitudeDegrees>-73.00406548194587230682373046875</LongitudeDegrees>
            </Position>
            <AltitudeMeters>533.79998779296875</AltitudeMeters>
            <DistanceMeters>23658.438870277</DistanceMeters>
          </Trackpoint>
          <Trackpoint>
            <Time>2023-01-11T13:08:46.000Z</Time>
            <Position>
              <LatitudeDegrees>-49.22902889549732208251953125</LatitudeDegrees>
              <LongitudeDegrees>-73.00409247167408466339111328125</LongitudeDegrees>
            </Position>
            <AltitudeMeters>533.79998779296875</AltitudeMeters>
            <DistanceMeters>23660.649135274</DistanceMeters>
          </Trackpoint>
          <Trackpoint>
            <Time>2023-01-11T13:08:49.000Z</Time>
            <Position>
              <LatitudeDegrees>-49.229003079235553741455078125</LatitudeDegrees>
              <LongitudeDegrees>-73.0041223950684070587158203125</LongitudeDegrees>
            </Position>
            <AltitudeMeters>533.4000244140625</AltitudeMeters>
            <DistanceMeters>23664.252640502</DistanceMeters>
          </Trackpoint>
          <Trackpoint>
            <Time>2023-01-11T13:08:52.000Z</Time>
            <Position>
              <LatitudeDegrees>-49.2289841361343860626220703125</LatitudeDegrees>
              <LongitudeDegrees>-73.0041659809648990631103515625</LongitudeDegrees>
            </Position>
            <AltitudeMeters>533</AltitudeMeters>
            <DistanceMeters>23668.057270909</DistanceMeters>
          </Trackpoint>
          <Trackpoint>
            <Time>2023-01-11T13:08:53.000Z</Time>
            <Position>
              <LatitudeDegrees>-49.228976257145404815673828125</LatitudeDegrees>
              <LongitudeDegrees>-73.00417042337357997894287109375</LongitudeDegrees>
            </Position>
            <AltitudeMeters>533</AltitudeMeters>
            <DistanceMeters>23668.988338758</DistanceMeters>
          </Trackpoint>
          <Trackpoint>
            <Time>2023-01-11T13:08:54.000Z</Time>
            <Position>
              <LatitudeDegrees>-49.2289660312235355377197265625</LatitudeDegrees>
              <LongitudeDegrees>-73.00418115220963954925537109375</LongitudeDegrees>
            </Position>
            <AltitudeMeters>533</AltitudeMeters>
            <DistanceMeters>23670.365406677</DistanceMeters>
          </Trackpoint>
          <Trackpoint>
            <Time>2023-01-11T13:08:59.000Z</Time>
            <Position>
              <LatitudeDegrees>-49.2289348505437374114990234375</LatitudeDegrees>
              <LongitudeDegrees>-73.00423312000930309295654296875</LongitudeDegrees>
            </Position>
            <AltitudeMeters>532.4000244140625</AltitudeMeters>
            <DistanceMeters>23675.495089197</DistanceMeters>
          </Trackpoint>
          <Trackpoint>
            <Time>2023-01-11T13:09:04.000Z</Time>
            <Position>
              <LatitudeDegrees>-49.22887257300317287445068359375</LatitudeDegrees>
              <LongitudeDegrees>-73.00428290851414203643798828125</LongitudeDegrees>
            </Position>
            <AltitudeMeters>531.79998779296875</AltitudeMeters>
            <DistanceMeters>23683.314465617</DistanceMeters>
          </Trackpoint>
          <Trackpoint>
            <Time>2023-01-11T13:09:07.000Z</Time>
            <Position>
              <LatitudeDegrees>-49.22882932238280773162841796875</LatitudeDegrees>
              <LongitudeDegrees>-73.00431995652616024017333984375</LongitudeDegrees>
            </Position>
            <AltitudeMeters>531.5999755859375</AltitudeMeters>
            <DistanceMeters>23688.830928036</DistanceMeters>
          </Trackpoint>
          <Trackpoint>
            <Time>2023-01-11T13:09:09.000Z</Time>
            <Position>
              <LatitudeDegrees>-49.22881892882287502288818359375</LatitudeDegrees>
              <LongitudeDegrees>-73.00435918383300304412841796875</LongitudeDegrees>
            </Position>
            <AltitudeMeters>531.4000244140625</AltitudeMeters>
            <DistanceMeters>23691.908678869</DistanceMeters>
          </Trackpoint>
          <Trackpoint>
            <Time>2023-01-11T13:09:13.000Z</Time>
            <Position>
              <LatitudeDegrees>-49.22879177145659923553466796875</LatitudeDegrees>
              <LongitudeDegrees>-73.0044080503284931182861328125</LongitudeDegrees>
            </Position>
            <AltitudeMeters>531</AltitudeMeters>
            <DistanceMeters>23696.573706653</DistanceMeters>
          </Trackpoint>
          <Trackpoint>
            <Time>2023-01-11T13:09:15.000Z</Time>
            <Position>
              <LatitudeDegrees>-49.2287729121744632720947265625</LatitudeDegrees>
              <LongitudeDegrees>-73.0044306814670562744140625</LongitudeDegrees>
            </Position>
            <AltitudeMeters>530.79998779296875</AltitudeMeters>
            <DistanceMeters>23699.241233643</DistanceMeters>
          </Trackpoint>
          <Trackpoint>
            <Time>2023-01-11T13:09:19.000Z</Time>
            <Position>
              <LatitudeDegrees>-49.2287333495914936065673828125</LatitudeDegrees>
              <LongitudeDegrees>-73.00443730317056179046630859375</LongitudeDegrees>
            </Position>
            <AltitudeMeters>530.79998779296875</AltitudeMeters>
            <DistanceMeters>23703.669927133</DistanceMeters>
          </Trackpoint>
          <Trackpoint>
            <Time>2023-01-11T13:09:26.000Z</Time>
            <Position>
              <LatitudeDegrees>-49.2287008278071880340576171875</LatitudeDegrees>
              <LongitudeDegrees>-73.004462532699108123779296875</LongitudeDegrees>
            </Position>
            <AltitudeMeters>529.79998779296875</AltitudeMeters>
            <DistanceMeters>23707.726132168</DistanceMeters>
          </Trackpoint>
          <Trackpoint>
            <Time>2023-01-11T13:09:33.000Z</Time>
            <Position>
              <LatitudeDegrees>-49.228683896362781524658203125</LatitudeDegrees>
              <LongitudeDegrees>-73.0045025981962680816650390625</LongitudeDegrees>
            </Position>
            <AltitudeMeters>528.5999755859375</AltitudeMeters>
            <DistanceMeters>23711.194281793</DistanceMeters>
          </Trackpoint>
          <Trackpoint>
            <Time>2023-01-11T13:09:34.000Z</Time>
            <Position>
              <LatitudeDegrees>-49.22867174260318279266357421875</LatitudeDegrees>
              <LongitudeDegrees>-73.00451718270778656005859375</LongitudeDegrees>
            </Position>
            <AltitudeMeters>528.4000244140625</AltitudeMeters>
            <DistanceMeters>23712.915288787</DistanceMeters>
          </Trackpoint>
          <Trackpoint>
            <Time>2023-01-11T13:09:39.000Z</Time>
            <Position>
              <LatitudeDegrees>-49.2286257259547710418701171875</LatitudeDegrees>
              <LongitudeDegrees>-73.004608042538166046142578125</LongitudeDegrees>
            </Position>
            <AltitudeMeters>527.5999755859375</AltitudeMeters>
            <DistanceMeters>23721.272778918</DistanceMeters>
          </Trackpoint>
          <Trackpoint>
            <Time>2023-01-11T13:09:40.000Z</Time>
            <Position>
              <LatitudeDegrees>-49.22862212173640727996826171875</LatitudeDegrees>
              <LongitudeDegrees>-73.00461776554584503173828125</LongitudeDegrees>
            </Position>
            <AltitudeMeters>527.4000244140625</AltitudeMeters>
            <DistanceMeters>23722.084687522</DistanceMeters>
          </Trackpoint>
          <Trackpoint>
            <Time>2023-01-11T13:09:43.000Z</Time>
            <Position>
              <LatitudeDegrees>-49.2286233790218830108642578125</LatitudeDegrees>
              <LongitudeDegrees>-73.00466227345168590545654296875</LongitudeDegrees>
            </Position>
            <AltitudeMeters>527.4000244140625</AltitudeMeters>
            <DistanceMeters>23725.323969669</DistanceMeters>
          </Trackpoint>
          <Trackpoint>
            <Time>2023-01-11T13:09:44.000Z</Time>
            <Position>
              <LatitudeDegrees>-49.22861994244158267974853515625</LatitudeDegrees>
              <LongitudeDegrees>-73.004681132733821868896484375</LongitudeDegrees>
            </Position>
            <AltitudeMeters>527.4000244140625</AltitudeMeters>
            <DistanceMeters>23726.7461993</DistanceMeters>
          </Trackpoint>
          <Trackpoint>
            <Time>2023-01-11T13:09:46.000Z</Time>
            <Position>
              <LatitudeDegrees>-49.22862497158348560333251953125</LatitudeDegrees>
              <LongitudeDegrees>-73.00471700727939605712890625</LongitudeDegrees>
            </Position>
            <AltitudeMeters>527.20001220703125</AltitudeMeters>
            <DistanceMeters>23729.413726289</DistanceMeters>
          </Trackpoint>
          <Trackpoint>
            <Time>2023-01-11T13:09:47.000Z</Time>
            <Position>
              <LatitudeDegrees>-49.22862832434475421905517578125</LatitudeDegrees>
              <LongitudeDegrees>-73.00473368726670742034912109375</LongitudeDegrees>
            </Position>
            <AltitudeMeters>527.20001220703125</AltitudeMeters>
            <DistanceMeters>23730.681540789</DistanceMeters>
          </Trackpoint>
          <Trackpoint>
            <Time>2023-01-11T13:09:53.000Z</Time>
            <Position>
              <LatitudeDegrees>-49.228612482547760009765625</LatitudeDegrees>
              <LongitudeDegrees>-73.00479755736887454986572265625</LongitudeDegrees>
            </Position>
            <AltitudeMeters>527.79998779296875</AltitudeMeters>
            <DistanceMeters>23735.648448162</DistanceMeters>
          </Trackpoint>
          <Trackpoint>
            <Time>2023-01-11T13:09:56.000Z</Time>
            <Position>
              <LatitudeDegrees>-49.2286143265664577484130859375</LatitudeDegrees>
              <LongitudeDegrees>-73.00483024679124355316162109375</LongitudeDegrees>
            </Position>
            <AltitudeMeters>528.20001220703125</AltitudeMeters>
            <DistanceMeters>23738.033599763</DistanceMeters>
          </Trackpoint>
          <Trackpoint>
            <Time>2023-01-11T13:09:58.000Z</Time>
            <Position>
              <LatitudeDegrees>-49.22861793078482151031494140625</LatitudeDegrees>
              <LongitudeDegrees>-73.00485388375818729400634765625</LongitudeDegrees>
            </Position>
            <AltitudeMeters>528.5999755859375</AltitudeMeters>
            <DistanceMeters>23739.798642644</DistanceMeters>
          </Trackpoint>
          <Trackpoint>
            <Time>2023-01-11T13:09:59.000Z</Time>
            <Position>
              <LatitudeDegrees>-49.2286196909844875335693359375</LatitudeDegrees>
              <LongitudeDegrees>-73.00486360676586627960205078125</LongitudeDegrees>
            </Position>
            <AltitudeMeters>528.5999755859375</AltitudeMeters>
            <DistanceMeters>23740.534716408</DistanceMeters>
          </Trackpoint>
          <Trackpoint>
            <Time>2023-01-11T13:10:03.000Z</Time>
            <Position>
              <LatitudeDegrees>-49.22863083891570568084716796875</LatitudeDegrees>
              <LongitudeDegrees>-73.00488774664700031280517578125</LongitudeDegrees>
            </Position>
            <AltitudeMeters>529</AltitudeMeters>
            <DistanceMeters>23742.6849255</DistanceMeters>
          </Trackpoint>
          <Trackpoint>
            <Time>2023-01-11T13:10:04.000Z</Time>
            <Position>
              <LatitudeDegrees>-49.2286352813243865966796875</LatitudeDegrees>
              <LongitudeDegrees>-73.00490149296820163726806640625</LongitudeDegrees>
            </Position>
            <AltitudeMeters>529</AltitudeMeters>
            <DistanceMeters>23743.793117901</DistanceMeters>
          </Trackpoint>
          <Trackpoint>
            <Time>2023-01-11T13:10:05.000Z</Time>
            <Position>
              <LatitudeDegrees>-49.22863888554275035858154296875</LatitudeDegrees>
              <LongitudeDegrees>-73.0049146525561809539794921875</LongitudeDegrees>
            </Position>
            <AltitudeMeters>529</AltitudeMeters>
            <DistanceMeters>23744.834083401</DistanceMeters>
          </Trackpoint>
          <Trackpoint>
            <Time>2023-01-11T13:10:09.000Z</Time>
            <Position>
              <LatitudeDegrees>-49.2286659590899944305419921875</LatitudeDegrees>
              <LongitudeDegrees>-73.00497324205935001373291015625</LongitudeDegrees>
            </Position>
            <AltitudeMeters>529.20001220703125</AltitudeMeters>
            <DistanceMeters>23750.051041366</DistanceMeters>
          </Trackpoint>
          <Trackpoint>
            <Time>2023-01-11T13:10:12.000Z</Time>
            <Position>
              <LatitudeDegrees>-49.22867911867797374725341796875</LatitudeDegrees>
              <LongitudeDegrees>-73.0050189234316349029541015625</LongitudeDegrees>
            </Position>
            <AltitudeMeters>529.4000244140625</AltitudeMeters>
            <DistanceMeters>23753.679519209</DistanceMeters>
          </Trackpoint>
          <Trackpoint>
            <Time>2023-01-11T13:10:15.000Z</Time>
            <Position>
              <LatitudeDegrees>-49.22868615947663784027099609375</LatitudeDegrees>
              <LongitudeDegrees>-73.00504557788372039794921875</LongitudeDegrees>
            </Position>
            <AltitudeMeters>529.79998779296875</AltitudeMeters>
            <DistanceMeters>23755.770106925</DistanceMeters>
          </Trackpoint>
          <Trackpoint>
            <Time>2023-01-11T13:10:18.000Z</Time>
            <Position>
              <LatitudeDegrees>-49.2286835610866546630859375</LatitudeDegrees>
              <LongitudeDegrees>-73.00509830005466938018798828125</LongitudeDegrees>
            </Position>
            <AltitudeMeters>530.20001220703125</AltitudeMeters>
            <DistanceMeters>23759.613699653</DistanceMeters>
          </Trackpoint>
          <Trackpoint>
            <Time>2023-01-11T13:10:27.000Z</Time>
            <Position>
              <LatitudeDegrees>-49.2286773584783077239990234375</LatitudeDegrees>
              <LongitudeDegrees>-73.00527364946901798248291015625</LongitudeDegrees>
            </Position>
            <AltitudeMeters>530.5999755859375</AltitudeMeters>
            <DistanceMeters>23772.377736601</DistanceMeters>
          </Trackpoint>
          <Trackpoint>
            <Time>2023-01-11T13:10:37.000Z</Time>
            <Position>
              <LatitudeDegrees>-49.22874114476144313812255859375</LatitudeDegrees>
              <LongitudeDegrees>-73.00538965500891208648681640625</LongitudeDegrees>
            </Position>
            <AltitudeMeters>530.79998779296875</AltitudeMeters>
            <DistanceMeters>23783.400425862</DistanceMeters>
          </Trackpoint>
          <Trackpoint>
            <Time>2023-01-11T13:10:38.000Z</Time>
            <Position>
              <LatitudeDegrees>-49.2287507839500904083251953125</LatitudeDegrees>
              <LongitudeDegrees>-73.005403317511081695556640625</LongitudeDegrees>
            </Position>
            <AltitudeMeters>531</AltitudeMeters>
            <DistanceMeters>23784.860253948</DistanceMeters>
          </Trackpoint>
          <Trackpoint>
            <Time>2023-01-11T13:10:44.000Z</Time>
            <Position>
              <LatitudeDegrees>-49.22877232544124126434326171875</LatitudeDegrees>
              <LongitudeDegrees>-73.0054842866957187652587890625</LongitudeDegrees>
            </Position>
            <AltitudeMeters>531.5999755859375</AltitudeMeters>
            <DistanceMeters>23791.214976748</DistanceMeters>
          </Trackpoint>
          <Trackpoint>
            <Time>2023-01-11T13:10:46.000Z</Time>
            <Position>
              <LatitudeDegrees>-49.22878540121018886566162109375</LatitudeDegrees>
              <LongitudeDegrees>-73.00551990978419780731201171875</LongitudeDegrees>
            </Position>
            <AltitudeMeters>531.79998779296875</AltitudeMeters>
            <DistanceMeters>23794.186746382</DistanceMeters>
          </Trackpoint>
          <Trackpoint>
            <Time>2023-01-11T13:10:47.000Z</Time>
            <Position>
              <LatitudeDegrees>-49.22879126854240894317626953125</LatitudeDegrees>
              <LongitudeDegrees>-73.0055411159992218017578125</LongitudeDegrees>
            </Position>
            <AltitudeMeters>532</AltitudeMeters>
            <DistanceMeters>23795.859864339</DistanceMeters>
          </Trackpoint>
          <Trackpoint>
            <Time>2023-01-11T13:10:50.000Z</Time>
            <Position>
              <LatitudeDegrees>-49.228790514171123504638671875</LatitudeDegrees>
              <LongitudeDegrees>-73.00558176822960376739501953125</LongitudeDegrees>
            </Position>
            <AltitudeMeters>532.20001220703125</AltitudeMeters>
            <DistanceMeters>23798.816401841</DistanceMeters>
          </Trackpoint>
          <Trackpoint>
            <Time>2023-01-11T13:10:51.000Z</Time>
            <Position>
              <LatitudeDegrees>-49.22879822552204132080078125</LatitudeDegrees>
              <LongitudeDegrees>-73.00559333525598049163818359375</LongitudeDegrees>
            </Position>
            <AltitudeMeters>532.4000244140625</AltitudeMeters>
            <DistanceMeters>23800.018405265</DistanceMeters>
          </Trackpoint>
          <Trackpoint>
            <Time>2023-01-11T13:10:52.000Z</Time>
            <Position>
              <LatitudeDegrees>-49.22880585305392742156982421875</LatitudeDegrees>
              <LongitudeDegrees>-73.00560347735881805419921875</LongitudeDegrees>
            </Position>
            <AltitudeMeters>532.4000244140625</AltitudeMeters>
            <DistanceMeters>23801.142776512</DistanceMeters>
          </Trackpoint>
          <Trackpoint>
            <Time>2023-01-11T13:10:53.000Z</Time>
            <Position>
              <LatitudeDegrees>-49.228809960186481475830078125</LatitudeDegrees>
              <LongitudeDegrees>-73.00561278127133846282958984375</LongitudeDegrees>
            </Position>
            <AltitudeMeters>532.4000244140625</AltitudeMeters>
            <DistanceMeters>23801.960227218</DistanceMeters>
          </Trackpoint>
          <Trackpoint>
            <Time>2023-01-11T13:10:57.000Z</Time>
            <Position>
              <LatitudeDegrees>-49.228828065097332000732421875</LatitudeDegrees>
              <LongitudeDegrees>-73.0056680180132389068603515625</LongitudeDegrees>
            </Position>
            <AltitudeMeters>532.5999755859375</AltitudeMeters>
            <DistanceMeters>23806.452689889</DistanceMeters>
          </Trackpoint>
          <Trackpoint>
            <Time>2023-01-11T13:11:01.000Z</Time>
            <Position>
              <LatitudeDegrees>-49.2288476787507534027099609375</LatitudeDegrees>
              <LongitudeDegrees>-73.00572727806866168975830078125</LongitudeDegrees>
            </Position>
            <AltitudeMeters>532.5999755859375</AltitudeMeters>
            <DistanceMeters>23811.281318823</DistanceMeters>
          </Trackpoint>
          <Trackpoint>
            <Time>2023-01-11T13:11:08.000Z</Time>
            <Position>
              <LatitudeDegrees>-49.2288771830499172210693359375</LatitudeDegrees>
              <LongitudeDegrees>-73.00584479235112667083740234375</LongitudeDegrees>
            </Position>
            <AltitudeMeters>533</AltitudeMeters>
            <DistanceMeters>23820.431557552</DistanceMeters>
          </Trackpoint>
          <Trackpoint>
            <Time>2023-01-11T13:11:09.000Z</Time>
            <Position>
              <LatitudeDegrees>-49.2288835532963275909423828125</LatitudeDegrees>
              <LongitudeDegrees>-73.00585669465363025665283203125</LongitudeDegrees>
            </Position>
            <AltitudeMeters>533</AltitudeMeters>
            <DistanceMeters>23821.547868686</DistanceMeters>
          </Trackpoint>
          <Trackpoint>
            <Time>2023-01-11T13:11:17.000Z</Time>
            <Position>
              <LatitudeDegrees>-49.2288999818265438079833984375</LatitudeDegrees>
              <LongitudeDegrees>-73.0059332214295864105224609375</LongitudeDegrees>
            </Position>
            <AltitudeMeters>533.5999755859375</AltitudeMeters>
            <DistanceMeters>23827.402624888</DistanceMeters>
          </Trackpoint>
          <Trackpoint>
            <Time>2023-01-11T13:11:20.000Z</Time>
            <Position>
              <LatitudeDegrees>-49.22893526963889598846435546875</LatitudeDegrees>
              <LongitudeDegrees>-73.00595694221556186676025390625</LongitudeDegrees>
            </Position>
            <AltitudeMeters>533.5999755859375</AltitudeMeters>
            <DistanceMeters>23831.692531156</DistanceMeters>
          </Trackpoint>
          <Trackpoint>
            <Time>2023-01-11T13:11:24.000Z</Time>
            <Position>
              <LatitudeDegrees>-49.22897047363221645355224609375</LatitudeDegrees>
              <LongitudeDegrees>-73.0059912241995334625244140625</LongitudeDegrees>
            </Position>
            <AltitudeMeters>533.5999755859375</AltitudeMeters>
            <DistanceMeters>23836.336217467</DistanceMeters>
          </Trackpoint>
          <Trackpoint>
            <Time>2023-01-11T13:11:31.000Z</Time>
            <Position>
              <LatitudeDegrees>-49.22897583805024623870849609375</LatitudeDegrees>
              <LongitudeDegrees>-73.0059986002743244171142578125</LongitudeDegrees>
            </Position>
            <AltitudeMeters>533.79998779296875</AltitudeMeters>
            <DistanceMeters>23837.131268</DistanceMeters>
          </Trackpoint>
          <Trackpoint>
            <Time>2023-01-11T13:11:40.000Z</Time>
            <Position>
              <LatitudeDegrees>-49.22899293713271617889404296875</LatitudeDegrees>
              <LongitudeDegrees>-73.0060110054910182952880859375</LongitudeDegrees>
            </Position>
            <AltitudeMeters>533.79998779296875</AltitudeMeters>
            <DistanceMeters>23839.236919333</DistanceMeters>
          </Trackpoint>
          <Trackpoint>
            <Time>2023-01-11T13:11:48.000Z</Time>
            <Position>
              <LatitudeDegrees>-49.22900701873004436492919921875</LatitudeDegrees>
              <LongitudeDegrees>-73.0060599558055400848388671875</LongitudeDegrees>
            </Position>
            <AltitudeMeters>534</AltitudeMeters>
            <DistanceMeters>23843.124894123</DistanceMeters>
          </Trackpoint>
          <Trackpoint>
            <Time>2023-01-11T13:11:54.000Z</Time>
            <Position>
              <LatitudeDegrees>-49.22904289327561855316162109375</LatitudeDegrees>
              <LongitudeDegrees>-73.00617302767932415008544921875</LongitudeDegrees>
            </Position>
            <AltitudeMeters>534</AltitudeMeters>
            <DistanceMeters>23852.262294563</DistanceMeters>
          </Trackpoint>
          <Trackpoint>
            <Time>2023-01-11T13:12:00.000Z</Time>
            <Position>
              <LatitudeDegrees>-49.22904658131301403045654296875</LatitudeDegrees>
              <LongitudeDegrees>-73.00626422278583049774169921875</LongitudeDegrees>
            </Position>
            <AltitudeMeters>534.4000244140625</AltitudeMeters>
            <DistanceMeters>23858.903295493</DistanceMeters>
          </Trackpoint>
          <Trackpoint>
            <Time>2023-01-11T13:12:07.000Z</Time>
            <Position>
              <LatitudeDegrees>-49.22901682555675506591796875</LatitudeDegrees>
              <LongitudeDegrees>-73.00637670792639255523681640625</LongitudeDegrees>
            </Position>
            <AltitudeMeters>534.20001220703125</AltitudeMeters>
            <DistanceMeters>23867.723904238</DistanceMeters>
          </Trackpoint>
          <Trackpoint>
            <Time>2023-01-11T13:12:08.000Z</Time>
            <Position>
              <LatitudeDegrees>-49.22900852747261524200439453125</LatitudeDegrees>
              <LongitudeDegrees>-73.00639741122722625732421875</LongitudeDegrees>
            </Position>
            <AltitudeMeters>534.20001220703125</AltitudeMeters>
            <DistanceMeters>23869.491503302</DistanceMeters>
          </Trackpoint>
          <Trackpoint>
            <Time>2023-01-11T13:12:16.000Z</Time>
            <Position>
              <LatitudeDegrees>-49.229094274342060089111328125</LatitudeDegrees>
              <LongitudeDegrees>-73.00649707205593585968017578125</LongitudeDegrees>
            </Position>
            <AltitudeMeters>534</AltitudeMeters>
            <DistanceMeters>23881.473162423</DistanceMeters>
          </Trackpoint>
          <Trackpoint>
            <Time>2023-01-11T13:12:17.000Z</Time>
            <Position>
              <LatitudeDegrees>-49.22909838147461414337158203125</LatitudeDegrees>
              <LongitudeDegrees>-73.00651609897613525390625</LongitudeDegrees>
            </Position>
            <AltitudeMeters>534</AltitudeMeters>
            <DistanceMeters>23882.926791636</DistanceMeters>
          </Trackpoint>
          <Trackpoint>
            <Time>2023-01-11T13:12:24.000Z</Time>
            <Position>
              <LatitudeDegrees>-49.2290545441210269927978515625</LatitudeDegrees>
              <LongitudeDegrees>-73.00661223940551280975341796875</LongitudeDegrees>
            </Position>
            <AltitudeMeters>534.4000244140625</AltitudeMeters>
            <DistanceMeters>23891.449580787</DistanceMeters>
          </Trackpoint>
          <Trackpoint>
            <Time>2023-01-11T13:12:29.000Z</Time>
            <Position>
              <LatitudeDegrees>-49.22907239757478237152099609375</LatitudeDegrees>
              <LongitudeDegrees>-73.006698153913021087646484375</LongitudeDegrees>
            </Position>
            <AltitudeMeters>534.20001220703125</AltitudeMeters>
            <DistanceMeters>23898.002980177</DistanceMeters>
          </Trackpoint>
          <Trackpoint>
            <Time>2023-01-11T13:12:31.000Z</Time>
            <Position>
              <LatitudeDegrees>-49.22906921245157718658447265625</LatitudeDegrees>
              <LongitudeDegrees>-73.00672589801251888275146484375</LongitudeDegrees>
            </Position>
            <AltitudeMeters>534.20001220703125</AltitudeMeters>
            <DistanceMeters>23900.049918249</DistanceMeters>
          </Trackpoint>
          <Trackpoint>
            <Time>2023-01-11T13:12:39.000Z</Time>
            <Position>
              <LatitudeDegrees>-49.22904876060783863067626953125</LatitudeDegrees>
              <LongitudeDegrees>-73.00684927962720394134521484375</LongitudeDegrees>
            </Position>
            <AltitudeMeters>534</AltitudeMeters>
            <DistanceMeters>23909.302222</DistanceMeters>
          </Trackpoint>
          <Trackpoint>
            <Time>2023-01-11T13:12:40.000Z</Time>
            <Position>
              <LatitudeDegrees>-49.22904524020850658416748046875</LatitudeDegrees>
              <LongitudeDegrees>-73.0068693123757839202880859375</LongitudeDegrees>
            </Position>
            <AltitudeMeters>534</AltitudeMeters>
            <DistanceMeters>23910.810724324</DistanceMeters>
          </Trackpoint>
          <Trackpoint>
            <Time>2023-01-11T13:12:44.000Z</Time>
            <Position>
              <LatitudeDegrees>-49.2290411330759525299072265625</LatitudeDegrees>
              <LongitudeDegrees>-73.00692656077444553375244140625</LongitudeDegrees>
            </Position>
            <AltitudeMeters>534</AltitudeMeters>
            <DistanceMeters>23914.99729552</DistanceMeters>
          </Trackpoint>
          <Trackpoint>
            <Time>2023-01-11T13:12:45.000Z</Time>
            <Position>
              <LatitudeDegrees>-49.22903534956276416778564453125</LatitudeDegrees>
              <LongitudeDegrees>-73.00694298930466175079345703125</LongitudeDegrees>
            </Position>
            <AltitudeMeters>534</AltitudeMeters>
            <DistanceMeters>23916.354548479</DistanceMeters>
          </Trackpoint>
          <Trackpoint>
            <Time>2023-01-11T13:12:48.000Z</Time>
            <Position>
              <LatitudeDegrees>-49.22902914695441722869873046875</LatitudeDegrees>
              <LongitudeDegrees>-73.00698104314506053924560546875</LongitudeDegrees>
            </Position>
            <AltitudeMeters>534</AltitudeMeters>
            <DistanceMeters>23919.20534991</DistanceMeters>
          </Trackpoint>
          <Trackpoint>
            <Time>2023-01-11T13:12:49.000Z</Time>
            <Position>
              <LatitudeDegrees>-49.22903233207762241363525390625</LatitudeDegrees>
              <LongitudeDegrees>-73.006996549665927886962890625</LongitudeDegrees>
            </Position>
            <AltitudeMeters>534</AltitudeMeters>
            <DistanceMeters>23920.388422963</DistanceMeters>
          </Trackpoint>
          <Trackpoint>
            <Time>2023-01-11T13:12:57.000Z</Time>
            <Position>
              <LatitudeDegrees>-49.2290367744863033294677734375</LatitudeDegrees>
              <LongitudeDegrees>-73.00711984746158123016357421875</LongitudeDegrees>
            </Position>
            <AltitudeMeters>534.20001220703125</AltitudeMeters>
            <DistanceMeters>23929.364298521</DistanceMeters>
          </Trackpoint>
          <Trackpoint>
            <Time>2023-01-11T13:13:03.000Z</Time>
            <Position>
              <LatitudeDegrees>-49.229013808071613311767578125</LatitudeDegrees>
              <LongitudeDegrees>-73.0071992240846157073974609375</LongitudeDegrees>
            </Position>
            <AltitudeMeters>534</AltitudeMeters>
            <DistanceMeters>23935.675531934</DistanceMeters>
          </Trackpoint>
          <Trackpoint>
            <Time>2023-01-11T13:13:13.000Z</Time>
            <Position>
              <LatitudeDegrees>-49.22897114418447017669677734375</LatitudeDegrees>
              <LongitudeDegrees>-73.00735755823552608489990234375</LongitudeDegrees>
            </Position>
            <AltitudeMeters>534</AltitudeMeters>
            <DistanceMeters>23948.125119561</DistanceMeters>
          </Trackpoint>
          <Trackpoint>
            <Time>2023-01-11T13:13:22.000Z</Time>
            <Position>
              <LatitudeDegrees>-49.22896175645291805267333984375</LatitudeDegrees>
              <LongitudeDegrees>-73.00750273279845714569091796875</LongitudeDegrees>
            </Position>
            <AltitudeMeters>534.20001220703125</AltitudeMeters>
            <DistanceMeters>23958.728585118</DistanceMeters>
          </Trackpoint>
          <Trackpoint>
            <Time>2023-01-11T13:13:29.000Z</Time>
            <Position>
              <LatitudeDegrees>-49.228967539966106414794921875</LatitudeDegrees>
              <LongitudeDegrees>-73.00764606334269046783447265625</LongitudeDegrees>
            </Position>
            <AltitudeMeters>533.5999755859375</AltitudeMeters>
            <DistanceMeters>23969.165962289</DistanceMeters>
          </Trackpoint>
          <Trackpoint>
            <Time>2023-01-11T13:13:34.000Z</Time>
            <Position>
              <LatitudeDegrees>-49.2289606668055057525634765625</LatitudeDegrees>
              <LongitudeDegrees>-73.0077396892011165618896484375</LongitudeDegrees>
            </Position>
            <AltitudeMeters>533.4000244140625</AltitudeMeters>
            <DistanceMeters>23976.013162951</DistanceMeters>
          </Trackpoint>
          <Trackpoint>
            <Time>2023-01-11T13:13:38.000Z</Time>
            <Position>
              <LatitudeDegrees>-49.2289355210959911346435546875</LatitudeDegrees>
              <LongitudeDegrees>-73.00781990401446819305419921875</LongitudeDegrees>
            </Position>
            <AltitudeMeters>533.4000244140625</AltitudeMeters>
            <DistanceMeters>23982.480566919</DistanceMeters>
          </Trackpoint>
          <Trackpoint>
            <Time>2023-01-11T13:13:40.000Z</Time>
            <Position>
              <LatitudeDegrees>-49.22891884110867977142333984375</LatitudeDegrees>
              <LongitudeDegrees>-73.00784186460077762603759765625</LongitudeDegrees>
            </Position>
            <AltitudeMeters>533.20001220703125</AltitudeMeters>
            <DistanceMeters>23984.929234058</DistanceMeters>
          </Trackpoint>
          <Trackpoint>
            <Time>2023-01-11T13:13:44.000Z</Time>
            <Position>
              <LatitudeDegrees>-49.22887391410768032073974609375</LatitudeDegrees>
              <LongitudeDegrees>-73.00787924788892269134521484375</LongitudeDegrees>
            </Position>
            <AltitudeMeters>533</AltitudeMeters>
            <DistanceMeters>23990.619739671</DistanceMeters>
          </Trackpoint>
          <Trackpoint>
            <Time>2023-01-11T13:13:50.000Z</Time>
            <Position>
              <LatitudeDegrees>-49.228813312947750091552734375</LatitudeDegrees>
              <LongitudeDegrees>-73.007925264537334442138671875</LongitudeDegrees>
            </Position>
            <AltitudeMeters>531.79998779296875</AltitudeMeters>
            <DistanceMeters>23998.149070313</DistanceMeters>
          </Trackpoint>
          <Trackpoint>
            <Time>2023-01-11T13:13:51.000Z</Time>
            <Position>
              <LatitudeDegrees>-49.22880568541586399078369140625</LatitudeDegrees>
              <LongitudeDegrees>-73.00793741829693317413330078125</LongitudeDegrees>
            </Position>
            <AltitudeMeters>531.79998779296875</AltitudeMeters>
            <DistanceMeters>23999.373403882</DistanceMeters>
          </Trackpoint>
          <Trackpoint>
            <Time>2023-01-11T13:13:54.000Z</Time>
            <Position>
              <LatitudeDegrees>-49.22878523357212543487548828125</LatitudeDegrees>
              <LongitudeDegrees>-73.00797580741345882415771484375</LongitudeDegrees>
            </Position>
            <AltitudeMeters>531.5999755859375</AltitudeMeters>
            <DistanceMeters>24002.974402323</DistanceMeters>
          </Trackpoint>
          <Trackpoint>
            <Time>2023-01-11T13:14:01.000Z</Time>
            <Position>
              <LatitudeDegrees>-49.228756986558437347412109375</LatitudeDegrees>
              <LongitudeDegrees>-73.00810907967388629913330078125</LongitudeDegrees>
            </Position>
            <AltitudeMeters>531</AltitudeMeters>
            <DistanceMeters>24013.158677361</DistanceMeters>
          </Trackpoint>
          <Trackpoint>
            <Time>2023-01-11T13:14:02.000Z</Time>
            <Position>
              <LatitudeDegrees>-49.22875388525426387786865234375</LatitudeDegrees>
              <LongitudeDegrees>-73.00811897031962871551513671875</LongitudeDegrees>
            </Position>
            <AltitudeMeters>530.79998779296875</AltitudeMeters>
            <DistanceMeters>24013.953727894</DistanceMeters>
          </Trackpoint>
          <Trackpoint>
            <Time>2023-01-11T13:14:03.000Z</Time>
            <Position>
              <LatitudeDegrees>-49.228754304349422454833984375</LatitudeDegrees>
              <LongitudeDegrees>-73.00813053734600543975830078125</LongitudeDegrees>
            </Position>
            <AltitudeMeters>530.79998779296875</AltitudeMeters>
            <DistanceMeters>24014.803672666</DistanceMeters>
          </Trackpoint>
          <Trackpoint>
            <Time>2023-01-11T13:14:10.000Z</Time>
            <Position>
              <LatitudeDegrees>-49.22871465794742107391357421875</LatitudeDegrees>
              <LongitudeDegrees>-73.0082295276224613189697265625</LongitudeDegrees>
            </Position>
            <AltitudeMeters>529.79998779296875</AltitudeMeters>
            <DistanceMeters>24023.244484425</DistanceMeters>
          </Trackpoint>
          <Trackpoint>
            <Time>2023-01-11T13:14:11.000Z</Time>
            <Position>
              <LatitudeDegrees>-49.22871063463389873504638671875</LatitudeDegrees>
              <LongitudeDegrees>-73.00824344158172607421875</LongitudeDegrees>
            </Position>
            <AltitudeMeters>529.5999755859375</AltitudeMeters>
            <DistanceMeters>24024.352676825</DistanceMeters>
          </Trackpoint>
          <Trackpoint>
            <Time>2023-01-11T13:14:14.000Z</Time>
            <Position>
              <LatitudeDegrees>-49.22868263907730579376220703125</LatitudeDegrees>
              <LongitudeDegrees>-73.0082798190414905548095703125</LongitudeDegrees>
            </Position>
            <AltitudeMeters>529.20001220703125</AltitudeMeters>
            <DistanceMeters>24028.438825543</DistanceMeters>
          </Trackpoint>
          <Trackpoint>
            <Time>2023-01-11T13:14:19.000Z</Time>
            <Position>
              <LatitudeDegrees>-49.22865900211036205291748046875</LatitudeDegrees>
              <LongitudeDegrees>-73.0083453655242919921875</LongitudeDegrees>
            </Position>
            <AltitudeMeters>529.4000244140625</AltitudeMeters>
            <DistanceMeters>24033.881127514</DistanceMeters>
          </Trackpoint>
          <Trackpoint>
            <Time>2023-01-11T13:14:25.000Z</Time>
            <Position>
              <LatitudeDegrees>-49.2286726646125316619873046875</LatitudeDegrees>
              <LongitudeDegrees>-73.00845189951360225677490234375</LongitudeDegrees>
            </Position>
            <AltitudeMeters>529.79998779296875</AltitudeMeters>
            <DistanceMeters>24041.77235094</DistanceMeters>
          </Trackpoint>
          <Trackpoint>
            <Time>2023-01-11T13:14:27.000Z</Time>
            <Position>
              <LatitudeDegrees>-49.2286763526499271392822265625</LatitudeDegrees>
              <LongitudeDegrees>-73.00848425365984439849853515625</LongitudeDegrees>
            </Position>
            <AltitudeMeters>529.79998779296875</AltitudeMeters>
            <DistanceMeters>24044.161285496</DistanceMeters>
          </Trackpoint>
          <Trackpoint>
            <Time>2023-01-11T13:14:28.000Z</Time>
            <Position>
              <LatitudeDegrees>-49.228680543601512908935546875</LatitudeDegrees>
              <LongitudeDegrees>-73.00850822590291500091552734375</LongitudeDegrees>
            </Position>
            <AltitudeMeters>529.79998779296875</AltitudeMeters>
            <DistanceMeters>24045.964290631</DistanceMeters>
          </Trackpoint>
          <Trackpoint>
            <Time>2023-01-11T13:14:35.000Z</Time>
            <Position>
              <LatitudeDegrees>-49.228692613542079925537109375</LatitudeDegrees>
              <LongitudeDegrees>-73.00858651287853717803955078125</LongitudeDegrees>
            </Position>
            <AltitudeMeters>529.5999755859375</AltitudeMeters>
            <DistanceMeters>24051.809785415</DistanceMeters>
          </Trackpoint>
          <Trackpoint>
            <Time>2023-01-11T13:14:44.000Z</Time>
            <Position>
              <LatitudeDegrees>-49.228709042072296142578125</LatitudeDegrees>
              <LongitudeDegrees>-73.0086251534521579742431640625</LongitudeDegrees>
            </Position>
            <AltitudeMeters>530.20001220703125</AltitudeMeters>
            <DistanceMeters>24055.161414138</DistanceMeters>
          </Trackpoint>
          <Trackpoint>
            <Time>2023-01-11T13:14:52.000Z</Time>
            <Position>
              <LatitudeDegrees>-49.22874164767563343048095703125</LatitudeDegrees>
              <LongitudeDegrees>-73.0087421648204326629638671875</LongitudeDegrees>
            </Position>
            <AltitudeMeters>530</AltitudeMeters>
            <DistanceMeters>24064.407860145</DistanceMeters>
          </Trackpoint>
          <Trackpoint>
            <Time>2023-01-11T13:14:53.000Z</Time>
            <Position>
              <LatitudeDegrees>-49.22874131239950656890869140625</LatitudeDegrees>
              <LongitudeDegrees>-73.00875104963779449462890625</LongitudeDegrees>
            </Position>
            <AltitudeMeters>530</AltitudeMeters>
            <DistanceMeters>24065.052362679</DistanceMeters>
          </Trackpoint>
          <Trackpoint>
            <Time>2023-01-11T13:14:55.000Z</Time>
            <Position>
              <LatitudeDegrees>-49.22873963601887226104736328125</LatitudeDegrees>
              <LongitudeDegrees>-73.008771501481533050537109375</LongitudeDegrees>
            </Position>
            <AltitudeMeters>530.20001220703125</AltitudeMeters>
            <DistanceMeters>24066.548844874</DistanceMeters>
          </Trackpoint>
          <Trackpoint>
            <Time>2023-01-11T13:15:00.000Z</Time>
            <Position>
              <LatitudeDegrees>-49.22876008786261081695556640625</LatitudeDegrees>
              <LongitudeDegrees>-73.00882439129054546356201171875</LongitudeDegrees>
            </Position>
            <AltitudeMeters>530.20001220703125</AltitudeMeters>
            <DistanceMeters>24071.016111257</DistanceMeters>
          </Trackpoint>
          <Trackpoint>
            <Time>2023-01-11T13:15:03.000Z</Time>
            <Position>
              <LatitudeDegrees>-49.2287890054285526275634765625</LatitudeDegrees>
              <LongitudeDegrees>-73.00885020755231380462646484375</LongitudeDegrees>
            </Position>
            <AltitudeMeters>530.4000244140625</AltitudeMeters>
            <DistanceMeters>24074.742806519</DistanceMeters>
          </Trackpoint>
          <Trackpoint>
            <Time>2023-01-11T13:15:08.000Z</Time>
            <Position>
              <LatitudeDegrees>-49.2288302443921566009521484375</LatitudeDegrees>
              <LongitudeDegrees>-73.00891005434095859527587890625</LongitudeDegrees>
            </Position>
            <AltitudeMeters>530.5999755859375</AltitudeMeters>
            <DistanceMeters>24081.066189987</DistanceMeters>
          </Trackpoint>
          <Trackpoint>
            <Time>2023-01-11T13:15:09.000Z</Time>
            <Position>
              <LatitudeDegrees>-49.2288322560489177703857421875</LatitudeDegrees>
              <LongitudeDegrees>-73.00891810096800327301025390625</LongitudeDegrees>
            </Position>
            <AltitudeMeters>530.5999755859375</AltitudeMeters>
            <DistanceMeters>24081.689321825</DistanceMeters>
          </Trackpoint>
          <Trackpoint>
            <Time>2023-01-11T13:15:10.000Z</Time>
            <Position>
              <LatitudeDegrees>-49.2288329266011714935302734375</LatitudeDegrees>
              <LongitudeDegrees>-73.00892832688987255096435546875</LongitudeDegrees>
            </Position>
            <AltitudeMeters>530.5999755859375</AltitudeMeters>
            <DistanceMeters>24082.437562922</DistanceMeters>
          </Trackpoint>
          <Trackpoint>
            <Time>2023-01-11T13:15:12.000Z</Time>
            <Position>
              <LatitudeDegrees>-49.22883979976177215576171875</LatitudeDegrees>
              <LongitudeDegrees>-73.00895665772259235382080078125</LongitudeDegrees>
            </Position>
            <AltitudeMeters>531.20001220703125</AltitudeMeters>
            <DistanceMeters>24084.633482051</DistanceMeters>
          </Trackpoint>
          <Trackpoint>
            <Time>2023-01-11T13:15:14.000Z</Time>
            <Position>
              <LatitudeDegrees>-49.2288480140268802642822265625</LatitudeDegrees>
              <LongitudeDegrees>-73.00897090695798397064208984375</LongitudeDegrees>
            </Position>
            <AltitudeMeters>531.4000244140625</AltitudeMeters>
            <DistanceMeters>24086.017091897</DistanceMeters>
          </Trackpoint>
          <Trackpoint>
            <Time>2023-01-11T13:15:17.000Z</Time>
            <Position>
              <LatitudeDegrees>-49.22887022607028484344482421875</LatitudeDegrees>
              <LongitudeDegrees>-73.0090006627142429351806640625</LongitudeDegrees>
            </Position>
            <AltitudeMeters>531.5999755859375</AltitudeMeters>
            <DistanceMeters>24089.302048724</DistanceMeters>
          </Trackpoint>
          <Trackpoint>
            <Time>2023-01-11T13:15:22.000Z</Time>
            <Position>
              <LatitudeDegrees>-49.2289093695580959320068359375</LatitudeDegrees>
              <LongitudeDegrees>-73.0090512894093990325927734375</LongitudeDegrees>
            </Position>
            <AltitudeMeters>531.79998779296875</AltitudeMeters>
            <DistanceMeters>24095.005235145</DistanceMeters>
          </Trackpoint>
          <Trackpoint>
            <Time>2023-01-11T13:15:28.000Z</Time>
            <Position>
              <LatitudeDegrees>-49.2289472557604312896728515625</LatitudeDegrees>
              <LongitudeDegrees>-73.0091233737766742706298828125</LongitudeDegrees>
            </Position>
            <AltitudeMeters>532</AltitudeMeters>
            <DistanceMeters>24101.730683301</DistanceMeters>
          </Trackpoint>
          <Trackpoint>
            <Time>2023-01-11T13:15:32.000Z</Time>
            <Position>
              <LatitudeDegrees>-49.2289640195667743682861328125</LatitudeDegrees>
              <LongitudeDegrees>-73.00919227302074432373046875</LongitudeDegrees>
            </Position>
            <AltitudeMeters>532</AltitudeMeters>
            <DistanceMeters>24107.074193544</DistanceMeters>
          </Trackpoint>
          <Trackpoint>
            <Time>2023-01-11T13:15:35.000Z</Time>
            <Position>
              <LatitudeDegrees>-49.22899025492370128631591796875</LatitudeDegrees>
              <LongitudeDegrees>-73.0092219449579715728759765625</LongitudeDegrees>
            </Position>
            <AltitudeMeters>531.79998779296875</AltitudeMeters>
            <DistanceMeters>24110.705159202</DistanceMeters>
          </Trackpoint>
          <Trackpoint>
            <Time>2023-01-11T13:15:46.000Z</Time>
            <Position>
              <LatitudeDegrees>-49.2290692962706089019775390625</LatitudeDegrees>
              <LongitudeDegrees>-73.0093205161392688751220703125</LongitudeDegrees>
            </Position>
            <AltitudeMeters>531.5999755859375</AltitudeMeters>
            <DistanceMeters>24122.05120564</DistanceMeters>
          </Trackpoint>
          <Trackpoint>
            <Time>2023-01-11T13:15:53.000Z</Time>
            <Position>
              <LatitudeDegrees>-49.22911095432937145233154296875</LatitudeDegrees>
              <LongitudeDegrees>-73.00942721776664257049560546875</LongitudeDegrees>
            </Position>
            <AltitudeMeters>531.20001220703125</AltitudeMeters>
            <DistanceMeters>24131.087241896</DistanceMeters>
          </Trackpoint>
          <Trackpoint>
            <Time>2023-01-11T13:16:00.000Z</Time>
            <Position>
              <LatitudeDegrees>-49.22914532013237476348876953125</LatitudeDegrees>
              <LongitudeDegrees>-73.0095136351883411407470703125</LongitudeDegrees>
            </Position>
            <AltitudeMeters>531.20001220703125</AltitudeMeters>
            <DistanceMeters>24138.440615118</DistanceMeters>
          </Trackpoint>
          <Trackpoint>
            <Time>2023-01-11T13:16:02.000Z</Time>
            <Position>
              <LatitudeDegrees>-49.22914599068462848663330078125</LatitudeDegrees>
              <LongitudeDegrees>-73.009523190557956695556640625</LongitudeDegrees>
            </Position>
            <AltitudeMeters>531.4000244140625</AltitudeMeters>
            <DistanceMeters>24139.138916004</DistanceMeters>
          </Trackpoint>
          <Trackpoint>
            <Time>2023-01-11T13:16:08.000Z</Time>
            <Position>
              <LatitudeDegrees>-49.229169376194477081298828125</LatitudeDegrees>
              <LongitudeDegrees>-73.00955629907548427581787109375</LongitudeDegrees>
            </Position>
            <AltitudeMeters>531.5999755859375</AltitudeMeters>
            <DistanceMeters>24142.684316745</DistanceMeters>
          </Trackpoint>
          <Trackpoint>
            <Time>2023-01-11T13:16:11.000Z</Time>
            <Position>
              <LatitudeDegrees>-49.22917264513671398162841796875</LatitudeDegrees>
              <LongitudeDegrees>-73.009582869708538055419921875</LongitudeDegrees>
            </Position>
            <AltitudeMeters>531.79998779296875</AltitudeMeters>
            <DistanceMeters>24144.64564603</DistanceMeters>
          </Trackpoint>
          <Trackpoint>
            <Time>2023-01-11T13:16:16.000Z</Time>
            <Position>
              <LatitudeDegrees>-49.229198209941387176513671875</LatitudeDegrees>
              <LongitudeDegrees>-73.00961413420736789703369140625</LongitudeDegrees>
            </Position>
            <AltitudeMeters>531.79998779296875</AltitudeMeters>
            <DistanceMeters>24148.286545949</DistanceMeters>
          </Trackpoint>
          <Trackpoint>
            <Time>2023-01-11T13:16:22.000Z</Time>
            <Position>
              <LatitudeDegrees>-49.2292231880128383636474609375</LatitudeDegrees>
              <LongitudeDegrees>-73.00966174341738224029541015625</LongitudeDegrees>
            </Position>
            <AltitudeMeters>532</AltitudeMeters>
            <DistanceMeters>24152.725422699</DistanceMeters>
          </Trackpoint>
          <Trackpoint>
            <Time>2023-01-11T13:16:29.000Z</Time>
            <Position>
              <LatitudeDegrees>-49.22926316969096660614013671875</LatitudeDegrees>
              <LongitudeDegrees>-73.00971639342606067657470703125</LongitudeDegrees>
            </Position>
            <AltitudeMeters>532.20001220703125</AltitudeMeters>
            <DistanceMeters>24158.690194378</DistanceMeters>
          </Trackpoint>
          <Trackpoint>
            <Time>2023-01-11T13:16:34.000Z</Time>
            <Position>
              <LatitudeDegrees>-49.229269288480281829833984375</LatitudeDegrees>
              <LongitudeDegrees>-73.00979669205844402313232421875</LongitudeDegrees>
            </Position>
            <AltitudeMeters>532.20001220703125</AltitudeMeters>
            <DistanceMeters>24164.565735396</DistanceMeters>
          </Trackpoint>
          <Trackpoint>
            <Time>2023-01-11T13:16:46.000Z</Time>
            <Position>
              <LatitudeDegrees>-49.2292778380215167999267578125</LatitudeDegrees>
              <LongitudeDegrees>-73.0099950917065143585205078125</LongitudeDegrees>
            </Position>
            <AltitudeMeters>531.79998779296875</AltitudeMeters>
            <DistanceMeters>24179.017608564</DistanceMeters>
          </Trackpoint>
          <Trackpoint>
            <Time>2023-01-11T13:16:51.000Z</Time>
            <Position>
              <LatitudeDegrees>-49.2292754910886287689208984375</LatitudeDegrees>
              <LongitudeDegrees>-73.0100866220891475677490234375</LongitudeDegrees>
            </Position>
            <AltitudeMeters>531</AltitudeMeters>
            <DistanceMeters>24185.675584627</DistanceMeters>
          </Trackpoint>
          <Trackpoint>
            <Time>2023-01-11T13:16:56.000Z</Time>
            <Position>
              <LatitudeDegrees>-49.22927306033670902252197265625</LatitudeDegrees>
              <LongitudeDegrees>-73.01018376834690570831298828125</LongitudeDegrees>
            </Position>
            <AltitudeMeters>530.79998779296875</AltitudeMeters>
            <DistanceMeters>24192.742148342</DistanceMeters>
          </Trackpoint>
          <Trackpoint>
            <Time>2023-01-11T13:16:59.000Z</Time>
            <Position>
              <LatitudeDegrees>-49.2292738147079944610595703125</LatitudeDegrees>
              <LongitudeDegrees>-73.01023607142269611358642578125</LongitudeDegrees>
            </Position>
            <AltitudeMeters>530.79998779296875</AltitudeMeters>
            <DistanceMeters>24196.545591843</DistanceMeters>
          </Trackpoint>
          <Trackpoint>
            <Time>2023-01-11T13:17:09.000Z</Time>
            <Position>
              <LatitudeDegrees>-49.2292872257530689239501953125</LatitudeDegrees>
              <LongitudeDegrees>-73.01039784215390682220458984375</LongitudeDegrees>
            </Position>
            <AltitudeMeters>531.20001220703125</AltitudeMeters>
            <DistanceMeters>24208.39843662</DistanceMeters>
          </Trackpoint>
          <Trackpoint>
            <Time>2023-01-11T13:17:18.000Z</Time>
            <Position>
              <LatitudeDegrees>-49.22930113971233367919921875</LatitudeDegrees>
              <LongitudeDegrees>-73.01049976609647274017333984375</LongitudeDegrees>
            </Position>
            <AltitudeMeters>531.20001220703125</AltitudeMeters>
            <DistanceMeters>24215.966644789</DistanceMeters>
          </Trackpoint>
          <Trackpoint>
            <Time>2023-01-11T13:17:27.000Z</Time>
            <Position>
              <LatitudeDegrees>-49.229291416704654693603515625</LatitudeDegrees>
              <LongitudeDegrees>-73.01050881855189800262451171875</LongitudeDegrees>
            </Position>
            <AltitudeMeters>530.79998779296875</AltitudeMeters>
            <DistanceMeters>24217.230892997</DistanceMeters>
          </Trackpoint>
          <Trackpoint>
            <Time>2023-01-11T13:17:33.000Z</Time>
            <Position>
              <LatitudeDegrees>-49.229287393391132354736328125</LatitudeDegrees>
              <LongitudeDegrees>-73.01061929203569889068603515625</LongitudeDegrees>
            </Position>
            <AltitudeMeters>530.5999755859375</AltitudeMeters>
            <DistanceMeters>24225.272870831</DistanceMeters>
          </Trackpoint>
          <Trackpoint>
            <Time>2023-01-11T13:17:41.000Z</Time>
            <Position>
              <LatitudeDegrees>-49.22929736785590648651123046875</LatitudeDegrees>
              <LongitudeDegrees>-73.01075289957225322723388671875</LongitudeDegrees>
            </Position>
            <AltitudeMeters>530.4000244140625</AltitudeMeters>
            <DistanceMeters>24235.04723571</DistanceMeters>
          </Trackpoint>
          <Trackpoint>
            <Time>2023-01-11T13:17:46.000Z</Time>
            <Position>
              <LatitudeDegrees>-49.22927658073604106903076171875</LatitudeDegrees>
              <LongitudeDegrees>-73.0108089745044708251953125</LongitudeDegrees>
            </Position>
            <AltitudeMeters>530.20001220703125</AltitudeMeters>
            <DistanceMeters>24239.733507779</DistanceMeters>
          </Trackpoint>
          <Trackpoint>
            <Time>2023-01-11T13:17:49.000Z</Time>
            <Position>
              <LatitudeDegrees>-49.2292530275881290435791015625</LatitudeDegrees>
              <LongitudeDegrees>-73.01083822734653949737548828125</LongitudeDegrees>
            </Position>
            <AltitudeMeters>530.20001220703125</AltitudeMeters>
            <DistanceMeters>24243.109297535</DistanceMeters>
          </Trackpoint>
          <Trackpoint>
            <Time>2023-01-11T13:17:56.000Z</Time>
            <Position>
              <LatitudeDegrees>-49.22918739728629589080810546875</LatitudeDegrees>
              <LongitudeDegrees>-73.01089857704937458038330078125</LongitudeDegrees>
            </Position>
            <AltitudeMeters>530.20001220703125</AltitudeMeters>
            <DistanceMeters>24251.629437471</DistanceMeters>
          </Trackpoint>
          <Trackpoint>
            <Time>2023-01-11T13:17:57.000Z</Time>
            <Position>
              <LatitudeDegrees>-49.22918253578245639801025390625</LatitudeDegrees>
              <LongitudeDegrees>-73.010913245379924774169921875</LongitudeDegrees>
            </Position>
            <AltitudeMeters>530.20001220703125</AltitudeMeters>
            <DistanceMeters>24252.823904749</DistanceMeters>
          </Trackpoint>
          <Trackpoint>
            <Time>2023-01-11T13:18:06.000Z</Time>
            <Position>
              <LatitudeDegrees>-49.22912503592669963836669921875</LatitudeDegrees>
              <LongitudeDegrees>-73.0110441707074642181396484375</LongitudeDegrees>
            </Position>
            <AltitudeMeters>530.20001220703125</AltitudeMeters>
            <DistanceMeters>24264.291861556</DistanceMeters>
          </Trackpoint>
          <Trackpoint>
            <Time>2023-01-11T13:18:14.000Z</Time>
            <Position>
              <LatitudeDegrees>-49.22906435094773769378662109375</LatitudeDegrees>
              <LongitudeDegrees>-73.0111477710306644439697265625</LongitudeDegrees>
            </Position>
            <AltitudeMeters>530.20001220703125</AltitudeMeters>
            <DistanceMeters>24274.406740009</DistanceMeters>
          </Trackpoint>
          <Trackpoint>
            <Time>2023-01-11T13:18:17.000Z</Time>
            <Position>
              <LatitudeDegrees>-49.22903132624924182891845703125</LatitudeDegrees>
              <LongitudeDegrees>-73.0111792869865894317626953125</LongitudeDegrees>
            </Position>
            <AltitudeMeters>530.20001220703125</AltitudeMeters>
            <DistanceMeters>24278.737498461</DistanceMeters>
          </Trackpoint>
          <Trackpoint>
            <Time>2023-01-11T13:18:18.000Z</Time>
            <Position>
              <LatitudeDegrees>-49.2290236987173557281494140625</LatitudeDegrees>
              <LongitudeDegrees>-73.01118657924234867095947265625</LongitudeDegrees>
            </Position>
            <AltitudeMeters>530.20001220703125</AltitudeMeters>
            <DistanceMeters>24279.73414705</DistanceMeters>
          </Trackpoint>
          <Trackpoint>
            <Time>2023-01-11T13:18:20.000Z</Time>
            <Position>
              <LatitudeDegrees>-49.2290146462619304656982421875</LatitudeDegrees>
              <LongitudeDegrees>-73.01121373660862445831298828125</LongitudeDegrees>
            </Position>
            <AltitudeMeters>530.20001220703125</AltitudeMeters>
            <DistanceMeters>24281.95053185</DistanceMeters>
          </Trackpoint>
          <Trackpoint>
            <Time>2023-01-11T13:18:21.000Z</Time>
            <Position>
              <LatitudeDegrees>-49.22901372425258159637451171875</LatitudeDegrees>
              <LongitudeDegrees>-73.01122848875820636749267578125</LongitudeDegrees>
            </Position>
            <AltitudeMeters>530.20001220703125</AltitudeMeters>
            <DistanceMeters>24283.034003095</DistanceMeters>
          </Trackpoint>
          <Trackpoint>
            <Time>2023-01-11T13:18:23.000Z</Time>
            <Position>
              <LatitudeDegrees>-49.22899846918880939483642578125</LatitudeDegrees>
              <LongitudeDegrees>-73.011244833469390869140625</LongitudeDegrees>
            </Position>
            <AltitudeMeters>530.20001220703125</AltitudeMeters>
            <DistanceMeters>24285.107241235</DistanceMeters>
          </Trackpoint>
          <Trackpoint>
            <Time>2023-01-11T13:18:26.000Z</Time>
            <Position>
              <LatitudeDegrees>-49.22898371703922748565673828125</LatitudeDegrees>
              <LongitudeDegrees>-73.01125715486705303192138671875</LongitudeDegrees>
            </Position>
            <AltitudeMeters>530.20001220703125</AltitudeMeters>
            <DistanceMeters>24286.97905043</DistanceMeters>
          </Trackpoint>
          <Trackpoint>
            <Time>2023-01-11T13:18:30.000Z</Time>
            <Position>
              <LatitudeDegrees>-49.2289455793797969818115234375</LatitudeDegrees>
              <LongitudeDegrees>-73.0112889222800731658935546875</LongitudeDegrees>
            </Position>
            <AltitudeMeters>530.20001220703125</AltitudeMeters>
            <DistanceMeters>24291.81141814</DistanceMeters>
          </Trackpoint>
          <Trackpoint>
            <Time>2023-01-11T13:18:33.000Z</Time>
            <Position>
              <LatitudeDegrees>-49.22892160713672637939453125</LatitudeDegrees>
              <LongitudeDegrees>-73.011310212314128875732421875</LongitudeDegrees>
            </Position>
            <AltitudeMeters>530.20001220703125</AltitudeMeters>
            <DistanceMeters>24294.896495217</DistanceMeters>
          </Trackpoint>
          <Trackpoint>
            <Time>2023-01-11T13:18:39.000Z</Time>
            <Position>
              <LatitudeDegrees>-49.22888531349599361419677734375</LatitudeDegrees>
              <LongitudeDegrees>-73.0113750882446765899658203125</LongitudeDegrees>
            </Position>
            <AltitudeMeters>530.20001220703125</AltitudeMeters>
            <DistanceMeters>24301.10603839</DistanceMeters>
          </Trackpoint>
          <Trackpoint>
            <Time>2023-01-11T13:18:44.000Z</Time>
            <Position>
              <LatitudeDegrees>-49.2288537137210369110107421875</LatitudeDegrees>
              <LongitudeDegrees>-73.0114049278199672698974609375</LongitudeDegrees>
            </Position>
            <AltitudeMeters>530.20001220703125</AltitudeMeters>
            <DistanceMeters>24305.238334913</DistanceMeters>
          </Trackpoint>
          <Trackpoint>
            <Time>2023-01-11T13:18:50.000Z</Time>
            <Position>
              <LatitudeDegrees>-49.22881289385259151458740234375</LatitudeDegrees>
              <LongitudeDegrees>-73.011396043002605438232421875</LongitudeDegrees>
            </Position>
            <AltitudeMeters>530.20001220703125</AltitudeMeters>
            <DistanceMeters>24309.827249629</DistanceMeters>
          </Trackpoint>
          <Trackpoint>
            <Time>2023-01-11T13:18:51.000Z</Time>
            <Position>
              <LatitudeDegrees>-49.22881037928164005279541015625</LatitudeDegrees>
              <LongitudeDegrees>-73.01140601746737957000732421875</LongitudeDegrees>
            </Position>
            <AltitudeMeters>530.20001220703125</AltitudeMeters>
            <DistanceMeters>24310.599250306</DistanceMeters>
          </Trackpoint>
          <Trackpoint>
            <Time>2023-01-11T13:18:52.000Z</Time>
            <Position>
              <LatitudeDegrees>-49.2288044281303882598876953125</LatitudeDegrees>
              <LongitudeDegrees>-73.011416159570217132568359375</LongitudeDegrees>
            </Position>
            <AltitudeMeters>530.20001220703125</AltitudeMeters>
            <DistanceMeters>24311.58679689</DistanceMeters>
          </Trackpoint>
          <Trackpoint>
            <Time>2023-01-11T13:18:59.000Z</Time>
            <Position>
              <LatitudeDegrees>-49.22876411117613315582275390625</LatitudeDegrees>
              <LongitudeDegrees>-73.011459410190582275390625</LongitudeDegrees>
            </Position>
            <AltitudeMeters>530.20001220703125</AltitudeMeters>
            <DistanceMeters>24317.0654805</DistanceMeters>
          </Trackpoint>
          <Trackpoint>
            <Time>2023-01-11T13:19:00.000Z</Time>
            <Position>
              <LatitudeDegrees>-49.2287598364055156707763671875</LatitudeDegrees>
              <LongitudeDegrees>-73.011468462646007537841796875</LongitudeDegrees>
            </Position>
            <AltitudeMeters>530.20001220703125</AltitudeMeters>
            <DistanceMeters>24317.871808909</DistanceMeters>
          </Trackpoint>
          <Trackpoint>
            <Time>2023-01-11T13:19:05.000Z</Time>
            <Position>
              <LatitudeDegrees>-49.22872991301119327545166015625</LatitudeDegrees>
              <LongitudeDegrees>-73.011542223393917083740234375</LongitudeDegrees>
            </Position>
            <AltitudeMeters>530.20001220703125</AltitudeMeters>
            <DistanceMeters>24324.183042322</DistanceMeters>
          </Trackpoint>
          <Trackpoint>
            <Time>2023-01-11T13:19:12.000Z</Time>
            <Position>
              <LatitudeDegrees>-49.2286797054111957550048828125</LatitudeDegrees>
              <LongitudeDegrees>-73.01161439158022403717041015625</LongitudeDegrees>
            </Position>
            <AltitudeMeters>530.20001220703125</AltitudeMeters>
            <DistanceMeters>24331.847287052</DistanceMeters>
          </Trackpoint>
          <Trackpoint>
            <Time>2023-01-11T13:19:18.000Z</Time>
            <Position>
              <LatitudeDegrees>-49.22863863408565521240234375</LatitudeDegrees>
              <LongitudeDegrees>-73.01169485785067081451416015625</LongitudeDegrees>
            </Position>
            <AltitudeMeters>530.20001220703125</AltitudeMeters>
            <DistanceMeters>24339.270327295</DistanceMeters>
          </Trackpoint>
          <Trackpoint>
            <Time>2023-01-11T13:19:19.000Z</Time>
            <Position>
              <LatitudeDegrees>-49.22862924635410308837890625</LatitudeDegrees>
              <LongitudeDegrees>-73.0117043294012546539306640625</LongitudeDegrees>
            </Position>
            <AltitudeMeters>530.20001220703125</AltitudeMeters>
            <DistanceMeters>24340.523815748</DistanceMeters>
          </Trackpoint>
          <Trackpoint>
            <Time>2023-01-11T13:19:21.000Z</Time>
            <Position>
              <LatitudeDegrees>-49.22860720194876194000244140625</LatitudeDegrees>
              <LongitudeDegrees>-73.0117184109985828399658203125</LongitudeDegrees>
            </Position>
            <AltitudeMeters>530.20001220703125</AltitudeMeters>
            <DistanceMeters>24343.182866303</DistanceMeters>
          </Trackpoint>
          <Trackpoint>
            <Time>2023-01-11T13:19:23.000Z</Time>
            <Position>
              <LatitudeDegrees>-49.228591024875640869140625</LatitudeDegrees>
              <LongitudeDegrees>-73.0117348395287990570068359375</LongitudeDegrees>
            </Position>
            <AltitudeMeters>530.20001220703125</AltitudeMeters>
            <DistanceMeters>24345.341458309</DistanceMeters>
          </Trackpoint>
          <Trackpoint>
            <Time>2023-01-11T13:19:25.000Z</Time>
            <Position>
              <LatitudeDegrees>-49.22858708538115024566650390625</LatitudeDegrees>
              <LongitudeDegrees>-73.0117378570139408111572265625</LongitudeDegrees>
            </Position>
            <AltitudeMeters>530.20001220703125</AltitudeMeters>
            <DistanceMeters>24345.82600138</DistanceMeters>
          </Trackpoint>
          <Trackpoint>
            <Time>2023-01-11T13:19:31.000Z</Time>
            <Position>
              <LatitudeDegrees>-49.22854249365627765655517578125</LatitudeDegrees>
              <LongitudeDegrees>-73.01179938018321990966796875</LongitudeDegrees>
            </Position>
            <AltitudeMeters>530.20001220703125</AltitudeMeters>
            <DistanceMeters>24352.506318572</DistanceMeters>
          </Trackpoint>
          <Trackpoint>
            <Time>2023-01-11T13:19:32.000Z</Time>
            <Position>
              <LatitudeDegrees>-49.2285355366766452789306640625</LatitudeDegrees>
              <LongitudeDegrees>-73.01181253977119922637939453125</LongitudeDegrees>
            </Position>
            <AltitudeMeters>530.20001220703125</AltitudeMeters>
            <DistanceMeters>24353.738005562</DistanceMeters>
          </Trackpoint>
          <Trackpoint>
            <Time>2023-01-11T13:19:40.000Z</Time>
            <Position>
              <LatitudeDegrees>-49.22846185974776744842529296875</LatitudeDegrees>
              <LongitudeDegrees>-73.0118679441511631011962890625</LongitudeDegrees>
            </Position>
            <AltitudeMeters>530.20001220703125</AltitudeMeters>
            <DistanceMeters>24362.873429279</DistanceMeters>
          </Trackpoint>
          <Trackpoint>
            <Time>2023-01-11T13:19:47.000Z</Time>
            <Position>
              <LatitudeDegrees>-49.2283952236175537109375</LatitudeDegrees>
              <LongitudeDegrees>-73.01194421947002410888671875</LongitudeDegrees>
            </Position>
            <AltitudeMeters>530.20001220703125</AltitudeMeters>
            <DistanceMeters>24372.133049997</DistanceMeters>
          </Trackpoint>
          <Trackpoint>
            <Time>2023-01-11T13:19:50.000Z</Time>
            <Position>
              <LatitudeDegrees>-49.2283729277551174163818359375</LatitudeDegrees>
              <LongitudeDegrees>-73.0119732208549976348876953125</LongitudeDegrees>
            </Position>
            <AltitudeMeters>533</AltitudeMeters>
            <DistanceMeters>24375.389015253</DistanceMeters>
          </Trackpoint>
          <Trackpoint>
            <Time>2023-01-11T13:19:59.000Z</Time>
            <Position>
              <LatitudeDegrees>-49.22830427996814250946044921875</LatitudeDegrees>
              <LongitudeDegrees>-73.0120701156556606292724609375</LongitudeDegrees>
            </Position>
            <AltitudeMeters>532.79998779296875</AltitudeMeters>
            <DistanceMeters>24385.780437394</DistanceMeters>
          </Trackpoint>
          <Trackpoint>
            <Time>2023-01-11T13:20:11.000Z</Time>
            <Position>
              <LatitudeDegrees>-49.2281922139227390289306640625</LatitudeDegrees>
              <LongitudeDegrees>-73.0121988616883754730224609375</LongitudeDegrees>
            </Position>
            <AltitudeMeters>532</AltitudeMeters>
            <DistanceMeters>24401.374086694</DistanceMeters>
          </Trackpoint>
          <Trackpoint>
            <Time>2023-01-11T13:20:14.000Z</Time>
            <Position>
              <LatitudeDegrees>-49.22816530801355838775634765625</LatitudeDegrees>
              <LongitudeDegrees>-73.012237250804901123046875</LongitudeDegrees>
            </Position>
            <AltitudeMeters>531.79998779296875</AltitudeMeters>
            <DistanceMeters>24405.467962837</DistanceMeters>
          </Trackpoint>
          <Trackpoint>
            <Time>2023-01-11T13:20:23.000Z</Time>
            <Position>
              <LatitudeDegrees>-49.228091128170490264892578125</LatitudeDegrees>
              <LongitudeDegrees>-73.012334816157817840576171875</LongitudeDegrees>
            </Position>
            <AltitudeMeters>532.20001220703125</AltitudeMeters>
            <DistanceMeters>24416.351737127</DistanceMeters>
          </Trackpoint>
          <Trackpoint>
            <Time>2023-01-11T13:20:31.000Z</Time>
            <Position>
              <LatitudeDegrees>-49.228034801781177520751953125</LatitudeDegrees>
              <LongitudeDegrees>-73.012435398995876312255859375</LongitudeDegrees>
            </Position>
            <AltitudeMeters>532.5999755859375</AltitudeMeters>
            <DistanceMeters>24425.982309029</DistanceMeters>
          </Trackpoint>
          <Trackpoint>
            <Time>2023-01-11T13:20:41.000Z</Time>
            <Position>
              <LatitudeDegrees>-49.22797688283026218414306640625</LatitudeDegrees>
              <LongitudeDegrees>-73.01256942562758922576904296875</LongitudeDegrees>
            </Position>
            <AltitudeMeters>532.5999755859375</AltitudeMeters>
            <DistanceMeters>24437.663639653</DistanceMeters>
          </Trackpoint>
          <Trackpoint>
            <Time>2023-01-11T13:20:48.000Z</Time>
            <Position>
              <LatitudeDegrees>-49.22793346457183361053466796875</LatitudeDegrees>
              <LongitudeDegrees>-73.01265743561089038848876953125</LongitudeDegrees>
            </Position>
            <AltitudeMeters>532.79998779296875</AltitudeMeters>
            <DistanceMeters>24445.680313156</DistanceMeters>
          </Trackpoint>
          <Trackpoint>
            <Time>2023-01-11T13:20:51.000Z</Time>
            <Position>
              <LatitudeDegrees>-49.22790882177650928497314453125</LatitudeDegrees>
              <LongitudeDegrees>-73.01269314251840114593505859375</LongitudeDegrees>
            </Position>
            <AltitudeMeters>532.79998779296875</AltitudeMeters>
            <DistanceMeters>24449.457550345</DistanceMeters>
          </Trackpoint>
          <Trackpoint>
            <Time>2023-01-11T13:21:01.000Z</Time>
            <Position>
              <LatitudeDegrees>-49.22780287452042102813720703125</LatitudeDegrees>
              <LongitudeDegrees>-73.0127964913845062255859375</LongitudeDegrees>
            </Position>
            <AltitudeMeters>532.79998779296875</AltitudeMeters>
            <DistanceMeters>24463.439077259</DistanceMeters>
          </Trackpoint>
          <Trackpoint>
            <Time>2023-01-11T13:21:10.000Z</Time>
            <Position>
              <LatitudeDegrees>-49.22773816622793674468994140625</LatitudeDegrees>
              <LongitudeDegrees>-73.01291249692440032958984375</LongitudeDegrees>
            </Position>
            <AltitudeMeters>532.79998779296875</AltitudeMeters>
            <DistanceMeters>24474.528332465</DistanceMeters>
          </Trackpoint>
          <Trackpoint>
            <Time>2023-01-11T13:21:16.000Z</Time>
            <Position>
              <LatitudeDegrees>-49.22770162113010883331298828125</LatitudeDegrees>
              <LongitudeDegrees>-73.01300629042088985443115234375</LongitudeDegrees>
            </Position>
            <AltitudeMeters>532.79998779296875</AltitudeMeters>
            <DistanceMeters>24482.467471812</DistanceMeters>
          </Trackpoint>
          <Trackpoint>
            <Time>2023-01-11T13:21:25.000Z</Time>
            <Position>
              <LatitudeDegrees>-49.22767647542059421539306640625</LatitudeDegrees>
              <LongitudeDegrees>-73.0131554044783115386962890625</LongitudeDegrees>
            </Position>
            <AltitudeMeters>532.79998779296875</AltitudeMeters>
            <DistanceMeters>24493.662086629</DistanceMeters>
          </Trackpoint>
          <Trackpoint>
            <Time>2023-01-11T13:21:34.000Z</Time>
            <Position>
              <LatitudeDegrees>-49.227651245892047882080078125</LatitudeDegrees>
              <LongitudeDegrees>-73.0133019201457500457763671875</LongitudeDegrees>
            </Position>
            <AltitudeMeters>532.79998779296875</AltitudeMeters>
            <DistanceMeters>24504.676170655</DistanceMeters>
          </Trackpoint>
          <Trackpoint>
            <Time>2023-01-11T13:21:39.000Z</Time>
            <Position>
              <LatitudeDegrees>-49.2276276089251041412353515625</LatitudeDegrees>
              <LongitudeDegrees>-73.01336352713406085968017578125</LongitudeDegrees>
            </Position>
            <AltitudeMeters>532.79998779296875</AltitudeMeters>
            <DistanceMeters>24509.870578072</DistanceMeters>
          </Trackpoint>
          <Trackpoint>
            <Time>2023-01-11T13:21:41.000Z</Time>
            <Position>
              <LatitudeDegrees>-49.22761511988937854766845703125</LatitudeDegrees>
              <LongitudeDegrees>-73.0133726634085178375244140625</LongitudeDegrees>
            </Position>
            <AltitudeMeters>532.79998779296875</AltitudeMeters>
            <DistanceMeters>24511.414579426</DistanceMeters>
          </Trackpoint>
          <Trackpoint>
            <Time>2023-01-11T13:21:45.000Z</Time>
            <Position>
              <LatitudeDegrees>-49.22758989036083221435546875</LatitudeDegrees>
              <LongitudeDegrees>-73.01340761594474315643310546875</LongitudeDegrees>
            </Position>
            <AltitudeMeters>532.79998779296875</AltitudeMeters>
            <DistanceMeters>24515.201367167</DistanceMeters>
          </Trackpoint>
          <Trackpoint>
            <Time>2023-01-11T13:21:49.000Z</Time>
            <Position>
              <LatitudeDegrees>-49.22756046988070011138916015625</LatitudeDegrees>
              <LongitudeDegrees>-73.01345354877412319183349609375</LongitudeDegrees>
            </Position>
            <AltitudeMeters>532.79998779296875</AltitudeMeters>
            <DistanceMeters>24519.877994707</DistanceMeters>
          </Trackpoint>
          <Trackpoint>
            <Time>2023-01-11T13:21:57.000Z</Time>
            <Position>
              <LatitudeDegrees>-49.22753280960023403167724609375</LatitudeDegrees>
              <LongitudeDegrees>-73.013525046408176422119140625</LongitudeDegrees>
            </Position>
            <AltitudeMeters>532.79998779296875</AltitudeMeters>
            <DistanceMeters>24525.91798716</DistanceMeters>
          </Trackpoint>
          <Trackpoint>
            <Time>2023-01-11T13:22:04.000Z</Time>
            <Position>
              <LatitudeDegrees>-49.22751487232744693756103515625</LatitudeDegrees>
              <LongitudeDegrees>-73.01355949603021144866943359375</LongitudeDegrees>
            </Position>
            <AltitudeMeters>532.79998779296875</AltitudeMeters>
            <DistanceMeters>24529.120824471</DistanceMeters>
          </Trackpoint>
          <Trackpoint>
            <Time>2023-01-11T13:22:10.000Z</Time>
            <Position>
              <LatitudeDegrees>-49.227479584515094757080078125</LatitudeDegrees>
              <LongitudeDegrees>-73.01360693760216236114501953125</LongitudeDegrees>
            </Position>
            <AltitudeMeters>532.79998779296875</AltitudeMeters>
            <DistanceMeters>24534.348157569</DistanceMeters>
          </Trackpoint>
          <Trackpoint>
            <Time>2023-01-11T13:22:13.000Z</Time>
            <Position>
              <LatitudeDegrees>-49.22747447155416011810302734375</LatitudeDegrees>
              <LongitudeDegrees>-73.0136160738766193389892578125</LongitudeDegrees>
            </Position>
            <AltitudeMeters>532.79998779296875</AltitudeMeters>
            <DistanceMeters>24535.224260587</DistanceMeters>
          </Trackpoint>
          <Trackpoint>
            <Time>2023-01-11T13:22:16.000Z</Time>
            <Position>
              <LatitudeDegrees>-49.22747815959155559539794921875</LatitudeDegrees>
              <LongitudeDegrees>-73.01361464895308017730712890625</LongitudeDegrees>
            </Position>
            <AltitudeMeters>532.79998779296875</AltitudeMeters>
            <DistanceMeters>24535.649232973</DistanceMeters>
          </Trackpoint>
          <Trackpoint>
            <Time>2023-01-11T13:22:19.000Z</Time>
            <Position>
              <LatitudeDegrees>-49.22747245989739894866943359375</LatitudeDegrees>
              <LongitudeDegrees>-73.01361297257244586944580078125</LongitudeDegrees>
            </Position>
            <AltitudeMeters>532.79998779296875</AltitudeMeters>
            <DistanceMeters>24536.293735507</DistanceMeters>
          </Trackpoint>
          <Trackpoint>
            <Time>2023-01-11T13:22:23.000Z</Time>
            <Position>
              <LatitudeDegrees>-49.2274604737758636474609375</LatitudeDegrees>
              <LongitudeDegrees>-73.0136231146752834320068359375</LongitudeDegrees>
            </Position>
            <AltitudeMeters>532.79998779296875</AltitudeMeters>
            <DistanceMeters>24537.820090552</DistanceMeters>
          </Trackpoint>
          <Trackpoint>
            <Time>2023-01-11T13:22:42.000Z</Time>
            <Position>
              <LatitudeDegrees>-49.22746424563229084014892578125</LatitudeDegrees>
              <LongitudeDegrees>-73.01360760815441608428955078125</LongitudeDegrees>
            </Position>
            <AltitudeMeters>532.79998779296875</AltitudeMeters>
            <DistanceMeters>24539.022093976</DistanceMeters>
          </Trackpoint>
          <Trackpoint>
            <Time>2023-01-11T13:22:48.000Z</Time>
            <Position>
              <LatitudeDegrees>-49.22746248543262481689453125</LatitudeDegrees>
              <LongitudeDegrees>-73.01360760815441608428955078125</LongitudeDegrees>
            </Position>
            <AltitudeMeters>532.79998779296875</AltitudeMeters>
            <DistanceMeters>24539.234580169</DistanceMeters>
          </Trackpoint>
          <Trackpoint>
            <Time>2023-01-11T13:22:50.000Z</Time>
            <Position>
              <LatitudeDegrees>-49.22746240161359310150146484375</LatitudeDegrees>
              <LongitudeDegrees>-73.01363795064389705657958984375</LongitudeDegrees>
            </Position>
            <AltitudeMeters>532.79998779296875</AltitudeMeters>
            <DistanceMeters>24541.440755865</DistanceMeters>
          </Trackpoint>
          <Trackpoint>
            <Time>2023-01-11T13:22:53.000Z</Time>
            <Position>
              <LatitudeDegrees>-49.227442704141139984130859375</LatitudeDegrees>
              <LongitudeDegrees>-73.01369746215641498565673828125</LongitudeDegrees>
            </Position>
            <AltitudeMeters>532.79998779296875</AltitudeMeters>
            <DistanceMeters>24546.289912396</DistanceMeters>
          </Trackpoint>
          <Trackpoint>
            <Time>2023-01-11T13:22:56.000Z</Time>
            <Position>
              <LatitudeDegrees>-49.22741881571710109710693359375</LatitudeDegrees>
              <LongitudeDegrees>-73.01375093869864940643310546875</LongitudeDegrees>
            </Position>
            <AltitudeMeters>532.79998779296875</AltitudeMeters>
            <DistanceMeters>24550.999250751</DistanceMeters>
          </Trackpoint>
          <Trackpoint>
            <Time>2023-01-11T13:22:59.000Z</Time>
            <Position>
              <LatitudeDegrees>-49.227413199841976165771484375</LatitudeDegrees>
              <LongitudeDegrees>-73.01380977965891361236572265625</LongitudeDegrees>
            </Position>
            <AltitudeMeters>532.79998779296875</AltitudeMeters>
            <DistanceMeters>24555.322705185</DistanceMeters>
          </Trackpoint>
          <Trackpoint>
            <Time>2023-01-11T13:23:00.000Z</Time>
            <Position>
              <LatitudeDegrees>-49.227413870394229888916015625</LatitudeDegrees>
              <LongitudeDegrees>-73.0138209275901317596435546875</LongitudeDegrees>
            </Position>
            <AltitudeMeters>532.79998779296875</AltitudeMeters>
            <DistanceMeters>24556.140155891</DistanceMeters>
          </Trackpoint>
          <Trackpoint>
            <Time>2023-01-11T13:23:01.000Z</Time>
            <Position>
              <LatitudeDegrees>-49.2274175584316253662109375</LatitudeDegrees>
              <LongitudeDegrees>-73.0138370208442211151123046875</LongitudeDegrees>
            </Position>
            <AltitudeMeters>532.79998779296875</AltitudeMeters>
            <DistanceMeters>24557.379152661</DistanceMeters>
          </Trackpoint>
          <Trackpoint>
            <Time>2023-01-11T13:23:05.000Z</Time>
            <Position>
              <LatitudeDegrees>-49.22741060145199298858642578125</LatitudeDegrees>
              <LongitudeDegrees>-73.01388169638812541961669921875</LongitudeDegrees>
            </Position>
            <AltitudeMeters>532.79998779296875</AltitudeMeters>
            <DistanceMeters>24560.717283025</DistanceMeters>
          </Trackpoint>
          <Trackpoint>
            <Time>2023-01-11T13:23:06.000Z</Time>
            <Position>
              <LatitudeDegrees>-49.22740775160491466522216796875</LatitudeDegrees>
              <LongitudeDegrees>-73.013888485729694366455078125</LongitudeDegrees>
            </Position>
            <AltitudeMeters>532.79998779296875</AltitudeMeters>
            <DistanceMeters>24561.303067034</DistanceMeters>
          </Trackpoint>
          <Trackpoint>
            <Time>2023-01-11T13:23:09.000Z</Time>
            <Position>
              <LatitudeDegrees>-49.2273821868002414703369140625</LatitudeDegrees>
              <LongitudeDegrees>-73.01389208994805812835693359375</LongitudeDegrees>
            </Position>
            <AltitudeMeters>532.79998779296875</AltitudeMeters>
            <DistanceMeters>24564.160196556</DistanceMeters>
          </Trackpoint>
          <Trackpoint>
            <Time>2023-01-11T13:23:10.000Z</Time>
            <Position>
              <LatitudeDegrees>-49.22737573273479938507080078125</LatitudeDegrees>
              <LongitudeDegrees>-73.0138983763754367828369140625</LongitudeDegrees>
            </Position>
            <AltitudeMeters>532.79998779296875</AltitudeMeters>
            <DistanceMeters>24565.010141328</DistanceMeters>
          </Trackpoint>
          <Trackpoint>
            <Time>2023-01-11T13:23:14.000Z</Time>
            <Position>
              <LatitudeDegrees>-49.227354861795902252197265625</LatitudeDegrees>
              <LongitudeDegrees>-73.01389326341450214385986328125</LongitudeDegrees>
            </Position>
            <AltitudeMeters>532.79998779296875</AltitudeMeters>
            <DistanceMeters>24567.364810506</DistanceMeters>
          </Trackpoint>
          <Trackpoint>
            <Time>2023-01-11T13:23:16.000Z</Time>
            <Position>
              <LatitudeDegrees>-49.2273171432316303253173828125</LatitudeDegrees>
              <LongitudeDegrees>-73.01391069777309894561767578125</LongitudeDegrees>
            </Position>
            <AltitudeMeters>532.79998779296875</AltitudeMeters>
            <DistanceMeters>24571.750476114</DistanceMeters>
          </Trackpoint>
          <Trackpoint>
            <Time>2023-01-11T13:23:23.000Z</Time>
            <Position>
              <LatitudeDegrees>-49.22725754790008068084716796875</LatitudeDegrees>
              <LongitudeDegrees>-73.013847582042217254638671875</LongitudeDegrees>
            </Position>
            <AltitudeMeters>532.79998779296875</AltitudeMeters>
            <DistanceMeters>24579.815439885</DistanceMeters>
          </Trackpoint>
          <Trackpoint>
            <Time>2023-01-11T13:23:30.000Z</Time>
            <Position>
              <LatitudeDegrees>-49.22727028839290142059326171875</LatitudeDegrees>
              <LongitudeDegrees>-73.0137984640896320343017578125</LongitudeDegrees>
            </Position>
            <AltitudeMeters>532.79998779296875</AltitudeMeters>
            <DistanceMeters>24583.656682511</DistanceMeters>
          </Trackpoint>
          <Trackpoint>
            <Time>2023-01-11T13:23:32.000Z</Time>
            <Position>
              <LatitudeDegrees>-49.22727741301059722900390625</LatitudeDegrees>
              <LongitudeDegrees>-73.0137706361711025238037109375</LongitudeDegrees>
            </Position>
            <AltitudeMeters>532.79998779296875</AltitudeMeters>
            <DistanceMeters>24585.827788197</DistanceMeters>
          </Trackpoint>
          <Trackpoint>
            <Time>2023-01-11T13:23:37.000Z</Time>
            <Position>
              <LatitudeDegrees>-49.22727984376251697540283203125</LatitudeDegrees>
              <LongitudeDegrees>-73.01379418931901454925537109375</LongitudeDegrees>
            </Position>
            <AltitudeMeters>532.79998779296875</AltitudeMeters>
            <DistanceMeters>24587.559257336</DistanceMeters>
          </Trackpoint>
          <Trackpoint>
            <Time>2023-01-11T13:23:44.000Z</Time>
            <Position>
              <LatitudeDegrees>-49.22729778103530406951904296875</LatitudeDegrees>
              <LongitudeDegrees>-73.01380894146859645843505859375</LongitudeDegrees>
            </Position>
            <AltitudeMeters>532.79998779296875</AltitudeMeters>
            <DistanceMeters>24589.824005318</DistanceMeters>
          </Trackpoint>
          <Trackpoint>
            <Time>2023-01-11T13:23:48.000Z</Time>
            <Position>
              <LatitudeDegrees>-49.227291159331798553466796875</LatitudeDegrees>
              <LongitudeDegrees>-73.01381313242018222808837890625</LongitudeDegrees>
            </Position>
            <AltitudeMeters>532.79998779296875</AltitudeMeters>
            <DistanceMeters>24590.619055852</DistanceMeters>
          </Trackpoint>
          <Trackpoint>
            <Time>2023-01-11T13:23:51.000Z</Time>
            <Position>
              <LatitudeDegrees>-49.2272950150072574615478515625</LatitudeDegrees>
              <LongitudeDegrees>-73.0138118751347064971923828125</LongitudeDegrees>
            </Position>
            <AltitudeMeters>532.79998779296875</AltitudeMeters>
            <DistanceMeters>24591.06477065</DistanceMeters>
          </Trackpoint>
          <Trackpoint>
            <Time>2023-01-11T13:23:57.000Z</Time>
            <Position>
              <LatitudeDegrees>-49.227307923138141632080078125</LatitudeDegrees>
              <LongitudeDegrees>-73.01380307413637638092041015625</LongitudeDegrees>
            </Position>
            <AltitudeMeters>532.79998779296875</AltitudeMeters>
            <DistanceMeters>24592.63486965</DistanceMeters>
          </Trackpoint>
          <Trackpoint>
            <Time>2023-01-11T13:24:20.000Z</Time>
            <Position>
              <LatitudeDegrees>-49.22729426063597202301025390625</LatitudeDegrees>
              <LongitudeDegrees>-73.01380642689764499664306640625</LongitudeDegrees>
            </Position>
            <AltitudeMeters>532.79998779296875</AltitudeMeters>
            <DistanceMeters>24594.175943985</DistanceMeters>
          </Trackpoint>
          <Trackpoint>
            <Time>2023-01-11T13:24:32.000Z</Time>
            <Position>
              <LatitudeDegrees>-49.22728889621794223785400390625</LatitudeDegrees>
              <LongitudeDegrees>-73.01381237804889678955078125</LongitudeDegrees>
            </Position>
            <AltitudeMeters>532.79998779296875</AltitudeMeters>
            <DistanceMeters>24594.912017749</DistanceMeters>
          </Trackpoint>
          <Trackpoint>
            <Time>2023-01-11T13:25:10.000Z</Time>
            <Position>
              <LatitudeDegrees>-49.22732108272612094879150390625</LatitudeDegrees>
              <LongitudeDegrees>-73.01380491815507411956787109375</LongitudeDegrees>
            </Position>
            <AltitudeMeters>532.79998779296875</AltitudeMeters>
            <DistanceMeters>24598.535514838</DistanceMeters>
          </Trackpoint>
          <Trackpoint>
            <Time>2023-01-11T13:25:14.000Z</Time>
            <Position>
              <LatitudeDegrees>-49.22732108272612094879150390625</LatitudeDegrees>
              <LongitudeDegrees>-73.013805337250232696533203125</LongitudeDegrees>
            </Position>
            <AltitudeMeters>532.79998779296875</AltitudeMeters>
            <DistanceMeters>24598.535514838</DistanceMeters>
          </Trackpoint>
          <Trackpoint>
            <Time>2023-01-11T13:25:17.000Z</Time>
            <Position>
              <LatitudeDegrees>-49.22732108272612094879150390625</LatitudeDegrees>
              <LongitudeDegrees>-73.01380860619246959686279296875</LongitudeDegrees>
            </Position>
            <AltitudeMeters>532.79998779296875</AltitudeMeters>
            <DistanceMeters>24598.786931892</DistanceMeters>
          </Trackpoint>
          <Trackpoint>
            <Time>2023-01-11T13:25:34.000Z</Time>
            <Position>
              <LatitudeDegrees>-49.22730348072946071624755859375</LatitudeDegrees>
              <LongitudeDegrees>-73.013803996145725250244140625</LongitudeDegrees>
            </Position>
            <AltitudeMeters>532.79998779296875</AltitudeMeters>
            <DistanceMeters>24600.775693688</DistanceMeters>
          </Trackpoint>
          <Trackpoint>
            <Time>2023-01-11T13:25:55.000Z</Time>
            <Position>
              <LatitudeDegrees>-49.22731135971844196319580078125</LatitudeDegrees>
              <LongitudeDegrees>-73.0137827061116695404052734375</LongitudeDegrees>
            </Position>
            <AltitudeMeters>532.79998779296875</AltitudeMeters>
            <DistanceMeters>24602.558552883</DistanceMeters>
          </Trackpoint>
          <Trackpoint>
            <Time>2023-01-11T13:26:12.000Z</Time>
            <Position>
              <LatitudeDegrees>-49.22729794867336750030517578125</LatitudeDegrees>
              <LongitudeDegrees>-73.0137897469103336334228515625</LongitudeDegrees>
            </Position>
            <AltitudeMeters>532.79998779296875</AltitudeMeters>
            <DistanceMeters>24604.137255229</DistanceMeters>
          </Trackpoint>
          <Trackpoint>
            <Time>2023-01-11T13:26:26.000Z</Time>
            <Position>
              <LatitudeDegrees>-49.22729392535984516143798828125</LatitudeDegrees>
              <LongitudeDegrees>-73.01379251293838024139404296875</LongitudeDegrees>
            </Position>
            <AltitudeMeters>532.79998779296875</AltitudeMeters>
            <DistanceMeters>24604.640089337</DistanceMeters>
          </Trackpoint>
          <Trackpoint>
            <Time>2023-01-11T13:26:27.000Z</Time>
            <Position>
              <LatitudeDegrees>-49.2272933386266231536865234375</LatitudeDegrees>
              <LongitudeDegrees>-73.01378899253904819488525390625</LongitudeDegrees>
            </Position>
            <AltitudeMeters>532.79998779296875</AltitudeMeters>
            <DistanceMeters>24604.908865474</DistanceMeters>
          </Trackpoint>
          <Trackpoint>
            <Time>2023-01-11T13:26:32.000Z</Time>
            <Position>
              <LatitudeDegrees>-49.2272983677685260772705078125</LatitudeDegrees>
              <LongitudeDegrees>-73.0137766711413860321044921875</LongitudeDegrees>
            </Position>
            <AltitudeMeters>532.79998779296875</AltitudeMeters>
            <DistanceMeters>24605.962762719</DistanceMeters>
          </Trackpoint>
          <Trackpoint>
            <Time>2023-01-11T13:26:48.000Z</Time>
            <Position>
              <LatitudeDegrees>-49.22730348072946071624755859375</LatitudeDegrees>
              <LongitudeDegrees>-73.013789914548397064208984375</LongitudeDegrees>
            </Position>
            <AltitudeMeters>532.79998779296875</AltitudeMeters>
            <DistanceMeters>24607.079073853</DistanceMeters>
          </Trackpoint>
          <Trackpoint>
            <Time>2023-01-11T13:26:57.000Z</Time>
            <Position>
              <LatitudeDegrees>-49.22731035389006137847900390625</LatitudeDegrees>
              <LongitudeDegrees>-73.01379720680415630340576171875</LongitudeDegrees>
            </Position>
            <AltitudeMeters>532.79998779296875</AltitudeMeters>
            <DistanceMeters>24608.010141702</DistanceMeters>
          </Trackpoint>
          <Trackpoint>
            <Time>2023-01-11T13:27:00.000Z</Time>
            <Position>
              <LatitudeDegrees>-49.2273104377090930938720703125</LatitudeDegrees>
              <LongitudeDegrees>-73.0137981288135051727294921875</LongitudeDegrees>
            </Position>
            <AltitudeMeters>532.79998779296875</AltitudeMeters>
            <DistanceMeters>24608.14452977</DistanceMeters>
          </Trackpoint>
          <Trackpoint>
            <Time>2023-01-11T13:27:06.000Z</Time>
            <Position>
              <LatitudeDegrees>-49.2273104377090930938720703125</LatitudeDegrees>
              <LongitudeDegrees>-73.0137981288135051727294921875</LongitudeDegrees>
            </Position>
            <AltitudeMeters>532.79998779296875</AltitudeMeters>
            <DistanceMeters>24608.14452977</DistanceMeters>
          </Trackpoint>
          <Trackpoint>
            <Time>2023-01-11T13:27:16.000Z</Time>
            <Position>
              <LatitudeDegrees>-49.2273003794252872467041015625</LatitudeDegrees>
              <LongitudeDegrees>-73.013798631727695465087890625</LongitudeDegrees>
            </Position>
            <AltitudeMeters>532.79998779296875</AltitudeMeters>
            <DistanceMeters>24609.260840905</DistanceMeters>
          </Trackpoint>
          <Trackpoint>
            <Time>2023-01-11T13:27:38.000Z</Time>
            <Position>
              <LatitudeDegrees>-49.22730264253914356231689453125</LatitudeDegrees>
              <LongitudeDegrees>-73.01379628479480743408203125</LongitudeDegrees>
            </Position>
            <AltitudeMeters>532.79998779296875</AltitudeMeters>
            <DistanceMeters>24609.561341761</DistanceMeters>
          </Trackpoint>
          <Trackpoint>
            <Time>2023-01-11T13:27:43.000Z</Time>
            <Position>
              <LatitudeDegrees>-49.22730633057653903961181640625</LatitudeDegrees>
              <LongitudeDegrees>-73.0137969553470611572265625</LongitudeDegrees>
            </Position>
            <AltitudeMeters>532.79998779296875</AltitudeMeters>
            <DistanceMeters>24609.975553606</DistanceMeters>
          </Trackpoint>
          <Trackpoint>
            <Time>2023-01-11T13:27:54.000Z</Time>
            <Position>
              <LatitudeDegrees>-49.2273483239114284515380859375</LatitudeDegrees>
              <LongitudeDegrees>-73.0138400383293628692626953125</LongitudeDegrees>
            </Position>
            <AltitudeMeters>532.79998779296875</AltitudeMeters>
            <DistanceMeters>24615.601424022</DistanceMeters>
          </Trackpoint>
          <Trackpoint>
            <Time>2023-01-11T13:27:57.000Z</Time>
            <Position>
              <LatitudeDegrees>-49.22734103165566921234130859375</LatitudeDegrees>
              <LongitudeDegrees>-73.01384297199547290802001953125</LongitudeDegrees>
            </Position>
            <AltitudeMeters>532.79998779296875</AltitudeMeters>
            <DistanceMeters>24616.440677239</DistanceMeters>
          </Trackpoint>
          <Trackpoint>
            <Time>2023-01-11T13:28:01.000Z</Time>
            <Position>
              <LatitudeDegrees>-49.22729618847370147705078125</LatitudeDegrees>
              <LongitudeDegrees>-73.013822101056575775146484375</LongitudeDegrees>
            </Position>
            <AltitudeMeters>532.79998779296875</AltitudeMeters>
            <DistanceMeters>24621.656769677</DistanceMeters>
          </Trackpoint>
          <Trackpoint>
            <Time>2023-01-11T13:28:05.000Z</Time>
            <Position>
              <LatitudeDegrees>-49.2272700369358062744140625</LatitudeDegrees>
              <LongitudeDegrees>-73.0138078518211841583251953125</LongitudeDegrees>
            </Position>
            <AltitudeMeters>532.79998779296875</AltitudeMeters>
            <DistanceMeters>24624.746234162</DistanceMeters>
          </Trackpoint>
          <Trackpoint>
            <Time>2023-01-11T13:28:19.000Z</Time>
            <Position>
              <LatitudeDegrees>-49.22726257704198360443115234375</LatitudeDegrees>
              <LongitudeDegrees>-73.0137917585670948028564453125</LongitudeDegrees>
            </Position>
            <AltitudeMeters>532.79998779296875</AltitudeMeters>
            <DistanceMeters>24626.181106083</DistanceMeters>
          </Trackpoint>
          <Trackpoint>
            <Time>2023-01-11T13:28:22.000Z</Time>
            <Position>
              <LatitudeDegrees>-49.2272624932229518890380859375</LatitudeDegrees>
              <LongitudeDegrees>-73.0137917585670948028564453125</LongitudeDegrees>
            </Position>
            <AltitudeMeters>532.79998779296875</AltitudeMeters>
            <DistanceMeters>24626.181106083</DistanceMeters>
          </Trackpoint>
          <Trackpoint>
            <Time>2023-01-11T13:28:24.000Z</Time>
            <Position>
              <LatitudeDegrees>-49.22726140357553958892822265625</LatitudeDegrees>
              <LongitudeDegrees>-73.0137917585670948028564453125</LongitudeDegrees>
            </Position>
            <AltitudeMeters>532.79998779296875</AltitudeMeters>
            <DistanceMeters>24626.276132797</DistanceMeters>
          </Trackpoint>
          <Trackpoint>
            <Time>2023-01-11T13:28:25.000Z</Time>
            <Position>
              <LatitudeDegrees>-49.22726140357553958892822265625</LatitudeDegrees>
              <LongitudeDegrees>-73.0137917585670948028564453125</LongitudeDegrees>
            </Position>
            <AltitudeMeters>532.79998779296875</AltitudeMeters>
            <DistanceMeters>24626.276132797</DistanceMeters>
          </Trackpoint>
          <Trackpoint>
            <Time>2023-01-11T13:28:31.000Z</Time>
            <Position>
              <LatitudeDegrees>-49.22726140357553958892822265625</LatitudeDegrees>
              <LongitudeDegrees>-73.0137917585670948028564453125</LongitudeDegrees>
            </Position>
            <AltitudeMeters>532.79998779296875</AltitudeMeters>
            <DistanceMeters>24626.276132797</DistanceMeters>
          </Trackpoint>
          <Trackpoint>
            <Time>2023-01-11T13:28:32.000Z</Time>
            <Position>
              <LatitudeDegrees>-49.22726140357553958892822265625</LatitudeDegrees>
              <LongitudeDegrees>-73.0137917585670948028564453125</LongitudeDegrees>
            </Position>
            <AltitudeMeters>532.79998779296875</AltitudeMeters>
            <DistanceMeters>24626.276132797</DistanceMeters>
          </Trackpoint>
          <Trackpoint>
            <Time>2023-01-11T13:28:35.000Z</Time>
            <Position>
              <LatitudeDegrees>-49.22726140357553958892822265625</LatitudeDegrees>
              <LongitudeDegrees>-73.0137917585670948028564453125</LongitudeDegrees>
            </Position>
            <AltitudeMeters>532.79998779296875</AltitudeMeters>
            <DistanceMeters>24626.276132797</DistanceMeters>
          </Trackpoint>
          <Trackpoint>
            <Time>2023-01-11T13:28:50.000Z</Time>
            <Position>
              <LatitudeDegrees>-49.22729375772178173065185546875</LatitudeDegrees>
              <LongitudeDegrees>-73.013825118541717529296875</LongitudeDegrees>
            </Position>
            <AltitudeMeters>532.79998779296875</AltitudeMeters>
            <DistanceMeters>24630.617304245</DistanceMeters>
          </Trackpoint>
          <Trackpoint>
            <Time>2023-01-11T13:29:29.000Z</Time>
            <Position>
              <LatitudeDegrees>-49.22732678242027759552001953125</LatitudeDegrees>
              <LongitudeDegrees>-73.01381983794271945953369140625</LongitudeDegrees>
            </Position>
            <AltitudeMeters>532.79998779296875</AltitudeMeters>
            <DistanceMeters>24634.312365216</DistanceMeters>
          </Trackpoint>
          <Trackpoint>
            <Time>2023-01-11T13:29:42.000Z</Time>
            <Position>
              <LatitudeDegrees>-49.22732695005834102630615234375</LatitudeDegrees>
              <LongitudeDegrees>-73.01382821984589099884033203125</LongitudeDegrees>
            </Position>
            <AltitudeMeters>532.79998779296875</AltitudeMeters>
            <DistanceMeters>24634.913366928</DistanceMeters>
          </Trackpoint>
          <Trackpoint>
            <Time>2023-01-11T13:30:02.000Z</Time>
            <Position>
              <LatitudeDegrees>-49.22731504775583744049072265625</LatitudeDegrees>
              <LongitudeDegrees>-73.0138333328068256378173828125</LongitudeDegrees>
            </Position>
            <AltitudeMeters>532.79998779296875</AltitudeMeters>
            <DistanceMeters>24636.287152201</DistanceMeters>
          </Trackpoint>
          <Trackpoint>
            <Time>2023-01-11T13:30:12.000Z</Time>
            <Position>
              <LatitudeDegrees>-49.22731320373713970184326171875</LatitudeDegrees>
              <LongitudeDegrees>-73.01383643411099910736083984375</LongitudeDegrees>
            </Position>
            <AltitudeMeters>532.79998779296875</AltitudeMeters>
            <DistanceMeters>24636.587653057</DistanceMeters>
          </Trackpoint>
          <Trackpoint>
            <Time>2023-01-11T13:30:18.000Z</Time>
            <Position>
              <LatitudeDegrees>-49.2273131199181079864501953125</LatitudeDegrees>
              <LongitudeDegrees>-73.013844899833202362060546875</LongitudeDegrees>
            </Position>
            <AltitudeMeters>532.79998779296875</AltitudeMeters>
            <DistanceMeters>24637.203496552</DistanceMeters>
          </Trackpoint>
          <Trackpoint>
            <Time>2023-01-11T13:46:07.000Z</Time>
            <Position>
              <LatitudeDegrees>-49.2273684404790401458740234375</LatitudeDegrees>
              <LongitudeDegrees>-73.01373057067394256591796875</LongitudeDegrees>
            </Position>
            <AltitudeMeters>532.79998779296875</AltitudeMeters>
            <DistanceMeters>24647.546140584</DistanceMeters>
          </Trackpoint>
          <Trackpoint>
            <Time>2023-01-11T13:46:31.000Z</Time>
            <Position>
              <LatitudeDegrees>-49.22740079462528228759765625</LatitudeDegrees>
              <LongitudeDegrees>-73.01376434974372386932373046875</LongitudeDegrees>
            </Position>
            <AltitudeMeters>532.20001220703125</AltitudeMeters>
            <DistanceMeters>24651.904957033</DistanceMeters>
          </Trackpoint>
          <Trackpoint>
            <Time>2023-01-11T13:46:41.000Z</Time>
            <Position>
              <LatitudeDegrees>-49.22741563059389591217041015625</LatitudeDegrees>
              <LongitudeDegrees>-73.0137595720589160919189453125</LongitudeDegrees>
            </Position>
            <AltitudeMeters>532.4000244140625</AltitudeMeters>
            <DistanceMeters>24653.591513904</DistanceMeters>
          </Trackpoint>
          <Trackpoint>
            <Time>2023-01-11T13:46:44.000Z</Time>
            <Position>
              <LatitudeDegrees>-49.227453768253326416015625</LatitudeDegrees>
              <LongitudeDegrees>-73.013743646442890167236328125</LongitudeDegrees>
            </Position>
            <AltitudeMeters>532.4000244140625</AltitudeMeters>
            <DistanceMeters>24657.991568892</DistanceMeters>
          </Trackpoint>
          <Trackpoint>
            <Time>2023-01-11T13:46:49.000Z</Time>
            <Position>
              <LatitudeDegrees>-49.2275099270045757293701171875</LatitudeDegrees>
              <LongitudeDegrees>-73.0137149803340435028076171875</LongitudeDegrees>
            </Position>
            <AltitudeMeters>532</AltitudeMeters>
            <DistanceMeters>24664.579326279</DistanceMeters>
          </Trackpoint>
          <Trackpoint>
            <Time>2023-01-11T13:46:52.000Z</Time>
            <Position>
              <LatitudeDegrees>-49.227541945874691009521484375</LatitudeDegrees>
              <LongitudeDegrees>-73.01370785571634769439697265625</LongitudeDegrees>
            </Position>
            <AltitudeMeters>531.79998779296875</AltitudeMeters>
            <DistanceMeters>24668.18032472</DistanceMeters>
          </Trackpoint>
          <Trackpoint>
            <Time>2023-01-11T13:46:57.000Z</Time>
            <Position>
              <LatitudeDegrees>-49.22757052816450595855712890625</LatitudeDegrees>
              <LongitudeDegrees>-73.01372763700783252716064453125</LongitudeDegrees>
            </Position>
            <AltitudeMeters>531.5999755859375</AltitudeMeters>
            <DistanceMeters>24671.671829152</DistanceMeters>
          </Trackpoint>
          <Trackpoint>
            <Time>2023-01-11T13:47:02.000Z</Time>
            <Position>
              <LatitudeDegrees>-49.22761327587068080902099609375</LatitudeDegrees>
              <LongitudeDegrees>-73.0137029103934764862060546875</LongitudeDegrees>
            </Position>
            <AltitudeMeters>532</AltitudeMeters>
            <DistanceMeters>24676.759087656</DistanceMeters>
          </Trackpoint>
          <Trackpoint>
            <Time>2023-01-11T13:47:03.000Z</Time>
            <Position>
              <LatitudeDegrees>-49.22762115485966205596923828125</LatitudeDegrees>
              <LongitudeDegrees>-73.0137139745056629180908203125</LongitudeDegrees>
            </Position>
            <AltitudeMeters>532</AltitudeMeters>
            <DistanceMeters>24677.945970938</DistanceMeters>
          </Trackpoint>
          <Trackpoint>
            <Time>2023-01-11T13:47:06.000Z</Time>
            <Position>
              <LatitudeDegrees>-49.22764697112143039703369140625</LatitudeDegrees>
              <LongitudeDegrees>-73.0137156508862972259521484375</LongitudeDegrees>
            </Position>
            <AltitudeMeters>532</AltitudeMeters>
            <DistanceMeters>24680.822001193</DistanceMeters>
          </Trackpoint>
          <Trackpoint>
            <Time>2023-01-11T13:47:07.000Z</Time>
            <Position>
              <LatitudeDegrees>-49.227654598653316497802734375</LatitudeDegrees>
              <LongitudeDegrees>-73.0137122981250286102294921875</LongitudeDegrees>
            </Position>
            <AltitudeMeters>532</AltitudeMeters>
            <DistanceMeters>24681.703242688</DistanceMeters>
          </Trackpoint>
          <Trackpoint>
            <Time>2023-01-11T13:47:09.000Z</Time>
            <Position>
              <LatitudeDegrees>-49.2276656627655029296875</LatitudeDegrees>
              <LongitudeDegrees>-73.013698719441890716552734375</LongitudeDegrees>
            </Position>
            <AltitudeMeters>532</AltitudeMeters>
            <DistanceMeters>24683.281945035</DistanceMeters>
          </Trackpoint>
          <Trackpoint>
            <Time>2023-01-11T13:47:13.000Z</Time>
            <Position>
              <LatitudeDegrees>-49.227697513997554779052734375</LatitudeDegrees>
              <LongitudeDegrees>-73.0136653594672679901123046875</LongitudeDegrees>
            </Position>
            <AltitudeMeters>531.79998779296875</AltitudeMeters>
            <DistanceMeters>24687.576059158</DistanceMeters>
          </Trackpoint>
          <Trackpoint>
            <Time>2023-01-11T13:47:15.000Z</Time>
            <Position>
              <LatitudeDegrees>-49.22771670855581760406494140625</LatitudeDegrees>
              <LongitudeDegrees>-73.013649769127368927001953125</LongitudeDegrees>
            </Position>
            <AltitudeMeters>531.79998779296875</AltitudeMeters>
            <DistanceMeters>24689.995044386</DistanceMeters>
          </Trackpoint>
          <Trackpoint>
            <Time>2023-01-11T13:47:16.000Z</Time>
            <Position>
              <LatitudeDegrees>-49.22773011960089206695556640625</LatitudeDegrees>
              <LongitudeDegrees>-73.0136462487280368804931640625</LongitudeDegrees>
            </Position>
            <AltitudeMeters>531.79998779296875</AltitudeMeters>
            <DistanceMeters>24691.509521001</DistanceMeters>
          </Trackpoint>
          <Trackpoint>
            <Time>2023-01-11T13:47:23.000Z</Time>
            <Position>
              <LatitudeDegrees>-49.227804131805896759033203125</LatitudeDegrees>
              <LongitudeDegrees>-73.01358698867261409759521484375</LongitudeDegrees>
            </Position>
            <AltitudeMeters>532.5999755859375</AltitudeMeters>
            <DistanceMeters>24700.805640168</DistanceMeters>
          </Trackpoint>
          <Trackpoint>
            <Time>2023-01-11T13:47:24.000Z</Time>
            <Position>
              <LatitudeDegrees>-49.2278153635561466217041015625</LatitudeDegrees>
              <LongitudeDegrees>-73.0135877430438995361328125</LongitudeDegrees>
            </Position>
            <AltitudeMeters>532.79998779296875</AltitudeMeters>
            <DistanceMeters>24702.059128621</DistanceMeters>
          </Trackpoint>
          <Trackpoint>
            <Time>2023-01-11T13:47:30.000Z</Time>
            <Position>
              <LatitudeDegrees>-49.227866493165493011474609375</LatitudeDegrees>
              <LongitudeDegrees>-73.01365924067795276641845703125</LongitudeDegrees>
            </Position>
            <AltitudeMeters>533</AltitudeMeters>
            <DistanceMeters>24709.766257973</DistanceMeters>
          </Trackpoint>
          <Trackpoint>
            <Time>2023-01-11T13:47:31.000Z</Time>
            <Position>
              <LatitudeDegrees>-49.2278696782886981964111328125</LatitudeDegrees>
              <LongitudeDegrees>-73.01368094980716705322265625</LongitudeDegrees>
            </Position>
            <AltitudeMeters>533</AltitudeMeters>
            <DistanceMeters>24711.384504607</DistanceMeters>
          </Trackpoint>
          <Trackpoint>
            <Time>2023-01-11T13:47:38.000Z</Time>
            <Position>
              <LatitudeDegrees>-49.2278794012963771820068359375</LatitudeDegrees>
              <LongitudeDegrees>-73.013820759952068328857421875</LongitudeDegrees>
            </Position>
            <AltitudeMeters>533.20001220703125</AltitudeMeters>
            <DistanceMeters>24721.604626633</DistanceMeters>
          </Trackpoint>
          <Trackpoint>
            <Time>2023-01-11T13:47:40.000Z</Time>
            <Position>
              <LatitudeDegrees>-49.22788501717150211334228515625</LatitudeDegrees>
              <LongitudeDegrees>-73.0138591490685939788818359375</LongitudeDegrees>
            </Position>
            <AltitudeMeters>532.79998779296875</AltitudeMeters>
            <DistanceMeters>24724.46491495</DistanceMeters>
          </Trackpoint>
          <Trackpoint>
            <Time>2023-01-11T13:47:46.000Z</Time>
            <Position>
              <LatitudeDegrees>-49.22790965996682643890380859375</LatitudeDegrees>
              <LongitudeDegrees>-73.01397808827459812164306640625</LongitudeDegrees>
            </Position>
            <AltitudeMeters>532.4000244140625</AltitudeMeters>
            <DistanceMeters>24733.534865138</DistanceMeters>
          </Trackpoint>
          <Trackpoint>
            <Time>2023-01-11T13:47:49.000Z</Time>
            <Position>
              <LatitudeDegrees>-49.2279122583568096160888671875</LatitudeDegrees>
              <LongitudeDegrees>-73.0140237696468830108642578125</LongitudeDegrees>
            </Position>
            <AltitudeMeters>532.5999755859375</AltitudeMeters>
            <DistanceMeters>24736.867580851</DistanceMeters>
          </Trackpoint>
          <Trackpoint>
            <Time>2023-01-11T13:47:51.000Z</Time>
            <Position>
              <LatitudeDegrees>-49.22792642377316951751708984375</LatitudeDegrees>
              <LongitudeDegrees>-73.0140526033937931060791015625</LongitudeDegrees>
            </Position>
            <AltitudeMeters>532.79998779296875</AltitudeMeters>
            <DistanceMeters>24739.490731295</DistanceMeters>
          </Trackpoint>
          <Trackpoint>
            <Time>2023-01-11T13:48:03.000Z</Time>
            <Position>
              <LatitudeDegrees>-49.228004626929759979248046875</LatitudeDegrees>
              <LongitudeDegrees>-73.01422133110463619232177734375</LongitudeDegrees>
            </Position>
            <AltitudeMeters>533.4000244140625</AltitudeMeters>
            <DistanceMeters>24754.530191218</DistanceMeters>
          </Trackpoint>
          <Trackpoint>
            <Time>2023-01-11T13:48:12.000Z</Time>
            <Position>
              <LatitudeDegrees>-49.22806824557483196258544921875</LatitudeDegrees>
              <LongitudeDegrees>-73.01432476378977298736572265625</LongitudeDegrees>
            </Position>
            <AltitudeMeters>533.4000244140625</AltitudeMeters>
            <DistanceMeters>24764.857982025</DistanceMeters>
          </Trackpoint>
          <Trackpoint>
            <Time>2023-01-11T13:48:16.000Z</Time>
            <Position>
              <LatitudeDegrees>-49.22810755670070648193359375</LatitudeDegrees>
              <LongitudeDegrees>-73.01437103189527988433837890625</LongitudeDegrees>
            </Position>
            <AltitudeMeters>533.4000244140625</AltitudeMeters>
            <DistanceMeters>24770.376081133</DistanceMeters>
          </Trackpoint>
          <Trackpoint>
            <Time>2023-01-11T13:48:18.000Z</Time>
            <Position>
              <LatitudeDegrees>-49.22812356613576412200927734375</LatitudeDegrees>
              <LongitudeDegrees>-73.0143898911774158477783203125</LongitudeDegrees>
            </Position>
            <AltitudeMeters>533.4000244140625</AltitudeMeters>
            <DistanceMeters>24772.624823628</DistanceMeters>
          </Trackpoint>
          <Trackpoint>
            <Time>2023-01-11T13:48:24.000Z</Time>
            <Position>
              <LatitudeDegrees>-49.22816388309001922607421875</LatitudeDegrees>
              <LongitudeDegrees>-73.0144790746271610260009765625</LongitudeDegrees>
            </Position>
            <AltitudeMeters>533.79998779296875</AltitudeMeters>
            <DistanceMeters>24780.509178151</DistanceMeters>
          </Trackpoint>
          <Trackpoint>
            <Time>2023-01-11T13:48:29.000Z</Time>
            <Position>
              <LatitudeDegrees>-49.228195063769817352294921875</LatitudeDegrees>
              <LongitudeDegrees>-73.014553003013134002685546875</LongitudeDegrees>
            </Position>
            <AltitudeMeters>534.4000244140625</AltitudeMeters>
            <DistanceMeters>24786.906388984</DistanceMeters>
          </Trackpoint>
          <Trackpoint>
            <Time>2023-01-11T13:48:33.000Z</Time>
            <Position>
              <LatitudeDegrees>-49.22821819782257080078125</LatitudeDegrees>
              <LongitudeDegrees>-73.014605306088924407958984375</LongitudeDegrees>
            </Position>
            <AltitudeMeters>534.20001220703125</AltitudeMeters>
            <DistanceMeters>24791.49727108</DistanceMeters>
          </Trackpoint>
          <Trackpoint>
            <Time>2023-01-11T13:48:39.000Z</Time>
            <Position>
              <LatitudeDegrees>-49.22824208624660968780517578125</LatitudeDegrees>
              <LongitudeDegrees>-73.0146591179072856903076171875</LongitudeDegrees>
            </Position>
            <AltitudeMeters>533.79998779296875</AltitudeMeters>
            <DistanceMeters>24796.227654725</DistanceMeters>
          </Trackpoint>
          <Trackpoint>
            <Time>2023-01-11T13:48:50.000Z</Time>
            <Position>
              <LatitudeDegrees>-49.228223226964473724365234375</LatitudeDegrees>
              <LongitudeDegrees>-73.01460203714668750762939453125</LongitudeDegrees>
            </Position>
            <AltitudeMeters>534</AltitudeMeters>
            <DistanceMeters>24800.877171152</DistanceMeters>
          </Trackpoint>
          <Trackpoint>
            <Time>2023-01-11T13:48:55.000Z</Time>
            <Position>
              <LatitudeDegrees>-49.228223226964473724365234375</LatitudeDegrees>
              <LongitudeDegrees>-73.01460203714668750762939453125</LongitudeDegrees>
            </Position>
            <AltitudeMeters>534.20001220703125</AltitudeMeters>
            <DistanceMeters>24800.877171152</DistanceMeters>
          </Trackpoint>
          <Trackpoint>
            <Time>2023-01-11T13:49:00.000Z</Time>
            <Position>
              <LatitudeDegrees>-49.228223226964473724365234375</LatitudeDegrees>
              <LongitudeDegrees>-73.01460203714668750762939453125</LongitudeDegrees>
            </Position>
            <AltitudeMeters>534</AltitudeMeters>
            <DistanceMeters>24800.877171152</DistanceMeters>
          </Trackpoint>
          <Trackpoint>
            <Time>2023-01-11T13:49:03.000Z</Time>
            <Position>
              <LatitudeDegrees>-49.228223226964473724365234375</LatitudeDegrees>
              <LongitudeDegrees>-73.01460203714668750762939453125</LongitudeDegrees>
            </Position>
            <AltitudeMeters>533.79998779296875</AltitudeMeters>
            <DistanceMeters>24800.877171152</DistanceMeters>
          </Trackpoint>
          <Trackpoint>
            <Time>2023-01-11T13:49:14.000Z</Time>
            <Position>
              <LatitudeDegrees>-49.22821509651839733123779296875</LatitudeDegrees>
              <LongitudeDegrees>-73.014601282775402069091796875</LongitudeDegrees>
            </Position>
            <AltitudeMeters>533.79998779296875</AltitudeMeters>
            <DistanceMeters>24801.788635377</DistanceMeters>
          </Trackpoint>
          <Trackpoint>
            <Time>2023-01-11T13:49:50.000Z</Time>
            <Position>
              <LatitudeDegrees>-49.2282173596322536468505859375</LatitudeDegrees>
              <LongitudeDegrees>-73.0146403424441814422607421875</LongitudeDegrees>
            </Position>
            <AltitudeMeters>533.5999755859375</AltitudeMeters>
            <DistanceMeters>24804.639436808</DistanceMeters>
          </Trackpoint>
          <Trackpoint>
            <Time>2023-01-11T13:49:51.000Z</Time>
            <Position>
              <LatitudeDegrees>-49.22821777872741222381591796875</LatitudeDegrees>
              <LongitudeDegrees>-73.0146403424441814422607421875</LongitudeDegrees>
            </Position>
            <AltitudeMeters>533.5999755859375</AltitudeMeters>
            <DistanceMeters>24804.639436808</DistanceMeters>
          </Trackpoint>
          <Trackpoint>
            <Time>2023-01-11T13:50:27.000Z</Time>
            <Position>
              <LatitudeDegrees>-49.228233955800533294677734375</LatitudeDegrees>
              <LongitudeDegrees>-73.014647550880908966064453125</LongitudeDegrees>
            </Position>
            <AltitudeMeters>534.20001220703125</AltitudeMeters>
            <DistanceMeters>24806.513656575</DistanceMeters>
          </Trackpoint>
          <Trackpoint>
            <Time>2023-01-11T13:50:44.000Z</Time>
            <Position>
              <LatitudeDegrees>-49.22823538072407245635986328125</LatitudeDegrees>
              <LongitudeDegrees>-73.01466959528625011444091796875</LongitudeDegrees>
            </Position>
            <AltitudeMeters>533.79998779296875</AltitudeMeters>
            <DistanceMeters>24808.126313394</DistanceMeters>
          </Trackpoint>
          <Trackpoint>
            <Time>2023-01-11T13:50:49.000Z</Time>
            <Position>
              <LatitudeDegrees>-49.22824141569435596466064453125</LatitudeDegrees>
              <LongitudeDegrees>-73.01467915065586566925048828125</LongitudeDegrees>
            </Position>
            <AltitudeMeters>534</AltitudeMeters>
            <DistanceMeters>24809.090729214</DistanceMeters>
          </Trackpoint>
          <Trackpoint>
            <Time>2023-01-11T13:50:53.000Z</Time>
            <Position>
              <LatitudeDegrees>-49.228242672979831695556640625</LatitudeDegrees>
              <LongitudeDegrees>-73.01468099467456340789794921875</LongitudeDegrees>
            </Position>
            <AltitudeMeters>534.20001220703125</AltitudeMeters>
            <DistanceMeters>24809.280782643</DistanceMeters>
          </Trackpoint>
          <Trackpoint>
            <Time>2023-01-11T13:50:57.000Z</Time>
            <Position>
              <LatitudeDegrees>-49.22824292443692684173583984375</LatitudeDegrees>
              <LongitudeDegrees>-73.0146812461316585540771484375</LongitudeDegrees>
            </Position>
            <AltitudeMeters>534.20001220703125</AltitudeMeters>
            <DistanceMeters>24809.280782643</DistanceMeters>
          </Trackpoint>
          <Trackpoint>
            <Time>2023-01-11T13:51:06.000Z</Time>
            <Position>
              <LatitudeDegrees>-49.228244014084339141845703125</LatitudeDegrees>
              <LongitudeDegrees>-73.01468032412230968475341796875</LongitudeDegrees>
            </Position>
            <AltitudeMeters>534.5999755859375</AltitudeMeters>
            <DistanceMeters>24809.415170711</DistanceMeters>
          </Trackpoint>
          <Trackpoint>
            <Time>2023-01-11T13:51:13.000Z</Time>
            <Position>
              <LatitudeDegrees>-49.2282448522746562957763671875</LatitudeDegrees>
              <LongitudeDegrees>-73.01467848010361194610595703125</LongitudeDegrees>
            </Position>
            <AltitudeMeters>534.79998779296875</AltitudeMeters>
            <DistanceMeters>24809.579761809</DistanceMeters>
          </Trackpoint>
          <Trackpoint>
            <Time>2023-01-11T13:51:18.000Z</Time>
            <Position>
              <LatitudeDegrees>-49.2282753624022006988525390625</LatitudeDegrees>
              <LongitudeDegrees>-73.01475726999342441558837890625</LongitudeDegrees>
            </Position>
            <AltitudeMeters>535.20001220703125</AltitudeMeters>
            <DistanceMeters>24816.237737872</DistanceMeters>
          </Trackpoint>
          <Trackpoint>
            <Time>2023-01-11T13:51:20.000Z</Time>
            <Position>
              <LatitudeDegrees>-49.22829153947532176971435546875</LatitudeDegrees>
              <LongitudeDegrees>-73.01479180343449115753173828125</LongitudeDegrees>
            </Position>
            <AltitudeMeters>534.79998779296875</AltitudeMeters>
            <DistanceMeters>24819.32574058</DistanceMeters>
          </Trackpoint>
          <Trackpoint>
            <Time>2023-01-11T13:51:25.000Z</Time>
            <Position>
              <LatitudeDegrees>-49.2283256538212299346923828125</LatitudeDegrees>
              <LongitudeDegrees>-73.01488283090293407440185546875</LongitudeDegrees>
            </Position>
            <AltitudeMeters>534.79998779296875</AltitudeMeters>
            <DistanceMeters>24826.953965315</DistanceMeters>
          </Trackpoint>
          <Trackpoint>
            <Time>2023-01-11T13:51:29.000Z</Time>
            <Position>
              <LatitudeDegrees>-49.2283575050532817840576171875</LatitudeDegrees>
              <LongitudeDegrees>-73.01494904793798923492431640625</LongitudeDegrees>
            </Position>
            <AltitudeMeters>535.20001220703125</AltitudeMeters>
            <DistanceMeters>24832.930835935</DistanceMeters>
          </Trackpoint>
          <Trackpoint>
            <Time>2023-01-11T13:51:35.000Z</Time>
            <Position>
              <LatitudeDegrees>-49.2283863388001918792724609375</LatitudeDegrees>
              <LongitudeDegrees>-73.0150373093783855438232421875</LongitudeDegrees>
            </Position>
            <AltitudeMeters>534.4000244140625</AltitudeMeters>
            <DistanceMeters>24840.10393677</DistanceMeters>
          </Trackpoint>
          <Trackpoint>
            <Time>2023-01-11T13:51:36.000Z</Time>
            <Position>
              <LatitudeDegrees>-49.228384830057621002197265625</LatitudeDegrees>
              <LongitudeDegrees>-73.0150575935840606689453125</LongitudeDegrees>
            </Position>
            <AltitudeMeters>535</AltitudeMeters>
            <DistanceMeters>24841.5883015</DistanceMeters>
          </Trackpoint>
          <Trackpoint>
            <Time>2023-01-11T13:51:39.000Z</Time>
            <Position>
              <LatitudeDegrees>-49.2283863388001918792724609375</LatitudeDegrees>
              <LongitudeDegrees>-73.01506631076335906982421875</LongitudeDegrees>
            </Position>
            <AltitudeMeters>535.4000244140625</AltitudeMeters>
            <DistanceMeters>24842.246665889</DistanceMeters>
          </Trackpoint>
          <Trackpoint>
            <Time>2023-01-11T13:51:41.000Z</Time>
            <Position>
              <LatitudeDegrees>-49.22837971709668636322021484375</LatitudeDegrees>
              <LongitudeDegrees>-73.0150668136775493621826171875</LongitudeDegrees>
            </Position>
            <AltitudeMeters>535.4000244140625</AltitudeMeters>
            <DistanceMeters>24842.982739654</DistanceMeters>
          </Trackpoint>
          <Trackpoint>
            <Time>2023-01-11T13:51:48.000Z</Time>
            <Position>
              <LatitudeDegrees>-49.22840251587331295013427734375</LatitudeDegrees>
              <LongitudeDegrees>-73.01512573845684528350830078125</LongitudeDegrees>
            </Position>
            <AltitudeMeters>536</AltitudeMeters>
            <DistanceMeters>24847.960543362</DistanceMeters>
          </Trackpoint>
          <Trackpoint>
            <Time>2023-01-11T13:51:54.000Z</Time>
            <Position>
              <LatitudeDegrees>-49.22843470238149166107177734375</LatitudeDegrees>
              <LongitudeDegrees>-73.01521542482078075408935546875</LongitudeDegrees>
            </Position>
            <AltitudeMeters>536.79998779296875</AltitudeMeters>
            <DistanceMeters>24855.399381205</DistanceMeters>
          </Trackpoint>
          <Trackpoint>
            <Time>2023-01-11T13:51:57.000Z</Time>
            <Position>
              <LatitudeDegrees>-49.228446185588836669921875</LatitudeDegrees>
              <LongitudeDegrees>-73.0152478627860546112060546875</LongitudeDegrees>
            </Position>
            <AltitudeMeters>537</AltitudeMeters>
            <DistanceMeters>24858.082098284</DistanceMeters>
          </Trackpoint>
          <Trackpoint>
            <Time>2023-01-11T13:52:00.000Z</Time>
            <Position>
              <LatitudeDegrees>-49.22846420668065547943115234375</LatitudeDegrees>
              <LongitudeDegrees>-73.01528532989323139190673828125</LongitudeDegrees>
            </Position>
            <AltitudeMeters>536.79998779296875</AltitudeMeters>
            <DistanceMeters>24861.464568809</DistanceMeters>
          </Trackpoint>
          <Trackpoint>
            <Time>2023-01-11T13:52:06.000Z</Time>
            <Position>
              <LatitudeDegrees>-49.2285090498626232147216796875</LatitudeDegrees>
              <LongitudeDegrees>-73.01537367515265941619873046875</LongitudeDegrees>
            </Position>
            <AltitudeMeters>536.79998779296875</AltitudeMeters>
            <DistanceMeters>24869.596990335</DistanceMeters>
          </Trackpoint>
          <Trackpoint>
            <Time>2023-01-11T13:52:09.000Z</Time>
            <Position>
              <LatitudeDegrees>-49.22853511758148670196533203125</LatitudeDegrees>
              <LongitudeDegrees>-73.01542061381042003631591796875</LongitudeDegrees>
            </Position>
            <AltitudeMeters>537.20001220703125</AltitudeMeters>
            <DistanceMeters>24874.07536055</DistanceMeters>
          </Trackpoint>
          <Trackpoint>
            <Time>2023-01-11T13:52:14.000Z</Time>
            <Position>
              <LatitudeDegrees>-49.2285791225731372833251953125</LatitudeDegrees>
              <LongitudeDegrees>-73.01550225354731082916259765625</LongitudeDegrees>
            </Position>
            <AltitudeMeters>537.4000244140625</AltitudeMeters>
            <DistanceMeters>24881.769590932</DistanceMeters>
          </Trackpoint>
          <Trackpoint>
            <Time>2023-01-11T13:52:18.000Z</Time>
            <Position>
              <LatitudeDegrees>-49.22860837541520595550537109375</LatitudeDegrees>
              <LongitudeDegrees>-73.01556679420173168182373046875</LongitudeDegrees>
            </Position>
            <AltitudeMeters>537.4000244140625</AltitudeMeters>
            <DistanceMeters>24887.479897932</DistanceMeters>
          </Trackpoint>
          <Trackpoint>
            <Time>2023-01-11T13:52:23.000Z</Time>
            <Position>
              <LatitudeDegrees>-49.2286481894552707672119140625</LatitudeDegrees>
              <LongitudeDegrees>-73.01564457826316356658935546875</LongitudeDegrees>
            </Position>
            <AltitudeMeters>538.4000244140625</AltitudeMeters>
            <DistanceMeters>24894.66306275</DistanceMeters>
          </Trackpoint>
          <Trackpoint>
            <Time>2023-01-11T13:52:25.000Z</Time>
            <Position>
              <LatitudeDegrees>-49.22866637818515300750732421875</LatitudeDegrees>
              <LongitudeDegrees>-73.01567508839070796966552734375</LongitudeDegrees>
            </Position>
            <AltitudeMeters>538.5999755859375</AltitudeMeters>
            <DistanceMeters>24897.66656843</DistanceMeters>
          </Trackpoint>
          <Trackpoint>
            <Time>2023-01-11T13:52:28.000Z</Time>
            <Position>
              <LatitudeDegrees>-49.2286864109337329864501953125</LatitudeDegrees>
              <LongitudeDegrees>-73.0157192610204219818115234375</LongitudeDegrees>
            </Position>
            <AltitudeMeters>538.4000244140625</AltitudeMeters>
            <DistanceMeters>24901.575390419</DistanceMeters>
          </Trackpoint>
          <Trackpoint>
            <Time>2023-01-11T13:52:30.000Z</Time>
            <Position>
              <LatitudeDegrees>-49.22869806177914142608642578125</LatitudeDegrees>
              <LongitudeDegrees>-73.01575706340372562408447265625</LongitudeDegrees>
            </Position>
            <AltitudeMeters>538.20001220703125</AltitudeMeters>
            <DistanceMeters>24904.613274242</DistanceMeters>
          </Trackpoint>
          <Trackpoint>
            <Time>2023-01-11T13:52:32.000Z</Time>
            <Position>
              <LatitudeDegrees>-49.22871365211904048919677734375</LatitudeDegrees>
              <LongitudeDegrees>-73.01578908227384090423583984375</LongitudeDegrees>
            </Position>
            <AltitudeMeters>538.20001220703125</AltitudeMeters>
            <DistanceMeters>24907.514313926</DistanceMeters>
          </Trackpoint>
          <Trackpoint>
            <Time>2023-01-11T13:52:35.000Z</Time>
            <Position>
              <LatitudeDegrees>-49.22872739844024181365966796875</LatitudeDegrees>
              <LongitudeDegrees>-73.01583317108452320098876953125</LongitudeDegrees>
            </Position>
            <AltitudeMeters>538</AltitudeMeters>
            <DistanceMeters>24911.064804979</DistanceMeters>
          </Trackpoint>
          <Trackpoint>
            <Time>2023-01-11T13:52:41.000Z</Time>
            <Position>
              <LatitudeDegrees>-49.228757321834564208984375</LatitudeDegrees>
              <LongitudeDegrees>-73.01593400537967681884765625</LongitudeDegrees>
            </Position>
            <AltitudeMeters>538.20001220703125</AltitudeMeters>
            <DistanceMeters>24919.114639049</DistanceMeters>
          </Trackpoint>
          <Trackpoint>
            <Time>2023-01-11T13:52:52.000Z</Time>
            <Position>
              <LatitudeDegrees>-49.22882529906928539276123046875</LatitudeDegrees>
              <LongitudeDegrees>-73.01610223017632961273193359375</LongitudeDegrees>
            </Position>
            <AltitudeMeters>538.79998779296875</AltitudeMeters>
            <DistanceMeters>24933.493534357</DistanceMeters>
          </Trackpoint>
          <Trackpoint>
            <Time>2023-01-11T13:53:00.000Z</Time>
            <Position>
              <LatitudeDegrees>-49.22883787192404270172119140625</LatitudeDegrees>
              <LongitudeDegrees>-73.01619795151054859161376953125</LongitudeDegrees>
            </Position>
            <AltitudeMeters>538.79998779296875</AltitudeMeters>
            <DistanceMeters>24940.590700439</DistanceMeters>
          </Trackpoint>
          <Trackpoint>
            <Time>2023-01-11T13:53:06.000Z</Time>
            <Position>
              <LatitudeDegrees>-49.22885044477880001068115234375</LatitudeDegrees>
              <LongitudeDegrees>-73.0162453092634677886962890625</LongitudeDegrees>
            </Position>
            <AltitudeMeters>538.5999755859375</AltitudeMeters>
            <DistanceMeters>24944.306475847</DistanceMeters>
          </Trackpoint>
          <Trackpoint>
            <Time>2023-01-11T13:53:07.000Z</Time>
            <Position>
              <LatitudeDegrees>-49.228856898844242095947265625</LatitudeDegrees>
              <LongitudeDegrees>-73.01625788211822509765625</LongitudeDegrees>
            </Position>
            <AltitudeMeters>538.5999755859375</AltitudeMeters>
            <DistanceMeters>24945.470310658</DistanceMeters>
          </Trackpoint>
          <Trackpoint>
            <Time>2023-01-11T13:53:10.000Z</Time>
            <Position>
              <LatitudeDegrees>-49.228883720934391021728515625</LatitudeDegrees>
              <LongitudeDegrees>-73.01628814078867435455322265625</LongitudeDegrees>
            </Position>
            <AltitudeMeters>538.5999755859375</AltitudeMeters>
            <DistanceMeters>24949.177570609</DistanceMeters>
          </Trackpoint>
          <Trackpoint>
            <Time>2023-01-11T13:53:13.000Z</Time>
            <Position>
              <LatitudeDegrees>-49.22890408895909786224365234375</LatitudeDegrees>
              <LongitudeDegrees>-73.0163209140300750732421875</LongitudeDegrees>
            </Position>
            <AltitudeMeters>538.79998779296875</AltitudeMeters>
            <DistanceMeters>24952.465275204</DistanceMeters>
          </Trackpoint>
          <Trackpoint>
            <Time>2023-01-11T13:53:18.000Z</Time>
            <Position>
              <LatitudeDegrees>-49.22894113697111606597900390625</LatitudeDegrees>
              <LongitudeDegrees>-73.01639693789184093475341796875</LongitudeDegrees>
            </Position>
            <AltitudeMeters>539</AltitudeMeters>
            <DistanceMeters>24959.359789139</DistanceMeters>
          </Trackpoint>
          <Trackpoint>
            <Time>2023-01-11T13:53:22.000Z</Time>
            <Position>
              <LatitudeDegrees>-49.2289643548429012298583984375</LatitudeDegrees>
              <LongitudeDegrees>-73.01645879633724689483642578125</LongitudeDegrees>
            </Position>
            <AltitudeMeters>539</AltitudeMeters>
            <DistanceMeters>24964.545497158</DistanceMeters>
          </Trackpoint>
          <Trackpoint>
            <Time>2023-01-11T13:53:26.000Z</Time>
            <Position>
              <LatitudeDegrees>-49.2289874888956546783447265625</LatitudeDegrees>
              <LongitudeDegrees>-73.0165256001055240631103515625</LongitudeDegrees>
            </Position>
            <AltitudeMeters>539</AltitudeMeters>
            <DistanceMeters>24970.041459831</DistanceMeters>
          </Trackpoint>
          <Trackpoint>
            <Time>2023-01-11T13:53:31.000Z</Time>
            <Position>
              <LatitudeDegrees>-49.22901506535708904266357421875</LatitudeDegrees>
              <LongitudeDegrees>-73.01661151461303234100341796875</LongitudeDegrees>
            </Position>
            <AltitudeMeters>539.4000244140625</AltitudeMeters>
            <DistanceMeters>24976.999855472</DistanceMeters>
          </Trackpoint>
          <Trackpoint>
            <Time>2023-01-11T13:53:32.000Z</Time>
            <Position>
              <LatitudeDegrees>-49.22902126796543598175048828125</LatitudeDegrees>
              <LongitudeDegrees>-73.016628362238407135009765625</LongitudeDegrees>
            </Position>
            <AltitudeMeters>539.4000244140625</AltitudeMeters>
            <DistanceMeters>24978.402908095</DistanceMeters>
          </Trackpoint>
          <Trackpoint>
            <Time>2023-01-11T13:53:35.000Z</Time>
            <Position>
              <LatitudeDegrees>-49.229036606848239898681640625</LatitudeDegrees>
              <LongitudeDegrees>-73.016673959791660308837890625</LongitudeDegrees>
            </Position>
            <AltitudeMeters>539.79998779296875</AltitudeMeters>
            <DistanceMeters>24982.132025648</DistanceMeters>
          </Trackpoint>
          <Trackpoint>
            <Time>2023-01-11T13:53:37.000Z</Time>
            <Position>
              <LatitudeDegrees>-49.22904825769364833831787109375</LatitudeDegrees>
              <LongitudeDegrees>-73.01670606248080730438232421875</LongitudeDegrees>
            </Position>
            <AltitudeMeters>539.79998779296875</AltitudeMeters>
            <DistanceMeters>24984.802935679</DistanceMeters>
          </Trackpoint>
          <Trackpoint>
            <Time>2023-01-11T13:53:39.000Z</Time>
            <Position>
              <LatitudeDegrees>-49.229056052863597869873046875</LatitudeDegrees>
              <LongitudeDegrees>-73.01674478687345981597900390625</LongitudeDegrees>
            </Position>
            <AltitudeMeters>539.5999755859375</AltitudeMeters>
            <DistanceMeters>24987.747230736</DistanceMeters>
          </Trackpoint>
          <Trackpoint>
            <Time>2023-01-11T13:53:44.000Z</Time>
            <Position>
              <LatitudeDegrees>-49.229074157774448394775390625</LatitudeDegrees>
              <LongitudeDegrees>-73.01681620068848133087158203125</LongitudeDegrees>
            </Position>
            <AltitudeMeters>539.79998779296875</AltitudeMeters>
            <DistanceMeters>24993.314206787</DistanceMeters>
          </Trackpoint>
          <Trackpoint>
            <Time>2023-01-11T13:53:53.000Z</Time>
            <Position>
              <LatitudeDegrees>-49.2291232757270336151123046875</LatitudeDegrees>
              <LongitudeDegrees>-73.01694913767278194427490234375</LongitudeDegrees>
            </Position>
            <AltitudeMeters>539.79998779296875</AltitudeMeters>
            <DistanceMeters>25004.416076602</DistanceMeters>
          </Trackpoint>
          <Trackpoint>
            <Time>2023-01-11T13:54:04.000Z</Time>
            <Position>
              <LatitudeDegrees>-49.22918706201016902923583984375</LatitudeDegrees>
              <LongitudeDegrees>-73.01708878017961978912353515625</LongitudeDegrees>
            </Position>
            <AltitudeMeters>540.4000244140625</AltitudeMeters>
            <DistanceMeters>25016.802399656</DistanceMeters>
          </Trackpoint>
          <Trackpoint>
            <Time>2023-01-11T13:54:11.000Z</Time>
            <Position>
              <LatitudeDegrees>-49.229242801666259765625</LatitudeDegrees>
              <LongitudeDegrees>-73.0171629600226879119873046875</LongitudeDegrees>
            </Position>
            <AltitudeMeters>539.79998779296875</AltitudeMeters>
            <DistanceMeters>25025.022073126</DistanceMeters>
          </Trackpoint>
          <Trackpoint>
            <Time>2023-01-11T13:54:12.000Z</Time>
            <Position>
              <LatitudeDegrees>-49.2292510159313678741455078125</LatitudeDegrees>
              <LongitudeDegrees>-73.01717209629714488983154296875</LongitudeDegrees>
            </Position>
            <AltitudeMeters>539.79998779296875</AltitudeMeters>
            <DistanceMeters>25026.150452839</DistanceMeters>
          </Trackpoint>
          <Trackpoint>
            <Time>2023-01-11T13:54:20.000Z</Time>
            <Position>
              <LatitudeDegrees>-49.22931731678545475006103515625</LatitudeDegrees>
              <LongitudeDegrees>-73.017250634729862213134765625</LongitudeDegrees>
            </Position>
            <AltitudeMeters>540.5999755859375</AltitudeMeters>
            <DistanceMeters>25035.480024472</DistanceMeters>
          </Trackpoint>
          <Trackpoint>
            <Time>2023-01-11T13:54:23.000Z</Time>
            <Position>
              <LatitudeDegrees>-49.22933978028595447540283203125</LatitudeDegrees>
              <LongitudeDegrees>-73.017279468476772308349609375</LongitudeDegrees>
            </Position>
            <AltitudeMeters>540.5999755859375</AltitudeMeters>
            <DistanceMeters>25038.7415318</DistanceMeters>
          </Trackpoint>
          <Trackpoint>
            <Time>2023-01-11T13:54:29.000Z</Time>
            <Position>
              <LatitudeDegrees>-49.229374565184116363525390625</LatitudeDegrees>
              <LongitudeDegrees>-73.0173513852059841156005859375</LongitudeDegrees>
            </Position>
            <AltitudeMeters>540.5999755859375</AltitudeMeters>
            <DistanceMeters>25045.246525129</DistanceMeters>
          </Trackpoint>
          <Trackpoint>
            <Time>2023-01-11T13:54:31.000Z</Time>
            <Position>
              <LatitudeDegrees>-49.22938202507793903350830078125</LatitudeDegrees>
              <LongitudeDegrees>-73.01737929694354534149169921875</LongitudeDegrees>
            </Position>
            <AltitudeMeters>540.4000244140625</AltitudeMeters>
            <DistanceMeters>25047.438328193</DistanceMeters>
          </Trackpoint>
          <Trackpoint>
            <Time>2023-01-11T13:54:37.000Z</Time>
            <Position>
              <LatitudeDegrees>-49.2294153012335300445556640625</LatitudeDegrees>
              <LongitudeDegrees>-73.017466552555561065673828125</LongitudeDegrees>
            </Position>
            <AltitudeMeters>540</AltitudeMeters>
            <DistanceMeters>25054.782485503</DistanceMeters>
          </Trackpoint>
          <Trackpoint>
            <Time>2023-01-11T13:54:38.000Z</Time>
            <Position>
              <LatitudeDegrees>-49.22942242585122585296630859375</LatitudeDegrees>
              <LongitudeDegrees>-73.017481975257396697998046875</LongitudeDegrees>
            </Position>
            <AltitudeMeters>539.79998779296875</AltitudeMeters>
            <DistanceMeters>25056.152980268</DistanceMeters>
          </Trackpoint>
          <Trackpoint>
            <Time>2023-01-11T13:54:41.000Z</Time>
            <Position>
              <LatitudeDegrees>-49.2294441349804401397705078125</LatitudeDegrees>
              <LongitudeDegrees>-73.017516843974590301513671875</LongitudeDegrees>
            </Position>
            <AltitudeMeters>540</AltitudeMeters>
            <DistanceMeters>25059.654814617</DistanceMeters>
          </Trackpoint>
          <Trackpoint>
            <Time>2023-01-11T13:54:49.000Z</Time>
            <Position>
              <LatitudeDegrees>-49.229489229619503021240234375</LatitudeDegrees>
              <LongitudeDegrees>-73.01765204407274723052978515625</LongitudeDegrees>
            </Position>
            <AltitudeMeters>541</AltitudeMeters>
            <DistanceMeters>25070.689376266</DistanceMeters>
          </Trackpoint>
          <Trackpoint>
            <Time>2023-01-11T13:54:57.000Z</Time>
            <Position>
              <LatitudeDegrees>-49.22953323461115360260009765625</LatitudeDegrees>
              <LongitudeDegrees>-73.0177543871104717254638671875</LongitudeDegrees>
            </Position>
            <AltitudeMeters>541.5999755859375</AltitudeMeters>
            <DistanceMeters>25079.595564647</DistanceMeters>
          </Trackpoint>
          <Trackpoint>
            <Time>2023-01-11T13:54:58.000Z</Time>
            <Position>
              <LatitudeDegrees>-49.229539521038532257080078125</LatitudeDegrees>
              <LongitudeDegrees>-73.01777291111648082733154296875</LongitudeDegrees>
            </Position>
            <AltitudeMeters>541.79998779296875</AltitudeMeters>
            <DistanceMeters>25081.110041262</DistanceMeters>
          </Trackpoint>
          <Trackpoint>
            <Time>2023-01-11T13:55:03.000Z</Time>
            <Position>
              <LatitudeDegrees>-49.22956408001482486724853515625</LatitudeDegrees>
              <LongitudeDegrees>-73.0178365297615528106689453125</LongitudeDegrees>
            </Position>
            <AltitudeMeters>541.79998779296875</AltitudeMeters>
            <DistanceMeters>25086.480522075</DistanceMeters>
          </Trackpoint>
          <Trackpoint>
            <Time>2023-01-11T13:55:05.000Z</Time>
            <Position>
              <LatitudeDegrees>-49.22956055961549282073974609375</LatitudeDegrees>
              <LongitudeDegrees>-73.0178445763885974884033203125</LongitudeDegrees>
            </Position>
            <AltitudeMeters>541.79998779296875</AltitudeMeters>
            <DistanceMeters>25087.178822961</DistanceMeters>
          </Trackpoint>
          <Trackpoint>
            <Time>2023-01-11T13:55:12.000Z</Time>
            <Position>
              <LatitudeDegrees>-49.22956240363419055938720703125</LatitudeDegrees>
              <LongitudeDegrees>-73.0178435705602169036865234375</LongitudeDegrees>
            </Position>
            <AltitudeMeters>542</AltitudeMeters>
            <DistanceMeters>25087.411589923</DistanceMeters>
          </Trackpoint>
          <Trackpoint>
            <Time>2023-01-11T13:55:30.000Z</Time>
            <Position>
              <LatitudeDegrees>-49.22953826375305652618408203125</LatitudeDegrees>
              <LongitudeDegrees>-73.01784851588308811187744140625</LongitudeDegrees>
            </Position>
            <AltitudeMeters>542.20001220703125</AltitudeMeters>
            <DistanceMeters>25090.1227672</DistanceMeters>
          </Trackpoint>
          <Trackpoint>
            <Time>2023-01-11T13:55:35.000Z</Time>
            <Position>
              <LatitudeDegrees>-49.22953826375305652618408203125</LatitudeDegrees>
              <LongitudeDegrees>-73.01785790361464023590087890625</LongitudeDegrees>
            </Position>
            <AltitudeMeters>542.20001220703125</AltitudeMeters>
            <DistanceMeters>25090.808014582</DistanceMeters>
          </Trackpoint>
          <Trackpoint>
            <Time>2023-01-11T13:55:44.000Z</Time>
            <Position>
              <LatitudeDegrees>-49.22953289933502674102783203125</LatitudeDegrees>
              <LongitudeDegrees>-73.01786142401397228240966796875</LongitudeDegrees>
            </Position>
            <AltitudeMeters>542.20001220703125</AltitudeMeters>
            <DistanceMeters>25091.452517116</DistanceMeters>
          </Trackpoint>
          <Trackpoint>
            <Time>2023-01-11T13:55:51.000Z</Time>
            <Position>
              <LatitudeDegrees>-49.22955737449228763580322265625</LatitudeDegrees>
              <LongitudeDegrees>-73.01789796911180019378662109375</LongitudeDegrees>
            </Position>
            <AltitudeMeters>542.4000244140625</AltitudeMeters>
            <DistanceMeters>25095.255960617</DistanceMeters>
          </Trackpoint>
          <Trackpoint>
            <Time>2023-01-11T13:55:53.000Z</Time>
            <Position>
              <LatitudeDegrees>-49.22957472503185272216796875</LatitudeDegrees>
              <LongitudeDegrees>-73.01792445592582225799560546875</LongitudeDegrees>
            </Position>
            <AltitudeMeters>542.4000244140625</AltitudeMeters>
            <DistanceMeters>25097.982084773</DistanceMeters>
          </Trackpoint>
          <Trackpoint>
            <Time>2023-01-11T13:56:01.000Z</Time>
            <Position>
              <LatitudeDegrees>-49.22964789904654026031494140625</LatitudeDegrees>
              <LongitudeDegrees>-73.01800810731947422027587890625</LongitudeDegrees>
            </Position>
            <AltitudeMeters>542.4000244140625</AltitudeMeters>
            <DistanceMeters>25108.145945974</DistanceMeters>
          </Trackpoint>
          <Trackpoint>
            <Time>2023-01-11T13:56:03.000Z</Time>
            <Position>
              <LatitudeDegrees>-49.22965058125555515289306640625</LatitudeDegrees>
              <LongitudeDegrees>-73.01801732741296291351318359375</LongitudeDegrees>
            </Position>
            <AltitudeMeters>542.5999755859375</AltitudeMeters>
            <DistanceMeters>25108.882019739</DistanceMeters>
          </Trackpoint>
          <Trackpoint>
            <Time>2023-01-11T13:56:08.000Z</Time>
            <Position>
              <LatitudeDegrees>-49.22964706085622310638427734375</LatitudeDegrees>
              <LongitudeDegrees>-73.01801363937556743621826171875</LongitudeDegrees>
            </Position>
            <AltitudeMeters>542.5999755859375</AltitudeMeters>
            <DistanceMeters>25109.366562809</DistanceMeters>
          </Trackpoint>
          <Trackpoint>
            <Time>2023-01-11T13:56:22.000Z</Time>
            <Position>
              <LatitudeDegrees>-49.229640103876590728759765625</LatitudeDegrees>
              <LongitudeDegrees>-73.018035851418972015380859375</LongitudeDegrees>
            </Position>
            <AltitudeMeters>542.5999755859375</AltitudeMeters>
            <DistanceMeters>25111.157003296</DistanceMeters>
          </Trackpoint>
          <Trackpoint>
            <Time>2023-01-11T13:56:29.000Z</Time>
            <Position>
              <LatitudeDegrees>-49.229663908481597900390625</LatitudeDegrees>
              <LongitudeDegrees>-73.01810600794851779937744140625</LongitudeDegrees>
            </Position>
            <AltitudeMeters>543.20001220703125</AltitudeMeters>
            <DistanceMeters>25116.903566579</DistanceMeters>
          </Trackpoint>
          <Trackpoint>
            <Time>2023-01-11T13:56:38.000Z</Time>
            <Position>
              <LatitudeDegrees>-49.229676984250545501708984375</LatitudeDegrees>
              <LongitudeDegrees>-73.01813618279993534088134765625</LongitudeDegrees>
            </Position>
            <AltitudeMeters>543.20001220703125</AltitudeMeters>
            <DistanceMeters>25119.535309087</DistanceMeters>
          </Trackpoint>
          <Trackpoint>
            <Time>2023-01-11T13:56:48.000Z</Time>
            <Position>
              <LatitudeDegrees>-49.2296788282692432403564453125</LatitudeDegrees>
              <LongitudeDegrees>-73.0181345902383327484130859375</LongitudeDegrees>
            </Position>
            <AltitudeMeters>543</AltitudeMeters>
            <DistanceMeters>25119.76807605</DistanceMeters>
          </Trackpoint>
          <Trackpoint>
            <Time>2023-01-11T13:56:54.000Z</Time>
            <Position>
              <LatitudeDegrees>-49.2296788282692432403564453125</LatitudeDegrees>
              <LongitudeDegrees>-73.0181345902383327484130859375</LongitudeDegrees>
            </Position>
            <AltitudeMeters>543</AltitudeMeters>
            <DistanceMeters>25119.76807605</DistanceMeters>
          </Trackpoint>
          <Trackpoint>
            <Time>2023-01-11T13:56:56.000Z</Time>
            <Position>
              <LatitudeDegrees>-49.229681678116321563720703125</LatitudeDegrees>
              <LongitudeDegrees>-73.0181345902383327484130859375</LongitudeDegrees>
            </Position>
            <AltitudeMeters>543</AltitudeMeters>
            <DistanceMeters>25120.097258244</DistanceMeters>
          </Trackpoint>
          <Trackpoint>
            <Time>2023-01-11T13:57:01.000Z</Time>
            <Position>
              <LatitudeDegrees>-49.22968863509595394134521484375</LatitudeDegrees>
              <LongitudeDegrees>-73.0181339196860790252685546875</LongitudeDegrees>
            </Position>
            <AltitudeMeters>543</AltitudeMeters>
            <DistanceMeters>25120.880868605</DistanceMeters>
          </Trackpoint>
          <Trackpoint>
            <Time>2023-01-11T13:57:06.000Z</Time>
            <Position>
              <LatitudeDegrees>-49.229693077504634857177734375</LatitudeDegrees>
              <LongitudeDegrees>-73.01813316531479358673095703125</LongitudeDegrees>
            </Position>
            <AltitudeMeters>542.79998779296875</AltitudeMeters>
            <DistanceMeters>25121.383702714</DistanceMeters>
          </Trackpoint>
          <Trackpoint>
            <Time>2023-01-11T13:57:26.000Z</Time>
            <Position>
              <LatitudeDegrees>-49.22968964092433452606201171875</LatitudeDegrees>
              <LongitudeDegrees>-73.01813132129609584808349609375</LongitudeDegrees>
            </Position>
            <AltitudeMeters>543</AltitudeMeters>
            <DistanceMeters>25121.786866918</DistanceMeters>
          </Trackpoint>
          <Trackpoint>
            <Time>2023-01-11T13:57:28.000Z</Time>
            <Position>
              <LatitudeDegrees>-49.2296999506652355194091796875</LatitudeDegrees>
              <LongitudeDegrees>-73.0181480012834072113037109375</LongitudeDegrees>
            </Position>
            <AltitudeMeters>543</AltitudeMeters>
            <DistanceMeters>25123.459984875</DistanceMeters>
          </Trackpoint>
          <Trackpoint>
            <Time>2023-01-11T13:57:30.000Z</Time>
            <Position>
              <LatitudeDegrees>-49.22972199507057666778564453125</LatitudeDegrees>
              <LongitudeDegrees>-73.0181664414703845977783203125</LongitudeDegrees>
            </Position>
            <AltitudeMeters>543</AltitudeMeters>
            <DistanceMeters>25126.253188421</DistanceMeters>
          </Trackpoint>
          <Trackpoint>
            <Time>2023-01-11T13:57:33.000Z</Time>
            <Position>
              <LatitudeDegrees>-49.22974781133234500885009765625</LatitudeDegrees>
              <LongitudeDegrees>-73.01820223219692707061767578125</LongitudeDegrees>
            </Position>
            <AltitudeMeters>543</AltitudeMeters>
            <DistanceMeters>25130.129532988</DistanceMeters>
          </Trackpoint>
          <Trackpoint>
            <Time>2023-01-11T13:57:44.000Z</Time>
            <Position>
              <LatitudeDegrees>-49.2297703586518764495849609375</LatitudeDegrees>
              <LongitudeDegrees>-73.01830507814884185791015625</LongitudeDegrees>
            </Position>
            <AltitudeMeters>543</AltitudeMeters>
            <DistanceMeters>25138.015032744</DistanceMeters>
          </Trackpoint>
          <Trackpoint>
            <Time>2023-01-11T13:57:50.000Z</Time>
            <Position>
              <LatitudeDegrees>-49.229803048074245452880859375</LatitudeDegrees>
              <LongitudeDegrees>-73.01832879893481731414794921875</LongitudeDegrees>
            </Position>
            <AltitudeMeters>543</AltitudeMeters>
            <DistanceMeters>25142.042192697</DistanceMeters>
          </Trackpoint>
          <Trackpoint>
            <Time>2023-01-11T13:58:00.000Z</Time>
            <Position>
              <LatitudeDegrees>-49.22983934171497821807861328125</LatitudeDegrees>
              <LongitudeDegrees>-73.01838361658155918121337890625</LongitudeDegrees>
            </Position>
            <AltitudeMeters>543</AltitudeMeters>
            <DistanceMeters>25147.716011739</DistanceMeters>
          </Trackpoint>
          <Trackpoint>
            <Time>2023-01-11T13:58:02.000Z</Time>
            <Position>
              <LatitudeDegrees>-49.22984889708459377288818359375</LatitudeDegrees>
              <LongitudeDegrees>-73.0183994583785533905029296875</LongitudeDegrees>
            </Position>
            <AltitudeMeters>543</AltitudeMeters>
            <DistanceMeters>25149.283232462</DistanceMeters>
          </Trackpoint>
          <Trackpoint>
            <Time>2023-01-11T13:58:10.000Z</Time>
            <Position>
              <LatitudeDegrees>-49.22984252683818340301513671875</LatitudeDegrees>
              <LongitudeDegrees>-73.0184403620660305023193359375</LongitudeDegrees>
            </Position>
            <AltitudeMeters>543</AltitudeMeters>
            <DistanceMeters>25152.338899172</DistanceMeters>
          </Trackpoint>
          <Trackpoint>
            <Time>2023-01-11T13:58:16.000Z</Time>
            <Position>
              <LatitudeDegrees>-49.2298464663326740264892578125</LatitudeDegrees>
              <LongitudeDegrees>-73.0184343270957469940185546875</LongitudeDegrees>
            </Position>
            <AltitudeMeters>543</AltitudeMeters>
            <DistanceMeters>25152.954742667</DistanceMeters>
          </Trackpoint>
          <Trackpoint>
            <Time>2023-01-11T13:58:19.000Z</Time>
            <Position>
              <LatitudeDegrees>-49.229850657284259796142578125</LatitudeDegrees>
              <LongitudeDegrees>-73.0184313096106052398681640625</LongitudeDegrees>
            </Position>
            <AltitudeMeters>543</AltitudeMeters>
            <DistanceMeters>25153.466477185</DistanceMeters>
          </Trackpoint>
          <Trackpoint>
            <Time>2023-01-11T13:58:22.000Z</Time>
            <Position>
              <LatitudeDegrees>-49.229850657284259796142578125</LatitudeDegrees>
              <LongitudeDegrees>-73.0184313096106052398681640625</LongitudeDegrees>
            </Position>
            <AltitudeMeters>543</AltitudeMeters>
            <DistanceMeters>25153.466477185</DistanceMeters>
          </Trackpoint>
          <Trackpoint>
            <Time>2023-01-11T13:58:26.000Z</Time>
            <Position>
              <LatitudeDegrees>-49.22985007055103778839111328125</LatitudeDegrees>
              <LongitudeDegrees>-73.0184313096106052398681640625</LongitudeDegrees>
            </Position>
            <AltitudeMeters>549.79998779296875</AltitudeMeters>
            <DistanceMeters>25153.466477185</DistanceMeters>
          </Trackpoint>
          <Trackpoint>
            <Time>2023-01-11T13:58:40.000Z</Time>
            <Position>
              <LatitudeDegrees>-49.22984118573367595672607421875</LatitudeDegrees>
              <LongitudeDegrees>-73.018436171114444732666015625</LongitudeDegrees>
            </Position>
            <AltitudeMeters>550.20001220703125</AltitudeMeters>
            <DistanceMeters>25154.516081552</DistanceMeters>
          </Trackpoint>
          <Trackpoint>
            <Time>2023-01-11T13:58:42.000Z</Time>
            <Position>
              <LatitudeDegrees>-49.22984101809561252593994140625</LatitudeDegrees>
              <LongitudeDegrees>-73.018436171114444732666015625</LongitudeDegrees>
            </Position>
            <AltitudeMeters>550.20001220703125</AltitudeMeters>
            <DistanceMeters>25154.516081552</DistanceMeters>
          </Trackpoint>
          <Trackpoint>
            <Time>2023-01-11T13:58:46.000Z</Time>
            <Position>
              <LatitudeDegrees>-49.22984034754335880279541015625</LatitudeDegrees>
              <LongitudeDegrees>-73.018436171114444732666015625</LongitudeDegrees>
            </Position>
            <AltitudeMeters>550.4000244140625</AltitudeMeters>
            <DistanceMeters>25154.516081552</DistanceMeters>
          </Trackpoint>
          <Trackpoint>
            <Time>2023-01-11T13:58:55.000Z</Time>
            <Position>
              <LatitudeDegrees>-49.22982995398342609405517578125</LatitudeDegrees>
              <LongitudeDegrees>-73.0184574611485004425048828125</LongitudeDegrees>
            </Position>
            <AltitudeMeters>550.5999755859375</AltitudeMeters>
            <DistanceMeters>25156.447252588</DistanceMeters>
          </Trackpoint>
          <Trackpoint>
            <Time>2023-01-11T13:58:58.000Z</Time>
            <Position>
              <LatitudeDegrees>-49.22982995398342609405517578125</LatitudeDegrees>
              <LongitudeDegrees>-73.018457628786563873291015625</LongitudeDegrees>
            </Position>
            <AltitudeMeters>550.79998779296875</AltitudeMeters>
            <DistanceMeters>25156.447252588</DistanceMeters>
          </Trackpoint>
          <Trackpoint>
            <Time>2023-01-11T13:59:04.000Z</Time>
            <Position>
              <LatitudeDegrees>-49.22982995398342609405517578125</LatitudeDegrees>
              <LongitudeDegrees>-73.018457628786563873291015625</LongitudeDegrees>
            </Position>
            <AltitudeMeters>550.79998779296875</AltitudeMeters>
            <DistanceMeters>25156.447252588</DistanceMeters>
          </Trackpoint>
          <Trackpoint>
            <Time>2023-01-11T13:59:21.000Z</Time>
            <Position>
              <LatitudeDegrees>-49.229843616485595703125</LatitudeDegrees>
              <LongitudeDegrees>-73.01844723522663116455078125</LongitudeDegrees>
            </Position>
            <AltitudeMeters>550.4000244140625</AltitudeMeters>
            <DistanceMeters>25158.147142132</DistanceMeters>
          </Trackpoint>
          <Trackpoint>
            <Time>2023-01-11T13:59:32.000Z</Time>
            <Position>
              <LatitudeDegrees>-49.22983163036406040191650390625</LatitudeDegrees>
              <LongitudeDegrees>-73.018452264368534088134765625</LongitudeDegrees>
            </Position>
            <AltitudeMeters>550.5999755859375</AltitudeMeters>
            <DistanceMeters>25159.53401137</DistanceMeters>
          </Trackpoint>
          <Trackpoint>
            <Time>2023-01-11T13:59:46.000Z</Time>
            <Position>
              <LatitudeDegrees>-49.22982827760279178619384765625</LatitudeDegrees>
              <LongitudeDegrees>-73.01846022717654705047607421875</LongitudeDegrees>
            </Position>
            <AltitudeMeters>550.20001220703125</AltitudeMeters>
            <DistanceMeters>25160.225816293</DistanceMeters>
          </Trackpoint>
          <Trackpoint>
            <Time>2023-01-11T13:59:49.000Z</Time>
            <Position>
              <LatitudeDegrees>-49.22982878051698207855224609375</LatitudeDegrees>
              <LongitudeDegrees>-73.01846022717654705047607421875</LongitudeDegrees>
            </Position>
            <AltitudeMeters>549.5999755859375</AltitudeMeters>
            <DistanceMeters>25160.225816293</DistanceMeters>
          </Trackpoint>
          <Trackpoint>
            <Time>2023-01-11T13:59:55.000Z</Time>
            <Position>
              <LatitudeDegrees>-49.22982794232666492462158203125</LatitudeDegrees>
              <LongitudeDegrees>-73.0184571258723735809326171875</LongitudeDegrees>
            </Position>
            <AltitudeMeters>548.5999755859375</AltitudeMeters>
            <DistanceMeters>25160.458583255</DistanceMeters>
          </Trackpoint>
          <Trackpoint>
            <Time>2023-01-11T13:59:59.000Z</Time>
            <Position>
              <LatitudeDegrees>-49.22982693649828433990478515625</LatitudeDegrees>
              <LongitudeDegrees>-73.01845385693013668060302734375</LongitudeDegrees>
            </Position>
            <AltitudeMeters>548</AltitudeMeters>
            <DistanceMeters>25160.727359391</DistanceMeters>
          </Trackpoint>
          <Trackpoint>
            <Time>2023-01-11T14:00:02.000Z</Time>
            <Position>
              <LatitudeDegrees>-49.22982685267925262451171875</LatitudeDegrees>
              <LongitudeDegrees>-73.01843072287738323211669921875</LongitudeDegrees>
            </Position>
            <AltitudeMeters>547.20001220703125</AltitudeMeters>
            <DistanceMeters>25162.405865826</DistanceMeters>
          </Trackpoint>
          <Trackpoint>
            <Time>2023-01-11T14:00:07.000Z</Time>
            <Position>
              <LatitudeDegrees>-49.22982308082282543182373046875</LatitudeDegrees>
              <LongitudeDegrees>-73.0183977819979190826416015625</LongitudeDegrees>
            </Position>
            <AltitudeMeters>546.20001220703125</AltitudeMeters>
            <DistanceMeters>25164.836024256</DistanceMeters>
          </Trackpoint>
          <Trackpoint>
            <Time>2023-01-11T14:00:14.000Z</Time>
            <Position>
              <LatitudeDegrees>-49.22980782575905323028564453125</LatitudeDegrees>
              <LongitudeDegrees>-73.018380515277385711669921875</LongitudeDegrees>
            </Position>
            <AltitudeMeters>545.20001220703125</AltitudeMeters>
            <DistanceMeters>25166.948098536</DistanceMeters>
          </Trackpoint>
          <Trackpoint>
            <Time>2023-01-11T14:00:17.000Z</Time>
            <Position>
              <LatitudeDegrees>-49.2297703586518764495849609375</LatitudeDegrees>
              <LongitudeDegrees>-73.01832578144967555999755859375</LongitudeDegrees>
            </Position>
            <AltitudeMeters>544.20001220703125</AltitudeMeters>
            <DistanceMeters>25172.711921159</DistanceMeters>
          </Trackpoint>
          <Trackpoint>
            <Time>2023-01-11T14:00:18.000Z</Time>
            <Position>
              <LatitudeDegrees>-49.2297576181590557098388671875</LatitudeDegrees>
              <LongitudeDegrees>-73.018310107290744781494140625</LongitudeDegrees>
            </Position>
            <AltitudeMeters>544</AltitudeMeters>
            <DistanceMeters>25174.52988925</DistanceMeters>
          </Trackpoint>
          <Trackpoint>
            <Time>2023-01-11T14:00:19.000Z</Time>
            <Position>
              <LatitudeDegrees>-49.22974546439945697784423828125</LatitudeDegrees>
              <LongitudeDegrees>-73.01829393021762371063232421875</LongitudeDegrees>
            </Position>
            <AltitudeMeters>543.79998779296875</AltitudeMeters>
            <DistanceMeters>25176.322849711</DistanceMeters>
          </Trackpoint>
        </Track>
      </Lap>
    </Activity>
  </Activities>
</TrainingCenterDatabase>
